<?xml version='1.0' encoding='UTF-8'?><gpx version="1.1" creator="JPX - https://github.com/jenetics/jpx" xmlns="http://www.topografix.com/GPX/1/1"><trk><trkseg><trkpt lat="42.5223417" lon="14.1531133"><ele>1.9999999999999998</ele><time>2026-05-01T07:02:34.282Z</time></trkpt><trkpt lat="42.522405" lon="14.1530467"><ele>2.0</ele><time>2026-05-01T07:02:37.282Z</time></trkpt><trkpt lat="42.5224733" lon="14.1529717"><ele>2.0</ele><time>2026-05-01T07:02:40.283Z</time></trkpt><trkpt lat="42.5225617" lon="14.1529133"><ele>2.0</ele><time>2026-05-01T07:02:42.282Z</time></trkpt><trkpt lat="42.5226317" lon="14.1528767"><ele>1.9999999999999998</ele><time>2026-05-01T07:02:44.282Z</time></trkpt><trkpt lat="42.5227017" lon="14.152925"><ele>2.0</ele><time>2026-05-01T07:02:51.282Z</time></trkpt><trkpt lat="42.52266" lon="14.1530467"><ele>1.9999999999999998</ele><time>2026-05-01T07:02:54.282Z</time></trkpt><trkpt lat="42.5226033" lon="14.15309"><ele>2.0</ele><time>2026-05-01T07:02:55.282Z</time></trkpt><trkpt lat="42.522535" lon="14.1531433"><ele>2.0</ele><time>2026-05-01T07:02:56.282Z</time></trkpt><trkpt lat="42.5224717" lon="14.1531967"><ele>2.0</ele><time>2026-05-01T07:02:57.282Z</time></trkpt><trkpt lat="42.5224083" lon="14.1532533"><ele>1.9999999999999998</ele><time>2026-05-01T07:02:58.282Z</time></trkpt><trkpt lat="42.52234" lon="14.1533067"><ele>2.0</ele><time>2026-05-01T07:02:59.283Z</time></trkpt><trkpt lat="42.5222683" lon="14.1533633"><ele>1.9999999999999998</ele><time>2026-05-01T07:03:00.283Z</time></trkpt><trkpt lat="42.5222067" lon="14.1534167"><ele>2.0</ele><time>2026-05-01T07:03:01.282Z</time></trkpt><trkpt lat="42.5221483" lon="14.1534683"><ele>2.0</ele><time>2026-05-01T07:03:02.282Z</time></trkpt><trkpt lat="42.52206" lon="14.1535433"><ele>2.0</ele><time>2026-05-01T07:03:04.282Z</time></trkpt><trkpt lat="42.5219617" lon="14.15362"><ele>1.9999999999999998</ele><time>2026-05-01T07:03:11.282Z</time></trkpt><trkpt lat="42.5219367" lon="14.1537317"><ele>2.0</ele><time>2026-05-01T07:03:24.282Z</time></trkpt><trkpt lat="42.521945" lon="14.153895"><ele>1.8</ele><time>2026-05-01T07:03:26.282Z</time></trkpt><trkpt lat="42.52198" lon="14.153995"><ele>1.6</ele><time>2026-05-01T07:03:27.282Z</time></trkpt><trkpt lat="42.5220167" lon="14.1541267"><ele>1.4000000000000001</ele><time>2026-05-01T07:03:28.283Z</time></trkpt><trkpt lat="42.5220417" lon="14.1542517"><ele>1.2000000000000002</ele><time>2026-05-01T07:03:29.282Z</time></trkpt><trkpt lat="42.5220733" lon="14.1543733"><ele>1.0</ele><time>2026-05-01T07:03:30.282Z</time></trkpt><trkpt lat="42.522105" lon="14.1544733"><ele>2.4000000000000004</ele><time>2026-05-01T07:03:31.282Z</time></trkpt><trkpt lat="42.5221217" lon="14.1545783"><ele>3.8000000000000003</ele><time>2026-05-01T07:03:32.282Z</time></trkpt><trkpt lat="42.5221383" lon="14.1547117"><ele>5.200000000000001</ele><time>2026-05-01T07:03:33.282Z</time></trkpt><trkpt lat="42.5221533" lon="14.1548633"><ele>6.6000000000000005</ele><time>2026-05-01T07:03:34.282Z</time></trkpt><trkpt lat="42.5221667" lon="14.15502"><ele>8.0</ele><time>2026-05-01T07:03:35.282Z</time></trkpt><trkpt lat="42.5221667" lon="14.15516"><ele>7.6000000000000005</ele><time>2026-05-01T07:03:36.282Z</time></trkpt><trkpt lat="42.5221483" lon="14.155305"><ele>7.200000000000001</ele><time>2026-05-01T07:03:37.282Z</time></trkpt><trkpt lat="42.522135" lon="14.1554283"><ele>6.8</ele><time>2026-05-01T07:03:38.282Z</time></trkpt><trkpt lat="42.5221133" lon="14.155575"><ele>6.4</ele><time>2026-05-01T07:03:39.282Z</time></trkpt><trkpt lat="42.5220817" lon="14.1557217"><ele>6.0</ele><time>2026-05-01T07:03:40.283Z</time></trkpt><trkpt lat="42.5220467" lon="14.1558567"><ele>5.3999999999999995</ele><time>2026-05-01T07:03:41.282Z</time></trkpt><trkpt lat="42.5220083" lon="14.155985"><ele>4.8</ele><time>2026-05-01T07:03:42.282Z</time></trkpt><trkpt lat="42.5219633" lon="14.156115"><ele>4.199999999999999</ele><time>2026-05-01T07:03:43.282Z</time></trkpt><trkpt lat="42.5219133" lon="14.156235"><ele>3.5999999999999996</ele><time>2026-05-01T07:03:44.282Z</time></trkpt><trkpt lat="42.5218633" lon="14.15633"><ele>3.0</ele><time>2026-05-01T07:03:45.282Z</time></trkpt><trkpt lat="42.521815" lon="14.156415"><ele>3.0</ele><time>2026-05-01T07:03:46.282Z</time></trkpt><trkpt lat="42.521765" lon="14.15649"><ele>3.0</ele><time>2026-05-01T07:03:47.282Z</time></trkpt><trkpt lat="42.52171" lon="14.1565583"><ele>3.0</ele><time>2026-05-01T07:03:48.282Z</time></trkpt><trkpt lat="42.5216567" lon="14.1566267"><ele>3.0</ele><time>2026-05-01T07:03:49.282Z</time></trkpt><trkpt lat="42.521595" lon="14.1566917"><ele>3.0</ele><time>2026-05-01T07:03:50.283Z</time></trkpt><trkpt lat="42.5215333" lon="14.1567617"><ele>3.0</ele><time>2026-05-01T07:03:51.282Z</time></trkpt><trkpt lat="42.5214633" lon="14.1568383"><ele>3.0</ele><time>2026-05-01T07:03:52.282Z</time></trkpt><trkpt lat="42.5213917" lon="14.156925"><ele>3.0</ele><time>2026-05-01T07:03:53.283Z</time></trkpt><trkpt lat="42.521315" lon="14.157015"><ele>3.0</ele><time>2026-05-01T07:03:54.282Z</time></trkpt><trkpt lat="42.5212383" lon="14.1571033"><ele>3.0</ele><time>2026-05-01T07:03:55.282Z</time></trkpt><trkpt lat="42.52116" lon="14.1571817"><ele>3.0</ele><time>2026-05-01T07:03:56.282Z</time></trkpt><trkpt lat="42.5210833" lon="14.1572533"><ele>3.0</ele><time>2026-05-01T07:03:57.282Z</time></trkpt><trkpt lat="42.5210183" lon="14.1573267"><ele>3.0</ele><time>2026-05-01T07:03:58.282Z</time></trkpt><trkpt lat="42.5209517" lon="14.1573933"><ele>3.0</ele><time>2026-05-01T07:03:59.283Z</time></trkpt><trkpt lat="42.5208833" lon="14.1574583"><ele>3.0</ele><time>2026-05-01T07:04:00.282Z</time></trkpt><trkpt lat="42.5208067" lon="14.1575383"><ele>3.0</ele><time>2026-05-01T07:04:01.282Z</time></trkpt><trkpt lat="42.520725" lon="14.157625"><ele>3.0</ele><time>2026-05-01T07:04:02.282Z</time></trkpt><trkpt lat="42.5206417" lon="14.1577133"><ele>3.0</ele><time>2026-05-01T07:04:03.282Z</time></trkpt><trkpt lat="42.5205683" lon="14.1577967"><ele>3.0</ele><time>2026-05-01T07:04:04.282Z</time></trkpt><trkpt lat="42.52049" lon="14.1578733"><ele>3.0</ele><time>2026-05-01T07:04:05.282Z</time></trkpt><trkpt lat="42.5204233" lon="14.1579517"><ele>3.0</ele><time>2026-05-01T07:04:06.282Z</time></trkpt><trkpt lat="42.5203617" lon="14.1580233"><ele>3.0</ele><time>2026-05-01T07:04:07.282Z</time></trkpt><trkpt lat="42.5202917" lon="14.1581017"><ele>3.0</ele><time>2026-05-01T07:04:08.282Z</time></trkpt><trkpt lat="42.52022" lon="14.158185"><ele>3.0</ele><time>2026-05-01T07:04:09.282Z</time></trkpt><trkpt lat="42.5201467" lon="14.1582683"><ele>3.0</ele><time>2026-05-01T07:04:10.282Z</time></trkpt><trkpt lat="42.5200667" lon="14.158355"><ele>3.0</ele><time>2026-05-01T07:04:11.282Z</time></trkpt><trkpt lat="42.519975" lon="14.1584517"><ele>3.0</ele><time>2026-05-01T07:04:12.282Z</time></trkpt><trkpt lat="42.5198717" lon="14.15856"><ele>3.0</ele><time>2026-05-01T07:04:13.283Z</time></trkpt><trkpt lat="42.5197783" lon="14.1586633"><ele>3.0</ele><time>2026-05-01T07:04:14.282Z</time></trkpt><trkpt lat="42.519695" lon="14.158755"><ele>3.0</ele><time>2026-05-01T07:04:15.282Z</time></trkpt><trkpt lat="42.519615" lon="14.15884"><ele>2.8</ele><time>2026-05-01T07:04:16.282Z</time></trkpt><trkpt lat="42.5195367" lon="14.1589217"><ele>2.5999999999999996</ele><time>2026-05-01T07:04:17.283Z</time></trkpt><trkpt lat="42.5194567" lon="14.159005"><ele>2.4000000000000004</ele><time>2026-05-01T07:04:18.282Z</time></trkpt><trkpt lat="42.5193767" lon="14.1590867"><ele>2.2</ele><time>2026-05-01T07:04:19.282Z</time></trkpt><trkpt lat="42.5192917" lon="14.1591717"><ele>2.0</ele><time>2026-05-01T07:04:20.282Z</time></trkpt><trkpt lat="42.5192133" lon="14.1592583"><ele>2.0</ele><time>2026-05-01T07:04:21.283Z</time></trkpt><trkpt lat="42.5191383" lon="14.15934"><ele>2.0</ele><time>2026-05-01T07:04:22.282Z</time></trkpt><trkpt lat="42.5190617" lon="14.159415"><ele>2.0</ele><time>2026-05-01T07:04:23.282Z</time></trkpt><trkpt lat="42.5189833" lon="14.159505"><ele>2.0</ele><time>2026-05-01T07:04:24.282Z</time></trkpt><trkpt lat="42.5188933" lon="14.1595933"><ele>2.0</ele><time>2026-05-01T07:04:25.282Z</time></trkpt><trkpt lat="42.5188133" lon="14.1596833"><ele>1.8</ele><time>2026-05-01T07:04:26.282Z</time></trkpt><trkpt lat="42.5187333" lon="14.1597667"><ele>1.6</ele><time>2026-05-01T07:04:27.282Z</time></trkpt><trkpt lat="42.5186583" lon="14.1598467"><ele>1.4000000000000001</ele><time>2026-05-01T07:04:28.281Z</time></trkpt><trkpt lat="42.518585" lon="14.159925"><ele>1.2000000000000002</ele><time>2026-05-01T07:04:29.281Z</time></trkpt><trkpt lat="42.5185133" lon="14.16"><ele>1.0</ele><time>2026-05-01T07:04:30.281Z</time></trkpt><trkpt lat="42.5184383" lon="14.16008"><ele>0.6666666666666666</ele><time>2026-05-01T07:04:31.281Z</time></trkpt><trkpt lat="42.5183617" lon="14.16016"><ele>0.3333333333333333</ele><time>2026-05-01T07:04:32.281Z</time></trkpt><trkpt lat="42.5182917" lon="14.1602367"><ele>0.0</ele><time>2026-05-01T07:04:33.281Z</time></trkpt><trkpt lat="42.5182267" lon="14.16031"><ele>-0.3333333333333333</ele><time>2026-05-01T07:04:34.281Z</time></trkpt><trkpt lat="42.5181667" lon="14.16038"><ele>-0.6666666666666666</ele><time>2026-05-01T07:04:35.281Z</time></trkpt><trkpt lat="42.5181083" lon="14.1604433"><ele>-1.0</ele><time>2026-05-01T07:04:36.281Z</time></trkpt><trkpt lat="42.5180417" lon="14.1605017"><ele>-1.0</ele><time>2026-05-01T07:04:37.281Z</time></trkpt><trkpt lat="42.5179717" lon="14.1605667"><ele>-1.0</ele><time>2026-05-01T07:04:38.281Z</time></trkpt><trkpt lat="42.5179033" lon="14.1606383"><ele>-1.0</ele><time>2026-05-01T07:04:39.281Z</time></trkpt><trkpt lat="42.5178367" lon="14.160715"><ele>-1.0</ele><time>2026-05-01T07:04:40.281Z</time></trkpt><trkpt lat="42.5177533" lon="14.1608033"><ele>-1.0</ele><time>2026-05-01T07:04:41.281Z</time></trkpt><trkpt lat="42.517665" lon="14.16089"><ele>-0.33333333333333326</ele><time>2026-05-01T07:04:42.281Z</time></trkpt><trkpt lat="42.51759" lon="14.16097"><ele>0.33333333333333337</ele><time>2026-05-01T07:04:43.282Z</time></trkpt><trkpt lat="42.5175217" lon="14.1610467"><ele>1.0</ele><time>2026-05-01T07:04:44.281Z</time></trkpt><trkpt lat="42.51746" lon="14.1611117"><ele>1.6666666666666667</ele><time>2026-05-01T07:04:45.281Z</time></trkpt><trkpt lat="42.517405" lon="14.161175"><ele>2.3333333333333335</ele><time>2026-05-01T07:04:46.281Z</time></trkpt><trkpt lat="42.51735" lon="14.1612333"><ele>3.0</ele><time>2026-05-01T07:04:47.281Z</time></trkpt><trkpt lat="42.51725" lon="14.16134"><ele>3.0</ele><time>2026-05-01T07:04:49.281Z</time></trkpt><trkpt lat="42.5171867" lon="14.1614"><ele>3.0</ele><time>2026-05-01T07:04:50.281Z</time></trkpt><trkpt lat="42.5171167" lon="14.1614683"><ele>3.0</ele><time>2026-05-01T07:04:51.281Z</time></trkpt><trkpt lat="42.5170517" lon="14.1615533"><ele>3.0</ele><time>2026-05-01T07:04:52.281Z</time></trkpt><trkpt lat="42.51698" lon="14.1616383"><ele>3.0</ele><time>2026-05-01T07:04:53.282Z</time></trkpt><trkpt lat="42.5169017" lon="14.1617233"><ele>3.0</ele><time>2026-05-01T07:04:54.281Z</time></trkpt><trkpt lat="42.516815" lon="14.161815"><ele>3.25</ele><time>2026-05-01T07:04:55.281Z</time></trkpt><trkpt lat="42.516715" lon="14.1619267"><ele>3.5</ele><time>2026-05-01T07:04:56.281Z</time></trkpt><trkpt lat="42.5166133" lon="14.16204"><ele>3.75</ele><time>2026-05-01T07:04:57.281Z</time></trkpt><trkpt lat="42.5165217" lon="14.1621433"><ele>4.0</ele><time>2026-05-01T07:04:58.281Z</time></trkpt><trkpt lat="42.5164367" lon="14.16224"><ele>4.0</ele><time>2026-05-01T07:04:59.281Z</time></trkpt><trkpt lat="42.5163467" lon="14.1623317"><ele>4.0</ele><time>2026-05-01T07:05:00.281Z</time></trkpt><trkpt lat="42.5162583" lon="14.16242"><ele>4.0</ele><time>2026-05-01T07:05:01.281Z</time></trkpt><trkpt lat="42.51616" lon="14.1625217"><ele>4.0</ele><time>2026-05-01T07:05:02.281Z</time></trkpt><trkpt lat="42.5160783" lon="14.1626217"><ele>4.0</ele><time>2026-05-01T07:05:03.281Z</time></trkpt><trkpt lat="42.5159983" lon="14.1627167"><ele>4.0</ele><time>2026-05-01T07:05:04.281Z</time></trkpt><trkpt lat="42.51591" lon="14.1628083"><ele>4.0</ele><time>2026-05-01T07:05:05.281Z</time></trkpt><trkpt lat="42.515825" lon="14.1629083"><ele>4.0</ele><time>2026-05-01T07:05:06.281Z</time></trkpt><trkpt lat="42.51573" lon="14.16301"><ele>4.0</ele><time>2026-05-01T07:05:07.281Z</time></trkpt><trkpt lat="42.5156483" lon="14.1630867"><ele>4.0</ele><time>2026-05-01T07:05:08.282Z</time></trkpt><trkpt lat="42.5155683" lon="14.1631667"><ele>4.0</ele><time>2026-05-01T07:05:09.281Z</time></trkpt><trkpt lat="42.51549" lon="14.1632417"><ele>4.0</ele><time>2026-05-01T07:05:10.281Z</time></trkpt><trkpt lat="42.5154167" lon="14.16332"><ele>4.0</ele><time>2026-05-01T07:05:11.281Z</time></trkpt><trkpt lat="42.5153367" lon="14.1633983"><ele>3.6</ele><time>2026-05-01T07:05:12.281Z</time></trkpt><trkpt lat="42.5152617" lon="14.16347"><ele>3.2</ele><time>2026-05-01T07:05:13.281Z</time></trkpt><trkpt lat="42.5151917" lon="14.16355"><ele>2.8000000000000003</ele><time>2026-05-01T07:05:14.281Z</time></trkpt><trkpt lat="42.5151183" lon="14.16363"><ele>2.4000000000000004</ele><time>2026-05-01T07:05:15.282Z</time></trkpt><trkpt lat="42.5150433" lon="14.1637133"><ele>2.0</ele><time>2026-05-01T07:05:16.281Z</time></trkpt><trkpt lat="42.5149717" lon="14.16379"><ele>1.9999999999999998</ele><time>2026-05-01T07:05:17.281Z</time></trkpt><trkpt lat="42.51491" lon="14.1638533"><ele>2.0</ele><time>2026-05-01T07:05:18.281Z</time></trkpt><trkpt lat="42.5148433" lon="14.1639217"><ele>2.0</ele><time>2026-05-01T07:05:19.281Z</time></trkpt><trkpt lat="42.5147817" lon="14.1639917"><ele>2.0</ele><time>2026-05-01T07:05:20.281Z</time></trkpt><trkpt lat="42.5147267" lon="14.164065"><ele>1.9999999999999998</ele><time>2026-05-01T07:05:21.281Z</time></trkpt><trkpt lat="42.5146767" lon="14.164125"><ele>2.0</ele><time>2026-05-01T07:05:22.281Z</time></trkpt><trkpt lat="42.5145817" lon="14.1642133"><ele>1.8</ele><time>2026-05-01T07:05:24.281Z</time></trkpt><trkpt lat="42.5144933" lon="14.16432"><ele>1.6</ele><time>2026-05-01T07:05:26.281Z</time></trkpt><trkpt lat="42.514425" lon="14.1643883"><ele>1.4000000000000001</ele><time>2026-05-01T07:05:27.281Z</time></trkpt><trkpt lat="42.514345" lon="14.1644667"><ele>1.2000000000000002</ele><time>2026-05-01T07:05:28.281Z</time></trkpt><trkpt lat="42.5142633" lon="14.1645517"><ele>1.0</ele><time>2026-05-01T07:05:29.281Z</time></trkpt><trkpt lat="42.5141983" lon="14.1646333"><ele>1.0</ele><time>2026-05-01T07:05:30.281Z</time></trkpt><trkpt lat="42.51412" lon="14.1647117"><ele>1.0</ele><time>2026-05-01T07:05:31.281Z</time></trkpt><trkpt lat="42.5140283" lon="14.1648033"><ele>1.0</ele><time>2026-05-01T07:05:32.282Z</time></trkpt><trkpt lat="42.513935" lon="14.1649017"><ele>1.0</ele><time>2026-05-01T07:05:33.281Z</time></trkpt><trkpt lat="42.5138417" lon="14.1650017"><ele>1.0</ele><time>2026-05-01T07:05:34.281Z</time></trkpt><trkpt lat="42.5137533" lon="14.1650967"><ele>1.2000000000000002</ele><time>2026-05-01T07:05:35.282Z</time></trkpt><trkpt lat="42.5136767" lon="14.165185"><ele>1.4000000000000001</ele><time>2026-05-01T07:05:36.281Z</time></trkpt><trkpt lat="42.5135917" lon="14.165275"><ele>1.6</ele><time>2026-05-01T07:05:37.282Z</time></trkpt><trkpt lat="42.5135017" lon="14.165375"><ele>1.8</ele><time>2026-05-01T07:05:38.281Z</time></trkpt><trkpt lat="42.513415" lon="14.1654717"><ele>2.0</ele><time>2026-05-01T07:05:39.282Z</time></trkpt><trkpt lat="42.51333" lon="14.1655617"><ele>2.0</ele><time>2026-05-01T07:05:40.281Z</time></trkpt><trkpt lat="42.5132383" lon="14.165655"><ele>2.0</ele><time>2026-05-01T07:05:41.281Z</time></trkpt><trkpt lat="42.5131417" lon="14.165755"><ele>2.0</ele><time>2026-05-01T07:05:42.281Z</time></trkpt><trkpt lat="42.513045" lon="14.1658517"><ele>2.0</ele><time>2026-05-01T07:05:43.281Z</time></trkpt><trkpt lat="42.5129533" lon="14.1659583"><ele>2.25</ele><time>2026-05-01T07:05:44.282Z</time></trkpt><trkpt lat="42.51286" lon="14.1660633"><ele>2.5</ele><time>2026-05-01T07:05:45.281Z</time></trkpt><trkpt lat="42.5127617" lon="14.1661617"><ele>2.75</ele><time>2026-05-01T07:05:46.281Z</time></trkpt><trkpt lat="42.5126767" lon="14.166255"><ele>3.0</ele><time>2026-05-01T07:05:47.281Z</time></trkpt><trkpt lat="42.5125933" lon="14.166345"><ele>3.0</ele><time>2026-05-01T07:05:48.281Z</time></trkpt><trkpt lat="42.51251" lon="14.1664367"><ele>3.0</ele><time>2026-05-01T07:05:49.282Z</time></trkpt><trkpt lat="42.5124183" lon="14.16653"><ele>3.0</ele><time>2026-05-01T07:05:50.281Z</time></trkpt><trkpt lat="42.5123217" lon="14.1666267"><ele>3.0</ele><time>2026-05-01T07:05:51.281Z</time></trkpt><trkpt lat="42.5122317" lon="14.1667217"><ele>2.8</ele><time>2026-05-01T07:05:52.281Z</time></trkpt><trkpt lat="42.5121483" lon="14.16682"><ele>2.5999999999999996</ele><time>2026-05-01T07:05:53.281Z</time></trkpt><trkpt lat="42.5120667" lon="14.1669083"><ele>2.4000000000000004</ele><time>2026-05-01T07:05:54.281Z</time></trkpt><trkpt lat="42.511985" lon="14.1669967"><ele>2.2</ele><time>2026-05-01T07:05:55.281Z</time></trkpt><trkpt lat="42.5119017" lon="14.1670817"><ele>2.0</ele><time>2026-05-01T07:05:56.281Z</time></trkpt><trkpt lat="42.511825" lon="14.1671733"><ele>2.0</ele><time>2026-05-01T07:05:57.281Z</time></trkpt><trkpt lat="42.5117467" lon="14.1672583"><ele>2.0</ele><time>2026-05-01T07:05:58.281Z</time></trkpt><trkpt lat="42.51167" lon="14.1673367"><ele>2.0</ele><time>2026-05-01T07:05:59.281Z</time></trkpt><trkpt lat="42.51159" lon="14.16742"><ele>2.0</ele><time>2026-05-01T07:06:00.281Z</time></trkpt><trkpt lat="42.51151" lon="14.167505"><ele>2.0</ele><time>2026-05-01T07:06:01.281Z</time></trkpt><trkpt lat="42.5114283" lon="14.1675933"><ele>2.0</ele><time>2026-05-01T07:06:02.281Z</time></trkpt><trkpt lat="42.511345" lon="14.16769"><ele>2.0</ele><time>2026-05-01T07:06:03.281Z</time></trkpt><trkpt lat="42.5112517" lon="14.167785"><ele>2.0</ele><time>2026-05-01T07:06:04.281Z</time></trkpt><trkpt lat="42.5111567" lon="14.1678783"><ele>2.0</ele><time>2026-05-01T07:06:05.281Z</time></trkpt><trkpt lat="42.5110633" lon="14.16798"><ele>2.0</ele><time>2026-05-01T07:06:06.281Z</time></trkpt><trkpt lat="42.5109683" lon="14.16808"><ele>2.0</ele><time>2026-05-01T07:06:07.281Z</time></trkpt><trkpt lat="42.51088" lon="14.16818"><ele>2.0</ele><time>2026-05-01T07:06:08.281Z</time></trkpt><trkpt lat="42.5107933" lon="14.168275"><ele>2.0</ele><time>2026-05-01T07:06:09.281Z</time></trkpt><trkpt lat="42.5107067" lon="14.1683683"><ele>2.0</ele><time>2026-05-01T07:06:10.281Z</time></trkpt><trkpt lat="42.51062" lon="14.16846"><ele>2.0</ele><time>2026-05-01T07:06:11.282Z</time></trkpt><trkpt lat="42.510535" lon="14.1685517"><ele>2.0</ele><time>2026-05-01T07:06:12.281Z</time></trkpt><trkpt lat="42.5104533" lon="14.1686367"><ele>2.0</ele><time>2026-05-01T07:06:13.281Z</time></trkpt><trkpt lat="42.5103817" lon="14.168715"><ele>2.0</ele><time>2026-05-01T07:06:14.281Z</time></trkpt><trkpt lat="42.510315" lon="14.1687767"><ele>1.8</ele><time>2026-05-01T07:06:15.281Z</time></trkpt><trkpt lat="42.5102583" lon="14.1688333"><ele>1.6</ele><time>2026-05-01T07:06:16.281Z</time></trkpt><trkpt lat="42.5101933" lon="14.168885"><ele>1.4000000000000001</ele><time>2026-05-01T07:06:17.281Z</time></trkpt><trkpt lat="42.5101317" lon="14.168935"><ele>1.2000000000000002</ele><time>2026-05-01T07:06:18.281Z</time></trkpt><trkpt lat="42.5100167" lon="14.1689783"><ele>1.0</ele><time>2026-05-01T07:06:20.281Z</time></trkpt><trkpt lat="42.509905" lon="14.1689267"><ele>1.0</ele><time>2026-05-01T07:06:22.281Z</time></trkpt><trkpt lat="42.50984" lon="14.1688467"><ele>1.0</ele><time>2026-05-01T07:06:23.281Z</time></trkpt><trkpt lat="42.50977" lon="14.168735"><ele>1.0</ele><time>2026-05-01T07:06:24.282Z</time></trkpt><trkpt lat="42.5097067" lon="14.168625"><ele>1.0</ele><time>2026-05-01T07:06:25.281Z</time></trkpt><trkpt lat="42.509645" lon="14.1685167"><ele>1.0</ele><time>2026-05-01T07:06:26.281Z</time></trkpt><trkpt lat="42.5095717" lon="14.1684033"><ele>1.2000000000000002</ele><time>2026-05-01T07:06:27.281Z</time></trkpt><trkpt lat="42.5094917" lon="14.1682817"><ele>1.4000000000000001</ele><time>2026-05-01T07:06:28.281Z</time></trkpt><trkpt lat="42.5094167" lon="14.1681733"><ele>1.6</ele><time>2026-05-01T07:06:29.281Z</time></trkpt><trkpt lat="42.5093517" lon="14.16807"><ele>1.8</ele><time>2026-05-01T07:06:30.281Z</time></trkpt><trkpt lat="42.5092933" lon="14.167965"><ele>2.0</ele><time>2026-05-01T07:06:31.281Z</time></trkpt><trkpt lat="42.509235" lon="14.1678717"><ele>2.25</ele><time>2026-05-01T07:06:32.281Z</time></trkpt><trkpt lat="42.50917" lon="14.1677717"><ele>2.5</ele><time>2026-05-01T07:06:33.281Z</time></trkpt><trkpt lat="42.5090967" lon="14.1676583"><ele>2.75</ele><time>2026-05-01T07:06:34.281Z</time></trkpt><trkpt lat="42.5090233" lon="14.1675333"><ele>3.0</ele><time>2026-05-01T07:06:35.281Z</time></trkpt><trkpt lat="42.50894" lon="14.1674"><ele>3.0</ele><time>2026-05-01T07:06:36.281Z</time></trkpt><trkpt lat="42.5088667" lon="14.1672883"><ele>3.0</ele><time>2026-05-01T07:06:37.281Z</time></trkpt><trkpt lat="42.5087967" lon="14.1671817"><ele>3.0</ele><time>2026-05-01T07:06:38.281Z</time></trkpt><trkpt lat="42.508725" lon="14.1670733"><ele>3.0</ele><time>2026-05-01T07:06:39.281Z</time></trkpt><trkpt lat="42.5086483" lon="14.1669633"><ele>3.0</ele><time>2026-05-01T07:06:40.281Z</time></trkpt><trkpt lat="42.5085717" lon="14.1668467"><ele>2.8</ele><time>2026-05-01T07:06:41.281Z</time></trkpt><trkpt lat="42.5084917" lon="14.16673"><ele>2.5999999999999996</ele><time>2026-05-01T07:06:42.281Z</time></trkpt><trkpt lat="42.50842" lon="14.1666117"><ele>2.4000000000000004</ele><time>2026-05-01T07:06:43.281Z</time></trkpt><trkpt lat="42.50835" lon="14.1664967"><ele>2.2</ele><time>2026-05-01T07:06:44.282Z</time></trkpt><trkpt lat="42.5082867" lon="14.1663967"><ele>2.0</ele><time>2026-05-01T07:06:45.281Z</time></trkpt><trkpt lat="42.5082217" lon="14.166315"><ele>2.2</ele><time>2026-05-01T07:06:46.281Z</time></trkpt><trkpt lat="42.50816" lon="14.166225"><ele>2.4000000000000004</ele><time>2026-05-01T07:06:47.281Z</time></trkpt><trkpt lat="42.5080983" lon="14.1661183"><ele>2.5999999999999996</ele><time>2026-05-01T07:06:48.282Z</time></trkpt><trkpt lat="42.5080233" lon="14.1660217"><ele>2.8</ele><time>2026-05-01T07:06:49.281Z</time></trkpt><trkpt lat="42.5079567" lon="14.1659183"><ele>3.0</ele><time>2026-05-01T07:06:50.282Z</time></trkpt><trkpt lat="42.5079" lon="14.1658283"><ele>3.0</ele><time>2026-05-01T07:06:51.281Z</time></trkpt><trkpt lat="42.5078433" lon="14.165735"><ele>3.0</ele><time>2026-05-01T07:06:52.281Z</time></trkpt><trkpt lat="42.507785" lon="14.16563"><ele>3.0</ele><time>2026-05-01T07:06:53.281Z</time></trkpt><trkpt lat="42.5077233" lon="14.1655217"><ele>3.0</ele><time>2026-05-01T07:06:54.281Z</time></trkpt><trkpt lat="42.5076517" lon="14.1654083"><ele>3.0</ele><time>2026-05-01T07:06:55.281Z</time></trkpt><trkpt lat="42.5075867" lon="14.165295"><ele>3.0</ele><time>2026-05-01T07:06:56.281Z</time></trkpt><trkpt lat="42.507525" lon="14.1651783"><ele>3.0</ele><time>2026-05-01T07:06:57.281Z</time></trkpt><trkpt lat="42.5074667" lon="14.1650933"><ele>3.0</ele><time>2026-05-01T07:06:58.281Z</time></trkpt><trkpt lat="42.507415" lon="14.1650117"><ele>3.0</ele><time>2026-05-01T07:06:59.281Z</time></trkpt><trkpt lat="42.5073633" lon="14.164935"><ele>3.0</ele><time>2026-05-01T07:07:00.281Z</time></trkpt><trkpt lat="42.5073083" lon="14.164885"><ele>3.0</ele><time>2026-05-01T07:07:01.281Z</time></trkpt><trkpt lat="42.5072617" lon="14.1648217"><ele>2.8</ele><time>2026-05-01T07:07:02.281Z</time></trkpt><trkpt lat="42.50718" lon="14.1647"><ele>2.5999999999999996</ele><time>2026-05-01T07:07:04.282Z</time></trkpt><trkpt lat="42.50712" lon="14.1646267"><ele>2.4000000000000004</ele><time>2026-05-01T07:07:05.281Z</time></trkpt><trkpt lat="42.5070567" lon="14.1645383"><ele>2.2</ele><time>2026-05-01T07:07:06.281Z</time></trkpt><trkpt lat="42.50699" lon="14.1644367"><ele>2.0</ele><time>2026-05-01T07:07:07.281Z</time></trkpt><trkpt lat="42.5069183" lon="14.164335"><ele>2.0</ele><time>2026-05-01T07:07:08.282Z</time></trkpt><trkpt lat="42.5068483" lon="14.1642283"><ele>2.0</ele><time>2026-05-01T07:07:09.282Z</time></trkpt><trkpt lat="42.5067683" lon="14.164135"><ele>2.0</ele><time>2026-05-01T07:07:10.281Z</time></trkpt><trkpt lat="42.5067067" lon="14.1640317"><ele>2.0</ele><time>2026-05-01T07:07:11.281Z</time></trkpt><trkpt lat="42.5066433" lon="14.1639317"><ele>2.0</ele><time>2026-05-01T07:07:12.281Z</time></trkpt><trkpt lat="42.50658" lon="14.163825"><ele>1.9999999999999998</ele><time>2026-05-01T07:07:13.281Z</time></trkpt><trkpt lat="42.5065183" lon="14.1637333"><ele>2.0</ele><time>2026-05-01T07:07:14.282Z</time></trkpt><trkpt lat="42.5064633" lon="14.16366"><ele>2.0</ele><time>2026-05-01T07:07:15.281Z</time></trkpt><trkpt lat="42.506405" lon="14.1635733"><ele>2.0</ele><time>2026-05-01T07:07:16.281Z</time></trkpt><trkpt lat="42.5063617" lon="14.163485"><ele>1.9999999999999998</ele><time>2026-05-01T07:07:17.281Z</time></trkpt><trkpt lat="42.5063133" lon="14.163405"><ele>2.0</ele><time>2026-05-01T07:07:18.281Z</time></trkpt><trkpt lat="42.506235" lon="14.1632917"><ele>2.0</ele><time>2026-05-01T07:07:20.281Z</time></trkpt><trkpt lat="42.5061667" lon="14.1631867"><ele>2.0</ele><time>2026-05-01T07:07:22.281Z</time></trkpt><trkpt lat="42.5060983" lon="14.1630967"><ele>2.0</ele><time>2026-05-01T07:07:24.281Z</time></trkpt><trkpt lat="42.5060433" lon="14.1630083"><ele>2.0</ele><time>2026-05-01T07:07:26.281Z</time></trkpt><trkpt lat="42.5059933" lon="14.1628883"><ele>2.0</ele><time>2026-05-01T07:08:01.281Z</time></trkpt><trkpt lat="42.5059017" lon="14.162835"><ele>2.0</ele><time>2026-05-01T07:08:03.281Z</time></trkpt><trkpt lat="42.5057783" lon="14.1628817"><ele>2.0</ele><time>2026-05-01T07:08:05.282Z</time></trkpt><trkpt lat="42.505715" lon="14.1629467"><ele>2.0</ele><time>2026-05-01T07:08:06.282Z</time></trkpt><trkpt lat="42.5056517" lon="14.1630367"><ele>2.0</ele><time>2026-05-01T07:08:07.281Z</time></trkpt><trkpt lat="42.505585" lon="14.1631367"><ele>2.0</ele><time>2026-05-01T07:08:08.281Z</time></trkpt><trkpt lat="42.5055083" lon="14.1632317"><ele>2.0</ele><time>2026-05-01T07:08:09.281Z</time></trkpt><trkpt lat="42.5054267" lon="14.1633383"><ele>2.0</ele><time>2026-05-01T07:08:10.282Z</time></trkpt><trkpt lat="42.505345" lon="14.163435"><ele>2.0</ele><time>2026-05-01T07:08:11.281Z</time></trkpt><trkpt lat="42.50527" lon="14.1635283"><ele>2.0</ele><time>2026-05-01T07:08:12.282Z</time></trkpt><trkpt lat="42.5052033" lon="14.1636183"><ele>2.0</ele><time>2026-05-01T07:08:13.281Z</time></trkpt><trkpt lat="42.5051383" lon="14.1636933"><ele>1.9999999999999998</ele><time>2026-05-01T07:08:14.281Z</time></trkpt><trkpt lat="42.5050783" lon="14.163765"><ele>2.0</ele><time>2026-05-01T07:08:15.281Z</time></trkpt><trkpt lat="42.505015" lon="14.1638467"><ele>2.0</ele><time>2026-05-01T07:08:16.281Z</time></trkpt><trkpt lat="42.5049467" lon="14.1639317"><ele>2.0</ele><time>2026-05-01T07:08:17.281Z</time></trkpt><trkpt lat="42.504875" lon="14.1640183"><ele>1.9999999999999998</ele><time>2026-05-01T07:08:18.281Z</time></trkpt><trkpt lat="42.5048067" lon="14.1641033"><ele>2.0</ele><time>2026-05-01T07:08:19.281Z</time></trkpt><trkpt lat="42.5047317" lon="14.1641783"><ele>2.0</ele><time>2026-05-01T07:08:20.281Z</time></trkpt><trkpt lat="42.504665" lon="14.1642583"><ele>2.0</ele><time>2026-05-01T07:08:21.281Z</time></trkpt><trkpt lat="42.5046" lon="14.1643517"><ele>2.0</ele><time>2026-05-01T07:08:22.281Z</time></trkpt><trkpt lat="42.50453" lon="14.16445"><ele>2.0</ele><time>2026-05-01T07:08:23.281Z</time></trkpt><trkpt lat="42.5044517" lon="14.1645417"><ele>2.0</ele><time>2026-05-01T07:08:24.281Z</time></trkpt><trkpt lat="42.504375" lon="14.1646333"><ele>2.0</ele><time>2026-05-01T07:08:25.281Z</time></trkpt><trkpt lat="42.5042883" lon="14.16473"><ele>2.0</ele><time>2026-05-01T07:08:26.281Z</time></trkpt><trkpt lat="42.5042083" lon="14.16482"><ele>2.0</ele><time>2026-05-01T07:08:27.282Z</time></trkpt><trkpt lat="42.5041317" lon="14.16491"><ele>2.0</ele><time>2026-05-01T07:08:28.281Z</time></trkpt><trkpt lat="42.50406" lon="14.16501"><ele>2.0</ele><time>2026-05-01T07:08:29.281Z</time></trkpt><trkpt lat="42.5039917" lon="14.1651033"><ele>2.0</ele><time>2026-05-01T07:08:30.281Z</time></trkpt><trkpt lat="42.5039183" lon="14.1651867"><ele>2.0</ele><time>2026-05-01T07:08:31.281Z</time></trkpt><trkpt lat="42.5038467" lon="14.1652717"><ele>2.0</ele><time>2026-05-01T07:08:32.281Z</time></trkpt><trkpt lat="42.50378" lon="14.1653617"><ele>2.0</ele><time>2026-05-01T07:08:33.281Z</time></trkpt><trkpt lat="42.50371" lon="14.1654517"><ele>2.0</ele><time>2026-05-01T07:08:34.281Z</time></trkpt><trkpt lat="42.5036367" lon="14.1655433"><ele>2.6</ele><time>2026-05-01T07:08:35.281Z</time></trkpt><trkpt lat="42.50356" lon="14.1656383"><ele>3.2</ele><time>2026-05-01T07:08:36.281Z</time></trkpt><trkpt lat="42.50348" lon="14.1657317"><ele>3.8</ele><time>2026-05-01T07:08:37.281Z</time></trkpt><trkpt lat="42.503405" lon="14.1658167"><ele>4.4</ele><time>2026-05-01T07:08:38.281Z</time></trkpt><trkpt lat="42.50333" lon="14.1659117"><ele>5.0</ele><time>2026-05-01T07:08:39.281Z</time></trkpt><trkpt lat="42.503255" lon="14.1659933"><ele>5.0</ele><time>2026-05-01T07:08:40.281Z</time></trkpt><trkpt lat="42.5031867" lon="14.166075"><ele>5.0</ele><time>2026-05-01T07:08:41.281Z</time></trkpt><trkpt lat="42.5031167" lon="14.1661617"><ele>5.0</ele><time>2026-05-01T07:08:42.282Z</time></trkpt><trkpt lat="42.5030533" lon="14.1662367"><ele>5.0</ele><time>2026-05-01T07:08:43.282Z</time></trkpt><trkpt lat="42.50299" lon="14.1663117"><ele>5.0</ele><time>2026-05-01T07:08:44.281Z</time></trkpt><trkpt lat="42.5029233" lon="14.1663917"><ele>5.0</ele><time>2026-05-01T07:08:45.281Z</time></trkpt><trkpt lat="42.5028567" lon="14.1664817"><ele>4.833333333333334</ele><time>2026-05-01T07:08:46.281Z</time></trkpt><trkpt lat="42.5027867" lon="14.166555"><ele>4.666666666666667</ele><time>2026-05-01T07:08:47.281Z</time></trkpt><trkpt lat="42.50273" lon="14.1666267"><ele>4.5</ele><time>2026-05-01T07:08:48.281Z</time></trkpt><trkpt lat="42.5026667" lon="14.1667033"><ele>4.333333333333333</ele><time>2026-05-01T07:08:49.282Z</time></trkpt><trkpt lat="42.5026017" lon="14.16678"><ele>4.166666666666666</ele><time>2026-05-01T07:08:50.281Z</time></trkpt><trkpt lat="42.5025417" lon="14.16686"><ele>4.0</ele><time>2026-05-01T07:08:51.281Z</time></trkpt><trkpt lat="42.50248" lon="14.1669517"><ele>4.0</ele><time>2026-05-01T07:08:52.281Z</time></trkpt><trkpt lat="42.50241" lon="14.1670317"><ele>4.0</ele><time>2026-05-01T07:08:53.281Z</time></trkpt><trkpt lat="42.5023417" lon="14.1671083"><ele>4.0</ele><time>2026-05-01T07:08:54.281Z</time></trkpt><trkpt lat="42.50228" lon="14.167195"><ele>4.0</ele><time>2026-05-01T07:08:55.281Z</time></trkpt><trkpt lat="42.5021983" lon="14.1672867"><ele>4.0</ele><time>2026-05-01T07:08:56.281Z</time></trkpt><trkpt lat="42.5021317" lon="14.1673783"><ele>4.0</ele><time>2026-05-01T07:08:57.281Z</time></trkpt><trkpt lat="42.50207" lon="14.1674733"><ele>4.0</ele><time>2026-05-01T07:08:58.281Z</time></trkpt><trkpt lat="42.501995" lon="14.1675567"><ele>4.0</ele><time>2026-05-01T07:08:59.282Z</time></trkpt><trkpt lat="42.501915" lon="14.16764"><ele>4.0</ele><time>2026-05-01T07:09:00.281Z</time></trkpt><trkpt lat="42.5018383" lon="14.1677117"><ele>4.0</ele><time>2026-05-01T07:09:01.281Z</time></trkpt><trkpt lat="42.5017667" lon="14.1677983"><ele>4.0</ele><time>2026-05-01T07:09:02.281Z</time></trkpt><trkpt lat="42.50169" lon="14.167885"><ele>4.0</ele><time>2026-05-01T07:09:03.281Z</time></trkpt><trkpt lat="42.5016233" lon="14.16796"><ele>4.0</ele><time>2026-05-01T07:09:04.281Z</time></trkpt><trkpt lat="42.5015533" lon="14.1680317"><ele>4.0</ele><time>2026-05-01T07:09:05.281Z</time></trkpt><trkpt lat="42.5014833" lon="14.1681167"><ele>4.0</ele><time>2026-05-01T07:09:06.281Z</time></trkpt><trkpt lat="42.5014133" lon="14.1682033"><ele>4.0</ele><time>2026-05-01T07:09:07.281Z</time></trkpt><trkpt lat="42.5013433" lon="14.1682817"><ele>4.0</ele><time>2026-05-01T07:09:08.281Z</time></trkpt><trkpt lat="42.5012767" lon="14.1683667"><ele>4.0</ele><time>2026-05-01T07:09:09.281Z</time></trkpt><trkpt lat="42.5012017" lon="14.16846"><ele>4.0</ele><time>2026-05-01T07:09:10.281Z</time></trkpt><trkpt lat="42.5011317" lon="14.1685517"><ele>4.0</ele><time>2026-05-01T07:09:11.281Z</time></trkpt><trkpt lat="42.5010667" lon="14.1686433"><ele>4.0</ele><time>2026-05-01T07:09:12.281Z</time></trkpt><trkpt lat="42.500995" lon="14.1687317"><ele>4.0</ele><time>2026-05-01T07:09:13.281Z</time></trkpt><trkpt lat="42.500925" lon="14.1688333"><ele>4.0</ele><time>2026-05-01T07:09:14.281Z</time></trkpt><trkpt lat="42.5008533" lon="14.168925"><ele>4.0</ele><time>2026-05-01T07:09:15.281Z</time></trkpt><trkpt lat="42.50078" lon="14.169025"><ele>4.0</ele><time>2026-05-01T07:09:16.281Z</time></trkpt><trkpt lat="42.5007133" lon="14.1691117"><ele>4.0</ele><time>2026-05-01T07:09:17.282Z</time></trkpt><trkpt lat="42.5006417" lon="14.16921"><ele>4.0</ele><time>2026-05-01T07:09:18.281Z</time></trkpt><trkpt lat="42.5005667" lon="14.1692983"><ele>4.0</ele><time>2026-05-01T07:09:19.281Z</time></trkpt><trkpt lat="42.5004833" lon="14.1693917"><ele>4.0</ele><time>2026-05-01T07:09:20.281Z</time></trkpt><trkpt lat="42.5004133" lon="14.1694733"><ele>4.0</ele><time>2026-05-01T07:09:21.282Z</time></trkpt><trkpt lat="42.50034" lon="14.169555"><ele>3.8000000000000003</ele><time>2026-05-01T07:09:22.282Z</time></trkpt><trkpt lat="42.5002667" lon="14.1696483"><ele>3.6000000000000005</ele><time>2026-05-01T07:09:23.281Z</time></trkpt><trkpt lat="42.5001917" lon="14.1697317"><ele>3.4</ele><time>2026-05-01T07:09:24.282Z</time></trkpt><trkpt lat="42.5001133" lon="14.16982"><ele>3.2</ele><time>2026-05-01T07:09:25.282Z</time></trkpt><trkpt lat="42.50004" lon="14.169915"><ele>3.0</ele><time>2026-05-01T07:09:26.281Z</time></trkpt><trkpt lat="42.4999717" lon="14.1699933"><ele>3.0</ele><time>2026-05-01T07:09:27.281Z</time></trkpt><trkpt lat="42.4999033" lon="14.1700733"><ele>3.0</ele><time>2026-05-01T07:09:28.281Z</time></trkpt><trkpt lat="42.4998433" lon="14.1701583"><ele>3.0</ele><time>2026-05-01T07:09:29.281Z</time></trkpt><trkpt lat="42.4997783" lon="14.1702333"><ele>3.0</ele><time>2026-05-01T07:09:30.281Z</time></trkpt><trkpt lat="42.4997117" lon="14.17031"><ele>3.0</ele><time>2026-05-01T07:09:31.281Z</time></trkpt><trkpt lat="42.4996383" lon="14.1703983"><ele>3.0</ele><time>2026-05-01T07:09:32.281Z</time></trkpt><trkpt lat="42.499565" lon="14.1704783"><ele>3.0</ele><time>2026-05-01T07:09:33.281Z</time></trkpt><trkpt lat="42.4994983" lon="14.1705617"><ele>3.0</ele><time>2026-05-01T07:09:34.281Z</time></trkpt><trkpt lat="42.49944" lon="14.1706383"><ele>3.0</ele><time>2026-05-01T07:09:35.281Z</time></trkpt><trkpt lat="42.499385" lon="14.1707117"><ele>3.0</ele><time>2026-05-01T07:09:36.281Z</time></trkpt><trkpt lat="42.49933" lon="14.17078"><ele>3.0</ele><time>2026-05-01T07:09:37.281Z</time></trkpt><trkpt lat="42.4992783" lon="14.1708433"><ele>3.0</ele><time>2026-05-01T07:09:38.281Z</time></trkpt><trkpt lat="42.499225" lon="14.1709017"><ele>3.2</ele><time>2026-05-01T07:09:39.281Z</time></trkpt><trkpt lat="42.4991667" lon="14.170955"><ele>3.4</ele><time>2026-05-01T07:09:40.281Z</time></trkpt><trkpt lat="42.4991" lon="14.1710333"><ele>3.6000000000000005</ele><time>2026-05-01T07:09:42.282Z</time></trkpt><trkpt lat="42.4990417" lon="14.1711067"><ele>3.8000000000000003</ele><time>2026-05-01T07:09:44.281Z</time></trkpt><trkpt lat="42.498975" lon="14.1712017"><ele>4.0</ele><time>2026-05-01T07:09:46.281Z</time></trkpt><trkpt lat="42.4988917" lon="14.17131"><ele>4.0</ele><time>2026-05-01T07:09:48.282Z</time></trkpt><trkpt lat="42.49881" lon="14.1714"><ele>4.0</ele><time>2026-05-01T07:09:50.281Z</time></trkpt><trkpt lat="42.4987117" lon="14.1715217"><ele>4.0</ele><time>2026-05-01T07:09:52.281Z</time></trkpt><trkpt lat="42.4986467" lon="14.171595"><ele>4.0</ele><time>2026-05-01T07:09:53.281Z</time></trkpt><trkpt lat="42.49858" lon="14.17168"><ele>4.0</ele><time>2026-05-01T07:09:54.281Z</time></trkpt><trkpt lat="42.4985067" lon="14.17177"><ele>3.8000000000000003</ele><time>2026-05-01T07:09:55.281Z</time></trkpt><trkpt lat="42.4984317" lon="14.1718617"><ele>3.6000000000000005</ele><time>2026-05-01T07:09:56.281Z</time></trkpt><trkpt lat="42.4983517" lon="14.171955"><ele>3.4</ele><time>2026-05-01T07:09:57.281Z</time></trkpt><trkpt lat="42.4982717" lon="14.1720583"><ele>3.2</ele><time>2026-05-01T07:09:58.281Z</time></trkpt><trkpt lat="42.4981833" lon="14.1721667"><ele>3.0</ele><time>2026-05-01T07:09:59.282Z</time></trkpt><trkpt lat="42.498095" lon="14.1722617"><ele>3.0</ele><time>2026-05-01T07:10:00.281Z</time></trkpt><trkpt lat="42.4980217" lon="14.172355"><ele>3.0</ele><time>2026-05-01T07:10:01.281Z</time></trkpt><trkpt lat="42.497945" lon="14.1724433"><ele>3.0</ele><time>2026-05-01T07:10:02.281Z</time></trkpt><trkpt lat="42.4978717" lon="14.1725233"><ele>3.0</ele><time>2026-05-01T07:10:03.281Z</time></trkpt><trkpt lat="42.497795" lon="14.17261"><ele>3.0</ele><time>2026-05-01T07:10:04.281Z</time></trkpt><trkpt lat="42.49772" lon="14.1726933"><ele>3.4</ele><time>2026-05-01T07:10:05.281Z</time></trkpt><trkpt lat="42.4976483" lon="14.17278"><ele>3.8</ele><time>2026-05-01T07:10:06.281Z</time></trkpt><trkpt lat="42.4975783" lon="14.1728683"><ele>4.2</ele><time>2026-05-01T07:10:07.282Z</time></trkpt><trkpt lat="42.4975117" lon="14.172945"><ele>4.6</ele><time>2026-05-01T07:10:08.281Z</time></trkpt><trkpt lat="42.49745" lon="14.1730283"><ele>5.0</ele><time>2026-05-01T07:10:09.281Z</time></trkpt><trkpt lat="42.4973767" lon="14.1731233"><ele>5.0</ele><time>2026-05-01T07:10:10.281Z</time></trkpt><trkpt lat="42.4973017" lon="14.1732183"><ele>5.0</ele><time>2026-05-01T07:10:11.281Z</time></trkpt><trkpt lat="42.4972333" lon="14.17331"><ele>5.0</ele><time>2026-05-01T07:10:12.281Z</time></trkpt><trkpt lat="42.4971567" lon="14.1734083"><ele>5.0</ele><time>2026-05-01T07:10:13.281Z</time></trkpt><trkpt lat="42.4970883" lon="14.173495"><ele>5.0</ele><time>2026-05-01T07:10:14.281Z</time></trkpt><trkpt lat="42.4970317" lon="14.1735667"><ele>5.0</ele><time>2026-05-01T07:10:15.281Z</time></trkpt><trkpt lat="42.49696" lon="14.1736667"><ele>5.0</ele><time>2026-05-01T07:10:17.281Z</time></trkpt><trkpt lat="42.4969" lon="14.1737367"><ele>5.0</ele><time>2026-05-01T07:10:20.281Z</time></trkpt><trkpt lat="42.4968233" lon="14.17383"><ele>5.0</ele><time>2026-05-01T07:10:28.281Z</time></trkpt><trkpt lat="42.496775" lon="14.17394"><ele>5.0</ele><time>2026-05-01T07:10:30.281Z</time></trkpt><trkpt lat="42.4968033" lon="14.1740583"><ele>4.6</ele><time>2026-05-01T07:10:32.281Z</time></trkpt><trkpt lat="42.496855" lon="14.1741267"><ele>4.2</ele><time>2026-05-01T07:10:33.281Z</time></trkpt><trkpt lat="42.4969167" lon="14.1742167"><ele>3.8</ele><time>2026-05-01T07:10:34.281Z</time></trkpt><trkpt lat="42.496995" lon="14.1743283"><ele>3.4</ele><time>2026-05-01T07:10:35.282Z</time></trkpt><trkpt lat="42.4970867" lon="14.1744633"><ele>3.0</ele><time>2026-05-01T07:10:36.282Z</time></trkpt><trkpt lat="42.4971767" lon="14.1745967"><ele>3.0</ele><time>2026-05-01T07:10:37.281Z</time></trkpt><trkpt lat="42.4972617" lon="14.1746967"><ele>3.0</ele><time>2026-05-01T07:10:38.282Z</time></trkpt><trkpt lat="42.497345" lon="14.1748017"><ele>3.0</ele><time>2026-05-01T07:10:39.281Z</time></trkpt><trkpt lat="42.49742" lon="14.1749183"><ele>3.0</ele><time>2026-05-01T07:10:40.281Z</time></trkpt><trkpt lat="42.49749" lon="14.17505"><ele>3.0</ele><time>2026-05-01T07:10:41.281Z</time></trkpt><trkpt lat="42.497565" lon="14.1751567"><ele>3.0</ele><time>2026-05-01T07:10:42.281Z</time></trkpt><trkpt lat="42.497635" lon="14.175255"><ele>3.0</ele><time>2026-05-01T07:10:43.281Z</time></trkpt><trkpt lat="42.4977067" lon="14.1753567"><ele>3.0</ele><time>2026-05-01T07:10:44.281Z</time></trkpt><trkpt lat="42.4977683" lon="14.1754567"><ele>3.0</ele><time>2026-05-01T07:10:45.281Z</time></trkpt><trkpt lat="42.4978333" lon="14.1755617"><ele>3.0</ele><time>2026-05-01T07:10:46.282Z</time></trkpt><trkpt lat="42.4978967" lon="14.1756567"><ele>3.0</ele><time>2026-05-01T07:10:47.281Z</time></trkpt><trkpt lat="42.4979567" lon="14.1757567"><ele>3.0</ele><time>2026-05-01T07:10:48.281Z</time></trkpt><trkpt lat="42.4980267" lon="14.1758267"><ele>3.0</ele><time>2026-05-01T07:10:49.281Z</time></trkpt><trkpt lat="42.498085" lon="14.1759183"><ele>3.0</ele><time>2026-05-01T07:10:50.281Z</time></trkpt><trkpt lat="42.498125" lon="14.17601"><ele>3.0</ele><time>2026-05-01T07:10:51.281Z</time></trkpt><trkpt lat="42.498165" lon="14.1760817"><ele>3.1428571428571423</ele><time>2026-05-01T07:10:52.281Z</time></trkpt><trkpt lat="42.4982083" lon="14.1761483"><ele>3.2857142857142856</ele><time>2026-05-01T07:10:53.281Z</time></trkpt><trkpt lat="42.49826" lon="14.1762133"><ele>3.4285714285714284</ele><time>2026-05-01T07:10:54.281Z</time></trkpt><trkpt lat="42.4983033" lon="14.17628"><ele>3.571428571428571</ele><time>2026-05-01T07:10:55.281Z</time></trkpt><trkpt lat="42.4983467" lon="14.1763483"><ele>3.714285714285714</ele><time>2026-05-01T07:10:56.281Z</time></trkpt><trkpt lat="42.4983967" lon="14.1764183"><ele>3.8571428571428568</ele><time>2026-05-01T07:10:57.281Z</time></trkpt><trkpt lat="42.4984383" lon="14.1764833"><ele>4.0</ele><time>2026-05-01T07:10:58.281Z</time></trkpt><trkpt lat="42.498485" lon="14.1765467"><ele>4.2</ele><time>2026-05-01T07:10:59.281Z</time></trkpt><trkpt lat="42.4985633" lon="14.176685"><ele>4.4</ele><time>2026-05-01T07:11:01.281Z</time></trkpt><trkpt lat="42.4986117" lon="14.1767583"><ele>4.6</ele><time>2026-05-01T07:11:02.281Z</time></trkpt><trkpt lat="42.498665" lon="14.1768267"><ele>4.8</ele><time>2026-05-01T07:11:03.281Z</time></trkpt><trkpt lat="42.4987217" lon="14.1769"><ele>5.0</ele><time>2026-05-01T07:11:04.281Z</time></trkpt><trkpt lat="42.49879" lon="14.1769967"><ele>5.0</ele><time>2026-05-01T07:11:05.281Z</time></trkpt><trkpt lat="42.4988367" lon="14.17708"><ele>5.0</ele><time>2026-05-01T07:11:06.281Z</time></trkpt><trkpt lat="42.4989233" lon="14.177205"><ele>5.0</ele><time>2026-05-01T07:11:07.281Z</time></trkpt><trkpt lat="42.499005" lon="14.1773217"><ele>5.0</ele><time>2026-05-01T07:11:08.281Z</time></trkpt><trkpt lat="42.4990883" lon="14.1774467"><ele>5.0</ele><time>2026-05-01T07:11:09.281Z</time></trkpt><trkpt lat="42.4991633" lon="14.1775567"><ele>5.2</ele><time>2026-05-01T07:11:10.281Z</time></trkpt><trkpt lat="42.4992433" lon="14.17767"><ele>5.4</ele><time>2026-05-01T07:11:11.281Z</time></trkpt><trkpt lat="42.4993117" lon="14.1777783"><ele>5.6</ele><time>2026-05-01T07:11:12.281Z</time></trkpt><trkpt lat="42.4993767" lon="14.1778817"><ele>5.8</ele><time>2026-05-01T07:11:13.281Z</time></trkpt><trkpt lat="42.4994367" lon="14.1779767"><ele>6.0</ele><time>2026-05-01T07:11:14.281Z</time></trkpt><trkpt lat="42.4994883" lon="14.1780617"><ele>5.999999999999999</ele><time>2026-05-01T07:11:15.281Z</time></trkpt><trkpt lat="42.4995417" lon="14.1781417"><ele>6.0</ele><time>2026-05-01T07:11:16.281Z</time></trkpt><trkpt lat="42.4995867" lon="14.1782167"><ele>6.0</ele><time>2026-05-01T07:11:17.281Z</time></trkpt><trkpt lat="42.499625" lon="14.1783017"><ele>6.0</ele><time>2026-05-01T07:11:18.282Z</time></trkpt><trkpt lat="42.4996717" lon="14.17838"><ele>6.0</ele><time>2026-05-01T07:11:19.281Z</time></trkpt><trkpt lat="42.4997117" lon="14.1784467"><ele>5.999999999999999</ele><time>2026-05-01T07:11:20.281Z</time></trkpt><trkpt lat="42.4997533" lon="14.1785267"><ele>6.0</ele><time>2026-05-01T07:11:22.282Z</time></trkpt><trkpt lat="42.4997617" lon="14.1786383"><ele>5.833333333333333</ele><time>2026-05-01T07:11:29.281Z</time></trkpt><trkpt lat="42.49974" lon="14.17877"><ele>5.666666666666667</ele><time>2026-05-01T07:11:31.281Z</time></trkpt><trkpt lat="42.4996767" lon="14.178845"><ele>5.5</ele><time>2026-05-01T07:11:33.281Z</time></trkpt><trkpt lat="42.4995833" lon="14.1789233"><ele>5.333333333333334</ele><time>2026-05-01T07:11:35.281Z</time></trkpt><trkpt lat="42.49953" lon="14.1789767"><ele>5.166666666666667</ele><time>2026-05-01T07:11:36.281Z</time></trkpt><trkpt lat="42.4994733" lon="14.179035"><ele>5.0</ele><time>2026-05-01T07:11:37.281Z</time></trkpt><trkpt lat="42.499415" lon="14.1790967"><ele>4.833333333333334</ele><time>2026-05-01T07:11:38.281Z</time></trkpt><trkpt lat="42.4993567" lon="14.1791533"><ele>4.666666666666667</ele><time>2026-05-01T07:11:39.282Z</time></trkpt><trkpt lat="42.4992983" lon="14.1792167"><ele>4.5</ele><time>2026-05-01T07:11:40.281Z</time></trkpt><trkpt lat="42.499235" lon="14.179275"><ele>4.333333333333333</ele><time>2026-05-01T07:11:41.281Z</time></trkpt><trkpt lat="42.4991733" lon="14.179335"><ele>4.166666666666666</ele><time>2026-05-01T07:11:42.281Z</time></trkpt><trkpt lat="42.4991117" lon="14.1793933"><ele>4.0</ele><time>2026-05-01T07:11:43.281Z</time></trkpt><trkpt lat="42.4990467" lon="14.179455"><ele>3.9999999999999996</ele><time>2026-05-01T07:11:44.281Z</time></trkpt><trkpt lat="42.4989817" lon="14.1795183"><ele>4.0</ele><time>2026-05-01T07:11:45.282Z</time></trkpt><trkpt lat="42.49892" lon="14.17959"><ele>4.0</ele><time>2026-05-01T07:11:46.281Z</time></trkpt><trkpt lat="42.4988583" lon="14.179655"><ele>4.0</ele><time>2026-05-01T07:11:47.281Z</time></trkpt><trkpt lat="42.4987933" lon="14.179725"><ele>3.9999999999999996</ele><time>2026-05-01T07:11:48.281Z</time></trkpt><trkpt lat="42.4987233" lon="14.1797883"><ele>4.0</ele><time>2026-05-01T07:11:49.281Z</time></trkpt><trkpt lat="42.4986567" lon="14.1798567"><ele>4.166666666666666</ele><time>2026-05-01T07:11:50.281Z</time></trkpt><trkpt lat="42.49859" lon="14.17993"><ele>4.333333333333333</ele><time>2026-05-01T07:11:51.282Z</time></trkpt><trkpt lat="42.49852" lon="14.1800033"><ele>4.5</ele><time>2026-05-01T07:11:52.281Z</time></trkpt><trkpt lat="42.49845" lon="14.1800617"><ele>4.666666666666667</ele><time>2026-05-01T07:11:53.281Z</time></trkpt><trkpt lat="42.49839" lon="14.1801217"><ele>4.833333333333334</ele><time>2026-05-01T07:11:54.281Z</time></trkpt><trkpt lat="42.49833" lon="14.1801933"><ele>5.0</ele><time>2026-05-01T07:11:55.281Z</time></trkpt><trkpt lat="42.498265" lon="14.180265"><ele>5.0</ele><time>2026-05-01T07:11:56.281Z</time></trkpt><trkpt lat="42.4981933" lon="14.1803433"><ele>5.0</ele><time>2026-05-01T07:11:57.281Z</time></trkpt><trkpt lat="42.4981183" lon="14.180425"><ele>5.0</ele><time>2026-05-01T07:11:58.281Z</time></trkpt><trkpt lat="42.4980433" lon="14.1805"><ele>5.0</ele><time>2026-05-01T07:11:59.281Z</time></trkpt><trkpt lat="42.4979733" lon="14.1805767"><ele>5.0</ele><time>2026-05-01T07:12:00.281Z</time></trkpt><trkpt lat="42.4979033" lon="14.1806483"><ele>5.2</ele><time>2026-05-01T07:12:01.281Z</time></trkpt><trkpt lat="42.497835" lon="14.1807183"><ele>5.4</ele><time>2026-05-01T07:12:02.281Z</time></trkpt><trkpt lat="42.4977667" lon="14.1807933"><ele>5.6</ele><time>2026-05-01T07:12:03.281Z</time></trkpt><trkpt lat="42.4976867" lon="14.1808733"><ele>5.8</ele><time>2026-05-01T07:12:04.281Z</time></trkpt><trkpt lat="42.4976133" lon="14.1809533"><ele>6.0</ele><time>2026-05-01T07:12:05.281Z</time></trkpt><trkpt lat="42.4975333" lon="14.1810367"><ele>6.0</ele><time>2026-05-01T07:12:06.281Z</time></trkpt><trkpt lat="42.49745" lon="14.1811183"><ele>6.0</ele><time>2026-05-01T07:12:07.281Z</time></trkpt><trkpt lat="42.4973733" lon="14.1811967"><ele>6.0</ele><time>2026-05-01T07:12:08.281Z</time></trkpt><trkpt lat="42.4972917" lon="14.1812817"><ele>6.0</ele><time>2026-05-01T07:12:09.281Z</time></trkpt><trkpt lat="42.4972133" lon="14.1813683"><ele>6.0</ele><time>2026-05-01T07:12:10.281Z</time></trkpt><trkpt lat="42.49714" lon="14.1814533"><ele>5.8</ele><time>2026-05-01T07:12:11.282Z</time></trkpt><trkpt lat="42.4970583" lon="14.181535"><ele>5.6</ele><time>2026-05-01T07:12:12.281Z</time></trkpt><trkpt lat="42.4969783" lon="14.1816183"><ele>5.4</ele><time>2026-05-01T07:12:13.281Z</time></trkpt><trkpt lat="42.4968967" lon="14.1816967"><ele>5.2</ele><time>2026-05-01T07:12:14.281Z</time></trkpt><trkpt lat="42.49682" lon="14.1817733"><ele>5.0</ele><time>2026-05-01T07:12:15.281Z</time></trkpt><trkpt lat="42.49674" lon="14.18185"><ele>5.0</ele><time>2026-05-01T07:12:16.281Z</time></trkpt><trkpt lat="42.49667" lon="14.18192"><ele>5.0</ele><time>2026-05-01T07:12:17.281Z</time></trkpt><trkpt lat="42.496595" lon="14.18199"><ele>5.0</ele><time>2026-05-01T07:12:18.281Z</time></trkpt><trkpt lat="42.4965167" lon="14.1820583"><ele>5.0</ele><time>2026-05-01T07:12:19.281Z</time></trkpt><trkpt lat="42.496445" lon="14.1821283"><ele>5.0</ele><time>2026-05-01T07:12:20.281Z</time></trkpt><trkpt lat="42.4963783" lon="14.182205"><ele>5.0</ele><time>2026-05-01T07:12:21.282Z</time></trkpt><trkpt lat="42.4963083" lon="14.1822733"><ele>4.5</ele><time>2026-05-01T07:12:22.281Z</time></trkpt><trkpt lat="42.4962367" lon="14.182355"><ele>4.0</ele><time>2026-05-01T07:12:23.281Z</time></trkpt><trkpt lat="42.496165" lon="14.1824283"><ele>3.5</ele><time>2026-05-01T07:12:24.281Z</time></trkpt><trkpt lat="42.4961017" lon="14.1824983"><ele>3.0</ele><time>2026-05-01T07:12:25.281Z</time></trkpt><trkpt lat="42.496035" lon="14.1825683"><ele>2.5</ele><time>2026-05-01T07:12:26.281Z</time></trkpt><trkpt lat="42.49596" lon="14.1826383"><ele>2.0</ele><time>2026-05-01T07:12:27.282Z</time></trkpt><trkpt lat="42.4958867" lon="14.1827167"><ele>2.0</ele><time>2026-05-01T07:12:28.281Z</time></trkpt><trkpt lat="42.4958083" lon="14.1828"><ele>2.0</ele><time>2026-05-01T07:12:29.281Z</time></trkpt><trkpt lat="42.4957233" lon="14.18288"><ele>2.0</ele><time>2026-05-01T07:12:30.281Z</time></trkpt><trkpt lat="42.4956517" lon="14.1829667"><ele>2.0</ele><time>2026-05-01T07:12:31.282Z</time></trkpt><trkpt lat="42.4955767" lon="14.1830483"><ele>2.0</ele><time>2026-05-01T07:12:32.282Z</time></trkpt><trkpt lat="42.4955067" lon="14.1831233"><ele>1.6</ele><time>2026-05-01T07:12:33.281Z</time></trkpt><trkpt lat="42.4954367" lon="14.1832033"><ele>1.2000000000000002</ele><time>2026-05-01T07:12:34.281Z</time></trkpt><trkpt lat="42.49537" lon="14.1832717"><ele>0.8</ele><time>2026-05-01T07:12:35.281Z</time></trkpt><trkpt lat="42.4952983" lon="14.1833417"><ele>0.4</ele><time>2026-05-01T07:12:36.281Z</time></trkpt><trkpt lat="42.49522" lon="14.1834167"><ele>0.0</ele><time>2026-05-01T07:12:37.281Z</time></trkpt><trkpt lat="42.4951467" lon="14.1834883"><ele>1.0</ele><time>2026-05-01T07:12:38.281Z</time></trkpt><trkpt lat="42.4950767" lon="14.1835633"><ele>2.0</ele><time>2026-05-01T07:12:39.282Z</time></trkpt><trkpt lat="42.495" lon="14.1836417"><ele>3.0</ele><time>2026-05-01T07:12:40.281Z</time></trkpt><trkpt lat="42.4949283" lon="14.1837117"><ele>4.0</ele><time>2026-05-01T07:12:41.281Z</time></trkpt><trkpt lat="42.4948583" lon="14.1837817"><ele>5.0</ele><time>2026-05-01T07:12:42.281Z</time></trkpt><trkpt lat="42.4947833" lon="14.183855"><ele>5.0</ele><time>2026-05-01T07:12:43.281Z</time></trkpt><trkpt lat="42.49471" lon="14.1839283"><ele>5.0</ele><time>2026-05-01T07:12:44.281Z</time></trkpt><trkpt lat="42.4946433" lon="14.1839983"><ele>5.0</ele><time>2026-05-01T07:12:45.281Z</time></trkpt><trkpt lat="42.4945783" lon="14.1840717"><ele>5.0</ele><time>2026-05-01T07:12:46.281Z</time></trkpt><trkpt lat="42.4945133" lon="14.18414"><ele>5.0</ele><time>2026-05-01T07:12:47.281Z</time></trkpt><trkpt lat="42.4944517" lon="14.1842083"><ele>5.0</ele><time>2026-05-01T07:12:48.281Z</time></trkpt><trkpt lat="42.4943833" lon="14.184275"><ele>5.0</ele><time>2026-05-01T07:12:49.281Z</time></trkpt><trkpt lat="42.4943067" lon="14.1843483"><ele>5.0</ele><time>2026-05-01T07:12:50.281Z</time></trkpt><trkpt lat="42.4942217" lon="14.184435"><ele>5.0</ele><time>2026-05-01T07:12:51.281Z</time></trkpt><trkpt lat="42.4941333" lon="14.184525"><ele>5.0</ele><time>2026-05-01T07:12:52.281Z</time></trkpt><trkpt lat="42.4940433" lon="14.1846117"><ele>5.0</ele><time>2026-05-01T07:12:53.281Z</time></trkpt><trkpt lat="42.49396" lon="14.18469"><ele>5.0</ele><time>2026-05-01T07:12:54.281Z</time></trkpt><trkpt lat="42.4938733" lon="14.1847817"><ele>5.0</ele><time>2026-05-01T07:12:55.281Z</time></trkpt><trkpt lat="42.493785" lon="14.1848733"><ele>5.0</ele><time>2026-05-01T07:12:56.281Z</time></trkpt><trkpt lat="42.493705" lon="14.1849633"><ele>5.0</ele><time>2026-05-01T07:12:57.281Z</time></trkpt><trkpt lat="42.4936267" lon="14.185055"><ele>5.0</ele><time>2026-05-01T07:12:58.281Z</time></trkpt><trkpt lat="42.4935467" lon="14.1851333"><ele>4.833333333333334</ele><time>2026-05-01T07:12:59.281Z</time></trkpt><trkpt lat="42.4934767" lon="14.18521"><ele>4.666666666666667</ele><time>2026-05-01T07:13:00.281Z</time></trkpt><trkpt lat="42.49341" lon="14.1852833"><ele>4.5</ele><time>2026-05-01T07:13:01.281Z</time></trkpt><trkpt lat="42.4933517" lon="14.1853583"><ele>4.333333333333333</ele><time>2026-05-01T07:13:02.281Z</time></trkpt><trkpt lat="42.49329" lon="14.185425"><ele>4.166666666666666</ele><time>2026-05-01T07:13:03.281Z</time></trkpt><trkpt lat="42.49322" lon="14.1854867"><ele>4.0</ele><time>2026-05-01T07:13:04.281Z</time></trkpt><trkpt lat="42.4931517" lon="14.18556"><ele>3.9999999999999996</ele><time>2026-05-01T07:13:05.281Z</time></trkpt><trkpt lat="42.493085" lon="14.1856317"><ele>4.0</ele><time>2026-05-01T07:13:06.282Z</time></trkpt><trkpt lat="42.49302" lon="14.18571"><ele>4.0</ele><time>2026-05-01T07:13:07.281Z</time></trkpt><trkpt lat="42.492955" lon="14.1857867"><ele>4.0</ele><time>2026-05-01T07:13:08.281Z</time></trkpt><trkpt lat="42.492895" lon="14.1858683"><ele>3.9999999999999996</ele><time>2026-05-01T07:13:09.282Z</time></trkpt><trkpt lat="42.4928283" lon="14.1859467"><ele>4.0</ele><time>2026-05-01T07:13:10.281Z</time></trkpt><trkpt lat="42.4927633" lon="14.1860283"><ele>4.4</ele><time>2026-05-01T07:13:11.281Z</time></trkpt><trkpt lat="42.492695" lon="14.1861033"><ele>4.800000000000001</ele><time>2026-05-01T07:13:12.281Z</time></trkpt><trkpt lat="42.4926217" lon="14.1861817"><ele>5.199999999999999</ele><time>2026-05-01T07:13:13.281Z</time></trkpt><trkpt lat="42.492545" lon="14.1862667"><ele>5.6</ele><time>2026-05-01T07:13:14.281Z</time></trkpt><trkpt lat="42.49247" lon="14.1863517"><ele>6.0</ele><time>2026-05-01T07:13:15.281Z</time></trkpt><trkpt lat="42.4923983" lon="14.18643"><ele>6.0</ele><time>2026-05-01T07:13:16.281Z</time></trkpt><trkpt lat="42.492325" lon="14.1865017"><ele>6.0</ele><time>2026-05-01T07:13:17.282Z</time></trkpt><trkpt lat="42.4922533" lon="14.1865817"><ele>6.0</ele><time>2026-05-01T07:13:18.281Z</time></trkpt><trkpt lat="42.492185" lon="14.18666"><ele>6.0</ele><time>2026-05-01T07:13:19.281Z</time></trkpt><trkpt lat="42.49211" lon="14.1867483"><ele>6.0</ele><time>2026-05-01T07:13:20.281Z</time></trkpt><trkpt lat="42.49204" lon="14.1868367"><ele>5.666666666666667</ele><time>2026-05-01T07:13:21.281Z</time></trkpt><trkpt lat="42.4919667" lon="14.1869117"><ele>5.333333333333333</ele><time>2026-05-01T07:13:22.281Z</time></trkpt><trkpt lat="42.4918967" lon="14.1869917"><ele>5.0</ele><time>2026-05-01T07:13:23.281Z</time></trkpt><trkpt lat="42.4918317" lon="14.1870633"><ele>4.666666666666666</ele><time>2026-05-01T07:13:24.281Z</time></trkpt><trkpt lat="42.4917767" lon="14.1871333"><ele>4.333333333333333</ele><time>2026-05-01T07:13:25.281Z</time></trkpt><trkpt lat="42.4917217" lon="14.1871933"><ele>4.0</ele><time>2026-05-01T07:13:26.282Z</time></trkpt><trkpt lat="42.4916533" lon="14.1872583"><ele>4.0</ele><time>2026-05-01T07:13:27.282Z</time></trkpt><trkpt lat="42.4915867" lon="14.1873283"><ele>4.0</ele><time>2026-05-01T07:13:28.281Z</time></trkpt><trkpt lat="42.4915117" lon="14.18741"><ele>4.0</ele><time>2026-05-01T07:13:29.281Z</time></trkpt><trkpt lat="42.4914333" lon="14.1875033"><ele>4.0</ele><time>2026-05-01T07:13:30.281Z</time></trkpt><trkpt lat="42.49135" lon="14.1875917"><ele>4.0</ele><time>2026-05-01T07:13:31.281Z</time></trkpt><trkpt lat="42.491255" lon="14.1876867"><ele>4.25</ele><time>2026-05-01T07:13:32.281Z</time></trkpt><trkpt lat="42.4911633" lon="14.1877917"><ele>4.5</ele><time>2026-05-01T07:13:33.281Z</time></trkpt><trkpt lat="42.49107" lon="14.1878983"><ele>4.75</ele><time>2026-05-01T07:13:34.281Z</time></trkpt><trkpt lat="42.4909833" lon="14.187995"><ele>5.0</ele><time>2026-05-01T07:13:35.282Z</time></trkpt><trkpt lat="42.4908967" lon="14.1880883"><ele>4.6</ele><time>2026-05-01T07:13:36.281Z</time></trkpt><trkpt lat="42.490815" lon="14.18818"><ele>4.2</ele><time>2026-05-01T07:13:37.281Z</time></trkpt><trkpt lat="42.4907283" lon="14.1882683"><ele>3.8</ele><time>2026-05-01T07:13:38.281Z</time></trkpt><trkpt lat="42.4906467" lon="14.18836"><ele>3.4</ele><time>2026-05-01T07:13:39.281Z</time></trkpt><trkpt lat="42.4905683" lon="14.1884483"><ele>3.0</ele><time>2026-05-01T07:13:40.281Z</time></trkpt><trkpt lat="42.4904917" lon="14.188535"><ele>3.5</ele><time>2026-05-01T07:13:41.281Z</time></trkpt><trkpt lat="42.4904233" lon="14.1886167"><ele>4.0</ele><time>2026-05-01T07:13:42.282Z</time></trkpt><trkpt lat="42.4903567" lon="14.18869"><ele>4.5</ele><time>2026-05-01T07:13:43.282Z</time></trkpt><trkpt lat="42.4902867" lon="14.1887617"><ele>5.0</ele><time>2026-05-01T07:13:44.281Z</time></trkpt><trkpt lat="42.490215" lon="14.1888283"><ele>5.5</ele><time>2026-05-01T07:13:45.281Z</time></trkpt><trkpt lat="42.4901433" lon="14.1888983"><ele>6.0</ele><time>2026-05-01T07:13:46.281Z</time></trkpt><trkpt lat="42.49008" lon="14.188965"><ele>5.3999999999999995</ele><time>2026-05-01T07:13:47.281Z</time></trkpt><trkpt lat="42.4900133" lon="14.1890417"><ele>4.8</ele><time>2026-05-01T07:13:48.281Z</time></trkpt><trkpt lat="42.48995" lon="14.1891167"><ele>4.199999999999999</ele><time>2026-05-01T07:13:49.281Z</time></trkpt><trkpt lat="42.489875" lon="14.1891983"><ele>3.5999999999999996</ele><time>2026-05-01T07:13:50.281Z</time></trkpt><trkpt lat="42.489795" lon="14.1892933"><ele>3.0</ele><time>2026-05-01T07:13:51.281Z</time></trkpt><trkpt lat="42.4897033" lon="14.1893883"><ele>3.0</ele><time>2026-05-01T07:13:52.281Z</time></trkpt><trkpt lat="42.4896167" lon="14.1894767"><ele>3.0</ele><time>2026-05-01T07:13:53.281Z</time></trkpt><trkpt lat="42.4895367" lon="14.1895783"><ele>3.0</ele><time>2026-05-01T07:13:54.281Z</time></trkpt><trkpt lat="42.4894517" lon="14.18967"><ele>3.0</ele><time>2026-05-01T07:13:55.281Z</time></trkpt><trkpt lat="42.4893733" lon="14.189755"><ele>3.0</ele><time>2026-05-01T07:13:56.281Z</time></trkpt><trkpt lat="42.4893" lon="14.1898433"><ele>2.8333333333333335</ele><time>2026-05-01T07:13:57.281Z</time></trkpt><trkpt lat="42.4892267" lon="14.1899183"><ele>2.6666666666666665</ele><time>2026-05-01T07:13:58.281Z</time></trkpt><trkpt lat="42.4891567" lon="14.19"><ele>2.5</ele><time>2026-05-01T07:13:59.281Z</time></trkpt><trkpt lat="42.4890833" lon="14.190075"><ele>2.333333333333333</ele><time>2026-05-01T07:14:00.281Z</time></trkpt><trkpt lat="42.4890167" lon="14.19015"><ele>2.1666666666666665</ele><time>2026-05-01T07:14:01.281Z</time></trkpt><trkpt lat="42.4889517" lon="14.190225"><ele>2.0</ele><time>2026-05-01T07:14:02.281Z</time></trkpt><trkpt lat="42.4888867" lon="14.190305"><ele>1.9999999999999998</ele><time>2026-05-01T07:14:03.281Z</time></trkpt><trkpt lat="42.4888133" lon="14.19038"><ele>2.0</ele><time>2026-05-01T07:14:04.281Z</time></trkpt><trkpt lat="42.488745" lon="14.190455"><ele>2.0</ele><time>2026-05-01T07:14:05.281Z</time></trkpt><trkpt lat="42.4886767" lon="14.1905233"><ele>2.0</ele><time>2026-05-01T07:14:06.281Z</time></trkpt><trkpt lat="42.488615" lon="14.1905883"><ele>1.9999999999999998</ele><time>2026-05-01T07:14:07.281Z</time></trkpt><trkpt lat="42.48855" lon="14.19066"><ele>2.0</ele><time>2026-05-01T07:14:08.281Z</time></trkpt><trkpt lat="42.48849" lon="14.1907183"><ele>2.5</ele><time>2026-05-01T07:14:09.282Z</time></trkpt><trkpt lat="42.4884233" lon="14.190775"><ele>3.0</ele><time>2026-05-01T07:14:10.281Z</time></trkpt><trkpt lat="42.4883633" lon="14.1908467"><ele>3.5</ele><time>2026-05-01T07:14:11.281Z</time></trkpt><trkpt lat="42.488305" lon="14.190915"><ele>4.0</ele><time>2026-05-01T07:14:12.281Z</time></trkpt><trkpt lat="42.4882417" lon="14.19099"><ele>4.5</ele><time>2026-05-01T07:14:13.281Z</time></trkpt><trkpt lat="42.4881667" lon="14.191075"><ele>5.0</ele><time>2026-05-01T07:14:14.282Z</time></trkpt><trkpt lat="42.4880917" lon="14.19116"><ele>5.0</ele><time>2026-05-01T07:14:15.281Z</time></trkpt><trkpt lat="42.4880117" lon="14.191235"><ele>5.0</ele><time>2026-05-01T07:14:16.281Z</time></trkpt><trkpt lat="42.4879383" lon="14.1913167"><ele>5.0</ele><time>2026-05-01T07:14:17.282Z</time></trkpt><trkpt lat="42.4878633" lon="14.191395"><ele>5.0</ele><time>2026-05-01T07:14:18.281Z</time></trkpt><trkpt lat="42.4877983" lon="14.191465"><ele>5.0</ele><time>2026-05-01T07:14:19.281Z</time></trkpt><trkpt lat="42.4877317" lon="14.191535"><ele>5.2</ele><time>2026-05-01T07:14:20.281Z</time></trkpt><trkpt lat="42.487665" lon="14.1916117"><ele>5.4</ele><time>2026-05-01T07:14:21.281Z</time></trkpt><trkpt lat="42.4875983" lon="14.19169"><ele>5.6</ele><time>2026-05-01T07:14:22.281Z</time></trkpt><trkpt lat="42.48753" lon="14.1917717"><ele>5.8</ele><time>2026-05-01T07:14:23.281Z</time></trkpt><trkpt lat="42.48746" lon="14.19185"><ele>6.0</ele><time>2026-05-01T07:14:24.281Z</time></trkpt><trkpt lat="42.4873883" lon="14.191935"><ele>6.0</ele><time>2026-05-01T07:14:25.281Z</time></trkpt><trkpt lat="42.4873117" lon="14.192015"><ele>6.0</ele><time>2026-05-01T07:14:26.281Z</time></trkpt><trkpt lat="42.4872333" lon="14.1921"><ele>6.0</ele><time>2026-05-01T07:14:27.281Z</time></trkpt><trkpt lat="42.48716" lon="14.1921833"><ele>6.0</ele><time>2026-05-01T07:14:28.281Z</time></trkpt><trkpt lat="42.487085" lon="14.1922633"><ele>6.0</ele><time>2026-05-01T07:14:29.281Z</time></trkpt><trkpt lat="42.487005" lon="14.19235"><ele>5.3999999999999995</ele><time>2026-05-01T07:14:30.281Z</time></trkpt><trkpt lat="42.4869233" lon="14.1924333"><ele>4.8</ele><time>2026-05-01T07:14:31.281Z</time></trkpt><trkpt lat="42.4868467" lon="14.1925133"><ele>4.199999999999999</ele><time>2026-05-01T07:14:32.281Z</time></trkpt><trkpt lat="42.4867683" lon="14.1925933"><ele>3.5999999999999996</ele><time>2026-05-01T07:14:33.281Z</time></trkpt><trkpt lat="42.486685" lon="14.1926767"><ele>3.0</ele><time>2026-05-01T07:14:34.281Z</time></trkpt><trkpt lat="42.4866017" lon="14.1927633"><ele>3.0</ele><time>2026-05-01T07:14:35.281Z</time></trkpt><trkpt lat="42.4865217" lon="14.192845"><ele>3.0</ele><time>2026-05-01T07:14:36.281Z</time></trkpt><trkpt lat="42.4864467" lon="14.1929283"><ele>3.0</ele><time>2026-05-01T07:14:37.281Z</time></trkpt><trkpt lat="42.4863767" lon="14.1930067"><ele>3.0</ele><time>2026-05-01T07:14:38.281Z</time></trkpt><trkpt lat="42.4862983" lon="14.1930867"><ele>3.0</ele><time>2026-05-01T07:14:39.281Z</time></trkpt><trkpt lat="42.48622" lon="14.1931583"><ele>3.2</ele><time>2026-05-01T07:14:40.281Z</time></trkpt><trkpt lat="42.4861433" lon="14.1932417"><ele>3.4</ele><time>2026-05-01T07:14:41.281Z</time></trkpt><trkpt lat="42.4860617" lon="14.1933217"><ele>3.6000000000000005</ele><time>2026-05-01T07:14:42.282Z</time></trkpt><trkpt lat="42.485975" lon="14.1934033"><ele>3.8000000000000003</ele><time>2026-05-01T07:14:43.281Z</time></trkpt><trkpt lat="42.485895" lon="14.19349"><ele>4.0</ele><time>2026-05-01T07:14:44.281Z</time></trkpt><trkpt lat="42.4858183" lon="14.1935733"><ele>4.0</ele><time>2026-05-01T07:14:45.281Z</time></trkpt><trkpt lat="42.4857417" lon="14.1936667"><ele>4.0</ele><time>2026-05-01T07:14:46.281Z</time></trkpt><trkpt lat="42.48566" lon="14.193755"><ele>4.0</ele><time>2026-05-01T07:14:47.281Z</time></trkpt><trkpt lat="42.4855783" lon="14.19385"><ele>4.0</ele><time>2026-05-01T07:14:48.282Z</time></trkpt><trkpt lat="42.4855067" lon="14.1939317"><ele>4.0</ele><time>2026-05-01T07:14:49.281Z</time></trkpt><trkpt lat="42.485445" lon="14.19401"><ele>3.8000000000000003</ele><time>2026-05-01T07:14:50.282Z</time></trkpt><trkpt lat="42.485375" lon="14.1941"><ele>3.6000000000000005</ele><time>2026-05-01T07:14:51.281Z</time></trkpt><trkpt lat="42.4853017" lon="14.1941867"><ele>3.4</ele><time>2026-05-01T07:14:52.281Z</time></trkpt><trkpt lat="42.4852233" lon="14.1942867"><ele>3.2</ele><time>2026-05-01T07:14:53.282Z</time></trkpt><trkpt lat="42.4851433" lon="14.1943933"><ele>3.0</ele><time>2026-05-01T07:14:54.281Z</time></trkpt><trkpt lat="42.4850633" lon="14.1944967"><ele>3.0</ele><time>2026-05-01T07:14:55.281Z</time></trkpt><trkpt lat="42.4849833" lon="14.1945983"><ele>3.0</ele><time>2026-05-01T07:14:56.281Z</time></trkpt><trkpt lat="42.4849" lon="14.1947033"><ele>3.0</ele><time>2026-05-01T07:14:57.282Z</time></trkpt><trkpt lat="42.4848183" lon="14.1948017"><ele>3.0</ele><time>2026-05-01T07:14:58.281Z</time></trkpt><trkpt lat="42.48474" lon="14.1949067"><ele>3.0</ele><time>2026-05-01T07:14:59.281Z</time></trkpt><trkpt lat="42.484665" lon="14.194995"><ele>2.8</ele><time>2026-05-01T07:15:00.282Z</time></trkpt><trkpt lat="42.4846" lon="14.195085"><ele>2.5999999999999996</ele><time>2026-05-01T07:15:01.281Z</time></trkpt><trkpt lat="42.4845317" lon="14.19517"><ele>2.4000000000000004</ele><time>2026-05-01T07:15:02.281Z</time></trkpt><trkpt lat="42.484465" lon="14.1952533"><ele>2.2</ele><time>2026-05-01T07:15:03.281Z</time></trkpt><trkpt lat="42.4843967" lon="14.1953433"><ele>2.0</ele><time>2026-05-01T07:15:04.281Z</time></trkpt><trkpt lat="42.484325" lon="14.1954383"><ele>2.0</ele><time>2026-05-01T07:15:05.281Z</time></trkpt><trkpt lat="42.4842567" lon="14.1955367"><ele>2.0</ele><time>2026-05-01T07:15:06.281Z</time></trkpt><trkpt lat="42.48419" lon="14.1956317"><ele>2.0</ele><time>2026-05-01T07:15:07.281Z</time></trkpt><trkpt lat="42.484125" lon="14.1957217"><ele>2.0</ele><time>2026-05-01T07:15:08.281Z</time></trkpt><trkpt lat="42.4840633" lon="14.195805"><ele>2.0</ele><time>2026-05-01T07:15:09.281Z</time></trkpt><trkpt lat="42.484" lon="14.1958883"><ele>1.8333333333333333</ele><time>2026-05-01T07:15:10.281Z</time></trkpt><trkpt lat="42.4839417" lon="14.1959617"><ele>1.6666666666666665</ele><time>2026-05-01T07:15:11.281Z</time></trkpt><trkpt lat="42.4838917" lon="14.1960317"><ele>1.5</ele><time>2026-05-01T07:15:12.281Z</time></trkpt><trkpt lat="42.4838383" lon="14.196105"><ele>1.3333333333333333</ele><time>2026-05-01T07:15:13.281Z</time></trkpt><trkpt lat="42.4837883" lon="14.196175"><ele>1.1666666666666665</ele><time>2026-05-01T07:15:14.281Z</time></trkpt><trkpt lat="42.483705" lon="14.1962967"><ele>1.0</ele><time>2026-05-01T07:15:16.281Z</time></trkpt><trkpt lat="42.48366" lon="14.1963583"><ele>1.8</ele><time>2026-05-01T07:15:17.281Z</time></trkpt><trkpt lat="42.483605" lon="14.19643"><ele>2.6</ele><time>2026-05-01T07:15:18.281Z</time></trkpt><trkpt lat="42.4835383" lon="14.1965217"><ele>3.4</ele><time>2026-05-01T07:15:19.281Z</time></trkpt><trkpt lat="42.4834617" lon="14.1966283"><ele>4.2</ele><time>2026-05-01T07:15:20.281Z</time></trkpt><trkpt lat="42.4833817" lon="14.1967367"><ele>5.0</ele><time>2026-05-01T07:15:21.281Z</time></trkpt><trkpt lat="42.48331" lon="14.19685"><ele>5.25</ele><time>2026-05-01T07:15:22.281Z</time></trkpt><trkpt lat="42.4832333" lon="14.1969733"><ele>5.5</ele><time>2026-05-01T07:15:23.281Z</time></trkpt><trkpt lat="42.4831533" lon="14.1970883"><ele>5.75</ele><time>2026-05-01T07:15:24.281Z</time></trkpt><trkpt lat="42.4830767" lon="14.1972"><ele>6.0</ele><time>2026-05-01T07:15:25.281Z</time></trkpt><trkpt lat="42.4829983" lon="14.19731"><ele>6.25</ele><time>2026-05-01T07:15:26.282Z</time></trkpt><trkpt lat="42.4829167" lon="14.1974233"><ele>6.5</ele><time>2026-05-01T07:15:27.281Z</time></trkpt><trkpt lat="42.4828367" lon="14.1975383"><ele>6.75</ele><time>2026-05-01T07:15:28.281Z</time></trkpt><trkpt lat="42.482755" lon="14.1976567"><ele>7.0</ele><time>2026-05-01T07:15:29.281Z</time></trkpt><trkpt lat="42.4826717" lon="14.197775"><ele>7.0</ele><time>2026-05-01T07:15:30.281Z</time></trkpt><trkpt lat="42.482595" lon="14.19789"><ele>6.999999999999999</ele><time>2026-05-01T07:15:31.281Z</time></trkpt><trkpt lat="42.482525" lon="14.1979933"><ele>6.999999999999999</ele><time>2026-05-01T07:15:32.281Z</time></trkpt><trkpt lat="42.482455" lon="14.1980867"><ele>7.0</ele><time>2026-05-01T07:15:33.281Z</time></trkpt><trkpt lat="42.48239" lon="14.198185"><ele>7.0</ele><time>2026-05-01T07:15:34.281Z</time></trkpt><trkpt lat="42.4823283" lon="14.1982767"><ele>6.3999999999999995</ele><time>2026-05-01T07:15:35.281Z</time></trkpt><trkpt lat="42.4822567" lon="14.1983883"><ele>5.799999999999999</ele><time>2026-05-01T07:15:36.281Z</time></trkpt><trkpt lat="42.48219" lon="14.1984967"><ele>5.2</ele><time>2026-05-01T07:15:37.281Z</time></trkpt><trkpt lat="42.4821267" lon="14.1985933"><ele>4.6</ele><time>2026-05-01T07:15:38.281Z</time></trkpt><trkpt lat="42.4820567" lon="14.198685"><ele>4.0</ele><time>2026-05-01T07:15:39.281Z</time></trkpt><trkpt lat="42.4819833" lon="14.19878"><ele>4.6</ele><time>2026-05-01T07:15:40.281Z</time></trkpt><trkpt lat="42.481905" lon="14.1988867"><ele>5.2</ele><time>2026-05-01T07:15:41.281Z</time></trkpt><trkpt lat="42.48183" lon="14.1990033"><ele>5.799999999999999</ele><time>2026-05-01T07:15:42.281Z</time></trkpt><trkpt lat="42.481755" lon="14.19911"><ele>6.3999999999999995</ele><time>2026-05-01T07:15:43.281Z</time></trkpt><trkpt lat="42.48168" lon="14.1992283"><ele>7.0</ele><time>2026-05-01T07:15:44.281Z</time></trkpt><trkpt lat="42.4816033" lon="14.1993483"><ele>7.0</ele><time>2026-05-01T07:15:45.281Z</time></trkpt><trkpt lat="42.4815267" lon="14.1994633"><ele>7.0</ele><time>2026-05-01T07:15:46.281Z</time></trkpt><trkpt lat="42.48145" lon="14.1995833"><ele>7.0</ele><time>2026-05-01T07:15:47.281Z</time></trkpt><trkpt lat="42.4813733" lon="14.1997017"><ele>7.0</ele><time>2026-05-01T07:15:48.282Z</time></trkpt><trkpt lat="42.4812917" lon="14.19982"><ele>6.199999999999999</ele><time>2026-05-01T07:15:49.281Z</time></trkpt><trkpt lat="42.481215" lon="14.1999333"><ele>5.3999999999999995</ele><time>2026-05-01T07:15:50.281Z</time></trkpt><trkpt lat="42.4811383" lon="14.20004"><ele>4.6</ele><time>2026-05-01T07:15:51.281Z</time></trkpt><trkpt lat="42.4810667" lon="14.2001433"><ele>3.8</ele><time>2026-05-01T07:15:52.281Z</time></trkpt><trkpt lat="42.480995" lon="14.2002367"><ele>3.0</ele><time>2026-05-01T07:15:53.281Z</time></trkpt><trkpt lat="42.48093" lon="14.2003233"><ele>3.0</ele><time>2026-05-01T07:15:54.281Z</time></trkpt><trkpt lat="42.4808683" lon="14.200415"><ele>3.0</ele><time>2026-05-01T07:15:55.281Z</time></trkpt><trkpt lat="42.4808117" lon="14.2005"><ele>3.0</ele><time>2026-05-01T07:15:56.281Z</time></trkpt><trkpt lat="42.4807467" lon="14.200585"><ele>3.0</ele><time>2026-05-01T07:15:57.281Z</time></trkpt><trkpt lat="42.4806867" lon="14.200675"><ele>3.0</ele><time>2026-05-01T07:15:58.281Z</time></trkpt><trkpt lat="42.4806267" lon="14.2007617"><ele>3.0</ele><time>2026-05-01T07:15:59.281Z</time></trkpt><trkpt lat="42.4805617" lon="14.2008617"><ele>2.8</ele><time>2026-05-01T07:16:00.281Z</time></trkpt><trkpt lat="42.4804983" lon="14.20096"><ele>2.5999999999999996</ele><time>2026-05-01T07:16:01.281Z</time></trkpt><trkpt lat="42.4804333" lon="14.201055"><ele>2.4000000000000004</ele><time>2026-05-01T07:16:02.281Z</time></trkpt><trkpt lat="42.4803733" lon="14.2011517"><ele>2.2</ele><time>2026-05-01T07:16:03.281Z</time></trkpt><trkpt lat="42.4803133" lon="14.2012417"><ele>2.0</ele><time>2026-05-01T07:16:04.281Z</time></trkpt><trkpt lat="42.4802483" lon="14.2013367"><ele>2.6</ele><time>2026-05-01T07:16:05.281Z</time></trkpt><trkpt lat="42.4801833" lon="14.2014383"><ele>3.2</ele><time>2026-05-01T07:16:06.28Z</time></trkpt><trkpt lat="42.4801183" lon="14.201535"><ele>3.8</ele><time>2026-05-01T07:16:07.28Z</time></trkpt><trkpt lat="42.4800533" lon="14.2016267"><ele>4.4</ele><time>2026-05-01T07:16:08.28Z</time></trkpt><trkpt lat="42.479985" lon="14.2017217"><ele>5.0</ele><time>2026-05-01T07:16:09.28Z</time></trkpt><trkpt lat="42.4799167" lon="14.20182"><ele>5.0</ele><time>2026-05-01T07:16:10.28Z</time></trkpt><trkpt lat="42.4798533" lon="14.2019133"><ele>5.0</ele><time>2026-05-01T07:16:11.28Z</time></trkpt><trkpt lat="42.4797883" lon="14.2020033"><ele>5.0</ele><time>2026-05-01T07:16:12.28Z</time></trkpt><trkpt lat="42.47973" lon="14.2020883"><ele>5.0</ele><time>2026-05-01T07:16:13.28Z</time></trkpt><trkpt lat="42.4796683" lon="14.2021617"><ele>5.0</ele><time>2026-05-01T07:16:14.281Z</time></trkpt><trkpt lat="42.4796133" lon="14.2022467"><ele>5.0</ele><time>2026-05-01T07:16:15.28Z</time></trkpt><trkpt lat="42.4795483" lon="14.2023367"><ele>4.833333333333334</ele><time>2026-05-01T07:16:16.28Z</time></trkpt><trkpt lat="42.4794833" lon="14.202425"><ele>4.666666666666667</ele><time>2026-05-01T07:16:17.28Z</time></trkpt><trkpt lat="42.4794283" lon="14.2025133"><ele>4.5</ele><time>2026-05-01T07:16:18.281Z</time></trkpt><trkpt lat="42.479375" lon="14.2026017"><ele>4.333333333333333</ele><time>2026-05-01T07:16:19.28Z</time></trkpt><trkpt lat="42.479325" lon="14.2026817"><ele>4.166666666666666</ele><time>2026-05-01T07:16:20.28Z</time></trkpt><trkpt lat="42.4792717" lon="14.20276"><ele>4.0</ele><time>2026-05-01T07:16:21.28Z</time></trkpt><trkpt lat="42.4792167" lon="14.202855"><ele>4.0</ele><time>2026-05-01T07:16:22.28Z</time></trkpt><trkpt lat="42.4791567" lon="14.20295"><ele>4.0</ele><time>2026-05-01T07:16:23.28Z</time></trkpt><trkpt lat="42.47909" lon="14.203045"><ele>4.0</ele><time>2026-05-01T07:16:24.28Z</time></trkpt><trkpt lat="42.47902" lon="14.2031367"><ele>4.0</ele><time>2026-05-01T07:16:25.28Z</time></trkpt><trkpt lat="42.4789567" lon="14.2032367"><ele>4.0</ele><time>2026-05-01T07:16:26.28Z</time></trkpt><trkpt lat="42.4788933" lon="14.2033267"><ele>3.6666666666666665</ele><time>2026-05-01T07:16:27.281Z</time></trkpt><trkpt lat="42.47883" lon="14.2034117"><ele>3.333333333333333</ele><time>2026-05-01T07:16:28.28Z</time></trkpt><trkpt lat="42.4787667" lon="14.2034967"><ele>3.0</ele><time>2026-05-01T07:16:29.28Z</time></trkpt><trkpt lat="42.4787083" lon="14.203585"><ele>2.6666666666666665</ele><time>2026-05-01T07:16:30.281Z</time></trkpt><trkpt lat="42.478645" lon="14.2036667"><ele>2.333333333333333</ele><time>2026-05-01T07:16:31.281Z</time></trkpt><trkpt lat="42.4785817" lon="14.20376"><ele>2.0</ele><time>2026-05-01T07:16:32.28Z</time></trkpt><trkpt lat="42.4785217" lon="14.2038583"><ele>2.4000000000000004</ele><time>2026-05-01T07:16:33.28Z</time></trkpt><trkpt lat="42.47845" lon="14.2039567"><ele>2.8000000000000003</ele><time>2026-05-01T07:16:34.28Z</time></trkpt><trkpt lat="42.4783783" lon="14.2040567"><ele>3.2</ele><time>2026-05-01T07:16:35.28Z</time></trkpt><trkpt lat="42.4783033" lon="14.2041567"><ele>3.6</ele><time>2026-05-01T07:16:36.281Z</time></trkpt><trkpt lat="42.4782367" lon="14.2042633"><ele>4.0</ele><time>2026-05-01T07:16:37.281Z</time></trkpt><trkpt lat="42.4781683" lon="14.2043717"><ele>4.0</ele><time>2026-05-01T07:16:38.281Z</time></trkpt><trkpt lat="42.4780967" lon="14.2044717"><ele>4.0</ele><time>2026-05-01T07:16:39.28Z</time></trkpt><trkpt lat="42.4780333" lon="14.20457"><ele>4.0</ele><time>2026-05-01T07:16:40.28Z</time></trkpt><trkpt lat="42.47797" lon="14.2046633"><ele>4.0</ele><time>2026-05-01T07:16:41.28Z</time></trkpt><trkpt lat="42.4779033" lon="14.2047583"><ele>4.0</ele><time>2026-05-01T07:16:42.28Z</time></trkpt><trkpt lat="42.477835" lon="14.2048567"><ele>4.4</ele><time>2026-05-01T07:16:43.28Z</time></trkpt><trkpt lat="42.4777717" lon="14.204955"><ele>4.800000000000001</ele><time>2026-05-01T07:16:44.28Z</time></trkpt><trkpt lat="42.4777033" lon="14.2050483"><ele>5.199999999999999</ele><time>2026-05-01T07:16:45.281Z</time></trkpt><trkpt lat="42.4776383" lon="14.205145"><ele>5.6</ele><time>2026-05-01T07:16:46.28Z</time></trkpt><trkpt lat="42.4775717" lon="14.20524"><ele>6.0</ele><time>2026-05-01T07:16:47.28Z</time></trkpt><trkpt lat="42.4775067" lon="14.2053417"><ele>6.0</ele><time>2026-05-01T07:16:48.28Z</time></trkpt><trkpt lat="42.4774433" lon="14.205435"><ele>6.0</ele><time>2026-05-01T07:16:49.28Z</time></trkpt><trkpt lat="42.4773817" lon="14.205535"><ele>6.0</ele><time>2026-05-01T07:16:50.28Z</time></trkpt><trkpt lat="42.47732" lon="14.20563"><ele>6.0</ele><time>2026-05-01T07:16:51.28Z</time></trkpt><trkpt lat="42.4772583" lon="14.2057217"><ele>6.0</ele><time>2026-05-01T07:16:52.28Z</time></trkpt><trkpt lat="42.4771933" lon="14.2058183"><ele>5.8</ele><time>2026-05-01T07:16:53.28Z</time></trkpt><trkpt lat="42.47712" lon="14.2059117"><ele>5.6</ele><time>2026-05-01T07:16:54.28Z</time></trkpt><trkpt lat="42.4770483" lon="14.2060083"><ele>5.4</ele><time>2026-05-01T07:16:55.28Z</time></trkpt><trkpt lat="42.4769833" lon="14.2060983"><ele>5.2</ele><time>2026-05-01T07:16:56.281Z</time></trkpt><trkpt lat="42.4769183" lon="14.2061817"><ele>5.0</ele><time>2026-05-01T07:16:57.28Z</time></trkpt><trkpt lat="42.476855" lon="14.2062717"><ele>5.0</ele><time>2026-05-01T07:16:58.28Z</time></trkpt><trkpt lat="42.47679" lon="14.20637"><ele>5.0</ele><time>2026-05-01T07:16:59.28Z</time></trkpt><trkpt lat="42.4767233" lon="14.2064717"><ele>5.0</ele><time>2026-05-01T07:17:00.28Z</time></trkpt><trkpt lat="42.4766567" lon="14.206575"><ele>5.0</ele><time>2026-05-01T07:17:01.28Z</time></trkpt><trkpt lat="42.4765883" lon="14.206675"><ele>5.0</ele><time>2026-05-01T07:17:02.28Z</time></trkpt><trkpt lat="42.4765167" lon="14.2067817"><ele>5.2</ele><time>2026-05-01T07:17:03.28Z</time></trkpt><trkpt lat="42.4764483" lon="14.2068783"><ele>5.4</ele><time>2026-05-01T07:17:04.28Z</time></trkpt><trkpt lat="42.476385" lon="14.2069667"><ele>5.6</ele><time>2026-05-01T07:17:05.28Z</time></trkpt><trkpt lat="42.4763217" lon="14.2070583"><ele>5.8</ele><time>2026-05-01T07:17:06.28Z</time></trkpt><trkpt lat="42.4762633" lon="14.2071483"><ele>6.0</ele><time>2026-05-01T07:17:07.281Z</time></trkpt><trkpt lat="42.4762" lon="14.2072367"><ele>5.6</ele><time>2026-05-01T07:17:08.28Z</time></trkpt><trkpt lat="42.4761283" lon="14.20734"><ele>5.199999999999999</ele><time>2026-05-01T07:17:09.28Z</time></trkpt><trkpt lat="42.47606" lon="14.2074467"><ele>4.800000000000001</ele><time>2026-05-01T07:17:10.28Z</time></trkpt><trkpt lat="42.475995" lon="14.207545"><ele>4.4</ele><time>2026-05-01T07:17:11.28Z</time></trkpt><trkpt lat="42.4759283" lon="14.2076433"><ele>4.0</ele><time>2026-05-01T07:17:12.28Z</time></trkpt><trkpt lat="42.4758633" lon="14.2077383"><ele>4.0</ele><time>2026-05-01T07:17:13.28Z</time></trkpt><trkpt lat="42.4757983" lon="14.2078383"><ele>4.0</ele><time>2026-05-01T07:17:14.28Z</time></trkpt><trkpt lat="42.4757283" lon="14.2079367"><ele>4.0</ele><time>2026-05-01T07:17:15.28Z</time></trkpt><trkpt lat="42.4756583" lon="14.2080333"><ele>4.0</ele><time>2026-05-01T07:17:16.28Z</time></trkpt><trkpt lat="42.4755883" lon="14.2081333"><ele>4.0</ele><time>2026-05-01T07:17:17.28Z</time></trkpt><trkpt lat="42.4755183" lon="14.20823"><ele>3.8000000000000003</ele><time>2026-05-01T07:17:18.28Z</time></trkpt><trkpt lat="42.4754533" lon="14.208335"><ele>3.6000000000000005</ele><time>2026-05-01T07:17:19.28Z</time></trkpt><trkpt lat="42.475385" lon="14.2084333"><ele>3.4</ele><time>2026-05-01T07:17:20.28Z</time></trkpt><trkpt lat="42.47532" lon="14.2085283"><ele>3.2</ele><time>2026-05-01T07:17:21.281Z</time></trkpt><trkpt lat="42.4752633" lon="14.2086217"><ele>3.0</ele><time>2026-05-01T07:17:22.28Z</time></trkpt><trkpt lat="42.4751967" lon="14.2087117"><ele>3.4</ele><time>2026-05-01T07:17:23.28Z</time></trkpt><trkpt lat="42.47513" lon="14.2088067"><ele>3.8</ele><time>2026-05-01T07:17:24.28Z</time></trkpt><trkpt lat="42.4750633" lon="14.20891"><ele>4.2</ele><time>2026-05-01T07:17:25.28Z</time></trkpt><trkpt lat="42.4749967" lon="14.2090067"><ele>4.6</ele><time>2026-05-01T07:17:26.28Z</time></trkpt><trkpt lat="42.4749333" lon="14.2091017"><ele>5.0</ele><time>2026-05-01T07:17:27.28Z</time></trkpt><trkpt lat="42.4748617" lon="14.2092"><ele>4.8</ele><time>2026-05-01T07:17:28.28Z</time></trkpt><trkpt lat="42.474795" lon="14.2092967"><ele>4.6</ele><time>2026-05-01T07:17:29.28Z</time></trkpt><trkpt lat="42.4747333" lon="14.2094"><ele>4.4</ele><time>2026-05-01T07:17:30.28Z</time></trkpt><trkpt lat="42.4746683" lon="14.209495"><ele>4.2</ele><time>2026-05-01T07:17:31.281Z</time></trkpt><trkpt lat="42.4746017" lon="14.2095917"><ele>4.0</ele><time>2026-05-01T07:17:32.28Z</time></trkpt><trkpt lat="42.474535" lon="14.2096933"><ele>4.0</ele><time>2026-05-01T07:17:33.28Z</time></trkpt><trkpt lat="42.4744633" lon="14.2098"><ele>4.0</ele><time>2026-05-01T07:17:34.28Z</time></trkpt><trkpt lat="42.4743867" lon="14.2099033"><ele>4.0</ele><time>2026-05-01T07:17:35.28Z</time></trkpt><trkpt lat="42.4743067" lon="14.2100033"><ele>4.0</ele><time>2026-05-01T07:17:36.281Z</time></trkpt><trkpt lat="42.4742333" lon="14.2101083"><ele>4.0</ele><time>2026-05-01T07:17:37.28Z</time></trkpt><trkpt lat="42.4741733" lon="14.2102067"><ele>3.6</ele><time>2026-05-01T07:17:38.28Z</time></trkpt><trkpt lat="42.474115" lon="14.2102917"><ele>3.2</ele><time>2026-05-01T07:17:39.28Z</time></trkpt><trkpt lat="42.474045" lon="14.2103817"><ele>2.8000000000000003</ele><time>2026-05-01T07:17:40.281Z</time></trkpt><trkpt lat="42.4739783" lon="14.2104767"><ele>2.4000000000000004</ele><time>2026-05-01T07:17:41.28Z</time></trkpt><trkpt lat="42.47391" lon="14.2105733"><ele>2.0</ele><time>2026-05-01T07:17:42.28Z</time></trkpt><trkpt lat="42.4738517" lon="14.2106617"><ele>1.4999999999999998</ele><time>2026-05-01T07:17:43.28Z</time></trkpt><trkpt lat="42.4738017" lon="14.2107433"><ele>1.0</ele><time>2026-05-01T07:17:44.28Z</time></trkpt><trkpt lat="42.4737467" lon="14.2108233"><ele>0.5</ele><time>2026-05-01T07:17:45.28Z</time></trkpt><trkpt lat="42.47369" lon="14.2109083"><ele>0.0</ele><time>2026-05-01T07:17:46.28Z</time></trkpt><trkpt lat="42.4736283" lon="14.211"><ele>-0.49999999999999994</ele><time>2026-05-01T07:17:47.28Z</time></trkpt><trkpt lat="42.4735733" lon="14.211095"><ele>-1.0</ele><time>2026-05-01T07:17:48.28Z</time></trkpt><trkpt lat="42.47352" lon="14.211185"><ele>-0.7142857142857142</ele><time>2026-05-01T07:17:49.28Z</time></trkpt><trkpt lat="42.4734733" lon="14.2112683"><ele>-0.4285714285714285</ele><time>2026-05-01T07:17:50.28Z</time></trkpt><trkpt lat="42.4734217" lon="14.21135"><ele>-0.14285714285714285</ele><time>2026-05-01T07:17:51.28Z</time></trkpt><trkpt lat="42.4733733" lon="14.2114217"><ele>0.14285714285714285</ele><time>2026-05-01T07:17:52.28Z</time></trkpt><trkpt lat="42.4733267" lon="14.2114917"><ele>0.4285714285714285</ele><time>2026-05-01T07:17:53.281Z</time></trkpt><trkpt lat="42.4732767" lon="14.21156"><ele>0.7142857142857142</ele><time>2026-05-01T07:17:54.281Z</time></trkpt><trkpt lat="42.4732267" lon="14.2116367"><ele>1.0</ele><time>2026-05-01T07:17:55.28Z</time></trkpt><trkpt lat="42.4731783" lon="14.21172"><ele>1.0</ele><time>2026-05-01T07:17:56.28Z</time></trkpt><trkpt lat="42.4731317" lon="14.2118183"><ele>1.0</ele><time>2026-05-01T07:17:57.28Z</time></trkpt><trkpt lat="42.4730767" lon="14.2119217"><ele>1.0</ele><time>2026-05-01T07:17:58.28Z</time></trkpt><trkpt lat="42.4730217" lon="14.2120217"><ele>1.0</ele><time>2026-05-01T07:17:59.28Z</time></trkpt><trkpt lat="42.4729583" lon="14.2121267"><ele>1.0</ele><time>2026-05-01T07:18:00.28Z</time></trkpt><trkpt lat="42.4728967" lon="14.2122333"><ele>1.4</ele><time>2026-05-01T07:18:01.281Z</time></trkpt><trkpt lat="42.4728333" lon="14.2123333"><ele>1.8</ele><time>2026-05-01T07:18:02.28Z</time></trkpt><trkpt lat="42.4727717" lon="14.21244"><ele>2.1999999999999997</ele><time>2026-05-01T07:18:03.28Z</time></trkpt><trkpt lat="42.4727083" lon="14.2125533"><ele>2.6</ele><time>2026-05-01T07:18:04.28Z</time></trkpt><trkpt lat="42.472645" lon="14.2126717"><ele>3.0</ele><time>2026-05-01T07:18:05.281Z</time></trkpt><trkpt lat="42.4725767" lon="14.2127733"><ele>3.0</ele><time>2026-05-01T07:18:06.28Z</time></trkpt><trkpt lat="42.4725117" lon="14.2128733"><ele>3.0</ele><time>2026-05-01T07:18:07.28Z</time></trkpt><trkpt lat="42.4724533" lon="14.2129833"><ele>3.0</ele><time>2026-05-01T07:18:08.28Z</time></trkpt><trkpt lat="42.4723933" lon="14.2130983"><ele>3.0</ele><time>2026-05-01T07:18:09.28Z</time></trkpt><trkpt lat="42.4723317" lon="14.213205"><ele>3.0</ele><time>2026-05-01T07:18:10.28Z</time></trkpt><trkpt lat="42.4722733" lon="14.2133067"><ele>3.0</ele><time>2026-05-01T07:18:11.28Z</time></trkpt><trkpt lat="42.4722083" lon="14.213405"><ele>3.0</ele><time>2026-05-01T07:18:12.28Z</time></trkpt><trkpt lat="42.4721483" lon="14.2135033"><ele>3.0</ele><time>2026-05-01T07:18:13.28Z</time></trkpt><trkpt lat="42.472085" lon="14.2136083"><ele>3.0</ele><time>2026-05-01T07:18:14.28Z</time></trkpt><trkpt lat="42.472015" lon="14.2137133"><ele>3.0</ele><time>2026-05-01T07:18:15.28Z</time></trkpt><trkpt lat="42.4719517" lon="14.2138133"><ele>3.5999999999999996</ele><time>2026-05-01T07:18:16.28Z</time></trkpt><trkpt lat="42.471895" lon="14.2139217"><ele>4.199999999999999</ele><time>2026-05-01T07:18:17.281Z</time></trkpt><trkpt lat="42.4718383" lon="14.2140283"><ele>4.8</ele><time>2026-05-01T07:18:18.28Z</time></trkpt><trkpt lat="42.471775" lon="14.214135"><ele>5.3999999999999995</ele><time>2026-05-01T07:18:19.281Z</time></trkpt><trkpt lat="42.471705" lon="14.21425"><ele>6.0</ele><time>2026-05-01T07:18:20.28Z</time></trkpt><trkpt lat="42.4716433" lon="14.21435"><ele>6.0</ele><time>2026-05-01T07:18:21.28Z</time></trkpt><trkpt lat="42.4715783" lon="14.21446"><ele>6.0</ele><time>2026-05-01T07:18:22.28Z</time></trkpt><trkpt lat="42.4715167" lon="14.2145717"><ele>6.0</ele><time>2026-05-01T07:18:23.28Z</time></trkpt><trkpt lat="42.471455" lon="14.2146767"><ele>6.0</ele><time>2026-05-01T07:18:24.28Z</time></trkpt><trkpt lat="42.4713933" lon="14.21477"><ele>6.0</ele><time>2026-05-01T07:18:25.28Z</time></trkpt><trkpt lat="42.4713367" lon="14.2148667"><ele>6.0</ele><time>2026-05-01T07:18:26.28Z</time></trkpt><trkpt lat="42.4712767" lon="14.214965"><ele>6.0</ele><time>2026-05-01T07:18:27.28Z</time></trkpt><trkpt lat="42.47122" lon="14.21507"><ele>6.0</ele><time>2026-05-01T07:18:28.28Z</time></trkpt><trkpt lat="42.4711667" lon="14.2151817"><ele>6.0</ele><time>2026-05-01T07:18:29.28Z</time></trkpt><trkpt lat="42.47111" lon="14.2152783"><ele>6.0</ele><time>2026-05-01T07:18:30.28Z</time></trkpt><trkpt lat="42.4710517" lon="14.2153817"><ele>6.0</ele><time>2026-05-01T07:18:31.28Z</time></trkpt><trkpt lat="42.4709967" lon="14.215485"><ele>6.0</ele><time>2026-05-01T07:18:32.28Z</time></trkpt><trkpt lat="42.4709317" lon="14.2155917"><ele>6.0</ele><time>2026-05-01T07:18:33.28Z</time></trkpt><trkpt lat="42.4708683" lon="14.2157"><ele>6.0</ele><time>2026-05-01T07:18:34.28Z</time></trkpt><trkpt lat="42.4708083" lon="14.2158017"><ele>6.0</ele><time>2026-05-01T07:18:35.28Z</time></trkpt><trkpt lat="42.4707533" lon="14.21589"><ele>6.4</ele><time>2026-05-01T07:18:36.281Z</time></trkpt><trkpt lat="42.47071" lon="14.21598"><ele>6.8</ele><time>2026-05-01T07:18:37.28Z</time></trkpt><trkpt lat="42.4706533" lon="14.216075"><ele>7.200000000000001</ele><time>2026-05-01T07:18:38.28Z</time></trkpt><trkpt lat="42.4705933" lon="14.21617"><ele>7.6000000000000005</ele><time>2026-05-01T07:18:39.28Z</time></trkpt><trkpt lat="42.4705317" lon="14.21628"><ele>8.0</ele><time>2026-05-01T07:18:40.281Z</time></trkpt><trkpt lat="42.47047" lon="14.2163983"><ele>7.2</ele><time>2026-05-01T07:18:41.28Z</time></trkpt><trkpt lat="42.4704067" lon="14.2165217"><ele>6.4</ele><time>2026-05-01T07:18:42.281Z</time></trkpt><trkpt lat="42.4703333" lon="14.21663"><ele>5.6000000000000005</ele><time>2026-05-01T07:18:43.28Z</time></trkpt><trkpt lat="42.47027" lon="14.2167433"><ele>4.800000000000001</ele><time>2026-05-01T07:18:44.28Z</time></trkpt><trkpt lat="42.470205" lon="14.2168567"><ele>4.0</ele><time>2026-05-01T07:18:45.28Z</time></trkpt><trkpt lat="42.4701383" lon="14.2169683"><ele>4.0</ele><time>2026-05-01T07:18:46.28Z</time></trkpt><trkpt lat="42.4700733" lon="14.2170783"><ele>4.0</ele><time>2026-05-01T07:18:47.28Z</time></trkpt><trkpt lat="42.470005" lon="14.2171883"><ele>4.0</ele><time>2026-05-01T07:18:48.28Z</time></trkpt><trkpt lat="42.469945" lon="14.2172883"><ele>4.0</ele><time>2026-05-01T07:18:49.28Z</time></trkpt><trkpt lat="42.4698783" lon="14.217395"><ele>4.0</ele><time>2026-05-01T07:18:50.28Z</time></trkpt><trkpt lat="42.469815" lon="14.217505"><ele>4.0</ele><time>2026-05-01T07:18:51.28Z</time></trkpt><trkpt lat="42.4697517" lon="14.2176117"><ele>4.0</ele><time>2026-05-01T07:18:52.28Z</time></trkpt><trkpt lat="42.469685" lon="14.2177183"><ele>4.0</ele><time>2026-05-01T07:18:53.28Z</time></trkpt><trkpt lat="42.4696217" lon="14.2178367"><ele>4.0</ele><time>2026-05-01T07:18:54.28Z</time></trkpt><trkpt lat="42.4695517" lon="14.2179617"><ele>4.0</ele><time>2026-05-01T07:18:55.28Z</time></trkpt><trkpt lat="42.46948" lon="14.2180833"><ele>4.0</ele><time>2026-05-01T07:18:56.28Z</time></trkpt><trkpt lat="42.469405" lon="14.2182017"><ele>4.0</ele><time>2026-05-01T07:18:57.28Z</time></trkpt><trkpt lat="42.469335" lon="14.2183133"><ele>4.0</ele><time>2026-05-01T07:18:58.28Z</time></trkpt><trkpt lat="42.469265" lon="14.2184217"><ele>4.0</ele><time>2026-05-01T07:18:59.28Z</time></trkpt><trkpt lat="42.469195" lon="14.2185317"><ele>4.0</ele><time>2026-05-01T07:19:00.28Z</time></trkpt><trkpt lat="42.4691367" lon="14.2186467"><ele>4.0</ele><time>2026-05-01T07:19:01.28Z</time></trkpt><trkpt lat="42.4690717" lon="14.218755"><ele>4.0</ele><time>2026-05-01T07:19:02.28Z</time></trkpt><trkpt lat="42.4690096" lon="14.2188626"><ele>4.0</ele><time>2026-05-01T07:19:03.281Z</time></trkpt><trkpt lat="42.4689463" lon="14.2189636"><ele>4.0</ele><time>2026-05-01T07:19:04.28Z</time></trkpt><trkpt lat="42.4688806" lon="14.2190709"><ele>4.0</ele><time>2026-05-01T07:19:05.28Z</time></trkpt><trkpt lat="42.4688135" lon="14.2191791"><ele>4.2</ele><time>2026-05-01T07:19:06.281Z</time></trkpt><trkpt lat="42.4687449" lon="14.2192953"><ele>4.4</ele><time>2026-05-01T07:19:07.28Z</time></trkpt><trkpt lat="42.4686768" lon="14.219412"><ele>4.6</ele><time>2026-05-01T07:19:08.28Z</time></trkpt><trkpt lat="42.4686034" lon="14.2195176"><ele>4.8</ele><time>2026-05-01T07:19:09.281Z</time></trkpt><trkpt lat="42.4685371" lon="14.2196334"><ele>5.0</ele><time>2026-05-01T07:19:10.28Z</time></trkpt><trkpt lat="42.4684769" lon="14.2197446"><ele>4.6</ele><time>2026-05-01T07:19:11.28Z</time></trkpt><trkpt lat="42.468425" lon="14.2198482"><ele>4.2</ele><time>2026-05-01T07:19:12.28Z</time></trkpt><trkpt lat="42.4683757" lon="14.2199572"><ele>3.8</ele><time>2026-05-01T07:19:13.28Z</time></trkpt><trkpt lat="42.4683182" lon="14.2200634"><ele>3.4</ele><time>2026-05-01T07:19:14.28Z</time></trkpt><trkpt lat="42.4682518" lon="14.2201708"><ele>3.0</ele><time>2026-05-01T07:19:15.28Z</time></trkpt><trkpt lat="42.4681855" lon="14.220287"><ele>3.0</ele><time>2026-05-01T07:19:16.28Z</time></trkpt><trkpt lat="42.4681243" lon="14.220402"><ele>3.0</ele><time>2026-05-01T07:19:17.28Z</time></trkpt><trkpt lat="42.4680621" lon="14.2205041"><ele>3.0</ele><time>2026-05-01T07:19:18.28Z</time></trkpt><trkpt lat="42.4680002" lon="14.2206102"><ele>3.0</ele><time>2026-05-01T07:19:19.28Z</time></trkpt><trkpt lat="42.4679421" lon="14.2207117"><ele>3.0</ele><time>2026-05-01T07:19:20.281Z</time></trkpt><trkpt lat="42.4678827" lon="14.2208124"><ele>2.8</ele><time>2026-05-01T07:19:21.28Z</time></trkpt><trkpt lat="42.4678225" lon="14.220917"><ele>2.5999999999999996</ele><time>2026-05-01T07:19:22.28Z</time></trkpt><trkpt lat="42.4677619" lon="14.2210294"><ele>2.4000000000000004</ele><time>2026-05-01T07:19:23.28Z</time></trkpt><trkpt lat="42.4676963" lon="14.2211374"><ele>2.2</ele><time>2026-05-01T07:19:24.28Z</time></trkpt><trkpt lat="42.4676291" lon="14.2212459"><ele>2.0</ele><time>2026-05-01T07:19:25.281Z</time></trkpt><trkpt lat="42.4675645" lon="14.2213514"><ele>1.9999999999999998</ele><time>2026-05-01T07:19:26.28Z</time></trkpt><trkpt lat="42.4675097" lon="14.2214559"><ele>2.0</ele><time>2026-05-01T07:19:27.281Z</time></trkpt><trkpt lat="42.4674608" lon="14.2215498"><ele>2.0</ele><time>2026-05-01T07:19:28.28Z</time></trkpt><trkpt lat="42.4674081" lon="14.2216442"><ele>2.0</ele><time>2026-05-01T07:19:29.281Z</time></trkpt><trkpt lat="42.467353" lon="14.2217437"><ele>1.9999999999999998</ele><time>2026-05-01T07:19:30.28Z</time></trkpt><trkpt lat="42.4673" lon="14.2218314"><ele>2.0</ele><time>2026-05-01T07:19:31.28Z</time></trkpt><trkpt lat="42.4672439" lon="14.2219092"><ele>1.8333333333333333</ele><time>2026-05-01T07:19:32.28Z</time></trkpt><trkpt lat="42.4671825" lon="14.2219788"><ele>1.6666666666666665</ele><time>2026-05-01T07:19:33.28Z</time></trkpt><trkpt lat="42.467123" lon="14.2220428"><ele>1.5</ele><time>2026-05-01T07:19:34.28Z</time></trkpt><trkpt lat="42.467061" lon="14.22209"><ele>1.3333333333333333</ele><time>2026-05-01T07:19:35.28Z</time></trkpt><trkpt lat="42.466995" lon="14.22212"><ele>1.1666666666666665</ele><time>2026-05-01T07:19:36.28Z</time></trkpt><trkpt lat="42.46692" lon="14.222135"><ele>1.0</ele><time>2026-05-01T07:19:37.28Z</time></trkpt><trkpt lat="42.4668367" lon="14.2221383"><ele>1.5</ele><time>2026-05-01T07:19:38.28Z</time></trkpt><trkpt lat="42.4667533" lon="14.2221233"><ele>2.0</ele><time>2026-05-01T07:19:39.28Z</time></trkpt><trkpt lat="42.4666817" lon="14.2220883"><ele>2.5</ele><time>2026-05-01T07:19:40.28Z</time></trkpt><trkpt lat="42.466615" lon="14.2220517"><ele>3.0</ele><time>2026-05-01T07:19:41.28Z</time></trkpt><trkpt lat="42.4665433" lon="14.222005"><ele>3.4999999999999996</ele><time>2026-05-01T07:19:42.28Z</time></trkpt><trkpt lat="42.4664667" lon="14.2219517"><ele>4.0</ele><time>2026-05-01T07:19:43.28Z</time></trkpt><trkpt lat="42.46639" lon="14.221895"><ele>3.9999999999999996</ele><time>2026-05-01T07:19:44.28Z</time></trkpt><trkpt lat="42.4663133" lon="14.22184"><ele>4.0</ele><time>2026-05-01T07:19:45.28Z</time></trkpt><trkpt lat="42.4662417" lon="14.22179"><ele>4.0</ele><time>2026-05-01T07:19:46.28Z</time></trkpt><trkpt lat="42.466175" lon="14.2217367"><ele>4.0</ele><time>2026-05-01T07:19:47.28Z</time></trkpt><trkpt lat="42.4661083" lon="14.221675"><ele>3.9999999999999996</ele><time>2026-05-01T07:19:48.28Z</time></trkpt><trkpt lat="42.466045" lon="14.221605"><ele>4.0</ele><time>2026-05-01T07:19:49.28Z</time></trkpt><trkpt lat="42.46599" lon="14.2215217"><ele>4.5</ele><time>2026-05-01T07:19:50.28Z</time></trkpt><trkpt lat="42.46594" lon="14.2214333"><ele>5.0</ele><time>2026-05-01T07:19:51.28Z</time></trkpt><trkpt lat="42.4658983" lon="14.221335"><ele>5.5</ele><time>2026-05-01T07:19:52.28Z</time></trkpt><trkpt lat="42.4658633" lon="14.2212233"><ele>6.0</ele><time>2026-05-01T07:19:53.28Z</time></trkpt><trkpt lat="42.4658333" lon="14.2211083"><ele>6.500000000000001</ele><time>2026-05-01T07:19:54.28Z</time></trkpt><trkpt lat="42.465805" lon="14.220995"><ele>7.0</ele><time>2026-05-01T07:19:55.28Z</time></trkpt><trkpt lat="42.465775" lon="14.22088"><ele>7.0</ele><time>2026-05-01T07:19:56.28Z</time></trkpt><trkpt lat="42.4657383" lon="14.2207533"><ele>6.999999999999999</ele><time>2026-05-01T07:19:57.28Z</time></trkpt><trkpt lat="42.465705" lon="14.2206183"><ele>6.999999999999999</ele><time>2026-05-01T07:19:58.28Z</time></trkpt><trkpt lat="42.4656783" lon="14.2204867"><ele>7.0</ele><time>2026-05-01T07:19:59.28Z</time></trkpt><trkpt lat="42.4656417" lon="14.2203617"><ele>7.0</ele><time>2026-05-01T07:20:00.28Z</time></trkpt><trkpt lat="42.4656133" lon="14.2202333"><ele>6.6</ele><time>2026-05-01T07:20:01.281Z</time></trkpt><trkpt lat="42.465585" lon="14.2201033"><ele>6.199999999999999</ele><time>2026-05-01T07:20:02.28Z</time></trkpt><trkpt lat="42.4655567" lon="14.2199767"><ele>5.8</ele><time>2026-05-01T07:20:03.28Z</time></trkpt><trkpt lat="42.4655217" lon="14.219855"><ele>5.4</ele><time>2026-05-01T07:20:04.281Z</time></trkpt><trkpt lat="42.4654867" lon="14.21973"><ele>5.0</ele><time>2026-05-01T07:20:05.28Z</time></trkpt><trkpt lat="42.46546" lon="14.2196133"><ele>4.833333333333334</ele><time>2026-05-01T07:20:06.28Z</time></trkpt><trkpt lat="42.4654317" lon="14.2194967"><ele>4.666666666666667</ele><time>2026-05-01T07:20:07.28Z</time></trkpt><trkpt lat="42.4654083" lon="14.2193883"><ele>4.5</ele><time>2026-05-01T07:20:08.281Z</time></trkpt><trkpt lat="42.4653817" lon="14.2192833"><ele>4.333333333333333</ele><time>2026-05-01T07:20:09.28Z</time></trkpt><trkpt lat="42.46536" lon="14.2191817"><ele>4.166666666666666</ele><time>2026-05-01T07:20:10.28Z</time></trkpt><trkpt lat="42.4653367" lon="14.21909"><ele>4.0</ele><time>2026-05-01T07:20:11.28Z</time></trkpt><trkpt lat="42.46531" lon="14.2190033"><ele>3.8000000000000003</ele><time>2026-05-01T07:20:12.28Z</time></trkpt><trkpt lat="42.4652783" lon="14.2188367"><ele>3.6000000000000005</ele><time>2026-05-01T07:20:14.28Z</time></trkpt><trkpt lat="42.4652633" lon="14.2187433"><ele>3.4</ele><time>2026-05-01T07:20:15.28Z</time></trkpt><trkpt lat="42.4652383" lon="14.218655"><ele>3.2</ele><time>2026-05-01T07:20:16.28Z</time></trkpt><trkpt lat="42.465165" lon="14.2185583"><ele>3.0</ele><time>2026-05-01T07:20:18.28Z</time></trkpt><trkpt lat="42.4650583" lon="14.2185617"><ele>3.0</ele><time>2026-05-01T07:20:20.28Z</time></trkpt><trkpt lat="42.4649683" lon="14.218485"><ele>3.0</ele><time>2026-05-01T07:20:22.28Z</time></trkpt><trkpt lat="42.4649333" lon="14.2184133"><ele>3.0</ele><time>2026-05-01T07:20:23.28Z</time></trkpt><trkpt lat="42.4648967" lon="14.2183117"><ele>3.0</ele><time>2026-05-01T07:20:24.28Z</time></trkpt><trkpt lat="42.46486" lon="14.2181833"><ele>3.0</ele><time>2026-05-01T07:20:25.28Z</time></trkpt><trkpt lat="42.4648217" lon="14.2180583"><ele>4.0</ele><time>2026-05-01T07:20:26.28Z</time></trkpt><trkpt lat="42.4647833" lon="14.2179267"><ele>5.0</ele><time>2026-05-01T07:20:27.28Z</time></trkpt><trkpt lat="42.4647467" lon="14.2177817"><ele>6.000000000000001</ele><time>2026-05-01T07:20:28.28Z</time></trkpt><trkpt lat="42.46471" lon="14.217635"><ele>7.0</ele><time>2026-05-01T07:20:29.28Z</time></trkpt><trkpt lat="42.464675" lon="14.217495"><ele>8.0</ele><time>2026-05-01T07:20:30.281Z</time></trkpt><trkpt lat="42.4646417" lon="14.2173617"><ele>7.2</ele><time>2026-05-01T07:20:31.28Z</time></trkpt><trkpt lat="42.4646083" lon="14.2172283"><ele>6.4</ele><time>2026-05-01T07:20:32.28Z</time></trkpt><trkpt lat="42.4645717" lon="14.2170983"><ele>5.6000000000000005</ele><time>2026-05-01T07:20:33.28Z</time></trkpt><trkpt lat="42.4645317" lon="14.2169683"><ele>4.800000000000001</ele><time>2026-05-01T07:20:34.28Z</time></trkpt><trkpt lat="42.4644817" lon="14.216845"><ele>4.0</ele><time>2026-05-01T07:20:35.28Z</time></trkpt><trkpt lat="42.4644283" lon="14.2167233"><ele>4.0</ele><time>2026-05-01T07:20:36.28Z</time></trkpt><trkpt lat="42.464375" lon="14.216615"><ele>4.0</ele><time>2026-05-01T07:20:37.28Z</time></trkpt><trkpt lat="42.4643333" lon="14.2165017"><ele>4.0</ele><time>2026-05-01T07:20:38.28Z</time></trkpt><trkpt lat="42.464285" lon="14.2163767"><ele>4.0</ele><time>2026-05-01T07:20:39.281Z</time></trkpt><trkpt lat="42.46423" lon="14.21624"><ele>4.0</ele><time>2026-05-01T07:20:40.28Z</time></trkpt><trkpt lat="42.4641767" lon="14.216095"><ele>4.0</ele><time>2026-05-01T07:20:41.28Z</time></trkpt><trkpt lat="42.4641217" lon="14.2159383"><ele>4.0</ele><time>2026-05-01T07:20:42.28Z</time></trkpt><trkpt lat="42.4640683" lon="14.2158"><ele>4.0</ele><time>2026-05-01T07:20:43.28Z</time></trkpt><trkpt lat="42.464015" lon="14.2156583"><ele>4.0</ele><time>2026-05-01T07:20:44.28Z</time></trkpt><trkpt lat="42.4639725" lon="14.2155157"><ele>4.75</ele><time>2026-05-01T07:20:45.28Z</time></trkpt><trkpt lat="42.4639327" lon="14.2153651"><ele>5.5</ele><time>2026-05-01T07:20:46.28Z</time></trkpt><trkpt lat="42.4638917" lon="14.2152295"><ele>6.25</ele><time>2026-05-01T07:20:47.28Z</time></trkpt><trkpt lat="42.4638395" lon="14.2150948"><ele>7.0</ele><time>2026-05-01T07:20:48.28Z</time></trkpt><trkpt lat="42.4637846" lon="14.2149636"><ele>7.5</ele><time>2026-05-01T07:20:49.28Z</time></trkpt><trkpt lat="42.4637283" lon="14.2148318"><ele>8.0</ele><time>2026-05-01T07:20:50.28Z</time></trkpt><trkpt lat="42.4636733" lon="14.2146966"><ele>8.5</ele><time>2026-05-01T07:20:51.28Z</time></trkpt><trkpt lat="42.4636133" lon="14.2145542"><ele>9.0</ele><time>2026-05-01T07:20:52.28Z</time></trkpt><trkpt lat="42.4635497" lon="14.2144156"><ele>9.0</ele><time>2026-05-01T07:20:53.28Z</time></trkpt><trkpt lat="42.4634834" lon="14.2142818"><ele>9.0</ele><time>2026-05-01T07:20:54.28Z</time></trkpt><trkpt lat="42.4634245" lon="14.2141402"><ele>9.0</ele><time>2026-05-01T07:20:55.28Z</time></trkpt><trkpt lat="42.4633671" lon="14.2139939"><ele>9.0</ele><time>2026-05-01T07:20:56.28Z</time></trkpt><trkpt lat="42.4633024" lon="14.2138495"><ele>9.75</ele><time>2026-05-01T07:20:57.28Z</time></trkpt><trkpt lat="42.463239" lon="14.2137119"><ele>10.5</ele><time>2026-05-01T07:20:58.28Z</time></trkpt><trkpt lat="42.4631744" lon="14.2135761"><ele>11.25</ele><time>2026-05-01T07:20:59.281Z</time></trkpt><trkpt lat="42.4631107" lon="14.2134331"><ele>12.0</ele><time>2026-05-01T07:21:00.28Z</time></trkpt><trkpt lat="42.4630489" lon="14.2132943"><ele>12.0</ele><time>2026-05-01T07:21:01.28Z</time></trkpt><trkpt lat="42.4629863" lon="14.21316"><ele>12.0</ele><time>2026-05-01T07:21:02.28Z</time></trkpt><trkpt lat="42.4629239" lon="14.2130257"><ele>12.0</ele><time>2026-05-01T07:21:03.28Z</time></trkpt><trkpt lat="42.4628632" lon="14.2128909"><ele>12.0</ele><time>2026-05-01T07:21:04.28Z</time></trkpt><trkpt lat="42.4627997" lon="14.212748"><ele>10.75</ele><time>2026-05-01T07:21:05.28Z</time></trkpt><trkpt lat="42.462736" lon="14.2126007"><ele>9.5</ele><time>2026-05-01T07:21:06.28Z</time></trkpt><trkpt lat="42.4626742" lon="14.2124573"><ele>8.25</ele><time>2026-05-01T07:21:07.28Z</time></trkpt><trkpt lat="42.4626184" lon="14.2123247"><ele>7.0</ele><time>2026-05-01T07:21:08.28Z</time></trkpt><trkpt lat="42.462559" lon="14.2121916"><ele>6.25</ele><time>2026-05-01T07:21:09.281Z</time></trkpt><trkpt lat="42.4624961" lon="14.2120529"><ele>5.5</ele><time>2026-05-01T07:21:10.28Z</time></trkpt><trkpt lat="42.4624359" lon="14.2119071"><ele>4.75</ele><time>2026-05-01T07:21:11.28Z</time></trkpt><trkpt lat="42.4623784" lon="14.2117663"><ele>4.0</ele><time>2026-05-01T07:21:12.28Z</time></trkpt><trkpt lat="42.4623238" lon="14.2116259"><ele>4.0</ele><time>2026-05-01T07:21:13.28Z</time></trkpt><trkpt lat="42.4622681" lon="14.2114889"><ele>4.0</ele><time>2026-05-01T07:21:14.28Z</time></trkpt><trkpt lat="42.4622093" lon="14.2113644"><ele>4.0</ele><time>2026-05-01T07:21:15.28Z</time></trkpt><trkpt lat="42.4621537" lon="14.2112446"><ele>4.0</ele><time>2026-05-01T07:21:16.28Z</time></trkpt><trkpt lat="42.4620963" lon="14.211115"><ele>4.0</ele><time>2026-05-01T07:21:17.28Z</time></trkpt><trkpt lat="42.4620396" lon="14.2109809"><ele>4.0</ele><time>2026-05-01T07:21:18.28Z</time></trkpt><trkpt lat="42.4619807" lon="14.2108613"><ele>4.0</ele><time>2026-05-01T07:21:19.28Z</time></trkpt><trkpt lat="42.4619279" lon="14.2107444"><ele>4.0</ele><time>2026-05-01T07:21:20.28Z</time></trkpt><trkpt lat="42.4618836" lon="14.2106346"><ele>4.0</ele><time>2026-05-01T07:21:21.28Z</time></trkpt><trkpt lat="42.4618475" lon="14.210531"><ele>4.0</ele><time>2026-05-01T07:21:22.28Z</time></trkpt><trkpt lat="42.4618138" lon="14.2104242"><ele>4.0</ele><time>2026-05-01T07:21:23.28Z</time></trkpt><trkpt lat="42.4617907" lon="14.2102946"><ele>4.0</ele><time>2026-05-01T07:21:24.28Z</time></trkpt><trkpt lat="42.4617856" lon="14.2101563"><ele>4.0</ele><time>2026-05-01T07:21:25.28Z</time></trkpt><trkpt lat="42.4617811" lon="14.2100221"><ele>4.0</ele><time>2026-05-01T07:21:26.28Z</time></trkpt><trkpt lat="42.4617696" lon="14.2098888"><ele>4.0</ele><time>2026-05-01T07:21:27.28Z</time></trkpt><trkpt lat="42.461765" lon="14.2097619"><ele>4.2</ele><time>2026-05-01T07:21:28.28Z</time></trkpt><trkpt lat="42.461801" lon="14.2096666"><ele>4.4</ele><time>2026-05-01T07:21:29.28Z</time></trkpt><trkpt lat="42.4618356" lon="14.2095562"><ele>4.6</ele><time>2026-05-01T07:21:30.28Z</time></trkpt><trkpt lat="42.461889" lon="14.2094532"><ele>4.8</ele><time>2026-05-01T07:21:31.28Z</time></trkpt><trkpt lat="42.4619522" lon="14.2093425"><ele>5.0</ele><time>2026-05-01T07:21:32.28Z</time></trkpt><trkpt lat="42.4620099" lon="14.2092271"><ele>5.0</ele><time>2026-05-01T07:21:33.281Z</time></trkpt><trkpt lat="42.462043" lon="14.2091182"><ele>5.0</ele><time>2026-05-01T07:21:34.28Z</time></trkpt><trkpt lat="42.462068" lon="14.2090079"><ele>5.0</ele><time>2026-05-01T07:21:35.28Z</time></trkpt><trkpt lat="42.4620957" lon="14.2089039"><ele>5.0</ele><time>2026-05-01T07:21:36.28Z</time></trkpt><trkpt lat="42.4621243" lon="14.2088148"><ele>5.0</ele><time>2026-05-01T07:21:37.28Z</time></trkpt><trkpt lat="42.4621547" lon="14.2087335"><ele>5.0</ele><time>2026-05-01T07:21:38.28Z</time></trkpt><trkpt lat="42.4621947" lon="14.208658"><ele>4.666666666666667</ele><time>2026-05-01T07:21:39.28Z</time></trkpt><trkpt lat="42.4622447" lon="14.2085846"><ele>4.333333333333334</ele><time>2026-05-01T07:21:40.28Z</time></trkpt><trkpt lat="42.4622903" lon="14.2085076"><ele>4.0</ele><time>2026-05-01T07:21:41.28Z</time></trkpt><trkpt lat="42.4623181" lon="14.2084206"><ele>3.666666666666667</ele><time>2026-05-01T07:21:42.28Z</time></trkpt><trkpt lat="42.4623198" lon="14.208335"><ele>3.3333333333333335</ele><time>2026-05-01T07:21:43.281Z</time></trkpt><trkpt lat="42.4622553" lon="14.2081992"><ele>3.0</ele><time>2026-05-01T07:21:45.28Z</time></trkpt><trkpt lat="42.4621927" lon="14.2081634"><ele>2.8</ele><time>2026-05-01T07:21:46.28Z</time></trkpt><trkpt lat="42.4621227" lon="14.2081501"><ele>2.5999999999999996</ele><time>2026-05-01T07:21:47.28Z</time></trkpt><trkpt lat="42.4620429" lon="14.2081601"><ele>2.4000000000000004</ele><time>2026-05-01T07:21:48.281Z</time></trkpt><trkpt lat="42.4619501" lon="14.2081677"><ele>2.2</ele><time>2026-05-01T07:21:49.28Z</time></trkpt><trkpt lat="42.4618455" lon="14.2081512"><ele>2.0</ele><time>2026-05-01T07:21:50.28Z</time></trkpt><trkpt lat="42.4617395" lon="14.2081232"><ele>2.5</ele><time>2026-05-01T07:21:51.28Z</time></trkpt><trkpt lat="42.4616438" lon="14.2080913"><ele>3.0</ele><time>2026-05-01T07:21:52.28Z</time></trkpt><trkpt lat="42.4615596" lon="14.2080634"><ele>3.5</ele><time>2026-05-01T07:21:53.28Z</time></trkpt><trkpt lat="42.4614798" lon="14.2080369"><ele>4.0</ele><time>2026-05-01T07:21:54.28Z</time></trkpt><trkpt lat="42.4613984" lon="14.2080159"><ele>4.5</ele><time>2026-05-01T07:21:55.28Z</time></trkpt><trkpt lat="42.4613244" lon="14.2079975"><ele>5.0</ele><time>2026-05-01T07:21:56.28Z</time></trkpt><trkpt lat="42.4612225" lon="14.2079689"><ele>5.166666666666667</ele><time>2026-05-01T07:21:58.28Z</time></trkpt><trkpt lat="42.46115" lon="14.2079517"><ele>5.333333333333334</ele><time>2026-05-01T07:22:04.28Z</time></trkpt><trkpt lat="42.4610783" lon="14.207855"><ele>5.5</ele><time>2026-05-01T07:22:06.28Z</time></trkpt><trkpt lat="42.461025" lon="14.2077967"><ele>5.666666666666667</ele><time>2026-05-01T07:22:07.28Z</time></trkpt><trkpt lat="42.4609633" lon="14.20776"><ele>5.833333333333333</ele><time>2026-05-01T07:22:08.28Z</time></trkpt><trkpt lat="42.4608417" lon="14.20775"><ele>6.0</ele><time>2026-05-01T07:22:10.28Z</time></trkpt><trkpt lat="42.4607867" lon="14.2077917"><ele>5.999999999999999</ele><time>2026-05-01T07:22:11.28Z</time></trkpt><trkpt lat="42.4607483" lon="14.2078667"><ele>6.0</ele><time>2026-05-01T07:22:12.28Z</time></trkpt><trkpt lat="42.4607317" lon="14.207955"><ele>6.0</ele><time>2026-05-01T07:22:13.28Z</time></trkpt><trkpt lat="42.4607383" lon="14.2080417"><ele>6.0</ele><time>2026-05-01T07:22:14.28Z</time></trkpt><trkpt lat="42.4607583" lon="14.208125"><ele>6.0</ele><time>2026-05-01T07:22:15.28Z</time></trkpt><trkpt lat="42.46078" lon="14.208215"><ele>5.999999999999999</ele><time>2026-05-01T07:22:16.28Z</time></trkpt><trkpt lat="42.4607833" lon="14.2083117"><ele>6.0</ele><time>2026-05-01T07:22:17.28Z</time></trkpt><trkpt lat="42.460775" lon="14.20844"><ele>6.0</ele><time>2026-05-01T07:22:19.28Z</time></trkpt><trkpt lat="42.460735" lon="14.2085283"><ele>6.0</ele><time>2026-05-01T07:22:22.28Z</time></trkpt><trkpt lat="42.4606683" lon="14.2085867"><ele>6.0</ele><time>2026-05-01T07:22:25.28Z</time></trkpt><trkpt lat="42.46058" lon="14.2086617"><ele>6.0</ele><time>2026-05-01T07:22:27.28Z</time></trkpt><trkpt lat="42.4605283" lon="14.2087167"><ele>6.0</ele><time>2026-05-01T07:22:28.28Z</time></trkpt><trkpt lat="42.4604567" lon="14.2087733"><ele>6.0</ele><time>2026-05-01T07:22:29.281Z</time></trkpt><trkpt lat="42.4603733" lon="14.2088283"><ele>5.666666666666667</ele><time>2026-05-01T07:22:30.28Z</time></trkpt><trkpt lat="42.4602883" lon="14.208885"><ele>5.333333333333333</ele><time>2026-05-01T07:22:31.28Z</time></trkpt><trkpt lat="42.4602117" lon="14.2089317"><ele>5.0</ele><time>2026-05-01T07:22:32.28Z</time></trkpt><trkpt lat="42.4601433" lon="14.208985"><ele>4.666666666666666</ele><time>2026-05-01T07:22:33.281Z</time></trkpt><trkpt lat="42.4600733" lon="14.2090283"><ele>4.333333333333333</ele><time>2026-05-01T07:22:34.281Z</time></trkpt><trkpt lat="42.460015" lon="14.2090783"><ele>4.0</ele><time>2026-05-01T07:22:35.281Z</time></trkpt><trkpt lat="42.4599367" lon="14.2091267"><ele>3.833333333333333</ele><time>2026-05-01T07:22:36.28Z</time></trkpt><trkpt lat="42.4598717" lon="14.209165"><ele>3.6666666666666665</ele><time>2026-05-01T07:22:37.28Z</time></trkpt><trkpt lat="42.4598133" lon="14.2092083"><ele>3.5</ele><time>2026-05-01T07:22:38.28Z</time></trkpt><trkpt lat="42.4597567" lon="14.2092483"><ele>3.333333333333333</ele><time>2026-05-01T07:22:39.28Z</time></trkpt><trkpt lat="42.4596233" lon="14.2093267"><ele>3.1666666666666665</ele><time>2026-05-01T07:22:41.28Z</time></trkpt><trkpt lat="42.4595617" lon="14.2093667"><ele>3.0</ele><time>2026-05-01T07:22:42.28Z</time></trkpt><trkpt lat="42.4594767" lon="14.2094183"><ele>3.4</ele><time>2026-05-01T07:22:43.28Z</time></trkpt><trkpt lat="42.4593983" lon="14.2094667"><ele>3.8</ele><time>2026-05-01T07:22:44.28Z</time></trkpt><trkpt lat="42.4593117" lon="14.20952"><ele>4.2</ele><time>2026-05-01T07:22:45.28Z</time></trkpt><trkpt lat="42.4592333" lon="14.2095767"><ele>4.6</ele><time>2026-05-01T07:22:46.281Z</time></trkpt><trkpt lat="42.4591467" lon="14.2096283"><ele>5.0</ele><time>2026-05-01T07:22:47.28Z</time></trkpt><trkpt lat="42.4590583" lon="14.2097033"><ele>5.0</ele><time>2026-05-01T07:22:48.28Z</time></trkpt><trkpt lat="42.4589717" lon="14.20977"><ele>5.0</ele><time>2026-05-01T07:22:49.281Z</time></trkpt><trkpt lat="42.4588983" lon="14.209825"><ele>5.0</ele><time>2026-05-01T07:22:50.28Z</time></trkpt><trkpt lat="42.4588283" lon="14.2098683"><ele>5.0</ele><time>2026-05-01T07:22:51.281Z</time></trkpt><trkpt lat="42.458755" lon="14.2099167"><ele>5.0</ele><time>2026-05-01T07:22:52.28Z</time></trkpt><trkpt lat="42.4586833" lon="14.2099667"><ele>5.0</ele><time>2026-05-01T07:22:53.28Z</time></trkpt><trkpt lat="42.458625" lon="14.21002"><ele>5.166666666666667</ele><time>2026-05-01T07:22:54.28Z</time></trkpt><trkpt lat="42.4585567" lon="14.2100583"><ele>5.333333333333334</ele><time>2026-05-01T07:22:55.281Z</time></trkpt><trkpt lat="42.4584967" lon="14.2100867"><ele>5.5</ele><time>2026-05-01T07:22:56.28Z</time></trkpt><trkpt lat="42.458395" lon="14.2101517"><ele>5.666666666666667</ele><time>2026-05-01T07:22:58.28Z</time></trkpt><trkpt lat="42.4583217" lon="14.210205"><ele>5.833333333333333</ele><time>2026-05-01T07:23:00.28Z</time></trkpt><trkpt lat="42.4582417" lon="14.2102267"><ele>6.0</ele><time>2026-05-01T07:23:02.28Z</time></trkpt><trkpt lat="42.4581717" lon="14.2102517"><ele>6.0</ele><time>2026-05-01T07:23:04.28Z</time></trkpt><trkpt lat="42.4582133" lon="14.2104"><ele>6.0</ele><time>2026-05-01T07:23:07.28Z</time></trkpt><trkpt lat="42.4582667" lon="14.210495"><ele>6.0</ele><time>2026-05-01T07:23:08.28Z</time></trkpt><trkpt lat="42.458335" lon="14.2106017"><ele>6.0</ele><time>2026-05-01T07:23:09.28Z</time></trkpt><trkpt lat="42.458415" lon="14.210685"><ele>6.0</ele><time>2026-05-01T07:23:10.28Z</time></trkpt><trkpt lat="42.4584817" lon="14.21076"><ele>6.199999999999999</ele><time>2026-05-01T07:23:11.28Z</time></trkpt><trkpt lat="42.45853" lon="14.2108467"><ele>6.3999999999999995</ele><time>2026-05-01T07:23:12.28Z</time></trkpt><trkpt lat="42.4585583" lon="14.2109267"><ele>6.6</ele><time>2026-05-01T07:23:13.28Z</time></trkpt><trkpt lat="42.45855" lon="14.2110783"><ele>6.8</ele><time>2026-05-01T07:23:15.28Z</time></trkpt><trkpt lat="42.458445" lon="14.2112"><ele>7.0</ele><time>2026-05-01T07:23:17.28Z</time></trkpt><trkpt lat="42.4583533" lon="14.2112717"><ele>7.0</ele><time>2026-05-01T07:23:18.281Z</time></trkpt><trkpt lat="42.4582283" lon="14.21133"><ele>7.0</ele><time>2026-05-01T07:23:19.28Z</time></trkpt><trkpt lat="42.458105" lon="14.211395"><ele>7.0</ele><time>2026-05-01T07:23:20.28Z</time></trkpt><trkpt lat="42.4579867" lon="14.2114633"><ele>7.0</ele><time>2026-05-01T07:23:21.28Z</time></trkpt><trkpt lat="42.4578667" lon="14.2115333"><ele>6.0</ele><time>2026-05-01T07:23:22.28Z</time></trkpt><trkpt lat="42.4577383" lon="14.2116083"><ele>5.0</ele><time>2026-05-01T07:23:23.28Z</time></trkpt><trkpt lat="42.4576033" lon="14.2116983"><ele>4.0</ele><time>2026-05-01T07:23:24.28Z</time></trkpt><trkpt lat="42.4574583" lon="14.2117967"><ele>4.0</ele><time>2026-05-01T07:23:25.28Z</time></trkpt><trkpt lat="42.4573033" lon="14.2119067"><ele>4.0</ele><time>2026-05-01T07:23:26.28Z</time></trkpt><trkpt lat="42.4571533" lon="14.2120033"><ele>4.0</ele><time>2026-05-01T07:23:27.28Z</time></trkpt><trkpt lat="42.4570017" lon="14.212075"><ele>3.333333333333333</ele><time>2026-05-01T07:23:28.28Z</time></trkpt><trkpt lat="42.4568483" lon="14.2121433"><ele>2.6666666666666665</ele><time>2026-05-01T07:23:29.28Z</time></trkpt><trkpt lat="42.4566933" lon="14.21222"><ele>2.0</ele><time>2026-05-01T07:23:30.28Z</time></trkpt><trkpt lat="42.4565317" lon="14.2122917"><ele>2.333333333333333</ele><time>2026-05-01T07:23:31.28Z</time></trkpt><trkpt lat="42.4563783" lon="14.2123583"><ele>2.6666666666666665</ele><time>2026-05-01T07:23:32.28Z</time></trkpt><trkpt lat="42.4562217" lon="14.2124283"><ele>3.0</ele><time>2026-05-01T07:23:33.281Z</time></trkpt><trkpt lat="42.45606" lon="14.2124933"><ele>3.0</ele><time>2026-05-01T07:23:34.28Z</time></trkpt><trkpt lat="42.4558983" lon="14.2125317"><ele>3.0</ele><time>2026-05-01T07:23:35.28Z</time></trkpt><trkpt lat="42.45574" lon="14.2125517"><ele>3.0</ele><time>2026-05-01T07:23:36.28Z</time></trkpt><trkpt lat="42.4555917" lon="14.21256"><ele>3.0</ele><time>2026-05-01T07:23:37.28Z</time></trkpt><trkpt lat="42.4554483" lon="14.2125633"><ele>3.0</ele><time>2026-05-01T07:23:38.28Z</time></trkpt><trkpt lat="42.4553233" lon="14.2125683"><ele>3.0</ele><time>2026-05-01T07:23:39.28Z</time></trkpt><trkpt lat="42.4552117" lon="14.2125783"><ele>3.0</ele><time>2026-05-01T07:23:40.28Z</time></trkpt><trkpt lat="42.4551067" lon="14.2125867"><ele>3.0</ele><time>2026-05-01T07:23:41.28Z</time></trkpt><trkpt lat="42.4550117" lon="14.212585"><ele>3.0</ele><time>2026-05-01T07:23:42.28Z</time></trkpt><trkpt lat="42.4549183" lon="14.2125917"><ele>3.0</ele><time>2026-05-01T07:23:43.28Z</time></trkpt><trkpt lat="42.45483" lon="14.2126133"><ele>3.0</ele><time>2026-05-01T07:23:44.28Z</time></trkpt><trkpt lat="42.4547617" lon="14.2126467"><ele>3.0</ele><time>2026-05-01T07:23:45.28Z</time></trkpt><trkpt lat="42.4547083" lon="14.212705"><ele>3.0</ele><time>2026-05-01T07:23:46.28Z</time></trkpt><trkpt lat="42.45467" lon="14.212795"><ele>3.0</ele><time>2026-05-01T07:23:47.28Z</time></trkpt><trkpt lat="42.4546467" lon="14.2129133"><ele>3.0</ele><time>2026-05-01T07:23:48.28Z</time></trkpt><trkpt lat="42.4546267" lon="14.213035"><ele>3.0</ele><time>2026-05-01T07:23:49.28Z</time></trkpt><trkpt lat="42.454595" lon="14.21313"><ele>3.0</ele><time>2026-05-01T07:23:50.28Z</time></trkpt><trkpt lat="42.4545383" lon="14.21321"><ele>3.0</ele><time>2026-05-01T07:23:51.28Z</time></trkpt><trkpt lat="42.4544583" lon="14.2132767"><ele>3.0</ele><time>2026-05-01T07:23:52.28Z</time></trkpt><trkpt lat="42.45435" lon="14.2133267"><ele>3.0</ele><time>2026-05-01T07:23:53.28Z</time></trkpt><trkpt lat="42.4542383" lon="14.21336"><ele>3.0</ele><time>2026-05-01T07:23:54.28Z</time></trkpt><trkpt lat="42.4541267" lon="14.2134067"><ele>3.0</ele><time>2026-05-01T07:23:55.28Z</time></trkpt><trkpt lat="42.4540133" lon="14.2134583"><ele>3.0</ele><time>2026-05-01T07:23:56.28Z</time></trkpt><trkpt lat="42.4539033" lon="14.2135133"><ele>3.0</ele><time>2026-05-01T07:23:57.28Z</time></trkpt><trkpt lat="42.4537917" lon="14.2135733"><ele>3.0</ele><time>2026-05-01T07:23:58.28Z</time></trkpt><trkpt lat="42.4536783" lon="14.213625"><ele>3.0</ele><time>2026-05-01T07:23:59.28Z</time></trkpt><trkpt lat="42.4535733" lon="14.2136733"><ele>3.0</ele><time>2026-05-01T07:24:00.28Z</time></trkpt><trkpt lat="42.4534633" lon="14.2137217"><ele>2.75</ele><time>2026-05-01T07:24:01.28Z</time></trkpt><trkpt lat="42.4533583" lon="14.2137733"><ele>2.5</ele><time>2026-05-01T07:24:02.28Z</time></trkpt><trkpt lat="42.4532533" lon="14.2138333"><ele>2.25</ele><time>2026-05-01T07:24:03.28Z</time></trkpt><trkpt lat="42.453145" lon="14.213885"><ele>2.0</ele><time>2026-05-01T07:24:04.28Z</time></trkpt><trkpt lat="42.4530267" lon="14.2139417"><ele>1.5</ele><time>2026-05-01T07:24:05.28Z</time></trkpt><trkpt lat="42.45291" lon="14.2139967"><ele>1.0</ele><time>2026-05-01T07:24:06.28Z</time></trkpt><trkpt lat="42.4527883" lon="14.2140533"><ele>0.5</ele><time>2026-05-01T07:24:07.28Z</time></trkpt><trkpt lat="42.4526667" lon="14.21411"><ele>0.0</ele><time>2026-05-01T07:24:08.28Z</time></trkpt><trkpt lat="42.4525533" lon="14.214165"><ele>0.0</ele><time>2026-05-01T07:24:09.28Z</time></trkpt><trkpt lat="42.452455" lon="14.2142133"><ele>0.0</ele><time>2026-05-01T07:24:10.28Z</time></trkpt><trkpt lat="42.4523667" lon="14.2142617"><ele>0.0</ele><time>2026-05-01T07:24:11.28Z</time></trkpt><trkpt lat="42.4522783" lon="14.2143067"><ele>0.0</ele><time>2026-05-01T07:24:12.281Z</time></trkpt><trkpt lat="42.45219" lon="14.2143517"><ele>0.0</ele><time>2026-05-01T07:24:13.281Z</time></trkpt><trkpt lat="42.4520967" lon="14.2144167"><ele>0.25</ele><time>2026-05-01T07:24:14.28Z</time></trkpt><trkpt lat="42.4519983" lon="14.2144933"><ele>0.5</ele><time>2026-05-01T07:24:15.28Z</time></trkpt><trkpt lat="42.4519033" lon="14.2145967"><ele>0.75</ele><time>2026-05-01T07:24:16.28Z</time></trkpt><trkpt lat="42.4518117" lon="14.2147067"><ele>1.0</ele><time>2026-05-01T07:24:17.28Z</time></trkpt><trkpt lat="42.4517317" lon="14.2148333"><ele>1.0</ele><time>2026-05-01T07:24:18.281Z</time></trkpt><trkpt lat="42.451655" lon="14.214975"><ele>1.0</ele><time>2026-05-01T07:24:19.28Z</time></trkpt><trkpt lat="42.4515783" lon="14.2151283"><ele>1.0</ele><time>2026-05-01T07:24:20.28Z</time></trkpt><trkpt lat="42.4515033" lon="14.2152717"><ele>1.0</ele><time>2026-05-01T07:24:21.28Z</time></trkpt><trkpt lat="42.45142" lon="14.2154167"><ele>1.0</ele><time>2026-05-01T07:24:22.28Z</time></trkpt><trkpt lat="42.451345" lon="14.2155617"><ele>1.0</ele><time>2026-05-01T07:24:23.281Z</time></trkpt><trkpt lat="42.45126" lon="14.215715"><ele>1.0</ele><time>2026-05-01T07:24:24.28Z</time></trkpt><trkpt lat="42.4511833" lon="14.2158683"><ele>1.0</ele><time>2026-05-01T07:24:25.28Z</time></trkpt><trkpt lat="42.4510983" lon="14.2160233"><ele>1.5</ele><time>2026-05-01T07:24:26.28Z</time></trkpt><trkpt lat="42.451015" lon="14.2161733"><ele>2.0</ele><time>2026-05-01T07:24:27.28Z</time></trkpt><trkpt lat="42.4509367" lon="14.2163133"><ele>2.5</ele><time>2026-05-01T07:24:28.28Z</time></trkpt><trkpt lat="42.45086" lon="14.2164433"><ele>3.0</ele><time>2026-05-01T07:24:29.28Z</time></trkpt><trkpt lat="42.4507867" lon="14.2165533"><ele>3.1666666666666665</ele><time>2026-05-01T07:24:30.28Z</time></trkpt><trkpt lat="42.4507217" lon="14.216665"><ele>3.333333333333333</ele><time>2026-05-01T07:24:31.281Z</time></trkpt><trkpt lat="42.4506633" lon="14.2167583"><ele>3.5</ele><time>2026-05-01T07:24:32.28Z</time></trkpt><trkpt lat="42.4506217" lon="14.2168383"><ele>3.6666666666666665</ele><time>2026-05-01T07:24:33.28Z</time></trkpt><trkpt lat="42.4505617" lon="14.21693"><ele>3.833333333333333</ele><time>2026-05-01T07:24:35.28Z</time></trkpt><trkpt lat="42.4504733" lon="14.2169183"><ele>4.0</ele><time>2026-05-01T07:24:37.28Z</time></trkpt><trkpt lat="42.45042" lon="14.2168683"><ele>4.0</ele><time>2026-05-01T07:24:38.28Z</time></trkpt><trkpt lat="42.4503667" lon="14.2167883"><ele>4.0</ele><time>2026-05-01T07:24:39.28Z</time></trkpt><trkpt lat="42.4502917" lon="14.216685"><ele>4.0</ele><time>2026-05-01T07:24:40.28Z</time></trkpt><trkpt lat="42.45022" lon="14.2165583"><ele>4.0</ele><time>2026-05-01T07:24:41.28Z</time></trkpt><trkpt lat="42.4501433" lon="14.216435"><ele>4.0</ele><time>2026-05-01T07:24:42.28Z</time></trkpt><trkpt lat="42.45005" lon="14.2163167"><ele>4.0</ele><time>2026-05-01T07:24:43.28Z</time></trkpt><trkpt lat="42.4499633" lon="14.2161933"><ele>4.0</ele><time>2026-05-01T07:24:44.28Z</time></trkpt><trkpt lat="42.449885" lon="14.2160717"><ele>4.0</ele><time>2026-05-01T07:24:45.28Z</time></trkpt><trkpt lat="42.4498117" lon="14.2159517"><ele>4.0</ele><time>2026-05-01T07:24:46.28Z</time></trkpt><trkpt lat="42.4497367" lon="14.2158467"><ele>3.9999999999999996</ele><time>2026-05-01T07:24:47.28Z</time></trkpt><trkpt lat="42.4496717" lon="14.2157483"><ele>4.0</ele><time>2026-05-01T07:24:48.28Z</time></trkpt><trkpt lat="42.4496183" lon="14.21565"><ele>4.0</ele><time>2026-05-01T07:24:49.281Z</time></trkpt><trkpt lat="42.4495767" lon="14.2155583"><ele>4.0</ele><time>2026-05-01T07:24:50.28Z</time></trkpt><trkpt lat="42.44953" lon="14.21549"><ele>3.9999999999999996</ele><time>2026-05-01T07:24:51.28Z</time></trkpt><trkpt lat="42.4494783" lon="14.21544"><ele>4.0</ele><time>2026-05-01T07:24:52.28Z</time></trkpt><trkpt lat="42.4493783" lon="14.2154367"><ele>4.0</ele><time>2026-05-01T07:24:54.281Z</time></trkpt><trkpt lat="42.449325" lon="14.2154917"><ele>4.0</ele><time>2026-05-01T07:24:55.281Z</time></trkpt><trkpt lat="42.4492583" lon="14.2155683"><ele>4.0</ele><time>2026-05-01T07:24:56.28Z</time></trkpt><trkpt lat="42.4491683" lon="14.21565"><ele>4.0</ele><time>2026-05-01T07:24:57.28Z</time></trkpt><trkpt lat="42.4490617" lon="14.2157233"><ele>4.0</ele><time>2026-05-01T07:24:58.28Z</time></trkpt><trkpt lat="42.4489417" lon="14.2157933"><ele>4.0</ele><time>2026-05-01T07:24:59.28Z</time></trkpt><trkpt lat="42.4488267" lon="14.2158617"><ele>4.0</ele><time>2026-05-01T07:25:00.28Z</time></trkpt><trkpt lat="42.44871" lon="14.21592"><ele>4.0</ele><time>2026-05-01T07:25:01.28Z</time></trkpt><trkpt lat="42.4486" lon="14.2159883"><ele>4.0</ele><time>2026-05-01T07:25:02.281Z</time></trkpt><trkpt lat="42.4484683" lon="14.216075"><ele>5.0</ele><time>2026-05-01T07:25:03.28Z</time></trkpt><trkpt lat="42.448325" lon="14.216165"><ele>6.0</ele><time>2026-05-01T07:25:04.28Z</time></trkpt><trkpt lat="42.44818" lon="14.2162417"><ele>7.0</ele><time>2026-05-01T07:25:05.28Z</time></trkpt><trkpt lat="42.4480383" lon="14.2163233"><ele>7.0</ele><time>2026-05-01T07:25:06.28Z</time></trkpt><trkpt lat="42.4479033" lon="14.2163917"><ele>7.0</ele><time>2026-05-01T07:25:07.28Z</time></trkpt><trkpt lat="42.4477683" lon="14.2164767"><ele>7.0</ele><time>2026-05-01T07:25:08.28Z</time></trkpt><trkpt lat="42.44763" lon="14.2165567"><ele>7.0</ele><time>2026-05-01T07:25:09.281Z</time></trkpt><trkpt lat="42.4475017" lon="14.2166417"><ele>7.0</ele><time>2026-05-01T07:25:10.28Z</time></trkpt><trkpt lat="42.44738" lon="14.2167167"><ele>7.0</ele><time>2026-05-01T07:25:11.28Z</time></trkpt><trkpt lat="42.447255" lon="14.2167883"><ele>7.0</ele><time>2026-05-01T07:25:12.28Z</time></trkpt><trkpt lat="42.4471433" lon="14.2168617"><ele>7.0</ele><time>2026-05-01T07:25:13.28Z</time></trkpt><trkpt lat="42.4470183" lon="14.2169167"><ele>7.25</ele><time>2026-05-01T07:25:14.28Z</time></trkpt><trkpt lat="42.4469" lon="14.2169717"><ele>7.5</ele><time>2026-05-01T07:25:15.28Z</time></trkpt><trkpt lat="42.4467917" lon="14.2170333"><ele>7.75</ele><time>2026-05-01T07:25:16.28Z</time></trkpt><trkpt lat="42.4466833" lon="14.2170867"><ele>8.0</ele><time>2026-05-01T07:25:17.28Z</time></trkpt><trkpt lat="42.44658" lon="14.2171533"><ele>8.0</ele><time>2026-05-01T07:25:18.28Z</time></trkpt><trkpt lat="42.4464733" lon="14.21721"><ele>8.0</ele><time>2026-05-01T07:25:19.28Z</time></trkpt><trkpt lat="42.4464083" lon="14.2172733"><ele>8.0</ele><time>2026-05-01T07:25:20.28Z</time></trkpt><trkpt lat="42.4463467" lon="14.21732"><ele>8.0</ele><time>2026-05-01T07:25:21.28Z</time></trkpt><trkpt lat="42.44625" lon="14.2173833"><ele>8.0</ele><time>2026-05-01T07:25:23.28Z</time></trkpt><trkpt lat="42.4461717" lon="14.2173533"><ele>7.2</ele><time>2026-05-01T07:25:25.281Z</time></trkpt><trkpt lat="42.4461267" lon="14.21728"><ele>6.4</ele><time>2026-05-01T07:25:26.28Z</time></trkpt><trkpt lat="42.4460767" lon="14.2171833"><ele>5.6000000000000005</ele><time>2026-05-01T07:25:27.28Z</time></trkpt><trkpt lat="42.446005" lon="14.2170883"><ele>4.800000000000001</ele><time>2026-05-01T07:25:28.28Z</time></trkpt><trkpt lat="42.4459267" lon="14.2169883"><ele>4.0</ele><time>2026-05-01T07:25:29.28Z</time></trkpt><trkpt lat="42.4458417" lon="14.2168983"><ele>4.0</ele><time>2026-05-01T07:25:30.28Z</time></trkpt><trkpt lat="42.4457483" lon="14.2168167"><ele>4.0</ele><time>2026-05-01T07:25:31.28Z</time></trkpt><trkpt lat="42.44566" lon="14.2167383"><ele>4.0</ele><time>2026-05-01T07:25:32.28Z</time></trkpt><trkpt lat="42.4455683" lon="14.2166583"><ele>4.0</ele><time>2026-05-01T07:25:33.28Z</time></trkpt><trkpt lat="42.44547" lon="14.2165617"><ele>4.0</ele><time>2026-05-01T07:25:34.281Z</time></trkpt><trkpt lat="42.4453833" lon="14.2164683"><ele>5.0</ele><time>2026-05-01T07:25:35.28Z</time></trkpt><trkpt lat="42.44529" lon="14.21637"><ele>6.0</ele><time>2026-05-01T07:25:36.28Z</time></trkpt><trkpt lat="42.4451917" lon="14.2162817"><ele>7.0</ele><time>2026-05-01T07:25:37.28Z</time></trkpt><trkpt lat="42.4451" lon="14.21619"><ele>8.0</ele><time>2026-05-01T07:25:38.28Z</time></trkpt><trkpt lat="42.4450017" lon="14.2161083"><ele>8.0</ele><time>2026-05-01T07:25:39.28Z</time></trkpt><trkpt lat="42.4449083" lon="14.2160183"><ele>8.0</ele><time>2026-05-01T07:25:40.28Z</time></trkpt><trkpt lat="42.4448067" lon="14.2159233"><ele>8.0</ele><time>2026-05-01T07:25:41.28Z</time></trkpt><trkpt lat="42.44471" lon="14.21585"><ele>8.0</ele><time>2026-05-01T07:25:42.28Z</time></trkpt><trkpt lat="42.4446233" lon="14.2157533"><ele>7.6000000000000005</ele><time>2026-05-01T07:25:43.28Z</time></trkpt><trkpt lat="42.444545" lon="14.2156833"><ele>7.200000000000001</ele><time>2026-05-01T07:25:44.28Z</time></trkpt><trkpt lat="42.44446" lon="14.2156033"><ele>6.8</ele><time>2026-05-01T07:25:45.28Z</time></trkpt><trkpt lat="42.44437" lon="14.21551"><ele>6.4</ele><time>2026-05-01T07:25:46.28Z</time></trkpt><trkpt lat="42.4442817" lon="14.215425"><ele>6.0</ele><time>2026-05-01T07:25:47.28Z</time></trkpt><trkpt lat="42.44419" lon="14.2153433"><ele>6.0</ele><time>2026-05-01T07:25:48.281Z</time></trkpt><trkpt lat="42.444105" lon="14.2152567"><ele>6.0</ele><time>2026-05-01T07:25:49.28Z</time></trkpt><trkpt lat="42.4440333" lon="14.2151733"><ele>6.0</ele><time>2026-05-01T07:25:50.28Z</time></trkpt><trkpt lat="42.4439617" lon="14.2150933"><ele>6.0</ele><time>2026-05-01T07:25:51.28Z</time></trkpt><trkpt lat="42.4438783" lon="14.2150183"><ele>6.0</ele><time>2026-05-01T07:25:52.28Z</time></trkpt><trkpt lat="42.4437933" lon="14.2149417"><ele>6.199999999999999</ele><time>2026-05-01T07:25:53.28Z</time></trkpt><trkpt lat="42.4437083" lon="14.2148617"><ele>6.3999999999999995</ele><time>2026-05-01T07:25:54.28Z</time></trkpt><trkpt lat="42.4436283" lon="14.2147833"><ele>6.6</ele><time>2026-05-01T07:25:55.28Z</time></trkpt><trkpt lat="42.4435483" lon="14.214705"><ele>6.8</ele><time>2026-05-01T07:25:56.28Z</time></trkpt><trkpt lat="42.4434683" lon="14.2146317"><ele>7.0</ele><time>2026-05-01T07:25:57.28Z</time></trkpt><trkpt lat="42.4434017" lon="14.2145417"><ele>7.0</ele><time>2026-05-01T07:25:58.28Z</time></trkpt><trkpt lat="42.44334" lon="14.2144417"><ele>6.999999999999999</ele><time>2026-05-01T07:25:59.28Z</time></trkpt><trkpt lat="42.4432883" lon="14.2143483"><ele>6.999999999999999</ele><time>2026-05-01T07:26:00.28Z</time></trkpt><trkpt lat="42.4432383" lon="14.21427"><ele>7.0</ele><time>2026-05-01T07:26:01.28Z</time></trkpt><trkpt lat="42.44319" lon="14.2141667"><ele>7.0</ele><time>2026-05-01T07:26:03.28Z</time></trkpt><trkpt lat="42.4430817" lon="14.214005"><ele>7.333333333333334</ele><time>2026-05-01T07:26:24.28Z</time></trkpt><trkpt lat="42.4429967" lon="14.213905"><ele>7.666666666666667</ele><time>2026-05-01T07:26:26.28Z</time></trkpt><trkpt lat="42.4429333" lon="14.2138833"><ele>8.0</ele><time>2026-05-01T07:26:27.28Z</time></trkpt><trkpt lat="42.4428567" lon="14.2138783"><ele>8.333333333333334</ele><time>2026-05-01T07:26:28.28Z</time></trkpt><trkpt lat="42.4427617" lon="14.2138717"><ele>8.666666666666666</ele><time>2026-05-01T07:26:29.28Z</time></trkpt><trkpt lat="42.4426667" lon="14.2138667"><ele>9.0</ele><time>2026-05-01T07:26:30.28Z</time></trkpt><trkpt lat="42.4425633" lon="14.2138633"><ele>9.0</ele><time>2026-05-01T07:26:31.28Z</time></trkpt><trkpt lat="42.4424633" lon="14.21385"><ele>9.0</ele><time>2026-05-01T07:26:32.28Z</time></trkpt><trkpt lat="42.442345" lon="14.21385"><ele>9.0</ele><time>2026-05-01T07:26:33.28Z</time></trkpt><trkpt lat="42.4422367" lon="14.2138517"><ele>9.0</ele><time>2026-05-01T07:26:34.28Z</time></trkpt><trkpt lat="42.44213" lon="14.2138617"><ele>9.0</ele><time>2026-05-01T07:26:35.28Z</time></trkpt><trkpt lat="42.442015" lon="14.2138533"><ele>8.75</ele><time>2026-05-01T07:26:36.28Z</time></trkpt><trkpt lat="42.4418917" lon="14.213855"><ele>8.5</ele><time>2026-05-01T07:26:37.28Z</time></trkpt><trkpt lat="42.441775" lon="14.2138467"><ele>8.25</ele><time>2026-05-01T07:26:38.281Z</time></trkpt><trkpt lat="42.4416583" lon="14.2138367"><ele>8.0</ele><time>2026-05-01T07:26:39.28Z</time></trkpt><trkpt lat="42.44154" lon="14.2138333"><ele>8.0</ele><time>2026-05-01T07:26:40.28Z</time></trkpt><trkpt lat="42.44142" lon="14.2138283"><ele>8.0</ele><time>2026-05-01T07:26:41.28Z</time></trkpt><trkpt lat="42.4412983" lon="14.2138017"><ele>8.0</ele><time>2026-05-01T07:26:42.28Z</time></trkpt><trkpt lat="42.4411667" lon="14.2137917"><ele>8.0</ele><time>2026-05-01T07:26:43.28Z</time></trkpt><trkpt lat="42.4410367" lon="14.21377"><ele>11.0</ele><time>2026-05-01T07:26:44.28Z</time></trkpt><trkpt lat="42.4409083" lon="14.213745"><ele>14.0</ele><time>2026-05-01T07:26:45.28Z</time></trkpt><trkpt lat="42.4407883" lon="14.21372"><ele>17.0</ele><time>2026-05-01T07:26:46.28Z</time></trkpt><trkpt lat="42.4406633" lon="14.2137117"><ele>20.0</ele><time>2026-05-01T07:26:47.28Z</time></trkpt><trkpt lat="42.4405267" lon="14.21372"><ele>21.25</ele><time>2026-05-01T07:26:48.28Z</time></trkpt><trkpt lat="42.440395" lon="14.2137417"><ele>22.5</ele><time>2026-05-01T07:26:49.28Z</time></trkpt><trkpt lat="42.4402733" lon="14.21377"><ele>23.75</ele><time>2026-05-01T07:26:50.28Z</time></trkpt><trkpt lat="42.4401533" lon="14.2138583"><ele>25.0</ele><time>2026-05-01T07:26:51.28Z</time></trkpt><trkpt lat="42.4400383" lon="14.213955"><ele>24.0</ele><time>2026-05-01T07:26:52.28Z</time></trkpt><trkpt lat="42.43992" lon="14.214045"><ele>23.0</ele><time>2026-05-01T07:26:53.28Z</time></trkpt><trkpt lat="42.4398" lon="14.2141533"><ele>22.0</ele><time>2026-05-01T07:26:54.28Z</time></trkpt><trkpt lat="42.4396717" lon="14.2142517"><ele>21.0</ele><time>2026-05-01T07:26:55.28Z</time></trkpt><trkpt lat="42.4395417" lon="14.2143267"><ele>23.25</ele><time>2026-05-01T07:26:56.28Z</time></trkpt><trkpt lat="42.4394117" lon="14.214405"><ele>25.5</ele><time>2026-05-01T07:26:57.28Z</time></trkpt><trkpt lat="42.4392883" lon="14.2144833"><ele>27.75</ele><time>2026-05-01T07:26:58.28Z</time></trkpt><trkpt lat="42.4391683" lon="14.2145617"><ele>30.0</ele><time>2026-05-01T07:26:59.28Z</time></trkpt><trkpt lat="42.4390483" lon="14.2146517"><ele>30.0</ele><time>2026-05-01T07:27:00.281Z</time></trkpt><trkpt lat="42.4389283" lon="14.21475"><ele>30.0</ele><time>2026-05-01T07:27:01.281Z</time></trkpt><trkpt lat="42.438815" lon="14.2148517"><ele>30.0</ele><time>2026-05-01T07:27:02.28Z</time></trkpt><trkpt lat="42.438685" lon="14.2149233"><ele>30.0</ele><time>2026-05-01T07:27:03.28Z</time></trkpt><trkpt lat="42.4385617" lon="14.2149767"><ele>33.25</ele><time>2026-05-01T07:27:04.28Z</time></trkpt><trkpt lat="42.4384333" lon="14.2150233"><ele>36.5</ele><time>2026-05-01T07:27:05.28Z</time></trkpt><trkpt lat="42.438305" lon="14.215055"><ele>39.75</ele><time>2026-05-01T07:27:06.28Z</time></trkpt><trkpt lat="42.4381717" lon="14.2150767"><ele>43.0</ele><time>2026-05-01T07:27:07.28Z</time></trkpt><trkpt lat="42.4380383" lon="14.2150733"><ele>43.5</ele><time>2026-05-01T07:27:08.28Z</time></trkpt><trkpt lat="42.4379" lon="14.2150567"><ele>44.0</ele><time>2026-05-01T07:27:09.28Z</time></trkpt><trkpt lat="42.4377667" lon="14.2150433"><ele>44.5</ele><time>2026-05-01T07:27:10.28Z</time></trkpt><trkpt lat="42.4376383" lon="14.2150167"><ele>45.0</ele><time>2026-05-01T07:27:11.28Z</time></trkpt><trkpt lat="42.4375117" lon="14.2150183"><ele>45.0</ele><time>2026-05-01T07:27:12.28Z</time></trkpt><trkpt lat="42.437405" lon="14.21502"><ele>45.0</ele><time>2026-05-01T07:27:13.28Z</time></trkpt><trkpt lat="42.4373033" lon="14.2150467"><ele>45.0</ele><time>2026-05-01T07:27:14.281Z</time></trkpt><trkpt lat="42.437195" lon="14.2150867"><ele>45.0</ele><time>2026-05-01T07:27:15.28Z</time></trkpt><trkpt lat="42.43709" lon="14.2151617"><ele>45.0</ele><time>2026-05-01T07:27:16.28Z</time></trkpt><trkpt lat="42.4369917" lon="14.2152483"><ele>44.25</ele><time>2026-05-01T07:27:17.28Z</time></trkpt><trkpt lat="42.436895" lon="14.2153683"><ele>43.5</ele><time>2026-05-01T07:27:18.28Z</time></trkpt><trkpt lat="42.43679" lon="14.2155083"><ele>42.75</ele><time>2026-05-01T07:27:19.28Z</time></trkpt><trkpt lat="42.436695" lon="14.2156617"><ele>42.0</ele><time>2026-05-01T07:27:20.28Z</time></trkpt><trkpt lat="42.436605" lon="14.2158067"><ele>44.5</ele><time>2026-05-01T07:27:21.28Z</time></trkpt><trkpt lat="42.43652" lon="14.2159433"><ele>47.0</ele><time>2026-05-01T07:27:22.28Z</time></trkpt><trkpt lat="42.43644" lon="14.2160683"><ele>49.5</ele><time>2026-05-01T07:27:23.28Z</time></trkpt><trkpt lat="42.436365" lon="14.21618"><ele>52.0</ele><time>2026-05-01T07:27:24.28Z</time></trkpt><trkpt lat="42.4363" lon="14.2162767"><ele>52.33333333333333</ele><time>2026-05-01T07:27:25.28Z</time></trkpt><trkpt lat="42.436235" lon="14.21636"><ele>52.666666666666664</ele><time>2026-05-01T07:27:26.28Z</time></trkpt><trkpt lat="42.4361667" lon="14.2164467"><ele>53.0</ele><time>2026-05-01T07:27:27.28Z</time></trkpt><trkpt lat="42.4360933" lon="14.2165317"><ele>53.33333333333333</ele><time>2026-05-01T07:27:28.28Z</time></trkpt><trkpt lat="42.4360217" lon="14.216605"><ele>53.666666666666664</ele><time>2026-05-01T07:27:29.28Z</time></trkpt><trkpt lat="42.4359567" lon="14.216665"><ele>54.0</ele><time>2026-05-01T07:27:30.28Z</time></trkpt><trkpt lat="42.435865" lon="14.216745"><ele>54.0</ele><time>2026-05-01T07:27:32.28Z</time></trkpt><trkpt lat="42.4358533" lon="14.2168633"><ele>54.00000000000001</ele><time>2026-05-01T07:27:35.281Z</time></trkpt><trkpt lat="42.4359567" lon="14.216935"><ele>54.00000000000001</ele><time>2026-05-01T07:27:37.28Z</time></trkpt><trkpt lat="42.4360417" lon="14.2169833"><ele>54.0</ele><time>2026-05-01T07:27:38.28Z</time></trkpt><trkpt lat="42.4361333" lon="14.2170533"><ele>54.0</ele><time>2026-05-01T07:27:39.28Z</time></trkpt><trkpt lat="42.436235" lon="14.21713"><ele>55.25</ele><time>2026-05-01T07:27:40.281Z</time></trkpt><trkpt lat="42.4363433" lon="14.2172283"><ele>56.5</ele><time>2026-05-01T07:27:41.28Z</time></trkpt><trkpt lat="42.4364367" lon="14.217335"><ele>57.75</ele><time>2026-05-01T07:27:42.281Z</time></trkpt><trkpt lat="42.436525" lon="14.2174467"><ele>59.0</ele><time>2026-05-01T07:27:43.28Z</time></trkpt><trkpt lat="42.4366133" lon="14.217565"><ele>59.0</ele><time>2026-05-01T07:27:44.28Z</time></trkpt><trkpt lat="42.4366983" lon="14.217665"><ele>59.0</ele><time>2026-05-01T07:27:45.28Z</time></trkpt><trkpt lat="42.436785" lon="14.2177633"><ele>59.0</ele><time>2026-05-01T07:27:46.28Z</time></trkpt><trkpt lat="42.4368767" lon="14.21785"><ele>59.0</ele><time>2026-05-01T07:27:47.281Z</time></trkpt><trkpt lat="42.4369683" lon="14.217945"><ele>59.0</ele><time>2026-05-01T07:27:48.28Z</time></trkpt><trkpt lat="42.43706" lon="14.218045"><ele>59.0</ele><time>2026-05-01T07:27:49.28Z</time></trkpt><trkpt lat="42.437155" lon="14.218135"><ele>59.0</ele><time>2026-05-01T07:27:50.281Z</time></trkpt><trkpt lat="42.4372467" lon="14.2182367"><ele>59.0</ele><time>2026-05-01T07:27:51.28Z</time></trkpt><trkpt lat="42.437335" lon="14.2183433"><ele>59.5</ele><time>2026-05-01T07:27:52.28Z</time></trkpt><trkpt lat="42.4374267" lon="14.21846"><ele>60.0</ele><time>2026-05-01T07:27:53.281Z</time></trkpt><trkpt lat="42.4375267" lon="14.2185717"><ele>60.5</ele><time>2026-05-01T07:27:54.28Z</time></trkpt><trkpt lat="42.4376183" lon="14.21869"><ele>61.0</ele><time>2026-05-01T07:27:55.28Z</time></trkpt><trkpt lat="42.43771" lon="14.2188"><ele>61.0</ele><time>2026-05-01T07:27:56.28Z</time></trkpt><trkpt lat="42.4378" lon="14.2189083"><ele>61.0</ele><time>2026-05-01T07:27:57.28Z</time></trkpt><trkpt lat="42.4379017" lon="14.2190217"><ele>61.0</ele><time>2026-05-01T07:27:58.28Z</time></trkpt><trkpt lat="42.438005" lon="14.2191317"><ele>61.0</ele><time>2026-05-01T07:27:59.28Z</time></trkpt><trkpt lat="42.4381067" lon="14.2192317"><ele>59.75</ele><time>2026-05-01T07:28:00.28Z</time></trkpt><trkpt lat="42.4382033" lon="14.2193233"><ele>58.5</ele><time>2026-05-01T07:28:01.28Z</time></trkpt><trkpt lat="42.4383017" lon="14.2194183"><ele>57.25</ele><time>2026-05-01T07:28:02.281Z</time></trkpt><trkpt lat="42.4384" lon="14.219515"><ele>56.0</ele><time>2026-05-01T07:28:03.28Z</time></trkpt><trkpt lat="42.4384983" lon="14.21959"><ele>56.0</ele><time>2026-05-01T07:28:04.281Z</time></trkpt><trkpt lat="42.4385867" lon="14.21968"><ele>56.0</ele><time>2026-05-01T07:28:05.28Z</time></trkpt><trkpt lat="42.438675" lon="14.2197833"><ele>56.0</ele><time>2026-05-01T07:28:06.28Z</time></trkpt><trkpt lat="42.4387567" lon="14.2199217"><ele>56.0</ele><time>2026-05-01T07:28:07.28Z</time></trkpt><trkpt lat="42.43883" lon="14.2200517"><ele>56.0</ele><time>2026-05-01T07:28:08.281Z</time></trkpt><trkpt lat="42.43889" lon="14.2201817"><ele>55.99999999999999</ele><time>2026-05-01T07:28:09.28Z</time></trkpt><trkpt lat="42.4389467" lon="14.220315"><ele>55.99999999999999</ele><time>2026-05-01T07:28:10.28Z</time></trkpt><trkpt lat="42.438995" lon="14.2204367"><ele>56.0</ele><time>2026-05-01T07:28:11.28Z</time></trkpt><trkpt lat="42.439035" lon="14.220555"><ele>56.0</ele><time>2026-05-01T07:28:12.28Z</time></trkpt><trkpt lat="42.4390717" lon="14.220685"><ele>56.0</ele><time>2026-05-01T07:28:13.28Z</time></trkpt><trkpt lat="42.4390967" lon="14.2208233"><ele>55.99999999999999</ele><time>2026-05-01T07:28:14.281Z</time></trkpt><trkpt lat="42.4391" lon="14.2209617"><ele>55.99999999999999</ele><time>2026-05-01T07:28:15.28Z</time></trkpt><trkpt lat="42.4390883" lon="14.2211033"><ele>56.0</ele><time>2026-05-01T07:28:16.28Z</time></trkpt><trkpt lat="42.4390667" lon="14.221255"><ele>56.0</ele><time>2026-05-01T07:28:17.28Z</time></trkpt><trkpt lat="42.43904" lon="14.22141"><ele>55.4</ele><time>2026-05-01T07:28:18.28Z</time></trkpt><trkpt lat="42.4390117" lon="14.2215617"><ele>54.8</ele><time>2026-05-01T07:28:19.28Z</time></trkpt><trkpt lat="42.43899" lon="14.221715"><ele>54.199999999999996</ele><time>2026-05-01T07:28:20.28Z</time></trkpt><trkpt lat="42.4389817" lon="14.2218633"><ele>53.599999999999994</ele><time>2026-05-01T07:28:21.28Z</time></trkpt><trkpt lat="42.438985" lon="14.2220033"><ele>53.0</ele><time>2026-05-01T07:28:22.28Z</time></trkpt><trkpt lat="42.438995" lon="14.2221233"><ele>53.00000000000001</ele><time>2026-05-01T07:28:23.281Z</time></trkpt><trkpt lat="42.4390067" lon="14.2222217"><ele>53.0</ele><time>2026-05-01T07:28:24.28Z</time></trkpt><trkpt lat="42.4390217" lon="14.2223083"><ele>53.0</ele><time>2026-05-01T07:28:25.281Z</time></trkpt><trkpt lat="42.439015" lon="14.2224583"><ele>53.0</ele><time>2026-05-01T07:28:27.28Z</time></trkpt><trkpt lat="42.43898" lon="14.222535"><ele>53.00000000000001</ele><time>2026-05-01T07:28:28.28Z</time></trkpt><trkpt lat="42.438915" lon="14.222605"><ele>53.0</ele><time>2026-05-01T07:28:29.28Z</time></trkpt><trkpt lat="42.4388383" lon="14.2226617"><ele>49.8</ele><time>2026-05-01T07:28:30.28Z</time></trkpt><trkpt lat="42.4387517" lon="14.222705"><ele>46.599999999999994</ele><time>2026-05-01T07:28:31.28Z</time></trkpt><trkpt lat="42.4386683" lon="14.222725"><ele>43.400000000000006</ele><time>2026-05-01T07:28:32.28Z</time></trkpt><trkpt lat="42.4385767" lon="14.2227"><ele>40.2</ele><time>2026-05-01T07:28:33.28Z</time></trkpt><trkpt lat="42.4384867" lon="14.2226417"><ele>37.0</ele><time>2026-05-01T07:28:34.28Z</time></trkpt><trkpt lat="42.4384117" lon="14.222545"><ele>37.0</ele><time>2026-05-01T07:28:35.28Z</time></trkpt><trkpt lat="42.4383483" lon="14.2224133"><ele>37.0</ele><time>2026-05-01T07:28:36.28Z</time></trkpt><trkpt lat="42.4382933" lon="14.2222567"><ele>37.0</ele><time>2026-05-01T07:28:37.281Z</time></trkpt><trkpt lat="42.43825" lon="14.222095"><ele>37.0</ele><time>2026-05-01T07:28:38.28Z</time></trkpt><trkpt lat="42.438215" lon="14.2219383"><ele>37.66666666666667</ele><time>2026-05-01T07:28:39.28Z</time></trkpt><trkpt lat="42.438185" lon="14.2218"><ele>38.333333333333336</ele><time>2026-05-01T07:28:40.281Z</time></trkpt><trkpt lat="42.43815" lon="14.2217033"><ele>39.0</ele><time>2026-05-01T07:28:41.28Z</time></trkpt><trkpt lat="42.4381017" lon="14.2216283"><ele>39.666666666666664</ele><time>2026-05-01T07:28:42.28Z</time></trkpt><trkpt lat="42.43804" lon="14.2215817"><ele>40.33333333333333</ele><time>2026-05-01T07:28:43.28Z</time></trkpt><trkpt lat="42.437975" lon="14.22156"><ele>41.0</ele><time>2026-05-01T07:28:44.28Z</time></trkpt><trkpt lat="42.4378517" lon="14.2215667"><ele>41.166666666666664</ele><time>2026-05-01T07:28:46.28Z</time></trkpt><trkpt lat="42.43779" lon="14.2215967"><ele>41.33333333333333</ele><time>2026-05-01T07:28:47.28Z</time></trkpt><trkpt lat="42.437755" lon="14.2216783"><ele>41.5</ele><time>2026-05-01T07:28:48.28Z</time></trkpt><trkpt lat="42.4377467" lon="14.22178"><ele>41.666666666666664</ele><time>2026-05-01T07:28:49.28Z</time></trkpt><trkpt lat="42.4377717" lon="14.2219167"><ele>41.833333333333336</ele><time>2026-05-01T07:28:50.28Z</time></trkpt><trkpt lat="42.4378133" lon="14.22207"><ele>42.0</ele><time>2026-05-01T07:28:51.281Z</time></trkpt><trkpt lat="42.4378733" lon="14.2222167"><ele>41.75</ele><time>2026-05-01T07:28:52.28Z</time></trkpt><trkpt lat="42.43793" lon="14.222385"><ele>41.5</ele><time>2026-05-01T07:28:53.28Z</time></trkpt><trkpt lat="42.437975" lon="14.2225617"><ele>41.25</ele><time>2026-05-01T07:28:54.28Z</time></trkpt><trkpt lat="42.4380017" lon="14.22279"><ele>41.0</ele><time>2026-05-01T07:28:55.28Z</time></trkpt><trkpt lat="42.4380217" lon="14.2230183"><ele>38.666666666666664</ele><time>2026-05-01T07:28:56.28Z</time></trkpt><trkpt lat="42.4380417" lon="14.2232433"><ele>36.333333333333336</ele><time>2026-05-01T07:28:57.281Z</time></trkpt><trkpt lat="42.4380667" lon="14.2234733"><ele>34.0</ele><time>2026-05-01T07:28:58.281Z</time></trkpt><trkpt lat="42.43809" lon="14.223695"><ele>34.0</ele><time>2026-05-01T07:28:59.28Z</time></trkpt><trkpt lat="42.4381083" lon="14.22389"><ele>34.0</ele><time>2026-05-01T07:29:00.28Z</time></trkpt><trkpt lat="42.4381283" lon="14.22408"><ele>34.0</ele><time>2026-05-01T07:29:01.28Z</time></trkpt><trkpt lat="42.4381417" lon="14.2242767"><ele>34.0</ele><time>2026-05-01T07:29:02.28Z</time></trkpt><trkpt lat="42.4381517" lon="14.224465"><ele>32.75</ele><time>2026-05-01T07:29:03.28Z</time></trkpt><trkpt lat="42.43817" lon="14.22464"><ele>31.5</ele><time>2026-05-01T07:29:04.28Z</time></trkpt><trkpt lat="42.43819" lon="14.2248117"><ele>30.25</ele><time>2026-05-01T07:29:05.28Z</time></trkpt><trkpt lat="42.4382062" lon="14.2249849"><ele>29.0</ele><time>2026-05-01T07:29:06.28Z</time></trkpt><trkpt lat="42.4382191" lon="14.2251483"><ele>29.0</ele><time>2026-05-01T07:29:07.28Z</time></trkpt><trkpt lat="42.4382268" lon="14.2253065"><ele>29.0</ele><time>2026-05-01T07:29:08.28Z</time></trkpt><trkpt lat="42.4382188" lon="14.2254488"><ele>29.0</ele><time>2026-05-01T07:29:09.28Z</time></trkpt><trkpt lat="42.438199" lon="14.2255779"><ele>29.0</ele><time>2026-05-01T07:29:10.28Z</time></trkpt><trkpt lat="42.4381629" lon="14.2257013"><ele>29.0</ele><time>2026-05-01T07:29:11.28Z</time></trkpt><trkpt lat="42.438102" lon="14.2258332"><ele>29.0</ele><time>2026-05-01T07:29:12.28Z</time></trkpt><trkpt lat="42.4380273" lon="14.2259624"><ele>29.0</ele><time>2026-05-01T07:29:13.28Z</time></trkpt><trkpt lat="42.4379464" lon="14.226061"><ele>29.0</ele><time>2026-05-01T07:29:14.28Z</time></trkpt><trkpt lat="42.4378553" lon="14.2261306"><ele>29.0</ele><time>2026-05-01T07:29:15.28Z</time></trkpt><trkpt lat="42.4377575" lon="14.2261616"><ele>29.0</ele><time>2026-05-01T07:29:16.28Z</time></trkpt><trkpt lat="42.4376669" lon="14.2261337"><ele>30.4</ele><time>2026-05-01T07:29:17.28Z</time></trkpt><trkpt lat="42.4375774" lon="14.2260688"><ele>31.799999999999997</ele><time>2026-05-01T07:29:18.28Z</time></trkpt><trkpt lat="42.4374898" lon="14.2259846"><ele>33.2</ele><time>2026-05-01T07:29:19.28Z</time></trkpt><trkpt lat="42.4374044" lon="14.2258924"><ele>34.6</ele><time>2026-05-01T07:29:20.28Z</time></trkpt><trkpt lat="42.4373246" lon="14.2258026"><ele>36.0</ele><time>2026-05-01T07:29:21.28Z</time></trkpt><trkpt lat="42.437228" lon="14.2256992"><ele>36.8</ele><time>2026-05-01T07:29:22.28Z</time></trkpt><trkpt lat="42.4371323" lon="14.2255993"><ele>37.6</ele><time>2026-05-01T07:29:23.28Z</time></trkpt><trkpt lat="42.4370382" lon="14.2255098"><ele>38.4</ele><time>2026-05-01T07:29:24.28Z</time></trkpt><trkpt lat="42.4369496" lon="14.2254432"><ele>39.2</ele><time>2026-05-01T07:29:25.28Z</time></trkpt><trkpt lat="42.4368486" lon="14.2253982"><ele>40.0</ele><time>2026-05-01T07:29:26.28Z</time></trkpt><trkpt lat="42.4367339" lon="14.2253704"><ele>40.0</ele><time>2026-05-01T07:29:27.28Z</time></trkpt><trkpt lat="42.4366131" lon="14.225348"><ele>40.0</ele><time>2026-05-01T07:29:28.28Z</time></trkpt><trkpt lat="42.4364916" lon="14.2253247"><ele>40.0</ele><time>2026-05-01T07:29:29.28Z</time></trkpt><trkpt lat="42.436373" lon="14.2253025"><ele>40.0</ele><time>2026-05-01T07:29:30.28Z</time></trkpt><trkpt lat="42.4362534" lon="14.2252781"><ele>42.0</ele><time>2026-05-01T07:29:31.28Z</time></trkpt><trkpt lat="42.4361319" lon="14.2252552"><ele>44.0</ele><time>2026-05-01T07:29:32.28Z</time></trkpt><trkpt lat="42.4360069" lon="14.2252319"><ele>46.0</ele><time>2026-05-01T07:29:33.281Z</time></trkpt><trkpt lat="42.4358765" lon="14.2252102"><ele>48.0</ele><time>2026-05-01T07:29:34.28Z</time></trkpt><trkpt lat="42.4357483" lon="14.225194"><ele>48.0</ele><time>2026-05-01T07:29:35.28Z</time></trkpt><trkpt lat="42.4356279" lon="14.2251854"><ele>48.0</ele><time>2026-05-01T07:29:36.28Z</time></trkpt><trkpt lat="42.4355253" lon="14.2251914"><ele>48.0</ele><time>2026-05-01T07:29:37.28Z</time></trkpt><trkpt lat="42.4354383" lon="14.2252168"><ele>48.0</ele><time>2026-05-01T07:29:38.28Z</time></trkpt><trkpt lat="42.4353567" lon="14.2252883"><ele>48.0</ele><time>2026-05-01T07:29:39.28Z</time></trkpt><trkpt lat="42.4352833" lon="14.2253967"><ele>48.0</ele><time>2026-05-01T07:29:40.28Z</time></trkpt><trkpt lat="42.4352167" lon="14.225515"><ele>48.0</ele><time>2026-05-01T07:29:41.28Z</time></trkpt><trkpt lat="42.4351517" lon="14.2256317"><ele>48.0</ele><time>2026-05-01T07:29:42.28Z</time></trkpt><trkpt lat="42.4350967" lon="14.2257467"><ele>48.0</ele><time>2026-05-01T07:29:43.28Z</time></trkpt><trkpt lat="42.435065" lon="14.2258517"><ele>48.0</ele><time>2026-05-01T07:29:44.281Z</time></trkpt><trkpt lat="42.43505" lon="14.2259633"><ele>50.833333333333336</ele><time>2026-05-01T07:29:45.28Z</time></trkpt><trkpt lat="42.4350383" lon="14.2260667"><ele>53.66666666666667</ele><time>2026-05-01T07:29:46.28Z</time></trkpt><trkpt lat="42.435055" lon="14.226175"><ele>56.5</ele><time>2026-05-01T07:29:47.28Z</time></trkpt><trkpt lat="42.4350917" lon="14.2262817"><ele>59.333333333333336</ele><time>2026-05-01T07:29:48.28Z</time></trkpt><trkpt lat="42.4351533" lon="14.2263683"><ele>62.16666666666667</ele><time>2026-05-01T07:29:49.281Z</time></trkpt><trkpt lat="42.4352283" lon="14.2264283"><ele>65.0</ele><time>2026-05-01T07:29:50.28Z</time></trkpt><trkpt lat="42.4353233" lon="14.2264567"><ele>66.4</ele><time>2026-05-01T07:29:51.28Z</time></trkpt><trkpt lat="42.4354183" lon="14.2264967"><ele>67.8</ele><time>2026-05-01T07:29:52.28Z</time></trkpt><trkpt lat="42.43551" lon="14.2265333"><ele>69.2</ele><time>2026-05-01T07:29:53.28Z</time></trkpt><trkpt lat="42.4355817" lon="14.2265667"><ele>70.6</ele><time>2026-05-01T07:29:54.28Z</time></trkpt><trkpt lat="42.4356467" lon="14.226715"><ele>72.0</ele><time>2026-05-01T07:29:56.28Z</time></trkpt><trkpt lat="42.435645" lon="14.2268033"><ele>72.0</ele><time>2026-05-01T07:29:57.28Z</time></trkpt><trkpt lat="42.4356117" lon="14.2269083"><ele>72.0</ele><time>2026-05-01T07:29:58.28Z</time></trkpt><trkpt lat="42.4355467" lon="14.2270233"><ele>72.0</ele><time>2026-05-01T07:29:59.28Z</time></trkpt><trkpt lat="42.435465" lon="14.2271767"><ele>72.0</ele><time>2026-05-01T07:30:00.28Z</time></trkpt><trkpt lat="42.435375" lon="14.227355"><ele>74.25</ele><time>2026-05-01T07:30:01.28Z</time></trkpt><trkpt lat="42.4352917" lon="14.2275367"><ele>76.5</ele><time>2026-05-01T07:30:02.28Z</time></trkpt><trkpt lat="42.4352167" lon="14.22771"><ele>78.75</ele><time>2026-05-01T07:30:03.28Z</time></trkpt><trkpt lat="42.43516" lon="14.2278883"><ele>81.0</ele><time>2026-05-01T07:30:04.28Z</time></trkpt><trkpt lat="42.43512" lon="14.228075"><ele>82.5</ele><time>2026-05-01T07:30:05.28Z</time></trkpt><trkpt lat="42.435085" lon="14.2282633"><ele>84.0</ele><time>2026-05-01T07:30:06.28Z</time></trkpt><trkpt lat="42.4350567" lon="14.2284517"><ele>85.5</ele><time>2026-05-01T07:30:07.28Z</time></trkpt><trkpt lat="42.4350367" lon="14.2286383"><ele>87.0</ele><time>2026-05-01T07:30:08.28Z</time></trkpt><trkpt lat="42.4350183" lon="14.2288267"><ele>88.25</ele><time>2026-05-01T07:30:09.28Z</time></trkpt><trkpt lat="42.435" lon="14.229005"><ele>89.5</ele><time>2026-05-01T07:30:10.28Z</time></trkpt><trkpt lat="42.434985" lon="14.2291917"><ele>90.75</ele><time>2026-05-01T07:30:11.28Z</time></trkpt><trkpt lat="42.434965" lon="14.2293733"><ele>92.0</ele><time>2026-05-01T07:30:12.281Z</time></trkpt><trkpt lat="42.4349417" lon="14.2295517"><ele>92.0</ele><time>2026-05-01T07:30:13.28Z</time></trkpt><trkpt lat="42.4349233" lon="14.2297317"><ele>92.0</ele><time>2026-05-01T07:30:14.28Z</time></trkpt><trkpt lat="42.434915" lon="14.22991"><ele>92.0</ele><time>2026-05-01T07:30:15.28Z</time></trkpt><trkpt lat="42.4349367" lon="14.230075"><ele>92.0</ele><time>2026-05-01T07:30:16.28Z</time></trkpt><trkpt lat="42.434985" lon="14.2302417"><ele>94.5</ele><time>2026-05-01T07:30:17.28Z</time></trkpt><trkpt lat="42.4350483" lon="14.2304117"><ele>97.0</ele><time>2026-05-01T07:30:18.28Z</time></trkpt><trkpt lat="42.43512" lon="14.2305933"><ele>99.5</ele><time>2026-05-01T07:30:19.28Z</time></trkpt><trkpt lat="42.43519" lon="14.2307817"><ele>102.0</ele><time>2026-05-01T07:30:20.28Z</time></trkpt><trkpt lat="42.4352517" lon="14.2309667"><ele>107.25</ele><time>2026-05-01T07:30:21.28Z</time></trkpt><trkpt lat="42.4353117" lon="14.2311367"><ele>112.5</ele><time>2026-05-01T07:30:22.28Z</time></trkpt><trkpt lat="42.4353733" lon="14.2313"><ele>117.75</ele><time>2026-05-01T07:30:23.28Z</time></trkpt><trkpt lat="42.435435" lon="14.2314417"><ele>123.0</ele><time>2026-05-01T07:30:24.28Z</time></trkpt><trkpt lat="42.4355083" lon="14.2315533"><ele>123.0</ele><time>2026-05-01T07:30:25.28Z</time></trkpt><trkpt lat="42.435595" lon="14.2316417"><ele>123.00000000000001</ele><time>2026-05-01T07:30:26.28Z</time></trkpt><trkpt lat="42.4356917" lon="14.2316883"><ele>123.00000000000001</ele><time>2026-05-01T07:30:27.28Z</time></trkpt><trkpt lat="42.4357833" lon="14.2317133"><ele>123.0</ele><time>2026-05-01T07:30:28.28Z</time></trkpt><trkpt lat="42.4358783" lon="14.2317083"><ele>123.0</ele><time>2026-05-01T07:30:29.28Z</time></trkpt><trkpt lat="42.4359517" lon="14.2316917"><ele>123.0</ele><time>2026-05-01T07:30:30.28Z</time></trkpt><trkpt lat="42.4360267" lon="14.231685"><ele>123.0</ele><time>2026-05-01T07:30:31.28Z</time></trkpt><trkpt lat="42.4361233" lon="14.2317517"><ele>123.0</ele><time>2026-05-01T07:30:33.28Z</time></trkpt><trkpt lat="42.4361167" lon="14.2318683"><ele>123.0</ele><time>2026-05-01T07:30:35.28Z</time></trkpt><trkpt lat="42.4360617" lon="14.23193"><ele>123.0</ele><time>2026-05-01T07:30:36.28Z</time></trkpt><trkpt lat="42.435985" lon="14.23198"><ele>123.0</ele><time>2026-05-01T07:30:37.28Z</time></trkpt><trkpt lat="42.4358883" lon="14.232025"><ele>123.0</ele><time>2026-05-01T07:30:38.28Z</time></trkpt><trkpt lat="42.4357783" lon="14.23206"><ele>123.0</ele><time>2026-05-01T07:30:39.28Z</time></trkpt><trkpt lat="42.4356567" lon="14.23209"><ele>123.0</ele><time>2026-05-01T07:30:40.28Z</time></trkpt><trkpt lat="42.4355217" lon="14.2321033"><ele>123.0</ele><time>2026-05-01T07:30:41.28Z</time></trkpt><trkpt lat="42.4353717" lon="14.2320917"><ele>129.33333333333334</ele><time>2026-05-01T07:30:42.28Z</time></trkpt><trkpt lat="42.4352083" lon="14.2320817"><ele>135.66666666666669</ele><time>2026-05-01T07:30:43.281Z</time></trkpt><trkpt lat="42.4350433" lon="14.232075"><ele>142.0</ele><time>2026-05-01T07:30:44.281Z</time></trkpt><trkpt lat="42.4348817" lon="14.232075"><ele>142.0</ele><time>2026-05-01T07:30:45.28Z</time></trkpt><trkpt lat="42.434725" lon="14.23208"><ele>142.0</ele><time>2026-05-01T07:30:46.28Z</time></trkpt><trkpt lat="42.4345717" lon="14.2320933"><ele>142.0</ele><time>2026-05-01T07:30:47.28Z</time></trkpt><trkpt lat="42.4344367" lon="14.2321383"><ele>142.0</ele><time>2026-05-01T07:30:48.28Z</time></trkpt><trkpt lat="42.4343117" lon="14.232195"><ele>142.25</ele><time>2026-05-01T07:30:49.281Z</time></trkpt><trkpt lat="42.4341967" lon="14.2322817"><ele>142.5</ele><time>2026-05-01T07:30:50.28Z</time></trkpt><trkpt lat="42.4340867" lon="14.2323833"><ele>142.75</ele><time>2026-05-01T07:30:51.28Z</time></trkpt><trkpt lat="42.4339717" lon="14.2324933"><ele>143.0</ele><time>2026-05-01T07:30:52.28Z</time></trkpt><trkpt lat="42.4338567" lon="14.2326167"><ele>146.0</ele><time>2026-05-01T07:30:53.28Z</time></trkpt><trkpt lat="42.43374" lon="14.2327683"><ele>149.0</ele><time>2026-05-01T07:30:54.28Z</time></trkpt><trkpt lat="42.43365" lon="14.2328917"><ele>152.0</ele><time>2026-05-01T07:30:55.28Z</time></trkpt><trkpt lat="42.4335967" lon="14.2330283"><ele>155.0</ele><time>2026-05-01T07:30:56.28Z</time></trkpt><trkpt lat="42.4335633" lon="14.233175"><ele>155.0</ele><time>2026-05-01T07:30:57.28Z</time></trkpt><trkpt lat="42.4335517" lon="14.233335"><ele>155.0</ele><time>2026-05-01T07:30:58.28Z</time></trkpt><trkpt lat="42.43355" lon="14.23351"><ele>155.0</ele><time>2026-05-01T07:30:59.28Z</time></trkpt><trkpt lat="42.4335433" lon="14.2336833"><ele>155.0</ele><time>2026-05-01T07:31:00.28Z</time></trkpt><trkpt lat="42.43353" lon="14.2338633"><ele>154.75</ele><time>2026-05-01T07:31:01.28Z</time></trkpt><trkpt lat="42.433505" lon="14.234025"><ele>154.5</ele><time>2026-05-01T07:31:02.28Z</time></trkpt><trkpt lat="42.4334667" lon="14.2341817"><ele>154.25</ele><time>2026-05-01T07:31:03.28Z</time></trkpt><trkpt lat="42.433425" lon="14.2343533"><ele>154.0</ele><time>2026-05-01T07:31:04.28Z</time></trkpt><trkpt lat="42.4333817" lon="14.2345133"><ele>154.0</ele><time>2026-05-01T07:31:05.28Z</time></trkpt><trkpt lat="42.4333417" lon="14.234675"><ele>154.0</ele><time>2026-05-01T07:31:06.28Z</time></trkpt><trkpt lat="42.43331" lon="14.2348333"><ele>154.0</ele><time>2026-05-01T07:31:07.28Z</time></trkpt><trkpt lat="42.4332733" lon="14.2349717"><ele>154.0</ele><time>2026-05-01T07:31:08.28Z</time></trkpt><trkpt lat="42.4332517" lon="14.2351167"><ele>153.4</ele><time>2026-05-01T07:31:09.28Z</time></trkpt><trkpt lat="42.43324" lon="14.235265"><ele>152.8</ele><time>2026-05-01T07:31:10.28Z</time></trkpt><trkpt lat="42.4332333" lon="14.2354083"><ele>152.2</ele><time>2026-05-01T07:31:11.28Z</time></trkpt><trkpt lat="42.43324" lon="14.2355467"><ele>151.6</ele><time>2026-05-01T07:31:12.28Z</time></trkpt><trkpt lat="42.4332417" lon="14.2356817"><ele>151.0</ele><time>2026-05-01T07:31:13.28Z</time></trkpt><trkpt lat="42.4332433" lon="14.2358017"><ele>150.5</ele><time>2026-05-01T07:31:14.28Z</time></trkpt><trkpt lat="42.433245" lon="14.2359167"><ele>150.0</ele><time>2026-05-01T07:31:15.28Z</time></trkpt><trkpt lat="42.43325" lon="14.2360217"><ele>149.5</ele><time>2026-05-01T07:31:16.28Z</time></trkpt><trkpt lat="42.4332533" lon="14.2361183"><ele>149.0</ele><time>2026-05-01T07:31:17.28Z</time></trkpt><trkpt lat="42.4332517" lon="14.2362117"><ele>148.5</ele><time>2026-05-01T07:31:18.28Z</time></trkpt><trkpt lat="42.4332167" lon="14.23633"><ele>148.0</ele><time>2026-05-01T07:31:20.281Z</time></trkpt><trkpt lat="42.4331333" lon="14.236375"><ele>148.0</ele><time>2026-05-01T07:31:22.28Z</time></trkpt><trkpt lat="42.4330567" lon="14.23638"><ele>148.0</ele><time>2026-05-01T07:31:23.28Z</time></trkpt><trkpt lat="42.432965" lon="14.2363733"><ele>148.0</ele><time>2026-05-01T07:31:24.28Z</time></trkpt><trkpt lat="42.4328533" lon="14.2363583"><ele>148.0</ele><time>2026-05-01T07:31:25.28Z</time></trkpt><trkpt lat="42.432725" lon="14.23636"><ele>148.0</ele><time>2026-05-01T07:31:26.28Z</time></trkpt><trkpt lat="42.4325917" lon="14.2363567"><ele>148.0</ele><time>2026-05-01T07:31:27.281Z</time></trkpt><trkpt lat="42.43245" lon="14.2363433"><ele>148.0</ele><time>2026-05-01T07:31:28.28Z</time></trkpt><trkpt lat="42.43232" lon="14.23634"><ele>148.0</ele><time>2026-05-01T07:31:29.28Z</time></trkpt><trkpt lat="42.4322033" lon="14.23633"><ele>148.0</ele><time>2026-05-01T07:31:30.28Z</time></trkpt><trkpt lat="42.4320867" lon="14.2363217"><ele>148.5</ele><time>2026-05-01T07:31:31.281Z</time></trkpt><trkpt lat="42.4319633" lon="14.2363233"><ele>149.0</ele><time>2026-05-01T07:31:32.28Z</time></trkpt><trkpt lat="42.43183" lon="14.2363133"><ele>149.5</ele><time>2026-05-01T07:31:33.281Z</time></trkpt><trkpt lat="42.431695" lon="14.2363067"><ele>150.0</ele><time>2026-05-01T07:31:34.28Z</time></trkpt><trkpt lat="42.4315617" lon="14.2363083"><ele>150.0</ele><time>2026-05-01T07:31:35.28Z</time></trkpt><trkpt lat="42.4314283" lon="14.236285"><ele>150.0</ele><time>2026-05-01T07:31:36.28Z</time></trkpt><trkpt lat="42.43129" lon="14.2362833"><ele>150.0</ele><time>2026-05-01T07:31:37.28Z</time></trkpt><trkpt lat="42.4311467" lon="14.2362683"><ele>150.0</ele><time>2026-05-01T07:31:38.28Z</time></trkpt><trkpt lat="42.4310217" lon="14.2362667"><ele>150.25</ele><time>2026-05-01T07:31:39.28Z</time></trkpt><trkpt lat="42.430895" lon="14.2362567"><ele>150.5</ele><time>2026-05-01T07:31:40.28Z</time></trkpt><trkpt lat="42.4307667" lon="14.2362483"><ele>150.75</ele><time>2026-05-01T07:31:41.28Z</time></trkpt><trkpt lat="42.4306383" lon="14.23625"><ele>151.0</ele><time>2026-05-01T07:31:42.28Z</time></trkpt><trkpt lat="42.4305183" lon="14.2362433"><ele>151.25</ele><time>2026-05-01T07:31:43.28Z</time></trkpt><trkpt lat="42.430405" lon="14.23624"><ele>151.5</ele><time>2026-05-01T07:31:44.28Z</time></trkpt><trkpt lat="42.430285" lon="14.2362317"><ele>151.75</ele><time>2026-05-01T07:31:45.28Z</time></trkpt><trkpt lat="42.4301617" lon="14.2362217"><ele>152.0</ele><time>2026-05-01T07:31:46.28Z</time></trkpt><trkpt lat="42.4300367" lon="14.2362167"><ele>152.0</ele><time>2026-05-01T07:31:47.28Z</time></trkpt><trkpt lat="42.4299167" lon="14.236195"><ele>152.0</ele><time>2026-05-01T07:31:48.28Z</time></trkpt><trkpt lat="42.4298017" lon="14.2361917"><ele>152.0</ele><time>2026-05-01T07:31:49.28Z</time></trkpt><trkpt lat="42.4296883" lon="14.23618"><ele>152.0</ele><time>2026-05-01T07:31:50.28Z</time></trkpt><trkpt lat="42.429595" lon="14.2361667"><ele>152.0</ele><time>2026-05-01T07:31:51.28Z</time></trkpt><trkpt lat="42.4295033" lon="14.2361517"><ele>152.4</ele><time>2026-05-01T07:31:52.28Z</time></trkpt><trkpt lat="42.4294317" lon="14.2361"><ele>152.79999999999998</ele><time>2026-05-01T07:31:53.28Z</time></trkpt><trkpt lat="42.4293717" lon="14.236015"><ele>153.2</ele><time>2026-05-01T07:31:54.28Z</time></trkpt><trkpt lat="42.4293267" lon="14.23591"><ele>153.6</ele><time>2026-05-01T07:31:55.28Z</time></trkpt><trkpt lat="42.4293" lon="14.2357517"><ele>154.0</ele><time>2026-05-01T07:31:56.28Z</time></trkpt><trkpt lat="42.42928" lon="14.23557"><ele>154.0</ele><time>2026-05-01T07:31:57.28Z</time></trkpt><trkpt lat="42.429265" lon="14.2353783"><ele>154.0</ele><time>2026-05-01T07:31:58.28Z</time></trkpt><trkpt lat="42.4292483" lon="14.2352033"><ele>154.0</ele><time>2026-05-01T07:31:59.28Z</time></trkpt><trkpt lat="42.4292333" lon="14.2350133"><ele>154.0</ele><time>2026-05-01T07:32:00.28Z</time></trkpt><trkpt lat="42.4292217" lon="14.2348233"><ele>154.0</ele><time>2026-05-01T07:32:01.28Z</time></trkpt><trkpt lat="42.4292117" lon="14.234655"><ele>154.0</ele><time>2026-05-01T07:32:02.28Z</time></trkpt><trkpt lat="42.4291933" lon="14.2345017"><ele>154.0</ele><time>2026-05-01T07:32:03.28Z</time></trkpt><trkpt lat="42.4291683" lon="14.23437"><ele>154.0</ele><time>2026-05-01T07:32:04.28Z</time></trkpt><trkpt lat="42.4291317" lon="14.2342517"><ele>154.0</ele><time>2026-05-01T07:32:05.28Z</time></trkpt><trkpt lat="42.429075" lon="14.2341517"><ele>154.0</ele><time>2026-05-01T07:32:06.28Z</time></trkpt><trkpt lat="42.42899" lon="14.23407"><ele>154.0</ele><time>2026-05-01T07:32:07.28Z</time></trkpt><trkpt lat="42.428885" lon="14.2340033"><ele>154.0</ele><time>2026-05-01T07:32:08.28Z</time></trkpt><trkpt lat="42.4287533" lon="14.2339433"><ele>154.0</ele><time>2026-05-01T07:32:09.28Z</time></trkpt><trkpt lat="42.4286083" lon="14.233885"><ele>153.33333333333334</ele><time>2026-05-01T07:32:10.28Z</time></trkpt><trkpt lat="42.4284583" lon="14.233815"><ele>152.66666666666666</ele><time>2026-05-01T07:32:11.28Z</time></trkpt><trkpt lat="42.4283083" lon="14.2337483"><ele>152.0</ele><time>2026-05-01T07:32:12.28Z</time></trkpt><trkpt lat="42.4281667" lon="14.2336867"><ele>152.0</ele><time>2026-05-01T07:32:13.28Z</time></trkpt><trkpt lat="42.4280333" lon="14.233625"><ele>152.0</ele><time>2026-05-01T07:32:14.281Z</time></trkpt><trkpt lat="42.427895" lon="14.2335583"><ele>152.0</ele><time>2026-05-01T07:32:15.28Z</time></trkpt><trkpt lat="42.427765" lon="14.233485"><ele>152.0</ele><time>2026-05-01T07:32:16.28Z</time></trkpt><trkpt lat="42.4276433" lon="14.2334233"><ele>152.0</ele><time>2026-05-01T07:32:17.28Z</time></trkpt><trkpt lat="42.427535" lon="14.2333633"><ele>152.0</ele><time>2026-05-01T07:32:18.28Z</time></trkpt><trkpt lat="42.4274333" lon="14.2332917"><ele>152.0</ele><time>2026-05-01T07:32:19.28Z</time></trkpt><trkpt lat="42.427325" lon="14.233215"><ele>152.0</ele><time>2026-05-01T07:32:20.28Z</time></trkpt><trkpt lat="42.4272183" lon="14.2331167"><ele>151.5</ele><time>2026-05-01T07:32:21.28Z</time></trkpt><trkpt lat="42.427115" lon="14.2329883"><ele>151.0</ele><time>2026-05-01T07:32:22.28Z</time></trkpt><trkpt lat="42.42702" lon="14.232865"><ele>150.5</ele><time>2026-05-01T07:32:23.28Z</time></trkpt><trkpt lat="42.42693" lon="14.2327167"><ele>150.0</ele><time>2026-05-01T07:32:24.28Z</time></trkpt><trkpt lat="42.4268267" lon="14.2325833"><ele>150.0</ele><time>2026-05-01T07:32:25.281Z</time></trkpt><trkpt lat="42.4267067" lon="14.2324683"><ele>150.0</ele><time>2026-05-01T07:32:26.28Z</time></trkpt><trkpt lat="42.4265717" lon="14.2323717"><ele>150.0</ele><time>2026-05-01T07:32:27.28Z</time></trkpt><trkpt lat="42.4264267" lon="14.2322933"><ele>149.0</ele><time>2026-05-01T07:32:28.28Z</time></trkpt><trkpt lat="42.4262833" lon="14.23222"><ele>148.0</ele><time>2026-05-01T07:32:29.28Z</time></trkpt><trkpt lat="42.426145" lon="14.232155"><ele>147.0</ele><time>2026-05-01T07:32:30.28Z</time></trkpt><trkpt lat="42.426015" lon="14.2320917"><ele>146.0</ele><time>2026-05-01T07:32:31.281Z</time></trkpt><trkpt lat="42.4258883" lon="14.23202"><ele>146.0</ele><time>2026-05-01T07:32:32.28Z</time></trkpt><trkpt lat="42.4257617" lon="14.2319517"><ele>146.0</ele><time>2026-05-01T07:32:33.28Z</time></trkpt><trkpt lat="42.4256417" lon="14.2318833"><ele>146.0</ele><time>2026-05-01T07:32:34.28Z</time></trkpt><trkpt lat="42.4255333" lon="14.2318233"><ele>146.0</ele><time>2026-05-01T07:32:35.281Z</time></trkpt><trkpt lat="42.4254233" lon="14.2317717"><ele>148.2</ele><time>2026-05-01T07:32:36.28Z</time></trkpt><trkpt lat="42.4253117" lon="14.2317367"><ele>150.39999999999998</ele><time>2026-05-01T07:32:37.28Z</time></trkpt><trkpt lat="42.4252" lon="14.23173"><ele>152.6</ele><time>2026-05-01T07:32:38.28Z</time></trkpt><trkpt lat="42.4250933" lon="14.2317633"><ele>154.79999999999998</ele><time>2026-05-01T07:32:39.28Z</time></trkpt><trkpt lat="42.425" lon="14.2318267"><ele>157.0</ele><time>2026-05-01T07:32:40.28Z</time></trkpt><trkpt lat="42.4249117" lon="14.23191"><ele>157.0</ele><time>2026-05-01T07:32:41.28Z</time></trkpt><trkpt lat="42.4248267" lon="14.2319917"><ele>157.0</ele><time>2026-05-01T07:32:42.28Z</time></trkpt><trkpt lat="42.4247283" lon="14.2320567"><ele>157.0</ele><time>2026-05-01T07:32:43.28Z</time></trkpt><trkpt lat="42.4246183" lon="14.232085"><ele>157.0</ele><time>2026-05-01T07:32:44.28Z</time></trkpt><trkpt lat="42.424495" lon="14.23209"><ele>157.0</ele><time>2026-05-01T07:32:45.28Z</time></trkpt><trkpt lat="42.42437" lon="14.232075"><ele>158.25</ele><time>2026-05-01T07:32:46.28Z</time></trkpt><trkpt lat="42.4242367" lon="14.2320483"><ele>159.5</ele><time>2026-05-01T07:32:47.281Z</time></trkpt><trkpt lat="42.424095" lon="14.2320083"><ele>160.75</ele><time>2026-05-01T07:32:48.28Z</time></trkpt><trkpt lat="42.4239517" lon="14.2319517"><ele>162.0</ele><time>2026-05-01T07:32:49.28Z</time></trkpt><trkpt lat="42.423815" lon="14.23189"><ele>162.33333333333334</ele><time>2026-05-01T07:32:50.28Z</time></trkpt><trkpt lat="42.423685" lon="14.2318267"><ele>162.66666666666669</ele><time>2026-05-01T07:32:51.28Z</time></trkpt><trkpt lat="42.423545" lon="14.2317467"><ele>163.0</ele><time>2026-05-01T07:32:52.28Z</time></trkpt><trkpt lat="42.423385" lon="14.231685"><ele>163.0</ele><time>2026-05-01T07:32:53.28Z</time></trkpt><trkpt lat="42.42323" lon="14.2316083"><ele>163.0</ele><time>2026-05-01T07:32:54.28Z</time></trkpt><trkpt lat="42.423085" lon="14.2315383"><ele>163.0</ele><time>2026-05-01T07:32:55.28Z</time></trkpt><trkpt lat="42.4229433" lon="14.2314733"><ele>163.0</ele><time>2026-05-01T07:32:56.28Z</time></trkpt><trkpt lat="42.4227983" lon="14.2314267"><ele>163.0</ele><time>2026-05-01T07:32:57.28Z</time></trkpt><trkpt lat="42.422655" lon="14.23138"><ele>163.0</ele><time>2026-05-01T07:32:58.28Z</time></trkpt><trkpt lat="42.4225083" lon="14.2313467"><ele>163.0</ele><time>2026-05-01T07:32:59.28Z</time></trkpt><trkpt lat="42.4223583" lon="14.231325"><ele>163.0</ele><time>2026-05-01T07:33:00.28Z</time></trkpt><trkpt lat="42.42221" lon="14.2312983"><ele>163.0</ele><time>2026-05-01T07:33:01.28Z</time></trkpt><trkpt lat="42.4220617" lon="14.2312733"><ele>163.0</ele><time>2026-05-01T07:33:02.28Z</time></trkpt><trkpt lat="42.4219133" lon="14.2312417"><ele>163.0</ele><time>2026-05-01T07:33:03.28Z</time></trkpt><trkpt lat="42.4217717" lon="14.231205"><ele>163.25</ele><time>2026-05-01T07:33:04.28Z</time></trkpt><trkpt lat="42.4216217" lon="14.2311783"><ele>163.5</ele><time>2026-05-01T07:33:05.28Z</time></trkpt><trkpt lat="42.4214833" lon="14.2311433"><ele>163.75</ele><time>2026-05-01T07:33:06.28Z</time></trkpt><trkpt lat="42.4213583" lon="14.23109"><ele>164.0</ele><time>2026-05-01T07:33:07.28Z</time></trkpt><trkpt lat="42.4212333" lon="14.2310333"><ele>164.0</ele><time>2026-05-01T07:33:08.28Z</time></trkpt><trkpt lat="42.42111" lon="14.2309717"><ele>164.0</ele><time>2026-05-01T07:33:09.28Z</time></trkpt><trkpt lat="42.4209867" lon="14.23093"><ele>164.0</ele><time>2026-05-01T07:33:10.281Z</time></trkpt><trkpt lat="42.42086" lon="14.230875"><ele>164.0</ele><time>2026-05-01T07:33:11.28Z</time></trkpt><trkpt lat="42.4207333" lon="14.2308217"><ele>164.0</ele><time>2026-05-01T07:33:12.28Z</time></trkpt><trkpt lat="42.420595" lon="14.2307683"><ele>164.0</ele><time>2026-05-01T07:33:13.281Z</time></trkpt><trkpt lat="42.4204617" lon="14.2307117"><ele>164.0</ele><time>2026-05-01T07:33:14.28Z</time></trkpt><trkpt lat="42.4203233" lon="14.2306583"><ele>164.0</ele><time>2026-05-01T07:33:15.28Z</time></trkpt><trkpt lat="42.4201783" lon="14.2306"><ele>161.0</ele><time>2026-05-01T07:33:16.28Z</time></trkpt><trkpt lat="42.420025" lon="14.2305617"><ele>158.0</ele><time>2026-05-01T07:33:17.28Z</time></trkpt><trkpt lat="42.4198583" lon="14.2305433"><ele>155.0</ele><time>2026-05-01T07:33:18.28Z</time></trkpt><trkpt lat="42.4196783" lon="14.2305217"><ele>155.0</ele><time>2026-05-01T07:33:19.28Z</time></trkpt><trkpt lat="42.4195167" lon="14.23051"><ele>155.0</ele><time>2026-05-01T07:33:20.28Z</time></trkpt><trkpt lat="42.41936" lon="14.2305083"><ele>155.0</ele><time>2026-05-01T07:33:21.28Z</time></trkpt><trkpt lat="42.4192" lon="14.230505"><ele>155.0</ele><time>2026-05-01T07:33:22.28Z</time></trkpt><trkpt lat="42.41905" lon="14.2305"><ele>155.0</ele><time>2026-05-01T07:33:23.28Z</time></trkpt><trkpt lat="42.418905" lon="14.2304883"><ele>155.0</ele><time>2026-05-01T07:33:24.28Z</time></trkpt><trkpt lat="42.4187583" lon="14.2304833"><ele>155.0</ele><time>2026-05-01T07:33:25.28Z</time></trkpt><trkpt lat="42.4186033" lon="14.2304783"><ele>153.66666666666666</ele><time>2026-05-01T07:33:26.28Z</time></trkpt><trkpt lat="42.4184467" lon="14.2304717"><ele>152.33333333333334</ele><time>2026-05-01T07:33:27.281Z</time></trkpt><trkpt lat="42.4182933" lon="14.2304617"><ele>151.0</ele><time>2026-05-01T07:33:28.28Z</time></trkpt><trkpt lat="42.418135" lon="14.2304533"><ele>151.0</ele><time>2026-05-01T07:33:29.281Z</time></trkpt><trkpt lat="42.4179867" lon="14.23045"><ele>151.0</ele><time>2026-05-01T07:33:30.28Z</time></trkpt><trkpt lat="42.4178433" lon="14.2304517"><ele>151.0</ele><time>2026-05-01T07:33:31.28Z</time></trkpt><trkpt lat="42.417705" lon="14.2304433"><ele>151.0</ele><time>2026-05-01T07:33:32.28Z</time></trkpt><trkpt lat="42.4175617" lon="14.230435"><ele>152.6</ele><time>2026-05-01T07:33:33.28Z</time></trkpt><trkpt lat="42.41744" lon="14.230435"><ele>154.2</ele><time>2026-05-01T07:33:34.28Z</time></trkpt><trkpt lat="42.41733" lon="14.2304267"><ele>155.8</ele><time>2026-05-01T07:33:35.28Z</time></trkpt><trkpt lat="42.41723" lon="14.2304183"><ele>157.4</ele><time>2026-05-01T07:33:36.28Z</time></trkpt><trkpt lat="42.4171333" lon="14.2304133"><ele>159.0</ele><time>2026-05-01T07:33:37.28Z</time></trkpt><trkpt lat="42.4170517" lon="14.230415"><ele>159.66666666666666</ele><time>2026-05-01T07:33:38.28Z</time></trkpt><trkpt lat="42.416975" lon="14.2304267"><ele>160.33333333333334</ele><time>2026-05-01T07:33:39.28Z</time></trkpt><trkpt lat="42.4169083" lon="14.2304683"><ele>161.0</ele><time>2026-05-01T07:33:40.28Z</time></trkpt><trkpt lat="42.4168533" lon="14.2305217"><ele>161.66666666666669</ele><time>2026-05-01T07:33:41.28Z</time></trkpt><trkpt lat="42.4168033" lon="14.2306483"><ele>162.33333333333334</ele><time>2026-05-01T07:33:43.28Z</time></trkpt><trkpt lat="42.4168117" lon="14.230815"><ele>163.0</ele><time>2026-05-01T07:33:45.28Z</time></trkpt><trkpt lat="42.41685" lon="14.2309167"><ele>164.0</ele><time>2026-05-01T07:33:46.281Z</time></trkpt><trkpt lat="42.4169117" lon="14.2310367"><ele>165.0</ele><time>2026-05-01T07:33:47.28Z</time></trkpt><trkpt lat="42.4169983" lon="14.2311983"><ele>166.0</ele><time>2026-05-01T07:33:48.28Z</time></trkpt><trkpt lat="42.4170917" lon="14.23138"><ele>167.0</ele><time>2026-05-01T07:33:49.28Z</time></trkpt><trkpt lat="42.4171817" lon="14.2315683"><ele>167.0</ele><time>2026-05-01T07:33:50.28Z</time></trkpt><trkpt lat="42.41727" lon="14.2317683"><ele>167.0</ele><time>2026-05-01T07:33:51.28Z</time></trkpt><trkpt lat="42.417355" lon="14.231975"><ele>167.0</ele><time>2026-05-01T07:33:52.281Z</time></trkpt><trkpt lat="42.4174383" lon="14.2321733"><ele>166.33333333333331</ele><time>2026-05-01T07:33:53.28Z</time></trkpt><trkpt lat="42.4175267" lon="14.2323833"><ele>165.66666666666666</ele><time>2026-05-01T07:33:54.28Z</time></trkpt><trkpt lat="42.417615" lon="14.2325883"><ele>165.0</ele><time>2026-05-01T07:33:55.28Z</time></trkpt><trkpt lat="42.4177017" lon="14.2327883"><ele>165.0</ele><time>2026-05-01T07:33:56.28Z</time></trkpt><trkpt lat="42.41779" lon="14.2329833"><ele>165.0</ele><time>2026-05-01T07:33:57.28Z</time></trkpt><trkpt lat="42.4178717" lon="14.233185"><ele>165.0</ele><time>2026-05-01T07:33:58.281Z</time></trkpt><trkpt lat="42.41796" lon="14.2333933"><ele>165.0</ele><time>2026-05-01T07:33:59.28Z</time></trkpt><trkpt lat="42.4180467" lon="14.2336"><ele>165.0</ele><time>2026-05-01T07:34:00.28Z</time></trkpt><trkpt lat="42.4181367" lon="14.23382"><ele>165.0</ele><time>2026-05-01T07:34:01.28Z</time></trkpt><trkpt lat="42.418225" lon="14.234045"><ele>164.66666666666666</ele><time>2026-05-01T07:34:02.28Z</time></trkpt><trkpt lat="42.418305" lon="14.23426"><ele>164.33333333333331</ele><time>2026-05-01T07:34:03.28Z</time></trkpt><trkpt lat="42.4183917" lon="14.234475"><ele>164.0</ele><time>2026-05-01T07:34:04.281Z</time></trkpt><trkpt lat="42.4184883" lon="14.2347067"><ele>162.33333333333331</ele><time>2026-05-01T07:34:05.28Z</time></trkpt><trkpt lat="42.4185767" lon="14.23493"><ele>160.66666666666666</ele><time>2026-05-01T07:34:06.28Z</time></trkpt><trkpt lat="42.41867" lon="14.2351583"><ele>159.0</ele><time>2026-05-01T07:34:07.28Z</time></trkpt><trkpt lat="42.4187533" lon="14.2353717"><ele>159.33333333333334</ele><time>2026-05-01T07:34:08.28Z</time></trkpt><trkpt lat="42.4188367" lon="14.2355817"><ele>159.66666666666669</ele><time>2026-05-01T07:34:09.28Z</time></trkpt><trkpt lat="42.41892" lon="14.23579"><ele>160.0</ele><time>2026-05-01T07:34:10.281Z</time></trkpt><trkpt lat="42.4190033" lon="14.235995"><ele>160.0</ele><time>2026-05-01T07:34:11.28Z</time></trkpt><trkpt lat="42.41908" lon="14.2362033"><ele>160.0</ele><time>2026-05-01T07:34:12.281Z</time></trkpt><trkpt lat="42.419145" lon="14.2364033"><ele>160.0</ele><time>2026-05-01T07:34:13.28Z</time></trkpt><trkpt lat="42.4192083" lon="14.2366"><ele>159.0</ele><time>2026-05-01T07:34:14.28Z</time></trkpt><trkpt lat="42.4192683" lon="14.23679"><ele>158.0</ele><time>2026-05-01T07:34:15.28Z</time></trkpt><trkpt lat="42.4193167" lon="14.2369683"><ele>157.0</ele><time>2026-05-01T07:34:16.28Z</time></trkpt><trkpt lat="42.4193683" lon="14.2371433"><ele>156.0</ele><time>2026-05-01T07:34:17.28Z</time></trkpt><trkpt lat="42.4194167" lon="14.2373217"><ele>154.5</ele><time>2026-05-01T07:34:18.28Z</time></trkpt><trkpt lat="42.4194583" lon="14.2374967"><ele>153.0</ele><time>2026-05-01T07:34:19.28Z</time></trkpt><trkpt lat="42.4195117" lon="14.2376767"><ele>151.5</ele><time>2026-05-01T07:34:20.28Z</time></trkpt><trkpt lat="42.4195633" lon="14.2378517"><ele>150.0</ele><time>2026-05-01T07:34:21.28Z</time></trkpt><trkpt lat="42.41961" lon="14.2380433"><ele>150.75</ele><time>2026-05-01T07:34:22.28Z</time></trkpt><trkpt lat="42.4196583" lon="14.23822"><ele>151.5</ele><time>2026-05-01T07:34:23.28Z</time></trkpt><trkpt lat="42.419715" lon="14.2383867"><ele>152.25</ele><time>2026-05-01T07:34:24.28Z</time></trkpt><trkpt lat="42.41979" lon="14.238545"><ele>153.0</ele><time>2026-05-01T07:34:25.28Z</time></trkpt><trkpt lat="42.4198917" lon="14.2386883"><ele>153.0</ele><time>2026-05-01T07:34:26.28Z</time></trkpt><trkpt lat="42.4199983" lon="14.2388217"><ele>153.0</ele><time>2026-05-01T07:34:27.28Z</time></trkpt><trkpt lat="42.42011" lon="14.2389583"><ele>153.0</ele><time>2026-05-01T07:34:28.28Z</time></trkpt><trkpt lat="42.4202033" lon="14.23911"><ele>153.0</ele><time>2026-05-01T07:34:29.28Z</time></trkpt><trkpt lat="42.4202933" lon="14.2392867"><ele>151.66666666666666</ele><time>2026-05-01T07:34:30.28Z</time></trkpt><trkpt lat="42.4203783" lon="14.2394783"><ele>150.33333333333331</ele><time>2026-05-01T07:34:31.28Z</time></trkpt><trkpt lat="42.420455" lon="14.2396683"><ele>149.0</ele><time>2026-05-01T07:34:32.28Z</time></trkpt><trkpt lat="42.42053" lon="14.2398633"><ele>149.0</ele><time>2026-05-01T07:34:33.28Z</time></trkpt><trkpt lat="42.4206017" lon="14.24006"><ele>149.0</ele><time>2026-05-01T07:34:34.28Z</time></trkpt><trkpt lat="42.4206683" lon="14.2402533"><ele>149.0</ele><time>2026-05-01T07:34:35.28Z</time></trkpt><trkpt lat="42.4207233" lon="14.2404317"><ele>147.0</ele><time>2026-05-01T07:34:36.28Z</time></trkpt><trkpt lat="42.4207667" lon="14.240635"><ele>145.0</ele><time>2026-05-01T07:34:37.28Z</time></trkpt><trkpt lat="42.4208167" lon="14.2408283"><ele>143.0</ele><time>2026-05-01T07:34:38.28Z</time></trkpt><trkpt lat="42.42087" lon="14.2410217"><ele>143.0</ele><time>2026-05-01T07:34:39.28Z</time></trkpt><trkpt lat="42.4209183" lon="14.24121"><ele>143.0</ele><time>2026-05-01T07:34:40.28Z</time></trkpt><trkpt lat="42.4209617" lon="14.2414"><ele>143.0</ele><time>2026-05-01T07:34:41.28Z</time></trkpt><trkpt lat="42.4210033" lon="14.24159"><ele>143.0</ele><time>2026-05-01T07:34:42.28Z</time></trkpt><trkpt lat="42.4210317" lon="14.241765"><ele>141.25</ele><time>2026-05-01T07:34:43.28Z</time></trkpt><trkpt lat="42.4210467" lon="14.2419417"><ele>139.5</ele><time>2026-05-01T07:34:44.28Z</time></trkpt><trkpt lat="42.4210433" lon="14.2421133"><ele>137.75</ele><time>2026-05-01T07:34:45.28Z</time></trkpt><trkpt lat="42.4210117" lon="14.2422617"><ele>136.0</ele><time>2026-05-01T07:34:46.28Z</time></trkpt><trkpt lat="42.4209583" lon="14.2424017"><ele>135.0</ele><time>2026-05-01T07:34:47.28Z</time></trkpt><trkpt lat="42.4208783" lon="14.2425217"><ele>134.0</ele><time>2026-05-01T07:34:48.28Z</time></trkpt><trkpt lat="42.4207717" lon="14.24262"><ele>133.0</ele><time>2026-05-01T07:34:49.28Z</time></trkpt><trkpt lat="42.4206583" lon="14.2427033"><ele>132.0</ele><time>2026-05-01T07:34:50.28Z</time></trkpt><trkpt lat="42.42055" lon="14.24281"><ele>128.33333333333334</ele><time>2026-05-01T07:34:51.28Z</time></trkpt><trkpt lat="42.42046" lon="14.24296"><ele>124.66666666666667</ele><time>2026-05-01T07:34:52.28Z</time></trkpt><trkpt lat="42.4203717" lon="14.24315"><ele>121.0</ele><time>2026-05-01T07:34:53.28Z</time></trkpt><trkpt lat="42.420305" lon="14.2433517"><ele>119.66666666666667</ele><time>2026-05-01T07:34:54.28Z</time></trkpt><trkpt lat="42.420245" lon="14.2435417"><ele>118.33333333333334</ele><time>2026-05-01T07:34:55.28Z</time></trkpt><trkpt lat="42.4201867" lon="14.24373"><ele>117.0</ele><time>2026-05-01T07:34:56.28Z</time></trkpt><trkpt lat="42.4201333" lon="14.2439183"><ele>116.33333333333334</ele><time>2026-05-01T07:34:57.28Z</time></trkpt><trkpt lat="42.420085" lon="14.24412"><ele>115.66666666666667</ele><time>2026-05-01T07:34:58.28Z</time></trkpt><trkpt lat="42.420045" lon="14.2443533"><ele>115.0</ele><time>2026-05-01T07:34:59.28Z</time></trkpt><trkpt lat="42.4200233" lon="14.2446117"><ele>115.33333333333334</ele><time>2026-05-01T07:35:00.28Z</time></trkpt><trkpt lat="42.4200133" lon="14.2448833"><ele>115.66666666666666</ele><time>2026-05-01T07:35:01.281Z</time></trkpt><trkpt lat="42.4200017" lon="14.2451433"><ele>116.0</ele><time>2026-05-01T07:35:02.28Z</time></trkpt><trkpt lat="42.4199883" lon="14.2454033"><ele>115.33333333333333</ele><time>2026-05-01T07:35:03.28Z</time></trkpt><trkpt lat="42.4199783" lon="14.2456567"><ele>114.66666666666666</ele><time>2026-05-01T07:35:04.28Z</time></trkpt><trkpt lat="42.4199683" lon="14.2459033"><ele>114.0</ele><time>2026-05-01T07:35:05.28Z</time></trkpt><trkpt lat="42.4199583" lon="14.2461417"><ele>114.0</ele><time>2026-05-01T07:35:06.28Z</time></trkpt><trkpt lat="42.4199432" lon="14.2463848"><ele>114.0</ele><time>2026-05-01T07:35:07.28Z</time></trkpt><trkpt lat="42.41993" lon="14.2466289"><ele>114.0</ele><time>2026-05-01T07:35:08.28Z</time></trkpt><trkpt lat="42.4199203" lon="14.2468736"><ele>114.33333333333334</ele><time>2026-05-01T07:35:09.28Z</time></trkpt><trkpt lat="42.4199114" lon="14.2471128"><ele>114.66666666666667</ele><time>2026-05-01T07:35:10.28Z</time></trkpt><trkpt lat="42.419916" lon="14.2473426"><ele>115.0</ele><time>2026-05-01T07:35:11.28Z</time></trkpt><trkpt lat="42.419938" lon="14.2475542"><ele>114.0</ele><time>2026-05-01T07:35:12.28Z</time></trkpt><trkpt lat="42.4199667" lon="14.2477489"><ele>113.0</ele><time>2026-05-01T07:35:13.28Z</time></trkpt><trkpt lat="42.4200003" lon="14.2479337"><ele>112.0</ele><time>2026-05-01T07:35:14.28Z</time></trkpt><trkpt lat="42.4200389" lon="14.2481059"><ele>111.0</ele><time>2026-05-01T07:35:15.28Z</time></trkpt><trkpt lat="42.4200729" lon="14.2482728"><ele>109.8</ele><time>2026-05-01T07:35:16.281Z</time></trkpt><trkpt lat="42.4200971" lon="14.2484211"><ele>108.6</ele><time>2026-05-01T07:35:17.28Z</time></trkpt><trkpt lat="42.4201232" lon="14.2485436"><ele>107.4</ele><time>2026-05-01T07:35:18.28Z</time></trkpt><trkpt lat="42.420145" lon="14.2486458"><ele>106.2</ele><time>2026-05-01T07:35:19.28Z</time></trkpt><trkpt lat="42.4201769" lon="14.2487814"><ele>105.0</ele><time>2026-05-01T07:35:21.28Z</time></trkpt><trkpt lat="42.4201356" lon="14.2488834"><ele>104.0</ele><time>2026-05-01T07:35:23.28Z</time></trkpt><trkpt lat="42.4200444" lon="14.2489823"><ele>103.0</ele><time>2026-05-01T07:35:25.281Z</time></trkpt><trkpt lat="42.4199807" lon="14.2490417"><ele>102.0</ele><time>2026-05-01T07:35:26.281Z</time></trkpt><trkpt lat="42.4199171" lon="14.2490985"><ele>101.0</ele><time>2026-05-01T07:35:27.281Z</time></trkpt><trkpt lat="42.4198532" lon="14.2491542"><ele>100.0</ele><time>2026-05-01T07:35:28.28Z</time></trkpt><trkpt lat="42.4197913" lon="14.2492028"><ele>99.0</ele><time>2026-05-01T07:35:29.28Z</time></trkpt><trkpt lat="42.4196976" lon="14.2492908"><ele>96.5</ele><time>2026-05-01T07:35:31.28Z</time></trkpt><trkpt lat="42.4196117" lon="14.2493317"><ele>94.0</ele><time>2026-05-01T07:35:33.28Z</time></trkpt><trkpt lat="42.41949" lon="14.2492833"><ele>91.5</ele><time>2026-05-01T07:35:35.28Z</time></trkpt><trkpt lat="42.419425" lon="14.2492483"><ele>89.0</ele><time>2026-05-01T07:35:36.28Z</time></trkpt><trkpt lat="42.4193633" lon="14.24922"><ele>86.5</ele><time>2026-05-01T07:35:37.28Z</time></trkpt><trkpt lat="42.419295" lon="14.249195"><ele>84.0</ele><time>2026-05-01T07:35:38.28Z</time></trkpt><trkpt lat="42.4192167" lon="14.249175"><ele>84.0</ele><time>2026-05-01T07:35:39.28Z</time></trkpt><trkpt lat="42.419125" lon="14.24915"><ele>84.0</ele><time>2026-05-01T07:35:40.28Z</time></trkpt><trkpt lat="42.41903" lon="14.2491217"><ele>84.0</ele><time>2026-05-01T07:35:41.281Z</time></trkpt><trkpt lat="42.4189383" lon="14.249095"><ele>84.0</ele><time>2026-05-01T07:35:42.28Z</time></trkpt><trkpt lat="42.4188517" lon="14.249075"><ele>84.0</ele><time>2026-05-01T07:35:43.28Z</time></trkpt><trkpt lat="42.4187733" lon="14.249055"><ele>82.0</ele><time>2026-05-01T07:35:44.28Z</time></trkpt><trkpt lat="42.4187" lon="14.24903"><ele>80.0</ele><time>2026-05-01T07:35:45.281Z</time></trkpt><trkpt lat="42.418635" lon="14.2490067"><ele>78.0</ele><time>2026-05-01T07:35:46.28Z</time></trkpt><trkpt lat="42.4185683" lon="14.2489867"><ele>76.0</ele><time>2026-05-01T07:35:47.28Z</time></trkpt><trkpt lat="42.4185" lon="14.2489717"><ele>74.0</ele><time>2026-05-01T07:35:48.28Z</time></trkpt><trkpt lat="42.41843" lon="14.2489567"><ele>72.0</ele><time>2026-05-01T07:35:49.28Z</time></trkpt><trkpt lat="42.4183683" lon="14.248935"><ele>70.0</ele><time>2026-05-01T07:35:50.28Z</time></trkpt><trkpt lat="42.4182917" lon="14.2489083"><ele>69.66666666666666</ele><time>2026-05-01T07:35:51.28Z</time></trkpt><trkpt lat="42.4182183" lon="14.2488867"><ele>69.33333333333333</ele><time>2026-05-01T07:35:52.281Z</time></trkpt><trkpt lat="42.4181433" lon="14.2488717"><ele>69.0</ele><time>2026-05-01T07:35:53.28Z</time></trkpt><trkpt lat="42.4180683" lon="14.2488683"><ele>68.66666666666667</ele><time>2026-05-01T07:35:54.28Z</time></trkpt><trkpt lat="42.41799" lon="14.2488667"><ele>68.33333333333334</ele><time>2026-05-01T07:35:55.28Z</time></trkpt><trkpt lat="42.4179233" lon="14.2488383"><ele>68.0</ele><time>2026-05-01T07:35:56.281Z</time></trkpt><trkpt lat="42.41784" lon="14.2487617"><ele>65.0</ele><time>2026-05-01T07:35:58.28Z</time></trkpt><trkpt lat="42.4177217" lon="14.24867"><ele>62.0</ele><time>2026-05-01T07:36:00.28Z</time></trkpt><trkpt lat="42.4176583" lon="14.2486367"><ele>59.0</ele><time>2026-05-01T07:36:01.28Z</time></trkpt><trkpt lat="42.417545" lon="14.2485783"><ele>56.0</ele><time>2026-05-01T07:36:03.28Z</time></trkpt><trkpt lat="42.4174367" lon="14.2485367"><ele>53.0</ele><time>2026-05-01T07:36:05.28Z</time></trkpt><trkpt lat="42.4173451" lon="14.2484861"><ele>53.0</ele><time>2026-05-01T07:36:07.28Z</time></trkpt><trkpt lat="42.4172713" lon="14.2483852"><ele>53.0</ele><time>2026-05-01T07:36:09.28Z</time></trkpt><trkpt lat="42.4172244" lon="14.2482527"><ele>53.0</ele><time>2026-05-01T07:36:11.28Z</time></trkpt><trkpt lat="42.4172179" lon="14.2481126"><ele>53.0</ele><time>2026-05-01T07:36:13.28Z</time></trkpt><trkpt lat="42.4172371" lon="14.247977"><ele>53.0</ele><time>2026-05-01T07:36:15.28Z</time></trkpt><trkpt lat="42.4172411" lon="14.2478507"><ele>53.2</ele><time>2026-05-01T07:36:17.279Z</time></trkpt><trkpt lat="42.4172433" lon="14.2477"><ele>53.4</ele><time>2026-05-01T07:37:04.279Z</time></trkpt><trkpt lat="42.4172467" lon="14.2476067"><ele>53.60000000000001</ele><time>2026-05-01T07:37:06.279Z</time></trkpt><trkpt lat="42.41725" lon="14.2474717"><ele>53.800000000000004</ele><time>2026-05-01T07:37:08.28Z</time></trkpt><trkpt lat="42.4172433" lon="14.2473433"><ele>54.0</ele><time>2026-05-01T07:37:10.279Z</time></trkpt><trkpt lat="42.4172317" lon="14.2474633"><ele>54.0</ele><time>2026-05-01T07:37:22.279Z</time></trkpt><trkpt lat="42.4172433" lon="14.2475667"><ele>54.00000000000001</ele><time>2026-05-01T07:37:24.279Z</time></trkpt><trkpt lat="42.4172488" lon="14.2477019"><ele>54.00000000000001</ele><time>2026-05-01T07:37:28.344Z</time></trkpt><trkpt lat="42.4172533" lon="14.2478791"><ele>54.0</ele><time>2026-05-01T07:37:32.28Z</time></trkpt><trkpt lat="42.4172158" lon="14.2479493"><ele>54.0</ele><time>2026-05-01T07:37:35.263Z</time></trkpt><trkpt lat="42.4171359" lon="14.2478829"><ele>52.166666666666664</ele><time>2026-05-01T07:37:38.322Z</time></trkpt><trkpt lat="42.4170726" lon="14.2478776"><ele>50.333333333333336</ele><time>2026-05-01T07:37:40.36Z</time></trkpt><trkpt lat="42.4169921" lon="14.2478609"><ele>48.5</ele><time>2026-05-01T07:37:43.337Z</time></trkpt><trkpt lat="42.4169289" lon="14.2478467"><ele>46.66666666666667</ele><time>2026-05-01T07:37:48.303Z</time></trkpt><trkpt lat="42.4168401" lon="14.2478482"><ele>44.833333333333336</ele><time>2026-05-01T07:37:54.638Z</time></trkpt><trkpt lat="42.4167568" lon="14.2478303"><ele>43.0</ele><time>2026-05-01T07:37:58.501Z</time></trkpt><trkpt lat="42.4166693" lon="14.2477969"><ele>43.0</ele><time>2026-05-01T07:38:01.782Z</time></trkpt><trkpt lat="42.4165931" lon="14.2477916"><ele>43.0</ele><time>2026-05-01T07:38:03.88Z</time></trkpt><trkpt lat="42.4164894" lon="14.2477997"><ele>43.0</ele><time>2026-05-01T07:38:06.404Z</time></trkpt><trkpt lat="42.4164423" lon="14.2478656"><ele>43.0</ele><time>2026-05-01T07:38:08.325Z</time></trkpt><trkpt lat="42.4163367" lon="14.2480133"><ele>43.0</ele><time>2026-05-01T07:38:11.279Z</time></trkpt><trkpt lat="42.4162633" lon="14.2481267"><ele>45.2</ele><time>2026-05-01T07:38:13.279Z</time></trkpt><trkpt lat="42.4161883" lon="14.248215"><ele>47.4</ele><time>2026-05-01T07:38:15.279Z</time></trkpt><trkpt lat="42.4161323" lon="14.2483034"><ele>49.60000000000001</ele><time>2026-05-01T07:38:17.279Z</time></trkpt><trkpt lat="42.4160539" lon="14.2484004"><ele>51.800000000000004</ele><time>2026-05-01T07:38:19.279Z</time></trkpt><trkpt lat="42.4159785" lon="14.2484865"><ele>54.0</ele><time>2026-05-01T07:38:21.279Z</time></trkpt><trkpt lat="42.415903" lon="14.2485739"><ele>54.0</ele><time>2026-05-01T07:38:23.28Z</time></trkpt><trkpt lat="42.4158288" lon="14.2486598"><ele>54.00000000000001</ele><time>2026-05-01T07:38:25.279Z</time></trkpt><trkpt lat="42.4157636" lon="14.248741"><ele>54.00000000000001</ele><time>2026-05-01T07:38:27.28Z</time></trkpt><trkpt lat="42.4157004" lon="14.2488143"><ele>54.0</ele><time>2026-05-01T07:38:29.279Z</time></trkpt><trkpt lat="42.4156129" lon="14.2488956"><ele>54.0</ele><time>2026-05-01T07:38:31.279Z</time></trkpt><trkpt lat="42.415515" lon="14.249"><ele>59.5</ele><time>2026-05-01T07:38:33.279Z</time></trkpt><trkpt lat="42.4154317" lon="14.2491083"><ele>65.0</ele><time>2026-05-01T07:38:35.279Z</time></trkpt><trkpt lat="42.4153583" lon="14.249225"><ele>70.5</ele><time>2026-05-01T07:38:37.279Z</time></trkpt><trkpt lat="42.415295" lon="14.2493483"><ele>76.0</ele><time>2026-05-01T07:38:39.28Z</time></trkpt><trkpt lat="42.41522" lon="14.2494667"><ele>76.0</ele><time>2026-05-01T07:38:41.279Z</time></trkpt><trkpt lat="42.4151433" lon="14.2495617"><ele>76.0</ele><time>2026-05-01T07:38:43.279Z</time></trkpt><trkpt lat="42.415055" lon="14.2496433"><ele>76.0</ele><time>2026-05-01T07:38:45.279Z</time></trkpt><trkpt lat="42.414965" lon="14.2497067"><ele>76.0</ele><time>2026-05-01T07:38:47.28Z</time></trkpt><trkpt lat="42.41487" lon="14.2497833"><ele>76.0</ele><time>2026-05-01T07:38:49.279Z</time></trkpt><trkpt lat="42.4148167" lon="14.2498317"><ele>74.5</ele><time>2026-05-01T07:38:50.279Z</time></trkpt><trkpt lat="42.4147617" lon="14.2498833"><ele>73.0</ele><time>2026-05-01T07:38:51.279Z</time></trkpt><trkpt lat="42.414705" lon="14.2499317"><ele>71.5</ele><time>2026-05-01T07:38:52.279Z</time></trkpt><trkpt lat="42.41465" lon="14.2499833"><ele>70.0</ele><time>2026-05-01T07:38:53.28Z</time></trkpt><trkpt lat="42.4145967" lon="14.2500367"><ele>68.5</ele><time>2026-05-01T07:38:54.279Z</time></trkpt><trkpt lat="42.41454" lon="14.2500917"><ele>67.0</ele><time>2026-05-01T07:38:55.279Z</time></trkpt><trkpt lat="42.414445" lon="14.2501833"><ele>70.16666666666666</ele><time>2026-05-01T07:38:57.279Z</time></trkpt><trkpt lat="42.4143583" lon="14.2502583"><ele>73.33333333333333</ele><time>2026-05-01T07:38:59.279Z</time></trkpt><trkpt lat="42.4142633" lon="14.250245"><ele>76.5</ele><time>2026-05-01T07:39:01.279Z</time></trkpt><trkpt lat="42.4142" lon="14.2501567"><ele>79.66666666666667</ele><time>2026-05-01T07:39:03.28Z</time></trkpt><trkpt lat="42.4141533" lon="14.2500967"><ele>82.83333333333334</ele><time>2026-05-01T07:39:04.279Z</time></trkpt><trkpt lat="42.4141083" lon="14.2500333"><ele>86.0</ele><time>2026-05-01T07:39:05.279Z</time></trkpt><trkpt lat="42.4140583" lon="14.24997"><ele>86.0</ele><time>2026-05-01T07:39:06.279Z</time></trkpt><trkpt lat="42.4140033" lon="14.2499083"><ele>86.0</ele><time>2026-05-01T07:39:07.279Z</time></trkpt><trkpt lat="42.4139367" lon="14.2498533"><ele>86.0</ele><time>2026-05-01T07:39:08.28Z</time></trkpt><trkpt lat="42.4138733" lon="14.2498117"><ele>86.0</ele><time>2026-05-01T07:39:09.279Z</time></trkpt><trkpt lat="42.4138117" lon="14.2497833"><ele>86.0</ele><time>2026-05-01T07:39:10.279Z</time></trkpt><trkpt lat="42.41375" lon="14.2497617"><ele>86.0</ele><time>2026-05-01T07:39:11.279Z</time></trkpt><trkpt lat="42.4136483" lon="14.249745"><ele>86.5</ele><time>2026-05-01T07:39:13.279Z</time></trkpt><trkpt lat="42.4135683" lon="14.2497417"><ele>87.0</ele><time>2026-05-01T07:39:15.28Z</time></trkpt><trkpt lat="42.4134967" lon="14.2497517"><ele>87.5</ele><time>2026-05-01T07:39:17.28Z</time></trkpt><trkpt lat="42.4134133" lon="14.2497867"><ele>88.0</ele><time>2026-05-01T07:39:19.279Z</time></trkpt><trkpt lat="42.4133333" lon="14.2498183"><ele>88.5</ele><time>2026-05-01T07:39:21.279Z</time></trkpt><trkpt lat="42.41327" lon="14.2498533"><ele>89.0</ele><time>2026-05-01T07:39:23.279Z</time></trkpt><trkpt lat="42.4132017" lon="14.2498733"><ele>90.0</ele><time>2026-05-01T07:39:26.279Z</time></trkpt><trkpt lat="42.413155" lon="14.2497567"><ele>91.0</ele><time>2026-05-01T07:39:29.28Z</time></trkpt><trkpt lat="42.4131467" lon="14.2496633"><ele>92.0</ele><time>2026-05-01T07:39:30.279Z</time></trkpt><trkpt lat="42.413135" lon="14.2495467"><ele>93.0</ele><time>2026-05-01T07:39:31.279Z</time></trkpt><trkpt lat="42.41312" lon="14.2494133"><ele>94.0</ele><time>2026-05-01T07:39:32.279Z</time></trkpt><trkpt lat="42.4131" lon="14.2492417"><ele>94.0</ele><time>2026-05-01T07:39:33.279Z</time></trkpt><trkpt lat="42.4130717" lon="14.24906"><ele>94.0</ele><time>2026-05-01T07:39:34.279Z</time></trkpt><trkpt lat="42.413045" lon="14.24888"><ele>94.0</ele><time>2026-05-01T07:39:35.279Z</time></trkpt><trkpt lat="42.413015" lon="14.2487"><ele>94.0</ele><time>2026-05-01T07:39:36.279Z</time></trkpt><trkpt lat="42.4129867" lon="14.2485267"><ele>94.75</ele><time>2026-05-01T07:39:37.279Z</time></trkpt><trkpt lat="42.4129567" lon="14.2483633"><ele>95.5</ele><time>2026-05-01T07:39:38.279Z</time></trkpt><trkpt lat="42.4129267" lon="14.2482033"><ele>96.25</ele><time>2026-05-01T07:39:39.279Z</time></trkpt><trkpt lat="42.4129033" lon="14.2480433"><ele>97.0</ele><time>2026-05-01T07:39:40.28Z</time></trkpt><trkpt lat="42.41288" lon="14.2478933"><ele>97.0</ele><time>2026-05-01T07:39:41.279Z</time></trkpt><trkpt lat="42.412865" lon="14.2477483"><ele>97.0</ele><time>2026-05-01T07:39:42.279Z</time></trkpt><trkpt lat="42.412845" lon="14.2476167"><ele>97.0</ele><time>2026-05-01T07:39:43.279Z</time></trkpt><trkpt lat="42.4128233" lon="14.2475017"><ele>97.0</ele><time>2026-05-01T07:39:44.279Z</time></trkpt><trkpt lat="42.4128" lon="14.24741"><ele>97.0</ele><time>2026-05-01T07:39:45.279Z</time></trkpt><trkpt lat="42.412765" lon="14.24726"><ele>98.8</ele><time>2026-05-01T07:39:47.28Z</time></trkpt><trkpt lat="42.4127833" lon="14.2471533"><ele>100.6</ele><time>2026-05-01T07:39:50.279Z</time></trkpt><trkpt lat="42.4128683" lon="14.2471233"><ele>102.39999999999999</ele><time>2026-05-01T07:39:52.279Z</time></trkpt><trkpt lat="42.41297" lon="14.24708"><ele>104.19999999999999</ele><time>2026-05-01T07:39:54.279Z</time></trkpt><trkpt lat="42.4130767" lon="14.2470233"><ele>106.0</ele><time>2026-05-01T07:39:56.279Z</time></trkpt><trkpt lat="42.413195" lon="14.2469533"><ele>106.50000000000001</ele><time>2026-05-01T07:39:58.279Z</time></trkpt><trkpt lat="42.41326" lon="14.2469167"><ele>107.0</ele><time>2026-05-01T07:39:59.279Z</time></trkpt><trkpt lat="42.4133667" lon="14.2468517"><ele>107.5</ele><time>2026-05-01T07:40:01.279Z</time></trkpt><trkpt lat="42.4134583" lon="14.246805"><ele>108.0</ele><time>2026-05-01T07:40:03.279Z</time></trkpt><trkpt lat="42.4135333" lon="14.2467717"><ele>108.50000000000001</ele><time>2026-05-01T07:40:05.279Z</time></trkpt><trkpt lat="42.4135983" lon="14.2467217"><ele>109.0</ele><time>2026-05-01T07:40:07.279Z</time></trkpt><trkpt lat="42.4136467" lon="14.2466483"><ele>109.0</ele><time>2026-05-01T07:40:09.279Z</time></trkpt><trkpt lat="42.4136967" lon="14.246505"><ele>109.0</ele><time>2026-05-01T07:40:19.279Z</time></trkpt><trkpt lat="42.41374" lon="14.2463867"><ele>109.0</ele><time>2026-05-01T07:40:21.279Z</time></trkpt><trkpt lat="42.4137667" lon="14.246255"><ele>109.0</ele><time>2026-05-01T07:40:23.279Z</time></trkpt><trkpt lat="42.4137833" lon="14.246105"><ele>109.0</ele><time>2026-05-01T07:40:25.279Z</time></trkpt><trkpt lat="42.4138" lon="14.2459383"><ele>110.16666666666667</ele><time>2026-05-01T07:40:27.279Z</time></trkpt><trkpt lat="42.4137983" lon="14.24585"><ele>111.33333333333334</ele><time>2026-05-01T07:40:28.279Z</time></trkpt><trkpt lat="42.4137933" lon="14.2457583"><ele>112.5</ele><time>2026-05-01T07:40:29.279Z</time></trkpt><trkpt lat="42.41378" lon="14.2456717"><ele>113.66666666666666</ele><time>2026-05-01T07:40:30.279Z</time></trkpt><trkpt lat="42.4137367" lon="14.2455183"><ele>114.83333333333333</ele><time>2026-05-01T07:40:32.28Z</time></trkpt><trkpt lat="42.4136833" lon="14.2453717"><ele>116.0</ele><time>2026-05-01T07:40:34.279Z</time></trkpt><trkpt lat="42.4136467" lon="14.24529"><ele>117.0</ele><time>2026-05-01T07:40:35.279Z</time></trkpt><trkpt lat="42.4135967" lon="14.24515"><ele>118.0</ele><time>2026-05-01T07:40:37.279Z</time></trkpt><trkpt lat="42.41356" lon="14.245035"><ele>119.0</ele><time>2026-05-01T07:40:39.279Z</time></trkpt><trkpt lat="42.4135367" lon="14.2448833"><ele>120.0</ele><time>2026-05-01T07:40:41.279Z</time></trkpt><trkpt lat="42.4135317" lon="14.244785"><ele>121.0</ele><time>2026-05-01T07:40:42.279Z</time></trkpt><trkpt lat="42.4135217" lon="14.2446817"><ele>121.28571428571428</ele><time>2026-05-01T07:40:43.279Z</time></trkpt><trkpt lat="42.4135067" lon="14.2445867"><ele>121.57142857142856</ele><time>2026-05-01T07:40:44.279Z</time></trkpt><trkpt lat="42.41348" lon="14.2444833"><ele>121.85714285714286</ele><time>2026-05-01T07:40:45.28Z</time></trkpt><trkpt lat="42.4134483" lon="14.2444067"><ele>122.14285714285714</ele><time>2026-05-01T07:40:46.279Z</time></trkpt><trkpt lat="42.4134167" lon="14.2443283"><ele>122.42857142857143</ele><time>2026-05-01T07:40:47.279Z</time></trkpt><trkpt lat="42.4133833" lon="14.2442483"><ele>122.71428571428572</ele><time>2026-05-01T07:40:48.279Z</time></trkpt><trkpt lat="42.413355" lon="14.2441717"><ele>123.00000000000001</ele><time>2026-05-01T07:40:49.279Z</time></trkpt><trkpt lat="42.41332" lon="14.2440933"><ele>122.0</ele><time>2026-05-01T07:40:50.28Z</time></trkpt><trkpt lat="42.413265" lon="14.2439517"><ele>121.0</ele><time>2026-05-01T07:40:52.279Z</time></trkpt><trkpt lat="42.4132067" lon="14.243815"><ele>120.0</ele><time>2026-05-01T07:40:54.279Z</time></trkpt><trkpt lat="42.41317" lon="14.24373"><ele>119.0</ele><time>2026-05-01T07:40:55.279Z</time></trkpt><trkpt lat="42.4131483" lon="14.2436417"><ele>118.0</ele><time>2026-05-01T07:40:56.279Z</time></trkpt><trkpt lat="42.4131333" lon="14.2435583"><ele>117.0</ele><time>2026-05-01T07:40:57.279Z</time></trkpt><trkpt lat="42.4131117" lon="14.2434633"><ele>117.0</ele><time>2026-05-01T07:40:58.279Z</time></trkpt><trkpt lat="42.4130933" lon="14.2433633"><ele>117.0</ele><time>2026-05-01T07:40:59.279Z</time></trkpt><trkpt lat="42.4130817" lon="14.2432517"><ele>117.0</ele><time>2026-05-01T07:41:00.279Z</time></trkpt><trkpt lat="42.4130733" lon="14.243125"><ele>117.0</ele><time>2026-05-01T07:41:01.279Z</time></trkpt><trkpt lat="42.4130733" lon="14.2429983"><ele>117.0</ele><time>2026-05-01T07:41:02.279Z</time></trkpt><trkpt lat="42.4130767" lon="14.2428683"><ele>117.0</ele><time>2026-05-01T07:41:03.279Z</time></trkpt><trkpt lat="42.4130883" lon="14.24275"><ele>116.0</ele><time>2026-05-01T07:41:04.28Z</time></trkpt><trkpt lat="42.4130883" lon="14.24263"><ele>114.99999999999999</ele><time>2026-05-01T07:41:05.279Z</time></trkpt><trkpt lat="42.413065" lon="14.2425083"><ele>113.99999999999999</ele><time>2026-05-01T07:41:06.279Z</time></trkpt><trkpt lat="42.4130333" lon="14.24239"><ele>113.0</ele><time>2026-05-01T07:41:07.279Z</time></trkpt><trkpt lat="42.412995" lon="14.2422733"><ele>112.0</ele><time>2026-05-01T07:41:08.279Z</time></trkpt><trkpt lat="42.41295" lon="14.24216"><ele>115.6</ele><time>2026-05-01T07:41:09.279Z</time></trkpt><trkpt lat="42.412905" lon="14.2420383"><ele>119.19999999999999</ele><time>2026-05-01T07:41:10.279Z</time></trkpt><trkpt lat="42.41286" lon="14.2419033"><ele>122.8</ele><time>2026-05-01T07:41:11.28Z</time></trkpt><trkpt lat="42.4128167" lon="14.24178"><ele>126.4</ele><time>2026-05-01T07:41:12.28Z</time></trkpt><trkpt lat="42.41278" lon="14.2416767"><ele>130.0</ele><time>2026-05-01T07:41:13.279Z</time></trkpt><trkpt lat="42.412735" lon="14.2415633"><ele>128.0</ele><time>2026-05-01T07:41:14.279Z</time></trkpt><trkpt lat="42.412695" lon="14.2414417"><ele>126.0</ele><time>2026-05-01T07:41:15.279Z</time></trkpt><trkpt lat="42.4126617" lon="14.241335"><ele>124.0</ele><time>2026-05-01T07:41:16.279Z</time></trkpt><trkpt lat="42.4126283" lon="14.2412433"><ele>122.0</ele><time>2026-05-01T07:41:17.279Z</time></trkpt><trkpt lat="42.4125917" lon="14.2411633"><ele>120.00000000000001</ele><time>2026-05-01T07:41:18.279Z</time></trkpt><trkpt lat="42.41255" lon="14.24109"><ele>118.0</ele><time>2026-05-01T07:41:19.279Z</time></trkpt><trkpt lat="42.4124683" lon="14.2409767"><ele>118.00000000000001</ele><time>2026-05-01T07:41:21.279Z</time></trkpt><trkpt lat="42.4124233" lon="14.2409083"><ele>118.0</ele><time>2026-05-01T07:41:22.279Z</time></trkpt><trkpt lat="42.4123633" lon="14.2408383"><ele>118.0</ele><time>2026-05-01T07:41:23.279Z</time></trkpt><trkpt lat="42.4123033" lon="14.2407617"><ele>118.0</ele><time>2026-05-01T07:41:24.279Z</time></trkpt><trkpt lat="42.4122517" lon="14.24069"><ele>118.00000000000001</ele><time>2026-05-01T07:41:25.279Z</time></trkpt><trkpt lat="42.4121667" lon="14.24058"><ele>118.0</ele><time>2026-05-01T07:41:27.279Z</time></trkpt><trkpt lat="42.4120617" lon="14.2404833"><ele>119.16666666666667</ele><time>2026-05-01T07:41:29.279Z</time></trkpt><trkpt lat="42.4120033" lon="14.24044"><ele>120.33333333333334</ele><time>2026-05-01T07:41:30.279Z</time></trkpt><trkpt lat="42.4119333" lon="14.2403967"><ele>121.5</ele><time>2026-05-01T07:41:32.279Z</time></trkpt><trkpt lat="42.4118833" lon="14.2403333"><ele>122.66666666666666</ele><time>2026-05-01T07:41:35.279Z</time></trkpt><trkpt lat="42.4118167" lon="14.2402017"><ele>123.83333333333333</ele><time>2026-05-01T07:41:47.279Z</time></trkpt><trkpt lat="42.4117883" lon="14.2401233"><ele>125.0</ele><time>2026-05-01T07:41:49.279Z</time></trkpt><trkpt lat="42.41175" lon="14.2400417"><ele>125.0</ele><time>2026-05-01T07:41:51.279Z</time></trkpt><trkpt lat="42.4117083" lon="14.2399333"><ele>125.0</ele><time>2026-05-01T07:41:53.279Z</time></trkpt><trkpt lat="42.41165" lon="14.2397967"><ele>125.0</ele><time>2026-05-01T07:41:55.279Z</time></trkpt><trkpt lat="42.4115983" lon="14.2396583"><ele>125.0</ele><time>2026-05-01T07:41:57.279Z</time></trkpt><trkpt lat="42.4115683" lon="14.23957"><ele>125.0</ele><time>2026-05-01T07:41:58.279Z</time></trkpt><trkpt lat="42.411535" lon="14.2394667"><ele>123.66666666666666</ele><time>2026-05-01T07:41:59.279Z</time></trkpt><trkpt lat="42.4115067" lon="14.23938"><ele>122.33333333333333</ele><time>2026-05-01T07:42:00.279Z</time></trkpt><trkpt lat="42.41148" lon="14.2392933"><ele>121.0</ele><time>2026-05-01T07:42:01.279Z</time></trkpt><trkpt lat="42.411445" lon="14.2392033"><ele>119.66666666666666</ele><time>2026-05-01T07:42:02.28Z</time></trkpt><trkpt lat="42.4114067" lon="14.2391117"><ele>118.33333333333333</ele><time>2026-05-01T07:42:03.279Z</time></trkpt><trkpt lat="42.4113667" lon="14.2390167"><ele>117.0</ele><time>2026-05-01T07:42:04.279Z</time></trkpt><trkpt lat="42.411325" lon="14.2389133"><ele>122.0</ele><time>2026-05-01T07:42:05.279Z</time></trkpt><trkpt lat="42.4112717" lon="14.2387983"><ele>126.99999999999999</ele><time>2026-05-01T07:42:06.28Z</time></trkpt><trkpt lat="42.41122" lon="14.2386917"><ele>132.0</ele><time>2026-05-01T07:42:07.279Z</time></trkpt><trkpt lat="42.4111683" lon="14.2385817"><ele>137.0</ele><time>2026-05-01T07:42:08.279Z</time></trkpt><trkpt lat="42.4111183" lon="14.2384717"><ele>142.0</ele><time>2026-05-01T07:42:09.279Z</time></trkpt><trkpt lat="42.411065" lon="14.2383567"><ele>142.0</ele><time>2026-05-01T07:42:10.279Z</time></trkpt><trkpt lat="42.411015" lon="14.2382483"><ele>142.0</ele><time>2026-05-01T07:42:11.279Z</time></trkpt><trkpt lat="42.4109733" lon="14.23815"><ele>142.0</ele><time>2026-05-01T07:42:12.28Z</time></trkpt><trkpt lat="42.410935" lon="14.2380633"><ele>142.0</ele><time>2026-05-01T07:42:13.279Z</time></trkpt><trkpt lat="42.410905" lon="14.237975"><ele>142.0</ele><time>2026-05-01T07:42:14.279Z</time></trkpt><trkpt lat="42.410875" lon="14.237885"><ele>142.0</ele><time>2026-05-01T07:42:15.279Z</time></trkpt><trkpt lat="42.410845" lon="14.2377883"><ele>142.0</ele><time>2026-05-01T07:42:16.279Z</time></trkpt><trkpt lat="42.4108167" lon="14.2377017"><ele>142.0</ele><time>2026-05-01T07:42:17.279Z</time></trkpt><trkpt lat="42.41079" lon="14.2376217"><ele>142.0</ele><time>2026-05-01T07:42:18.279Z</time></trkpt><trkpt lat="42.410735" lon="14.23749"><ele>142.0</ele><time>2026-05-01T07:42:20.279Z</time></trkpt><trkpt lat="42.4106583" lon="14.2373567"><ele>142.0</ele><time>2026-05-01T07:42:22.279Z</time></trkpt><trkpt lat="42.4106183" lon="14.237285"><ele>142.0</ele><time>2026-05-01T07:42:23.279Z</time></trkpt><trkpt lat="42.410575" lon="14.237215"><ele>143.83333333333334</ele><time>2026-05-01T07:42:24.279Z</time></trkpt><trkpt lat="42.4105067" lon="14.237105"><ele>145.66666666666669</ele><time>2026-05-01T07:42:26.279Z</time></trkpt><trkpt lat="42.4104533" lon="14.2369933"><ele>147.5</ele><time>2026-05-01T07:42:28.279Z</time></trkpt><trkpt lat="42.4104217" lon="14.236915"><ele>149.33333333333334</ele><time>2026-05-01T07:42:29.28Z</time></trkpt><trkpt lat="42.4103933" lon="14.236835"><ele>151.16666666666666</ele><time>2026-05-01T07:42:30.279Z</time></trkpt><trkpt lat="42.4103617" lon="14.2367533"><ele>153.0</ele><time>2026-05-01T07:42:31.279Z</time></trkpt><trkpt lat="42.41033" lon="14.2366633"><ele>153.0</ele><time>2026-05-01T07:42:32.279Z</time></trkpt><trkpt lat="42.4103" lon="14.236585"><ele>153.0</ele><time>2026-05-01T07:42:33.28Z</time></trkpt><trkpt lat="42.4102633" lon="14.236515"><ele>153.0</ele><time>2026-05-01T07:42:34.279Z</time></trkpt><trkpt lat="42.410195" lon="14.236375"><ele>153.0</ele><time>2026-05-01T07:42:36.279Z</time></trkpt><trkpt lat="42.4101533" lon="14.2363033"><ele>153.0</ele><time>2026-05-01T07:42:37.279Z</time></trkpt><trkpt lat="42.41007" lon="14.2361867"><ele>153.0</ele><time>2026-05-01T07:42:39.279Z</time></trkpt><trkpt lat="42.4100217" lon="14.2361317"><ele>153.0</ele><time>2026-05-01T07:42:40.279Z</time></trkpt><trkpt lat="42.4099667" lon="14.2360767"><ele>153.0</ele><time>2026-05-01T07:42:41.279Z</time></trkpt><trkpt lat="42.4099117" lon="14.23602"><ele>153.0</ele><time>2026-05-01T07:42:42.279Z</time></trkpt><trkpt lat="42.4098533" lon="14.2359617"><ele>153.0</ele><time>2026-05-01T07:42:43.279Z</time></trkpt><trkpt lat="42.409805" lon="14.235895"><ele>153.0</ele><time>2026-05-01T07:42:44.279Z</time></trkpt><trkpt lat="42.4097467" lon="14.23583"><ele>153.0</ele><time>2026-05-01T07:42:45.279Z</time></trkpt><trkpt lat="42.4096967" lon="14.235765"><ele>153.0</ele><time>2026-05-01T07:42:46.279Z</time></trkpt><trkpt lat="42.40964" lon="14.235695"><ele>152.16666666666666</ele><time>2026-05-01T07:42:47.279Z</time></trkpt><trkpt lat="42.4095867" lon="14.2356283"><ele>151.33333333333334</ele><time>2026-05-01T07:42:48.279Z</time></trkpt><trkpt lat="42.40949" lon="14.2355033"><ele>150.5</ele><time>2026-05-01T07:42:50.279Z</time></trkpt><trkpt lat="42.409435" lon="14.235435"><ele>149.66666666666669</ele><time>2026-05-01T07:42:51.28Z</time></trkpt><trkpt lat="42.409375" lon="14.2353617"><ele>148.83333333333334</ele><time>2026-05-01T07:42:52.279Z</time></trkpt><trkpt lat="42.4093183" lon="14.2352883"><ele>148.0</ele><time>2026-05-01T07:42:53.279Z</time></trkpt><trkpt lat="42.40927" lon="14.2352317"><ele>148.0</ele><time>2026-05-01T07:42:54.279Z</time></trkpt><trkpt lat="42.4092083" lon="14.235155"><ele>148.0</ele><time>2026-05-01T07:42:56.279Z</time></trkpt><trkpt lat="42.4091367" lon="14.235065"><ele>148.0</ele><time>2026-05-01T07:42:58.279Z</time></trkpt><trkpt lat="42.4090617" lon="14.2349717"><ele>148.0</ele><time>2026-05-01T07:43:00.279Z</time></trkpt><trkpt lat="42.40903" lon="14.2348817"><ele>148.0</ele><time>2026-05-01T07:43:02.279Z</time></trkpt><trkpt lat="42.4090167" lon="14.2347633"><ele>148.0</ele><time>2026-05-01T07:43:05.279Z</time></trkpt><trkpt lat="42.4089717" lon="14.2346867"><ele>149.6</ele><time>2026-05-01T07:43:07.279Z</time></trkpt><trkpt lat="42.4088917" lon="14.2346233"><ele>151.20000000000002</ele><time>2026-05-01T07:43:09.279Z</time></trkpt><trkpt lat="42.4087867" lon="14.2345233"><ele>152.8</ele><time>2026-05-01T07:43:11.279Z</time></trkpt><trkpt lat="42.4086817" lon="14.2344067"><ele>154.4</ele><time>2026-05-01T07:43:13.279Z</time></trkpt><trkpt lat="42.408615" lon="14.2343217"><ele>156.0</ele><time>2026-05-01T07:43:14.279Z</time></trkpt><trkpt lat="42.4085517" lon="14.2342433"><ele>156.0</ele><time>2026-05-01T07:43:15.279Z</time></trkpt><trkpt lat="42.4085017" lon="14.2341667"><ele>156.0</ele><time>2026-05-01T07:43:16.279Z</time></trkpt><trkpt lat="42.408425" lon="14.2340767"><ele>156.0</ele><time>2026-05-01T07:43:17.279Z</time></trkpt><trkpt lat="42.408365" lon="14.2339967"><ele>156.0</ele><time>2026-05-01T07:43:18.279Z</time></trkpt><trkpt lat="42.408315" lon="14.2339017"><ele>156.0</ele><time>2026-05-01T07:43:19.279Z</time></trkpt><trkpt lat="42.4082683" lon="14.2337933"><ele>156.0</ele><time>2026-05-01T07:43:20.279Z</time></trkpt><trkpt lat="42.4082283" lon="14.2336767"><ele>154.8</ele><time>2026-05-01T07:43:21.279Z</time></trkpt><trkpt lat="42.4081883" lon="14.23356"><ele>153.6</ele><time>2026-05-01T07:43:22.279Z</time></trkpt><trkpt lat="42.4081517" lon="14.2334433"><ele>152.4</ele><time>2026-05-01T07:43:23.279Z</time></trkpt><trkpt lat="42.4081117" lon="14.233325"><ele>151.2</ele><time>2026-05-01T07:43:24.279Z</time></trkpt><trkpt lat="42.4080633" lon="14.2332067"><ele>150.0</ele><time>2026-05-01T07:43:25.279Z</time></trkpt><trkpt lat="42.4080167" lon="14.2330833"><ele>152.6</ele><time>2026-05-01T07:43:26.279Z</time></trkpt><trkpt lat="42.407965" lon="14.2329733"><ele>155.2</ele><time>2026-05-01T07:43:27.279Z</time></trkpt><trkpt lat="42.407905" lon="14.2328717"><ele>157.8</ele><time>2026-05-01T07:43:28.279Z</time></trkpt><trkpt lat="42.4078383" lon="14.232775"><ele>160.4</ele><time>2026-05-01T07:43:29.279Z</time></trkpt><trkpt lat="42.40777" lon="14.232675"><ele>163.0</ele><time>2026-05-01T07:43:30.279Z</time></trkpt><trkpt lat="42.4076983" lon="14.232585"><ele>163.0</ele><time>2026-05-01T07:43:31.279Z</time></trkpt><trkpt lat="42.4076283" lon="14.232485"><ele>163.0</ele><time>2026-05-01T07:43:32.279Z</time></trkpt><trkpt lat="42.4075583" lon="14.2323867"><ele>163.0</ele><time>2026-05-01T07:43:33.279Z</time></trkpt><trkpt lat="42.4074917" lon="14.2322883"><ele>163.0</ele><time>2026-05-01T07:43:34.279Z</time></trkpt><trkpt lat="42.4074083" lon="14.2321717"><ele>163.0</ele><time>2026-05-01T07:43:35.279Z</time></trkpt><trkpt lat="42.4073317" lon="14.23206"><ele>164.0</ele><time>2026-05-01T07:43:36.279Z</time></trkpt><trkpt lat="42.407275" lon="14.2319517"><ele>165.0</ele><time>2026-05-01T07:43:37.279Z</time></trkpt><trkpt lat="42.407225" lon="14.2318467"><ele>166.0</ele><time>2026-05-01T07:43:38.279Z</time></trkpt><trkpt lat="42.407175" lon="14.23175"><ele>167.0</ele><time>2026-05-01T07:43:39.279Z</time></trkpt><trkpt lat="42.4071367" lon="14.231665"><ele>168.0</ele><time>2026-05-01T07:43:40.279Z</time></trkpt><trkpt lat="42.4071083" lon="14.231575"><ele>169.0</ele><time>2026-05-01T07:43:41.279Z</time></trkpt><trkpt lat="42.4070983" lon="14.231475"><ele>168.5</ele><time>2026-05-01T07:43:42.279Z</time></trkpt><trkpt lat="42.4070867" lon="14.2313817"><ele>168.0</ele><time>2026-05-01T07:43:43.279Z</time></trkpt><trkpt lat="42.4070683" lon="14.2312967"><ele>167.5</ele><time>2026-05-01T07:43:44.28Z</time></trkpt><trkpt lat="42.4070267" lon="14.23121"><ele>167.0</ele><time>2026-05-01T07:43:45.279Z</time></trkpt><trkpt lat="42.4069683" lon="14.2311167"><ele>166.5</ele><time>2026-05-01T07:43:46.279Z</time></trkpt><trkpt lat="42.4069083" lon="14.2310233"><ele>166.0</ele><time>2026-05-01T07:43:47.279Z</time></trkpt><trkpt lat="42.4068667" lon="14.230955"><ele>166.0</ele><time>2026-05-01T07:43:48.279Z</time></trkpt><trkpt lat="42.4068133" lon="14.2308817"><ele>166.0</ele><time>2026-05-01T07:43:49.28Z</time></trkpt><trkpt lat="42.4067317" lon="14.2308017"><ele>166.0</ele><time>2026-05-01T07:43:50.279Z</time></trkpt><trkpt lat="42.4066517" lon="14.2307217"><ele>166.0</ele><time>2026-05-01T07:43:51.279Z</time></trkpt><trkpt lat="42.4065717" lon="14.230635"><ele>166.0</ele><time>2026-05-01T07:43:52.279Z</time></trkpt><trkpt lat="42.406495" lon="14.2305483"><ele>166.66666666666669</ele><time>2026-05-01T07:43:53.279Z</time></trkpt><trkpt lat="42.406425" lon="14.23046"><ele>167.33333333333334</ele><time>2026-05-01T07:43:54.28Z</time></trkpt><trkpt lat="42.4063633" lon="14.2303733"><ele>168.0</ele><time>2026-05-01T07:43:55.279Z</time></trkpt><trkpt lat="42.4063033" lon="14.2302883"><ele>168.66666666666666</ele><time>2026-05-01T07:43:56.28Z</time></trkpt><trkpt lat="42.4062433" lon="14.2301967"><ele>169.33333333333331</ele><time>2026-05-01T07:43:57.279Z</time></trkpt><trkpt lat="42.4061883" lon="14.230115"><ele>170.0</ele><time>2026-05-01T07:43:58.279Z</time></trkpt><trkpt lat="42.40614" lon="14.2300333"><ele>170.0</ele><time>2026-05-01T07:43:59.279Z</time></trkpt><trkpt lat="42.4060917" lon="14.2299583"><ele>170.0</ele><time>2026-05-01T07:44:00.279Z</time></trkpt><trkpt lat="42.406045" lon="14.22989"><ele>170.0</ele><time>2026-05-01T07:44:01.279Z</time></trkpt><trkpt lat="42.40597" lon="14.2297817"><ele>170.0</ele><time>2026-05-01T07:44:03.28Z</time></trkpt><trkpt lat="42.4058917" lon="14.2297217"><ele>170.0</ele><time>2026-05-01T07:44:05.279Z</time></trkpt><trkpt lat="42.4057517" lon="14.2296433"><ele>170.6</ele><time>2026-05-01T07:45:01.28Z</time></trkpt><trkpt lat="42.4057017" lon="14.2295893"><ele>171.2</ele><time>2026-05-01T07:45:06.302Z</time></trkpt><trkpt lat="42.405588" lon="14.2295545"><ele>171.8</ele><time>2026-05-01T07:45:10.343Z</time></trkpt><trkpt lat="42.4055197" lon="14.229532"><ele>172.4</ele><time>2026-05-01T07:45:11.3Z</time></trkpt><trkpt lat="42.405457" lon="14.2294712"><ele>173.0</ele><time>2026-05-01T07:45:13.426Z</time></trkpt><trkpt lat="42.405375" lon="14.2293183"><ele>173.0</ele><time>2026-05-01T07:45:15.279Z</time></trkpt><trkpt lat="42.4053417" lon="14.22924"><ele>173.0</ele><time>2026-05-01T07:45:16.279Z</time></trkpt><trkpt lat="42.40527" lon="14.2290917"><ele>173.0</ele><time>2026-05-01T07:45:18.279Z</time></trkpt><trkpt lat="42.405215" lon="14.228995"><ele>173.0</ele><time>2026-05-01T07:45:19.279Z</time></trkpt><trkpt lat="42.4051533" lon="14.2288983"><ele>173.0</ele><time>2026-05-01T07:45:20.279Z</time></trkpt><trkpt lat="42.4050967" lon="14.2288017"><ele>170.8</ele><time>2026-05-01T07:45:21.279Z</time></trkpt><trkpt lat="42.405045" lon="14.228705"><ele>168.60000000000002</ele><time>2026-05-01T07:45:22.279Z</time></trkpt><trkpt lat="42.40499" lon="14.22863"><ele>166.39999999999998</ele><time>2026-05-01T07:45:23.279Z</time></trkpt><trkpt lat="42.40494" lon="14.2285583"><ele>164.2</ele><time>2026-05-01T07:45:24.279Z</time></trkpt><trkpt lat="42.4048717" lon="14.22844"><ele>162.0</ele><time>2026-05-01T07:45:26.279Z</time></trkpt><trkpt lat="42.4048217" lon="14.2283067"><ele>163.66666666666666</ele><time>2026-05-01T07:45:28.279Z</time></trkpt><trkpt lat="42.40478" lon="14.22814"><ele>165.33333333333334</ele><time>2026-05-01T07:45:30.279Z</time></trkpt><trkpt lat="42.404755" lon="14.2280483"><ele>167.0</ele><time>2026-05-01T07:45:31.279Z</time></trkpt><trkpt lat="42.4047317" lon="14.227955"><ele>168.66666666666669</ele><time>2026-05-01T07:45:32.28Z</time></trkpt><trkpt lat="42.4047033" lon="14.2278633"><ele>170.33333333333334</ele><time>2026-05-01T07:45:33.279Z</time></trkpt><trkpt lat="42.4046733" lon="14.2277633"><ele>172.0</ele><time>2026-05-01T07:45:34.279Z</time></trkpt><trkpt lat="42.404645" lon="14.2276733"><ele>172.0</ele><time>2026-05-01T07:45:35.279Z</time></trkpt><trkpt lat="42.4046083" lon="14.22758"><ele>172.0</ele><time>2026-05-01T07:45:36.279Z</time></trkpt><trkpt lat="42.4045667" lon="14.2274767"><ele>172.0</ele><time>2026-05-01T07:45:37.279Z</time></trkpt><trkpt lat="42.4045183" lon="14.2273783"><ele>172.0</ele><time>2026-05-01T07:45:38.279Z</time></trkpt><trkpt lat="42.404465" lon="14.2272833"><ele>172.0</ele><time>2026-05-01T07:45:39.279Z</time></trkpt><trkpt lat="42.4044267" lon="14.22721"><ele>172.0</ele><time>2026-05-01T07:45:40.279Z</time></trkpt><trkpt lat="42.40439" lon="14.2271333"><ele>169.0</ele><time>2026-05-01T07:45:41.279Z</time></trkpt><trkpt lat="42.4043433" lon="14.22701"><ele>166.0</ele><time>2026-05-01T07:45:43.28Z</time></trkpt><trkpt lat="42.40432" lon="14.2268733"><ele>163.0</ele><time>2026-05-01T07:45:45.279Z</time></trkpt><trkpt lat="42.4042883" lon="14.2267267"><ele>160.0</ele><time>2026-05-01T07:45:47.279Z</time></trkpt><trkpt lat="42.4042517" lon="14.226595"><ele>157.0</ele><time>2026-05-01T07:45:49.279Z</time></trkpt><trkpt lat="42.4041983" lon="14.22651"><ele>155.66666666666669</ele><time>2026-05-01T07:45:51.279Z</time></trkpt><trkpt lat="42.4041083" lon="14.2264417"><ele>154.33333333333334</ele><time>2026-05-01T07:45:53.279Z</time></trkpt><trkpt lat="42.4040517" lon="14.2263967"><ele>153.0</ele><time>2026-05-01T07:45:54.279Z</time></trkpt><trkpt lat="42.4040033" lon="14.2263333"><ele>151.66666666666666</ele><time>2026-05-01T07:45:55.279Z</time></trkpt><trkpt lat="42.40391" lon="14.2262067"><ele>150.33333333333331</ele><time>2026-05-01T07:45:57.279Z</time></trkpt><trkpt lat="42.4038583" lon="14.226125"><ele>149.0</ele><time>2026-05-01T07:45:58.279Z</time></trkpt><trkpt lat="42.40381" lon="14.2260567"><ele>152.14285714285714</ele><time>2026-05-01T07:45:59.279Z</time></trkpt><trkpt lat="42.4037617" lon="14.22598"><ele>155.28571428571428</ele><time>2026-05-01T07:46:00.279Z</time></trkpt><trkpt lat="42.4037167" lon="14.2259"><ele>158.42857142857142</ele><time>2026-05-01T07:46:01.279Z</time></trkpt><trkpt lat="42.4036817" lon="14.22582"><ele>161.57142857142856</ele><time>2026-05-01T07:46:02.279Z</time></trkpt><trkpt lat="42.4036533" lon="14.225735"><ele>164.71428571428572</ele><time>2026-05-01T07:46:03.279Z</time></trkpt><trkpt lat="42.4036283" lon="14.2256517"><ele>167.85714285714283</ele><time>2026-05-01T07:46:04.279Z</time></trkpt><trkpt lat="42.403605" lon="14.2255633"><ele>171.0</ele><time>2026-05-01T07:46:05.279Z</time></trkpt><trkpt lat="42.403575" lon="14.2254683"><ele>171.0</ele><time>2026-05-01T07:46:06.279Z</time></trkpt><trkpt lat="42.4035467" lon="14.225365"><ele>171.0</ele><time>2026-05-01T07:46:07.279Z</time></trkpt><trkpt lat="42.4035283" lon="14.22524"><ele>171.0</ele><time>2026-05-01T07:46:08.279Z</time></trkpt><trkpt lat="42.40351" lon="14.2251117"><ele>171.0</ele><time>2026-05-01T07:46:09.279Z</time></trkpt><trkpt lat="42.4034967" lon="14.22499"><ele>171.0</ele><time>2026-05-01T07:46:10.279Z</time></trkpt><trkpt lat="42.4034883" lon="14.2248767"><ele>171.0</ele><time>2026-05-01T07:46:11.279Z</time></trkpt><trkpt lat="42.4034633" lon="14.22477"><ele>169.33333333333334</ele><time>2026-05-01T07:46:12.279Z</time></trkpt><trkpt lat="42.403435" lon="14.22468"><ele>167.66666666666666</ele><time>2026-05-01T07:46:13.279Z</time></trkpt><trkpt lat="42.4033967" lon="14.224585"><ele>166.0</ele><time>2026-05-01T07:46:14.279Z</time></trkpt><trkpt lat="42.4033517" lon="14.2245117"><ele>164.33333333333331</ele><time>2026-05-01T07:46:15.279Z</time></trkpt><trkpt lat="42.403315" lon="14.2244383"><ele>162.66666666666666</ele><time>2026-05-01T07:46:16.279Z</time></trkpt><trkpt lat="42.4032583" lon="14.2243033"><ele>161.0</ele><time>2026-05-01T07:46:18.279Z</time></trkpt><trkpt lat="42.4031867" lon="14.224155"><ele>161.0</ele><time>2026-05-01T07:46:20.279Z</time></trkpt><trkpt lat="42.4031517" lon="14.2240833"><ele>161.0</ele><time>2026-05-01T07:46:21.28Z</time></trkpt><trkpt lat="42.40307" lon="14.2239767"><ele>161.0</ele><time>2026-05-01T07:46:23.279Z</time></trkpt><trkpt lat="42.40298" lon="14.2239"><ele>161.0</ele><time>2026-05-01T07:46:25.279Z</time></trkpt><trkpt lat="42.402855" lon="14.2238783"><ele>161.0</ele><time>2026-05-01T07:46:27.279Z</time></trkpt><trkpt lat="42.40278" lon="14.2238783"><ele>162.20000000000002</ele><time>2026-05-01T07:46:28.279Z</time></trkpt><trkpt lat="42.4027117" lon="14.223875"><ele>163.4</ele><time>2026-05-01T07:46:29.279Z</time></trkpt><trkpt lat="42.4026183" lon="14.2238067"><ele>164.6</ele><time>2026-05-01T07:46:31.279Z</time></trkpt><trkpt lat="42.4025167" lon="14.2236933"><ele>165.8</ele><time>2026-05-01T07:46:33.279Z</time></trkpt><trkpt lat="42.4024533" lon="14.223625"><ele>167.0</ele><time>2026-05-01T07:46:34.279Z</time></trkpt><trkpt lat="42.4023883" lon="14.2235467"><ele>167.0</ele><time>2026-05-01T07:46:35.279Z</time></trkpt><trkpt lat="42.402325" lon="14.22348"><ele>167.0</ele><time>2026-05-01T07:46:36.28Z</time></trkpt><trkpt lat="42.4022683" lon="14.2234217"><ele>167.0</ele><time>2026-05-01T07:46:37.279Z</time></trkpt><trkpt lat="42.402165" lon="14.2233783"><ele>167.0</ele><time>2026-05-01T07:46:39.28Z</time></trkpt><trkpt lat="42.402045" lon="14.223425"><ele>167.0</ele><time>2026-05-01T07:46:41.279Z</time></trkpt><trkpt lat="42.4019783" lon="14.22348"><ele>169.8</ele><time>2026-05-01T07:46:42.279Z</time></trkpt><trkpt lat="42.4018517" lon="14.22359"><ele>172.6</ele><time>2026-05-01T07:46:44.279Z</time></trkpt><trkpt lat="42.4017633" lon="14.2236433"><ele>175.4</ele><time>2026-05-01T07:46:45.279Z</time></trkpt><trkpt lat="42.401675" lon="14.2236917"><ele>178.20000000000002</ele><time>2026-05-01T07:46:46.279Z</time></trkpt><trkpt lat="42.40159" lon="14.2237333"><ele>181.0</ele><time>2026-05-01T07:46:47.279Z</time></trkpt><trkpt lat="42.4015067" lon="14.2237733"><ele>181.0</ele><time>2026-05-01T07:46:48.28Z</time></trkpt><trkpt lat="42.4014333" lon="14.22381"><ele>181.0</ele><time>2026-05-01T07:46:49.279Z</time></trkpt><trkpt lat="42.401365" lon="14.2238417"><ele>181.0</ele><time>2026-05-01T07:46:50.279Z</time></trkpt><trkpt lat="42.4012983" lon="14.22388"><ele>181.0</ele><time>2026-05-01T07:46:51.279Z</time></trkpt><trkpt lat="42.40123" lon="14.22393"><ele>181.0</ele><time>2026-05-01T07:46:52.279Z</time></trkpt><trkpt lat="42.401145" lon="14.2239917"><ele>181.0</ele><time>2026-05-01T07:46:53.279Z</time></trkpt><trkpt lat="42.40106" lon="14.2240583"><ele>182.83333333333334</ele><time>2026-05-01T07:46:54.279Z</time></trkpt><trkpt lat="42.4009683" lon="14.22413"><ele>184.66666666666669</ele><time>2026-05-01T07:46:55.279Z</time></trkpt><trkpt lat="42.40089" lon="14.224185"><ele>186.5</ele><time>2026-05-01T07:46:56.279Z</time></trkpt><trkpt lat="42.400825" lon="14.2242433"><ele>188.33333333333334</ele><time>2026-05-01T07:46:57.279Z</time></trkpt><trkpt lat="42.4007667" lon="14.2242917"><ele>190.16666666666666</ele><time>2026-05-01T07:46:58.279Z</time></trkpt><trkpt lat="42.4006817" lon="14.2243767"><ele>192.0</ele><time>2026-05-01T07:47:00.279Z</time></trkpt><trkpt lat="42.40062" lon="14.2244033"><ele>192.0</ele><time>2026-05-01T07:47:11.279Z</time></trkpt><trkpt lat="42.4005533" lon="14.2243517"><ele>192.0</ele><time>2026-05-01T07:47:13.279Z</time></trkpt><trkpt lat="42.4004767" lon="14.2241933"><ele>192.0</ele><time>2026-05-01T07:47:15.279Z</time></trkpt><trkpt lat="42.400425" lon="14.224095"><ele>192.0</ele><time>2026-05-01T07:47:16.279Z</time></trkpt><trkpt lat="42.400365" lon="14.223985"><ele>192.0</ele><time>2026-05-01T07:47:17.279Z</time></trkpt><trkpt lat="42.400295" lon="14.2238567"><ele>192.5</ele><time>2026-05-01T07:47:18.279Z</time></trkpt><trkpt lat="42.4002217" lon="14.2237267"><ele>193.0</ele><time>2026-05-01T07:47:19.279Z</time></trkpt><trkpt lat="42.400145" lon="14.22361"><ele>193.5</ele><time>2026-05-01T07:47:20.279Z</time></trkpt><trkpt lat="42.4000667" lon="14.2234983"><ele>194.0</ele><time>2026-05-01T07:47:21.279Z</time></trkpt><trkpt lat="42.39999" lon="14.2233933"><ele>194.0</ele><time>2026-05-01T07:47:22.279Z</time></trkpt><trkpt lat="42.39991" lon="14.2232983"><ele>194.0</ele><time>2026-05-01T07:47:23.279Z</time></trkpt><trkpt lat="42.3998283" lon="14.22321"><ele>194.0</ele><time>2026-05-01T07:47:24.279Z</time></trkpt><trkpt lat="42.3997467" lon="14.2231167"><ele>194.0</ele><time>2026-05-01T07:47:25.279Z</time></trkpt><trkpt lat="42.3996667" lon="14.2230233"><ele>194.0</ele><time>2026-05-01T07:47:26.279Z</time></trkpt><trkpt lat="42.399575" lon="14.2229183"><ele>194.0</ele><time>2026-05-01T07:47:27.279Z</time></trkpt><trkpt lat="42.399475" lon="14.2228033"><ele>194.0</ele><time>2026-05-01T07:47:28.28Z</time></trkpt><trkpt lat="42.3993683" lon="14.2226883"><ele>194.0</ele><time>2026-05-01T07:47:29.28Z</time></trkpt><trkpt lat="42.3992617" lon="14.2225683"><ele>194.0</ele><time>2026-05-01T07:47:30.279Z</time></trkpt><trkpt lat="42.3991517" lon="14.2224517"><ele>194.0</ele><time>2026-05-01T07:47:31.279Z</time></trkpt><trkpt lat="42.39905" lon="14.2223333"><ele>194.0</ele><time>2026-05-01T07:47:32.279Z</time></trkpt><trkpt lat="42.3989483" lon="14.2222217"><ele>194.0</ele><time>2026-05-01T07:47:33.279Z</time></trkpt><trkpt lat="42.3988533" lon="14.2221083"><ele>194.0</ele><time>2026-05-01T07:47:34.279Z</time></trkpt><trkpt lat="42.3987633" lon="14.2219933"><ele>194.25</ele><time>2026-05-01T07:47:35.279Z</time></trkpt><trkpt lat="42.3986817" lon="14.2218783"><ele>194.5</ele><time>2026-05-01T07:47:36.28Z</time></trkpt><trkpt lat="42.3986" lon="14.2217533"><ele>194.75</ele><time>2026-05-01T07:47:37.279Z</time></trkpt><trkpt lat="42.3985267" lon="14.2216233"><ele>195.0</ele><time>2026-05-01T07:47:38.28Z</time></trkpt><trkpt lat="42.3984667" lon="14.2215083"><ele>195.66666666666666</ele><time>2026-05-01T07:47:39.279Z</time></trkpt><trkpt lat="42.39842" lon="14.22141"><ele>196.33333333333331</ele><time>2026-05-01T07:47:40.279Z</time></trkpt><trkpt lat="42.3983767" lon="14.2213133"><ele>197.0</ele><time>2026-05-01T07:47:41.279Z</time></trkpt><trkpt lat="42.3983333" lon="14.2212217"><ele>197.66666666666666</ele><time>2026-05-01T07:47:42.279Z</time></trkpt><trkpt lat="42.39829" lon="14.2211383"><ele>198.33333333333331</ele><time>2026-05-01T07:47:43.279Z</time></trkpt><trkpt lat="42.398245" lon="14.2210417"><ele>199.0</ele><time>2026-05-01T07:47:44.279Z</time></trkpt><trkpt lat="42.3981983" lon="14.2209483"><ele>199.0</ele><time>2026-05-01T07:47:45.279Z</time></trkpt><trkpt lat="42.3981617" lon="14.2208667"><ele>199.0</ele><time>2026-05-01T07:47:46.279Z</time></trkpt><trkpt lat="42.3980933" lon="14.22076"><ele>199.0</ele><time>2026-05-01T07:47:48.279Z</time></trkpt><trkpt lat="42.3980233" lon="14.2207883"><ele>199.0</ele><time>2026-05-01T07:47:50.28Z</time></trkpt><trkpt lat="42.39793" lon="14.2209367"><ele>199.0</ele><time>2026-05-01T07:47:52.279Z</time></trkpt><trkpt lat="42.39787" lon="14.221025"><ele>199.0</ele><time>2026-05-01T07:47:53.279Z</time></trkpt><trkpt lat="42.397805" lon="14.2211083"><ele>199.0</ele><time>2026-05-01T07:47:54.279Z</time></trkpt><trkpt lat="42.3977283" lon="14.2211783"><ele>199.0</ele><time>2026-05-01T07:47:55.279Z</time></trkpt><trkpt lat="42.3976567" lon="14.2212667"><ele>199.0</ele><time>2026-05-01T07:47:56.279Z</time></trkpt><trkpt lat="42.3975833" lon="14.2213467"><ele>199.0</ele><time>2026-05-01T07:47:57.279Z</time></trkpt><trkpt lat="42.397515" lon="14.2214183"><ele>198.33333333333331</ele><time>2026-05-01T07:47:58.279Z</time></trkpt><trkpt lat="42.3974317" lon="14.2214967"><ele>197.66666666666666</ele><time>2026-05-01T07:47:59.28Z</time></trkpt><trkpt lat="42.3973583" lon="14.2215733"><ele>197.0</ele><time>2026-05-01T07:48:00.279Z</time></trkpt><trkpt lat="42.3972933" lon="14.221635"><ele>196.33333333333331</ele><time>2026-05-01T07:48:01.279Z</time></trkpt><trkpt lat="42.39723" lon="14.2217167"><ele>195.66666666666666</ele><time>2026-05-01T07:48:02.279Z</time></trkpt><trkpt lat="42.3971683" lon="14.2217967"><ele>195.0</ele><time>2026-05-01T07:48:03.279Z</time></trkpt><trkpt lat="42.3971267" lon="14.2218717"><ele>194.66666666666666</ele><time>2026-05-01T07:48:04.279Z</time></trkpt><trkpt lat="42.397105" lon="14.2219567"><ele>194.33333333333331</ele><time>2026-05-01T07:48:05.28Z</time></trkpt><trkpt lat="42.3971017" lon="14.2220483"><ele>194.0</ele><time>2026-05-01T07:48:06.279Z</time></trkpt><trkpt lat="42.3971167" lon="14.22214"><ele>193.66666666666666</ele><time>2026-05-01T07:48:07.279Z</time></trkpt><trkpt lat="42.397155" lon="14.222235"><ele>193.33333333333331</ele><time>2026-05-01T07:48:08.279Z</time></trkpt><trkpt lat="42.3972117" lon="14.2223483"><ele>193.0</ele><time>2026-05-01T07:48:09.279Z</time></trkpt><trkpt lat="42.39727" lon="14.2224717"><ele>192.99999999999997</ele><time>2026-05-01T07:48:10.279Z</time></trkpt><trkpt lat="42.39733" lon="14.2225833"><ele>193.0</ele><time>2026-05-01T07:48:11.279Z</time></trkpt><trkpt lat="42.3973833" lon="14.2226867"><ele>193.0</ele><time>2026-05-01T07:48:12.279Z</time></trkpt><trkpt lat="42.3974317" lon="14.222775"><ele>193.0</ele><time>2026-05-01T07:48:13.279Z</time></trkpt><trkpt lat="42.3974767" lon="14.2228617"><ele>192.99999999999997</ele><time>2026-05-01T07:48:14.279Z</time></trkpt><trkpt lat="42.3975133" lon="14.2229383"><ele>193.0</ele><time>2026-05-01T07:48:15.279Z</time></trkpt><trkpt lat="42.3975483" lon="14.2230117"><ele>192.99999999999997</ele><time>2026-05-01T07:48:16.279Z</time></trkpt><trkpt lat="42.3975867" lon="14.2230883"><ele>193.0</ele><time>2026-05-01T07:48:17.279Z</time></trkpt><trkpt lat="42.3976217" lon="14.22317"><ele>193.0</ele><time>2026-05-01T07:48:18.279Z</time></trkpt><trkpt lat="42.3976517" lon="14.2232533"><ele>193.0</ele><time>2026-05-01T07:48:19.279Z</time></trkpt><trkpt lat="42.39768" lon="14.2233317"><ele>192.99999999999997</ele><time>2026-05-01T07:48:20.279Z</time></trkpt><trkpt lat="42.3977117" lon="14.2234667"><ele>193.0</ele><time>2026-05-01T07:48:22.279Z</time></trkpt><trkpt lat="42.3976933" lon="14.2236283"><ele>192.49999999999997</ele><time>2026-05-01T07:48:24.279Z</time></trkpt><trkpt lat="42.397675" lon="14.2237183"><ele>192.0</ele><time>2026-05-01T07:48:25.28Z</time></trkpt><trkpt lat="42.3976517" lon="14.22381"><ele>191.5</ele><time>2026-05-01T07:48:26.279Z</time></trkpt><trkpt lat="42.3976317" lon="14.2238917"><ele>191.0</ele><time>2026-05-01T07:48:27.28Z</time></trkpt><trkpt lat="42.3976" lon="14.224055"><ele>190.5</ele><time>2026-05-01T07:48:29.279Z</time></trkpt><trkpt lat="42.3975867" lon="14.22414"><ele>190.0</ele><time>2026-05-01T07:48:30.279Z</time></trkpt><trkpt lat="42.3975667" lon="14.2242933"><ele>188.83333333333334</ele><time>2026-05-01T07:48:32.279Z</time></trkpt><trkpt lat="42.39755" lon="14.2243933"><ele>187.66666666666669</ele><time>2026-05-01T07:48:33.279Z</time></trkpt><trkpt lat="42.3975367" lon="14.22449"><ele>186.5</ele><time>2026-05-01T07:48:34.279Z</time></trkpt><trkpt lat="42.3975183" lon="14.2245867"><ele>185.33333333333334</ele><time>2026-05-01T07:48:35.279Z</time></trkpt><trkpt lat="42.3975" lon="14.22469"><ele>184.16666666666666</ele><time>2026-05-01T07:48:36.279Z</time></trkpt><trkpt lat="42.39749" lon="14.2247933"><ele>183.0</ele><time>2026-05-01T07:48:37.279Z</time></trkpt><trkpt lat="42.3974817" lon="14.2248983"><ele>181.85714285714286</ele><time>2026-05-01T07:48:38.279Z</time></trkpt><trkpt lat="42.39748" lon="14.2250017"><ele>180.71428571428572</ele><time>2026-05-01T07:48:39.279Z</time></trkpt><trkpt lat="42.397485" lon="14.2251"><ele>179.57142857142856</ele><time>2026-05-01T07:48:40.279Z</time></trkpt><trkpt lat="42.397495" lon="14.2251883"><ele>178.42857142857144</ele><time>2026-05-01T07:48:41.279Z</time></trkpt><trkpt lat="42.3975067" lon="14.22528"><ele>177.28571428571428</ele><time>2026-05-01T07:48:42.279Z</time></trkpt><trkpt lat="42.3975283" lon="14.2253733"><ele>176.14285714285714</ele><time>2026-05-01T07:48:43.279Z</time></trkpt><trkpt lat="42.3975417" lon="14.2254667"><ele>175.0</ele><time>2026-05-01T07:48:44.279Z</time></trkpt><trkpt lat="42.39756" lon="14.2255533"><ele>173.16666666666669</ele><time>2026-05-01T07:48:45.279Z</time></trkpt><trkpt lat="42.3975833" lon="14.225695"><ele>171.33333333333334</ele><time>2026-05-01T07:48:47.279Z</time></trkpt><trkpt lat="42.3975817" lon="14.2258067"><ele>169.5</ele><time>2026-05-01T07:48:49.279Z</time></trkpt><trkpt lat="42.3975517" lon="14.225895"><ele>167.66666666666666</ele><time>2026-05-01T07:48:51.279Z</time></trkpt><trkpt lat="42.39749" lon="14.2259467"><ele>165.83333333333331</ele><time>2026-05-01T07:48:53.279Z</time></trkpt><trkpt lat="42.3974183" lon="14.2259017"><ele>164.0</ele><time>2026-05-01T07:48:55.28Z</time></trkpt><trkpt lat="42.397375" lon="14.2258233"><ele>164.0</ele><time>2026-05-01T07:48:57.28Z</time></trkpt><trkpt lat="42.3973467" lon="14.2257433"><ele>164.0</ele><time>2026-05-01T07:48:59.279Z</time></trkpt><trkpt lat="42.397295" lon="14.2256517"><ele>164.0</ele><time>2026-05-01T07:49:02.279Z</time></trkpt><trkpt lat="42.3972417" lon="14.225565"><ele>164.0</ele><time>2026-05-01T07:49:05.279Z</time></trkpt><trkpt lat="42.3971792" lon="14.2254777"><ele>164.0</ele><time>2026-05-01T07:49:08.308Z</time></trkpt><trkpt lat="42.3971214" lon="14.2254016"><ele>164.0</ele><time>2026-05-01T07:49:11.392Z</time></trkpt><trkpt lat="42.3970565" lon="14.2253534"><ele>163.0</ele><time>2026-05-01T07:49:14.279Z</time></trkpt><trkpt lat="42.3969826" lon="14.2253065"><ele>162.0</ele><time>2026-05-01T07:49:17.345Z</time></trkpt><trkpt lat="42.396918" lon="14.2252813"><ele>161.0</ele><time>2026-05-01T07:49:20.322Z</time></trkpt><trkpt lat="42.3968403" lon="14.2252764"><ele>160.0</ele><time>2026-05-01T07:49:23.267Z</time></trkpt><trkpt lat="42.3967655" lon="14.225289"><ele>159.0</ele><time>2026-05-01T07:49:25.319Z</time></trkpt><trkpt lat="42.3966784" lon="14.2252733"><ele>158.0</ele><time>2026-05-01T07:49:28.328Z</time></trkpt><trkpt lat="42.3965798" lon="14.2252946"><ele>158.00000000000003</ele><time>2026-05-01T07:49:31.279Z</time></trkpt><trkpt lat="42.396515" lon="14.225295"><ele>158.0</ele><time>2026-05-01T07:49:33.279Z</time></trkpt><trkpt lat="42.3964517" lon="14.2252817"><ele>158.0</ele><time>2026-05-01T07:49:35.279Z</time></trkpt><trkpt lat="42.3963717" lon="14.225235"><ele>158.0</ele><time>2026-05-01T07:49:38.279Z</time></trkpt><trkpt lat="42.3963117" lon="14.225205"><ele>158.0</ele><time>2026-05-01T07:49:40.279Z</time></trkpt><trkpt lat="42.3962517" lon="14.2251717"><ele>158.00000000000003</ele><time>2026-05-01T07:49:42.279Z</time></trkpt><trkpt lat="42.3961825" lon="14.2251388"><ele>158.0</ele><time>2026-05-01T07:49:44.324Z</time></trkpt><trkpt lat="42.3961233" lon="14.2251024"><ele>153.0</ele><time>2026-05-01T07:49:46.364Z</time></trkpt><trkpt lat="42.3960314" lon="14.225069"><ele>148.0</ele><time>2026-05-01T07:49:49.186Z</time></trkpt><trkpt lat="42.3959283" lon="14.2250299"><ele>143.0</ele><time>2026-05-01T07:49:51.279Z</time></trkpt><trkpt lat="42.3958271" lon="14.2249974"><ele>138.0</ele><time>2026-05-01T07:49:53.279Z</time></trkpt><trkpt lat="42.3957424" lon="14.2249563"><ele>133.0</ele><time>2026-05-01T07:49:55.279Z</time></trkpt><trkpt lat="42.395666" lon="14.2249147"><ele>133.0</ele><time>2026-05-01T07:49:57.278Z</time></trkpt><trkpt lat="42.395604" lon="14.2248899"><ele>133.0</ele><time>2026-05-01T07:49:59.278Z</time></trkpt><trkpt lat="42.3955387" lon="14.2248564"><ele>133.0</ele><time>2026-05-01T07:50:01.278Z</time></trkpt><trkpt lat="42.3954439" lon="14.2247776"><ele>133.0</ele><time>2026-05-01T07:50:05.307Z</time></trkpt><trkpt lat="42.3953817" lon="14.2247583"><ele>133.0</ele><time>2026-05-01T07:50:07.278Z</time></trkpt><trkpt lat="42.395315" lon="14.2247367"><ele>133.0</ele><time>2026-05-01T07:50:09.278Z</time></trkpt><trkpt lat="42.39524" lon="14.2247033"><ele>130.5</ele><time>2026-05-01T07:50:11.278Z</time></trkpt><trkpt lat="42.3951717" lon="14.2246883"><ele>128.0</ele><time>2026-05-01T07:50:13.278Z</time></trkpt><trkpt lat="42.3951017" lon="14.224675"><ele>125.5</ele><time>2026-05-01T07:50:15.278Z</time></trkpt><trkpt lat="42.3950211" lon="14.2246708"><ele>123.0</ele><time>2026-05-01T07:50:17.266Z</time></trkpt><trkpt lat="42.3949255" lon="14.2246607"><ele>120.50000000000001</ele><time>2026-05-01T07:50:19.343Z</time></trkpt><trkpt lat="42.3948033" lon="14.22464"><ele>118.0</ele><time>2026-05-01T07:50:21.278Z</time></trkpt><trkpt lat="42.394695" lon="14.2245983"><ele>115.16666666666667</ele><time>2026-05-01T07:50:23.278Z</time></trkpt><trkpt lat="42.394605" lon="14.2245567"><ele>112.33333333333334</ele><time>2026-05-01T07:50:25.278Z</time></trkpt><trkpt lat="42.3945417" lon="14.224515"><ele>109.5</ele><time>2026-05-01T07:50:27.278Z</time></trkpt><trkpt lat="42.3944833" lon="14.224465"><ele>106.66666666666666</ele><time>2026-05-01T07:50:29.278Z</time></trkpt><trkpt lat="42.3944183" lon="14.2244117"><ele>103.83333333333333</ele><time>2026-05-01T07:50:31.278Z</time></trkpt><trkpt lat="42.39435" lon="14.224345"><ele>101.0</ele><time>2026-05-01T07:50:33.278Z</time></trkpt><trkpt lat="42.3942967" lon="14.2242783"><ele>100.99999999999999</ele><time>2026-05-01T07:50:35.278Z</time></trkpt><trkpt lat="42.39424" lon="14.2241783"><ele>101.0</ele><time>2026-05-01T07:50:38.278Z</time></trkpt><trkpt lat="42.3941933" lon="14.2240917"><ele>101.0</ele><time>2026-05-01T07:50:40.278Z</time></trkpt><trkpt lat="42.394135" lon="14.22401"><ele>101.0</ele><time>2026-05-01T07:50:43.278Z</time></trkpt><trkpt lat="42.3940733" lon="14.2239417"><ele>100.99999999999999</ele><time>2026-05-01T07:50:46.278Z</time></trkpt><trkpt lat="42.3940183" lon="14.2238833"><ele>101.0</ele><time>2026-05-01T07:50:48.278Z</time></trkpt><trkpt lat="42.3939683" lon="14.223825"><ele>101.33333333333333</ele><time>2026-05-01T07:50:50.278Z</time></trkpt><trkpt lat="42.393905" lon="14.22383"><ele>101.66666666666666</ele><time>2026-05-01T07:50:53.279Z</time></trkpt><trkpt lat="42.3938233" lon="14.2238717"><ele>102.0</ele><time>2026-05-01T07:50:56.278Z</time></trkpt><trkpt lat="42.3937417" lon="14.2238733"><ele>102.33333333333334</ele><time>2026-05-01T07:50:58.278Z</time></trkpt><trkpt lat="42.3936517" lon="14.2238767"><ele>102.66666666666667</ele><time>2026-05-01T07:51:00.278Z</time></trkpt><trkpt lat="42.3935683" lon="14.2238867"><ele>103.0</ele><time>2026-05-01T07:51:02.278Z</time></trkpt><trkpt lat="42.3935033" lon="14.2238867"><ele>103.66666666666667</ele><time>2026-05-01T07:51:25.278Z</time></trkpt><trkpt lat="42.39355" lon="14.2240267"><ele>104.33333333333334</ele><time>2026-05-01T07:51:27.278Z</time></trkpt><trkpt lat="42.3935817" lon="14.2241183"><ele>105.0</ele><time>2026-05-01T07:51:28.278Z</time></trkpt><trkpt lat="42.39362" lon="14.2242167"><ele>105.66666666666666</ele><time>2026-05-01T07:51:29.278Z</time></trkpt><trkpt lat="42.393655" lon="14.2243217"><ele>106.33333333333333</ele><time>2026-05-01T07:51:30.278Z</time></trkpt><trkpt lat="42.393685" lon="14.22442"><ele>107.0</ele><time>2026-05-01T07:51:31.278Z</time></trkpt><trkpt lat="42.39371" lon="14.2245383"><ele>107.0</ele><time>2026-05-01T07:51:32.278Z</time></trkpt><trkpt lat="42.3937367" lon="14.2246667"><ele>106.99999999999999</ele><time>2026-05-01T07:51:33.278Z</time></trkpt><trkpt lat="42.3937667" lon="14.224795"><ele>106.99999999999999</ele><time>2026-05-01T07:51:34.278Z</time></trkpt><trkpt lat="42.3938" lon="14.2249283"><ele>107.0</ele><time>2026-05-01T07:51:35.278Z</time></trkpt><trkpt lat="42.3938367" lon="14.2250767"><ele>107.0</ele><time>2026-05-01T07:51:36.278Z</time></trkpt><trkpt lat="42.39388" lon="14.2252183"><ele>105.0</ele><time>2026-05-01T07:51:37.278Z</time></trkpt><trkpt lat="42.3939233" lon="14.2253567"><ele>102.99999999999999</ele><time>2026-05-01T07:51:38.278Z</time></trkpt><trkpt lat="42.3939667" lon="14.2254833"><ele>101.0</ele><time>2026-05-01T07:51:39.278Z</time></trkpt><trkpt lat="42.39401" lon="14.2256133"><ele>99.0</ele><time>2026-05-01T07:51:40.278Z</time></trkpt><trkpt lat="42.3940483" lon="14.225755"><ele>97.0</ele><time>2026-05-01T07:51:41.278Z</time></trkpt><trkpt lat="42.3940917" lon="14.22589"><ele>97.0</ele><time>2026-05-01T07:51:42.279Z</time></trkpt><trkpt lat="42.3941383" lon="14.2260183"><ele>97.0</ele><time>2026-05-01T07:51:43.278Z</time></trkpt><trkpt lat="42.39419" lon="14.2261483"><ele>97.0</ele><time>2026-05-01T07:51:44.278Z</time></trkpt><trkpt lat="42.39424" lon="14.2262833"><ele>97.0</ele><time>2026-05-01T07:51:45.278Z</time></trkpt><trkpt lat="42.39428" lon="14.2264167"><ele>97.0</ele><time>2026-05-01T07:51:46.278Z</time></trkpt><trkpt lat="42.3943233" lon="14.2265467"><ele>97.0</ele><time>2026-05-01T07:51:47.278Z</time></trkpt><trkpt lat="42.394365" lon="14.226675"><ele>97.0</ele><time>2026-05-01T07:51:48.278Z</time></trkpt><trkpt lat="42.3944067" lon="14.226795"><ele>97.0</ele><time>2026-05-01T07:51:49.278Z</time></trkpt><trkpt lat="42.3944483" lon="14.2269217"><ele>97.0</ele><time>2026-05-01T07:51:50.278Z</time></trkpt><trkpt lat="42.3944883" lon="14.2270533"><ele>97.0</ele><time>2026-05-01T07:51:51.278Z</time></trkpt><trkpt lat="42.394525" lon="14.2271767"><ele>97.0</ele><time>2026-05-01T07:51:52.278Z</time></trkpt><trkpt lat="42.3945617" lon="14.2273017"><ele>97.0</ele><time>2026-05-01T07:51:53.278Z</time></trkpt><trkpt lat="42.3945967" lon="14.2274283"><ele>97.0</ele><time>2026-05-01T07:51:54.278Z</time></trkpt><trkpt lat="42.394635" lon="14.2275583"><ele>97.0</ele><time>2026-05-01T07:51:55.278Z</time></trkpt><trkpt lat="42.3946733" lon="14.227695"><ele>97.0</ele><time>2026-05-01T07:51:56.278Z</time></trkpt><trkpt lat="42.3947083" lon="14.2278233"><ele>96.0</ele><time>2026-05-01T07:51:57.278Z</time></trkpt><trkpt lat="42.3947433" lon="14.227955"><ele>95.0</ele><time>2026-05-01T07:51:58.278Z</time></trkpt><trkpt lat="42.394785" lon="14.2280917"><ele>94.0</ele><time>2026-05-01T07:51:59.278Z</time></trkpt><trkpt lat="42.3948217" lon="14.2282217"><ele>93.0</ele><time>2026-05-01T07:52:00.278Z</time></trkpt><trkpt lat="42.3948667" lon="14.2283467"><ele>92.0</ele><time>2026-05-01T07:52:01.278Z</time></trkpt><trkpt lat="42.39492" lon="14.2284683"><ele>91.6</ele><time>2026-05-01T07:52:02.278Z</time></trkpt><trkpt lat="42.3949767" lon="14.2285933"><ele>91.19999999999999</ele><time>2026-05-01T07:52:03.278Z</time></trkpt><trkpt lat="42.3950333" lon="14.2287183"><ele>90.8</ele><time>2026-05-01T07:52:04.278Z</time></trkpt><trkpt lat="42.3950883" lon="14.2288467"><ele>90.4</ele><time>2026-05-01T07:52:05.279Z</time></trkpt><trkpt lat="42.395135" lon="14.22898"><ele>90.0</ele><time>2026-05-01T07:52:06.278Z</time></trkpt><trkpt lat="42.395185" lon="14.2291233"><ele>90.8</ele><time>2026-05-01T07:52:07.278Z</time></trkpt><trkpt lat="42.3952317" lon="14.22925"><ele>91.6</ele><time>2026-05-01T07:52:08.278Z</time></trkpt><trkpt lat="42.395275" lon="14.22937"><ele>92.4</ele><time>2026-05-01T07:52:09.278Z</time></trkpt><trkpt lat="42.3953183" lon="14.2294983"><ele>93.2</ele><time>2026-05-01T07:52:10.279Z</time></trkpt><trkpt lat="42.3953633" lon="14.2296133"><ele>94.0</ele><time>2026-05-01T07:52:11.278Z</time></trkpt><trkpt lat="42.3954017" lon="14.229725"><ele>94.2</ele><time>2026-05-01T07:52:12.278Z</time></trkpt><trkpt lat="42.3954333" lon="14.229835"><ele>94.4</ele><time>2026-05-01T07:52:13.278Z</time></trkpt><trkpt lat="42.3954733" lon="14.2299583"><ele>94.6</ele><time>2026-05-01T07:52:14.278Z</time></trkpt><trkpt lat="42.3955167" lon="14.230085"><ele>94.8</ele><time>2026-05-01T07:52:15.278Z</time></trkpt><trkpt lat="42.395565" lon="14.230215"><ele>95.0</ele><time>2026-05-01T07:52:16.278Z</time></trkpt><trkpt lat="42.3956117" lon="14.2303417"><ele>92.6</ele><time>2026-05-01T07:52:17.278Z</time></trkpt><trkpt lat="42.3956533" lon="14.23046"><ele>90.2</ele><time>2026-05-01T07:52:18.278Z</time></trkpt><trkpt lat="42.3956917" lon="14.2305717"><ele>87.80000000000001</ele><time>2026-05-01T07:52:19.278Z</time></trkpt><trkpt lat="42.39573" lon="14.230685"><ele>85.4</ele><time>2026-05-01T07:52:20.278Z</time></trkpt><trkpt lat="42.3957667" lon="14.230795"><ele>83.0</ele><time>2026-05-01T07:52:21.278Z</time></trkpt><trkpt lat="42.3958083" lon="14.2309067"><ele>82.80000000000001</ele><time>2026-05-01T07:52:22.278Z</time></trkpt><trkpt lat="42.3958483" lon="14.2310317"><ele>82.6</ele><time>2026-05-01T07:52:23.278Z</time></trkpt><trkpt lat="42.39589" lon="14.2311667"><ele>82.4</ele><time>2026-05-01T07:52:24.278Z</time></trkpt><trkpt lat="42.39593" lon="14.2313017"><ele>82.19999999999999</ele><time>2026-05-01T07:52:25.278Z</time></trkpt><trkpt lat="42.3959767" lon="14.23144"><ele>82.0</ele><time>2026-05-01T07:52:26.278Z</time></trkpt><trkpt lat="42.3960217" lon="14.231595"><ele>82.0</ele><time>2026-05-01T07:52:27.278Z</time></trkpt><trkpt lat="42.3960667" lon="14.2317433"><ele>82.0</ele><time>2026-05-01T07:52:28.278Z</time></trkpt><trkpt lat="42.39611" lon="14.2318783"><ele>82.0</ele><time>2026-05-01T07:52:29.279Z</time></trkpt><trkpt lat="42.39615" lon="14.2320183"><ele>82.0</ele><time>2026-05-01T07:52:30.278Z</time></trkpt><trkpt lat="42.3961833" lon="14.2321533"><ele>82.0</ele><time>2026-05-01T07:52:31.278Z</time></trkpt><trkpt lat="42.3962117" lon="14.23229"><ele>82.19999999999999</ele><time>2026-05-01T07:52:32.278Z</time></trkpt><trkpt lat="42.3962283" lon="14.2324233"><ele>82.4</ele><time>2026-05-01T07:52:33.278Z</time></trkpt><trkpt lat="42.3962383" lon="14.23256"><ele>82.6</ele><time>2026-05-01T07:52:34.279Z</time></trkpt><trkpt lat="42.39624" lon="14.232685"><ele>82.80000000000001</ele><time>2026-05-01T07:52:35.279Z</time></trkpt><trkpt lat="42.396235" lon="14.2328167"><ele>83.0</ele><time>2026-05-01T07:52:36.278Z</time></trkpt><trkpt lat="42.396225" lon="14.2329483"><ele>83.0</ele><time>2026-05-01T07:52:37.278Z</time></trkpt><trkpt lat="42.3962117" lon="14.2330717"><ele>83.0</ele><time>2026-05-01T07:52:38.278Z</time></trkpt><trkpt lat="42.3962033" lon="14.2331933"><ele>83.0</ele><time>2026-05-01T07:52:39.278Z</time></trkpt><trkpt lat="42.3961983" lon="14.2333183"><ele>83.0</ele><time>2026-05-01T07:52:40.278Z</time></trkpt><trkpt lat="42.396195" lon="14.2334483"><ele>83.0</ele><time>2026-05-01T07:52:41.278Z</time></trkpt><trkpt lat="42.3961883" lon="14.2335683"><ele>82.5</ele><time>2026-05-01T07:52:42.279Z</time></trkpt><trkpt lat="42.3961833" lon="14.233685"><ele>82.0</ele><time>2026-05-01T07:52:43.278Z</time></trkpt><trkpt lat="42.396175" lon="14.2337967"><ele>81.5</ele><time>2026-05-01T07:52:44.278Z</time></trkpt><trkpt lat="42.396165" lon="14.233905"><ele>81.0</ele><time>2026-05-01T07:52:45.279Z</time></trkpt><trkpt lat="42.3961533" lon="14.234"><ele>80.5</ele><time>2026-05-01T07:52:46.279Z</time></trkpt><trkpt lat="42.396145" lon="14.2340933"><ele>80.0</ele><time>2026-05-01T07:52:47.278Z</time></trkpt><trkpt lat="42.3961317" lon="14.2341783"><ele>80.0</ele><time>2026-05-01T07:52:48.278Z</time></trkpt><trkpt lat="42.39613" lon="14.2342667"><ele>80.0</ele><time>2026-05-01T07:52:49.278Z</time></trkpt><trkpt lat="42.3961383" lon="14.2344283"><ele>80.0</ele><time>2026-05-01T07:52:51.278Z</time></trkpt><trkpt lat="42.3961617" lon="14.2345217"><ele>80.0</ele><time>2026-05-01T07:52:53.278Z</time></trkpt><trkpt lat="42.396195" lon="14.234635"><ele>80.0</ele><time>2026-05-01T07:53:16.278Z</time></trkpt><trkpt lat="42.3962433" lon="14.23474"><ele>80.0</ele><time>2026-05-01T08:07:28.277Z</time></trkpt><trkpt lat="42.3962883" lon="14.2348617"><ele>79.66666666666667</ele><time>2026-05-01T08:07:30.277Z</time></trkpt><trkpt lat="42.3963233" lon="14.2349517"><ele>79.33333333333334</ele><time>2026-05-01T08:07:31.277Z</time></trkpt><trkpt lat="42.3963483" lon="14.2350383"><ele>79.0</ele><time>2026-05-01T08:07:32.277Z</time></trkpt><trkpt lat="42.3963683" lon="14.235135"><ele>78.66666666666667</ele><time>2026-05-01T08:07:33.278Z</time></trkpt><trkpt lat="42.39638" lon="14.2352383"><ele>78.33333333333333</ele><time>2026-05-01T08:07:34.277Z</time></trkpt><trkpt lat="42.39639" lon="14.2353433"><ele>78.0</ele><time>2026-05-01T08:07:35.277Z</time></trkpt><trkpt lat="42.3963917" lon="14.2354483"><ele>77.5</ele><time>2026-05-01T08:07:36.277Z</time></trkpt><trkpt lat="42.3963917" lon="14.2355433"><ele>77.0</ele><time>2026-05-01T08:07:37.277Z</time></trkpt><trkpt lat="42.39638" lon="14.2356383"><ele>76.5</ele><time>2026-05-01T08:07:38.277Z</time></trkpt><trkpt lat="42.39636" lon="14.2357333"><ele>76.0</ele><time>2026-05-01T08:07:39.277Z</time></trkpt><trkpt lat="42.396335" lon="14.2358333"><ele>75.5</ele><time>2026-05-01T08:07:40.277Z</time></trkpt><trkpt lat="42.3963033" lon="14.2359383"><ele>75.0</ele><time>2026-05-01T08:07:41.278Z</time></trkpt><trkpt lat="42.39627" lon="14.2360383"><ele>75.0</ele><time>2026-05-01T08:07:42.277Z</time></trkpt><trkpt lat="42.3962317" lon="14.23613"><ele>75.0</ele><time>2026-05-01T08:07:43.277Z</time></trkpt><trkpt lat="42.3962017" lon="14.2362083"><ele>75.0</ele><time>2026-05-01T08:07:44.277Z</time></trkpt><trkpt lat="42.396175" lon="14.2363033"><ele>75.0</ele><time>2026-05-01T08:07:45.277Z</time></trkpt><trkpt lat="42.396155" lon="14.2364033"><ele>75.0</ele><time>2026-05-01T08:07:46.277Z</time></trkpt><trkpt lat="42.39614" lon="14.2365167"><ele>75.0</ele><time>2026-05-01T08:07:47.277Z</time></trkpt><trkpt lat="42.3961283" lon="14.236635"><ele>74.83333333333333</ele><time>2026-05-01T08:07:48.277Z</time></trkpt><trkpt lat="42.396125" lon="14.2367433"><ele>74.66666666666667</ele><time>2026-05-01T08:07:49.277Z</time></trkpt><trkpt lat="42.396115" lon="14.236835"><ele>74.5</ele><time>2026-05-01T08:07:50.277Z</time></trkpt><trkpt lat="42.3960983" lon="14.2369217"><ele>74.33333333333334</ele><time>2026-05-01T08:07:51.277Z</time></trkpt><trkpt lat="42.3960917" lon="14.2370917"><ele>74.16666666666667</ele><time>2026-05-01T08:07:53.277Z</time></trkpt><trkpt lat="42.3960933" lon="14.237185"><ele>74.0</ele><time>2026-05-01T08:07:54.277Z</time></trkpt><trkpt lat="42.39611" lon="14.2373417"><ele>73.5</ele><time>2026-05-01T08:07:56.277Z</time></trkpt><trkpt lat="42.39616" lon="14.2375067"><ele>73.0</ele><time>2026-05-01T08:07:58.277Z</time></trkpt><trkpt lat="42.3961967" lon="14.2376"><ele>72.5</ele><time>2026-05-01T08:07:59.277Z</time></trkpt><trkpt lat="42.3962233" lon="14.2376933"><ele>72.0</ele><time>2026-05-01T08:08:00.277Z</time></trkpt><trkpt lat="42.3962483" lon="14.2377817"><ele>71.5</ele><time>2026-05-01T08:08:01.278Z</time></trkpt><trkpt lat="42.3962667" lon="14.2378733"><ele>71.0</ele><time>2026-05-01T08:08:02.277Z</time></trkpt><trkpt lat="42.39627" lon="14.2379667"><ele>71.0</ele><time>2026-05-01T08:08:03.277Z</time></trkpt><trkpt lat="42.3962767" lon="14.2380583"><ele>71.0</ele><time>2026-05-01T08:08:04.277Z</time></trkpt><trkpt lat="42.3962883" lon="14.2381433"><ele>71.0</ele><time>2026-05-01T08:08:05.277Z</time></trkpt><trkpt lat="42.39631" lon="14.2382333"><ele>71.0</ele><time>2026-05-01T08:08:06.277Z</time></trkpt><trkpt lat="42.3963367" lon="14.23832"><ele>71.0</ele><time>2026-05-01T08:08:07.277Z</time></trkpt><trkpt lat="42.3963667" lon="14.2384033"><ele>71.0</ele><time>2026-05-01T08:08:08.277Z</time></trkpt><trkpt lat="42.396415" lon="14.2385533"><ele>70.0</ele><time>2026-05-01T08:08:10.277Z</time></trkpt><trkpt lat="42.3964533" lon="14.2386983"><ele>69.0</ele><time>2026-05-01T08:08:12.277Z</time></trkpt><trkpt lat="42.3964833" lon="14.238855"><ele>68.0</ele><time>2026-05-01T08:08:14.277Z</time></trkpt><trkpt lat="42.3964833" lon="14.2389633"><ele>67.0</ele><time>2026-05-01T08:08:15.277Z</time></trkpt><trkpt lat="42.396475" lon="14.2390717"><ele>66.0</ele><time>2026-05-01T08:08:16.277Z</time></trkpt><trkpt lat="42.3964683" lon="14.2391967"><ele>65.66666666666667</ele><time>2026-05-01T08:08:17.277Z</time></trkpt><trkpt lat="42.396455" lon="14.2393233"><ele>65.33333333333333</ele><time>2026-05-01T08:08:18.277Z</time></trkpt><trkpt lat="42.39644" lon="14.239455"><ele>65.0</ele><time>2026-05-01T08:08:19.277Z</time></trkpt><trkpt lat="42.3964217" lon="14.2395767"><ele>64.66666666666666</ele><time>2026-05-01T08:08:20.277Z</time></trkpt><trkpt lat="42.396405" lon="14.23969"><ele>64.33333333333333</ele><time>2026-05-01T08:08:21.277Z</time></trkpt><trkpt lat="42.3963867" lon="14.2397933"><ele>64.0</ele><time>2026-05-01T08:08:22.278Z</time></trkpt><trkpt lat="42.3963633" lon="14.2398883"><ele>63.666666666666664</ele><time>2026-05-01T08:08:23.277Z</time></trkpt><trkpt lat="42.39635" lon="14.2399817"><ele>63.33333333333333</ele><time>2026-05-01T08:08:24.277Z</time></trkpt><trkpt lat="42.39633" lon="14.240085"><ele>63.0</ele><time>2026-05-01T08:08:25.277Z</time></trkpt><trkpt lat="42.3963117" lon="14.2401933"><ele>62.66666666666667</ele><time>2026-05-01T08:08:26.277Z</time></trkpt><trkpt lat="42.396295" lon="14.240305"><ele>62.333333333333336</ele><time>2026-05-01T08:08:27.277Z</time></trkpt><trkpt lat="42.3962767" lon="14.240415"><ele>62.0</ele><time>2026-05-01T08:08:28.277Z</time></trkpt><trkpt lat="42.3962617" lon="14.2405333"><ele>61.00000000000001</ele><time>2026-05-01T08:08:29.278Z</time></trkpt><trkpt lat="42.3962467" lon="14.2406433"><ele>60.0</ele><time>2026-05-01T08:08:30.277Z</time></trkpt><trkpt lat="42.39623" lon="14.2407483"><ele>59.0</ele><time>2026-05-01T08:08:31.277Z</time></trkpt><trkpt lat="42.3962133" lon="14.2408433"><ele>58.0</ele><time>2026-05-01T08:08:32.277Z</time></trkpt><trkpt lat="42.3961867" lon="14.2409467"><ele>57.00000000000001</ele><time>2026-05-01T08:08:33.277Z</time></trkpt><trkpt lat="42.396155" lon="14.241055"><ele>56.0</ele><time>2026-05-01T08:08:34.278Z</time></trkpt><trkpt lat="42.3961283" lon="14.24116"><ele>56.0</ele><time>2026-05-01T08:08:35.277Z</time></trkpt><trkpt lat="42.3961033" lon="14.24125"><ele>56.0</ele><time>2026-05-01T08:08:36.277Z</time></trkpt><trkpt lat="42.3960767" lon="14.2413467"><ele>56.0</ele><time>2026-05-01T08:08:37.277Z</time></trkpt><trkpt lat="42.39605" lon="14.2414367"><ele>56.0</ele><time>2026-05-01T08:08:38.277Z</time></trkpt><trkpt lat="42.3960283" lon="14.24153"><ele>56.0</ele><time>2026-05-01T08:08:39.277Z</time></trkpt><trkpt lat="42.396005" lon="14.24162"><ele>56.0</ele><time>2026-05-01T08:08:40.277Z</time></trkpt><trkpt lat="42.3959733" lon="14.2417167"><ele>56.0</ele><time>2026-05-01T08:08:41.277Z</time></trkpt><trkpt lat="42.3959333" lon="14.2418167"><ele>55.50000000000001</ele><time>2026-05-01T08:08:42.277Z</time></trkpt><trkpt lat="42.3958983" lon="14.241895"><ele>55.0</ele><time>2026-05-01T08:08:43.278Z</time></trkpt><trkpt lat="42.39586" lon="14.24198"><ele>54.5</ele><time>2026-05-01T08:08:44.277Z</time></trkpt><trkpt lat="42.3958217" lon="14.2420667"><ele>54.0</ele><time>2026-05-01T08:08:45.278Z</time></trkpt><trkpt lat="42.3957833" lon="14.24214"><ele>53.50000000000001</ele><time>2026-05-01T08:08:46.277Z</time></trkpt><trkpt lat="42.3957183" lon="14.2422717"><ele>53.0</ele><time>2026-05-01T08:08:48.277Z</time></trkpt><trkpt lat="42.3956883" lon="14.2423517"><ele>52.333333333333336</ele><time>2026-05-01T08:08:49.277Z</time></trkpt><trkpt lat="42.39566" lon="14.2425283"><ele>51.66666666666667</ele><time>2026-05-01T08:08:51.277Z</time></trkpt><trkpt lat="42.3956467" lon="14.242625"><ele>51.0</ele><time>2026-05-01T08:08:52.277Z</time></trkpt><trkpt lat="42.3956417" lon="14.2427267"><ele>50.33333333333333</ele><time>2026-05-01T08:08:53.277Z</time></trkpt><trkpt lat="42.3956367" lon="14.2428333"><ele>49.666666666666664</ele><time>2026-05-01T08:08:54.277Z</time></trkpt><trkpt lat="42.395635" lon="14.2429383"><ele>49.0</ele><time>2026-05-01T08:08:55.277Z</time></trkpt><trkpt lat="42.3956383" lon="14.2430467"><ele>49.166666666666664</ele><time>2026-05-01T08:08:56.277Z</time></trkpt><trkpt lat="42.3956333" lon="14.243165"><ele>49.33333333333333</ele><time>2026-05-01T08:08:57.277Z</time></trkpt><trkpt lat="42.39563" lon="14.243275"><ele>49.5</ele><time>2026-05-01T08:08:58.277Z</time></trkpt><trkpt lat="42.3956283" lon="14.243375"><ele>49.66666666666667</ele><time>2026-05-01T08:08:59.277Z</time></trkpt><trkpt lat="42.3956283" lon="14.2434717"><ele>49.833333333333336</ele><time>2026-05-01T08:09:00.277Z</time></trkpt><trkpt lat="42.3956317" lon="14.24358"><ele>50.0</ele><time>2026-05-01T08:09:01.277Z</time></trkpt><trkpt lat="42.3956367" lon="14.2437033"><ele>50.00000000000001</ele><time>2026-05-01T08:09:02.277Z</time></trkpt><trkpt lat="42.395635" lon="14.24382"><ele>50.0</ele><time>2026-05-01T08:09:03.277Z</time></trkpt><trkpt lat="42.3956333" lon="14.2439367"><ele>50.0</ele><time>2026-05-01T08:09:04.277Z</time></trkpt><trkpt lat="42.39563" lon="14.2440533"><ele>50.0</ele><time>2026-05-01T08:09:05.277Z</time></trkpt><trkpt lat="42.39563" lon="14.2441567"><ele>50.00000000000001</ele><time>2026-05-01T08:09:06.277Z</time></trkpt><trkpt lat="42.3956283" lon="14.244255"><ele>50.0</ele><time>2026-05-01T08:09:07.277Z</time></trkpt><trkpt lat="42.3956283" lon="14.2443533"><ele>49.85714285714286</ele><time>2026-05-01T08:09:08.278Z</time></trkpt><trkpt lat="42.395625" lon="14.244455"><ele>49.714285714285715</ele><time>2026-05-01T08:09:09.277Z</time></trkpt><trkpt lat="42.3956183" lon="14.2445567"><ele>49.57142857142857</ele><time>2026-05-01T08:09:10.278Z</time></trkpt><trkpt lat="42.39562" lon="14.244645"><ele>49.42857142857143</ele><time>2026-05-01T08:09:11.277Z</time></trkpt><trkpt lat="42.3956167" lon="14.2447317"><ele>49.285714285714285</ele><time>2026-05-01T08:09:12.277Z</time></trkpt><trkpt lat="42.3956167" lon="14.244875"><ele>49.142857142857146</ele><time>2026-05-01T08:09:14.278Z</time></trkpt><trkpt lat="42.3956117" lon="14.24496"><ele>49.0</ele><time>2026-05-01T08:09:15.277Z</time></trkpt><trkpt lat="42.3956117" lon="14.2451183"><ele>48.83333333333333</ele><time>2026-05-01T08:09:17.277Z</time></trkpt><trkpt lat="42.39561" lon="14.2452667"><ele>48.666666666666664</ele><time>2026-05-01T08:09:19.277Z</time></trkpt><trkpt lat="42.39561" lon="14.245355"><ele>48.5</ele><time>2026-05-01T08:09:20.277Z</time></trkpt><trkpt lat="42.3956067" lon="14.24545"><ele>48.33333333333333</ele><time>2026-05-01T08:09:21.277Z</time></trkpt><trkpt lat="42.3956033" lon="14.2455533"><ele>48.166666666666664</ele><time>2026-05-01T08:09:22.277Z</time></trkpt><trkpt lat="42.3956017" lon="14.245665"><ele>48.0</ele><time>2026-05-01T08:09:23.277Z</time></trkpt><trkpt lat="42.3955933" lon="14.2457833"><ele>47.833333333333336</ele><time>2026-05-01T08:09:24.277Z</time></trkpt><trkpt lat="42.3955867" lon="14.2458983"><ele>47.666666666666664</ele><time>2026-05-01T08:09:25.277Z</time></trkpt><trkpt lat="42.3955683" lon="14.2459967"><ele>47.5</ele><time>2026-05-01T08:09:26.277Z</time></trkpt><trkpt lat="42.395545" lon="14.2460933"><ele>47.33333333333333</ele><time>2026-05-01T08:09:27.277Z</time></trkpt><trkpt lat="42.3955217" lon="14.2461933"><ele>47.166666666666664</ele><time>2026-05-01T08:09:28.277Z</time></trkpt><trkpt lat="42.3954967" lon="14.2462917"><ele>47.0</ele><time>2026-05-01T08:09:29.277Z</time></trkpt><trkpt lat="42.395465" lon="14.2463933"><ele>47.0</ele><time>2026-05-01T08:09:30.277Z</time></trkpt><trkpt lat="42.3954317" lon="14.2464983"><ele>47.0</ele><time>2026-05-01T08:09:31.277Z</time></trkpt><trkpt lat="42.395405" lon="14.2465883"><ele>47.0</ele><time>2026-05-01T08:09:32.277Z</time></trkpt><trkpt lat="42.3953733" lon="14.2466733"><ele>47.0</ele><time>2026-05-01T08:09:33.277Z</time></trkpt><trkpt lat="42.3953483" lon="14.2467617"><ele>47.0</ele><time>2026-05-01T08:09:34.277Z</time></trkpt><trkpt lat="42.3953283" lon="14.2468517"><ele>47.0</ele><time>2026-05-01T08:09:35.278Z</time></trkpt><trkpt lat="42.39531" lon="14.2469333"><ele>47.0</ele><time>2026-05-01T08:09:36.277Z</time></trkpt><trkpt lat="42.39529" lon="14.247015"><ele>47.0</ele><time>2026-05-01T08:09:37.277Z</time></trkpt><trkpt lat="42.3952633" lon="14.2471883"><ele>47.0</ele><time>2026-05-01T08:09:39.277Z</time></trkpt><trkpt lat="42.3952567" lon="14.2472883"><ele>47.0</ele><time>2026-05-01T08:09:40.278Z</time></trkpt><trkpt lat="42.395245" lon="14.2474"><ele>47.0</ele><time>2026-05-01T08:09:41.277Z</time></trkpt><trkpt lat="42.3952217" lon="14.2475183"><ele>47.0</ele><time>2026-05-01T08:09:42.277Z</time></trkpt><trkpt lat="42.3952033" lon="14.24763"><ele>46.5</ele><time>2026-05-01T08:09:43.277Z</time></trkpt><trkpt lat="42.39518" lon="14.247725"><ele>46.0</ele><time>2026-05-01T08:09:44.278Z</time></trkpt><trkpt lat="42.39517" lon="14.2478333"><ele>45.5</ele><time>2026-05-01T08:09:45.277Z</time></trkpt><trkpt lat="42.395175" lon="14.24795"><ele>45.0</ele><time>2026-05-01T08:09:46.277Z</time></trkpt><trkpt lat="42.3951833" lon="14.2480667"><ele>44.5</ele><time>2026-05-01T08:09:47.277Z</time></trkpt><trkpt lat="42.3951983" lon="14.2481833"><ele>44.0</ele><time>2026-05-01T08:09:48.277Z</time></trkpt><trkpt lat="42.395215" lon="14.248305"><ele>43.400000000000006</ele><time>2026-05-01T08:09:49.277Z</time></trkpt><trkpt lat="42.39522" lon="14.2484283"><ele>42.8</ele><time>2026-05-01T08:09:50.276Z</time></trkpt><trkpt lat="42.3952233" lon="14.2485617"><ele>42.2</ele><time>2026-05-01T08:09:51.276Z</time></trkpt><trkpt lat="42.3952133" lon="14.2486967"><ele>41.599999999999994</ele><time>2026-05-01T08:09:52.276Z</time></trkpt><trkpt lat="42.3951967" lon="14.24882"><ele>41.0</ele><time>2026-05-01T08:09:53.276Z</time></trkpt><trkpt lat="42.3951783" lon="14.2489383"><ele>41.0</ele><time>2026-05-01T08:09:54.276Z</time></trkpt><trkpt lat="42.395155" lon="14.2490533"><ele>41.0</ele><time>2026-05-01T08:09:55.276Z</time></trkpt><trkpt lat="42.3951333" lon="14.249175"><ele>41.0</ele><time>2026-05-01T08:09:56.276Z</time></trkpt><trkpt lat="42.39511" lon="14.2493"><ele>41.0</ele><time>2026-05-01T08:09:57.276Z</time></trkpt><trkpt lat="42.3950817" lon="14.2494267"><ele>41.0</ele><time>2026-05-01T08:09:58.277Z</time></trkpt><trkpt lat="42.3950483" lon="14.24955"><ele>41.0</ele><time>2026-05-01T08:09:59.276Z</time></trkpt><trkpt lat="42.39501" lon="14.24967"><ele>41.0</ele><time>2026-05-01T08:10:00.276Z</time></trkpt><trkpt lat="42.3949733" lon="14.24979"><ele>41.0</ele><time>2026-05-01T08:10:01.276Z</time></trkpt><trkpt lat="42.3949483" lon="14.249905"><ele>41.0</ele><time>2026-05-01T08:10:02.276Z</time></trkpt><trkpt lat="42.3949183" lon="14.2500167"><ele>41.0</ele><time>2026-05-01T08:10:03.276Z</time></trkpt><trkpt lat="42.3948867" lon="14.2501317"><ele>40.4</ele><time>2026-05-01T08:10:04.277Z</time></trkpt><trkpt lat="42.3948383" lon="14.2502617"><ele>39.8</ele><time>2026-05-01T08:10:05.277Z</time></trkpt><trkpt lat="42.3947967" lon="14.2503867"><ele>39.199999999999996</ele><time>2026-05-01T08:10:06.276Z</time></trkpt><trkpt lat="42.3947617" lon="14.250505"><ele>38.599999999999994</ele><time>2026-05-01T08:10:07.276Z</time></trkpt><trkpt lat="42.3947217" lon="14.2506167"><ele>38.0</ele><time>2026-05-01T08:10:08.276Z</time></trkpt><trkpt lat="42.394685" lon="14.25072"><ele>38.857142857142854</ele><time>2026-05-01T08:10:09.276Z</time></trkpt><trkpt lat="42.3946467" lon="14.2508267"><ele>39.714285714285715</ele><time>2026-05-01T08:10:10.276Z</time></trkpt><trkpt lat="42.3946133" lon="14.2509217"><ele>40.57142857142857</ele><time>2026-05-01T08:10:11.276Z</time></trkpt><trkpt lat="42.3945817" lon="14.2510033"><ele>41.42857142857143</ele><time>2026-05-01T08:10:12.276Z</time></trkpt><trkpt lat="42.3945517" lon="14.2510867"><ele>42.285714285714285</ele><time>2026-05-01T08:10:13.276Z</time></trkpt><trkpt lat="42.39452" lon="14.2511667"><ele>43.142857142857146</ele><time>2026-05-01T08:10:14.276Z</time></trkpt><trkpt lat="42.3944917" lon="14.2512533"><ele>44.0</ele><time>2026-05-01T08:10:15.276Z</time></trkpt><trkpt lat="42.3944617" lon="14.2513467"><ele>44.0</ele><time>2026-05-01T08:10:16.276Z</time></trkpt><trkpt lat="42.3944317" lon="14.2514417"><ele>44.0</ele><time>2026-05-01T08:10:17.276Z</time></trkpt><trkpt lat="42.3944033" lon="14.2515317"><ele>44.0</ele><time>2026-05-01T08:10:18.276Z</time></trkpt><trkpt lat="42.394375" lon="14.251625"><ele>44.0</ele><time>2026-05-01T08:10:19.276Z</time></trkpt><trkpt lat="42.3943517" lon="14.2517117"><ele>44.0</ele><time>2026-05-01T08:10:20.276Z</time></trkpt><trkpt lat="42.3943267" lon="14.2517983"><ele>44.0</ele><time>2026-05-01T08:10:21.276Z</time></trkpt><trkpt lat="42.39428" lon="14.2519417"><ele>43.166666666666664</ele><time>2026-05-01T08:10:23.276Z</time></trkpt><trkpt lat="42.394245" lon="14.2520217"><ele>42.33333333333333</ele><time>2026-05-01T08:10:25.276Z</time></trkpt><trkpt lat="42.39422" lon="14.2521283"><ele>41.5</ele><time>2026-05-01T08:10:46.277Z</time></trkpt><trkpt lat="42.39415" lon="14.2521617"><ele>40.666666666666664</ele><time>2026-05-01T08:10:49.276Z</time></trkpt><trkpt lat="42.3940583" lon="14.2520433"><ele>39.833333333333336</ele><time>2026-05-01T08:10:51.276Z</time></trkpt><trkpt lat="42.39401" lon="14.2519583"><ele>39.0</ele><time>2026-05-01T08:10:52.277Z</time></trkpt><trkpt lat="42.39397" lon="14.2518717"><ele>39.0</ele><time>2026-05-01T08:10:53.277Z</time></trkpt><trkpt lat="42.3939383" lon="14.2517867"><ele>39.0</ele><time>2026-05-01T08:10:54.277Z</time></trkpt><trkpt lat="42.3938983" lon="14.2516983"><ele>39.0</ele><time>2026-05-01T08:10:55.276Z</time></trkpt><trkpt lat="42.39384" lon="14.2515933"><ele>39.0</ele><time>2026-05-01T08:10:56.276Z</time></trkpt><trkpt lat="42.3937683" lon="14.2514517"><ele>39.0</ele><time>2026-05-01T08:10:57.276Z</time></trkpt><trkpt lat="42.3936833" lon="14.2512767"><ele>42.0</ele><time>2026-05-01T08:10:58.276Z</time></trkpt><trkpt lat="42.393605" lon="14.2511117"><ele>45.0</ele><time>2026-05-01T08:10:59.276Z</time></trkpt><trkpt lat="42.39353" lon="14.250955"><ele>48.0</ele><time>2026-05-01T08:11:00.276Z</time></trkpt><trkpt lat="42.3934517" lon="14.2508017"><ele>51.0</ele><time>2026-05-01T08:11:01.276Z</time></trkpt><trkpt lat="42.3933733" lon="14.25063"><ele>53.33333333333333</ele><time>2026-05-01T08:11:02.276Z</time></trkpt><trkpt lat="42.393285" lon="14.250445"><ele>55.666666666666664</ele><time>2026-05-01T08:11:03.276Z</time></trkpt><trkpt lat="42.3932033" lon="14.250255"><ele>58.0</ele><time>2026-05-01T08:11:04.276Z</time></trkpt><trkpt lat="42.3931183" lon="14.250065"><ele>58.0</ele><time>2026-05-01T08:11:05.276Z</time></trkpt><trkpt lat="42.3930417" lon="14.2498867"><ele>58.0</ele><time>2026-05-01T08:11:06.276Z</time></trkpt><trkpt lat="42.3929667" lon="14.24972"><ele>58.0</ele><time>2026-05-01T08:11:07.276Z</time></trkpt><trkpt lat="42.3928983" lon="14.2495567"><ele>58.0</ele><time>2026-05-01T08:11:08.277Z</time></trkpt><trkpt lat="42.3928367" lon="14.2493983"><ele>60.25</ele><time>2026-05-01T08:11:09.276Z</time></trkpt><trkpt lat="42.3927783" lon="14.2492383"><ele>62.5</ele><time>2026-05-01T08:11:10.276Z</time></trkpt><trkpt lat="42.392725" lon="14.249085"><ele>64.75</ele><time>2026-05-01T08:11:11.276Z</time></trkpt><trkpt lat="42.3926817" lon="14.2489233"><ele>67.0</ele><time>2026-05-01T08:11:12.276Z</time></trkpt><trkpt lat="42.3926567" lon="14.2487683"><ele>70.75</ele><time>2026-05-01T08:11:13.276Z</time></trkpt><trkpt lat="42.3926567" lon="14.2486067"><ele>74.5</ele><time>2026-05-01T08:11:14.276Z</time></trkpt><trkpt lat="42.392665" lon="14.24844"><ele>78.25</ele><time>2026-05-01T08:11:15.276Z</time></trkpt><trkpt lat="42.3926883" lon="14.2482683"><ele>82.0</ele><time>2026-05-01T08:11:16.276Z</time></trkpt><trkpt lat="42.3927283" lon="14.2480983"><ele>83.25</ele><time>2026-05-01T08:11:17.277Z</time></trkpt><trkpt lat="42.392765" lon="14.2479167"><ele>84.5</ele><time>2026-05-01T08:11:18.276Z</time></trkpt><trkpt lat="42.3928" lon="14.2477433"><ele>85.75</ele><time>2026-05-01T08:11:19.276Z</time></trkpt><trkpt lat="42.3928133" lon="14.2475867"><ele>87.0</ele><time>2026-05-01T08:11:20.276Z</time></trkpt><trkpt lat="42.3928167" lon="14.2474267"><ele>87.0</ele><time>2026-05-01T08:11:21.276Z</time></trkpt><trkpt lat="42.392815" lon="14.247265"><ele>87.0</ele><time>2026-05-01T08:11:22.277Z</time></trkpt><trkpt lat="42.39282" lon="14.2470917"><ele>87.0</ele><time>2026-05-01T08:11:23.276Z</time></trkpt><trkpt lat="42.3928267" lon="14.2469083"><ele>87.0</ele><time>2026-05-01T08:11:24.276Z</time></trkpt><trkpt lat="42.3928317" lon="14.24672"><ele>87.0</ele><time>2026-05-01T08:11:25.276Z</time></trkpt><trkpt lat="42.39283" lon="14.2465217"><ele>87.0</ele><time>2026-05-01T08:11:26.276Z</time></trkpt><trkpt lat="42.3928267" lon="14.2463167"><ele>87.0</ele><time>2026-05-01T08:11:27.277Z</time></trkpt><trkpt lat="42.3928233" lon="14.24611"><ele>87.75</ele><time>2026-05-01T08:11:28.276Z</time></trkpt><trkpt lat="42.392815" lon="14.245895"><ele>88.5</ele><time>2026-05-01T08:11:29.276Z</time></trkpt><trkpt lat="42.392815" lon="14.2456917"><ele>89.25</ele><time>2026-05-01T08:11:30.277Z</time></trkpt><trkpt lat="42.3928233" lon="14.2455033"><ele>90.0</ele><time>2026-05-01T08:11:31.276Z</time></trkpt><trkpt lat="42.3928417" lon="14.2453067"><ele>90.75</ele><time>2026-05-01T08:11:32.276Z</time></trkpt><trkpt lat="42.3928733" lon="14.2451133"><ele>91.5</ele><time>2026-05-01T08:11:33.276Z</time></trkpt><trkpt lat="42.3929183" lon="14.24493"><ele>92.25</ele><time>2026-05-01T08:11:34.276Z</time></trkpt><trkpt lat="42.3929683" lon="14.24474"><ele>93.0</ele><time>2026-05-01T08:11:35.276Z</time></trkpt><trkpt lat="42.3930183" lon="14.2445567"><ele>94.5</ele><time>2026-05-01T08:11:36.276Z</time></trkpt><trkpt lat="42.39307" lon="14.24438"><ele>96.0</ele><time>2026-05-01T08:11:37.276Z</time></trkpt><trkpt lat="42.3931017" lon="14.244195"><ele>97.5</ele><time>2026-05-01T08:11:38.276Z</time></trkpt><trkpt lat="42.3931233" lon="14.2439933"><ele>99.0</ele><time>2026-05-01T08:11:39.276Z</time></trkpt><trkpt lat="42.3931383" lon="14.24376"><ele>99.66666666666666</ele><time>2026-05-01T08:11:40.276Z</time></trkpt><trkpt lat="42.3931467" lon="14.243515"><ele>100.33333333333333</ele><time>2026-05-01T08:11:41.276Z</time></trkpt><trkpt lat="42.3931483" lon="14.2432783"><ele>101.0</ele><time>2026-05-01T08:11:42.276Z</time></trkpt><trkpt lat="42.3931583" lon="14.243055"><ele>102.0</ele><time>2026-05-01T08:11:43.276Z</time></trkpt><trkpt lat="42.393165" lon="14.2428417"><ele>103.0</ele><time>2026-05-01T08:11:44.276Z</time></trkpt><trkpt lat="42.3931683" lon="14.2426267"><ele>104.0</ele><time>2026-05-01T08:11:45.276Z</time></trkpt><trkpt lat="42.3931833" lon="14.2424217"><ele>104.66666666666666</ele><time>2026-05-01T08:11:46.276Z</time></trkpt><trkpt lat="42.3931833" lon="14.24221"><ele>105.33333333333334</ele><time>2026-05-01T08:11:47.276Z</time></trkpt><trkpt lat="42.3931717" lon="14.2420017"><ele>106.0</ele><time>2026-05-01T08:11:48.276Z</time></trkpt><trkpt lat="42.3931467" lon="14.2417867"><ele>106.0</ele><time>2026-05-01T08:11:49.276Z</time></trkpt><trkpt lat="42.3931217" lon="14.2415817"><ele>106.0</ele><time>2026-05-01T08:11:50.276Z</time></trkpt><trkpt lat="42.3930917" lon="14.2413717"><ele>106.0</ele><time>2026-05-01T08:11:51.276Z</time></trkpt><trkpt lat="42.3930583" lon="14.2411633"><ele>107.33333333333334</ele><time>2026-05-01T08:11:52.276Z</time></trkpt><trkpt lat="42.39302" lon="14.2409517"><ele>108.66666666666666</ele><time>2026-05-01T08:11:53.276Z</time></trkpt><trkpt lat="42.3929783" lon="14.240725"><ele>110.0</ele><time>2026-05-01T08:11:54.276Z</time></trkpt><trkpt lat="42.39293" lon="14.2404883"><ele>113.0</ele><time>2026-05-01T08:11:55.276Z</time></trkpt><trkpt lat="42.3928717" lon="14.2402567"><ele>116.0</ele><time>2026-05-01T08:11:56.276Z</time></trkpt><trkpt lat="42.3928167" lon="14.24002"><ele>119.0</ele><time>2026-05-01T08:11:57.276Z</time></trkpt><trkpt lat="42.3927567" lon="14.2397983"><ele>119.0</ele><time>2026-05-01T08:11:58.276Z</time></trkpt><trkpt lat="42.3927" lon="14.23959"><ele>119.0</ele><time>2026-05-01T08:11:59.276Z</time></trkpt><trkpt lat="42.3926517" lon="14.2393817"><ele>119.0</ele><time>2026-05-01T08:12:00.276Z</time></trkpt><trkpt lat="42.3926017" lon="14.2391783"><ele>119.0</ele><time>2026-05-01T08:12:01.276Z</time></trkpt><trkpt lat="42.3925617" lon="14.23898"><ele>119.0</ele><time>2026-05-01T08:12:02.276Z</time></trkpt><trkpt lat="42.3925333" lon="14.2387833"><ele>119.0</ele><time>2026-05-01T08:12:03.276Z</time></trkpt><trkpt lat="42.3925183" lon="14.2385867"><ele>119.0</ele><time>2026-05-01T08:12:04.276Z</time></trkpt><trkpt lat="42.39252" lon="14.2383767"><ele>119.0</ele><time>2026-05-01T08:12:05.276Z</time></trkpt><trkpt lat="42.392545" lon="14.2381783"><ele>119.0</ele><time>2026-05-01T08:12:06.276Z</time></trkpt><trkpt lat="42.3925817" lon="14.2379733"><ele>119.0</ele><time>2026-05-01T08:12:07.276Z</time></trkpt><trkpt lat="42.3926167" lon="14.2377517"><ele>118.66666666666666</ele><time>2026-05-01T08:12:08.276Z</time></trkpt><trkpt lat="42.392655" lon="14.2375217"><ele>118.33333333333334</ele><time>2026-05-01T08:12:09.276Z</time></trkpt><trkpt lat="42.3927" lon="14.237295"><ele>118.0</ele><time>2026-05-01T08:12:10.276Z</time></trkpt><trkpt lat="42.3927267" lon="14.237095"><ele>118.0</ele><time>2026-05-01T08:12:11.276Z</time></trkpt><trkpt lat="42.3927567" lon="14.2369033"><ele>118.0</ele><time>2026-05-01T08:12:12.276Z</time></trkpt><trkpt lat="42.3927833" lon="14.23672"><ele>118.0</ele><time>2026-05-01T08:12:13.276Z</time></trkpt><trkpt lat="42.392815" lon="14.2365367"><ele>118.0</ele><time>2026-05-01T08:12:14.276Z</time></trkpt><trkpt lat="42.3928417" lon="14.2363567"><ele>117.75</ele><time>2026-05-01T08:12:15.277Z</time></trkpt><trkpt lat="42.39287" lon="14.23619"><ele>117.5</ele><time>2026-05-01T08:12:16.276Z</time></trkpt><trkpt lat="42.3928933" lon="14.23602"><ele>117.25</ele><time>2026-05-01T08:12:17.276Z</time></trkpt><trkpt lat="42.3929167" lon="14.2358533"><ele>117.0</ele><time>2026-05-01T08:12:18.276Z</time></trkpt><trkpt lat="42.3929267" lon="14.235685"><ele>117.75</ele><time>2026-05-01T08:12:19.276Z</time></trkpt><trkpt lat="42.392915" lon="14.2355067"><ele>118.5</ele><time>2026-05-01T08:12:20.276Z</time></trkpt><trkpt lat="42.392875" lon="14.23534"><ele>119.25</ele><time>2026-05-01T08:12:21.276Z</time></trkpt><trkpt lat="42.3928033" lon="14.2351883"><ele>120.0</ele><time>2026-05-01T08:12:22.276Z</time></trkpt><trkpt lat="42.3927167" lon="14.235055"><ele>120.0</ele><time>2026-05-01T08:12:23.276Z</time></trkpt><trkpt lat="42.3926267" lon="14.2349233"><ele>120.0</ele><time>2026-05-01T08:12:24.277Z</time></trkpt><trkpt lat="42.3925283" lon="14.234795"><ele>120.0</ele><time>2026-05-01T08:12:25.276Z</time></trkpt><trkpt lat="42.392425" lon="14.2346517"><ele>120.0</ele><time>2026-05-01T08:12:26.276Z</time></trkpt><trkpt lat="42.3923233" lon="14.2345"><ele>121.75</ele><time>2026-05-01T08:12:27.277Z</time></trkpt><trkpt lat="42.392225" lon="14.2343567"><ele>123.5</ele><time>2026-05-01T08:12:28.277Z</time></trkpt><trkpt lat="42.3921217" lon="14.2342083"><ele>125.25</ele><time>2026-05-01T08:12:29.276Z</time></trkpt><trkpt lat="42.3920233" lon="14.234055"><ele>127.0</ele><time>2026-05-01T08:12:30.276Z</time></trkpt><trkpt lat="42.39192" lon="14.2339033"><ele>127.5</ele><time>2026-05-01T08:12:31.277Z</time></trkpt><trkpt lat="42.39182" lon="14.2337517"><ele>128.0</ele><time>2026-05-01T08:12:32.276Z</time></trkpt><trkpt lat="42.391725" lon="14.23361"><ele>128.5</ele><time>2026-05-01T08:12:33.276Z</time></trkpt><trkpt lat="42.3916283" lon="14.233465"><ele>129.0</ele><time>2026-05-01T08:12:34.276Z</time></trkpt><trkpt lat="42.3915367" lon="14.2333167"><ele>129.0</ele><time>2026-05-01T08:12:35.276Z</time></trkpt><trkpt lat="42.391445" lon="14.2331583"><ele>129.0</ele><time>2026-05-01T08:12:36.276Z</time></trkpt><trkpt lat="42.3913583" lon="14.232995"><ele>129.0</ele><time>2026-05-01T08:12:37.277Z</time></trkpt><trkpt lat="42.3912717" lon="14.23283"><ele>129.0</ele><time>2026-05-01T08:12:38.277Z</time></trkpt><trkpt lat="42.3912033" lon="14.2326833"><ele>129.25</ele><time>2026-05-01T08:12:39.276Z</time></trkpt><trkpt lat="42.3911383" lon="14.232545"><ele>129.5</ele><time>2026-05-01T08:12:40.276Z</time></trkpt><trkpt lat="42.3910767" lon="14.23241"><ele>129.75</ele><time>2026-05-01T08:12:41.276Z</time></trkpt><trkpt lat="42.391015" lon="14.2322867"><ele>130.0</ele><time>2026-05-01T08:12:42.276Z</time></trkpt><trkpt lat="42.3909517" lon="14.2321633"><ele>130.0</ele><time>2026-05-01T08:12:43.276Z</time></trkpt><trkpt lat="42.3908917" lon="14.2320533"><ele>130.0</ele><time>2026-05-01T08:12:44.276Z</time></trkpt><trkpt lat="42.3908217" lon="14.23195"><ele>130.0</ele><time>2026-05-01T08:12:45.276Z</time></trkpt><trkpt lat="42.3907517" lon="14.2318467"><ele>130.0</ele><time>2026-05-01T08:12:46.276Z</time></trkpt><trkpt lat="42.3906667" lon="14.2317467"><ele>130.0</ele><time>2026-05-01T08:12:47.276Z</time></trkpt><trkpt lat="42.39057" lon="14.2316483"><ele>130.75</ele><time>2026-05-01T08:12:48.276Z</time></trkpt><trkpt lat="42.3904717" lon="14.2315567"><ele>131.5</ele><time>2026-05-01T08:12:49.276Z</time></trkpt><trkpt lat="42.3903633" lon="14.231465"><ele>132.25</ele><time>2026-05-01T08:12:50.276Z</time></trkpt><trkpt lat="42.39025" lon="14.2313683"><ele>133.0</ele><time>2026-05-01T08:12:51.276Z</time></trkpt><trkpt lat="42.3901367" lon="14.2312683"><ele>134.5</ele><time>2026-05-01T08:12:52.276Z</time></trkpt><trkpt lat="42.3900233" lon="14.231165"><ele>136.0</ele><time>2026-05-01T08:12:53.276Z</time></trkpt><trkpt lat="42.389905" lon="14.2310617"><ele>137.5</ele><time>2026-05-01T08:12:54.276Z</time></trkpt><trkpt lat="42.3897883" lon="14.23097"><ele>139.0</ele><time>2026-05-01T08:12:55.277Z</time></trkpt><trkpt lat="42.3896667" lon="14.2308933"><ele>139.25</ele><time>2026-05-01T08:12:56.276Z</time></trkpt><trkpt lat="42.3895483" lon="14.230845"><ele>139.5</ele><time>2026-05-01T08:12:57.276Z</time></trkpt><trkpt lat="42.389425" lon="14.2308167"><ele>139.75</ele><time>2026-05-01T08:12:58.276Z</time></trkpt><trkpt lat="42.3892983" lon="14.2307967"><ele>140.0</ele><time>2026-05-01T08:12:59.276Z</time></trkpt><trkpt lat="42.38917" lon="14.23079"><ele>140.0</ele><time>2026-05-01T08:13:00.276Z</time></trkpt><trkpt lat="42.389045" lon="14.23079"><ele>140.0</ele><time>2026-05-01T08:13:01.276Z</time></trkpt><trkpt lat="42.388925" lon="14.2307883"><ele>140.0</ele><time>2026-05-01T08:13:02.276Z</time></trkpt><trkpt lat="42.3887933" lon="14.230765"><ele>140.0</ele><time>2026-05-01T08:13:03.277Z</time></trkpt><trkpt lat="42.3886683" lon="14.2307217"><ele>139.8</ele><time>2026-05-01T08:13:04.276Z</time></trkpt><trkpt lat="42.3885567" lon="14.2306617"><ele>139.6</ele><time>2026-05-01T08:13:05.276Z</time></trkpt><trkpt lat="42.3884633" lon="14.2305867"><ele>139.4</ele><time>2026-05-01T08:13:06.276Z</time></trkpt><trkpt lat="42.38838" lon="14.2304883"><ele>139.2</ele><time>2026-05-01T08:13:07.276Z</time></trkpt><trkpt lat="42.3883067" lon="14.23039"><ele>139.0</ele><time>2026-05-01T08:13:08.276Z</time></trkpt><trkpt lat="42.3882383" lon="14.2303067"><ele>139.2</ele><time>2026-05-01T08:13:09.276Z</time></trkpt><trkpt lat="42.38818" lon="14.2302367"><ele>139.4</ele><time>2026-05-01T08:13:10.276Z</time></trkpt><trkpt lat="42.388125" lon="14.23019"><ele>139.6</ele><time>2026-05-01T08:13:11.276Z</time></trkpt><trkpt lat="42.3880467" lon="14.2302217"><ele>139.8</ele><time>2026-05-01T08:13:13.276Z</time></trkpt><trkpt lat="42.3880033" lon="14.2304133"><ele>140.0</ele><time>2026-05-01T08:13:15.276Z</time></trkpt><trkpt lat="42.38797" lon="14.230565"><ele>139.5</ele><time>2026-05-01T08:13:16.276Z</time></trkpt><trkpt lat="42.38793" lon="14.2307333"><ele>139.0</ele><time>2026-05-01T08:13:17.276Z</time></trkpt><trkpt lat="42.38788" lon="14.2308967"><ele>138.5</ele><time>2026-05-01T08:13:18.276Z</time></trkpt><trkpt lat="42.3878183" lon="14.2310667"><ele>138.0</ele><time>2026-05-01T08:13:19.277Z</time></trkpt><trkpt lat="42.3877633" lon="14.2312333"><ele>138.0</ele><time>2026-05-01T08:13:20.276Z</time></trkpt><trkpt lat="42.387715" lon="14.2313883"><ele>138.0</ele><time>2026-05-01T08:13:21.276Z</time></trkpt><trkpt lat="42.3876683" lon="14.231535"><ele>138.0</ele><time>2026-05-01T08:13:22.276Z</time></trkpt><trkpt lat="42.3876317" lon="14.23169"><ele>138.0</ele><time>2026-05-01T08:13:23.276Z</time></trkpt><trkpt lat="42.38761" lon="14.2318483"><ele>137.25</ele><time>2026-05-01T08:13:24.276Z</time></trkpt><trkpt lat="42.3876117" lon="14.2320067"><ele>136.5</ele><time>2026-05-01T08:13:25.276Z</time></trkpt><trkpt lat="42.3876283" lon="14.2321783"><ele>135.75</ele><time>2026-05-01T08:13:26.277Z</time></trkpt><trkpt lat="42.3876567" lon="14.2323617"><ele>135.0</ele><time>2026-05-01T08:13:27.276Z</time></trkpt><trkpt lat="42.3876867" lon="14.232535"><ele>134.5</ele><time>2026-05-01T08:13:28.276Z</time></trkpt><trkpt lat="42.38772" lon="14.23271"><ele>134.0</ele><time>2026-05-01T08:13:29.276Z</time></trkpt><trkpt lat="42.38775" lon="14.232875"><ele>133.5</ele><time>2026-05-01T08:13:30.276Z</time></trkpt><trkpt lat="42.3877817" lon="14.2330367"><ele>133.0</ele><time>2026-05-01T08:13:31.276Z</time></trkpt><trkpt lat="42.3878083" lon="14.2331917"><ele>132.25</ele><time>2026-05-01T08:13:32.276Z</time></trkpt><trkpt lat="42.3878367" lon="14.2333567"><ele>131.5</ele><time>2026-05-01T08:13:33.276Z</time></trkpt><trkpt lat="42.387855" lon="14.2335033"><ele>130.75</ele><time>2026-05-01T08:13:34.276Z</time></trkpt><trkpt lat="42.38788" lon="14.2336483"><ele>130.0</ele><time>2026-05-01T08:13:35.276Z</time></trkpt><trkpt lat="42.3879067" lon="14.2337867"><ele>130.0</ele><time>2026-05-01T08:13:36.277Z</time></trkpt><trkpt lat="42.3879317" lon="14.23393"><ele>130.0</ele><time>2026-05-01T08:13:37.276Z</time></trkpt><trkpt lat="42.387955" lon="14.2340683"><ele>130.0</ele><time>2026-05-01T08:13:38.276Z</time></trkpt><trkpt lat="42.3879783" lon="14.2342167"><ele>130.0</ele><time>2026-05-01T08:13:39.276Z</time></trkpt><trkpt lat="42.3880133" lon="14.2343567"><ele>130.0</ele><time>2026-05-01T08:13:40.276Z</time></trkpt><trkpt lat="42.3880433" lon="14.234505"><ele>130.0</ele><time>2026-05-01T08:13:41.277Z</time></trkpt><trkpt lat="42.388075" lon="14.2346617"><ele>130.0</ele><time>2026-05-01T08:13:42.276Z</time></trkpt><trkpt lat="42.388105" lon="14.2348067"><ele>130.0</ele><time>2026-05-01T08:13:43.276Z</time></trkpt><trkpt lat="42.3881283" lon="14.2349317"><ele>130.0</ele><time>2026-05-01T08:13:44.276Z</time></trkpt><trkpt lat="42.3881517" lon="14.235045"><ele>130.0</ele><time>2026-05-01T08:13:45.276Z</time></trkpt><trkpt lat="42.3881767" lon="14.23514"><ele>129.83333333333334</ele><time>2026-05-01T08:13:46.276Z</time></trkpt><trkpt lat="42.3882017" lon="14.2352433"><ele>129.66666666666669</ele><time>2026-05-01T08:13:48.276Z</time></trkpt><trkpt lat="42.38821" lon="14.2353283"><ele>129.5</ele><time>2026-05-01T08:13:58.276Z</time></trkpt><trkpt lat="42.38818" lon="14.2354467"><ele>129.33333333333334</ele><time>2026-05-01T08:15:05.276Z</time></trkpt><trkpt lat="42.388135" lon="14.2355267"><ele>129.16666666666666</ele><time>2026-05-01T08:15:07.276Z</time></trkpt><trkpt lat="42.38806" lon="14.2356267"><ele>129.0</ele><time>2026-05-01T08:15:09.276Z</time></trkpt><trkpt lat="42.3879783" lon="14.2357467"><ele>128.4</ele><time>2026-05-01T08:15:11.276Z</time></trkpt><trkpt lat="42.3879033" lon="14.23584"><ele>127.80000000000001</ele><time>2026-05-01T08:15:13.276Z</time></trkpt><trkpt lat="42.3878167" lon="14.23593"><ele>127.19999999999999</ele><time>2026-05-01T08:15:15.276Z</time></trkpt><trkpt lat="42.3877317" lon="14.23603"><ele>126.6</ele><time>2026-05-01T08:15:17.277Z</time></trkpt><trkpt lat="42.3876533" lon="14.23613"><ele>126.0</ele><time>2026-05-01T08:15:19.276Z</time></trkpt><trkpt lat="42.3875867" lon="14.2362133"><ele>126.0</ele><time>2026-05-01T08:15:21.277Z</time></trkpt><trkpt lat="42.3875267" lon="14.2362833"><ele>126.0</ele><time>2026-05-01T08:15:23.276Z</time></trkpt><trkpt lat="42.3874667" lon="14.236365"><ele>126.0</ele><time>2026-05-01T08:15:25.276Z</time></trkpt><trkpt lat="42.3874067" lon="14.2364383"><ele>126.0</ele><time>2026-05-01T08:15:27.276Z</time></trkpt><trkpt lat="42.38735" lon="14.2365083"><ele>126.0</ele><time>2026-05-01T08:15:29.277Z</time></trkpt><trkpt lat="42.38727" lon="14.2365917"><ele>126.0</ele><time>2026-05-01T08:15:31.276Z</time></trkpt><trkpt lat="42.3872033" lon="14.2366717"><ele>122.8</ele><time>2026-05-01T08:15:33.276Z</time></trkpt><trkpt lat="42.3871283" lon="14.2367633"><ele>119.6</ele><time>2026-05-01T08:15:35.276Z</time></trkpt><trkpt lat="42.38705" lon="14.2368417"><ele>116.4</ele><time>2026-05-01T08:15:37.276Z</time></trkpt><trkpt lat="42.3869683" lon="14.2369333"><ele>113.2</ele><time>2026-05-01T08:15:39.276Z</time></trkpt><trkpt lat="42.3868817" lon="14.2370317"><ele>110.0</ele><time>2026-05-01T08:15:41.276Z</time></trkpt><trkpt lat="42.3868367" lon="14.2370983"><ele>109.99999999999999</ele><time>2026-05-01T08:15:42.276Z</time></trkpt><trkpt lat="42.3867883" lon="14.2371617"><ele>110.0</ele><time>2026-05-01T08:15:43.276Z</time></trkpt><trkpt lat="42.386735" lon="14.2372217"><ele>110.0</ele><time>2026-05-01T08:15:44.276Z</time></trkpt><trkpt lat="42.386685" lon="14.2372833"><ele>110.0</ele><time>2026-05-01T08:15:45.276Z</time></trkpt><trkpt lat="42.3866333" lon="14.2373433"><ele>109.99999999999999</ele><time>2026-05-01T08:15:46.276Z</time></trkpt><trkpt lat="42.38654" lon="14.23746"><ele>110.0</ele><time>2026-05-01T08:15:48.277Z</time></trkpt><trkpt lat="42.3864533" lon="14.23756"><ele>109.2</ele><time>2026-05-01T08:15:50.276Z</time></trkpt><trkpt lat="42.3864" lon="14.2376167"><ele>108.4</ele><time>2026-05-01T08:15:51.276Z</time></trkpt><trkpt lat="42.3863117" lon="14.2377217"><ele>107.6</ele><time>2026-05-01T08:15:53.276Z</time></trkpt><trkpt lat="42.38623" lon="14.2378183"><ele>106.8</ele><time>2026-05-01T08:15:55.276Z</time></trkpt><trkpt lat="42.38616" lon="14.2379"><ele>106.0</ele><time>2026-05-01T08:15:57.276Z</time></trkpt><trkpt lat="42.3861083" lon="14.23796"><ele>104.83333333333334</ele><time>2026-05-01T08:15:59.276Z</time></trkpt><trkpt lat="42.3860633" lon="14.23802"><ele>103.66666666666667</ele><time>2026-05-01T08:16:01.276Z</time></trkpt><trkpt lat="42.3860117" lon="14.2380933"><ele>102.5</ele><time>2026-05-01T08:16:05.276Z</time></trkpt><trkpt lat="42.38595" lon="14.2381533"><ele>101.33333333333334</ele><time>2026-05-01T08:16:10.276Z</time></trkpt><trkpt lat="42.3858933" lon="14.2382183"><ele>100.16666666666667</ele><time>2026-05-01T08:16:14.277Z</time></trkpt><trkpt lat="42.3858417" lon="14.2382967"><ele>99.0</ele><time>2026-05-01T08:16:18.276Z</time></trkpt><trkpt lat="42.385755" lon="14.238415"><ele>98.16666666666667</ele><time>2026-05-01T08:16:32.276Z</time></trkpt><trkpt lat="42.385705" lon="14.2384717"><ele>97.33333333333333</ele><time>2026-05-01T08:16:34.276Z</time></trkpt><trkpt lat="42.38564" lon="14.2385367"><ele>96.5</ele><time>2026-05-01T08:16:36.276Z</time></trkpt><trkpt lat="42.38557" lon="14.2386033"><ele>95.66666666666666</ele><time>2026-05-01T08:16:38.276Z</time></trkpt><trkpt lat="42.3854967" lon="14.23866"><ele>94.83333333333333</ele><time>2026-05-01T08:16:40.276Z</time></trkpt><trkpt lat="42.38543" lon="14.238725"><ele>94.0</ele><time>2026-05-01T08:16:42.276Z</time></trkpt><trkpt lat="42.385355" lon="14.2388233"><ele>93.6</ele><time>2026-05-01T08:16:58.276Z</time></trkpt><trkpt lat="42.3852883" lon="14.2389283"><ele>93.2</ele><time>2026-05-01T08:17:00.276Z</time></trkpt><trkpt lat="42.3852167" lon="14.239035"><ele>92.8</ele><time>2026-05-01T08:17:02.276Z</time></trkpt><trkpt lat="42.3851433" lon="14.2391333"><ele>92.39999999999999</ele><time>2026-05-01T08:17:04.276Z</time></trkpt><trkpt lat="42.385065" lon="14.239225"><ele>92.0</ele><time>2026-05-01T08:17:06.276Z</time></trkpt><trkpt lat="42.3849833" lon="14.2393183"><ele>90.83333333333334</ele><time>2026-05-01T08:17:08.276Z</time></trkpt><trkpt lat="42.38493" lon="14.2393833"><ele>89.66666666666667</ele><time>2026-05-01T08:17:09.276Z</time></trkpt><trkpt lat="42.38488" lon="14.2394417"><ele>88.5</ele><time>2026-05-01T08:17:10.276Z</time></trkpt><trkpt lat="42.3848283" lon="14.2395033"><ele>87.33333333333333</ele><time>2026-05-01T08:17:11.276Z</time></trkpt><trkpt lat="42.3847783" lon="14.2395583"><ele>86.16666666666666</ele><time>2026-05-01T08:17:12.276Z</time></trkpt><trkpt lat="42.3847" lon="14.2396433"><ele>85.0</ele><time>2026-05-01T08:17:14.277Z</time></trkpt><trkpt lat="42.38463" lon="14.239735"><ele>82.6</ele><time>2026-05-01T08:17:16.276Z</time></trkpt><trkpt lat="42.384555" lon="14.2398133"><ele>80.2</ele><time>2026-05-01T08:17:18.276Z</time></trkpt><trkpt lat="42.3844867" lon="14.2398917"><ele>77.8</ele><time>2026-05-01T08:17:20.276Z</time></trkpt><trkpt lat="42.3844183" lon="14.2399617"><ele>75.4</ele><time>2026-05-01T08:17:22.277Z</time></trkpt><trkpt lat="42.38436" lon="14.240035"><ele>73.0</ele><time>2026-05-01T08:17:24.276Z</time></trkpt><trkpt lat="42.3842883" lon="14.2401333"><ele>73.0</ele><time>2026-05-01T08:17:26.276Z</time></trkpt><trkpt lat="42.384205" lon="14.24023"><ele>73.0</ele><time>2026-05-01T08:17:28.277Z</time></trkpt><trkpt lat="42.38413" lon="14.2403183"><ele>73.0</ele><time>2026-05-01T08:17:30.276Z</time></trkpt><trkpt lat="42.3840617" lon="14.2403917"><ele>73.0</ele><time>2026-05-01T08:17:32.276Z</time></trkpt><trkpt lat="42.3839933" lon="14.2404617"><ele>73.0</ele><time>2026-05-01T08:17:34.276Z</time></trkpt><trkpt lat="42.3839333" lon="14.24054"><ele>73.0</ele><time>2026-05-01T08:17:36.276Z</time></trkpt><trkpt lat="42.3838767" lon="14.240615"><ele>73.0</ele><time>2026-05-01T08:17:38.276Z</time></trkpt><trkpt lat="42.3838283" lon="14.2406733"><ele>73.0</ele><time>2026-05-01T08:17:40.276Z</time></trkpt><trkpt lat="42.3837583" lon="14.2407367"><ele>73.0</ele><time>2026-05-01T08:17:43.276Z</time></trkpt><trkpt lat="42.38371" lon="14.2408017"><ele>73.0</ele><time>2026-05-01T08:17:48.275Z</time></trkpt><trkpt lat="42.383655" lon="14.24087"><ele>73.0</ele><time>2026-05-01T08:17:53.276Z</time></trkpt><trkpt lat="42.38359" lon="14.2409283"><ele>73.0</ele><time>2026-05-01T08:17:58.276Z</time></trkpt><trkpt lat="42.3835383" lon="14.2409917"><ele>70.85714285714286</ele><time>2026-05-01T08:18:03.276Z</time></trkpt><trkpt lat="42.38349" lon="14.241055"><ele>68.71428571428572</ele><time>2026-05-01T08:18:08.276Z</time></trkpt><trkpt lat="42.38344" lon="14.2411117"><ele>66.57142857142858</ele><time>2026-05-01T08:18:12.276Z</time></trkpt><trkpt lat="42.38339" lon="14.2411667"><ele>64.42857142857143</ele><time>2026-05-01T08:18:17.276Z</time></trkpt><trkpt lat="42.3833283" lon="14.241235"><ele>62.28571428571429</ele><time>2026-05-01T08:18:21.276Z</time></trkpt><trkpt lat="42.3832783" lon="14.2412917"><ele>60.14285714285715</ele><time>2026-05-01T08:18:24.276Z</time></trkpt><trkpt lat="42.3832183" lon="14.2413533"><ele>58.00000000000001</ele><time>2026-05-01T08:18:27.276Z</time></trkpt><trkpt lat="42.3831567" lon="14.2414167"><ele>56.99999999999999</ele><time>2026-05-01T08:18:30.276Z</time></trkpt><trkpt lat="42.3830967" lon="14.2414783"><ele>56.0</ele><time>2026-05-01T08:18:33.277Z</time></trkpt><trkpt lat="42.383035" lon="14.2415517"><ele>55.0</ele><time>2026-05-01T08:18:36.276Z</time></trkpt><trkpt lat="42.3829767" lon="14.24163"><ele>54.0</ele><time>2026-05-01T08:18:39.276Z</time></trkpt><trkpt lat="42.382915" lon="14.241705"><ele>52.99999999999999</ele><time>2026-05-01T08:18:44.277Z</time></trkpt><trkpt lat="42.3828567" lon="14.2417717"><ele>52.0</ele><time>2026-05-01T08:18:47.276Z</time></trkpt><trkpt lat="42.3827583" lon="14.2417683"><ele>51.49999999999999</ele><time>2026-05-01T08:19:00.276Z</time></trkpt><trkpt lat="42.3826883" lon="14.241705"><ele>51.0</ele><time>2026-05-01T08:19:02.276Z</time></trkpt><trkpt lat="42.38262" lon="14.2416217"><ele>50.5</ele><time>2026-05-01T08:19:04.276Z</time></trkpt><trkpt lat="42.38253" lon="14.2415317"><ele>50.0</ele><time>2026-05-01T08:19:06.276Z</time></trkpt><trkpt lat="42.3824733" lon="14.2414917"><ele>49.49999999999999</ele><time>2026-05-01T08:19:07.276Z</time></trkpt><trkpt lat="42.382415" lon="14.2414517"><ele>49.0</ele><time>2026-05-01T08:19:08.276Z</time></trkpt><trkpt lat="42.3823017" lon="14.2413783"><ele>49.0</ele><time>2026-05-01T08:19:10.276Z</time></trkpt><trkpt lat="42.3822333" lon="14.241325"><ele>49.0</ele><time>2026-05-01T08:19:11.276Z</time></trkpt><trkpt lat="42.38216" lon="14.2412583"><ele>49.0</ele><time>2026-05-01T08:19:12.276Z</time></trkpt><trkpt lat="42.382085" lon="14.2411817"><ele>49.0</ele><time>2026-05-01T08:19:13.276Z</time></trkpt><trkpt lat="42.3820083" lon="14.2410983"><ele>49.0</ele><time>2026-05-01T08:19:14.276Z</time></trkpt><trkpt lat="42.3819333" lon="14.24102"><ele>48.83333333333333</ele><time>2026-05-01T08:19:15.276Z</time></trkpt><trkpt lat="42.3818733" lon="14.2409617"><ele>48.666666666666664</ele><time>2026-05-01T08:19:16.277Z</time></trkpt><trkpt lat="42.3817867" lon="14.240875"><ele>48.5</ele><time>2026-05-01T08:19:18.276Z</time></trkpt><trkpt lat="42.3817367" lon="14.2408183"><ele>48.33333333333333</ele><time>2026-05-01T08:19:19.276Z</time></trkpt><trkpt lat="42.3816717" lon="14.2407567"><ele>48.166666666666664</ele><time>2026-05-01T08:19:20.276Z</time></trkpt><trkpt lat="42.3815783" lon="14.2406883"><ele>48.0</ele><time>2026-05-01T08:19:21.276Z</time></trkpt><trkpt lat="42.3814583" lon="14.24059"><ele>49.75</ele><time>2026-05-01T08:19:22.276Z</time></trkpt><trkpt lat="42.3813267" lon="14.24047"><ele>51.5</ele><time>2026-05-01T08:19:23.276Z</time></trkpt><trkpt lat="42.38119" lon="14.240355"><ele>53.25</ele><time>2026-05-01T08:19:24.276Z</time></trkpt><trkpt lat="42.3810817" lon="14.24026"><ele>55.0</ele><time>2026-05-01T08:19:25.276Z</time></trkpt><trkpt lat="42.3809767" lon="14.240165"><ele>55.0</ele><time>2026-05-01T08:19:26.276Z</time></trkpt><trkpt lat="42.3808683" lon="14.2400617"><ele>55.0</ele><time>2026-05-01T08:19:27.276Z</time></trkpt><trkpt lat="42.380775" lon="14.2399883"><ele>55.0</ele><time>2026-05-01T08:19:28.276Z</time></trkpt><trkpt lat="42.3806967" lon="14.2399133"><ele>55.0</ele><time>2026-05-01T08:19:29.276Z</time></trkpt><trkpt lat="42.3806133" lon="14.2398333"><ele>55.0</ele><time>2026-05-01T08:19:30.277Z</time></trkpt><trkpt lat="42.3805383" lon="14.2397517"><ele>55.4</ele><time>2026-05-01T08:19:31.276Z</time></trkpt><trkpt lat="42.380455" lon="14.2396533"><ele>55.8</ele><time>2026-05-01T08:19:32.276Z</time></trkpt><trkpt lat="42.380385" lon="14.2395533"><ele>56.2</ele><time>2026-05-01T08:19:33.276Z</time></trkpt><trkpt lat="42.380325" lon="14.2394467"><ele>56.6</ele><time>2026-05-01T08:19:34.277Z</time></trkpt><trkpt lat="42.3802733" lon="14.2393583"><ele>57.0</ele><time>2026-05-01T08:19:35.276Z</time></trkpt><trkpt lat="42.3802283" lon="14.2392817"><ele>57.0</ele><time>2026-05-01T08:19:36.276Z</time></trkpt><trkpt lat="42.38015" lon="14.239195"><ele>57.0</ele><time>2026-05-01T08:19:38.276Z</time></trkpt><trkpt lat="42.3801117" lon="14.23909"><ele>57.0</ele><time>2026-05-01T08:19:40.276Z</time></trkpt><trkpt lat="42.3801033" lon="14.2389933"><ele>57.0</ele><time>2026-05-01T08:19:42.276Z</time></trkpt><trkpt lat="42.3800367" lon="14.2390017"><ele>57.0</ele><time>2026-05-01T08:19:53.276Z</time></trkpt><trkpt lat="42.38" lon="14.2391"><ele>57.0</ele><time>2026-05-01T08:19:56.277Z</time></trkpt><trkpt lat="42.3799483" lon="14.2391933"><ele>57.0</ele><time>2026-05-01T08:19:58.276Z</time></trkpt><trkpt lat="42.3798817" lon="14.2392767"><ele>57.0</ele><time>2026-05-01T08:20:00.276Z</time></trkpt><trkpt lat="42.3798167" lon="14.2393517"><ele>57.0</ele><time>2026-05-01T08:20:02.276Z</time></trkpt><trkpt lat="42.3797483" lon="14.2394117"><ele>57.0</ele><time>2026-05-01T08:20:04.276Z</time></trkpt><trkpt lat="42.379665" lon="14.239475"><ele>57.0</ele><time>2026-05-01T08:20:06.276Z</time></trkpt><trkpt lat="42.3795767" lon="14.2395367"><ele>56.333333333333336</ele><time>2026-05-01T08:20:08.276Z</time></trkpt><trkpt lat="42.379485" lon="14.2396"><ele>55.66666666666667</ele><time>2026-05-01T08:20:10.276Z</time></trkpt><trkpt lat="42.379395" lon="14.23962"><ele>55.0</ele><time>2026-05-01T08:20:12.276Z</time></trkpt><trkpt lat="42.3793217" lon="14.2396467"><ele>54.333333333333336</ele><time>2026-05-01T08:20:14.276Z</time></trkpt><trkpt lat="42.3792617" lon="14.23968"><ele>53.66666666666667</ele><time>2026-05-01T08:20:16.276Z</time></trkpt><trkpt lat="42.3791767" lon="14.239735"><ele>53.0</ele><time>2026-05-01T08:20:19.276Z</time></trkpt><trkpt lat="42.379095" lon="14.239745"><ele>53.00000000000001</ele><time>2026-05-01T08:20:21.276Z</time></trkpt><trkpt lat="42.3790433" lon="14.239695"><ele>53.0</ele><time>2026-05-01T08:20:23.276Z</time></trkpt><trkpt lat="42.3790267" lon="14.2396"><ele>53.0</ele><time>2026-05-01T08:20:25.276Z</time></trkpt><trkpt lat="42.3790567" lon="14.23976"><ele>53.0</ele><time>2026-05-01T08:21:17.276Z</time></trkpt><trkpt lat="42.379085" lon="14.2398383"><ele>53.00000000000001</ele><time>2026-05-01T08:21:21.275Z</time></trkpt><trkpt lat="42.3790183" lon="14.2398633"><ele>53.0</ele><time>2026-05-01T08:21:49.276Z</time></trkpt><trkpt lat="42.3789217" lon="14.2399667"><ele>52.00000000000001</ele><time>2026-05-01T08:21:51.275Z</time></trkpt><trkpt lat="42.378855" lon="14.2400017"><ele>51.0</ele><time>2026-05-01T08:21:52.275Z</time></trkpt><trkpt lat="42.3787717" lon="14.240015"><ele>50.0</ele><time>2026-05-01T08:21:53.275Z</time></trkpt><trkpt lat="42.37868" lon="14.2400133"><ele>49.0</ele><time>2026-05-01T08:21:54.275Z</time></trkpt><trkpt lat="42.3785917" lon="14.2399917"><ele>48.0</ele><time>2026-05-01T08:21:55.275Z</time></trkpt><trkpt lat="42.3785133" lon="14.2399683"><ele>47.0</ele><time>2026-05-01T08:21:56.275Z</time></trkpt><trkpt lat="42.3784467" lon="14.2399483"><ele>47.0</ele><time>2026-05-01T08:21:57.275Z</time></trkpt><trkpt lat="42.3783367" lon="14.23991"><ele>47.0</ele><time>2026-05-01T08:21:59.275Z</time></trkpt><trkpt lat="42.3782267" lon="14.2398483"><ele>47.0</ele><time>2026-05-01T08:22:01.275Z</time></trkpt><trkpt lat="42.378155" lon="14.2397867"><ele>47.0</ele><time>2026-05-01T08:22:02.275Z</time></trkpt><trkpt lat="42.3780767" lon="14.2397317"><ele>47.0</ele><time>2026-05-01T08:22:03.275Z</time></trkpt><trkpt lat="42.3780183" lon="14.2396833"><ele>47.0</ele><time>2026-05-01T08:22:04.275Z</time></trkpt><trkpt lat="42.3779517" lon="14.2396333"><ele>47.0</ele><time>2026-05-01T08:22:05.275Z</time></trkpt><trkpt lat="42.3778733" lon="14.239585"><ele>47.0</ele><time>2026-05-01T08:22:06.275Z</time></trkpt><trkpt lat="42.3777833" lon="14.2395283"><ele>47.0</ele><time>2026-05-01T08:22:07.276Z</time></trkpt><trkpt lat="42.3776833" lon="14.2394683"><ele>47.0</ele><time>2026-05-01T08:22:08.275Z</time></trkpt><trkpt lat="42.3775833" lon="14.2393983"><ele>47.0</ele><time>2026-05-01T08:22:09.275Z</time></trkpt><trkpt lat="42.3774917" lon="14.2393233"><ele>47.0</ele><time>2026-05-01T08:22:10.275Z</time></trkpt><trkpt lat="42.3773967" lon="14.2392517"><ele>47.0</ele><time>2026-05-01T08:22:11.275Z</time></trkpt><trkpt lat="42.3773048" lon="14.2391806"><ele>47.0</ele><time>2026-05-01T08:22:12.276Z</time></trkpt><trkpt lat="42.3772117" lon="14.2391006"><ele>47.0</ele><time>2026-05-01T08:22:13.275Z</time></trkpt><trkpt lat="42.3771143" lon="14.2390155"><ele>48.75</ele><time>2026-05-01T08:22:14.275Z</time></trkpt><trkpt lat="42.377009" lon="14.2389278"><ele>50.5</ele><time>2026-05-01T08:22:15.275Z</time></trkpt><trkpt lat="42.3769016" lon="14.2388402"><ele>52.25</ele><time>2026-05-01T08:22:16.275Z</time></trkpt><trkpt lat="42.3767928" lon="14.2387431"><ele>54.0</ele><time>2026-05-01T08:22:17.275Z</time></trkpt><trkpt lat="42.3766849" lon="14.2386471"><ele>54.0</ele><time>2026-05-01T08:22:18.275Z</time></trkpt><trkpt lat="42.3765751" lon="14.2385457"><ele>54.0</ele><time>2026-05-01T08:22:19.275Z</time></trkpt><trkpt lat="42.3764701" lon="14.2384386"><ele>54.0</ele><time>2026-05-01T08:22:20.275Z</time></trkpt><trkpt lat="42.3763704" lon="14.2383485"><ele>54.0</ele><time>2026-05-01T08:22:21.275Z</time></trkpt><trkpt lat="42.3762762" lon="14.2382696"><ele>54.400000000000006</ele><time>2026-05-01T08:22:22.275Z</time></trkpt><trkpt lat="42.3761915" lon="14.2382021"><ele>54.800000000000004</ele><time>2026-05-01T08:22:23.275Z</time></trkpt><trkpt lat="42.3761073" lon="14.2381433"><ele>55.199999999999996</ele><time>2026-05-01T08:22:24.275Z</time></trkpt><trkpt lat="42.3760176" lon="14.2380778"><ele>55.599999999999994</ele><time>2026-05-01T08:22:25.275Z</time></trkpt><trkpt lat="42.3759247" lon="14.2380027"><ele>56.0</ele><time>2026-05-01T08:22:26.276Z</time></trkpt><trkpt lat="42.3758282" lon="14.2379257"><ele>56.00000000000001</ele><time>2026-05-01T08:22:27.275Z</time></trkpt><trkpt lat="42.3757438" lon="14.2378489"><ele>56.0</ele><time>2026-05-01T08:22:28.275Z</time></trkpt><trkpt lat="42.3756672" lon="14.2377831"><ele>56.0</ele><time>2026-05-01T08:22:29.275Z</time></trkpt><trkpt lat="42.3755991" lon="14.2377298"><ele>56.0</ele><time>2026-05-01T08:22:30.276Z</time></trkpt><trkpt lat="42.3755405" lon="14.2376799"><ele>56.00000000000001</ele><time>2026-05-01T08:22:31.275Z</time></trkpt><trkpt lat="42.3754787" lon="14.2376309"><ele>56.0</ele><time>2026-05-01T08:22:32.275Z</time></trkpt><trkpt lat="42.3754127" lon="14.237577"><ele>56.0</ele><time>2026-05-01T08:22:33.276Z</time></trkpt><trkpt lat="42.3753311" lon="14.2375063"><ele>56.0</ele><time>2026-05-01T08:22:34.275Z</time></trkpt><trkpt lat="42.375226" lon="14.2374239"><ele>56.0</ele><time>2026-05-01T08:22:35.276Z</time></trkpt><trkpt lat="42.3751021" lon="14.2373395"><ele>56.0</ele><time>2026-05-01T08:22:36.275Z</time></trkpt><trkpt lat="42.374981" lon="14.2372594"><ele>56.0</ele><time>2026-05-01T08:22:37.275Z</time></trkpt><trkpt lat="42.3748657" lon="14.2371787"><ele>56.0</ele><time>2026-05-01T08:22:38.275Z</time></trkpt><trkpt lat="42.3747511" lon="14.2371005"><ele>56.0</ele><time>2026-05-01T08:22:39.275Z</time></trkpt><trkpt lat="42.3746404" lon="14.2370214"><ele>56.0</ele><time>2026-05-01T08:22:40.275Z</time></trkpt><trkpt lat="42.3745343" lon="14.2369424"><ele>55.5</ele><time>2026-05-01T08:22:41.275Z</time></trkpt><trkpt lat="42.3744391" lon="14.2368644"><ele>55.0</ele><time>2026-05-01T08:22:42.275Z</time></trkpt><trkpt lat="42.374348" lon="14.2367814"><ele>54.5</ele><time>2026-05-01T08:22:43.275Z</time></trkpt><trkpt lat="42.3742454" lon="14.2367006"><ele>54.0</ele><time>2026-05-01T08:22:44.275Z</time></trkpt><trkpt lat="42.3741258" lon="14.2366191"><ele>54.0</ele><time>2026-05-01T08:22:45.276Z</time></trkpt><trkpt lat="42.3739968" lon="14.2365315"><ele>54.0</ele><time>2026-05-01T08:22:46.275Z</time></trkpt><trkpt lat="42.3738599" lon="14.2364276"><ele>54.0</ele><time>2026-05-01T08:22:47.275Z</time></trkpt><trkpt lat="42.3737216" lon="14.2363138"><ele>56.66666666666667</ele><time>2026-05-01T08:22:48.275Z</time></trkpt><trkpt lat="42.3735809" lon="14.2362088"><ele>59.333333333333336</ele><time>2026-05-01T08:22:49.275Z</time></trkpt><trkpt lat="42.3734316" lon="14.2360988"><ele>62.0</ele><time>2026-05-01T08:22:50.275Z</time></trkpt><trkpt lat="42.3732758" lon="14.2359926"><ele>62.0</ele><time>2026-05-01T08:22:51.275Z</time></trkpt><trkpt lat="42.3731238" lon="14.2358939"><ele>62.0</ele><time>2026-05-01T08:22:52.275Z</time></trkpt><trkpt lat="42.3729871" lon="14.235803"><ele>62.0</ele><time>2026-05-01T08:22:53.275Z</time></trkpt><trkpt lat="42.3728669" lon="14.2357228"><ele>61.75</ele><time>2026-05-01T08:22:54.275Z</time></trkpt><trkpt lat="42.3727477" lon="14.2356473"><ele>61.5</ele><time>2026-05-01T08:22:55.276Z</time></trkpt><trkpt lat="42.3726267" lon="14.2355726"><ele>61.25</ele><time>2026-05-01T08:22:56.275Z</time></trkpt><trkpt lat="42.3725223" lon="14.2355006"><ele>61.0</ele><time>2026-05-01T08:22:57.275Z</time></trkpt><trkpt lat="42.3724291" lon="14.2354237"><ele>61.0</ele><time>2026-05-01T08:22:58.275Z</time></trkpt><trkpt lat="42.3723539" lon="14.2353387"><ele>60.99999999999999</ele><time>2026-05-01T08:22:59.275Z</time></trkpt><trkpt lat="42.3723007" lon="14.2352507"><ele>60.99999999999999</ele><time>2026-05-01T08:23:00.275Z</time></trkpt><trkpt lat="42.37227" lon="14.2351737"><ele>61.0</ele><time>2026-05-01T08:23:01.275Z</time></trkpt><trkpt lat="42.3722843" lon="14.2350426"><ele>61.0</ele><time>2026-05-01T08:23:03.275Z</time></trkpt><trkpt lat="42.3723959" lon="14.2349794"><ele>60.99999999999999</ele><time>2026-05-01T08:23:05.275Z</time></trkpt><trkpt lat="42.3724716" lon="14.2349852"><ele>61.0</ele><time>2026-05-01T08:23:06.275Z</time></trkpt><trkpt lat="42.3725428" lon="14.2349957"><ele>61.0</ele><time>2026-05-01T08:23:07.275Z</time></trkpt><trkpt lat="42.3726423" lon="14.2349935"><ele>61.0</ele><time>2026-05-01T08:23:09.275Z</time></trkpt><trkpt lat="42.3726803" lon="14.2349088"><ele>60.99999999999999</ele><time>2026-05-01T08:23:12.275Z</time></trkpt><trkpt lat="42.3726218" lon="14.2348249"><ele>61.0</ele><time>2026-05-01T08:23:14.275Z</time></trkpt><trkpt lat="42.372555" lon="14.2347967"><ele>61.666666666666664</ele><time>2026-05-01T08:23:15.275Z</time></trkpt><trkpt lat="42.3724833" lon="14.2347817"><ele>62.33333333333333</ele><time>2026-05-01T08:23:16.275Z</time></trkpt><trkpt lat="42.3724067" lon="14.2347683"><ele>63.0</ele><time>2026-05-01T08:23:17.276Z</time></trkpt><trkpt lat="42.3723133" lon="14.2347683"><ele>63.66666666666667</ele><time>2026-05-01T08:23:18.276Z</time></trkpt><trkpt lat="42.372225" lon="14.234775"><ele>64.33333333333334</ele><time>2026-05-01T08:23:19.275Z</time></trkpt><trkpt lat="42.3721367" lon="14.23478"><ele>65.0</ele><time>2026-05-01T08:23:20.275Z</time></trkpt><trkpt lat="42.372035" lon="14.234775"><ele>63.2</ele><time>2026-05-01T08:23:21.275Z</time></trkpt><trkpt lat="42.371935" lon="14.2347533"><ele>61.4</ele><time>2026-05-01T08:23:22.275Z</time></trkpt><trkpt lat="42.371835" lon="14.2347283"><ele>59.599999999999994</ele><time>2026-05-01T08:23:23.275Z</time></trkpt><trkpt lat="42.3717417" lon="14.2346817"><ele>57.8</ele><time>2026-05-01T08:23:24.275Z</time></trkpt><trkpt lat="42.3716467" lon="14.2346233"><ele>56.0</ele><time>2026-05-01T08:23:25.275Z</time></trkpt><trkpt lat="42.3715533" lon="14.23455"><ele>56.0</ele><time>2026-05-01T08:23:26.275Z</time></trkpt><trkpt lat="42.371465" lon="14.2344733"><ele>56.0</ele><time>2026-05-01T08:23:27.275Z</time></trkpt><trkpt lat="42.3713667" lon="14.234385"><ele>56.0</ele><time>2026-05-01T08:23:28.275Z</time></trkpt><trkpt lat="42.371265" lon="14.2342967"><ele>56.0</ele><time>2026-05-01T08:23:29.275Z</time></trkpt><trkpt lat="42.3711483" lon="14.2342183"><ele>54.75</ele><time>2026-05-01T08:23:30.275Z</time></trkpt><trkpt lat="42.3710317" lon="14.23416"><ele>53.5</ele><time>2026-05-01T08:23:31.275Z</time></trkpt><trkpt lat="42.3709167" lon="14.2341333"><ele>52.25</ele><time>2026-05-01T08:23:32.275Z</time></trkpt><trkpt lat="42.37081" lon="14.2341333"><ele>51.0</ele><time>2026-05-01T08:23:33.275Z</time></trkpt><trkpt lat="42.3707" lon="14.23415"><ele>51.0</ele><time>2026-05-01T08:23:34.275Z</time></trkpt><trkpt lat="42.3706" lon="14.2341633"><ele>51.0</ele><time>2026-05-01T08:23:35.275Z</time></trkpt><trkpt lat="42.3704867" lon="14.2341733"><ele>51.0</ele><time>2026-05-01T08:23:36.275Z</time></trkpt><trkpt lat="42.3703667" lon="14.2341933"><ele>51.0</ele><time>2026-05-01T08:23:37.275Z</time></trkpt><trkpt lat="42.37023" lon="14.23422"><ele>49.75</ele><time>2026-05-01T08:23:38.275Z</time></trkpt><trkpt lat="42.37008" lon="14.234245"><ele>48.5</ele><time>2026-05-01T08:23:39.275Z</time></trkpt><trkpt lat="42.3699483" lon="14.2342683"><ele>47.25</ele><time>2026-05-01T08:23:40.275Z</time></trkpt><trkpt lat="42.369825" lon="14.2342733"><ele>46.0</ele><time>2026-05-01T08:23:41.275Z</time></trkpt><trkpt lat="42.3697167" lon="14.23429"><ele>46.8</ele><time>2026-05-01T08:23:42.276Z</time></trkpt><trkpt lat="42.3696033" lon="14.2343"><ele>47.599999999999994</ele><time>2026-05-01T08:23:43.275Z</time></trkpt><trkpt lat="42.369495" lon="14.2343133"><ele>48.4</ele><time>2026-05-01T08:23:44.275Z</time></trkpt><trkpt lat="42.3694067" lon="14.234325"><ele>49.2</ele><time>2026-05-01T08:23:45.275Z</time></trkpt><trkpt lat="42.3693217" lon="14.2343183"><ele>50.0</ele><time>2026-05-01T08:23:46.275Z</time></trkpt><trkpt lat="42.369235" lon="14.2343233"><ele>50.00000000000001</ele><time>2026-05-01T08:23:47.275Z</time></trkpt><trkpt lat="42.3691533" lon="14.2343417"><ele>50.0</ele><time>2026-05-01T08:23:48.275Z</time></trkpt><trkpt lat="42.36909" lon="14.2343533"><ele>50.0</ele><time>2026-05-01T08:23:49.276Z</time></trkpt><trkpt lat="42.3690233" lon="14.2344067"><ele>50.0</ele><time>2026-05-01T08:23:51.275Z</time></trkpt><trkpt lat="42.3690533" lon="14.2344867"><ele>50.00000000000001</ele><time>2026-05-01T08:23:53.275Z</time></trkpt><trkpt lat="42.3691367" lon="14.23456"><ele>50.0</ele><time>2026-05-01T08:23:55.276Z</time></trkpt><trkpt lat="42.369235" lon="14.23458"><ele>50.0</ele><time>2026-05-01T08:23:57.276Z</time></trkpt><trkpt lat="42.3693233" lon="14.234605"><ele>50.0</ele><time>2026-05-01T08:23:59.276Z</time></trkpt><trkpt lat="42.3694383" lon="14.2346267"><ele>50.0</ele><time>2026-05-01T08:24:01.275Z</time></trkpt><trkpt lat="42.36957" lon="14.2346433"><ele>50.0</ele><time>2026-05-01T08:24:03.275Z</time></trkpt><trkpt lat="42.3696533" lon="14.23465"><ele>50.0</ele><time>2026-05-01T08:24:04.275Z</time></trkpt><trkpt lat="42.3697317" lon="14.2346567"><ele>49.2</ele><time>2026-05-01T08:24:05.275Z</time></trkpt><trkpt lat="42.3698083" lon="14.2346617"><ele>48.4</ele><time>2026-05-01T08:24:06.275Z</time></trkpt><trkpt lat="42.3698733" lon="14.23467"><ele>47.599999999999994</ele><time>2026-05-01T08:24:07.275Z</time></trkpt><trkpt lat="42.36996" lon="14.2347583"><ele>46.8</ele><time>2026-05-01T08:24:09.275Z</time></trkpt><trkpt lat="42.3700167" lon="14.234915"><ele>46.0</ele><time>2026-05-01T08:24:11.275Z</time></trkpt><trkpt lat="42.3700317" lon="14.235025"><ele>45.199999999999996</ele><time>2026-05-01T08:24:12.275Z</time></trkpt><trkpt lat="42.3700367" lon="14.23516"><ele>44.4</ele><time>2026-05-01T08:24:13.276Z</time></trkpt><trkpt lat="42.37005" lon="14.2353017"><ele>43.6</ele><time>2026-05-01T08:24:14.275Z</time></trkpt><trkpt lat="42.37008" lon="14.235455"><ele>42.8</ele><time>2026-05-01T08:24:15.275Z</time></trkpt><trkpt lat="42.3701033" lon="14.235595"><ele>42.0</ele><time>2026-05-01T08:24:16.275Z</time></trkpt><trkpt lat="42.3701183" lon="14.23571"><ele>42.0</ele><time>2026-05-01T08:24:17.275Z</time></trkpt><trkpt lat="42.3701233" lon="14.235825"><ele>42.0</ele><time>2026-05-01T08:24:18.275Z</time></trkpt><trkpt lat="42.3701233" lon="14.235935"><ele>42.0</ele><time>2026-05-01T08:24:19.275Z</time></trkpt><trkpt lat="42.3701083" lon="14.2360583"><ele>42.0</ele><time>2026-05-01T08:24:20.275Z</time></trkpt><trkpt lat="42.3700833" lon="14.2362"><ele>42.0</ele><time>2026-05-01T08:24:21.275Z</time></trkpt><trkpt lat="42.370045" lon="14.2363433"><ele>42.2</ele><time>2026-05-01T08:24:22.275Z</time></trkpt><trkpt lat="42.37001" lon="14.2364817"><ele>42.400000000000006</ele><time>2026-05-01T08:24:23.275Z</time></trkpt><trkpt lat="42.369985" lon="14.2366217"><ele>42.599999999999994</ele><time>2026-05-01T08:24:24.275Z</time></trkpt><trkpt lat="42.3699767" lon="14.2367683"><ele>42.8</ele><time>2026-05-01T08:24:25.275Z</time></trkpt><trkpt lat="42.3699867" lon="14.2369133"><ele>43.0</ele><time>2026-05-01T08:24:26.275Z</time></trkpt><trkpt lat="42.3700133" lon="14.2370467"><ele>43.0</ele><time>2026-05-01T08:24:27.275Z</time></trkpt><trkpt lat="42.3700583" lon="14.23716"><ele>43.0</ele><time>2026-05-01T08:24:28.275Z</time></trkpt><trkpt lat="42.3701283" lon="14.2372567"><ele>43.0</ele><time>2026-05-01T08:24:29.275Z</time></trkpt><trkpt lat="42.3702267" lon="14.2373567"><ele>43.0</ele><time>2026-05-01T08:24:30.275Z</time></trkpt><trkpt lat="42.370345" lon="14.23745"><ele>42.75</ele><time>2026-05-01T08:24:31.275Z</time></trkpt><trkpt lat="42.37046" lon="14.2375483"><ele>42.5</ele><time>2026-05-01T08:24:32.276Z</time></trkpt><trkpt lat="42.370565" lon="14.2376417"><ele>42.25</ele><time>2026-05-01T08:24:33.275Z</time></trkpt><trkpt lat="42.3706683" lon="14.23772"><ele>42.0</ele><time>2026-05-01T08:24:34.275Z</time></trkpt><trkpt lat="42.3707717" lon="14.237805"><ele>42.0</ele><time>2026-05-01T08:24:35.275Z</time></trkpt><trkpt lat="42.370885" lon="14.2378967"><ele>42.0</ele><time>2026-05-01T08:24:36.275Z</time></trkpt><trkpt lat="42.3709867" lon="14.2379783"><ele>42.0</ele><time>2026-05-01T08:24:37.276Z</time></trkpt><trkpt lat="42.3710767" lon="14.23805"><ele>42.0</ele><time>2026-05-01T08:24:38.276Z</time></trkpt><trkpt lat="42.3711667" lon="14.2381183"><ele>42.2</ele><time>2026-05-01T08:24:39.275Z</time></trkpt><trkpt lat="42.37126" lon="14.2381883"><ele>42.400000000000006</ele><time>2026-05-01T08:24:40.275Z</time></trkpt><trkpt lat="42.3713467" lon="14.2382717"><ele>42.599999999999994</ele><time>2026-05-01T08:24:41.276Z</time></trkpt><trkpt lat="42.3714383" lon="14.23835"><ele>42.8</ele><time>2026-05-01T08:24:42.275Z</time></trkpt><trkpt lat="42.37152" lon="14.238415"><ele>43.0</ele><time>2026-05-01T08:24:43.276Z</time></trkpt><trkpt lat="42.3716" lon="14.2384967"><ele>43.0</ele><time>2026-05-01T08:24:44.275Z</time></trkpt><trkpt lat="42.3716917" lon="14.2385867"><ele>43.0</ele><time>2026-05-01T08:24:45.275Z</time></trkpt><trkpt lat="42.3717717" lon="14.2386883"><ele>43.0</ele><time>2026-05-01T08:24:46.275Z</time></trkpt><trkpt lat="42.37185" lon="14.2388117"><ele>43.0</ele><time>2026-05-01T08:24:47.276Z</time></trkpt><trkpt lat="42.37193" lon="14.238935"><ele>42.5</ele><time>2026-05-01T08:24:48.276Z</time></trkpt><trkpt lat="42.3720167" lon="14.2390567"><ele>42.0</ele><time>2026-05-01T08:24:49.275Z</time></trkpt><trkpt lat="42.372105" lon="14.239175"><ele>41.5</ele><time>2026-05-01T08:24:50.275Z</time></trkpt><trkpt lat="42.372185" lon="14.2392783"><ele>41.0</ele><time>2026-05-01T08:24:51.275Z</time></trkpt><trkpt lat="42.3722633" lon="14.2393733"><ele>41.0</ele><time>2026-05-01T08:24:52.275Z</time></trkpt><trkpt lat="42.3723367" lon="14.2394583"><ele>41.0</ele><time>2026-05-01T08:24:53.275Z</time></trkpt><trkpt lat="42.3723967" lon="14.2395283"><ele>41.0</ele><time>2026-05-01T08:24:54.275Z</time></trkpt><trkpt lat="42.3725033" lon="14.2396333"><ele>41.0</ele><time>2026-05-01T08:24:56.275Z</time></trkpt><trkpt lat="42.37262" lon="14.2397467"><ele>41.166666666666664</ele><time>2026-05-01T08:24:58.276Z</time></trkpt><trkpt lat="42.372675" lon="14.2398033"><ele>41.33333333333333</ele><time>2026-05-01T08:24:59.275Z</time></trkpt><trkpt lat="42.3727433" lon="14.239865"><ele>41.5</ele><time>2026-05-01T08:25:00.275Z</time></trkpt><trkpt lat="42.3728167" lon="14.2399433"><ele>41.666666666666664</ele><time>2026-05-01T08:25:01.275Z</time></trkpt><trkpt lat="42.3728983" lon="14.2400183"><ele>41.833333333333336</ele><time>2026-05-01T08:25:02.275Z</time></trkpt><trkpt lat="42.3729783" lon="14.2400917"><ele>42.0</ele><time>2026-05-01T08:25:03.275Z</time></trkpt><trkpt lat="42.3730483" lon="14.24016"><ele>41.2</ele><time>2026-05-01T08:25:04.275Z</time></trkpt><trkpt lat="42.373125" lon="14.2402167"><ele>40.400000000000006</ele><time>2026-05-01T08:25:05.275Z</time></trkpt><trkpt lat="42.37319" lon="14.24026"><ele>39.599999999999994</ele><time>2026-05-01T08:25:06.275Z</time></trkpt><trkpt lat="42.3732967" lon="14.2403483"><ele>38.8</ele><time>2026-05-01T08:25:08.275Z</time></trkpt><trkpt lat="42.373355" lon="14.2404083"><ele>38.0</ele><time>2026-05-01T08:25:09.275Z</time></trkpt><trkpt lat="42.3734317" lon="14.2404833"><ele>38.0</ele><time>2026-05-01T08:25:10.275Z</time></trkpt><trkpt lat="42.3735167" lon="14.240565"><ele>38.0</ele><time>2026-05-01T08:25:11.275Z</time></trkpt><trkpt lat="42.3735967" lon="14.2406517"><ele>38.0</ele><time>2026-05-01T08:25:12.276Z</time></trkpt><trkpt lat="42.37368" lon="14.240745"><ele>38.0</ele><time>2026-05-01T08:25:13.275Z</time></trkpt><trkpt lat="42.373775" lon="14.2408483"><ele>38.0</ele><time>2026-05-01T08:25:14.275Z</time></trkpt><trkpt lat="42.373865" lon="14.240955"><ele>37.5</ele><time>2026-05-01T08:25:15.275Z</time></trkpt><trkpt lat="42.373955" lon="14.241055"><ele>37.0</ele><time>2026-05-01T08:25:16.275Z</time></trkpt><trkpt lat="42.374065" lon="14.2411383"><ele>36.5</ele><time>2026-05-01T08:25:17.275Z</time></trkpt><trkpt lat="42.374185" lon="14.241225"><ele>36.0</ele><time>2026-05-01T08:25:18.276Z</time></trkpt><trkpt lat="42.37431" lon="14.2412967"><ele>36.0</ele><time>2026-05-01T08:25:19.275Z</time></trkpt><trkpt lat="42.3744283" lon="14.241385"><ele>36.0</ele><time>2026-05-01T08:25:20.275Z</time></trkpt><trkpt lat="42.3745483" lon="14.2414833"><ele>36.0</ele><time>2026-05-01T08:25:21.275Z</time></trkpt><trkpt lat="42.3746633" lon="14.241605"><ele>36.0</ele><time>2026-05-01T08:25:22.275Z</time></trkpt><trkpt lat="42.3747683" lon="14.241735"><ele>35.5</ele><time>2026-05-01T08:25:23.275Z</time></trkpt><trkpt lat="42.3748667" lon="14.2418533"><ele>35.0</ele><time>2026-05-01T08:25:24.275Z</time></trkpt><trkpt lat="42.3749683" lon="14.2419817"><ele>34.5</ele><time>2026-05-01T08:25:25.275Z</time></trkpt><trkpt lat="42.3750683" lon="14.2421"><ele>34.0</ele><time>2026-05-01T08:25:26.275Z</time></trkpt><trkpt lat="42.37515" lon="14.24221"><ele>34.0</ele><time>2026-05-01T08:25:27.275Z</time></trkpt><trkpt lat="42.3752117" lon="14.2422917"><ele>34.0</ele><time>2026-05-01T08:25:28.276Z</time></trkpt><trkpt lat="42.3752517" lon="14.24236"><ele>34.0</ele><time>2026-05-01T08:25:29.275Z</time></trkpt><trkpt lat="42.3752883" lon="14.2424333"><ele>34.0</ele><time>2026-05-01T08:25:30.275Z</time></trkpt><trkpt lat="42.3753167" lon="14.24253"><ele>34.0</ele><time>2026-05-01T08:25:31.275Z</time></trkpt><trkpt lat="42.3753183" lon="14.2426317"><ele>34.0</ele><time>2026-05-01T08:25:32.275Z</time></trkpt><trkpt lat="42.3753017" lon="14.2427583"><ele>35.25</ele><time>2026-05-01T08:25:33.275Z</time></trkpt><trkpt lat="42.3752617" lon="14.2429083"><ele>36.5</ele><time>2026-05-01T08:25:34.275Z</time></trkpt><trkpt lat="42.375215" lon="14.24309"><ele>37.75</ele><time>2026-05-01T08:25:35.275Z</time></trkpt><trkpt lat="42.3751467" lon="14.2432967"><ele>39.0</ele><time>2026-05-01T08:25:36.275Z</time></trkpt><trkpt lat="42.37507" lon="14.2435083"><ele>40.5</ele><time>2026-05-01T08:25:37.275Z</time></trkpt><trkpt lat="42.375" lon="14.2436917"><ele>42.0</ele><time>2026-05-01T08:25:38.275Z</time></trkpt><trkpt lat="42.3749317" lon="14.243865"><ele>43.5</ele><time>2026-05-01T08:25:39.275Z</time></trkpt><trkpt lat="42.3748683" lon="14.24403"><ele>45.0</ele><time>2026-05-01T08:25:40.275Z</time></trkpt><trkpt lat="42.3748083" lon="14.244195"><ele>46.5</ele><time>2026-05-01T08:25:41.275Z</time></trkpt><trkpt lat="42.3747633" lon="14.2443383"><ele>48.0</ele><time>2026-05-01T08:25:42.275Z</time></trkpt><trkpt lat="42.3747167" lon="14.24448"><ele>49.5</ele><time>2026-05-01T08:25:43.276Z</time></trkpt><trkpt lat="42.3746733" lon="14.24463"><ele>51.0</ele><time>2026-05-01T08:25:44.275Z</time></trkpt><trkpt lat="42.374635" lon="14.2447867"><ele>55.0</ele><time>2026-05-01T08:25:45.275Z</time></trkpt><trkpt lat="42.3745983" lon="14.2449617"><ele>59.0</ele><time>2026-05-01T08:25:46.276Z</time></trkpt><trkpt lat="42.374565" lon="14.2451333"><ele>63.0</ele><time>2026-05-01T08:25:47.275Z</time></trkpt><trkpt lat="42.37453" lon="14.2453033"><ele>67.0</ele><time>2026-05-01T08:25:48.275Z</time></trkpt><trkpt lat="42.3744933" lon="14.2454667"><ele>68.5</ele><time>2026-05-01T08:25:49.275Z</time></trkpt><trkpt lat="42.3744533" lon="14.24563"><ele>70.0</ele><time>2026-05-01T08:25:50.275Z</time></trkpt><trkpt lat="42.374415" lon="14.2457867"><ele>71.5</ele><time>2026-05-01T08:25:51.275Z</time></trkpt><trkpt lat="42.3743783" lon="14.24596"><ele>73.0</ele><time>2026-05-01T08:25:52.275Z</time></trkpt><trkpt lat="42.374325" lon="14.246135"><ele>73.0</ele><time>2026-05-01T08:25:53.275Z</time></trkpt><trkpt lat="42.3742633" lon="14.246295"><ele>73.0</ele><time>2026-05-01T08:25:54.275Z</time></trkpt><trkpt lat="42.3741967" lon="14.24644"><ele>73.0</ele><time>2026-05-01T08:25:55.275Z</time></trkpt><trkpt lat="42.3741333" lon="14.2465617"><ele>73.0</ele><time>2026-05-01T08:25:56.275Z</time></trkpt><trkpt lat="42.3740717" lon="14.246665"><ele>73.33333333333333</ele><time>2026-05-01T08:25:57.275Z</time></trkpt><trkpt lat="42.3740317" lon="14.246765"><ele>73.66666666666666</ele><time>2026-05-01T08:25:58.275Z</time></trkpt><trkpt lat="42.3740083" lon="14.2468683"><ele>74.0</ele><time>2026-05-01T08:25:59.275Z</time></trkpt><trkpt lat="42.3740067" lon="14.246965"><ele>74.33333333333333</ele><time>2026-05-01T08:26:00.275Z</time></trkpt><trkpt lat="42.3740233" lon="14.2470733"><ele>74.66666666666667</ele><time>2026-05-01T08:26:01.275Z</time></trkpt><trkpt lat="42.3740317" lon="14.2471883"><ele>75.0</ele><time>2026-05-01T08:26:02.276Z</time></trkpt><trkpt lat="42.37402" lon="14.2473383"><ele>76.2</ele><time>2026-05-01T08:26:03.275Z</time></trkpt><trkpt lat="42.3739833" lon="14.2474917"><ele>77.4</ele><time>2026-05-01T08:26:04.275Z</time></trkpt><trkpt lat="42.3739533" lon="14.247625"><ele>78.6</ele><time>2026-05-01T08:26:05.275Z</time></trkpt><trkpt lat="42.37393" lon="14.2477317"><ele>79.8</ele><time>2026-05-01T08:26:06.275Z</time></trkpt><trkpt lat="42.3738867" lon="14.2478817"><ele>81.0</ele><time>2026-05-01T08:26:08.275Z</time></trkpt><trkpt lat="42.373865" lon="14.2480583"><ele>82.19999999999999</ele><time>2026-05-01T08:26:10.275Z</time></trkpt><trkpt lat="42.373865" lon="14.2481833"><ele>83.39999999999999</ele><time>2026-05-01T08:26:11.275Z</time></trkpt><trkpt lat="42.37387" lon="14.2483317"><ele>84.6</ele><time>2026-05-01T08:26:12.275Z</time></trkpt><trkpt lat="42.3738667" lon="14.2484967"><ele>85.8</ele><time>2026-05-01T08:26:13.275Z</time></trkpt><trkpt lat="42.3738617" lon="14.2486517"><ele>87.0</ele><time>2026-05-01T08:26:14.276Z</time></trkpt><trkpt lat="42.373855" lon="14.248795"><ele>90.5</ele><time>2026-05-01T08:26:15.275Z</time></trkpt><trkpt lat="42.3738317" lon="14.2489533"><ele>94.0</ele><time>2026-05-01T08:26:16.276Z</time></trkpt><trkpt lat="42.3737933" lon="14.249125"><ele>97.5</ele><time>2026-05-01T08:26:17.275Z</time></trkpt><trkpt lat="42.373745" lon="14.24933"><ele>101.0</ele><time>2026-05-01T08:26:18.275Z</time></trkpt><trkpt lat="42.3737083" lon="14.2495217"><ele>102.19999999999999</ele><time>2026-05-01T08:26:19.276Z</time></trkpt><trkpt lat="42.3736733" lon="14.2496917"><ele>103.39999999999999</ele><time>2026-05-01T08:26:20.275Z</time></trkpt><trkpt lat="42.37364" lon="14.2498433"><ele>104.6</ele><time>2026-05-01T08:26:21.276Z</time></trkpt><trkpt lat="42.3736033" lon="14.2499817"><ele>105.8</ele><time>2026-05-01T08:26:22.275Z</time></trkpt><trkpt lat="42.3735667" lon="14.2500967"><ele>107.0</ele><time>2026-05-01T08:26:23.275Z</time></trkpt><trkpt lat="42.3735433" lon="14.250185"><ele>107.49999999999999</ele><time>2026-05-01T08:26:24.275Z</time></trkpt><trkpt lat="42.3735533" lon="14.2503267"><ele>108.0</ele><time>2026-05-01T08:26:26.275Z</time></trkpt><trkpt lat="42.3736033" lon="14.250385"><ele>108.5</ele><time>2026-05-01T08:26:27.275Z</time></trkpt><trkpt lat="42.373675" lon="14.2504417"><ele>109.0</ele><time>2026-05-01T08:26:28.275Z</time></trkpt><trkpt lat="42.373745" lon="14.2504833"><ele>109.49999999999999</ele><time>2026-05-01T08:26:29.275Z</time></trkpt><trkpt lat="42.3738083" lon="14.2505233"><ele>110.0</ele><time>2026-05-01T08:26:30.275Z</time></trkpt><trkpt lat="42.3738767" lon="14.2505817"><ele>110.0</ele><time>2026-05-01T08:26:31.275Z</time></trkpt><trkpt lat="42.3739433" lon="14.2506733"><ele>110.0</ele><time>2026-05-01T08:26:32.275Z</time></trkpt><trkpt lat="42.3740017" lon="14.2507833"><ele>110.0</ele><time>2026-05-01T08:26:33.275Z</time></trkpt><trkpt lat="42.37405" lon="14.250895"><ele>110.0</ele><time>2026-05-01T08:26:34.275Z</time></trkpt><trkpt lat="42.37409" lon="14.25101"><ele>110.0</ele><time>2026-05-01T08:26:35.275Z</time></trkpt><trkpt lat="42.374115" lon="14.2511383"><ele>110.0</ele><time>2026-05-01T08:26:36.275Z</time></trkpt><trkpt lat="42.3741233" lon="14.2512833"><ele>110.0</ele><time>2026-05-01T08:26:37.275Z</time></trkpt><trkpt lat="42.3741067" lon="14.25144"><ele>110.0</ele><time>2026-05-01T08:26:38.275Z</time></trkpt><trkpt lat="42.3740733" lon="14.25161"><ele>110.0</ele><time>2026-05-01T08:26:39.275Z</time></trkpt><trkpt lat="42.374025" lon="14.2518"><ele>113.0</ele><time>2026-05-01T08:26:40.275Z</time></trkpt><trkpt lat="42.3739733" lon="14.2520133"><ele>116.0</ele><time>2026-05-01T08:26:41.276Z</time></trkpt><trkpt lat="42.373925" lon="14.2522133"><ele>119.0</ele><time>2026-05-01T08:26:42.276Z</time></trkpt><trkpt lat="42.3738783" lon="14.25242"><ele>127.0</ele><time>2026-05-01T08:26:43.275Z</time></trkpt><trkpt lat="42.373845" lon="14.25263"><ele>135.0</ele><time>2026-05-01T08:26:44.275Z</time></trkpt><trkpt lat="42.3738133" lon="14.25285"><ele>143.0</ele><time>2026-05-01T08:26:45.275Z</time></trkpt><trkpt lat="42.3737967" lon="14.253075"><ele>147.5</ele><time>2026-05-01T08:26:46.275Z</time></trkpt><trkpt lat="42.37379" lon="14.25328"><ele>152.0</ele><time>2026-05-01T08:26:47.275Z</time></trkpt><trkpt lat="42.37379" lon="14.2534667"><ele>156.5</ele><time>2026-05-01T08:26:48.275Z</time></trkpt><trkpt lat="42.3738033" lon="14.2536417"><ele>161.0</ele><time>2026-05-01T08:26:49.275Z</time></trkpt><trkpt lat="42.3738233" lon="14.253815"><ele>159.75</ele><time>2026-05-01T08:26:50.275Z</time></trkpt><trkpt lat="42.3738483" lon="14.2539983"><ele>158.5</ele><time>2026-05-01T08:26:51.275Z</time></trkpt><trkpt lat="42.37388" lon="14.25416"><ele>157.25</ele><time>2026-05-01T08:26:52.275Z</time></trkpt><trkpt lat="42.3739117" lon="14.2543183"><ele>156.0</ele><time>2026-05-01T08:26:53.275Z</time></trkpt><trkpt lat="42.3739517" lon="14.2544717"><ele>156.0</ele><time>2026-05-01T08:26:54.275Z</time></trkpt><trkpt lat="42.3740067" lon="14.2546183"><ele>156.0</ele><time>2026-05-01T08:26:55.275Z</time></trkpt><trkpt lat="42.3740933" lon="14.2547633"><ele>156.0</ele><time>2026-05-01T08:26:56.275Z</time></trkpt><trkpt lat="42.3741583" lon="14.25491"><ele>156.0</ele><time>2026-05-01T08:26:57.275Z</time></trkpt><trkpt lat="42.3742333" lon="14.2550383"><ele>158.0</ele><time>2026-05-01T08:26:58.275Z</time></trkpt><trkpt lat="42.3742967" lon="14.2551933"><ele>160.0</ele><time>2026-05-01T08:26:59.275Z</time></trkpt><trkpt lat="42.374355" lon="14.2553433"><ele>162.0</ele><time>2026-05-01T08:27:00.275Z</time></trkpt><trkpt lat="42.3744" lon="14.255485"><ele>164.0</ele><time>2026-05-01T08:27:01.275Z</time></trkpt><trkpt lat="42.3744333" lon="14.255615"><ele>164.33333333333331</ele><time>2026-05-01T08:27:02.276Z</time></trkpt><trkpt lat="42.3744517" lon="14.25573"><ele>164.66666666666666</ele><time>2026-05-01T08:27:03.275Z</time></trkpt><trkpt lat="42.37444" lon="14.2558733"><ele>165.0</ele><time>2026-05-01T08:27:05.275Z</time></trkpt><trkpt lat="42.37442" lon="14.2559717"><ele>165.33333333333334</ele><time>2026-05-01T08:27:08.275Z</time></trkpt><trkpt lat="42.37446" lon="14.2560633"><ele>165.66666666666669</ele><time>2026-05-01T08:27:10.275Z</time></trkpt><trkpt lat="42.3745183" lon="14.2561333"><ele>166.0</ele><time>2026-05-01T08:27:11.276Z</time></trkpt><trkpt lat="42.3746117" lon="14.2562167"><ele>166.66666666666669</ele><time>2026-05-01T08:27:12.275Z</time></trkpt><trkpt lat="42.3747467" lon="14.2563383"><ele>167.33333333333334</ele><time>2026-05-01T08:27:13.275Z</time></trkpt><trkpt lat="42.3749017" lon="14.256485"><ele>168.0</ele><time>2026-05-01T08:27:14.275Z</time></trkpt><trkpt lat="42.37505" lon="14.2566367"><ele>168.0</ele><time>2026-05-01T08:27:15.276Z</time></trkpt><trkpt lat="42.3751833" lon="14.2567867"><ele>168.0</ele><time>2026-05-01T08:27:16.275Z</time></trkpt><trkpt lat="42.3753017" lon="14.256945"><ele>168.0</ele><time>2026-05-01T08:27:17.275Z</time></trkpt><trkpt lat="42.375405" lon="14.2571167"><ele>168.66666666666666</ele><time>2026-05-01T08:27:18.275Z</time></trkpt><trkpt lat="42.37551" lon="14.2572917"><ele>169.33333333333331</ele><time>2026-05-01T08:27:19.275Z</time></trkpt><trkpt lat="42.3756167" lon="14.2574683"><ele>170.0</ele><time>2026-05-01T08:27:20.275Z</time></trkpt><trkpt lat="42.3757233" lon="14.2576433"><ele>170.0</ele><time>2026-05-01T08:27:21.275Z</time></trkpt><trkpt lat="42.3758367" lon="14.2578133"><ele>170.0</ele><time>2026-05-01T08:27:22.275Z</time></trkpt><trkpt lat="42.375945" lon="14.2579933"><ele>170.0</ele><time>2026-05-01T08:27:23.275Z</time></trkpt><trkpt lat="42.3760533" lon="14.258175"><ele>172.0</ele><time>2026-05-01T08:27:24.276Z</time></trkpt><trkpt lat="42.3761683" lon="14.2583483"><ele>174.0</ele><time>2026-05-01T08:27:25.275Z</time></trkpt><trkpt lat="42.3762767" lon="14.25853"><ele>176.0</ele><time>2026-05-01T08:27:26.275Z</time></trkpt><trkpt lat="42.3763833" lon="14.258695"><ele>176.0</ele><time>2026-05-01T08:27:27.275Z</time></trkpt><trkpt lat="42.37649" lon="14.2588483"><ele>176.0</ele><time>2026-05-01T08:27:28.275Z</time></trkpt><trkpt lat="42.3765817" lon="14.2589833"><ele>176.0</ele><time>2026-05-01T08:27:29.275Z</time></trkpt><trkpt lat="42.3766567" lon="14.2591033"><ele>176.0</ele><time>2026-05-01T08:27:30.275Z</time></trkpt><trkpt lat="42.3767183" lon="14.259215"><ele>175.66666666666666</ele><time>2026-05-01T08:27:31.275Z</time></trkpt><trkpt lat="42.3767683" lon="14.2593"><ele>175.33333333333331</ele><time>2026-05-01T08:27:32.275Z</time></trkpt><trkpt lat="42.3768033" lon="14.2593783"><ele>175.0</ele><time>2026-05-01T08:27:33.275Z</time></trkpt><trkpt lat="42.3768067" lon="14.2595417"><ele>174.66666666666666</ele><time>2026-05-01T08:27:35.275Z</time></trkpt><trkpt lat="42.37681" lon="14.2596383"><ele>174.33333333333334</ele><time>2026-05-01T08:27:36.275Z</time></trkpt><trkpt lat="42.3768117" lon="14.259775"><ele>174.0</ele><time>2026-05-01T08:27:37.275Z</time></trkpt><trkpt lat="42.3768117" lon="14.259935"><ele>173.0</ele><time>2026-05-01T08:27:38.275Z</time></trkpt><trkpt lat="42.3768167" lon="14.2601"><ele>172.0</ele><time>2026-05-01T08:27:39.275Z</time></trkpt><trkpt lat="42.3768167" lon="14.2602433"><ele>171.0</ele><time>2026-05-01T08:27:40.275Z</time></trkpt><trkpt lat="42.3768233" lon="14.2603833"><ele>170.0</ele><time>2026-05-01T08:27:41.275Z</time></trkpt><trkpt lat="42.3768283" lon="14.26054"><ele>169.0</ele><time>2026-05-01T08:27:42.275Z</time></trkpt><trkpt lat="42.3768233" lon="14.260705"><ele>167.75</ele><time>2026-05-01T08:27:43.275Z</time></trkpt><trkpt lat="42.3768083" lon="14.2608733"><ele>166.5</ele><time>2026-05-01T08:27:44.275Z</time></trkpt><trkpt lat="42.37678" lon="14.26103"><ele>165.25</ele><time>2026-05-01T08:27:45.275Z</time></trkpt><trkpt lat="42.37676" lon="14.261185"><ele>164.0</ele><time>2026-05-01T08:27:46.275Z</time></trkpt><trkpt lat="42.3767367" lon="14.2613233"><ele>163.0</ele><time>2026-05-01T08:27:47.275Z</time></trkpt><trkpt lat="42.376725" lon="14.2614633"><ele>162.0</ele><time>2026-05-01T08:27:48.275Z</time></trkpt><trkpt lat="42.3767283" lon="14.2616233"><ele>161.0</ele><time>2026-05-01T08:27:49.275Z</time></trkpt><trkpt lat="42.3767383" lon="14.2617917"><ele>160.0</ele><time>2026-05-01T08:27:50.275Z</time></trkpt><trkpt lat="42.376755" lon="14.261975"><ele>160.0</ele><time>2026-05-01T08:27:51.275Z</time></trkpt><trkpt lat="42.3767717" lon="14.2621583"><ele>160.0</ele><time>2026-05-01T08:27:52.275Z</time></trkpt><trkpt lat="42.3767833" lon="14.2623383"><ele>160.0</ele><time>2026-05-01T08:27:53.275Z</time></trkpt><trkpt lat="42.3768033" lon="14.26253"><ele>160.0</ele><time>2026-05-01T08:27:54.275Z</time></trkpt><trkpt lat="42.3768333" lon="14.262705"><ele>156.66666666666669</ele><time>2026-05-01T08:27:55.275Z</time></trkpt><trkpt lat="42.3768683" lon="14.2628817"><ele>153.33333333333334</ele><time>2026-05-01T08:27:56.275Z</time></trkpt><trkpt lat="42.376925" lon="14.2630833"><ele>150.0</ele><time>2026-05-01T08:27:57.275Z</time></trkpt><trkpt lat="42.3769983" lon="14.2633067"><ele>147.66666666666666</ele><time>2026-05-01T08:27:58.275Z</time></trkpt><trkpt lat="42.3770833" lon="14.263545"><ele>145.33333333333331</ele><time>2026-05-01T08:27:59.275Z</time></trkpt><trkpt lat="42.3771683" lon="14.263775"><ele>143.0</ele><time>2026-05-01T08:28:00.275Z</time></trkpt><trkpt lat="42.3772567" lon="14.264"><ele>143.0</ele><time>2026-05-01T08:28:01.275Z</time></trkpt><trkpt lat="42.37734" lon="14.2642167"><ele>143.0</ele><time>2026-05-01T08:28:02.275Z</time></trkpt><trkpt lat="42.3774217" lon="14.2644167"><ele>143.0</ele><time>2026-05-01T08:28:03.275Z</time></trkpt><trkpt lat="42.3775067" lon="14.2646017"><ele>143.0</ele><time>2026-05-01T08:28:04.275Z</time></trkpt><trkpt lat="42.3775783" lon="14.26477"><ele>143.0</ele><time>2026-05-01T08:28:05.275Z</time></trkpt><trkpt lat="42.3776333" lon="14.2649317"><ele>143.0</ele><time>2026-05-01T08:28:06.275Z</time></trkpt><trkpt lat="42.3776683" lon="14.2650833"><ele>143.0</ele><time>2026-05-01T08:28:07.276Z</time></trkpt><trkpt lat="42.377685" lon="14.26524"><ele>141.0</ele><time>2026-05-01T08:28:08.275Z</time></trkpt><trkpt lat="42.3776883" lon="14.265415"><ele>139.0</ele><time>2026-05-01T08:28:09.275Z</time></trkpt><trkpt lat="42.3776833" lon="14.2656117"><ele>137.0</ele><time>2026-05-01T08:28:10.275Z</time></trkpt><trkpt lat="42.3776817" lon="14.2658017"><ele>135.0</ele><time>2026-05-01T08:28:11.275Z</time></trkpt><trkpt lat="42.3776833" lon="14.265965"><ele>133.5</ele><time>2026-05-01T08:28:12.275Z</time></trkpt><trkpt lat="42.3776917" lon="14.26612"><ele>132.0</ele><time>2026-05-01T08:28:13.275Z</time></trkpt><trkpt lat="42.377695" lon="14.26628"><ele>130.5</ele><time>2026-05-01T08:28:14.275Z</time></trkpt><trkpt lat="42.377695" lon="14.2664333"><ele>129.0</ele><time>2026-05-01T08:28:15.275Z</time></trkpt><trkpt lat="42.37769" lon="14.2665767"><ele>127.66666666666667</ele><time>2026-05-01T08:28:16.275Z</time></trkpt><trkpt lat="42.3776883" lon="14.2667083"><ele>126.33333333333334</ele><time>2026-05-01T08:28:17.275Z</time></trkpt><trkpt lat="42.3776917" lon="14.2668217"><ele>125.0</ele><time>2026-05-01T08:28:18.275Z</time></trkpt><trkpt lat="42.3777" lon="14.2669233"><ele>123.66666666666667</ele><time>2026-05-01T08:28:19.275Z</time></trkpt><trkpt lat="42.377705" lon="14.2670717"><ele>122.33333333333334</ele><time>2026-05-01T08:28:21.275Z</time></trkpt><trkpt lat="42.3776917" lon="14.2671783"><ele>121.0</ele><time>2026-05-01T08:28:23.275Z</time></trkpt><trkpt lat="42.3776117" lon="14.2672483"><ele>120.33333333333334</ele><time>2026-05-01T08:28:26.275Z</time></trkpt><trkpt lat="42.3775433" lon="14.267285"><ele>119.66666666666667</ele><time>2026-05-01T08:28:28.275Z</time></trkpt><trkpt lat="42.3774383" lon="14.267315"><ele>119.0</ele><time>2026-05-01T08:28:30.275Z</time></trkpt><trkpt lat="42.3773667" lon="14.267335"><ele>118.33333333333334</ele><time>2026-05-01T08:28:31.276Z</time></trkpt><trkpt lat="42.3772883" lon="14.2673467"><ele>117.66666666666667</ele><time>2026-05-01T08:28:32.275Z</time></trkpt><trkpt lat="42.3772033" lon="14.2673567"><ele>117.0</ele><time>2026-05-01T08:28:33.275Z</time></trkpt><trkpt lat="42.3771083" lon="14.2673767"><ele>115.83333333333333</ele><time>2026-05-01T08:28:34.275Z</time></trkpt><trkpt lat="42.3770117" lon="14.2673933"><ele>114.66666666666666</ele><time>2026-05-01T08:28:35.275Z</time></trkpt><trkpt lat="42.3769217" lon="14.26741"><ele>113.5</ele><time>2026-05-01T08:28:36.275Z</time></trkpt><trkpt lat="42.37684" lon="14.2674217"><ele>112.33333333333333</ele><time>2026-05-01T08:28:37.275Z</time></trkpt><trkpt lat="42.3767583" lon="14.2674333"><ele>111.16666666666666</ele><time>2026-05-01T08:28:38.275Z</time></trkpt><trkpt lat="42.376685" lon="14.267445"><ele>110.0</ele><time>2026-05-01T08:28:39.275Z</time></trkpt><trkpt lat="42.3766117" lon="14.2674617"><ele>109.99999999999999</ele><time>2026-05-01T08:28:40.276Z</time></trkpt><trkpt lat="42.3765417" lon="14.26749"><ele>110.0</ele><time>2026-05-01T08:28:41.275Z</time></trkpt><trkpt lat="42.3764783" lon="14.2675217"><ele>110.0</ele><time>2026-05-01T08:28:42.275Z</time></trkpt><trkpt lat="42.376425" lon="14.26757"><ele>110.0</ele><time>2026-05-01T08:28:43.276Z</time></trkpt><trkpt lat="42.3763783" lon="14.2676283"><ele>110.0</ele><time>2026-05-01T08:28:44.276Z</time></trkpt><trkpt lat="42.3763383" lon="14.2677033"><ele>109.99999999999999</ele><time>2026-05-01T08:28:45.275Z</time></trkpt><trkpt lat="42.3762983" lon="14.2678083"><ele>110.0</ele><time>2026-05-01T08:28:46.275Z</time></trkpt><trkpt lat="42.3762683" lon="14.2679067"><ele>113.8</ele><time>2026-05-01T08:28:47.275Z</time></trkpt><trkpt lat="42.3762367" lon="14.268025"><ele>117.6</ele><time>2026-05-01T08:28:48.275Z</time></trkpt><trkpt lat="42.3762" lon="14.2681533"><ele>121.4</ele><time>2026-05-01T08:28:49.275Z</time></trkpt><trkpt lat="42.3761683" lon="14.2682783"><ele>125.2</ele><time>2026-05-01T08:28:50.275Z</time></trkpt><trkpt lat="42.3761333" lon="14.2684083"><ele>129.0</ele><time>2026-05-01T08:28:51.275Z</time></trkpt><trkpt lat="42.37609" lon="14.2685383"><ele>129.0</ele><time>2026-05-01T08:28:52.275Z</time></trkpt><trkpt lat="42.376055" lon="14.2686767"><ele>129.0</ele><time>2026-05-01T08:28:53.275Z</time></trkpt><trkpt lat="42.3760183" lon="14.2688"><ele>129.0</ele><time>2026-05-01T08:28:54.275Z</time></trkpt><trkpt lat="42.375985" lon="14.26891"><ele>129.0</ele><time>2026-05-01T08:28:55.275Z</time></trkpt><trkpt lat="42.3759533" lon="14.2690217"><ele>129.0</ele><time>2026-05-01T08:28:56.275Z</time></trkpt><trkpt lat="42.37592" lon="14.26914"><ele>128.4</ele><time>2026-05-01T08:28:57.275Z</time></trkpt><trkpt lat="42.375885" lon="14.269255"><ele>127.80000000000001</ele><time>2026-05-01T08:28:58.276Z</time></trkpt><trkpt lat="42.3758467" lon="14.2693617"><ele>127.19999999999999</ele><time>2026-05-01T08:28:59.275Z</time></trkpt><trkpt lat="42.3758067" lon="14.2694767"><ele>126.6</ele><time>2026-05-01T08:29:00.276Z</time></trkpt><trkpt lat="42.3757767" lon="14.2695883"><ele>126.0</ele><time>2026-05-01T08:29:01.275Z</time></trkpt><trkpt lat="42.3757367" lon="14.269695"><ele>125.16666666666667</ele><time>2026-05-01T08:29:02.276Z</time></trkpt><trkpt lat="42.3756967" lon="14.2697883"><ele>124.33333333333334</ele><time>2026-05-01T08:29:03.275Z</time></trkpt><trkpt lat="42.375655" lon="14.2698767"><ele>123.5</ele><time>2026-05-01T08:29:04.275Z</time></trkpt><trkpt lat="42.3756183" lon="14.2699717"><ele>122.66666666666667</ele><time>2026-05-01T08:29:05.275Z</time></trkpt><trkpt lat="42.3755817" lon="14.270065"><ele>121.83333333333334</ele><time>2026-05-01T08:29:06.275Z</time></trkpt><trkpt lat="42.3755433" lon="14.2701617"><ele>121.0</ele><time>2026-05-01T08:29:07.275Z</time></trkpt><trkpt lat="42.3755133" lon="14.2702633"><ele>124.83333333333334</ele><time>2026-05-01T08:29:08.275Z</time></trkpt><trkpt lat="42.3754733" lon="14.2703683"><ele>128.66666666666669</ele><time>2026-05-01T08:29:09.275Z</time></trkpt><trkpt lat="42.37544" lon="14.2704667"><ele>132.5</ele><time>2026-05-01T08:29:10.276Z</time></trkpt><trkpt lat="42.37539" lon="14.27056"><ele>136.33333333333334</ele><time>2026-05-01T08:29:11.275Z</time></trkpt><trkpt lat="42.3753367" lon="14.2706567"><ele>140.16666666666666</ele><time>2026-05-01T08:29:12.275Z</time></trkpt><trkpt lat="42.375285" lon="14.270735"><ele>144.0</ele><time>2026-05-01T08:29:13.275Z</time></trkpt><trkpt lat="42.3752333" lon="14.2707967"><ele>144.0</ele><time>2026-05-01T08:29:14.275Z</time></trkpt><trkpt lat="42.375155" lon="14.2708967"><ele>144.0</ele><time>2026-05-01T08:29:16.275Z</time></trkpt><trkpt lat="42.37505" lon="14.2709383"><ele>144.0</ele><time>2026-05-01T08:29:18.275Z</time></trkpt><trkpt lat="42.3749283" lon="14.270965"><ele>144.0</ele><time>2026-05-01T08:29:20.275Z</time></trkpt><trkpt lat="42.3748467" lon="14.270965"><ele>144.0</ele><time>2026-05-01T08:29:21.275Z</time></trkpt><trkpt lat="42.37476" lon="14.27095"><ele>145.66666666666666</ele><time>2026-05-01T08:29:22.276Z</time></trkpt><trkpt lat="42.3746733" lon="14.2709167"><ele>147.33333333333334</ele><time>2026-05-01T08:29:23.275Z</time></trkpt><trkpt lat="42.37459" lon="14.270885"><ele>149.0</ele><time>2026-05-01T08:29:24.275Z</time></trkpt><trkpt lat="42.3745067" lon="14.2708733"><ele>150.66666666666669</ele><time>2026-05-01T08:29:25.275Z</time></trkpt><trkpt lat="42.3744317" lon="14.270875"><ele>152.33333333333334</ele><time>2026-05-01T08:29:26.275Z</time></trkpt><trkpt lat="42.3743467" lon="14.2708883"><ele>154.0</ele><time>2026-05-01T08:29:28.275Z</time></trkpt><trkpt lat="42.37426" lon="14.270915"><ele>154.0</ele><time>2026-05-01T08:29:31.276Z</time></trkpt><trkpt lat="42.3742017" lon="14.27097"><ele>154.0</ele><time>2026-05-01T08:29:33.275Z</time></trkpt><trkpt lat="42.3741383" lon="14.27105"><ele>154.0</ele><time>2026-05-01T08:29:35.275Z</time></trkpt><trkpt lat="42.3740933" lon="14.2711467"><ele>154.0</ele><time>2026-05-01T08:29:37.275Z</time></trkpt><trkpt lat="42.37406" lon="14.2712683"><ele>154.0</ele><time>2026-05-01T08:29:39.275Z</time></trkpt><trkpt lat="42.3740333" lon="14.2713917"><ele>154.0</ele><time>2026-05-01T08:29:41.275Z</time></trkpt><trkpt lat="42.3739617" lon="14.271515"><ele>151.33333333333334</ele><time>2026-05-01T08:29:43.275Z</time></trkpt><trkpt lat="42.373915" lon="14.271575"><ele>148.66666666666669</ele><time>2026-05-01T08:29:44.275Z</time></trkpt><trkpt lat="42.3738583" lon="14.271625"><ele>146.0</ele><time>2026-05-01T08:29:45.276Z</time></trkpt><trkpt lat="42.3738017" lon="14.2716683"><ele>143.33333333333334</ele><time>2026-05-01T08:29:46.275Z</time></trkpt><trkpt lat="42.373745" lon="14.2717133"><ele>140.66666666666666</ele><time>2026-05-01T08:29:47.275Z</time></trkpt><trkpt lat="42.3736867" lon="14.271755"><ele>138.0</ele><time>2026-05-01T08:29:48.276Z</time></trkpt><trkpt lat="42.3735667" lon="14.27182"><ele>137.66666666666666</ele><time>2026-05-01T08:29:50.275Z</time></trkpt><trkpt lat="42.373505" lon="14.271855"><ele>137.33333333333334</ele><time>2026-05-01T08:29:51.275Z</time></trkpt><trkpt lat="42.3734333" lon="14.2718917"><ele>137.0</ele><time>2026-05-01T08:29:52.275Z</time></trkpt><trkpt lat="42.3733567" lon="14.2719217"><ele>136.66666666666669</ele><time>2026-05-01T08:29:53.275Z</time></trkpt><trkpt lat="42.3732683" lon="14.2719417"><ele>136.33333333333334</ele><time>2026-05-01T08:29:54.276Z</time></trkpt><trkpt lat="42.3731667" lon="14.2719517"><ele>136.0</ele><time>2026-05-01T08:29:55.275Z</time></trkpt><trkpt lat="42.37306" lon="14.2719533"><ele>134.0</ele><time>2026-05-01T08:29:56.275Z</time></trkpt><trkpt lat="42.3729517" lon="14.2719533"><ele>132.0</ele><time>2026-05-01T08:29:57.275Z</time></trkpt><trkpt lat="42.372845" lon="14.2719567"><ele>130.0</ele><time>2026-05-01T08:29:58.276Z</time></trkpt><trkpt lat="42.3727367" lon="14.2719633"><ele>128.0</ele><time>2026-05-01T08:29:59.275Z</time></trkpt><trkpt lat="42.3726283" lon="14.2719717"><ele>126.0</ele><time>2026-05-01T08:30:00.275Z</time></trkpt><trkpt lat="42.372525" lon="14.2719817"><ele>126.0</ele><time>2026-05-01T08:30:01.275Z</time></trkpt><trkpt lat="42.3724283" lon="14.27199"><ele>126.0</ele><time>2026-05-01T08:30:02.275Z</time></trkpt><trkpt lat="42.3723367" lon="14.27199"><ele>126.0</ele><time>2026-05-01T08:30:03.275Z</time></trkpt><trkpt lat="42.3722533" lon="14.2719933"><ele>126.0</ele><time>2026-05-01T08:30:04.275Z</time></trkpt><trkpt lat="42.3721867" lon="14.2719967"><ele>126.0</ele><time>2026-05-01T08:30:05.275Z</time></trkpt><trkpt lat="42.37212" lon="14.272025"><ele>126.0</ele><time>2026-05-01T08:30:06.276Z</time></trkpt><trkpt lat="42.3720467" lon="14.2720933"><ele>121.5</ele><time>2026-05-01T08:30:07.275Z</time></trkpt><trkpt lat="42.3719783" lon="14.2721967"><ele>117.0</ele><time>2026-05-01T08:30:08.275Z</time></trkpt><trkpt lat="42.3719083" lon="14.2723367"><ele>112.5</ele><time>2026-05-01T08:30:09.275Z</time></trkpt><trkpt lat="42.3718417" lon="14.27249"><ele>108.0</ele><time>2026-05-01T08:30:10.276Z</time></trkpt><trkpt lat="42.3717717" lon="14.272665"><ele>107.33333333333334</ele><time>2026-05-01T08:30:11.275Z</time></trkpt><trkpt lat="42.3717017" lon="14.2728567"><ele>106.66666666666667</ele><time>2026-05-01T08:30:12.275Z</time></trkpt><trkpt lat="42.37164" lon="14.2730467"><ele>106.0</ele><time>2026-05-01T08:30:13.275Z</time></trkpt><trkpt lat="42.37157" lon="14.2732383"><ele>104.75</ele><time>2026-05-01T08:30:14.276Z</time></trkpt><trkpt lat="42.371515" lon="14.2734133"><ele>103.5</ele><time>2026-05-01T08:30:15.275Z</time></trkpt><trkpt lat="42.37146" lon="14.2735917"><ele>102.25</ele><time>2026-05-01T08:30:16.275Z</time></trkpt><trkpt lat="42.3714083" lon="14.2737633"><ele>101.0</ele><time>2026-05-01T08:30:17.275Z</time></trkpt><trkpt lat="42.3713617" lon="14.2739317"><ele>96.25</ele><time>2026-05-01T08:30:18.275Z</time></trkpt><trkpt lat="42.3713217" lon="14.2741017"><ele>91.5</ele><time>2026-05-01T08:30:19.276Z</time></trkpt><trkpt lat="42.3712967" lon="14.274255"><ele>86.75</ele><time>2026-05-01T08:30:20.275Z</time></trkpt><trkpt lat="42.3712833" lon="14.2743983"><ele>82.0</ele><time>2026-05-01T08:30:21.275Z</time></trkpt><trkpt lat="42.3712817" lon="14.274555"><ele>82.0</ele><time>2026-05-01T08:30:22.275Z</time></trkpt><trkpt lat="42.3712883" lon="14.2747217"><ele>82.0</ele><time>2026-05-01T08:30:23.275Z</time></trkpt><trkpt lat="42.3713" lon="14.2749017"><ele>82.0</ele><time>2026-05-01T08:30:24.276Z</time></trkpt><trkpt lat="42.3713067" lon="14.2750817"><ele>82.0</ele><time>2026-05-01T08:30:25.275Z</time></trkpt><trkpt lat="42.3712983" lon="14.275255"><ele>81.25</ele><time>2026-05-01T08:30:26.275Z</time></trkpt><trkpt lat="42.3712767" lon="14.2754367"><ele>80.5</ele><time>2026-05-01T08:30:27.275Z</time></trkpt><trkpt lat="42.371245" lon="14.2756217"><ele>79.75</ele><time>2026-05-01T08:30:28.275Z</time></trkpt><trkpt lat="42.37121" lon="14.2758117"><ele>79.0</ele><time>2026-05-01T08:30:29.275Z</time></trkpt><trkpt lat="42.37117" lon="14.2759983"><ele>79.0</ele><time>2026-05-01T08:30:30.275Z</time></trkpt><trkpt lat="42.3711233" lon="14.2761833"><ele>79.0</ele><time>2026-05-01T08:30:31.276Z</time></trkpt><trkpt lat="42.3710817" lon="14.27638"><ele>79.0</ele><time>2026-05-01T08:30:32.275Z</time></trkpt><trkpt lat="42.3710333" lon="14.2765683"><ele>79.0</ele><time>2026-05-01T08:30:33.275Z</time></trkpt><trkpt lat="42.3709833" lon="14.2767583"><ele>78.5</ele><time>2026-05-01T08:30:34.275Z</time></trkpt><trkpt lat="42.3709433" lon="14.2769367"><ele>78.0</ele><time>2026-05-01T08:30:35.275Z</time></trkpt><trkpt lat="42.370905" lon="14.2771067"><ele>77.5</ele><time>2026-05-01T08:30:36.275Z</time></trkpt><trkpt lat="42.37087" lon="14.27725"><ele>77.0</ele><time>2026-05-01T08:30:37.275Z</time></trkpt><trkpt lat="42.3708417" lon="14.2773733"><ele>77.0</ele><time>2026-05-01T08:30:38.275Z</time></trkpt><trkpt lat="42.3708117" lon="14.2774767"><ele>77.0</ele><time>2026-05-01T08:30:39.275Z</time></trkpt><trkpt lat="42.37079" lon="14.277575"><ele>77.0</ele><time>2026-05-01T08:30:40.275Z</time></trkpt><trkpt lat="42.3707683" lon="14.2776817"><ele>77.0</ele><time>2026-05-01T08:30:41.276Z</time></trkpt><trkpt lat="42.37074" lon="14.2778033"><ele>77.0</ele><time>2026-05-01T08:30:42.275Z</time></trkpt><trkpt lat="42.3707033" lon="14.2779317"><ele>77.0</ele><time>2026-05-01T08:30:43.275Z</time></trkpt><trkpt lat="42.3706667" lon="14.278065"><ele>76.4</ele><time>2026-05-01T08:30:44.275Z</time></trkpt><trkpt lat="42.3706217" lon="14.2781817"><ele>75.80000000000001</ele><time>2026-05-01T08:30:45.275Z</time></trkpt><trkpt lat="42.37057" lon="14.278295"><ele>75.2</ele><time>2026-05-01T08:30:46.275Z</time></trkpt><trkpt lat="42.3705117" lon="14.27841"><ele>74.60000000000001</ele><time>2026-05-01T08:30:47.275Z</time></trkpt><trkpt lat="42.3704517" lon="14.2785217"><ele>74.0</ele><time>2026-05-01T08:30:48.275Z</time></trkpt><trkpt lat="42.3703833" lon="14.278655"><ele>72.75</ele><time>2026-05-01T08:30:49.275Z</time></trkpt><trkpt lat="42.3702967" lon="14.2787783"><ele>71.5</ele><time>2026-05-01T08:30:50.275Z</time></trkpt><trkpt lat="42.370197" lon="14.2788845"><ele>70.25</ele><time>2026-05-01T08:30:51.275Z</time></trkpt><trkpt lat="42.3700963" lon="14.2789725"><ele>69.0</ele><time>2026-05-01T08:30:52.275Z</time></trkpt><trkpt lat="42.3699992" lon="14.2790446"><ele>68.60000000000001</ele><time>2026-05-01T08:30:53.275Z</time></trkpt><trkpt lat="42.3699113" lon="14.2791185"><ele>68.2</ele><time>2026-05-01T08:30:54.275Z</time></trkpt><trkpt lat="42.369831" lon="14.2791916"><ele>67.80000000000001</ele><time>2026-05-01T08:30:55.275Z</time></trkpt><trkpt lat="42.3697616" lon="14.2792685"><ele>67.4</ele><time>2026-05-01T08:30:56.275Z</time></trkpt><trkpt lat="42.3697051" lon="14.2793621"><ele>67.0</ele><time>2026-05-01T08:30:57.275Z</time></trkpt><trkpt lat="42.3696692" lon="14.2794746"><ele>66.75</ele><time>2026-05-01T08:30:58.275Z</time></trkpt><trkpt lat="42.3696603" lon="14.2796128"><ele>66.5</ele><time>2026-05-01T08:30:59.275Z</time></trkpt><trkpt lat="42.3696742" lon="14.2797838"><ele>66.25</ele><time>2026-05-01T08:31:00.275Z</time></trkpt><trkpt lat="42.3696962" lon="14.2799703"><ele>66.0</ele><time>2026-05-01T08:31:01.275Z</time></trkpt><trkpt lat="42.3697135" lon="14.2801588"><ele>65.5</ele><time>2026-05-01T08:31:02.275Z</time></trkpt><trkpt lat="42.3697187" lon="14.2803422"><ele>65.0</ele><time>2026-05-01T08:31:03.275Z</time></trkpt><trkpt lat="42.3697211" lon="14.2805176"><ele>64.5</ele><time>2026-05-01T08:31:04.275Z</time></trkpt><trkpt lat="42.3697218" lon="14.2807007"><ele>64.0</ele><time>2026-05-01T08:31:05.275Z</time></trkpt><trkpt lat="42.3697267" lon="14.2808912"><ele>63.75</ele><time>2026-05-01T08:31:06.275Z</time></trkpt><trkpt lat="42.3697259" lon="14.2810827"><ele>63.5</ele><time>2026-05-01T08:31:07.275Z</time></trkpt><trkpt lat="42.3697272" lon="14.2812631"><ele>63.25</ele><time>2026-05-01T08:31:08.276Z</time></trkpt><trkpt lat="42.3697264" lon="14.2814357"><ele>63.0</ele><time>2026-05-01T08:31:09.275Z</time></trkpt><trkpt lat="42.3697262" lon="14.2816071"><ele>62.8</ele><time>2026-05-01T08:31:10.276Z</time></trkpt><trkpt lat="42.3697232" lon="14.2817723"><ele>62.599999999999994</ele><time>2026-05-01T08:31:11.275Z</time></trkpt><trkpt lat="42.3697239" lon="14.2819159"><ele>62.400000000000006</ele><time>2026-05-01T08:31:12.275Z</time></trkpt><trkpt lat="42.3697217" lon="14.2820361"><ele>62.2</ele><time>2026-05-01T08:31:13.275Z</time></trkpt><trkpt lat="42.3697119" lon="14.2821328"><ele>62.0</ele><time>2026-05-01T08:31:14.275Z</time></trkpt><trkpt lat="42.3696672" lon="14.2822551"><ele>62.0</ele><time>2026-05-01T08:31:16.275Z</time></trkpt><trkpt lat="42.369585" lon="14.2822383"><ele>62.0</ele><time>2026-05-01T08:31:18.275Z</time></trkpt><trkpt lat="42.3695367" lon="14.2821767"><ele>62.0</ele><time>2026-05-01T08:31:19.275Z</time></trkpt><trkpt lat="42.3694833" lon="14.2820783"><ele>62.0</ele><time>2026-05-01T08:31:20.275Z</time></trkpt><trkpt lat="42.3694233" lon="14.2819583"><ele>62.0</ele><time>2026-05-01T08:31:21.275Z</time></trkpt><trkpt lat="42.3693567" lon="14.2818333"><ele>62.0</ele><time>2026-05-01T08:31:22.276Z</time></trkpt><trkpt lat="42.3692817" lon="14.2816967"><ele>62.0</ele><time>2026-05-01T08:31:23.275Z</time></trkpt><trkpt lat="42.3691983" lon="14.281565"><ele>62.0</ele><time>2026-05-01T08:31:24.275Z</time></trkpt><trkpt lat="42.36911" lon="14.2814233"><ele>62.0</ele><time>2026-05-01T08:31:25.275Z</time></trkpt><trkpt lat="42.36903" lon="14.2812667"><ele>62.25</ele><time>2026-05-01T08:31:26.275Z</time></trkpt><trkpt lat="42.368945" lon="14.2811233"><ele>62.5</ele><time>2026-05-01T08:31:27.275Z</time></trkpt><trkpt lat="42.36886" lon="14.2809733"><ele>62.75</ele><time>2026-05-01T08:31:28.275Z</time></trkpt><trkpt lat="42.3687783" lon="14.2808333"><ele>63.0</ele><time>2026-05-01T08:31:29.276Z</time></trkpt><trkpt lat="42.3687017" lon="14.280705"><ele>62.599999999999994</ele><time>2026-05-01T08:31:30.275Z</time></trkpt><trkpt lat="42.3686317" lon="14.2805833"><ele>62.199999999999996</ele><time>2026-05-01T08:31:31.275Z</time></trkpt><trkpt lat="42.368565" lon="14.2804567"><ele>61.8</ele><time>2026-05-01T08:31:32.275Z</time></trkpt><trkpt lat="42.3685017" lon="14.2803467"><ele>61.4</ele><time>2026-05-01T08:31:33.275Z</time></trkpt><trkpt lat="42.3684317" lon="14.2802517"><ele>61.0</ele><time>2026-05-01T08:31:34.275Z</time></trkpt><trkpt lat="42.3683617" lon="14.2801767"><ele>61.0</ele><time>2026-05-01T08:31:35.275Z</time></trkpt><trkpt lat="42.3682867" lon="14.2801367"><ele>60.99999999999999</ele><time>2026-05-01T08:31:36.275Z</time></trkpt><trkpt lat="42.36821" lon="14.2801267"><ele>60.99999999999999</ele><time>2026-05-01T08:31:37.275Z</time></trkpt><trkpt lat="42.3681367" lon="14.280155"><ele>61.0</ele><time>2026-05-01T08:31:38.275Z</time></trkpt><trkpt lat="42.368045" lon="14.2802167"><ele>61.0</ele><time>2026-05-01T08:31:39.275Z</time></trkpt><trkpt lat="42.367935" lon="14.2803067"><ele>59.5</ele><time>2026-05-01T08:31:40.276Z</time></trkpt><trkpt lat="42.3678233" lon="14.28039"><ele>58.0</ele><time>2026-05-01T08:31:41.275Z</time></trkpt><trkpt lat="42.367695" lon="14.280475"><ele>56.5</ele><time>2026-05-01T08:31:42.275Z</time></trkpt><trkpt lat="42.36757" lon="14.28056"><ele>55.0</ele><time>2026-05-01T08:31:43.275Z</time></trkpt><trkpt lat="42.3674317" lon="14.2806333"><ele>55.0</ele><time>2026-05-01T08:31:44.275Z</time></trkpt><trkpt lat="42.3672617" lon="14.2806983"><ele>55.0</ele><time>2026-05-01T08:31:45.275Z</time></trkpt><trkpt lat="42.3670967" lon="14.28075"><ele>55.0</ele><time>2026-05-01T08:31:46.275Z</time></trkpt><trkpt lat="42.36693" lon="14.2807817"><ele>53.0</ele><time>2026-05-01T08:31:47.275Z</time></trkpt><trkpt lat="42.3667717" lon="14.2808083"><ele>51.0</ele><time>2026-05-01T08:31:48.275Z</time></trkpt><trkpt lat="42.3666033" lon="14.280845"><ele>49.0</ele><time>2026-05-01T08:31:49.275Z</time></trkpt><trkpt lat="42.3664517" lon="14.2808783"><ele>48.0</ele><time>2026-05-01T08:31:50.275Z</time></trkpt><trkpt lat="42.3663067" lon="14.2809117"><ele>47.0</ele><time>2026-05-01T08:31:51.275Z</time></trkpt><trkpt lat="42.3661683" lon="14.280945"><ele>46.0</ele><time>2026-05-01T08:31:52.275Z</time></trkpt><trkpt lat="42.3660417" lon="14.2809733"><ele>45.0</ele><time>2026-05-01T08:31:53.275Z</time></trkpt><trkpt lat="42.3659183" lon="14.2810017"><ele>45.0</ele><time>2026-05-01T08:31:54.275Z</time></trkpt><trkpt lat="42.3658067" lon="14.28103"><ele>45.0</ele><time>2026-05-01T08:31:55.275Z</time></trkpt><trkpt lat="42.3657083" lon="14.2810417"><ele>45.0</ele><time>2026-05-01T08:31:56.275Z</time></trkpt><trkpt lat="42.3656333" lon="14.2810433"><ele>45.0</ele><time>2026-05-01T08:31:57.275Z</time></trkpt><trkpt lat="42.3655583" lon="14.281045"><ele>45.0</ele><time>2026-05-01T08:31:59.276Z</time></trkpt><trkpt lat="42.365485" lon="14.281035"><ele>45.0</ele><time>2026-05-01T08:32:02.275Z</time></trkpt><trkpt lat="42.3654083" lon="14.28089"><ele>45.0</ele><time>2026-05-01T08:32:04.275Z</time></trkpt><trkpt lat="42.3653533" lon="14.2807717"><ele>45.0</ele><time>2026-05-01T08:32:05.275Z</time></trkpt><trkpt lat="42.365285" lon="14.2806317"><ele>45.0</ele><time>2026-05-01T08:32:06.275Z</time></trkpt><trkpt lat="42.365215" lon="14.2804833"><ele>45.0</ele><time>2026-05-01T08:32:07.275Z</time></trkpt><trkpt lat="42.36514" lon="14.2803417"><ele>45.0</ele><time>2026-05-01T08:32:08.276Z</time></trkpt><trkpt lat="42.3650683" lon="14.2802083"><ele>45.0</ele><time>2026-05-01T08:32:09.275Z</time></trkpt><trkpt lat="42.3650017" lon="14.2800817"><ele>45.0</ele><time>2026-05-01T08:32:10.275Z</time></trkpt><trkpt lat="42.3649433" lon="14.2799617"><ele>45.0</ele><time>2026-05-01T08:32:11.275Z</time></trkpt><trkpt lat="42.3648883" lon="14.2798417"><ele>45.0</ele><time>2026-05-01T08:32:12.275Z</time></trkpt><trkpt lat="42.3648333" lon="14.27972"><ele>45.2</ele><time>2026-05-01T08:32:13.275Z</time></trkpt><trkpt lat="42.3647733" lon="14.2796033"><ele>45.4</ele><time>2026-05-01T08:32:14.275Z</time></trkpt><trkpt lat="42.36471" lon="14.2794833"><ele>45.599999999999994</ele><time>2026-05-01T08:32:15.275Z</time></trkpt><trkpt lat="42.3646483" lon="14.2793533"><ele>45.8</ele><time>2026-05-01T08:32:16.275Z</time></trkpt><trkpt lat="42.36458" lon="14.27923"><ele>46.0</ele><time>2026-05-01T08:32:17.276Z</time></trkpt><trkpt lat="42.364515" lon="14.27911"><ele>46.0</ele><time>2026-05-01T08:32:18.275Z</time></trkpt><trkpt lat="42.3644467" lon="14.2790033"><ele>46.0</ele><time>2026-05-01T08:32:19.275Z</time></trkpt><trkpt lat="42.364385" lon="14.2789067"><ele>46.0</ele><time>2026-05-01T08:32:20.275Z</time></trkpt><trkpt lat="42.3643183" lon="14.278825"><ele>46.0</ele><time>2026-05-01T08:32:21.275Z</time></trkpt><trkpt lat="42.3642567" lon="14.27876"><ele>46.0</ele><time>2026-05-01T08:32:22.275Z</time></trkpt><trkpt lat="42.3641933" lon="14.2787"><ele>46.0</ele><time>2026-05-01T08:32:23.275Z</time></trkpt><trkpt lat="42.3641117" lon="14.278635"><ele>46.25</ele><time>2026-05-01T08:32:24.275Z</time></trkpt><trkpt lat="42.36402" lon="14.27856"><ele>46.5</ele><time>2026-05-01T08:32:25.275Z</time></trkpt><trkpt lat="42.3639133" lon="14.2784683"><ele>46.75</ele><time>2026-05-01T08:32:26.275Z</time></trkpt><trkpt lat="42.3638017" lon="14.2783683"><ele>47.0</ele><time>2026-05-01T08:32:27.275Z</time></trkpt><trkpt lat="42.3636717" lon="14.278265"><ele>47.0</ele><time>2026-05-01T08:32:28.275Z</time></trkpt><trkpt lat="42.3635433" lon="14.2781683"><ele>47.0</ele><time>2026-05-01T08:32:29.275Z</time></trkpt><trkpt lat="42.3634183" lon="14.2780733"><ele>47.0</ele><time>2026-05-01T08:32:30.275Z</time></trkpt><trkpt lat="42.363305" lon="14.2779717"><ele>47.0</ele><time>2026-05-01T08:32:31.275Z</time></trkpt><trkpt lat="42.3631983" lon="14.2778817"><ele>47.75</ele><time>2026-05-01T08:32:32.275Z</time></trkpt><trkpt lat="42.3630883" lon="14.2778083"><ele>48.5</ele><time>2026-05-01T08:32:33.275Z</time></trkpt><trkpt lat="42.3629833" lon="14.2777383"><ele>49.25</ele><time>2026-05-01T08:32:34.275Z</time></trkpt><trkpt lat="42.3628683" lon="14.27771"><ele>50.0</ele><time>2026-05-01T08:32:35.275Z</time></trkpt><trkpt lat="42.3627517" lon="14.2776867"><ele>50.0</ele><time>2026-05-01T08:32:36.275Z</time></trkpt><trkpt lat="42.3626283" lon="14.2776817"><ele>50.0</ele><time>2026-05-01T08:32:37.275Z</time></trkpt><trkpt lat="42.362505" lon="14.2776917"><ele>50.0</ele><time>2026-05-01T08:32:38.275Z</time></trkpt><trkpt lat="42.36237" lon="14.2777067"><ele>50.0</ele><time>2026-05-01T08:32:39.275Z</time></trkpt><trkpt lat="42.3622383" lon="14.277715"><ele>50.0</ele><time>2026-05-01T08:32:40.275Z</time></trkpt><trkpt lat="42.3621067" lon="14.2777267"><ele>50.0</ele><time>2026-05-01T08:32:41.275Z</time></trkpt><trkpt lat="42.3619667" lon="14.27773"><ele>50.0</ele><time>2026-05-01T08:32:42.275Z</time></trkpt><trkpt lat="42.3618167" lon="14.2777417"><ele>50.0</ele><time>2026-05-01T08:32:43.275Z</time></trkpt><trkpt lat="42.3616617" lon="14.2777517"><ele>50.0</ele><time>2026-05-01T08:32:44.275Z</time></trkpt><trkpt lat="42.3615067" lon="14.2777667"><ele>50.0</ele><time>2026-05-01T08:32:45.275Z</time></trkpt><trkpt lat="42.3613583" lon="14.2777883"><ele>50.0</ele><time>2026-05-01T08:32:46.275Z</time></trkpt><trkpt lat="42.361215" lon="14.2778017"><ele>50.0</ele><time>2026-05-01T08:32:47.275Z</time></trkpt><trkpt lat="42.361075" lon="14.2778183"><ele>50.0</ele><time>2026-05-01T08:32:48.275Z</time></trkpt><trkpt lat="42.3609283" lon="14.27783"><ele>50.0</ele><time>2026-05-01T08:32:49.275Z</time></trkpt><trkpt lat="42.3607817" lon="14.2778417"><ele>50.0</ele><time>2026-05-01T08:32:50.275Z</time></trkpt><trkpt lat="42.3606417" lon="14.2778583"><ele>50.0</ele><time>2026-05-01T08:32:51.275Z</time></trkpt><trkpt lat="42.3605067" lon="14.2778683"><ele>50.25</ele><time>2026-05-01T08:32:52.275Z</time></trkpt><trkpt lat="42.360375" lon="14.27787"><ele>50.5</ele><time>2026-05-01T08:32:53.275Z</time></trkpt><trkpt lat="42.3602533" lon="14.2778517"><ele>50.75</ele><time>2026-05-01T08:32:54.275Z</time></trkpt><trkpt lat="42.3601433" lon="14.2778133"><ele>51.0</ele><time>2026-05-01T08:32:55.275Z</time></trkpt><trkpt lat="42.3600333" lon="14.2777483"><ele>51.0</ele><time>2026-05-01T08:32:56.275Z</time></trkpt><trkpt lat="42.35993" lon="14.2776567"><ele>51.0</ele><time>2026-05-01T08:32:57.275Z</time></trkpt><trkpt lat="42.3598583" lon="14.2775517"><ele>51.0</ele><time>2026-05-01T08:32:58.275Z</time></trkpt><trkpt lat="42.3598033" lon="14.2774333"><ele>51.0</ele><time>2026-05-01T08:32:59.275Z</time></trkpt><trkpt lat="42.3597683" lon="14.2773067"><ele>51.0</ele><time>2026-05-01T08:33:00.275Z</time></trkpt><trkpt lat="42.3597433" lon="14.2771867"><ele>50.833333333333336</ele><time>2026-05-01T08:33:01.276Z</time></trkpt><trkpt lat="42.3597267" lon="14.2770833"><ele>50.66666666666667</ele><time>2026-05-01T08:33:02.275Z</time></trkpt><trkpt lat="42.3597067" lon="14.2769967"><ele>50.5</ele><time>2026-05-01T08:33:03.275Z</time></trkpt><trkpt lat="42.3596467" lon="14.276915"><ele>50.333333333333336</ele><time>2026-05-01T08:33:05.275Z</time></trkpt><trkpt lat="42.3595967" lon="14.2769833"><ele>50.16666666666667</ele><time>2026-05-01T08:33:07.275Z</time></trkpt><trkpt lat="42.359575" lon="14.2770733"><ele>50.0</ele><time>2026-05-01T08:33:08.276Z</time></trkpt><trkpt lat="42.359565" lon="14.2772233"><ele>50.0</ele><time>2026-05-01T08:33:09.275Z</time></trkpt><trkpt lat="42.3595483" lon="14.2773917"><ele>50.0</ele><time>2026-05-01T08:33:10.275Z</time></trkpt><trkpt lat="42.3595483" lon="14.2775567"><ele>50.0</ele><time>2026-05-01T08:33:11.275Z</time></trkpt><trkpt lat="42.3595617" lon="14.27771"><ele>50.0</ele><time>2026-05-01T08:33:12.275Z</time></trkpt><trkpt lat="42.3595833" lon="14.277865"><ele>50.0</ele><time>2026-05-01T08:33:13.275Z</time></trkpt><trkpt lat="42.3596117" lon="14.2780117"><ele>50.0</ele><time>2026-05-01T08:33:14.276Z</time></trkpt><trkpt lat="42.35963" lon="14.2781767"><ele>50.0</ele><time>2026-05-01T08:33:15.275Z</time></trkpt><trkpt lat="42.3596383" lon="14.278345"><ele>50.0</ele><time>2026-05-01T08:33:16.275Z</time></trkpt><trkpt lat="42.359625" lon="14.2785283"><ele>49.0</ele><time>2026-05-01T08:33:17.275Z</time></trkpt><trkpt lat="42.3596" lon="14.2787017"><ele>48.0</ele><time>2026-05-01T08:33:18.275Z</time></trkpt><trkpt lat="42.35954" lon="14.2788967"><ele>47.0</ele><time>2026-05-01T08:33:19.275Z</time></trkpt><trkpt lat="42.3594767" lon="14.2790933"><ele>46.0</ele><time>2026-05-01T08:33:20.275Z</time></trkpt><trkpt lat="42.35941" lon="14.27928"><ele>45.333333333333336</ele><time>2026-05-01T08:33:21.275Z</time></trkpt><trkpt lat="42.3593417" lon="14.2794683"><ele>44.666666666666664</ele><time>2026-05-01T08:33:22.276Z</time></trkpt><trkpt lat="42.35927" lon="14.2796483"><ele>44.0</ele><time>2026-05-01T08:33:23.275Z</time></trkpt><trkpt lat="42.3591983" lon="14.279825"><ele>43.5</ele><time>2026-05-01T08:33:24.275Z</time></trkpt><trkpt lat="42.359125" lon="14.279975"><ele>43.0</ele><time>2026-05-01T08:33:25.275Z</time></trkpt><trkpt lat="42.359045" lon="14.2801317"><ele>42.5</ele><time>2026-05-01T08:33:26.276Z</time></trkpt><trkpt lat="42.3589567" lon="14.2802817"><ele>42.0</ele><time>2026-05-01T08:33:27.276Z</time></trkpt><trkpt lat="42.35886" lon="14.2804083"><ele>42.0</ele><time>2026-05-01T08:33:28.275Z</time></trkpt><trkpt lat="42.3587617" lon="14.2805117"><ele>42.0</ele><time>2026-05-01T08:33:29.275Z</time></trkpt><trkpt lat="42.358665" lon="14.2806083"><ele>42.0</ele><time>2026-05-01T08:33:30.276Z</time></trkpt><trkpt lat="42.3585783" lon="14.2806867"><ele>42.0</ele><time>2026-05-01T08:33:31.275Z</time></trkpt><trkpt lat="42.3585033" lon="14.2807467"><ele>42.0</ele><time>2026-05-01T08:33:32.275Z</time></trkpt><trkpt lat="42.35845" lon="14.2807967"><ele>41.833333333333336</ele><time>2026-05-01T08:33:33.275Z</time></trkpt><trkpt lat="42.358385" lon="14.28086"><ele>41.666666666666664</ele><time>2026-05-01T08:33:35.275Z</time></trkpt><trkpt lat="42.358435" lon="14.2809317"><ele>41.5</ele><time>2026-05-01T08:33:39.275Z</time></trkpt><trkpt lat="42.3585033" lon="14.2809067"><ele>41.33333333333333</ele><time>2026-05-01T08:33:41.275Z</time></trkpt><trkpt lat="42.3585767" lon="14.280845"><ele>41.166666666666664</ele><time>2026-05-01T08:33:43.275Z</time></trkpt><trkpt lat="42.35867" lon="14.28079"><ele>41.0</ele><time>2026-05-01T08:33:45.275Z</time></trkpt><trkpt lat="42.3587617" lon="14.2807183"><ele>41.0</ele><time>2026-05-01T08:33:47.275Z</time></trkpt><trkpt lat="42.3588483" lon="14.28064"><ele>41.0</ele><time>2026-05-01T08:33:49.275Z</time></trkpt><trkpt lat="42.3589267" lon="14.28056"><ele>41.0</ele><time>2026-05-01T08:33:51.276Z</time></trkpt><trkpt lat="42.35898" lon="14.2805"><ele>41.0</ele><time>2026-05-01T08:33:53.275Z</time></trkpt><trkpt lat="42.3590515" lon="14.2804152"><ele>41.0</ele><time>2026-05-01T08:33:56.276Z</time></trkpt><trkpt lat="42.3591207" lon="14.280321"><ele>41.166666666666664</ele><time>2026-05-01T08:33:58.275Z</time></trkpt><trkpt lat="42.3591915" lon="14.280214"><ele>41.33333333333333</ele><time>2026-05-01T08:34:00.276Z</time></trkpt><trkpt lat="42.3592642" lon="14.280106"><ele>41.5</ele><time>2026-05-01T08:34:02.275Z</time></trkpt><trkpt lat="42.359312" lon="14.2800058"><ele>41.666666666666664</ele><time>2026-05-01T08:34:04.275Z</time></trkpt><trkpt lat="42.3593333" lon="14.27991"><ele>41.833333333333336</ele><time>2026-05-01T08:34:36.275Z</time></trkpt><trkpt lat="42.3593933" lon="14.27987"><ele>42.0</ele><time>2026-05-01T08:34:38.275Z</time></trkpt><trkpt lat="42.3595133" lon="14.279865"><ele>42.0</ele><time>2026-05-01T08:34:40.275Z</time></trkpt><trkpt lat="42.35959" lon="14.2798567"><ele>42.0</ele><time>2026-05-01T08:34:41.275Z</time></trkpt><trkpt lat="42.359665" lon="14.279845"><ele>42.0</ele><time>2026-05-01T08:34:42.275Z</time></trkpt><trkpt lat="42.3597483" lon="14.2798417"><ele>42.0</ele><time>2026-05-01T08:34:43.275Z</time></trkpt><trkpt lat="42.3598317" lon="14.2798483"><ele>42.0</ele><time>2026-05-01T08:34:44.275Z</time></trkpt><trkpt lat="42.3599183" lon="14.2798683"><ele>42.0</ele><time>2026-05-01T08:34:45.275Z</time></trkpt><trkpt lat="42.3600217" lon="14.2798933"><ele>41.8</ele><time>2026-05-01T08:34:46.274Z</time></trkpt><trkpt lat="42.3601217" lon="14.2799267"><ele>41.6</ele><time>2026-05-01T08:34:47.275Z</time></trkpt><trkpt lat="42.360235" lon="14.279965"><ele>41.4</ele><time>2026-05-01T08:34:48.274Z</time></trkpt><trkpt lat="42.3603467" lon="14.27999"><ele>41.199999999999996</ele><time>2026-05-01T08:34:49.274Z</time></trkpt><trkpt lat="42.3604517" lon="14.2800133"><ele>41.0</ele><time>2026-05-01T08:34:50.274Z</time></trkpt><trkpt lat="42.3605517" lon="14.28004"><ele>41.4</ele><time>2026-05-01T08:34:51.274Z</time></trkpt><trkpt lat="42.360655" lon="14.2800667"><ele>41.8</ele><time>2026-05-01T08:34:52.274Z</time></trkpt><trkpt lat="42.3607517" lon="14.2800883"><ele>42.199999999999996</ele><time>2026-05-01T08:34:53.274Z</time></trkpt><trkpt lat="42.3608367" lon="14.2801167"><ele>42.599999999999994</ele><time>2026-05-01T08:34:54.275Z</time></trkpt><trkpt lat="42.3609267" lon="14.28014"><ele>43.0</ele><time>2026-05-01T08:34:55.274Z</time></trkpt><trkpt lat="42.36101" lon="14.2801433"><ele>43.0</ele><time>2026-05-01T08:34:56.274Z</time></trkpt><trkpt lat="42.3610883" lon="14.2801233"><ele>43.0</ele><time>2026-05-01T08:34:57.274Z</time></trkpt><trkpt lat="42.3611717" lon="14.2800783"><ele>43.0</ele><time>2026-05-01T08:34:58.274Z</time></trkpt><trkpt lat="42.36125" lon="14.28001"><ele>43.0</ele><time>2026-05-01T08:34:59.274Z</time></trkpt><trkpt lat="42.36132" lon="14.2799467"><ele>43.0</ele><time>2026-05-01T08:35:00.274Z</time></trkpt><trkpt lat="42.3613867" lon="14.27988"><ele>43.0</ele><time>2026-05-01T08:35:01.274Z</time></trkpt><trkpt lat="42.3614383" lon="14.27981"><ele>43.0</ele><time>2026-05-01T08:35:02.275Z</time></trkpt><trkpt lat="42.3615133" lon="14.2797667"><ele>43.0</ele><time>2026-05-01T08:35:03.274Z</time></trkpt><trkpt lat="42.3616" lon="14.2797267"><ele>43.0</ele><time>2026-05-01T08:35:04.274Z</time></trkpt><trkpt lat="42.3617017" lon="14.2796817"><ele>43.0</ele><time>2026-05-01T08:35:05.274Z</time></trkpt><trkpt lat="42.3618083" lon="14.2796433"><ele>43.0</ele><time>2026-05-01T08:35:06.274Z</time></trkpt><trkpt lat="42.3619283" lon="14.2795833"><ele>43.0</ele><time>2026-05-01T08:35:07.274Z</time></trkpt><trkpt lat="42.3620383" lon="14.27953"><ele>43.0</ele><time>2026-05-01T08:35:08.274Z</time></trkpt><trkpt lat="42.3621383" lon="14.279495"><ele>43.0</ele><time>2026-05-01T08:35:09.274Z</time></trkpt><trkpt lat="42.3622283" lon="14.279475"><ele>43.0</ele><time>2026-05-01T08:35:10.274Z</time></trkpt><trkpt lat="42.36231" lon="14.2794783"><ele>43.0</ele><time>2026-05-01T08:35:11.274Z</time></trkpt><trkpt lat="42.3623733" lon="14.2794867"><ele>43.0</ele><time>2026-05-01T08:35:12.274Z</time></trkpt><trkpt lat="42.3624383" lon="14.279515"><ele>43.0</ele><time>2026-05-01T08:35:13.274Z</time></trkpt><trkpt lat="42.3625067" lon="14.2795633"><ele>43.0</ele><time>2026-05-01T08:35:14.275Z</time></trkpt><trkpt lat="42.3625833" lon="14.2796283"><ele>43.0</ele><time>2026-05-01T08:35:15.274Z</time></trkpt><trkpt lat="42.3626717" lon="14.27971"><ele>43.0</ele><time>2026-05-01T08:35:16.275Z</time></trkpt><trkpt lat="42.36278" lon="14.2797833"><ele>43.0</ele><time>2026-05-01T08:35:17.274Z</time></trkpt><trkpt lat="42.362895" lon="14.2798567"><ele>43.0</ele><time>2026-05-01T08:35:18.274Z</time></trkpt><trkpt lat="42.3630117" lon="14.2799217"><ele>43.0</ele><time>2026-05-01T08:35:19.274Z</time></trkpt><trkpt lat="42.3631183" lon="14.2799917"><ele>43.0</ele><time>2026-05-01T08:35:20.274Z</time></trkpt><trkpt lat="42.36322" lon="14.2800383"><ele>42.75</ele><time>2026-05-01T08:35:21.274Z</time></trkpt><trkpt lat="42.3633267" lon="14.2800967"><ele>42.5</ele><time>2026-05-01T08:35:22.275Z</time></trkpt><trkpt lat="42.36344" lon="14.28015"><ele>42.25</ele><time>2026-05-01T08:35:23.274Z</time></trkpt><trkpt lat="42.3635483" lon="14.2802"><ele>42.0</ele><time>2026-05-01T08:35:24.274Z</time></trkpt><trkpt lat="42.3636483" lon="14.2802583"><ele>42.0</ele><time>2026-05-01T08:35:25.274Z</time></trkpt><trkpt lat="42.3637467" lon="14.2803067"><ele>42.0</ele><time>2026-05-01T08:35:26.274Z</time></trkpt><trkpt lat="42.363835" lon="14.2803667"><ele>42.0</ele><time>2026-05-01T08:35:27.274Z</time></trkpt><trkpt lat="42.36391" lon="14.2804367"><ele>42.0</ele><time>2026-05-01T08:35:28.275Z</time></trkpt><trkpt lat="42.3639717" lon="14.2805183"><ele>42.0</ele><time>2026-05-01T08:35:29.274Z</time></trkpt><trkpt lat="42.3640367" lon="14.2806317"><ele>41.0</ele><time>2026-05-01T08:35:30.274Z</time></trkpt><trkpt lat="42.3641033" lon="14.2807683"><ele>40.0</ele><time>2026-05-01T08:35:31.274Z</time></trkpt><trkpt lat="42.3641667" lon="14.2809083"><ele>39.0</ele><time>2026-05-01T08:35:32.274Z</time></trkpt><trkpt lat="42.3642333" lon="14.281035"><ele>38.0</ele><time>2026-05-01T08:35:33.274Z</time></trkpt><trkpt lat="42.364295" lon="14.2811567"><ele>38.0</ele><time>2026-05-01T08:35:34.274Z</time></trkpt><trkpt lat="42.3643483" lon="14.2812667"><ele>38.0</ele><time>2026-05-01T08:35:35.274Z</time></trkpt><trkpt lat="42.3643733" lon="14.281365"><ele>38.0</ele><time>2026-05-01T08:35:36.274Z</time></trkpt><trkpt lat="42.364385" lon="14.2814783"><ele>38.0</ele><time>2026-05-01T08:35:37.274Z</time></trkpt><trkpt lat="42.3643883" lon="14.28159"><ele>38.0</ele><time>2026-05-01T08:35:38.274Z</time></trkpt><trkpt lat="42.36438" lon="14.2817067"><ele>38.0</ele><time>2026-05-01T08:35:39.274Z</time></trkpt><trkpt lat="42.364355" lon="14.281805"><ele>37.666666666666664</ele><time>2026-05-01T08:35:40.274Z</time></trkpt><trkpt lat="42.364325" lon="14.281895"><ele>37.33333333333333</ele><time>2026-05-01T08:35:41.274Z</time></trkpt><trkpt lat="42.36428" lon="14.281985"><ele>37.0</ele><time>2026-05-01T08:35:42.274Z</time></trkpt><trkpt lat="42.3642383" lon="14.2820783"><ele>36.666666666666664</ele><time>2026-05-01T08:35:43.274Z</time></trkpt><trkpt lat="42.3641967" lon="14.2821667"><ele>36.333333333333336</ele><time>2026-05-01T08:35:44.274Z</time></trkpt><trkpt lat="42.36416" lon="14.2822483"><ele>36.0</ele><time>2026-05-01T08:35:45.274Z</time></trkpt><trkpt lat="42.36414" lon="14.2824083"><ele>36.0</ele><time>2026-05-01T08:35:47.274Z</time></trkpt><trkpt lat="42.3641467" lon="14.2825"><ele>36.0</ele><time>2026-05-01T08:35:48.274Z</time></trkpt><trkpt lat="42.3641433" lon="14.282625"><ele>36.0</ele><time>2026-05-01T08:35:49.274Z</time></trkpt><trkpt lat="42.3641483" lon="14.2827333"><ele>36.0</ele><time>2026-05-01T08:35:50.274Z</time></trkpt><trkpt lat="42.3641617" lon="14.2828183"><ele>36.0</ele><time>2026-05-01T08:35:51.274Z</time></trkpt><trkpt lat="42.3642033" lon="14.28296"><ele>36.0</ele><time>2026-05-01T08:35:53.274Z</time></trkpt><trkpt lat="42.36422" lon="14.2830517"><ele>35.85714285714286</ele><time>2026-05-01T08:35:54.274Z</time></trkpt><trkpt lat="42.3642367" lon="14.2831383"><ele>35.714285714285715</ele><time>2026-05-01T08:35:55.274Z</time></trkpt><trkpt lat="42.36425" lon="14.2832267"><ele>35.57142857142857</ele><time>2026-05-01T08:35:56.274Z</time></trkpt><trkpt lat="42.3642567" lon="14.28333"><ele>35.42857142857143</ele><time>2026-05-01T08:35:57.274Z</time></trkpt><trkpt lat="42.36427" lon="14.2834367"><ele>35.285714285714285</ele><time>2026-05-01T08:35:58.274Z</time></trkpt><trkpt lat="42.3642767" lon="14.2835417"><ele>35.142857142857146</ele><time>2026-05-01T08:35:59.274Z</time></trkpt><trkpt lat="42.3642817" lon="14.2836367"><ele>35.0</ele><time>2026-05-01T08:36:00.274Z</time></trkpt><trkpt lat="42.3642883" lon="14.2837517"><ele>35.0</ele><time>2026-05-01T08:36:01.274Z</time></trkpt><trkpt lat="42.3642867" lon="14.2838733"><ele>35.0</ele><time>2026-05-01T08:36:02.274Z</time></trkpt><trkpt lat="42.364285" lon="14.2840067"><ele>35.0</ele><time>2026-05-01T08:36:03.274Z</time></trkpt><trkpt lat="42.3642817" lon="14.284135"><ele>35.0</ele><time>2026-05-01T08:36:04.274Z</time></trkpt><trkpt lat="42.3642733" lon="14.2842633"><ele>35.0</ele><time>2026-05-01T08:36:05.274Z</time></trkpt><trkpt lat="42.3642717" lon="14.2843783"><ele>34.666666666666664</ele><time>2026-05-01T08:36:06.274Z</time></trkpt><trkpt lat="42.3642667" lon="14.2844917"><ele>34.33333333333333</ele><time>2026-05-01T08:36:07.275Z</time></trkpt><trkpt lat="42.3642517" lon="14.284605"><ele>34.0</ele><time>2026-05-01T08:36:08.275Z</time></trkpt><trkpt lat="42.364245" lon="14.284715"><ele>33.666666666666664</ele><time>2026-05-01T08:36:09.275Z</time></trkpt><trkpt lat="42.3642333" lon="14.284835"><ele>33.333333333333336</ele><time>2026-05-01T08:36:10.274Z</time></trkpt><trkpt lat="42.3642267" lon="14.284965"><ele>33.0</ele><time>2026-05-01T08:36:11.274Z</time></trkpt><trkpt lat="42.3642167" lon="14.2850983"><ele>33.0</ele><time>2026-05-01T08:36:12.274Z</time></trkpt><trkpt lat="42.3642083" lon="14.2852117"><ele>33.0</ele><time>2026-05-01T08:36:13.274Z</time></trkpt><trkpt lat="42.3642117" lon="14.285335"><ele>33.0</ele><time>2026-05-01T08:36:14.274Z</time></trkpt><trkpt lat="42.3642267" lon="14.285475"><ele>33.0</ele><time>2026-05-01T08:36:15.274Z</time></trkpt><trkpt lat="42.3642467" lon="14.2856317"><ele>33.0</ele><time>2026-05-01T08:36:16.274Z</time></trkpt><trkpt lat="42.3642733" lon="14.2857733"><ele>33.75</ele><time>2026-05-01T08:36:17.274Z</time></trkpt><trkpt lat="42.3643" lon="14.28591"><ele>34.5</ele><time>2026-05-01T08:36:18.274Z</time></trkpt><trkpt lat="42.3643617" lon="14.2860483"><ele>35.25</ele><time>2026-05-01T08:36:19.274Z</time></trkpt><trkpt lat="42.3644283" lon="14.2862017"><ele>36.0</ele><time>2026-05-01T08:36:20.274Z</time></trkpt><trkpt lat="42.3644967" lon="14.2863383"><ele>35.8</ele><time>2026-05-01T08:36:21.274Z</time></trkpt><trkpt lat="42.3645683" lon="14.2864483"><ele>35.6</ele><time>2026-05-01T08:36:22.275Z</time></trkpt><trkpt lat="42.364645" lon="14.286535"><ele>35.4</ele><time>2026-05-01T08:36:23.274Z</time></trkpt><trkpt lat="42.3647217" lon="14.2866183"><ele>35.2</ele><time>2026-05-01T08:36:24.275Z</time></trkpt><trkpt lat="42.364815" lon="14.2866967"><ele>35.0</ele><time>2026-05-01T08:36:25.274Z</time></trkpt><trkpt lat="42.3649117" lon="14.2867917"><ele>35.0</ele><time>2026-05-01T08:36:26.274Z</time></trkpt><trkpt lat="42.3650067" lon="14.2868733"><ele>35.0</ele><time>2026-05-01T08:36:27.274Z</time></trkpt><trkpt lat="42.3651017" lon="14.28696"><ele>35.0</ele><time>2026-05-01T08:36:28.274Z</time></trkpt><trkpt lat="42.3652" lon="14.2870467"><ele>35.0</ele><time>2026-05-01T08:36:29.275Z</time></trkpt><trkpt lat="42.3652833" lon="14.287135"><ele>35.0</ele><time>2026-05-01T08:36:30.274Z</time></trkpt><trkpt lat="42.3653567" lon="14.2872133"><ele>35.0</ele><time>2026-05-01T08:36:31.274Z</time></trkpt><trkpt lat="42.36543" lon="14.287275"><ele>35.0</ele><time>2026-05-01T08:36:32.274Z</time></trkpt><trkpt lat="42.3655" lon="14.2873233"><ele>35.0</ele><time>2026-05-01T08:36:33.274Z</time></trkpt><trkpt lat="42.36556" lon="14.28736"><ele>35.0</ele><time>2026-05-01T08:36:34.274Z</time></trkpt><trkpt lat="42.3656383" lon="14.28738"><ele>35.0</ele><time>2026-05-01T08:36:35.275Z</time></trkpt><trkpt lat="42.3657133" lon="14.2874"><ele>34.666666666666664</ele><time>2026-05-01T08:36:36.274Z</time></trkpt><trkpt lat="42.3658117" lon="14.2874267"><ele>34.33333333333333</ele><time>2026-05-01T08:36:38.274Z</time></trkpt><trkpt lat="42.365875" lon="14.2874433"><ele>34.0</ele><time>2026-05-01T08:36:40.274Z</time></trkpt><trkpt lat="42.3659867" lon="14.287385"><ele>33.666666666666664</ele><time>2026-05-01T08:36:43.274Z</time></trkpt><trkpt lat="42.366055" lon="14.28736"><ele>33.333333333333336</ele><time>2026-05-01T08:36:44.274Z</time></trkpt><trkpt lat="42.3661167" lon="14.2873283"><ele>33.0</ele><time>2026-05-01T08:36:45.274Z</time></trkpt><trkpt lat="42.3661817" lon="14.2872883"><ele>33.166666666666664</ele><time>2026-05-01T08:36:46.274Z</time></trkpt><trkpt lat="42.3662617" lon="14.28725"><ele>33.333333333333336</ele><time>2026-05-01T08:36:47.274Z</time></trkpt><trkpt lat="42.36634" lon="14.28722"><ele>33.5</ele><time>2026-05-01T08:36:48.274Z</time></trkpt><trkpt lat="42.3664183" lon="14.287205"><ele>33.66666666666667</ele><time>2026-05-01T08:36:49.274Z</time></trkpt><trkpt lat="42.366485" lon="14.2872217"><ele>33.833333333333336</ele><time>2026-05-01T08:36:50.274Z</time></trkpt><trkpt lat="42.3665433" lon="14.2872683"><ele>34.0</ele><time>2026-05-01T08:36:51.274Z</time></trkpt><trkpt lat="42.36659" lon="14.2873417"><ele>34.2</ele><time>2026-05-01T08:36:52.274Z</time></trkpt><trkpt lat="42.3666217" lon="14.2874467"><ele>34.4</ele><time>2026-05-01T08:36:53.274Z</time></trkpt><trkpt lat="42.3666517" lon="14.2875767"><ele>34.6</ele><time>2026-05-01T08:36:54.274Z</time></trkpt><trkpt lat="42.3666733" lon="14.28773"><ele>34.8</ele><time>2026-05-01T08:36:55.274Z</time></trkpt><trkpt lat="42.3667" lon="14.2878917"><ele>35.0</ele><time>2026-05-01T08:36:56.274Z</time></trkpt><trkpt lat="42.3667283" lon="14.288055"><ele>34.8</ele><time>2026-05-01T08:36:57.274Z</time></trkpt><trkpt lat="42.3667583" lon="14.2882133"><ele>34.6</ele><time>2026-05-01T08:36:58.274Z</time></trkpt><trkpt lat="42.3667867" lon="14.2883483"><ele>34.4</ele><time>2026-05-01T08:36:59.274Z</time></trkpt><trkpt lat="42.3668267" lon="14.2884833"><ele>34.2</ele><time>2026-05-01T08:37:00.274Z</time></trkpt><trkpt lat="42.36686" lon="14.2886067"><ele>34.0</ele><time>2026-05-01T08:37:01.274Z</time></trkpt><trkpt lat="42.3668817" lon="14.2887267"><ele>34.0</ele><time>2026-05-01T08:37:02.274Z</time></trkpt><trkpt lat="42.3669" lon="14.2888533"><ele>34.0</ele><time>2026-05-01T08:37:03.274Z</time></trkpt><trkpt lat="42.3669183" lon="14.2889917"><ele>34.0</ele><time>2026-05-01T08:37:04.274Z</time></trkpt><trkpt lat="42.3669333" lon="14.2891283"><ele>34.0</ele><time>2026-05-01T08:37:05.274Z</time></trkpt><trkpt lat="42.366945" lon="14.2892667"><ele>34.0</ele><time>2026-05-01T08:37:06.274Z</time></trkpt><trkpt lat="42.3669583" lon="14.28941"><ele>33.8</ele><time>2026-05-01T08:37:07.274Z</time></trkpt><trkpt lat="42.3669633" lon="14.2895433"><ele>33.599999999999994</ele><time>2026-05-01T08:37:08.274Z</time></trkpt><trkpt lat="42.36697" lon="14.2896833"><ele>33.4</ele><time>2026-05-01T08:37:09.274Z</time></trkpt><trkpt lat="42.3669817" lon="14.28983"><ele>33.199999999999996</ele><time>2026-05-01T08:37:10.274Z</time></trkpt><trkpt lat="42.367" lon="14.2899767"><ele>33.0</ele><time>2026-05-01T08:37:11.274Z</time></trkpt><trkpt lat="42.3670217" lon="14.2901117"><ele>33.0</ele><time>2026-05-01T08:37:12.274Z</time></trkpt><trkpt lat="42.3670383" lon="14.290235"><ele>33.0</ele><time>2026-05-01T08:37:13.274Z</time></trkpt><trkpt lat="42.3670617" lon="14.2903567"><ele>33.0</ele><time>2026-05-01T08:37:14.274Z</time></trkpt><trkpt lat="42.3670967" lon="14.2904733"><ele>33.0</ele><time>2026-05-01T08:37:15.274Z</time></trkpt><trkpt lat="42.3671417" lon="14.2905833"><ele>33.0</ele><time>2026-05-01T08:37:16.274Z</time></trkpt><trkpt lat="42.3671883" lon="14.2906867"><ele>33.199999999999996</ele><time>2026-05-01T08:37:17.275Z</time></trkpt><trkpt lat="42.3672417" lon="14.290765"><ele>33.4</ele><time>2026-05-01T08:37:18.274Z</time></trkpt><trkpt lat="42.3673033" lon="14.2908433"><ele>33.599999999999994</ele><time>2026-05-01T08:37:19.274Z</time></trkpt><trkpt lat="42.367375" lon="14.290925"><ele>33.8</ele><time>2026-05-01T08:37:20.274Z</time></trkpt><trkpt lat="42.36745" lon="14.2910083"><ele>34.0</ele><time>2026-05-01T08:37:21.274Z</time></trkpt><trkpt lat="42.3675283" lon="14.2911117"><ele>34.0</ele><time>2026-05-01T08:37:22.274Z</time></trkpt><trkpt lat="42.3676083" lon="14.291225"><ele>34.0</ele><time>2026-05-01T08:37:23.274Z</time></trkpt><trkpt lat="42.3676867" lon="14.2913533"><ele>34.0</ele><time>2026-05-01T08:37:24.274Z</time></trkpt><trkpt lat="42.36775" lon="14.2914783"><ele>34.0</ele><time>2026-05-01T08:37:25.274Z</time></trkpt><trkpt lat="42.3678083" lon="14.2915867"><ele>33.0</ele><time>2026-05-01T08:37:26.274Z</time></trkpt><trkpt lat="42.3678717" lon="14.2916983"><ele>32.0</ele><time>2026-05-01T08:37:27.274Z</time></trkpt><trkpt lat="42.3679333" lon="14.291825"><ele>31.0</ele><time>2026-05-01T08:37:28.274Z</time></trkpt><trkpt lat="42.36799" lon="14.2919633"><ele>30.0</ele><time>2026-05-01T08:37:29.274Z</time></trkpt><trkpt lat="42.368045" lon="14.2921033"><ele>30.0</ele><time>2026-05-01T08:37:30.275Z</time></trkpt><trkpt lat="42.36809" lon="14.2922567"><ele>30.0</ele><time>2026-05-01T08:37:31.274Z</time></trkpt><trkpt lat="42.368125" lon="14.29241"><ele>30.0</ele><time>2026-05-01T08:37:32.274Z</time></trkpt><trkpt lat="42.3681567" lon="14.2925767"><ele>30.0</ele><time>2026-05-01T08:37:33.274Z</time></trkpt><trkpt lat="42.368195" lon="14.2927533"><ele>30.0</ele><time>2026-05-01T08:37:34.275Z</time></trkpt><trkpt lat="42.3682367" lon="14.2929483"><ele>30.0</ele><time>2026-05-01T08:37:35.275Z</time></trkpt><trkpt lat="42.3682867" lon="14.2931583"><ele>30.0</ele><time>2026-05-01T08:37:36.274Z</time></trkpt><trkpt lat="42.36833" lon="14.29335"><ele>30.0</ele><time>2026-05-01T08:37:37.274Z</time></trkpt><trkpt lat="42.3683717" lon="14.2935317"><ele>30.0</ele><time>2026-05-01T08:37:38.274Z</time></trkpt><trkpt lat="42.3684117" lon="14.2936933"><ele>30.0</ele><time>2026-05-01T08:37:39.274Z</time></trkpt><trkpt lat="42.3684533" lon="14.2938183"><ele>30.0</ele><time>2026-05-01T08:37:40.274Z</time></trkpt><trkpt lat="42.3684767" lon="14.2939417"><ele>29.75</ele><time>2026-05-01T08:37:41.274Z</time></trkpt><trkpt lat="42.3685033" lon="14.2940683"><ele>29.5</ele><time>2026-05-01T08:37:42.274Z</time></trkpt><trkpt lat="42.3685217" lon="14.294225"><ele>29.25</ele><time>2026-05-01T08:37:43.274Z</time></trkpt><trkpt lat="42.36854" lon="14.2943983"><ele>29.0</ele><time>2026-05-01T08:37:44.274Z</time></trkpt><trkpt lat="42.368555" lon="14.29455"><ele>28.999999999999996</ele><time>2026-05-01T08:37:45.274Z</time></trkpt><trkpt lat="42.3685717" lon="14.294675"><ele>29.0</ele><time>2026-05-01T08:37:46.274Z</time></trkpt><trkpt lat="42.3685717" lon="14.2948"><ele>29.0</ele><time>2026-05-01T08:37:47.274Z</time></trkpt><trkpt lat="42.3685667" lon="14.2949183"><ele>29.0</ele><time>2026-05-01T08:37:48.274Z</time></trkpt><trkpt lat="42.3685583" lon="14.2950033"><ele>28.999999999999996</ele><time>2026-05-01T08:37:49.274Z</time></trkpt><trkpt lat="42.3685383" lon="14.2951317"><ele>29.0</ele><time>2026-05-01T08:37:51.274Z</time></trkpt><trkpt lat="42.3685383" lon="14.295225"><ele>29.0</ele><time>2026-05-01T08:37:58.274Z</time></trkpt><trkpt lat="42.36857" lon="14.295355"><ele>29.0</ele><time>2026-05-01T08:38:00.274Z</time></trkpt><trkpt lat="42.3686117" lon="14.295445"><ele>29.0</ele><time>2026-05-01T08:38:01.274Z</time></trkpt><trkpt lat="42.3686633" lon="14.2955533"><ele>29.0</ele><time>2026-05-01T08:38:02.274Z</time></trkpt><trkpt lat="42.3687217" lon="14.2956733"><ele>29.0</ele><time>2026-05-01T08:38:03.274Z</time></trkpt><trkpt lat="42.36878" lon="14.2958017"><ele>29.0</ele><time>2026-05-01T08:38:04.274Z</time></trkpt><trkpt lat="42.3688383" lon="14.29593"><ele>29.0</ele><time>2026-05-01T08:38:05.274Z</time></trkpt><trkpt lat="42.3688917" lon="14.2960667"><ele>29.0</ele><time>2026-05-01T08:38:06.274Z</time></trkpt><trkpt lat="42.3689533" lon="14.2962017"><ele>29.0</ele><time>2026-05-01T08:38:07.274Z</time></trkpt><trkpt lat="42.369015" lon="14.2963383"><ele>29.25</ele><time>2026-05-01T08:38:08.274Z</time></trkpt><trkpt lat="42.369085" lon="14.2964867"><ele>29.5</ele><time>2026-05-01T08:38:09.274Z</time></trkpt><trkpt lat="42.3691567" lon="14.2966333"><ele>29.75</ele><time>2026-05-01T08:38:10.274Z</time></trkpt><trkpt lat="42.3692267" lon="14.296765"><ele>30.0</ele><time>2026-05-01T08:38:11.274Z</time></trkpt><trkpt lat="42.36928" lon="14.2968783"><ele>30.0</ele><time>2026-05-01T08:38:12.274Z</time></trkpt><trkpt lat="42.3693283" lon="14.2969717"><ele>30.0</ele><time>2026-05-01T08:38:13.274Z</time></trkpt><trkpt lat="42.36937" lon="14.2970617"><ele>30.0</ele><time>2026-05-01T08:38:14.274Z</time></trkpt><trkpt lat="42.3694117" lon="14.2971417"><ele>30.0</ele><time>2026-05-01T08:38:15.274Z</time></trkpt><trkpt lat="42.369445" lon="14.29722"><ele>30.0</ele><time>2026-05-01T08:38:16.274Z</time></trkpt><trkpt lat="42.3694883" lon="14.2973083"><ele>30.0</ele><time>2026-05-01T08:38:17.274Z</time></trkpt><trkpt lat="42.369525" lon="14.2974133"><ele>30.0</ele><time>2026-05-01T08:38:18.274Z</time></trkpt><trkpt lat="42.3695617" lon="14.2975067"><ele>30.0</ele><time>2026-05-01T08:38:19.274Z</time></trkpt><trkpt lat="42.3696017" lon="14.2976017"><ele>30.0</ele><time>2026-05-01T08:38:20.275Z</time></trkpt><trkpt lat="42.3696517" lon="14.2976933"><ele>30.0</ele><time>2026-05-01T08:38:21.275Z</time></trkpt><trkpt lat="42.369695" lon="14.297795"><ele>30.0</ele><time>2026-05-01T08:38:22.274Z</time></trkpt><trkpt lat="42.3697467" lon="14.2979133"><ele>30.0</ele><time>2026-05-01T08:38:23.274Z</time></trkpt><trkpt lat="42.3698067" lon="14.2980267"><ele>29.8</ele><time>2026-05-01T08:38:24.275Z</time></trkpt><trkpt lat="42.369865" lon="14.2981383"><ele>29.6</ele><time>2026-05-01T08:38:25.274Z</time></trkpt><trkpt lat="42.3699283" lon="14.29824"><ele>29.4</ele><time>2026-05-01T08:38:26.274Z</time></trkpt><trkpt lat="42.369985" lon="14.2983333"><ele>29.2</ele><time>2026-05-01T08:38:27.274Z</time></trkpt><trkpt lat="42.37004" lon="14.2984233"><ele>29.0</ele><time>2026-05-01T08:38:28.274Z</time></trkpt><trkpt lat="42.3701033" lon="14.2984983"><ele>29.0</ele><time>2026-05-01T08:38:29.274Z</time></trkpt><trkpt lat="42.370175" lon="14.2985817"><ele>29.0</ele><time>2026-05-01T08:38:30.274Z</time></trkpt><trkpt lat="42.3702567" lon="14.29866"><ele>29.0</ele><time>2026-05-01T08:38:31.274Z</time></trkpt><trkpt lat="42.370355" lon="14.2987517"><ele>29.0</ele><time>2026-05-01T08:38:32.274Z</time></trkpt><trkpt lat="42.370455" lon="14.2988517"><ele>29.0</ele><time>2026-05-01T08:38:33.274Z</time></trkpt><trkpt lat="42.37055" lon="14.2989583"><ele>28.6</ele><time>2026-05-01T08:38:34.274Z</time></trkpt><trkpt lat="42.3706533" lon="14.299055"><ele>28.2</ele><time>2026-05-01T08:38:35.274Z</time></trkpt><trkpt lat="42.3707483" lon="14.2991433"><ele>27.800000000000004</ele><time>2026-05-01T08:38:36.274Z</time></trkpt><trkpt lat="42.370835" lon="14.299225"><ele>27.400000000000002</ele><time>2026-05-01T08:38:37.275Z</time></trkpt><trkpt lat="42.3709117" lon="14.2992967"><ele>27.0</ele><time>2026-05-01T08:38:38.274Z</time></trkpt><trkpt lat="42.3709883" lon="14.29936"><ele>27.0</ele><time>2026-05-01T08:38:39.274Z</time></trkpt><trkpt lat="42.3710667" lon="14.29941"><ele>27.0</ele><time>2026-05-01T08:38:40.274Z</time></trkpt><trkpt lat="42.3711283" lon="14.2994483"><ele>27.0</ele><time>2026-05-01T08:38:41.274Z</time></trkpt><trkpt lat="42.3711983" lon="14.2994667"><ele>27.0</ele><time>2026-05-01T08:38:42.274Z</time></trkpt><trkpt lat="42.3712733" lon="14.299485"><ele>27.0</ele><time>2026-05-01T08:38:43.274Z</time></trkpt><trkpt lat="42.3713533" lon="14.2994967"><ele>27.0</ele><time>2026-05-01T08:38:44.274Z</time></trkpt><trkpt lat="42.3714317" lon="14.299485"><ele>26.833333333333332</ele><time>2026-05-01T08:38:45.274Z</time></trkpt><trkpt lat="42.37152" lon="14.2994767"><ele>26.666666666666664</ele><time>2026-05-01T08:38:46.274Z</time></trkpt><trkpt lat="42.37162" lon="14.2994617"><ele>26.5</ele><time>2026-05-01T08:38:47.274Z</time></trkpt><trkpt lat="42.3717217" lon="14.2994483"><ele>26.333333333333332</ele><time>2026-05-01T08:38:48.275Z</time></trkpt><trkpt lat="42.3718083" lon="14.2994533"><ele>26.166666666666664</ele><time>2026-05-01T08:38:49.274Z</time></trkpt><trkpt lat="42.3718733" lon="14.2994533"><ele>26.0</ele><time>2026-05-01T08:38:50.274Z</time></trkpt><trkpt lat="42.3719883" lon="14.2994883"><ele>25.999999999999996</ele><time>2026-05-01T08:38:52.274Z</time></trkpt><trkpt lat="42.3720633" lon="14.2995617"><ele>26.0</ele><time>2026-05-01T08:38:54.274Z</time></trkpt><trkpt lat="42.3721367" lon="14.29966"><ele>26.0</ele><time>2026-05-01T08:38:56.274Z</time></trkpt><trkpt lat="42.3721767" lon="14.2997283"><ele>26.0</ele><time>2026-05-01T08:38:57.274Z</time></trkpt><trkpt lat="42.3722133" lon="14.2998083"><ele>25.999999999999996</ele><time>2026-05-01T08:38:58.274Z</time></trkpt><trkpt lat="42.372255" lon="14.2998967"><ele>26.0</ele><time>2026-05-01T08:38:59.274Z</time></trkpt><trkpt lat="42.372295" lon="14.29998"><ele>25.833333333333332</ele><time>2026-05-01T08:39:00.274Z</time></trkpt><trkpt lat="42.3723383" lon="14.3000583"><ele>25.666666666666664</ele><time>2026-05-01T08:39:01.274Z</time></trkpt><trkpt lat="42.3723783" lon="14.3001433"><ele>25.5</ele><time>2026-05-01T08:39:02.274Z</time></trkpt><trkpt lat="42.37242" lon="14.3002383"><ele>25.333333333333336</ele><time>2026-05-01T08:39:03.274Z</time></trkpt><trkpt lat="42.3724633" lon="14.3003417"><ele>25.166666666666668</ele><time>2026-05-01T08:39:04.274Z</time></trkpt><trkpt lat="42.3725117" lon="14.30045"><ele>25.0</ele><time>2026-05-01T08:39:05.274Z</time></trkpt><trkpt lat="42.372565" lon="14.3005583"><ele>24.666666666666668</ele><time>2026-05-01T08:39:06.274Z</time></trkpt><trkpt lat="42.3726167" lon="14.300665"><ele>24.333333333333336</ele><time>2026-05-01T08:39:07.274Z</time></trkpt><trkpt lat="42.3726683" lon="14.300755"><ele>24.0</ele><time>2026-05-01T08:39:08.274Z</time></trkpt><trkpt lat="42.3727267" lon="14.3008333"><ele>23.666666666666668</ele><time>2026-05-01T08:39:09.274Z</time></trkpt><trkpt lat="42.3727933" lon="14.3009017"><ele>23.333333333333336</ele><time>2026-05-01T08:39:10.274Z</time></trkpt><trkpt lat="42.3728667" lon="14.30096"><ele>23.0</ele><time>2026-05-01T08:39:11.274Z</time></trkpt><trkpt lat="42.3729758" lon="14.3010137"><ele>23.0</ele><time>2026-05-01T08:39:13.274Z</time></trkpt><trkpt lat="42.373114" lon="14.3010432"><ele>23.0</ele><time>2026-05-01T08:39:15.274Z</time></trkpt><trkpt lat="42.373195" lon="14.3010516"><ele>23.0</ele><time>2026-05-01T08:39:16.274Z</time></trkpt><trkpt lat="42.373275" lon="14.3010501"><ele>23.0</ele><time>2026-05-01T08:39:17.274Z</time></trkpt><trkpt lat="42.3733592" lon="14.3010337"><ele>23.0</ele><time>2026-05-01T08:39:18.275Z</time></trkpt><trkpt lat="42.3734427" lon="14.3009959"><ele>23.0</ele><time>2026-05-01T08:39:19.274Z</time></trkpt><trkpt lat="42.373526" lon="14.3009532"><ele>23.0</ele><time>2026-05-01T08:39:20.274Z</time></trkpt><trkpt lat="42.3736161" lon="14.3009017"><ele>23.0</ele><time>2026-05-01T08:39:21.274Z</time></trkpt><trkpt lat="42.3737057" lon="14.3008549"><ele>23.0</ele><time>2026-05-01T08:39:22.274Z</time></trkpt><trkpt lat="42.3737982" lon="14.300803"><ele>23.0</ele><time>2026-05-01T08:39:23.274Z</time></trkpt><trkpt lat="42.3738952" lon="14.3007507"><ele>23.0</ele><time>2026-05-01T08:39:24.274Z</time></trkpt><trkpt lat="42.3739902" lon="14.3006952"><ele>23.0</ele><time>2026-05-01T08:39:25.274Z</time></trkpt><trkpt lat="42.3740921" lon="14.3006516"><ele>23.0</ele><time>2026-05-01T08:39:26.274Z</time></trkpt><trkpt lat="42.3741918" lon="14.3006044"><ele>23.0</ele><time>2026-05-01T08:39:27.274Z</time></trkpt><trkpt lat="42.3742897" lon="14.3005572"><ele>23.0</ele><time>2026-05-01T08:39:28.274Z</time></trkpt><trkpt lat="42.3743862" lon="14.3005153"><ele>23.0</ele><time>2026-05-01T08:39:29.275Z</time></trkpt><trkpt lat="42.3744776" lon="14.3004822"><ele>23.0</ele><time>2026-05-01T08:39:30.274Z</time></trkpt><trkpt lat="42.3745639" lon="14.3004658"><ele>23.0</ele><time>2026-05-01T08:39:31.274Z</time></trkpt><trkpt lat="42.3746454" lon="14.300481"><ele>23.0</ele><time>2026-05-01T08:39:32.274Z</time></trkpt><trkpt lat="42.3747272" lon="14.3005225"><ele>23.0</ele><time>2026-05-01T08:39:33.274Z</time></trkpt><trkpt lat="42.3748125" lon="14.3005969"><ele>23.0</ele><time>2026-05-01T08:39:34.275Z</time></trkpt><trkpt lat="42.3748822" lon="14.3006996"><ele>23.0</ele><time>2026-05-01T08:39:35.274Z</time></trkpt><trkpt lat="42.3749353" lon="14.3008039"><ele>23.0</ele><time>2026-05-01T08:39:36.274Z</time></trkpt><trkpt lat="42.374971" lon="14.3009183"><ele>23.0</ele><time>2026-05-01T08:39:37.274Z</time></trkpt><trkpt lat="42.3749882" lon="14.3010376"><ele>23.0</ele><time>2026-05-01T08:39:38.274Z</time></trkpt><trkpt lat="42.3749904" lon="14.3011686"><ele>23.0</ele><time>2026-05-01T08:39:39.275Z</time></trkpt><trkpt lat="42.3749813" lon="14.3013174"><ele>23.0</ele><time>2026-05-01T08:39:40.274Z</time></trkpt><trkpt lat="42.3749688" lon="14.3014627"><ele>23.0</ele><time>2026-05-01T08:39:41.274Z</time></trkpt><trkpt lat="42.3749577" lon="14.3015938"><ele>23.0</ele><time>2026-05-01T08:39:42.275Z</time></trkpt><trkpt lat="42.3749568" lon="14.3017206"><ele>23.0</ele><time>2026-05-01T08:39:43.275Z</time></trkpt><trkpt lat="42.3749483" lon="14.3018533"><ele>23.166666666666668</ele><time>2026-05-01T08:39:44.274Z</time></trkpt><trkpt lat="42.37495" lon="14.3019917"><ele>23.333333333333336</ele><time>2026-05-01T08:39:45.274Z</time></trkpt><trkpt lat="42.3749617" lon="14.3021233"><ele>23.5</ele><time>2026-05-01T08:39:46.274Z</time></trkpt><trkpt lat="42.37498" lon="14.30224"><ele>23.666666666666668</ele><time>2026-05-01T08:39:47.274Z</time></trkpt><trkpt lat="42.3750083" lon="14.30234"><ele>23.833333333333332</ele><time>2026-05-01T08:39:48.274Z</time></trkpt><trkpt lat="42.375045" lon="14.302425"><ele>24.0</ele><time>2026-05-01T08:39:49.274Z</time></trkpt><trkpt lat="42.3750833" lon="14.3025167"><ele>24.0</ele><time>2026-05-01T08:39:50.274Z</time></trkpt><trkpt lat="42.3751333" lon="14.3025983"><ele>24.0</ele><time>2026-05-01T08:39:51.275Z</time></trkpt><trkpt lat="42.3751967" lon="14.30269"><ele>24.0</ele><time>2026-05-01T08:39:52.274Z</time></trkpt><trkpt lat="42.3752717" lon="14.3027817"><ele>24.0</ele><time>2026-05-01T08:39:53.274Z</time></trkpt><trkpt lat="42.3753483" lon="14.3028533"><ele>24.0</ele><time>2026-05-01T08:39:54.274Z</time></trkpt><trkpt lat="42.3754333" lon="14.30292"><ele>23.6</ele><time>2026-05-01T08:39:55.275Z</time></trkpt><trkpt lat="42.3755417" lon="14.302985"><ele>23.2</ele><time>2026-05-01T08:39:56.274Z</time></trkpt><trkpt lat="42.375635" lon="14.30305"><ele>22.8</ele><time>2026-05-01T08:39:57.274Z</time></trkpt><trkpt lat="42.375725" lon="14.303105"><ele>22.400000000000002</ele><time>2026-05-01T08:39:58.275Z</time></trkpt><trkpt lat="42.3757983" lon="14.3031583"><ele>22.0</ele><time>2026-05-01T08:39:59.274Z</time></trkpt><trkpt lat="42.3758867" lon="14.30321"><ele>22.0</ele><time>2026-05-01T08:40:00.274Z</time></trkpt><trkpt lat="42.3759683" lon="14.3032733"><ele>22.0</ele><time>2026-05-01T08:40:01.274Z</time></trkpt><trkpt lat="42.3760317" lon="14.3033367"><ele>22.0</ele><time>2026-05-01T08:40:02.275Z</time></trkpt><trkpt lat="42.3760867" lon="14.3033833"><ele>22.0</ele><time>2026-05-01T08:40:03.274Z</time></trkpt><trkpt lat="42.376195" lon="14.3034083"><ele>22.0</ele><time>2026-05-01T08:40:05.274Z</time></trkpt><trkpt lat="42.376265" lon="14.303325"><ele>22.0</ele><time>2026-05-01T08:40:07.274Z</time></trkpt><trkpt lat="42.3762867" lon="14.3032417"><ele>22.0</ele><time>2026-05-01T08:40:08.275Z</time></trkpt><trkpt lat="42.3763083" lon="14.3031433"><ele>22.0</ele><time>2026-05-01T08:40:09.274Z</time></trkpt><trkpt lat="42.3763167" lon="14.303035"><ele>22.0</ele><time>2026-05-01T08:40:10.274Z</time></trkpt><trkpt lat="42.3763267" lon="14.3029283"><ele>22.0</ele><time>2026-05-01T08:40:11.274Z</time></trkpt><trkpt lat="42.3763367" lon="14.3028267"><ele>22.0</ele><time>2026-05-01T08:40:12.274Z</time></trkpt><trkpt lat="42.3763283" lon="14.3027"><ele>22.0</ele><time>2026-05-01T08:40:14.274Z</time></trkpt><trkpt lat="42.3762417" lon="14.302635"><ele>21.833333333333332</ele><time>2026-05-01T08:40:16.274Z</time></trkpt><trkpt lat="42.3761733" lon="14.3026183"><ele>21.666666666666664</ele><time>2026-05-01T08:40:17.274Z</time></trkpt><trkpt lat="42.376095" lon="14.3026167"><ele>21.5</ele><time>2026-05-01T08:40:18.274Z</time></trkpt><trkpt lat="42.37602" lon="14.302625"><ele>21.333333333333332</ele><time>2026-05-01T08:40:19.274Z</time></trkpt><trkpt lat="42.3759183" lon="14.3026317"><ele>21.166666666666668</ele><time>2026-05-01T08:40:21.274Z</time></trkpt><trkpt lat="42.3758467" lon="14.30259"><ele>21.0</ele><time>2026-05-01T08:40:23.274Z</time></trkpt><trkpt lat="42.37584" lon="14.30249"><ele>21.0</ele><time>2026-05-01T08:40:25.274Z</time></trkpt><trkpt lat="42.3758833" lon="14.3023367"><ele>21.0</ele><time>2026-05-01T08:40:27.274Z</time></trkpt><trkpt lat="42.375905" lon="14.302245"><ele>21.0</ele><time>2026-05-01T08:40:28.275Z</time></trkpt><trkpt lat="42.3759183" lon="14.30214"><ele>21.0</ele><time>2026-05-01T08:40:29.274Z</time></trkpt><trkpt lat="42.375935" lon="14.30202"><ele>21.0</ele><time>2026-05-01T08:40:30.274Z</time></trkpt><trkpt lat="42.3759633" lon="14.3018883"><ele>21.8</ele><time>2026-05-01T08:40:31.274Z</time></trkpt><trkpt lat="42.3759967" lon="14.3017617"><ele>22.6</ele><time>2026-05-01T08:40:32.274Z</time></trkpt><trkpt lat="42.3760217" lon="14.3016567"><ele>23.4</ele><time>2026-05-01T08:40:33.274Z</time></trkpt><trkpt lat="42.3760517" lon="14.3015467"><ele>24.2</ele><time>2026-05-01T08:40:34.274Z</time></trkpt><trkpt lat="42.3761067" lon="14.3014317"><ele>25.0</ele><time>2026-05-01T08:40:35.274Z</time></trkpt><trkpt lat="42.3761617" lon="14.30131"><ele>25.8</ele><time>2026-05-01T08:40:36.274Z</time></trkpt><trkpt lat="42.3761967" lon="14.301185"><ele>26.6</ele><time>2026-05-01T08:40:37.274Z</time></trkpt><trkpt lat="42.3762383" lon="14.3010583"><ele>27.4</ele><time>2026-05-01T08:40:38.274Z</time></trkpt><trkpt lat="42.376295" lon="14.3009267"><ele>28.2</ele><time>2026-05-01T08:40:39.274Z</time></trkpt><trkpt lat="42.37634" lon="14.3008067"><ele>29.0</ele><time>2026-05-01T08:40:40.274Z</time></trkpt><trkpt lat="42.37638" lon="14.300695"><ele>29.333333333333332</ele><time>2026-05-01T08:40:41.275Z</time></trkpt><trkpt lat="42.3764233" lon="14.3006033"><ele>29.666666666666664</ele><time>2026-05-01T08:40:42.274Z</time></trkpt><trkpt lat="42.3764483" lon="14.3005133"><ele>30.0</ele><time>2026-05-01T08:40:43.274Z</time></trkpt><trkpt lat="42.3765083" lon="14.3004033"><ele>30.333333333333336</ele><time>2026-05-01T08:40:45.274Z</time></trkpt><trkpt lat="42.3765683" lon="14.300335"><ele>30.666666666666668</ele><time>2026-05-01T08:40:49.274Z</time></trkpt><trkpt lat="42.376645" lon="14.3004017"><ele>31.0</ele><time>2026-05-01T08:40:51.274Z</time></trkpt><trkpt lat="42.3767017" lon="14.3004733"><ele>31.0</ele><time>2026-05-01T08:40:52.274Z</time></trkpt><trkpt lat="42.37676" lon="14.30055"><ele>31.0</ele><time>2026-05-01T08:40:53.275Z</time></trkpt><trkpt lat="42.376835" lon="14.3006383"><ele>31.0</ele><time>2026-05-01T08:40:54.274Z</time></trkpt><trkpt lat="42.3769133" lon="14.30073"><ele>31.0</ele><time>2026-05-01T08:40:55.274Z</time></trkpt><trkpt lat="42.3770033" lon="14.3008233"><ele>31.0</ele><time>2026-05-01T08:40:56.275Z</time></trkpt><trkpt lat="42.3771" lon="14.30091"><ele>30.75</ele><time>2026-05-01T08:40:57.274Z</time></trkpt><trkpt lat="42.377205" lon="14.30097"><ele>30.5</ele><time>2026-05-01T08:40:58.274Z</time></trkpt><trkpt lat="42.3773183" lon="14.3010267"><ele>30.25</ele><time>2026-05-01T08:40:59.274Z</time></trkpt><trkpt lat="42.377435" lon="14.30108"><ele>30.0</ele><time>2026-05-01T08:41:00.274Z</time></trkpt><trkpt lat="42.3775617" lon="14.30113"><ele>30.0</ele><time>2026-05-01T08:41:01.274Z</time></trkpt><trkpt lat="42.3776767" lon="14.30117"><ele>30.0</ele><time>2026-05-01T08:41:02.274Z</time></trkpt><trkpt lat="42.377805" lon="14.3012117"><ele>30.0</ele><time>2026-05-01T08:41:03.274Z</time></trkpt><trkpt lat="42.3779317" lon="14.3012583"><ele>30.0</ele><time>2026-05-01T08:41:04.274Z</time></trkpt><trkpt lat="42.3780617" lon="14.30129"><ele>30.0</ele><time>2026-05-01T08:41:05.274Z</time></trkpt><trkpt lat="42.37819" lon="14.3013283"><ele>30.0</ele><time>2026-05-01T08:41:06.274Z</time></trkpt><trkpt lat="42.3783133" lon="14.3013617"><ele>30.0</ele><time>2026-05-01T08:41:07.274Z</time></trkpt><trkpt lat="42.3784233" lon="14.3013983"><ele>30.0</ele><time>2026-05-01T08:41:08.274Z</time></trkpt><trkpt lat="42.3785317" lon="14.3014333"><ele>29.4</ele><time>2026-05-01T08:41:09.274Z</time></trkpt><trkpt lat="42.378635" lon="14.30146"><ele>28.8</ele><time>2026-05-01T08:41:10.274Z</time></trkpt><trkpt lat="42.3787333" lon="14.301485"><ele>28.200000000000003</ele><time>2026-05-01T08:41:11.274Z</time></trkpt><trkpt lat="42.3788417" lon="14.301525"><ele>27.6</ele><time>2026-05-01T08:41:12.274Z</time></trkpt><trkpt lat="42.3789517" lon="14.301565"><ele>27.0</ele><time>2026-05-01T08:41:13.274Z</time></trkpt><trkpt lat="42.3790683" lon="14.301605"><ele>26.75</ele><time>2026-05-01T08:41:14.274Z</time></trkpt><trkpt lat="42.379185" lon="14.30164"><ele>26.5</ele><time>2026-05-01T08:41:15.274Z</time></trkpt><trkpt lat="42.3792983" lon="14.3016667"><ele>26.25</ele><time>2026-05-01T08:41:16.274Z</time></trkpt><trkpt lat="42.3794083" lon="14.3017"><ele>26.0</ele><time>2026-05-01T08:41:17.274Z</time></trkpt><trkpt lat="42.3795283" lon="14.3017383"><ele>26.0</ele><time>2026-05-01T08:41:18.275Z</time></trkpt><trkpt lat="42.37966" lon="14.3017783"><ele>26.0</ele><time>2026-05-01T08:41:19.275Z</time></trkpt><trkpt lat="42.3797983" lon="14.301825"><ele>26.0</ele><time>2026-05-01T08:41:20.274Z</time></trkpt><trkpt lat="42.3799417" lon="14.3018633"><ele>26.0</ele><time>2026-05-01T08:41:21.274Z</time></trkpt><trkpt lat="42.3800833" lon="14.3019033"><ele>26.0</ele><time>2026-05-01T08:41:22.274Z</time></trkpt><trkpt lat="42.3802267" lon="14.3019483"><ele>26.0</ele><time>2026-05-01T08:41:23.274Z</time></trkpt><trkpt lat="42.3803683" lon="14.3019883"><ele>26.0</ele><time>2026-05-01T08:41:24.274Z</time></trkpt><trkpt lat="42.38052" lon="14.3020267"><ele>26.0</ele><time>2026-05-01T08:41:25.274Z</time></trkpt><trkpt lat="42.3806717" lon="14.3020717"><ele>25.666666666666664</ele><time>2026-05-01T08:41:26.274Z</time></trkpt><trkpt lat="42.3808317" lon="14.3021183"><ele>25.333333333333336</ele><time>2026-05-01T08:41:27.274Z</time></trkpt><trkpt lat="42.3809883" lon="14.3021717"><ele>25.0</ele><time>2026-05-01T08:41:28.274Z</time></trkpt><trkpt lat="42.3811483" lon="14.30223"><ele>24.666666666666668</ele><time>2026-05-01T08:41:29.274Z</time></trkpt><trkpt lat="42.38131" lon="14.3022867"><ele>24.333333333333336</ele><time>2026-05-01T08:41:30.274Z</time></trkpt><trkpt lat="42.3814667" lon="14.3023417"><ele>24.0</ele><time>2026-05-01T08:41:31.274Z</time></trkpt><trkpt lat="42.3816033" lon="14.3024017"><ele>23.5</ele><time>2026-05-01T08:41:32.274Z</time></trkpt><trkpt lat="42.3817383" lon="14.3024633"><ele>23.0</ele><time>2026-05-01T08:41:33.274Z</time></trkpt><trkpt lat="42.38186" lon="14.302525"><ele>22.5</ele><time>2026-05-01T08:41:34.274Z</time></trkpt><trkpt lat="42.3819683" lon="14.302585"><ele>22.0</ele><time>2026-05-01T08:41:35.275Z</time></trkpt><trkpt lat="42.3820717" lon="14.3026483"><ele>22.0</ele><time>2026-05-01T08:41:36.274Z</time></trkpt><trkpt lat="42.38217" lon="14.3027067"><ele>22.0</ele><time>2026-05-01T08:41:37.274Z</time></trkpt><trkpt lat="42.382265" lon="14.3027683"><ele>22.0</ele><time>2026-05-01T08:41:38.274Z</time></trkpt><trkpt lat="42.3823433" lon="14.302835"><ele>22.0</ele><time>2026-05-01T08:41:39.274Z</time></trkpt><trkpt lat="42.3824183" lon="14.3028983"><ele>22.0</ele><time>2026-05-01T08:41:40.274Z</time></trkpt><trkpt lat="42.3824867" lon="14.30296"><ele>22.0</ele><time>2026-05-01T08:41:41.274Z</time></trkpt><trkpt lat="42.382535" lon="14.3030433"><ele>22.0</ele><time>2026-05-01T08:41:42.274Z</time></trkpt><trkpt lat="42.3825617" lon="14.3031517"><ele>22.0</ele><time>2026-05-01T08:41:43.274Z</time></trkpt><trkpt lat="42.3825717" lon="14.3032583"><ele>22.0</ele><time>2026-05-01T08:41:44.274Z</time></trkpt><trkpt lat="42.38255" lon="14.3033867"><ele>22.0</ele><time>2026-05-01T08:41:45.274Z</time></trkpt><trkpt lat="42.38253" lon="14.303525"><ele>22.0</ele><time>2026-05-01T08:41:46.274Z</time></trkpt><trkpt lat="42.3825" lon="14.30368"><ele>22.0</ele><time>2026-05-01T08:41:47.274Z</time></trkpt><trkpt lat="42.3824717" lon="14.30386"><ele>22.0</ele><time>2026-05-01T08:41:48.274Z</time></trkpt><trkpt lat="42.38244" lon="14.3040617"><ele>22.0</ele><time>2026-05-01T08:41:49.274Z</time></trkpt><trkpt lat="42.3823983" lon="14.30431"><ele>21.666666666666664</ele><time>2026-05-01T08:41:50.274Z</time></trkpt><trkpt lat="42.3823633" lon="14.304565"><ele>21.333333333333332</ele><time>2026-05-01T08:41:51.274Z</time></trkpt><trkpt lat="42.3823417" lon="14.3048067"><ele>21.0</ele><time>2026-05-01T08:41:52.274Z</time></trkpt><trkpt lat="42.3823167" lon="14.30502"><ele>20.5</ele><time>2026-05-01T08:41:53.274Z</time></trkpt><trkpt lat="42.3822967" lon="14.30522"><ele>20.0</ele><time>2026-05-01T08:41:54.274Z</time></trkpt><trkpt lat="42.3822683" lon="14.305405"><ele>19.5</ele><time>2026-05-01T08:41:55.274Z</time></trkpt><trkpt lat="42.3822383" lon="14.3055833"><ele>19.0</ele><time>2026-05-01T08:41:56.274Z</time></trkpt><trkpt lat="42.3822067" lon="14.3057483"><ele>19.0</ele><time>2026-05-01T08:41:57.274Z</time></trkpt><trkpt lat="42.3821867" lon="14.305905"><ele>19.0</ele><time>2026-05-01T08:41:58.274Z</time></trkpt><trkpt lat="42.38217" lon="14.306045"><ele>19.0</ele><time>2026-05-01T08:41:59.274Z</time></trkpt><trkpt lat="42.3821467" lon="14.306155"><ele>19.0</ele><time>2026-05-01T08:42:00.274Z</time></trkpt><trkpt lat="42.3821167" lon="14.30624"><ele>19.0</ele><time>2026-05-01T08:42:01.274Z</time></trkpt><trkpt lat="42.3820683" lon="14.30635"><ele>18.8</ele><time>2026-05-01T08:42:03.274Z</time></trkpt><trkpt lat="42.382085" lon="14.3064583"><ele>18.599999999999998</ele><time>2026-05-01T08:42:05.275Z</time></trkpt><trkpt lat="42.3821233" lon="14.3065267"><ele>18.4</ele><time>2026-05-01T08:42:06.274Z</time></trkpt><trkpt lat="42.3821917" lon="14.30662"><ele>18.2</ele><time>2026-05-01T08:42:07.274Z</time></trkpt><trkpt lat="42.3822667" lon="14.3067417"><ele>18.0</ele><time>2026-05-01T08:42:08.274Z</time></trkpt><trkpt lat="42.38235" lon="14.30689"><ele>17.666666666666668</ele><time>2026-05-01T08:42:09.274Z</time></trkpt><trkpt lat="42.3824317" lon="14.3070567"><ele>17.333333333333336</ele><time>2026-05-01T08:42:10.275Z</time></trkpt><trkpt lat="42.38251" lon="14.30723"><ele>17.0</ele><time>2026-05-01T08:42:11.274Z</time></trkpt><trkpt lat="42.3825933" lon="14.3074233"><ele>16.666666666666668</ele><time>2026-05-01T08:42:12.274Z</time></trkpt><trkpt lat="42.3826883" lon="14.30763"><ele>16.333333333333332</ele><time>2026-05-01T08:42:13.274Z</time></trkpt><trkpt lat="42.3827967" lon="14.30785"><ele>16.0</ele><time>2026-05-01T08:42:14.275Z</time></trkpt><trkpt lat="42.3828933" lon="14.3080633"><ele>16.0</ele><time>2026-05-01T08:42:15.274Z</time></trkpt><trkpt lat="42.3829883" lon="14.30826"><ele>16.0</ele><time>2026-05-01T08:42:16.274Z</time></trkpt><trkpt lat="42.383075" lon="14.3084583"><ele>16.0</ele><time>2026-05-01T08:42:17.275Z</time></trkpt><trkpt lat="42.3831633" lon="14.30865"><ele>16.0</ele><time>2026-05-01T08:42:18.275Z</time></trkpt><trkpt lat="42.3832483" lon="14.3088383"><ele>16.0</ele><time>2026-05-01T08:42:19.274Z</time></trkpt><trkpt lat="42.38334" lon="14.3090183"><ele>16.0</ele><time>2026-05-01T08:42:20.274Z</time></trkpt><trkpt lat="42.3834233" lon="14.3092067"><ele>15.333333333333332</ele><time>2026-05-01T08:42:21.274Z</time></trkpt><trkpt lat="42.3834983" lon="14.3093933"><ele>14.666666666666668</ele><time>2026-05-01T08:42:22.274Z</time></trkpt><trkpt lat="42.3835733" lon="14.309575"><ele>14.0</ele><time>2026-05-01T08:42:23.274Z</time></trkpt><trkpt lat="42.3836517" lon="14.30976"><ele>14.0</ele><time>2026-05-01T08:42:24.275Z</time></trkpt><trkpt lat="42.3837317" lon="14.3099467"><ele>14.0</ele><time>2026-05-01T08:42:25.274Z</time></trkpt><trkpt lat="42.3838167" lon="14.3101317"><ele>14.0</ele><time>2026-05-01T08:42:26.274Z</time></trkpt><trkpt lat="42.3839" lon="14.3103067"><ele>14.25</ele><time>2026-05-01T08:42:27.274Z</time></trkpt><trkpt lat="42.3839867" lon="14.3104567"><ele>14.5</ele><time>2026-05-01T08:42:28.274Z</time></trkpt><trkpt lat="42.38408" lon="14.3105833"><ele>14.75</ele><time>2026-05-01T08:42:29.274Z</time></trkpt><trkpt lat="42.384175" lon="14.3106883"><ele>15.0</ele><time>2026-05-01T08:42:30.274Z</time></trkpt><trkpt lat="42.3842833" lon="14.3107767"><ele>15.0</ele><time>2026-05-01T08:42:31.274Z</time></trkpt><trkpt lat="42.3843867" lon="14.3108417"><ele>15.0</ele><time>2026-05-01T08:42:32.274Z</time></trkpt><trkpt lat="42.3844967" lon="14.3109"><ele>15.0</ele><time>2026-05-01T08:42:33.274Z</time></trkpt><trkpt lat="42.38461" lon="14.3109533"><ele>15.0</ele><time>2026-05-01T08:42:34.274Z</time></trkpt><trkpt lat="42.3847217" lon="14.311015"><ele>14.75</ele><time>2026-05-01T08:42:35.274Z</time></trkpt><trkpt lat="42.3848383" lon="14.3110783"><ele>14.5</ele><time>2026-05-01T08:42:36.274Z</time></trkpt><trkpt lat="42.3849617" lon="14.3111383"><ele>14.25</ele><time>2026-05-01T08:42:37.275Z</time></trkpt><trkpt lat="42.3850783" lon="14.3111983"><ele>14.0</ele><time>2026-05-01T08:42:38.274Z</time></trkpt><trkpt lat="42.3852" lon="14.3112583"><ele>14.0</ele><time>2026-05-01T08:42:39.274Z</time></trkpt><trkpt lat="42.3853217" lon="14.31132"><ele>14.0</ele><time>2026-05-01T08:42:40.274Z</time></trkpt><trkpt lat="42.3854433" lon="14.3113833"><ele>14.0</ele><time>2026-05-01T08:42:41.274Z</time></trkpt><trkpt lat="42.3855567" lon="14.3114483"><ele>14.0</ele><time>2026-05-01T08:42:42.274Z</time></trkpt><trkpt lat="42.3856667" lon="14.3115067"><ele>14.0</ele><time>2026-05-01T08:42:43.275Z</time></trkpt><trkpt lat="42.3857733" lon="14.3115567"><ele>13.999999999999998</ele><time>2026-05-01T08:42:44.274Z</time></trkpt><trkpt lat="42.3858733" lon="14.3116133"><ele>13.999999999999998</ele><time>2026-05-01T08:42:45.275Z</time></trkpt><trkpt lat="42.3859633" lon="14.3116617"><ele>14.0</ele><time>2026-05-01T08:42:46.274Z</time></trkpt><trkpt lat="42.386055" lon="14.3117067"><ele>14.0</ele><time>2026-05-01T08:42:47.274Z</time></trkpt><trkpt lat="42.3861433" lon="14.3117483"><ele>14.000000000000002</ele><time>2026-05-01T08:42:48.274Z</time></trkpt><trkpt lat="42.38622" lon="14.31179"><ele>14.0</ele><time>2026-05-01T08:42:49.274Z</time></trkpt><trkpt lat="42.3862867" lon="14.3118233"><ele>14.0</ele><time>2026-05-01T08:42:50.274Z</time></trkpt><trkpt lat="42.3863483" lon="14.3118633"><ele>14.0</ele><time>2026-05-01T08:42:51.274Z</time></trkpt><trkpt lat="42.3864483" lon="14.311915"><ele>14.000000000000002</ele><time>2026-05-01T08:42:53.274Z</time></trkpt><trkpt lat="42.3864883" lon="14.31199"><ele>14.0</ele><time>2026-05-01T08:42:55.274Z</time></trkpt><trkpt lat="42.3864633" lon="14.31212"><ele>14.0</ele><time>2026-05-01T08:42:57.274Z</time></trkpt><trkpt lat="42.3864333" lon="14.3122183"><ele>14.0</ele><time>2026-05-01T08:42:58.274Z</time></trkpt><trkpt lat="42.3864083" lon="14.3123133"><ele>14.0</ele><time>2026-05-01T08:42:59.274Z</time></trkpt><trkpt lat="42.38639" lon="14.312405"><ele>14.0</ele><time>2026-05-01T08:43:00.274Z</time></trkpt><trkpt lat="42.3863767" lon="14.31249"><ele>14.0</ele><time>2026-05-01T08:43:01.274Z</time></trkpt><trkpt lat="42.3863567" lon="14.3125767"><ele>14.0</ele><time>2026-05-01T08:43:02.274Z</time></trkpt><trkpt lat="42.38633" lon="14.3126717"><ele>14.0</ele><time>2026-05-01T08:43:03.274Z</time></trkpt><trkpt lat="42.3863033" lon="14.3127733"><ele>13.833333333333334</ele><time>2026-05-01T08:43:04.274Z</time></trkpt><trkpt lat="42.386275" lon="14.3128783"><ele>13.666666666666668</ele><time>2026-05-01T08:43:05.274Z</time></trkpt><trkpt lat="42.3862517" lon="14.3129867"><ele>13.5</ele><time>2026-05-01T08:43:06.274Z</time></trkpt><trkpt lat="42.3862267" lon="14.3130867"><ele>13.333333333333332</ele><time>2026-05-01T08:43:07.274Z</time></trkpt><trkpt lat="42.3862083" lon="14.313185"><ele>13.166666666666666</ele><time>2026-05-01T08:43:08.274Z</time></trkpt><trkpt lat="42.3861867" lon="14.3132717"><ele>13.0</ele><time>2026-05-01T08:43:09.274Z</time></trkpt><trkpt lat="42.3861633" lon="14.31336"><ele>12.999999999999998</ele><time>2026-05-01T08:43:10.274Z</time></trkpt><trkpt lat="42.38614" lon="14.3134417"><ele>13.0</ele><time>2026-05-01T08:43:11.274Z</time></trkpt><trkpt lat="42.3861017" lon="14.3136"><ele>13.0</ele><time>2026-05-01T08:43:13.274Z</time></trkpt><trkpt lat="42.3860817" lon="14.3136817"><ele>13.0</ele><time>2026-05-01T08:43:14.274Z</time></trkpt><trkpt lat="42.3860617" lon="14.3137717"><ele>12.999999999999998</ele><time>2026-05-01T08:43:15.274Z</time></trkpt><trkpt lat="42.3860383" lon="14.31386"><ele>13.0</ele><time>2026-05-01T08:43:16.274Z</time></trkpt><trkpt lat="42.3860167" lon="14.313955"><ele>13.0</ele><time>2026-05-01T08:43:17.274Z</time></trkpt><trkpt lat="42.3859933" lon="14.31405"><ele>13.0</ele><time>2026-05-01T08:43:18.274Z</time></trkpt><trkpt lat="42.3859683" lon="14.31415"><ele>13.0</ele><time>2026-05-01T08:43:19.274Z</time></trkpt><trkpt lat="42.3859467" lon="14.3142517"><ele>13.0</ele><time>2026-05-01T08:43:20.274Z</time></trkpt><trkpt lat="42.3859233" lon="14.3143467"><ele>13.0</ele><time>2026-05-01T08:43:21.275Z</time></trkpt><trkpt lat="42.385905" lon="14.3144317"><ele>13.0</ele><time>2026-05-01T08:43:22.274Z</time></trkpt><trkpt lat="42.3858867" lon="14.314515"><ele>13.0</ele><time>2026-05-01T08:43:23.274Z</time></trkpt><trkpt lat="42.385865" lon="14.3146067"><ele>12.999999999999998</ele><time>2026-05-01T08:43:24.274Z</time></trkpt><trkpt lat="42.38584" lon="14.3146933"><ele>13.0</ele><time>2026-05-01T08:43:25.274Z</time></trkpt><trkpt lat="42.3858217" lon="14.31478"><ele>13.0</ele><time>2026-05-01T08:43:26.275Z</time></trkpt><trkpt lat="42.3858017" lon="14.314865"><ele>13.0</ele><time>2026-05-01T08:43:27.274Z</time></trkpt><trkpt lat="42.3857767" lon="14.3149767"><ele>12.999999999999998</ele><time>2026-05-01T08:43:28.275Z</time></trkpt><trkpt lat="42.385745" lon="14.315095"><ele>13.0</ele><time>2026-05-01T08:43:29.274Z</time></trkpt><trkpt lat="42.3857183" lon="14.315205"><ele>12.499999999999998</ele><time>2026-05-01T08:43:30.274Z</time></trkpt><trkpt lat="42.385695" lon="14.3153133"><ele>12.0</ele><time>2026-05-01T08:43:31.274Z</time></trkpt><trkpt lat="42.3856683" lon="14.3154217"><ele>11.5</ele><time>2026-05-01T08:43:32.274Z</time></trkpt><trkpt lat="42.3856467" lon="14.3155217"><ele>11.0</ele><time>2026-05-01T08:43:33.274Z</time></trkpt><trkpt lat="42.385625" lon="14.3156217"><ele>10.5</ele><time>2026-05-01T08:43:34.275Z</time></trkpt><trkpt lat="42.3856017" lon="14.3157067"><ele>10.0</ele><time>2026-05-01T08:43:35.274Z</time></trkpt><trkpt lat="42.385575" lon="14.31583"><ele>9.666666666666668</ele><time>2026-05-01T08:43:37.274Z</time></trkpt><trkpt lat="42.3855817" lon="14.3159317"><ele>9.333333333333334</ele><time>2026-05-01T08:43:40.275Z</time></trkpt><trkpt lat="42.3856383" lon="14.3160317"><ele>9.0</ele><time>2026-05-01T08:45:01.274Z</time></trkpt><trkpt lat="42.3856533" lon="14.316115"><ele>8.666666666666666</ele><time>2026-05-01T08:45:05.275Z</time></trkpt><trkpt lat="42.3857433" lon="14.3161683"><ele>8.333333333333332</ele><time>2026-05-01T08:45:07.274Z</time></trkpt><trkpt lat="42.3858533" lon="14.3162217"><ele>8.0</ele><time>2026-05-01T08:45:09.275Z</time></trkpt><trkpt lat="42.3859333" lon="14.3162717"><ele>8.0</ele><time>2026-05-01T08:45:11.275Z</time></trkpt><trkpt lat="42.3859817" lon="14.316335"><ele>8.0</ele><time>2026-05-01T08:45:13.274Z</time></trkpt><trkpt lat="42.3859633" lon="14.31646"><ele>8.0</ele><time>2026-05-01T08:45:16.275Z</time></trkpt><trkpt lat="42.3859317" lon="14.31658"><ele>8.0</ele><time>2026-05-01T08:45:18.275Z</time></trkpt><trkpt lat="42.385885" lon="14.316705"><ele>8.0</ele><time>2026-05-01T08:45:20.274Z</time></trkpt><trkpt lat="42.38584" lon="14.316835"><ele>7.800000000000001</ele><time>2026-05-01T08:45:22.274Z</time></trkpt><trkpt lat="42.3857817" lon="14.31698"><ele>7.6000000000000005</ele><time>2026-05-01T08:45:24.275Z</time></trkpt><trkpt lat="42.3857367" lon="14.3171167"><ele>7.3999999999999995</ele><time>2026-05-01T08:45:26.274Z</time></trkpt><trkpt lat="42.3856867" lon="14.3172333"><ele>7.199999999999999</ele><time>2026-05-01T08:45:28.274Z</time></trkpt><trkpt lat="42.385635" lon="14.31736"><ele>7.0</ele><time>2026-05-01T08:45:30.274Z</time></trkpt><trkpt lat="42.3855983" lon="14.31746"><ele>7.199999999999999</ele><time>2026-05-01T08:45:32.274Z</time></trkpt><trkpt lat="42.38556" lon="14.3175933"><ele>7.3999999999999995</ele><time>2026-05-01T08:45:34.274Z</time></trkpt><trkpt lat="42.385515" lon="14.317725"><ele>7.6000000000000005</ele><time>2026-05-01T08:45:36.274Z</time></trkpt><trkpt lat="42.3854667" lon="14.3178317"><ele>7.800000000000001</ele><time>2026-05-01T08:45:38.274Z</time></trkpt><trkpt lat="42.3854333" lon="14.3179383"><ele>8.0</ele><time>2026-05-01T08:45:40.274Z</time></trkpt><trkpt lat="42.38541" lon="14.31805"><ele>8.4</ele><time>2026-05-01T08:45:42.274Z</time></trkpt><trkpt lat="42.38538" lon="14.3181617"><ele>8.8</ele><time>2026-05-01T08:45:44.274Z</time></trkpt><trkpt lat="42.38537" lon="14.31829"><ele>9.2</ele><time>2026-05-01T08:45:47.274Z</time></trkpt><trkpt lat="42.3854383" lon="14.3183667"><ele>9.6</ele><time>2026-05-01T08:45:50.274Z</time></trkpt><trkpt lat="42.3855133" lon="14.318355"><ele>10.0</ele><time>2026-05-01T08:45:52.274Z</time></trkpt><trkpt lat="42.3856267" lon="14.3183067"><ele>10.166666666666668</ele><time>2026-05-01T08:45:54.274Z</time></trkpt><trkpt lat="42.385695" lon="14.3182783"><ele>10.333333333333334</ele><time>2026-05-01T08:45:55.274Z</time></trkpt><trkpt lat="42.3857583" lon="14.3182467"><ele>10.5</ele><time>2026-05-01T08:45:56.274Z</time></trkpt><trkpt lat="42.38589" lon="14.3181783"><ele>10.666666666666666</ele><time>2026-05-01T08:45:58.274Z</time></trkpt><trkpt lat="42.3859683" lon="14.3181483"><ele>10.833333333333332</ele><time>2026-05-01T08:45:59.274Z</time></trkpt><trkpt lat="42.3860467" lon="14.3181217"><ele>11.0</ele><time>2026-05-01T08:46:00.274Z</time></trkpt><trkpt lat="42.3861267" lon="14.3181067"><ele>11.0</ele><time>2026-05-01T08:46:01.274Z</time></trkpt><trkpt lat="42.3861983" lon="14.3180967"><ele>11.0</ele><time>2026-05-01T08:46:02.275Z</time></trkpt><trkpt lat="42.3862683" lon="14.31809"><ele>11.0</ele><time>2026-05-01T08:46:03.274Z</time></trkpt><trkpt lat="42.3863317" lon="14.3180867"><ele>11.0</ele><time>2026-05-01T08:46:04.274Z</time></trkpt><trkpt lat="42.3864" lon="14.3180767"><ele>11.0</ele><time>2026-05-01T08:46:05.274Z</time></trkpt><trkpt lat="42.3864767" lon="14.31805"><ele>11.0</ele><time>2026-05-01T08:46:06.274Z</time></trkpt><trkpt lat="42.3865617" lon="14.31801"><ele>11.0</ele><time>2026-05-01T08:46:07.274Z</time></trkpt><trkpt lat="42.3866417" lon="14.3179783"><ele>10.8</ele><time>2026-05-01T08:46:08.274Z</time></trkpt><trkpt lat="42.3867117" lon="14.3179617"><ele>10.600000000000001</ele><time>2026-05-01T08:46:09.274Z</time></trkpt><trkpt lat="42.3867817" lon="14.3179583"><ele>10.4</ele><time>2026-05-01T08:46:10.274Z</time></trkpt><trkpt lat="42.3868817" lon="14.3180133"><ele>10.2</ele><time>2026-05-01T08:46:12.274Z</time></trkpt><trkpt lat="42.3869067" lon="14.318125"><ele>10.0</ele><time>2026-05-01T08:46:14.274Z</time></trkpt><trkpt lat="42.386865" lon="14.3182933"><ele>10.0</ele><time>2026-05-01T08:46:16.274Z</time></trkpt><trkpt lat="42.386835" lon="14.3184"><ele>10.0</ele><time>2026-05-01T08:46:17.274Z</time></trkpt><trkpt lat="42.3868117" lon="14.3185133"><ele>10.0</ele><time>2026-05-01T08:46:18.274Z</time></trkpt><trkpt lat="42.3867933" lon="14.318625"><ele>10.0</ele><time>2026-05-01T08:46:19.274Z</time></trkpt><trkpt lat="42.3867667" lon="14.3187183"><ele>10.0</ele><time>2026-05-01T08:46:20.274Z</time></trkpt><trkpt lat="42.3867483" lon="14.3188"><ele>10.0</ele><time>2026-05-01T08:46:21.275Z</time></trkpt><trkpt lat="42.3867133" lon="14.318945"><ele>9.833333333333334</ele><time>2026-05-01T08:46:23.274Z</time></trkpt><trkpt lat="42.3866917" lon="14.3190767"><ele>9.666666666666668</ele><time>2026-05-01T08:46:25.274Z</time></trkpt><trkpt lat="42.386635" lon="14.3191517"><ele>9.5</ele><time>2026-05-01T08:46:27.274Z</time></trkpt><trkpt lat="42.3865683" lon="14.319145"><ele>9.333333333333334</ele><time>2026-05-01T08:46:29.274Z</time></trkpt><trkpt lat="42.3864583" lon="14.3190933"><ele>9.166666666666666</ele><time>2026-05-01T08:46:31.274Z</time></trkpt><trkpt lat="42.386395" lon="14.3190717"><ele>9.0</ele><time>2026-05-01T08:46:32.274Z</time></trkpt><trkpt lat="42.38633" lon="14.319045"><ele>9.0</ele><time>2026-05-01T08:46:33.274Z</time></trkpt><trkpt lat="42.3862583" lon="14.3190267"><ele>9.0</ele><time>2026-05-01T08:46:34.274Z</time></trkpt><trkpt lat="42.3861867" lon="14.319015"><ele>9.0</ele><time>2026-05-01T08:46:35.274Z</time></trkpt><trkpt lat="42.3861067" lon="14.31902"><ele>9.0</ele><time>2026-05-01T08:46:36.274Z</time></trkpt><trkpt lat="42.3860183" lon="14.3190267"><ele>9.0</ele><time>2026-05-01T08:46:37.275Z</time></trkpt><trkpt lat="42.38592" lon="14.3190467"><ele>9.0</ele><time>2026-05-01T08:46:38.274Z</time></trkpt><trkpt lat="42.3858383" lon="14.3190733"><ele>9.0</ele><time>2026-05-01T08:46:39.274Z</time></trkpt><trkpt lat="42.3857567" lon="14.31911"><ele>9.0</ele><time>2026-05-01T08:46:40.274Z</time></trkpt><trkpt lat="42.38567" lon="14.3191417"><ele>9.0</ele><time>2026-05-01T08:46:41.274Z</time></trkpt><trkpt lat="42.385575" lon="14.3191617"><ele>9.0</ele><time>2026-05-01T08:46:42.273Z</time></trkpt><trkpt lat="42.3854783" lon="14.319175"><ele>9.0</ele><time>2026-05-01T08:46:43.273Z</time></trkpt><trkpt lat="42.3853783" lon="14.3191767"><ele>9.2</ele><time>2026-05-01T08:46:44.273Z</time></trkpt><trkpt lat="42.3852867" lon="14.319175"><ele>9.4</ele><time>2026-05-01T08:46:45.273Z</time></trkpt><trkpt lat="42.3851917" lon="14.3191633"><ele>9.6</ele><time>2026-05-01T08:46:46.273Z</time></trkpt><trkpt lat="42.3851017" lon="14.3191433"><ele>9.8</ele><time>2026-05-01T08:46:47.273Z</time></trkpt><trkpt lat="42.38502" lon="14.3191233"><ele>10.0</ele><time>2026-05-01T08:46:48.273Z</time></trkpt><trkpt lat="42.38493" lon="14.3190933"><ele>10.0</ele><time>2026-05-01T08:46:49.273Z</time></trkpt><trkpt lat="42.3848333" lon="14.31905"><ele>10.0</ele><time>2026-05-01T08:46:50.273Z</time></trkpt><trkpt lat="42.3847367" lon="14.319"><ele>10.0</ele><time>2026-05-01T08:46:51.273Z</time></trkpt><trkpt lat="42.3846483" lon="14.31894"><ele>10.0</ele><time>2026-05-01T08:46:52.274Z</time></trkpt><trkpt lat="42.384565" lon="14.3188933"><ele>10.0</ele><time>2026-05-01T08:46:53.273Z</time></trkpt><trkpt lat="42.3844933" lon="14.3188433"><ele>10.0</ele><time>2026-05-01T08:46:54.273Z</time></trkpt><trkpt lat="42.3844233" lon="14.31878"><ele>10.0</ele><time>2026-05-01T08:46:55.273Z</time></trkpt><trkpt lat="42.3843617" lon="14.3186917"><ele>10.0</ele><time>2026-05-01T08:46:56.273Z</time></trkpt><trkpt lat="42.3843" lon="14.3185767"><ele>10.0</ele><time>2026-05-01T08:46:57.273Z</time></trkpt><trkpt lat="42.3842367" lon="14.3184367"><ele>10.0</ele><time>2026-05-01T08:46:58.273Z</time></trkpt><trkpt lat="42.3841667" lon="14.3182767"><ele>10.0</ele><time>2026-05-01T08:46:59.273Z</time></trkpt><trkpt lat="42.38411" lon="14.3181283"><ele>10.0</ele><time>2026-05-01T08:47:00.273Z</time></trkpt><trkpt lat="42.3840567" lon="14.3179917"><ele>10.0</ele><time>2026-05-01T08:47:01.274Z</time></trkpt><trkpt lat="42.384015" lon="14.31787"><ele>10.0</ele><time>2026-05-01T08:47:02.273Z</time></trkpt><trkpt lat="42.3839833" lon="14.3177583"><ele>10.0</ele><time>2026-05-01T08:47:03.273Z</time></trkpt><trkpt lat="42.3839583" lon="14.3176383"><ele>10.0</ele><time>2026-05-01T08:47:04.273Z</time></trkpt><trkpt lat="42.3839433" lon="14.3175"><ele>10.0</ele><time>2026-05-01T08:47:05.273Z</time></trkpt><trkpt lat="42.3839383" lon="14.3173367"><ele>10.0</ele><time>2026-05-01T08:47:06.273Z</time></trkpt><trkpt lat="42.38394" lon="14.3171667"><ele>10.0</ele><time>2026-05-01T08:47:07.273Z</time></trkpt><trkpt lat="42.3839433" lon="14.316985"><ele>10.0</ele><time>2026-05-01T08:47:08.273Z</time></trkpt><trkpt lat="42.38395" lon="14.3168"><ele>10.0</ele><time>2026-05-01T08:47:09.273Z</time></trkpt><trkpt lat="42.38395" lon="14.3166483"><ele>10.0</ele><time>2026-05-01T08:47:10.274Z</time></trkpt><trkpt lat="42.38395" lon="14.3165367"><ele>10.0</ele><time>2026-05-01T08:47:11.273Z</time></trkpt><trkpt lat="42.38394" lon="14.3164483"><ele>10.0</ele><time>2026-05-01T08:47:12.273Z</time></trkpt><trkpt lat="42.3839067" lon="14.3163067"><ele>10.0</ele><time>2026-05-01T08:47:14.273Z</time></trkpt><trkpt lat="42.383855" lon="14.3161417"><ele>10.0</ele><time>2026-05-01T08:47:16.273Z</time></trkpt><trkpt lat="42.3838267" lon="14.3160567"><ele>10.0</ele><time>2026-05-01T08:47:17.273Z</time></trkpt><trkpt lat="42.383795" lon="14.3159783"><ele>10.0</ele><time>2026-05-01T08:47:18.273Z</time></trkpt><trkpt lat="42.3837617" lon="14.3159033"><ele>10.0</ele><time>2026-05-01T08:47:19.274Z</time></trkpt><trkpt lat="42.3837167" lon="14.3158267"><ele>10.0</ele><time>2026-05-01T08:47:20.273Z</time></trkpt><trkpt lat="42.3836667" lon="14.31575"><ele>10.0</ele><time>2026-05-01T08:47:21.273Z</time></trkpt><trkpt lat="42.38361" lon="14.3156717"><ele>10.0</ele><time>2026-05-01T08:47:22.273Z</time></trkpt><trkpt lat="42.38355" lon="14.3155967"><ele>10.0</ele><time>2026-05-01T08:47:23.273Z</time></trkpt><trkpt lat="42.3834867" lon="14.31551"><ele>10.0</ele><time>2026-05-01T08:47:24.273Z</time></trkpt><trkpt lat="42.3834183" lon="14.3154233"><ele>10.0</ele><time>2026-05-01T08:47:25.273Z</time></trkpt><trkpt lat="42.3833467" lon="14.3153367"><ele>10.0</ele><time>2026-05-01T08:47:26.274Z</time></trkpt><trkpt lat="42.3832767" lon="14.31525"><ele>10.0</ele><time>2026-05-01T08:47:27.273Z</time></trkpt><trkpt lat="42.3832083" lon="14.3151567"><ele>10.0</ele><time>2026-05-01T08:47:28.273Z</time></trkpt><trkpt lat="42.38314" lon="14.3150633"><ele>10.0</ele><time>2026-05-01T08:47:29.274Z</time></trkpt><trkpt lat="42.3830783" lon="14.31497"><ele>10.0</ele><time>2026-05-01T08:47:30.273Z</time></trkpt><trkpt lat="42.3830167" lon="14.3148767"><ele>10.0</ele><time>2026-05-01T08:47:31.273Z</time></trkpt><trkpt lat="42.3829683" lon="14.3147867"><ele>10.0</ele><time>2026-05-01T08:47:32.273Z</time></trkpt><trkpt lat="42.3829117" lon="14.3146833"><ele>10.0</ele><time>2026-05-01T08:47:33.273Z</time></trkpt><trkpt lat="42.3828617" lon="14.3145767"><ele>10.0</ele><time>2026-05-01T08:47:34.273Z</time></trkpt><trkpt lat="42.382825" lon="14.3144683"><ele>10.0</ele><time>2026-05-01T08:47:35.273Z</time></trkpt><trkpt lat="42.3827867" lon="14.3143483"><ele>10.0</ele><time>2026-05-01T08:47:36.273Z</time></trkpt><trkpt lat="42.3827517" lon="14.314225"><ele>10.0</ele><time>2026-05-01T08:47:37.273Z</time></trkpt><trkpt lat="42.38273" lon="14.3141067"><ele>10.0</ele><time>2026-05-01T08:47:38.273Z</time></trkpt><trkpt lat="42.3827233" lon="14.313995"><ele>10.0</ele><time>2026-05-01T08:47:39.273Z</time></trkpt><trkpt lat="42.382715" lon="14.31387"><ele>10.0</ele><time>2026-05-01T08:47:40.273Z</time></trkpt><trkpt lat="42.3827133" lon="14.31373"><ele>10.0</ele><time>2026-05-01T08:47:41.273Z</time></trkpt><trkpt lat="42.3827117" lon="14.313585"><ele>10.166666666666668</ele><time>2026-05-01T08:47:42.273Z</time></trkpt><trkpt lat="42.3827133" lon="14.3134467"><ele>10.333333333333334</ele><time>2026-05-01T08:47:43.273Z</time></trkpt><trkpt lat="42.3827133" lon="14.3133267"><ele>10.5</ele><time>2026-05-01T08:47:44.273Z</time></trkpt><trkpt lat="42.3827083" lon="14.31321"><ele>10.666666666666666</ele><time>2026-05-01T08:47:45.273Z</time></trkpt><trkpt lat="42.3827083" lon="14.3131017"><ele>10.833333333333332</ele><time>2026-05-01T08:47:46.273Z</time></trkpt><trkpt lat="42.38271" lon="14.3129783"><ele>11.0</ele><time>2026-05-01T08:47:47.273Z</time></trkpt><trkpt lat="42.3827067" lon="14.312865"><ele>11.0</ele><time>2026-05-01T08:47:48.274Z</time></trkpt><trkpt lat="42.3827033" lon="14.3127383"><ele>11.0</ele><time>2026-05-01T08:47:49.273Z</time></trkpt><trkpt lat="42.3827067" lon="14.3126"><ele>11.0</ele><time>2026-05-01T08:47:50.273Z</time></trkpt><trkpt lat="42.3827083" lon="14.3124517"><ele>11.0</ele><time>2026-05-01T08:47:51.274Z</time></trkpt><trkpt lat="42.38271" lon="14.3123067"><ele>11.0</ele><time>2026-05-01T08:47:52.273Z</time></trkpt><trkpt lat="42.3827117" lon="14.3121833"><ele>11.142857142857142</ele><time>2026-05-01T08:47:53.273Z</time></trkpt><trkpt lat="42.382715" lon="14.3120667"><ele>11.285714285714285</ele><time>2026-05-01T08:47:54.273Z</time></trkpt><trkpt lat="42.3827167" lon="14.3119667"><ele>11.428571428571427</ele><time>2026-05-01T08:47:55.273Z</time></trkpt><trkpt lat="42.3827117" lon="14.3118733"><ele>11.571428571428571</ele><time>2026-05-01T08:47:56.273Z</time></trkpt><trkpt lat="42.382695" lon="14.311785"><ele>11.714285714285714</ele><time>2026-05-01T08:47:57.273Z</time></trkpt><trkpt lat="42.3826617" lon="14.3117"><ele>11.857142857142856</ele><time>2026-05-01T08:47:58.273Z</time></trkpt><trkpt lat="42.382625" lon="14.31162"><ele>12.0</ele><time>2026-05-01T08:47:59.273Z</time></trkpt><trkpt lat="42.3825733" lon="14.3115567"><ele>12.0</ele><time>2026-05-01T08:48:00.273Z</time></trkpt><trkpt lat="42.3825133" lon="14.311515"><ele>12.0</ele><time>2026-05-01T08:48:01.273Z</time></trkpt><trkpt lat="42.38244" lon="14.3114967"><ele>12.0</ele><time>2026-05-01T08:48:02.273Z</time></trkpt><trkpt lat="42.38237" lon="14.3114933"><ele>12.0</ele><time>2026-05-01T08:48:03.273Z</time></trkpt><trkpt lat="42.3822533" lon="14.3115017"><ele>12.0</ele><time>2026-05-01T08:48:05.273Z</time></trkpt><trkpt lat="42.3821417" lon="14.3115417"><ele>12.0</ele><time>2026-05-01T08:48:07.273Z</time></trkpt><trkpt lat="42.3820517" lon="14.3116867"><ele>12.25</ele><time>2026-05-01T08:48:09.273Z</time></trkpt><trkpt lat="42.3819917" lon="14.3118133"><ele>12.5</ele><time>2026-05-01T08:48:10.273Z</time></trkpt><trkpt lat="42.3819217" lon="14.3119533"><ele>12.75</ele><time>2026-05-01T08:48:11.273Z</time></trkpt><trkpt lat="42.3818317" lon="14.312085"><ele>13.0</ele><time>2026-05-01T08:48:12.273Z</time></trkpt><trkpt lat="42.3817517" lon="14.3121933"><ele>12.833333333333332</ele><time>2026-05-01T08:48:13.273Z</time></trkpt><trkpt lat="42.3816733" lon="14.3122867"><ele>12.666666666666666</ele><time>2026-05-01T08:48:14.273Z</time></trkpt><trkpt lat="42.38161" lon="14.31236"><ele>12.5</ele><time>2026-05-01T08:48:15.273Z</time></trkpt><trkpt lat="42.381555" lon="14.3124167"><ele>12.333333333333332</ele><time>2026-05-01T08:48:16.273Z</time></trkpt><trkpt lat="42.38149" lon="14.31245"><ele>12.166666666666666</ele><time>2026-05-01T08:48:17.273Z</time></trkpt><trkpt lat="42.3814233" lon="14.312445"><ele>12.0</ele><time>2026-05-01T08:48:18.273Z</time></trkpt><trkpt lat="42.3813517" lon="14.3124067"><ele>12.399999999999999</ele><time>2026-05-01T08:48:19.273Z</time></trkpt><trkpt lat="42.3812717" lon="14.3123567"><ele>12.799999999999999</ele><time>2026-05-01T08:48:20.273Z</time></trkpt><trkpt lat="42.38119" lon="14.3123"><ele>13.2</ele><time>2026-05-01T08:48:21.274Z</time></trkpt><trkpt lat="42.3811" lon="14.3122583"><ele>13.6</ele><time>2026-05-01T08:48:22.273Z</time></trkpt><trkpt lat="42.3809983" lon="14.31221"><ele>14.0</ele><time>2026-05-01T08:48:23.273Z</time></trkpt><trkpt lat="42.3809" lon="14.31217"><ele>14.0</ele><time>2026-05-01T08:48:24.273Z</time></trkpt><trkpt lat="42.3808117" lon="14.3121517"><ele>13.999999999999998</ele><time>2026-05-01T08:48:25.273Z</time></trkpt><trkpt lat="42.380735" lon="14.3121433"><ele>13.999999999999998</ele><time>2026-05-01T08:48:26.273Z</time></trkpt><trkpt lat="42.3806683" lon="14.3121383"><ele>14.0</ele><time>2026-05-01T08:48:27.273Z</time></trkpt><trkpt lat="42.3805583" lon="14.3121017"><ele>14.0</ele><time>2026-05-01T08:48:29.273Z</time></trkpt><trkpt lat="42.3804417" lon="14.3120533"><ele>14.000000000000002</ele><time>2026-05-01T08:48:31.273Z</time></trkpt><trkpt lat="42.3803683" lon="14.3120117"><ele>14.0</ele><time>2026-05-01T08:48:32.273Z</time></trkpt><trkpt lat="42.380295" lon="14.31195"><ele>14.0</ele><time>2026-05-01T08:48:33.273Z</time></trkpt><trkpt lat="42.3802167" lon="14.31188"><ele>14.0</ele><time>2026-05-01T08:48:34.273Z</time></trkpt><trkpt lat="42.3801367" lon="14.311815"><ele>14.000000000000002</ele><time>2026-05-01T08:48:35.273Z</time></trkpt><trkpt lat="42.3800667" lon="14.3117483"><ele>14.0</ele><time>2026-05-01T08:48:36.273Z</time></trkpt><trkpt lat="42.380005" lon="14.31169"><ele>14.0</ele><time>2026-05-01T08:48:37.273Z</time></trkpt><trkpt lat="42.3799217" lon="14.31162"><ele>13.999999999999998</ele><time>2026-05-01T08:48:39.273Z</time></trkpt><trkpt lat="42.379825" lon="14.3115667"><ele>13.999999999999998</ele><time>2026-05-01T08:48:52.273Z</time></trkpt><trkpt lat="42.3797533" lon="14.3115333"><ele>14.0</ele><time>2026-05-01T08:48:54.273Z</time></trkpt><trkpt lat="42.3796533" lon="14.3114933"><ele>14.0</ele><time>2026-05-01T08:48:56.273Z</time></trkpt><trkpt lat="42.3795333" lon="14.311475"><ele>14.0</ele><time>2026-05-01T08:48:58.273Z</time></trkpt><trkpt lat="42.379465" lon="14.311485"><ele>14.0</ele><time>2026-05-01T08:48:59.273Z</time></trkpt><trkpt lat="42.3793917" lon="14.3115017"><ele>14.0</ele><time>2026-05-01T08:49:00.273Z</time></trkpt><trkpt lat="42.3793183" lon="14.3115"><ele>14.0</ele><time>2026-05-01T08:49:01.273Z</time></trkpt><trkpt lat="42.379245" lon="14.3114933"><ele>14.0</ele><time>2026-05-01T08:49:02.273Z</time></trkpt><trkpt lat="42.37917" lon="14.3114883"><ele>14.0</ele><time>2026-05-01T08:49:03.273Z</time></trkpt><trkpt lat="42.3790883" lon="14.3114767"><ele>14.0</ele><time>2026-05-01T08:49:04.273Z</time></trkpt><trkpt lat="42.3790117" lon="14.3114717"><ele>14.0</ele><time>2026-05-01T08:49:05.273Z</time></trkpt><trkpt lat="42.3789383" lon="14.3114783"><ele>14.0</ele><time>2026-05-01T08:49:06.273Z</time></trkpt><trkpt lat="42.37887" lon="14.3114917"><ele>14.0</ele><time>2026-05-01T08:49:07.273Z</time></trkpt><trkpt lat="42.3788" lon="14.3114983"><ele>14.0</ele><time>2026-05-01T08:49:08.273Z</time></trkpt><trkpt lat="42.37873" lon="14.3114933"><ele>14.0</ele><time>2026-05-01T08:49:09.273Z</time></trkpt><trkpt lat="42.3786533" lon="14.3114733"><ele>14.0</ele><time>2026-05-01T08:49:10.273Z</time></trkpt><trkpt lat="42.378585" lon="14.3114417"><ele>14.0</ele><time>2026-05-01T08:49:11.274Z</time></trkpt><trkpt lat="42.3785017" lon="14.3113967"><ele>14.25</ele><time>2026-05-01T08:49:12.273Z</time></trkpt><trkpt lat="42.3784033" lon="14.3113267"><ele>14.5</ele><time>2026-05-01T08:49:13.273Z</time></trkpt><trkpt lat="42.3783" lon="14.3112833"><ele>14.75</ele><time>2026-05-01T08:49:14.274Z</time></trkpt><trkpt lat="42.3781867" lon="14.31124"><ele>15.0</ele><time>2026-05-01T08:49:15.273Z</time></trkpt><trkpt lat="42.3780783" lon="14.3111967"><ele>15.25</ele><time>2026-05-01T08:49:16.273Z</time></trkpt><trkpt lat="42.3779683" lon="14.3111517"><ele>15.5</ele><time>2026-05-01T08:49:17.273Z</time></trkpt><trkpt lat="42.3778667" lon="14.31109"><ele>15.75</ele><time>2026-05-01T08:49:18.273Z</time></trkpt><trkpt lat="42.3777617" lon="14.3110183"><ele>16.0</ele><time>2026-05-01T08:49:19.273Z</time></trkpt><trkpt lat="42.3776667" lon="14.3109433"><ele>16.0</ele><time>2026-05-01T08:49:20.274Z</time></trkpt><trkpt lat="42.37758" lon="14.310885"><ele>16.0</ele><time>2026-05-01T08:49:21.273Z</time></trkpt><trkpt lat="42.3775017" lon="14.3108383"><ele>16.0</ele><time>2026-05-01T08:49:22.274Z</time></trkpt><trkpt lat="42.3774333" lon="14.310805"><ele>16.0</ele><time>2026-05-01T08:49:23.273Z</time></trkpt><trkpt lat="42.3773617" lon="14.31078"><ele>16.0</ele><time>2026-05-01T08:49:24.273Z</time></trkpt><trkpt lat="42.3772367" lon="14.3107383"><ele>16.400000000000002</ele><time>2026-05-01T08:49:26.273Z</time></trkpt><trkpt lat="42.3771683" lon="14.31073"><ele>16.8</ele><time>2026-05-01T08:49:27.274Z</time></trkpt><trkpt lat="42.37704" lon="14.3107033"><ele>17.200000000000003</ele><time>2026-05-01T08:49:29.273Z</time></trkpt><trkpt lat="42.3769267" lon="14.3106683"><ele>17.6</ele><time>2026-05-01T08:49:31.273Z</time></trkpt><trkpt lat="42.3768217" lon="14.3106717"><ele>18.0</ele><time>2026-05-01T08:49:33.273Z</time></trkpt><trkpt lat="42.376715" lon="14.310695"><ele>18.0</ele><time>2026-05-01T08:49:35.273Z</time></trkpt><trkpt lat="42.376595" lon="14.31068"><ele>18.0</ele><time>2026-05-01T08:49:37.273Z</time></trkpt><trkpt lat="42.3765267" lon="14.3106617"><ele>18.0</ele><time>2026-05-01T08:49:38.273Z</time></trkpt><trkpt lat="42.37641" lon="14.3106383"><ele>18.0</ele><time>2026-05-01T08:49:40.273Z</time></trkpt><trkpt lat="42.3763417" lon="14.310635"><ele>18.0</ele><time>2026-05-01T08:49:41.273Z</time></trkpt><trkpt lat="42.3762717" lon="14.31062"><ele>18.0</ele><time>2026-05-01T08:49:42.273Z</time></trkpt><trkpt lat="42.376205" lon="14.3106083"><ele>17.666666666666668</ele><time>2026-05-01T08:49:43.273Z</time></trkpt><trkpt lat="42.3761417" lon="14.3105883"><ele>17.333333333333332</ele><time>2026-05-01T08:49:44.273Z</time></trkpt><trkpt lat="42.3760733" lon="14.3105717"><ele>17.0</ele><time>2026-05-01T08:49:45.273Z</time></trkpt><trkpt lat="42.3759933" lon="14.3105583"><ele>16.666666666666664</ele><time>2026-05-01T08:49:46.273Z</time></trkpt><trkpt lat="42.3759083" lon="14.310555"><ele>16.333333333333332</ele><time>2026-05-01T08:49:47.273Z</time></trkpt><trkpt lat="42.3758217" lon="14.3105367"><ele>16.0</ele><time>2026-05-01T08:49:48.273Z</time></trkpt><trkpt lat="42.37574" lon="14.3105133"><ele>15.999999999999998</ele><time>2026-05-01T08:49:49.273Z</time></trkpt><trkpt lat="42.3756617" lon="14.310495"><ele>16.0</ele><time>2026-05-01T08:49:50.273Z</time></trkpt><trkpt lat="42.3755933" lon="14.310475"><ele>16.0</ele><time>2026-05-01T08:49:51.273Z</time></trkpt><trkpt lat="42.37553" lon="14.31046"><ele>16.0</ele><time>2026-05-01T08:49:52.273Z</time></trkpt><trkpt lat="42.37542" lon="14.31041"><ele>15.999999999999998</ele><time>2026-05-01T08:49:54.273Z</time></trkpt><trkpt lat="42.375315" lon="14.31034"><ele>16.0</ele><time>2026-05-01T08:49:56.273Z</time></trkpt><trkpt lat="42.3752167" lon="14.31026"><ele>16.833333333333332</ele><time>2026-05-01T08:49:58.273Z</time></trkpt><trkpt lat="42.3751133" lon="14.3101767"><ele>17.666666666666664</ele><time>2026-05-01T08:50:00.273Z</time></trkpt><trkpt lat="42.3750583" lon="14.31013"><ele>18.5</ele><time>2026-05-01T08:50:01.273Z</time></trkpt><trkpt lat="42.375" lon="14.31008"><ele>19.333333333333332</ele><time>2026-05-01T08:50:02.273Z</time></trkpt><trkpt lat="42.3749467" lon="14.3100317"><ele>20.166666666666668</ele><time>2026-05-01T08:50:03.273Z</time></trkpt><trkpt lat="42.3748617" lon="14.30996"><ele>21.0</ele><time>2026-05-01T08:50:05.273Z</time></trkpt><trkpt lat="42.3747983" lon="14.3099383"><ele>21.0</ele><time>2026-05-01T08:50:07.273Z</time></trkpt><trkpt lat="42.3747167" lon="14.3099883"><ele>21.0</ele><time>2026-05-01T08:50:09.273Z</time></trkpt><trkpt lat="42.374605" lon="14.3100533"><ele>21.0</ele><time>2026-05-01T08:50:11.273Z</time></trkpt><trkpt lat="42.3745417" lon="14.31009"><ele>21.0</ele><time>2026-05-01T08:50:12.273Z</time></trkpt><trkpt lat="42.3744517" lon="14.31013"><ele>21.0</ele><time>2026-05-01T08:50:14.273Z</time></trkpt><trkpt lat="42.3743633" lon="14.310115"><ele>21.166666666666668</ele><time>2026-05-01T08:50:16.273Z</time></trkpt><trkpt lat="42.3742983" lon="14.3100783"><ele>21.333333333333332</ele><time>2026-05-01T08:50:17.273Z</time></trkpt><trkpt lat="42.37423" lon="14.3100367"><ele>21.5</ele><time>2026-05-01T08:50:18.274Z</time></trkpt><trkpt lat="42.37416" lon="14.3099867"><ele>21.666666666666664</ele><time>2026-05-01T08:50:19.273Z</time></trkpt><trkpt lat="42.3740783" lon="14.3099367"><ele>21.833333333333332</ele><time>2026-05-01T08:50:20.273Z</time></trkpt><trkpt lat="42.3739967" lon="14.3098767"><ele>22.0</ele><time>2026-05-01T08:50:21.273Z</time></trkpt><trkpt lat="42.373925" lon="14.3098"><ele>21.400000000000002</ele><time>2026-05-01T08:50:22.273Z</time></trkpt><trkpt lat="42.37386" lon="14.30972"><ele>20.8</ele><time>2026-05-01T08:50:23.274Z</time></trkpt><trkpt lat="42.37378" lon="14.309625"><ele>20.2</ele><time>2026-05-01T08:50:24.273Z</time></trkpt><trkpt lat="42.3736817" lon="14.3095383"><ele>19.6</ele><time>2026-05-01T08:50:25.274Z</time></trkpt><trkpt lat="42.3735833" lon="14.3094567"><ele>19.0</ele><time>2026-05-01T08:50:26.273Z</time></trkpt><trkpt lat="42.373475" lon="14.3093883"><ele>21.4</ele><time>2026-05-01T08:50:27.273Z</time></trkpt><trkpt lat="42.3733633" lon="14.3093133"><ele>23.799999999999997</ele><time>2026-05-01T08:50:28.273Z</time></trkpt><trkpt lat="42.3732667" lon="14.309245"><ele>26.200000000000003</ele><time>2026-05-01T08:50:29.273Z</time></trkpt><trkpt lat="42.3731717" lon="14.3091833"><ele>28.6</ele><time>2026-05-01T08:50:30.273Z</time></trkpt><trkpt lat="42.3730883" lon="14.3091267"><ele>31.0</ele><time>2026-05-01T08:50:31.273Z</time></trkpt><trkpt lat="42.3730167" lon="14.3090783"><ele>31.500000000000004</ele><time>2026-05-01T08:50:32.274Z</time></trkpt><trkpt lat="42.3729567" lon="14.3090367"><ele>32.0</ele><time>2026-05-01T08:50:33.273Z</time></trkpt><trkpt lat="42.3728867" lon="14.30901"><ele>32.5</ele><time>2026-05-01T08:50:34.273Z</time></trkpt><trkpt lat="42.3727983" lon="14.308995"><ele>33.0</ele><time>2026-05-01T08:50:35.273Z</time></trkpt><trkpt lat="42.3727117" lon="14.3089817"><ele>33.5</ele><time>2026-05-01T08:50:36.273Z</time></trkpt><trkpt lat="42.3726217" lon="14.3089667"><ele>34.0</ele><time>2026-05-01T08:50:37.273Z</time></trkpt><trkpt lat="42.3725333" lon="14.3089267"><ele>33.66666666666667</ele><time>2026-05-01T08:50:38.273Z</time></trkpt><trkpt lat="42.3724483" lon="14.308875"><ele>33.333333333333336</ele><time>2026-05-01T08:50:39.273Z</time></trkpt><trkpt lat="42.3723667" lon="14.3088183"><ele>33.0</ele><time>2026-05-01T08:50:40.273Z</time></trkpt><trkpt lat="42.3722917" lon="14.308755"><ele>32.666666666666664</ele><time>2026-05-01T08:50:41.273Z</time></trkpt><trkpt lat="42.3722267" lon="14.3087033"><ele>32.33333333333333</ele><time>2026-05-01T08:50:42.273Z</time></trkpt><trkpt lat="42.3721667" lon="14.30866"><ele>32.0</ele><time>2026-05-01T08:50:43.273Z</time></trkpt><trkpt lat="42.3721083" lon="14.308615"><ele>32.0</ele><time>2026-05-01T08:50:44.273Z</time></trkpt><trkpt lat="42.372045" lon="14.3085567"><ele>32.0</ele><time>2026-05-01T08:50:45.273Z</time></trkpt><trkpt lat="42.37197" lon="14.3085017"><ele>32.0</ele><time>2026-05-01T08:50:46.273Z</time></trkpt><trkpt lat="42.371885" lon="14.3084483"><ele>32.0</ele><time>2026-05-01T08:50:47.273Z</time></trkpt><trkpt lat="42.3717933" lon="14.3083883"><ele>32.0</ele><time>2026-05-01T08:50:48.273Z</time></trkpt><trkpt lat="42.371705" lon="14.3083217"><ele>32.0</ele><time>2026-05-01T08:50:49.273Z</time></trkpt><trkpt lat="42.3716233" lon="14.308255"><ele>32.0</ele><time>2026-05-01T08:50:50.273Z</time></trkpt><trkpt lat="42.3715383" lon="14.3081867"><ele>32.0</ele><time>2026-05-01T08:50:51.273Z</time></trkpt><trkpt lat="42.3714467" lon="14.30812"><ele>32.0</ele><time>2026-05-01T08:50:52.273Z</time></trkpt><trkpt lat="42.3713567" lon="14.308045"><ele>32.0</ele><time>2026-05-01T08:50:53.273Z</time></trkpt><trkpt lat="42.3712633" lon="14.30797"><ele>31.6</ele><time>2026-05-01T08:50:54.273Z</time></trkpt><trkpt lat="42.3711683" lon="14.3078967"><ele>31.200000000000003</ele><time>2026-05-01T08:50:55.273Z</time></trkpt><trkpt lat="42.37109" lon="14.307825"><ele>30.8</ele><time>2026-05-01T08:50:56.273Z</time></trkpt><trkpt lat="42.3710183" lon="14.3077567"><ele>30.4</ele><time>2026-05-01T08:50:57.273Z</time></trkpt><trkpt lat="42.3709483" lon="14.3076967"><ele>30.0</ele><time>2026-05-01T08:50:58.274Z</time></trkpt><trkpt lat="42.3708733" lon="14.3076433"><ele>30.0</ele><time>2026-05-01T08:50:59.273Z</time></trkpt><trkpt lat="42.3707917" lon="14.3075817"><ele>30.0</ele><time>2026-05-01T08:51:00.273Z</time></trkpt><trkpt lat="42.37071" lon="14.3075183"><ele>30.0</ele><time>2026-05-01T08:51:01.273Z</time></trkpt><trkpt lat="42.37062" lon="14.3074583"><ele>30.0</ele><time>2026-05-01T08:51:02.273Z</time></trkpt><trkpt lat="42.370525" lon="14.3073917"><ele>30.0</ele><time>2026-05-01T08:51:03.273Z</time></trkpt><trkpt lat="42.3704267" lon="14.307325"><ele>29.6</ele><time>2026-05-01T08:51:04.273Z</time></trkpt><trkpt lat="42.3703317" lon="14.307265"><ele>29.2</ele><time>2026-05-01T08:51:05.273Z</time></trkpt><trkpt lat="42.37024" lon="14.3072067"><ele>28.799999999999997</ele><time>2026-05-01T08:51:06.274Z</time></trkpt><trkpt lat="42.370155" lon="14.3071567"><ele>28.4</ele><time>2026-05-01T08:51:07.273Z</time></trkpt><trkpt lat="42.370065" lon="14.3071067"><ele>28.0</ele><time>2026-05-01T08:51:08.273Z</time></trkpt><trkpt lat="42.3699783" lon="14.3070533"><ele>28.0</ele><time>2026-05-01T08:51:09.274Z</time></trkpt><trkpt lat="42.3698883" lon="14.3069917"><ele>27.999999999999996</ele><time>2026-05-01T08:51:10.273Z</time></trkpt><trkpt lat="42.369795" lon="14.3069417"><ele>27.999999999999996</ele><time>2026-05-01T08:51:11.273Z</time></trkpt><trkpt lat="42.36971" lon="14.30689"><ele>28.0</ele><time>2026-05-01T08:51:12.273Z</time></trkpt><trkpt lat="42.3696217" lon="14.306845"><ele>28.0</ele><time>2026-05-01T08:51:13.273Z</time></trkpt><trkpt lat="42.369545" lon="14.306795"><ele>27.833333333333336</ele><time>2026-05-01T08:51:14.273Z</time></trkpt><trkpt lat="42.36948" lon="14.3067383"><ele>27.666666666666668</ele><time>2026-05-01T08:51:15.273Z</time></trkpt><trkpt lat="42.36943" lon="14.3066617"><ele>27.5</ele><time>2026-05-01T08:51:16.273Z</time></trkpt><trkpt lat="42.3694033" lon="14.3065683"><ele>27.333333333333336</ele><time>2026-05-01T08:51:17.273Z</time></trkpt><trkpt lat="42.3693917" lon="14.30643"><ele>27.166666666666668</ele><time>2026-05-01T08:51:19.273Z</time></trkpt><trkpt lat="42.3693383" lon="14.3063567"><ele>27.0</ele><time>2026-05-01T08:51:22.273Z</time></trkpt><trkpt lat="42.3692267" lon="14.3062767"><ele>27.0</ele><time>2026-05-01T08:51:24.273Z</time></trkpt><trkpt lat="42.3691733" lon="14.3062267"><ele>27.0</ele><time>2026-05-01T08:51:25.273Z</time></trkpt><trkpt lat="42.36912" lon="14.3061733"><ele>27.0</ele><time>2026-05-01T08:51:26.273Z</time></trkpt><trkpt lat="42.3690567" lon="14.3061133"><ele>27.0</ele><time>2026-05-01T08:51:27.273Z</time></trkpt><trkpt lat="42.3689867" lon="14.3060433"><ele>27.0</ele><time>2026-05-01T08:51:28.273Z</time></trkpt><trkpt lat="42.3689067" lon="14.3059683"><ele>27.0</ele><time>2026-05-01T08:51:29.274Z</time></trkpt><trkpt lat="42.3688117" lon="14.3058767"><ele>27.200000000000003</ele><time>2026-05-01T08:51:30.273Z</time></trkpt><trkpt lat="42.3687067" lon="14.3057817"><ele>27.400000000000002</ele><time>2026-05-01T08:51:31.274Z</time></trkpt><trkpt lat="42.3686217" lon="14.3056883"><ele>27.599999999999998</ele><time>2026-05-01T08:51:32.273Z</time></trkpt><trkpt lat="42.3685483" lon="14.3056183"><ele>27.799999999999997</ele><time>2026-05-01T08:51:33.273Z</time></trkpt><trkpt lat="42.3684933" lon="14.3055517"><ele>28.0</ele><time>2026-05-01T08:51:34.274Z</time></trkpt><trkpt lat="42.3684183" lon="14.3054767"><ele>28.000000000000004</ele><time>2026-05-01T08:51:36.273Z</time></trkpt><trkpt lat="42.3683317" lon="14.3054683"><ele>28.0</ele><time>2026-05-01T08:51:39.273Z</time></trkpt><trkpt lat="42.3682617" lon="14.305555"><ele>28.0</ele><time>2026-05-01T08:51:42.273Z</time></trkpt><trkpt lat="42.3682067" lon="14.3056417"><ele>28.0</ele><time>2026-05-01T08:51:44.273Z</time></trkpt><trkpt lat="42.3681367" lon="14.305755"><ele>28.000000000000004</ele><time>2026-05-01T08:51:46.273Z</time></trkpt><trkpt lat="42.3680917" lon="14.3058183"><ele>28.0</ele><time>2026-05-01T08:51:47.273Z</time></trkpt><trkpt lat="42.3680133" lon="14.3059217"><ele>28.2</ele><time>2026-05-01T08:51:49.273Z</time></trkpt><trkpt lat="42.36794" lon="14.3059967"><ele>28.4</ele><time>2026-05-01T08:51:51.273Z</time></trkpt><trkpt lat="42.3678433" lon="14.3060533"><ele>28.599999999999998</ele><time>2026-05-01T08:51:53.273Z</time></trkpt><trkpt lat="42.3677267" lon="14.3060733"><ele>28.799999999999997</ele><time>2026-05-01T08:51:55.273Z</time></trkpt><trkpt lat="42.3676067" lon="14.3060883"><ele>29.0</ele><time>2026-05-01T08:51:57.273Z</time></trkpt><trkpt lat="42.367515" lon="14.306115"><ele>28.999999999999996</ele><time>2026-05-01T08:51:59.273Z</time></trkpt><trkpt lat="42.3674267" lon="14.30612"><ele>29.0</ele><time>2026-05-01T08:52:01.273Z</time></trkpt><trkpt lat="42.36732" lon="14.306105"><ele>29.0</ele><time>2026-05-01T08:52:03.273Z</time></trkpt><trkpt lat="42.3672533" lon="14.3060933"><ele>29.0</ele><time>2026-05-01T08:52:04.273Z</time></trkpt><trkpt lat="42.3671867" lon="14.3060783"><ele>28.999999999999996</ele><time>2026-05-01T08:52:05.273Z</time></trkpt><trkpt lat="42.3671183" lon="14.30604"><ele>29.0</ele><time>2026-05-01T08:52:06.273Z</time></trkpt><trkpt lat="42.3670483" lon="14.30598"><ele>30.333333333333332</ele><time>2026-05-01T08:52:07.273Z</time></trkpt><trkpt lat="42.366975" lon="14.3059367"><ele>31.666666666666664</ele><time>2026-05-01T08:52:08.273Z</time></trkpt><trkpt lat="42.3669067" lon="14.30591"><ele>33.0</ele><time>2026-05-01T08:52:09.273Z</time></trkpt><trkpt lat="42.366825" lon="14.305905"><ele>34.333333333333336</ele><time>2026-05-01T08:52:10.273Z</time></trkpt><trkpt lat="42.3667383" lon="14.3059267"><ele>35.66666666666667</ele><time>2026-05-01T08:52:11.273Z</time></trkpt><trkpt lat="42.36664" lon="14.3059583"><ele>37.0</ele><time>2026-05-01T08:52:12.273Z</time></trkpt><trkpt lat="42.3665483" lon="14.3059933"><ele>37.0</ele><time>2026-05-01T08:52:13.273Z</time></trkpt><trkpt lat="42.3664633" lon="14.3060067"><ele>37.0</ele><time>2026-05-01T08:52:14.273Z</time></trkpt><trkpt lat="42.3663767" lon="14.30602"><ele>37.0</ele><time>2026-05-01T08:52:15.273Z</time></trkpt><trkpt lat="42.36629" lon="14.30604"><ele>37.0</ele><time>2026-05-01T08:52:16.273Z</time></trkpt><trkpt lat="42.36622" lon="14.30607"><ele>37.0</ele><time>2026-05-01T08:52:17.273Z</time></trkpt><trkpt lat="42.3661567" lon="14.3061117"><ele>37.0</ele><time>2026-05-01T08:52:18.273Z</time></trkpt><trkpt lat="42.3660967" lon="14.3061483"><ele>37.0</ele><time>2026-05-01T08:52:19.273Z</time></trkpt><trkpt lat="42.3659933" lon="14.3062117"><ele>37.0</ele><time>2026-05-01T08:52:21.273Z</time></trkpt><trkpt lat="42.3658733" lon="14.3062233"><ele>37.0</ele><time>2026-05-01T08:52:23.273Z</time></trkpt><trkpt lat="42.3658067" lon="14.30623"><ele>37.0</ele><time>2026-05-01T08:52:24.273Z</time></trkpt><trkpt lat="42.3656883" lon="14.3062283"><ele>37.0</ele><time>2026-05-01T08:52:26.273Z</time></trkpt><trkpt lat="42.3655817" lon="14.30622"><ele>37.4</ele><time>2026-05-01T08:52:28.273Z</time></trkpt><trkpt lat="42.3654617" lon="14.30622"><ele>37.800000000000004</ele><time>2026-05-01T08:52:30.274Z</time></trkpt><trkpt lat="42.3653967" lon="14.3062133"><ele>38.2</ele><time>2026-05-01T08:52:31.273Z</time></trkpt><trkpt lat="42.3652833" lon="14.3061767"><ele>38.6</ele><time>2026-05-01T08:52:33.273Z</time></trkpt><trkpt lat="42.36517" lon="14.3061367"><ele>39.0</ele><time>2026-05-01T08:52:35.273Z</time></trkpt><trkpt lat="42.3650483" lon="14.3061267"><ele>39.0</ele><time>2026-05-01T08:52:37.273Z</time></trkpt><trkpt lat="42.3649833" lon="14.3061267"><ele>39.0</ele><time>2026-05-01T08:52:38.273Z</time></trkpt><trkpt lat="42.3649167" lon="14.3061383"><ele>39.0</ele><time>2026-05-01T08:52:39.273Z</time></trkpt><trkpt lat="42.36485" lon="14.3061633"><ele>39.0</ele><time>2026-05-01T08:52:40.273Z</time></trkpt><trkpt lat="42.3647683" lon="14.3062033"><ele>39.0</ele><time>2026-05-01T08:52:41.273Z</time></trkpt><trkpt lat="42.3646933" lon="14.3062433"><ele>39.0</ele><time>2026-05-01T08:52:42.273Z</time></trkpt><trkpt lat="42.3646267" lon="14.3062883"><ele>39.0</ele><time>2026-05-01T08:52:43.273Z</time></trkpt><trkpt lat="42.3645583" lon="14.30633"><ele>38.833333333333336</ele><time>2026-05-01T08:52:44.271Z</time></trkpt><trkpt lat="42.3644933" lon="14.306375"><ele>38.666666666666664</ele><time>2026-05-01T08:52:45.273Z</time></trkpt><trkpt lat="42.3644217" lon="14.3064317"><ele>38.5</ele><time>2026-05-01T08:52:46.273Z</time></trkpt><trkpt lat="42.364355" lon="14.3064933"><ele>38.33333333333333</ele><time>2026-05-01T08:52:47.273Z</time></trkpt><trkpt lat="42.364275" lon="14.3065633"><ele>38.166666666666664</ele><time>2026-05-01T08:52:48.273Z</time></trkpt><trkpt lat="42.3642067" lon="14.306635"><ele>38.0</ele><time>2026-05-01T08:52:49.274Z</time></trkpt><trkpt lat="42.3641433" lon="14.3066983"><ele>38.166666666666664</ele><time>2026-05-01T08:52:50.274Z</time></trkpt><trkpt lat="42.3640867" lon="14.30676"><ele>38.33333333333333</ele><time>2026-05-01T08:52:51.273Z</time></trkpt><trkpt lat="42.36403" lon="14.3068117"><ele>38.5</ele><time>2026-05-01T08:52:52.273Z</time></trkpt><trkpt lat="42.363965" lon="14.3068517"><ele>38.666666666666664</ele><time>2026-05-01T08:52:53.274Z</time></trkpt><trkpt lat="42.36385" lon="14.306915"><ele>38.833333333333336</ele><time>2026-05-01T08:52:55.273Z</time></trkpt><trkpt lat="42.363775" lon="14.306935"><ele>39.0</ele><time>2026-05-01T08:52:56.273Z</time></trkpt><trkpt lat="42.3636833" lon="14.30696"><ele>39.0</ele><time>2026-05-01T08:52:57.273Z</time></trkpt><trkpt lat="42.3635867" lon="14.306995"><ele>39.0</ele><time>2026-05-01T08:52:58.273Z</time></trkpt><trkpt lat="42.3635" lon="14.30702"><ele>39.0</ele><time>2026-05-01T08:52:59.273Z</time></trkpt><trkpt lat="42.3634183" lon="14.3070283"><ele>39.0</ele><time>2026-05-01T08:53:00.273Z</time></trkpt><trkpt lat="42.363345" lon="14.30703"><ele>39.0</ele><time>2026-05-01T08:53:01.273Z</time></trkpt><trkpt lat="42.363235" lon="14.307035"><ele>39.0</ele><time>2026-05-01T08:53:03.273Z</time></trkpt><trkpt lat="42.3631283" lon="14.3070283"><ele>39.0</ele><time>2026-05-01T08:53:05.273Z</time></trkpt><trkpt lat="42.3630133" lon="14.30702"><ele>39.0</ele><time>2026-05-01T08:53:07.273Z</time></trkpt><trkpt lat="42.36295" lon="14.3070067"><ele>39.0</ele><time>2026-05-01T08:53:08.273Z</time></trkpt><trkpt lat="42.3628767" lon="14.3069917"><ele>39.0</ele><time>2026-05-01T08:53:09.273Z</time></trkpt><trkpt lat="42.3628" lon="14.30698"><ele>39.0</ele><time>2026-05-01T08:53:10.273Z</time></trkpt><trkpt lat="42.3627217" lon="14.3069717"><ele>38.833333333333336</ele><time>2026-05-01T08:53:11.273Z</time></trkpt><trkpt lat="42.3626517" lon="14.3069583"><ele>38.666666666666664</ele><time>2026-05-01T08:53:12.273Z</time></trkpt><trkpt lat="42.36258" lon="14.3069433"><ele>38.5</ele><time>2026-05-01T08:53:13.273Z</time></trkpt><trkpt lat="42.3625033" lon="14.3069333"><ele>38.33333333333333</ele><time>2026-05-01T08:53:14.273Z</time></trkpt><trkpt lat="42.3624183" lon="14.3069267"><ele>38.166666666666664</ele><time>2026-05-01T08:53:15.273Z</time></trkpt><trkpt lat="42.3623217" lon="14.3069233"><ele>38.0</ele><time>2026-05-01T08:53:16.273Z</time></trkpt><trkpt lat="42.3622267" lon="14.30692"><ele>37.83333333333333</ele><time>2026-05-01T08:53:17.273Z</time></trkpt><trkpt lat="42.36214" lon="14.306915"><ele>37.666666666666664</ele><time>2026-05-01T08:53:18.273Z</time></trkpt><trkpt lat="42.36205" lon="14.30692"><ele>37.5</ele><time>2026-05-01T08:53:19.273Z</time></trkpt><trkpt lat="42.361965" lon="14.3069217"><ele>37.333333333333336</ele><time>2026-05-01T08:53:20.273Z</time></trkpt><trkpt lat="42.3618867" lon="14.30692"><ele>37.16666666666667</ele><time>2026-05-01T08:53:21.273Z</time></trkpt><trkpt lat="42.3618133" lon="14.3069133"><ele>37.0</ele><time>2026-05-01T08:53:22.273Z</time></trkpt><trkpt lat="42.36175" lon="14.306915"><ele>37.0</ele><time>2026-05-01T08:53:23.273Z</time></trkpt><trkpt lat="42.3616383" lon="14.3068967"><ele>37.0</ele><time>2026-05-01T08:53:25.273Z</time></trkpt><trkpt lat="42.3615717" lon="14.306865"><ele>37.0</ele><time>2026-05-01T08:53:26.273Z</time></trkpt><trkpt lat="42.3615083" lon="14.3068217"><ele>37.0</ele><time>2026-05-01T08:53:27.273Z</time></trkpt><trkpt lat="42.36145" lon="14.3067617"><ele>37.0</ele><time>2026-05-01T08:53:28.273Z</time></trkpt><trkpt lat="42.361395" lon="14.3067017"><ele>37.0</ele><time>2026-05-01T08:53:29.273Z</time></trkpt><trkpt lat="42.3613417" lon="14.3066333"><ele>37.0</ele><time>2026-05-01T08:53:30.273Z</time></trkpt><trkpt lat="42.3612867" lon="14.3065717"><ele>37.0</ele><time>2026-05-01T08:53:31.273Z</time></trkpt><trkpt lat="42.36123" lon="14.30652"><ele>37.0</ele><time>2026-05-01T08:53:32.273Z</time></trkpt><trkpt lat="42.3611633" lon="14.306485"><ele>37.0</ele><time>2026-05-01T08:53:33.273Z</time></trkpt><trkpt lat="42.3610917" lon="14.306455"><ele>37.0</ele><time>2026-05-01T08:53:34.273Z</time></trkpt><trkpt lat="42.3609917" lon="14.3064383"><ele>37.0</ele><time>2026-05-01T08:53:35.273Z</time></trkpt><trkpt lat="42.3608783" lon="14.30642"><ele>35.6</ele><time>2026-05-01T08:53:36.273Z</time></trkpt><trkpt lat="42.360765" lon="14.3063983"><ele>34.2</ele><time>2026-05-01T08:53:37.273Z</time></trkpt><trkpt lat="42.36066" lon="14.3063683"><ele>32.8</ele><time>2026-05-01T08:53:38.273Z</time></trkpt><trkpt lat="42.3605583" lon="14.3063367"><ele>31.4</ele><time>2026-05-01T08:53:39.273Z</time></trkpt><trkpt lat="42.360465" lon="14.3062817"><ele>30.0</ele><time>2026-05-01T08:53:40.274Z</time></trkpt><trkpt lat="42.36037" lon="14.3062283"><ele>29.5</ele><time>2026-05-01T08:53:41.273Z</time></trkpt><trkpt lat="42.3602867" lon="14.3061883"><ele>29.0</ele><time>2026-05-01T08:53:42.273Z</time></trkpt><trkpt lat="42.3601967" lon="14.306155"><ele>28.5</ele><time>2026-05-01T08:53:43.273Z</time></trkpt><trkpt lat="42.360115" lon="14.3061367"><ele>28.0</ele><time>2026-05-01T08:53:44.273Z</time></trkpt><trkpt lat="42.3600467" lon="14.3061267"><ele>27.5</ele><time>2026-05-01T08:53:45.273Z</time></trkpt><trkpt lat="42.3599817" lon="14.30613"><ele>27.0</ele><time>2026-05-01T08:53:46.273Z</time></trkpt><trkpt lat="42.3599167" lon="14.306135"><ele>27.0</ele><time>2026-05-01T08:53:47.273Z</time></trkpt><trkpt lat="42.359855" lon="14.30616"><ele>27.0</ele><time>2026-05-01T08:53:48.273Z</time></trkpt><trkpt lat="42.359795" lon="14.3061983"><ele>27.0</ele><time>2026-05-01T08:53:49.273Z</time></trkpt><trkpt lat="42.359715" lon="14.306235"><ele>27.0</ele><time>2026-05-01T08:53:50.273Z</time></trkpt><trkpt lat="42.3596217" lon="14.3062683"><ele>27.0</ele><time>2026-05-01T08:53:51.273Z</time></trkpt><trkpt lat="42.3595217" lon="14.306305"><ele>27.0</ele><time>2026-05-01T08:53:52.273Z</time></trkpt><trkpt lat="42.3594117" lon="14.3063467"><ele>28.0</ele><time>2026-05-01T08:53:53.273Z</time></trkpt><trkpt lat="42.3593167" lon="14.30637"><ele>29.000000000000004</ele><time>2026-05-01T08:53:54.273Z</time></trkpt><trkpt lat="42.3592417" lon="14.306395"><ele>30.000000000000004</ele><time>2026-05-01T08:53:55.273Z</time></trkpt><trkpt lat="42.35918" lon="14.3064317"><ele>31.0</ele><time>2026-05-01T08:53:56.273Z</time></trkpt><trkpt lat="42.3590967" lon="14.3065333"><ele>32.0</ele><time>2026-05-01T08:53:58.273Z</time></trkpt><trkpt lat="42.3590183" lon="14.3066667"><ele>32.2</ele><time>2026-05-01T08:54:00.273Z</time></trkpt><trkpt lat="42.35896" lon="14.3067633"><ele>32.400000000000006</ele><time>2026-05-01T08:54:01.273Z</time></trkpt><trkpt lat="42.35888" lon="14.306865"><ele>32.599999999999994</ele><time>2026-05-01T08:54:02.273Z</time></trkpt><trkpt lat="42.3588" lon="14.30696"><ele>32.8</ele><time>2026-05-01T08:54:03.273Z</time></trkpt><trkpt lat="42.3587233" lon="14.3070233"><ele>33.0</ele><time>2026-05-01T08:54:04.273Z</time></trkpt><trkpt lat="42.3586467" lon="14.3070767"><ele>32.6</ele><time>2026-05-01T08:54:05.273Z</time></trkpt><trkpt lat="42.358565" lon="14.3071"><ele>32.199999999999996</ele><time>2026-05-01T08:54:06.273Z</time></trkpt><trkpt lat="42.3584733" lon="14.3071017"><ele>31.8</ele><time>2026-05-01T08:54:07.273Z</time></trkpt><trkpt lat="42.3583817" lon="14.3070783"><ele>31.4</ele><time>2026-05-01T08:54:08.273Z</time></trkpt><trkpt lat="42.3582833" lon="14.3070417"><ele>31.0</ele><time>2026-05-01T08:54:09.273Z</time></trkpt><trkpt lat="42.3581633" lon="14.3069833"><ele>31.0</ele><time>2026-05-01T08:54:10.273Z</time></trkpt><trkpt lat="42.358035" lon="14.3069167"><ele>31.0</ele><time>2026-05-01T08:54:11.273Z</time></trkpt><trkpt lat="42.3579233" lon="14.30687"><ele>31.0</ele><time>2026-05-01T08:54:12.274Z</time></trkpt><trkpt lat="42.35782" lon="14.3068267"><ele>31.0</ele><time>2026-05-01T08:54:13.273Z</time></trkpt><trkpt lat="42.357725" lon="14.3067767"><ele>31.200000000000003</ele><time>2026-05-01T08:54:14.273Z</time></trkpt><trkpt lat="42.35762" lon="14.3067183"><ele>31.400000000000002</ele><time>2026-05-01T08:54:15.273Z</time></trkpt><trkpt lat="42.3575167" lon="14.3066767"><ele>31.6</ele><time>2026-05-01T08:54:16.273Z</time></trkpt><trkpt lat="42.3574317" lon="14.306635"><ele>31.8</ele><time>2026-05-01T08:54:17.273Z</time></trkpt><trkpt lat="42.3573483" lon="14.3065883"><ele>32.0</ele><time>2026-05-01T08:54:18.273Z</time></trkpt><trkpt lat="42.3572617" lon="14.30655"><ele>32.166666666666664</ele><time>2026-05-01T08:54:19.273Z</time></trkpt><trkpt lat="42.3571767" lon="14.306515"><ele>32.33333333333333</ele><time>2026-05-01T08:54:20.274Z</time></trkpt><trkpt lat="42.35711" lon="14.3064833"><ele>32.5</ele><time>2026-05-01T08:54:21.273Z</time></trkpt><trkpt lat="42.357045" lon="14.3064517"><ele>32.666666666666664</ele><time>2026-05-01T08:54:22.273Z</time></trkpt><trkpt lat="42.3569767" lon="14.3064233"><ele>32.833333333333336</ele><time>2026-05-01T08:54:23.273Z</time></trkpt><trkpt lat="42.3569" lon="14.3063967"><ele>33.0</ele><time>2026-05-01T08:54:24.273Z</time></trkpt><trkpt lat="42.3568217" lon="14.3063733"><ele>33.0</ele><time>2026-05-01T08:54:25.273Z</time></trkpt><trkpt lat="42.35674" lon="14.3063617"><ele>33.0</ele><time>2026-05-01T08:54:26.274Z</time></trkpt><trkpt lat="42.3566633" lon="14.3063517"><ele>33.0</ele><time>2026-05-01T08:54:27.273Z</time></trkpt><trkpt lat="42.35658" lon="14.3063383"><ele>33.0</ele><time>2026-05-01T08:54:28.273Z</time></trkpt><trkpt lat="42.3565017" lon="14.3063283"><ele>33.0</ele><time>2026-05-01T08:54:29.274Z</time></trkpt><trkpt lat="42.356425" lon="14.30633"><ele>33.0</ele><time>2026-05-01T08:54:30.274Z</time></trkpt><trkpt lat="42.3563433" lon="14.3063383"><ele>33.0</ele><time>2026-05-01T08:54:31.273Z</time></trkpt><trkpt lat="42.356265" lon="14.306355"><ele>33.0</ele><time>2026-05-01T08:54:32.273Z</time></trkpt><trkpt lat="42.35617" lon="14.3063783"><ele>33.0</ele><time>2026-05-01T08:54:33.273Z</time></trkpt><trkpt lat="42.3560683" lon="14.3064067"><ele>33.0</ele><time>2026-05-01T08:54:34.273Z</time></trkpt><trkpt lat="42.3559767" lon="14.3064367"><ele>33.0</ele><time>2026-05-01T08:54:35.273Z</time></trkpt><trkpt lat="42.3558967" lon="14.3064583"><ele>33.4</ele><time>2026-05-01T08:54:36.273Z</time></trkpt><trkpt lat="42.3558183" lon="14.30649"><ele>33.8</ele><time>2026-05-01T08:54:37.273Z</time></trkpt><trkpt lat="42.3557309" lon="14.3065198"><ele>34.2</ele><time>2026-05-01T08:54:38.273Z</time></trkpt><trkpt lat="42.3556314" lon="14.3065514"><ele>34.6</ele><time>2026-05-01T08:54:39.273Z</time></trkpt><trkpt lat="42.3555231" lon="14.3065956"><ele>35.0</ele><time>2026-05-01T08:54:40.273Z</time></trkpt><trkpt lat="42.3554214" lon="14.3066441"><ele>35.0</ele><time>2026-05-01T08:54:41.273Z</time></trkpt><trkpt lat="42.3553405" lon="14.3066828"><ele>35.0</ele><time>2026-05-01T08:54:42.274Z</time></trkpt><trkpt lat="42.3552706" lon="14.3067212"><ele>35.0</ele><time>2026-05-01T08:54:43.273Z</time></trkpt><trkpt lat="42.3552059" lon="14.3067594"><ele>35.0</ele><time>2026-05-01T08:54:44.273Z</time></trkpt><trkpt lat="42.3551279" lon="14.3067928"><ele>35.0</ele><time>2026-05-01T08:54:45.273Z</time></trkpt><trkpt lat="42.3550342" lon="14.3068228"><ele>35.0</ele><time>2026-05-01T08:54:46.273Z</time></trkpt><trkpt lat="42.3549402" lon="14.306861"><ele>35.0</ele><time>2026-05-01T08:54:47.273Z</time></trkpt><trkpt lat="42.3548386" lon="14.3069025"><ele>35.0</ele><time>2026-05-01T08:54:48.273Z</time></trkpt><trkpt lat="42.3547354" lon="14.3069405"><ele>35.0</ele><time>2026-05-01T08:54:49.273Z</time></trkpt><trkpt lat="42.3546359" lon="14.3069706"><ele>35.0</ele><time>2026-05-01T08:54:50.273Z</time></trkpt><trkpt lat="42.3545485" lon="14.3070011"><ele>35.0</ele><time>2026-05-01T08:54:51.273Z</time></trkpt><trkpt lat="42.3544662" lon="14.3070352"><ele>35.0</ele><time>2026-05-01T08:54:52.273Z</time></trkpt><trkpt lat="42.3543812" lon="14.307072"><ele>35.0</ele><time>2026-05-01T08:54:53.273Z</time></trkpt><trkpt lat="42.3542995" lon="14.3071169"><ele>35.0</ele><time>2026-05-01T08:54:54.273Z</time></trkpt><trkpt lat="42.3542157" lon="14.307175"><ele>35.0</ele><time>2026-05-01T08:54:55.273Z</time></trkpt><trkpt lat="42.3541332" lon="14.3072399"><ele>35.0</ele><time>2026-05-01T08:54:56.273Z</time></trkpt><trkpt lat="42.3540666" lon="14.30729"><ele>35.0</ele><time>2026-05-01T08:54:57.273Z</time></trkpt><trkpt lat="42.3540071" lon="14.3073282"><ele>36.0</ele><time>2026-05-01T08:54:58.273Z</time></trkpt><trkpt lat="42.3539067" lon="14.3073899"><ele>37.0</ele><time>2026-05-01T08:55:00.273Z</time></trkpt><trkpt lat="42.35384" lon="14.30743"><ele>38.0</ele><time>2026-05-01T08:55:09.273Z</time></trkpt><trkpt lat="42.3537467" lon="14.3074417"><ele>39.0</ele><time>2026-05-01T08:55:11.274Z</time></trkpt><trkpt lat="42.3536483" lon="14.307415"><ele>40.0</ele><time>2026-05-01T08:55:13.273Z</time></trkpt><trkpt lat="42.353545" lon="14.3074"><ele>40.0</ele><time>2026-05-01T08:55:15.273Z</time></trkpt><trkpt lat="42.3534317" lon="14.3074067"><ele>40.0</ele><time>2026-05-01T08:55:17.273Z</time></trkpt><trkpt lat="42.353315" lon="14.3074983"><ele>40.0</ele><time>2026-05-01T08:55:19.273Z</time></trkpt><trkpt lat="42.35325" lon="14.30756"><ele>40.0</ele><time>2026-05-01T08:55:20.273Z</time></trkpt><trkpt lat="42.3531817" lon="14.3076233"><ele>40.0</ele><time>2026-05-01T08:55:21.273Z</time></trkpt><trkpt lat="42.3531133" lon="14.30767"><ele>40.0</ele><time>2026-05-01T08:55:22.273Z</time></trkpt><trkpt lat="42.353045" lon="14.3077033"><ele>40.0</ele><time>2026-05-01T08:55:23.273Z</time></trkpt><trkpt lat="42.3529833" lon="14.3077317"><ele>40.0</ele><time>2026-05-01T08:55:24.273Z</time></trkpt><trkpt lat="42.352865" lon="14.3077283"><ele>40.0</ele><time>2026-05-01T08:55:26.273Z</time></trkpt><trkpt lat="42.3528017" lon="14.3077033"><ele>40.0</ele><time>2026-05-01T08:55:27.273Z</time></trkpt><trkpt lat="42.3527333" lon="14.307665"><ele>40.0</ele><time>2026-05-01T08:55:28.273Z</time></trkpt><trkpt lat="42.352655" lon="14.3076317"><ele>39.8</ele><time>2026-05-01T08:55:29.273Z</time></trkpt><trkpt lat="42.3525817" lon="14.3076033"><ele>39.6</ele><time>2026-05-01T08:55:30.273Z</time></trkpt><trkpt lat="42.3524967" lon="14.307575"><ele>39.4</ele><time>2026-05-01T08:55:31.273Z</time></trkpt><trkpt lat="42.3524017" lon="14.3075767"><ele>39.2</ele><time>2026-05-01T08:55:32.273Z</time></trkpt><trkpt lat="42.3522867" lon="14.30759"><ele>39.0</ele><time>2026-05-01T08:55:33.273Z</time></trkpt><trkpt lat="42.3521583" lon="14.3076117"><ele>39.0</ele><time>2026-05-01T08:55:34.273Z</time></trkpt><trkpt lat="42.3520217" lon="14.307635"><ele>39.0</ele><time>2026-05-01T08:55:35.273Z</time></trkpt><trkpt lat="42.3518817" lon="14.3076583"><ele>39.0</ele><time>2026-05-01T08:55:36.273Z</time></trkpt><trkpt lat="42.35175" lon="14.30768"><ele>39.0</ele><time>2026-05-01T08:55:37.273Z</time></trkpt><trkpt lat="42.351615" lon="14.30771"><ele>39.0</ele><time>2026-05-01T08:55:38.273Z</time></trkpt><trkpt lat="42.3514783" lon="14.3077333"><ele>39.0</ele><time>2026-05-01T08:55:39.273Z</time></trkpt><trkpt lat="42.3513433" lon="14.3077517"><ele>39.0</ele><time>2026-05-01T08:55:40.273Z</time></trkpt><trkpt lat="42.3512067" lon="14.30777"><ele>39.0</ele><time>2026-05-01T08:55:41.273Z</time></trkpt><trkpt lat="42.351085" lon="14.3077833"><ele>39.8</ele><time>2026-05-01T08:55:42.273Z</time></trkpt><trkpt lat="42.35098" lon="14.307805"><ele>40.599999999999994</ele><time>2026-05-01T08:55:43.273Z</time></trkpt><trkpt lat="42.3508883" lon="14.307815"><ele>41.4</ele><time>2026-05-01T08:55:44.273Z</time></trkpt><trkpt lat="42.350795" lon="14.3078217"><ele>42.199999999999996</ele><time>2026-05-01T08:55:45.273Z</time></trkpt><trkpt lat="42.350695" lon="14.3078283"><ele>43.0</ele><time>2026-05-01T08:55:46.273Z</time></trkpt><trkpt lat="42.3505933" lon="14.307835"><ele>43.25</ele><time>2026-05-01T08:55:47.273Z</time></trkpt><trkpt lat="42.35048" lon="14.3078533"><ele>43.5</ele><time>2026-05-01T08:55:48.273Z</time></trkpt><trkpt lat="42.350365" lon="14.3078867"><ele>43.75</ele><time>2026-05-01T08:55:49.273Z</time></trkpt><trkpt lat="42.350235" lon="14.30795"><ele>44.0</ele><time>2026-05-01T08:55:50.273Z</time></trkpt><trkpt lat="42.3500983" lon="14.30802"><ele>44.0</ele><time>2026-05-01T08:55:51.273Z</time></trkpt><trkpt lat="42.349965" lon="14.3080883"><ele>44.0</ele><time>2026-05-01T08:55:52.273Z</time></trkpt><trkpt lat="42.3498417" lon="14.3081517"><ele>44.0</ele><time>2026-05-01T08:55:53.273Z</time></trkpt><trkpt lat="42.349725" lon="14.3082183"><ele>44.0</ele><time>2026-05-01T08:55:54.273Z</time></trkpt><trkpt lat="42.3496217" lon="14.3082683"><ele>43.83333333333333</ele><time>2026-05-01T08:55:55.273Z</time></trkpt><trkpt lat="42.3495233" lon="14.3083233"><ele>43.666666666666664</ele><time>2026-05-01T08:55:56.273Z</time></trkpt><trkpt lat="42.34944" lon="14.308355"><ele>43.5</ele><time>2026-05-01T08:55:57.273Z</time></trkpt><trkpt lat="42.3493717" lon="14.308365"><ele>43.333333333333336</ele><time>2026-05-01T08:55:58.273Z</time></trkpt><trkpt lat="42.34931" lon="14.3083433"><ele>43.16666666666667</ele><time>2026-05-01T08:55:59.274Z</time></trkpt><trkpt lat="42.3492317" lon="14.30824"><ele>43.0</ele><time>2026-05-01T08:56:01.273Z</time></trkpt><trkpt lat="42.34922" lon="14.308145"><ele>42.8</ele><time>2026-05-01T08:56:02.273Z</time></trkpt><trkpt lat="42.3492133" lon="14.3080467"><ele>42.599999999999994</ele><time>2026-05-01T08:56:03.273Z</time></trkpt><trkpt lat="42.3491967" lon="14.3079583"><ele>42.400000000000006</ele><time>2026-05-01T08:56:04.273Z</time></trkpt><trkpt lat="42.3491133" lon="14.3078583"><ele>42.2</ele><time>2026-05-01T08:56:06.273Z</time></trkpt><trkpt lat="42.349005" lon="14.3078533"><ele>42.0</ele><time>2026-05-01T08:56:08.273Z</time></trkpt><trkpt lat="42.3489167" lon="14.3077767"><ele>42.0</ele><time>2026-05-01T08:56:10.273Z</time></trkpt><trkpt lat="42.3488867" lon="14.30763"><ele>42.0</ele><time>2026-05-01T08:56:12.273Z</time></trkpt><trkpt lat="42.348875" lon="14.3075417"><ele>42.0</ele><time>2026-05-01T08:56:13.273Z</time></trkpt><trkpt lat="42.34885" lon="14.3074317"><ele>42.0</ele><time>2026-05-01T08:56:14.273Z</time></trkpt><trkpt lat="42.34883" lon="14.3073083"><ele>42.0</ele><time>2026-05-01T08:56:15.273Z</time></trkpt><trkpt lat="42.3488067" lon="14.3071967"><ele>42.0</ele><time>2026-05-01T08:56:16.273Z</time></trkpt><trkpt lat="42.348785" lon="14.3070883"><ele>42.0</ele><time>2026-05-01T08:56:17.273Z</time></trkpt><trkpt lat="42.3487567" lon="14.3069633"><ele>42.0</ele><time>2026-05-01T08:56:18.273Z</time></trkpt><trkpt lat="42.3487283" lon="14.306845"><ele>42.0</ele><time>2026-05-01T08:56:19.274Z</time></trkpt><trkpt lat="42.348695" lon="14.30674"><ele>42.0</ele><time>2026-05-01T08:56:20.273Z</time></trkpt><trkpt lat="42.3486633" lon="14.3066533"><ele>42.0</ele><time>2026-05-01T08:56:21.273Z</time></trkpt><trkpt lat="42.348605" lon="14.3065117"><ele>43.2</ele><time>2026-05-01T08:56:23.273Z</time></trkpt><trkpt lat="42.34859" lon="14.3063767"><ele>44.400000000000006</ele><time>2026-05-01T08:56:25.273Z</time></trkpt><trkpt lat="42.3486417" lon="14.3062283"><ele>45.599999999999994</ele><time>2026-05-01T08:56:27.273Z</time></trkpt><trkpt lat="42.3486933" lon="14.3061417"><ele>46.8</ele><time>2026-05-01T08:56:28.273Z</time></trkpt><trkpt lat="42.3487533" lon="14.3060517"><ele>48.0</ele><time>2026-05-01T08:56:29.273Z</time></trkpt><trkpt lat="42.3488133" lon="14.305965"><ele>48.0</ele><time>2026-05-01T08:56:30.274Z</time></trkpt><trkpt lat="42.3488633" lon="14.3058717"><ele>48.0</ele><time>2026-05-01T08:56:31.273Z</time></trkpt><trkpt lat="42.348895" lon="14.30578"><ele>48.0</ele><time>2026-05-01T08:56:32.273Z</time></trkpt><trkpt lat="42.3488933" lon="14.3056267"><ele>48.0</ele><time>2026-05-01T08:56:34.273Z</time></trkpt><trkpt lat="42.3488233" lon="14.3055017"><ele>48.0</ele><time>2026-05-01T08:56:36.273Z</time></trkpt><trkpt lat="42.3487683" lon="14.3054583"><ele>49.166666666666664</ele><time>2026-05-01T08:56:37.273Z</time></trkpt><trkpt lat="42.3487083" lon="14.30542"><ele>50.33333333333333</ele><time>2026-05-01T08:56:38.274Z</time></trkpt><trkpt lat="42.3486033" lon="14.3053967"><ele>51.5</ele><time>2026-05-01T08:56:40.273Z</time></trkpt><trkpt lat="42.3485317" lon="14.30539"><ele>52.666666666666664</ele><time>2026-05-01T08:56:45.273Z</time></trkpt><trkpt lat="42.3484533" lon="14.3054133"><ele>53.83333333333333</ele><time>2026-05-01T08:56:47.274Z</time></trkpt><trkpt lat="42.3483867" lon="14.3054667"><ele>55.0</ele><time>2026-05-01T08:56:48.273Z</time></trkpt><trkpt lat="42.3483117" lon="14.3055433"><ele>55.0</ele><time>2026-05-01T08:56:49.273Z</time></trkpt><trkpt lat="42.3482283" lon="14.30564"><ele>55.0</ele><time>2026-05-01T08:56:50.274Z</time></trkpt><trkpt lat="42.3481433" lon="14.3057367"><ele>55.0</ele><time>2026-05-01T08:56:51.273Z</time></trkpt><trkpt lat="42.3480483" lon="14.3058333"><ele>55.0</ele><time>2026-05-01T08:56:52.273Z</time></trkpt><trkpt lat="42.3479533" lon="14.3059217"><ele>55.0</ele><time>2026-05-01T08:56:53.273Z</time></trkpt><trkpt lat="42.3478617" lon="14.3060217"><ele>55.0</ele><time>2026-05-01T08:56:54.273Z</time></trkpt><trkpt lat="42.3477717" lon="14.3061183"><ele>55.0</ele><time>2026-05-01T08:56:55.274Z</time></trkpt><trkpt lat="42.3476867" lon="14.30621"><ele>55.0</ele><time>2026-05-01T08:56:56.273Z</time></trkpt><trkpt lat="42.347595" lon="14.306315"><ele>55.0</ele><time>2026-05-01T08:56:57.273Z</time></trkpt><trkpt lat="42.3474883" lon="14.3064083"><ele>55.0</ele><time>2026-05-01T08:56:58.273Z</time></trkpt><trkpt lat="42.34737" lon="14.3064933"><ele>55.0</ele><time>2026-05-01T08:56:59.273Z</time></trkpt><trkpt lat="42.34724" lon="14.3065683"><ele>55.0</ele><time>2026-05-01T08:57:00.273Z</time></trkpt><trkpt lat="42.3471" lon="14.3066417"><ele>54.25</ele><time>2026-05-01T08:57:01.273Z</time></trkpt><trkpt lat="42.3469633" lon="14.3067083"><ele>53.5</ele><time>2026-05-01T08:57:02.273Z</time></trkpt><trkpt lat="42.3468333" lon="14.3067733"><ele>52.75</ele><time>2026-05-01T08:57:03.273Z</time></trkpt><trkpt lat="42.34671" lon="14.3068467"><ele>52.0</ele><time>2026-05-01T08:57:04.273Z</time></trkpt><trkpt lat="42.346575" lon="14.306915"><ele>52.0</ele><time>2026-05-01T08:57:05.273Z</time></trkpt><trkpt lat="42.3464317" lon="14.3069717"><ele>52.0</ele><time>2026-05-01T08:57:06.273Z</time></trkpt><trkpt lat="42.3462767" lon="14.3070517"><ele>52.0</ele><time>2026-05-01T08:57:07.274Z</time></trkpt><trkpt lat="42.3461433" lon="14.307115"><ele>52.25</ele><time>2026-05-01T08:57:08.273Z</time></trkpt><trkpt lat="42.346025" lon="14.307175"><ele>52.5</ele><time>2026-05-01T08:57:09.273Z</time></trkpt><trkpt lat="42.34591" lon="14.3072417"><ele>52.75</ele><time>2026-05-01T08:57:10.273Z</time></trkpt><trkpt lat="42.3457967" lon="14.307305"><ele>53.0</ele><time>2026-05-01T08:57:11.273Z</time></trkpt><trkpt lat="42.345675" lon="14.3073667"><ele>51.75</ele><time>2026-05-01T08:57:12.273Z</time></trkpt><trkpt lat="42.345555" lon="14.307435"><ele>50.5</ele><time>2026-05-01T08:57:13.273Z</time></trkpt><trkpt lat="42.3454317" lon="14.3075033"><ele>49.25</ele><time>2026-05-01T08:57:14.273Z</time></trkpt><trkpt lat="42.345305" lon="14.3075783"><ele>48.0</ele><time>2026-05-01T08:57:15.273Z</time></trkpt><trkpt lat="42.3451783" lon="14.3076517"><ele>48.0</ele><time>2026-05-01T08:57:16.273Z</time></trkpt><trkpt lat="42.345055" lon="14.307725"><ele>48.0</ele><time>2026-05-01T08:57:17.273Z</time></trkpt><trkpt lat="42.3449283" lon="14.3078017"><ele>48.0</ele><time>2026-05-01T08:57:18.273Z</time></trkpt><trkpt lat="42.3448" lon="14.307875"><ele>48.0</ele><time>2026-05-01T08:57:19.273Z</time></trkpt><trkpt lat="42.344675" lon="14.3079533"><ele>48.25</ele><time>2026-05-01T08:57:20.273Z</time></trkpt><trkpt lat="42.3445417" lon="14.3080333"><ele>48.5</ele><time>2026-05-01T08:57:21.273Z</time></trkpt><trkpt lat="42.3444133" lon="14.308105"><ele>48.75</ele><time>2026-05-01T08:57:22.273Z</time></trkpt><trkpt lat="42.3442933" lon="14.3081717"><ele>49.0</ele><time>2026-05-01T08:57:23.273Z</time></trkpt><trkpt lat="42.3441817" lon="14.30824"><ele>47.800000000000004</ele><time>2026-05-01T08:57:24.274Z</time></trkpt><trkpt lat="42.34408" lon="14.3083067"><ele>46.6</ele><time>2026-05-01T08:57:25.273Z</time></trkpt><trkpt lat="42.3439917" lon="14.30836"><ele>45.4</ele><time>2026-05-01T08:57:26.273Z</time></trkpt><trkpt lat="42.3439317" lon="14.308405"><ele>44.2</ele><time>2026-05-01T08:57:27.274Z</time></trkpt><trkpt lat="42.3438367" lon="14.3084467"><ele>43.0</ele><time>2026-05-01T08:57:29.273Z</time></trkpt><trkpt lat="42.3437583" lon="14.3084217"><ele>43.0</ele><time>2026-05-01T08:57:32.273Z</time></trkpt><trkpt lat="42.3436783" lon="14.3084833"><ele>43.0</ele><time>2026-05-01T08:57:35.273Z</time></trkpt><trkpt lat="42.3435967" lon="14.3084767"><ele>43.0</ele><time>2026-05-01T08:57:38.273Z</time></trkpt><trkpt lat="42.3435183" lon="14.308485"><ele>43.0</ele><time>2026-05-01T09:04:14.272Z</time></trkpt><trkpt lat="42.3434683" lon="14.3085433"><ele>43.0</ele><time>2026-05-01T09:04:16.272Z</time></trkpt><trkpt lat="42.3433667" lon="14.3085367"><ele>43.0</ele><time>2026-05-01T09:04:19.272Z</time></trkpt><trkpt lat="42.3432517" lon="14.308465"><ele>43.0</ele><time>2026-05-01T09:04:21.272Z</time></trkpt><trkpt lat="42.3431933" lon="14.30841"><ele>43.0</ele><time>2026-05-01T09:04:22.272Z</time></trkpt><trkpt lat="42.3431267" lon="14.3083467"><ele>43.0</ele><time>2026-05-01T09:04:23.273Z</time></trkpt><trkpt lat="42.3430633" lon="14.3082833"><ele>43.0</ele><time>2026-05-01T09:04:24.272Z</time></trkpt><trkpt lat="42.3429917" lon="14.308215"><ele>43.0</ele><time>2026-05-01T09:04:25.273Z</time></trkpt><trkpt lat="42.3429133" lon="14.3081467"><ele>43.0</ele><time>2026-05-01T09:04:26.272Z</time></trkpt><trkpt lat="42.3428483" lon="14.3080817"><ele>43.833333333333336</ele><time>2026-05-01T09:04:27.272Z</time></trkpt><trkpt lat="42.3427867" lon="14.3080233"><ele>44.66666666666667</ele><time>2026-05-01T09:04:28.272Z</time></trkpt><trkpt lat="42.3427217" lon="14.307965"><ele>45.5</ele><time>2026-05-01T09:04:29.272Z</time></trkpt><trkpt lat="42.3426617" lon="14.3079167"><ele>46.333333333333336</ele><time>2026-05-01T09:04:30.272Z</time></trkpt><trkpt lat="42.342565" lon="14.30786"><ele>47.166666666666664</ele><time>2026-05-01T09:04:32.272Z</time></trkpt><trkpt lat="42.3424717" lon="14.307835"><ele>48.0</ele><time>2026-05-01T09:04:34.272Z</time></trkpt><trkpt lat="42.34237" lon="14.3078467"><ele>48.0</ele><time>2026-05-01T09:04:36.273Z</time></trkpt><trkpt lat="42.342305" lon="14.30786"><ele>48.0</ele><time>2026-05-01T09:04:37.272Z</time></trkpt><trkpt lat="42.34218" lon="14.3079067"><ele>48.0</ele><time>2026-05-01T09:04:39.272Z</time></trkpt><trkpt lat="42.34211" lon="14.3079383"><ele>48.0</ele><time>2026-05-01T09:04:40.272Z</time></trkpt><trkpt lat="42.3420467" lon="14.3079767"><ele>48.0</ele><time>2026-05-01T09:04:41.272Z</time></trkpt><trkpt lat="42.3419783" lon="14.3080117"><ele>48.0</ele><time>2026-05-01T09:04:42.273Z</time></trkpt><trkpt lat="42.3419117" lon="14.3080533"><ele>47.599999999999994</ele><time>2026-05-01T09:04:43.272Z</time></trkpt><trkpt lat="42.3418517" lon="14.3080917"><ele>47.199999999999996</ele><time>2026-05-01T09:04:44.272Z</time></trkpt><trkpt lat="42.34174" lon="14.3081483"><ele>46.8</ele><time>2026-05-01T09:04:46.272Z</time></trkpt><trkpt lat="42.3416333" lon="14.3081967"><ele>46.4</ele><time>2026-05-01T09:04:48.272Z</time></trkpt><trkpt lat="42.3415117" lon="14.30826"><ele>46.0</ele><time>2026-05-01T09:04:50.272Z</time></trkpt><trkpt lat="42.3414417" lon="14.3083"><ele>45.66666666666667</ele><time>2026-05-01T09:04:51.272Z</time></trkpt><trkpt lat="42.3413667" lon="14.3083317"><ele>45.333333333333336</ele><time>2026-05-01T09:04:52.272Z</time></trkpt><trkpt lat="42.3412883" lon="14.308365"><ele>45.0</ele><time>2026-05-01T09:04:53.272Z</time></trkpt><trkpt lat="42.34122" lon="14.30839"><ele>44.666666666666664</ele><time>2026-05-01T09:04:54.272Z</time></trkpt><trkpt lat="42.3411117" lon="14.308435"><ele>44.33333333333333</ele><time>2026-05-01T09:04:56.272Z</time></trkpt><trkpt lat="42.34103" lon="14.3084667"><ele>44.0</ele><time>2026-05-01T09:04:58.272Z</time></trkpt><trkpt lat="42.3409633" lon="14.3084817"><ele>44.0</ele><time>2026-05-01T09:05:00.272Z</time></trkpt><trkpt lat="42.3409017" lon="14.308505"><ele>44.0</ele><time>2026-05-01T09:05:04.273Z</time></trkpt><trkpt lat="42.3408267" lon="14.3085333"><ele>44.0</ele><time>2026-05-01T09:05:48.272Z</time></trkpt><trkpt lat="42.3407633" lon="14.3085533"><ele>44.0</ele><time>2026-05-01T09:05:50.272Z</time></trkpt><trkpt lat="42.340675" lon="14.3085667"><ele>44.0</ele><time>2026-05-01T09:05:53.272Z</time></trkpt><trkpt lat="42.34059" lon="14.3085733"><ele>44.0</ele><time>2026-05-01T09:05:56.272Z</time></trkpt><trkpt lat="42.34046" lon="14.30857"><ele>44.33333333333333</ele><time>2026-05-01T09:07:47.272Z</time></trkpt><trkpt lat="42.3403117" lon="14.3085917"><ele>44.666666666666664</ele><time>2026-05-01T09:08:06.272Z</time></trkpt><trkpt lat="42.3402417" lon="14.3085917"><ele>45.0</ele><time>2026-05-01T09:08:09.272Z</time></trkpt><trkpt lat="42.3401667" lon="14.3086"><ele>45.333333333333336</ele><time>2026-05-01T09:08:14.272Z</time></trkpt><trkpt lat="42.3401033" lon="14.3086133"><ele>45.66666666666667</ele><time>2026-05-01T09:08:17.272Z</time></trkpt><trkpt lat="42.3400383" lon="14.3086267"><ele>46.0</ele><time>2026-05-01T09:08:24.272Z</time></trkpt><trkpt lat="42.3399667" lon="14.3086133"><ele>46.0</ele><time>2026-05-01T09:08:29.272Z</time></trkpt><trkpt lat="42.3399056" lon="14.3085815"><ele>46.0</ele><time>2026-05-01T09:08:33.355Z</time></trkpt><trkpt lat="42.3398262" lon="14.3085394"><ele>46.0</ele><time>2026-05-01T09:08:37.389Z</time></trkpt><trkpt lat="42.3397545" lon="14.3084991"><ele>46.0</ele><time>2026-05-01T09:08:40.207Z</time></trkpt><trkpt lat="42.3396833" lon="14.3084642"><ele>46.0</ele><time>2026-05-01T09:08:42.287Z</time></trkpt><trkpt lat="42.3396047" lon="14.3084273"><ele>46.0</ele><time>2026-05-01T09:08:44.266Z</time></trkpt><trkpt lat="42.3395219" lon="14.3083714"><ele>45.8</ele><time>2026-05-01T09:08:46.287Z</time></trkpt><trkpt lat="42.3394215" lon="14.3083023"><ele>45.599999999999994</ele><time>2026-05-01T09:08:48.806Z</time></trkpt><trkpt lat="42.3393567" lon="14.30824"><ele>45.4</ele><time>2026-05-01T09:08:52.272Z</time></trkpt><trkpt lat="42.339255" lon="14.3081533"><ele>45.2</ele><time>2026-05-01T09:12:07.271Z</time></trkpt><trkpt lat="42.33921" lon="14.3080817"><ele>45.0</ele><time>2026-05-01T09:12:08.272Z</time></trkpt><trkpt lat="42.33916" lon="14.308005"><ele>45.333333333333336</ele><time>2026-05-01T09:12:09.271Z</time></trkpt><trkpt lat="42.3391083" lon="14.307925"><ele>45.666666666666664</ele><time>2026-05-01T09:12:10.271Z</time></trkpt><trkpt lat="42.3390633" lon="14.307855"><ele>46.0</ele><time>2026-05-01T09:12:11.272Z</time></trkpt><trkpt lat="42.3390217" lon="14.3077867"><ele>46.33333333333333</ele><time>2026-05-01T09:12:12.271Z</time></trkpt><trkpt lat="42.3389517" lon="14.307665"><ele>46.666666666666664</ele><time>2026-05-01T09:12:14.271Z</time></trkpt><trkpt lat="42.3388883" lon="14.3075533"><ele>47.0</ele><time>2026-05-01T09:12:16.271Z</time></trkpt><trkpt lat="42.3388217" lon="14.3074483"><ele>47.0</ele><time>2026-05-01T09:12:18.271Z</time></trkpt><trkpt lat="42.338745" lon="14.3073417"><ele>47.0</ele><time>2026-05-01T09:12:20.271Z</time></trkpt><trkpt lat="42.3386683" lon="14.3072683"><ele>47.0</ele><time>2026-05-01T09:12:22.272Z</time></trkpt><trkpt lat="42.3386" lon="14.3072017"><ele>47.0</ele><time>2026-05-01T09:12:24.271Z</time></trkpt><trkpt lat="42.3385317" lon="14.3071217"><ele>47.0</ele><time>2026-05-01T09:12:26.271Z</time></trkpt><trkpt lat="42.3384333" lon="14.3070367"><ele>48.0</ele><time>2026-05-01T09:12:28.271Z</time></trkpt><trkpt lat="42.3383767" lon="14.3069883"><ele>49.0</ele><time>2026-05-01T09:12:29.272Z</time></trkpt><trkpt lat="42.3382733" lon="14.306895"><ele>50.0</ele><time>2026-05-01T09:12:31.271Z</time></trkpt><trkpt lat="42.338185" lon="14.306815"><ele>51.0</ele><time>2026-05-01T09:12:33.271Z</time></trkpt><trkpt lat="42.3381233" lon="14.3067467"><ele>52.0</ele><time>2026-05-01T09:12:35.272Z</time></trkpt><trkpt lat="42.3380561" lon="14.3066948"><ele>51.400000000000006</ele><time>2026-05-01T09:12:38.339Z</time></trkpt><trkpt lat="42.3379383" lon="14.3066517"><ele>50.800000000000004</ele><time>2026-05-01T09:13:04.271Z</time></trkpt><trkpt lat="42.3378233" lon="14.30665"><ele>50.2</ele><time>2026-05-01T09:13:06.271Z</time></trkpt><trkpt lat="42.33775" lon="14.306655"><ele>49.6</ele><time>2026-05-01T09:13:08.271Z</time></trkpt><trkpt lat="42.337665" lon="14.3066767"><ele>49.0</ele><time>2026-05-01T09:13:11.271Z</time></trkpt><trkpt lat="42.3376033" lon="14.306695"><ele>48.99999999999999</ele><time>2026-05-01T09:13:13.271Z</time></trkpt><trkpt lat="42.3375217" lon="14.30672"><ele>49.0</ele><time>2026-05-01T09:13:16.271Z</time></trkpt><trkpt lat="42.3374517" lon="14.3067367"><ele>49.0</ele><time>2026-05-01T09:13:19.271Z</time></trkpt><trkpt lat="42.3373767" lon="14.30674"><ele>49.0</ele><time>2026-05-01T09:13:21.271Z</time></trkpt><trkpt lat="42.3372883" lon="14.30674"><ele>48.99999999999999</ele><time>2026-05-01T09:13:23.271Z</time></trkpt><trkpt lat="42.3371983" lon="14.3067283"><ele>49.0</ele><time>2026-05-01T09:13:25.271Z</time></trkpt><trkpt lat="42.3371167" lon="14.3067133"><ele>49.33333333333333</ele><time>2026-05-01T09:13:27.271Z</time></trkpt><trkpt lat="42.3370317" lon="14.3066817"><ele>49.666666666666664</ele><time>2026-05-01T09:13:30.271Z</time></trkpt><trkpt lat="42.3369617" lon="14.3066483"><ele>50.0</ele><time>2026-05-01T09:13:32.271Z</time></trkpt><trkpt lat="42.3368783" lon="14.3066267"><ele>50.33333333333333</ele><time>2026-05-01T09:13:34.272Z</time></trkpt><trkpt lat="42.3368033" lon="14.3066017"><ele>50.666666666666664</ele><time>2026-05-01T09:13:36.271Z</time></trkpt><trkpt lat="42.3367317" lon="14.30661"><ele>51.0</ele><time>2026-05-01T09:13:39.271Z</time></trkpt><trkpt lat="42.336645" lon="14.3065883"><ele>51.0</ele><time>2026-05-01T09:13:42.271Z</time></trkpt><trkpt lat="42.33658" lon="14.30658"><ele>51.0</ele><time>2026-05-01T09:13:44.271Z</time></trkpt><trkpt lat="42.3364833" lon="14.3065617"><ele>51.0</ele><time>2026-05-01T09:13:47.271Z</time></trkpt><trkpt lat="42.336415" lon="14.3065333"><ele>51.0</ele><time>2026-05-01T09:13:50.271Z</time></trkpt><trkpt lat="42.3363383" lon="14.3065067"><ele>51.0</ele><time>2026-05-01T09:13:54.272Z</time></trkpt><trkpt lat="42.336265" lon="14.3064667"><ele>51.0</ele><time>2026-05-01T09:13:57.271Z</time></trkpt><trkpt lat="42.336205" lon="14.3064383"><ele>51.714285714285715</ele><time>2026-05-01T09:14:00.271Z</time></trkpt><trkpt lat="42.3361417" lon="14.306395"><ele>52.42857142857143</ele><time>2026-05-01T09:14:04.271Z</time></trkpt><trkpt lat="42.33609" lon="14.3063333"><ele>53.14285714285714</ele><time>2026-05-01T09:14:07.271Z</time></trkpt><trkpt lat="42.3360317" lon="14.3062617"><ele>53.85714285714286</ele><time>2026-05-01T09:14:10.271Z</time></trkpt><trkpt lat="42.3359867" lon="14.3062"><ele>54.57142857142857</ele><time>2026-05-01T09:14:13.271Z</time></trkpt><trkpt lat="42.335935" lon="14.306115"><ele>55.285714285714285</ele><time>2026-05-01T09:14:16.271Z</time></trkpt><trkpt lat="42.335895" lon="14.3060333"><ele>56.0</ele><time>2026-05-01T09:14:19.271Z</time></trkpt><trkpt lat="42.3358567" lon="14.305965"><ele>56.00000000000001</ele><time>2026-05-01T09:14:21.272Z</time></trkpt><trkpt lat="42.3357954" lon="14.3059162"><ele>56.0</ele><time>2026-05-01T09:14:27.324Z</time></trkpt><trkpt lat="42.3357322" lon="14.3058837"><ele>56.0</ele><time>2026-05-01T09:14:30.426Z</time></trkpt><trkpt lat="42.3356628" lon="14.305837"><ele>56.0</ele><time>2026-05-01T09:14:36.361Z</time></trkpt><trkpt lat="42.3356733" lon="14.3056838"><ele>56.00000000000001</ele><time>2026-05-01T09:14:43.271Z</time></trkpt><trkpt lat="42.3357109" lon="14.3055552"><ele>56.0</ele><time>2026-05-01T09:14:44.271Z</time></trkpt><trkpt lat="42.3357604" lon="14.3054117"><ele>57.4</ele><time>2026-05-01T09:14:45.271Z</time></trkpt><trkpt lat="42.3358139" lon="14.3052754"><ele>58.8</ele><time>2026-05-01T09:14:46.271Z</time></trkpt><trkpt lat="42.3358556" lon="14.3051653"><ele>60.199999999999996</ele><time>2026-05-01T09:14:47.271Z</time></trkpt><trkpt lat="42.335885" lon="14.3050793"><ele>61.599999999999994</ele><time>2026-05-01T09:14:48.271Z</time></trkpt><trkpt lat="42.3359153" lon="14.3049345"><ele>63.0</ele><time>2026-05-01T09:14:50.271Z</time></trkpt><trkpt lat="42.3358833" lon="14.3048567"><ele>64.66666666666667</ele><time>2026-05-01T09:14:51.271Z</time></trkpt><trkpt lat="42.3358183" lon="14.304705"><ele>66.33333333333333</ele><time>2026-05-01T09:14:53.271Z</time></trkpt><trkpt lat="42.3357783" lon="14.304625"><ele>68.0</ele><time>2026-05-01T09:14:54.271Z</time></trkpt><trkpt lat="42.33574" lon="14.3045417"><ele>69.66666666666666</ele><time>2026-05-01T09:14:55.271Z</time></trkpt><trkpt lat="42.3356967" lon="14.30446"><ele>71.33333333333333</ele><time>2026-05-01T09:14:56.271Z</time></trkpt><trkpt lat="42.335645" lon="14.304385"><ele>73.0</ele><time>2026-05-01T09:14:57.271Z</time></trkpt><trkpt lat="42.3355717" lon="14.304315"><ele>72.5</ele><time>2026-05-01T09:14:58.271Z</time></trkpt><trkpt lat="42.335505" lon="14.3042483"><ele>72.0</ele><time>2026-05-01T09:14:59.271Z</time></trkpt><trkpt lat="42.3354233" lon="14.304175"><ele>71.5</ele><time>2026-05-01T09:15:01.271Z</time></trkpt><trkpt lat="42.3353933" lon="14.30405"><ele>71.0</ele><time>2026-05-01T09:15:03.271Z</time></trkpt><trkpt lat="42.33538" lon="14.3039433"><ele>70.5</ele><time>2026-05-01T09:15:04.271Z</time></trkpt><trkpt lat="42.33537" lon="14.3038567"><ele>70.0</ele><time>2026-05-01T09:15:05.272Z</time></trkpt><trkpt lat="42.33531" lon="14.3037867"><ele>72.0</ele><time>2026-05-01T09:15:07.271Z</time></trkpt><trkpt lat="42.33526" lon="14.3037183"><ele>74.0</ele><time>2026-05-01T09:15:09.271Z</time></trkpt><trkpt lat="42.33526" lon="14.3036317"><ele>76.0</ele><time>2026-05-01T09:15:11.271Z</time></trkpt><trkpt lat="42.335175" lon="14.30356"><ele>78.0</ele><time>2026-05-01T09:15:15.271Z</time></trkpt><trkpt lat="42.3351033" lon="14.3035533"><ele>80.0</ele><time>2026-05-01T09:15:16.272Z</time></trkpt><trkpt lat="42.33504" lon="14.3035333"><ele>82.0</ele><time>2026-05-01T09:15:17.271Z</time></trkpt><trkpt lat="42.334975" lon="14.3035133"><ele>84.0</ele><time>2026-05-01T09:15:18.271Z</time></trkpt><trkpt lat="42.3349" lon="14.3034717"><ele>84.0</ele><time>2026-05-01T09:15:19.271Z</time></trkpt><trkpt lat="42.334825" lon="14.3034233"><ele>84.0</ele><time>2026-05-01T09:15:20.271Z</time></trkpt><trkpt lat="42.3347567" lon="14.3033667"><ele>84.0</ele><time>2026-05-01T09:15:21.272Z</time></trkpt><trkpt lat="42.33469" lon="14.30331"><ele>84.0</ele><time>2026-05-01T09:15:22.272Z</time></trkpt><trkpt lat="42.334615" lon="14.303255"><ele>84.0</ele><time>2026-05-01T09:15:23.271Z</time></trkpt><trkpt lat="42.3345467" lon="14.30319"><ele>84.0</ele><time>2026-05-01T09:15:24.271Z</time></trkpt><trkpt lat="42.334485" lon="14.3031067"><ele>82.8</ele><time>2026-05-01T09:15:25.271Z</time></trkpt><trkpt lat="42.3344233" lon="14.3030183"><ele>81.60000000000001</ele><time>2026-05-01T09:15:26.271Z</time></trkpt><trkpt lat="42.334365" lon="14.3029033"><ele>80.4</ele><time>2026-05-01T09:15:27.271Z</time></trkpt><trkpt lat="42.334315" lon="14.302785"><ele>79.2</ele><time>2026-05-01T09:15:28.272Z</time></trkpt><trkpt lat="42.3342667" lon="14.302695"><ele>78.0</ele><time>2026-05-01T09:15:29.271Z</time></trkpt><trkpt lat="42.3342183" lon="14.3026033"><ele>78.0</ele><time>2026-05-01T09:15:30.272Z</time></trkpt><trkpt lat="42.3341633" lon="14.3025083"><ele>78.0</ele><time>2026-05-01T09:15:31.271Z</time></trkpt><trkpt lat="42.334105" lon="14.30242"><ele>78.0</ele><time>2026-05-01T09:15:32.271Z</time></trkpt><trkpt lat="42.3340583" lon="14.3023417"><ele>78.0</ele><time>2026-05-01T09:15:33.271Z</time></trkpt><trkpt lat="42.333995" lon="14.30226"><ele>78.0</ele><time>2026-05-01T09:15:34.272Z</time></trkpt><trkpt lat="42.3339283" lon="14.302165"><ele>78.0</ele><time>2026-05-01T09:15:35.271Z</time></trkpt><trkpt lat="42.3338617" lon="14.30207"><ele>76.6</ele><time>2026-05-01T09:15:36.271Z</time></trkpt><trkpt lat="42.3338017" lon="14.3019717"><ele>75.19999999999999</ele><time>2026-05-01T09:15:37.272Z</time></trkpt><trkpt lat="42.3337367" lon="14.3018683"><ele>73.8</ele><time>2026-05-01T09:15:38.271Z</time></trkpt><trkpt lat="42.3336733" lon="14.3017717"><ele>72.39999999999999</ele><time>2026-05-01T09:15:39.271Z</time></trkpt><trkpt lat="42.3336083" lon="14.30168"><ele>71.0</ele><time>2026-05-01T09:15:40.271Z</time></trkpt><trkpt lat="42.3335417" lon="14.3015983"><ele>71.0</ele><time>2026-05-01T09:15:41.271Z</time></trkpt><trkpt lat="42.333485" lon="14.30154"><ele>71.0</ele><time>2026-05-01T09:15:42.271Z</time></trkpt><trkpt lat="42.3334117" lon="14.30154"><ele>71.0</ele><time>2026-05-01T09:15:43.271Z</time></trkpt><trkpt lat="42.33328" lon="14.3016017"><ele>71.0</ele><time>2026-05-01T09:15:45.271Z</time></trkpt><trkpt lat="42.3332" lon="14.30166"><ele>71.0</ele><time>2026-05-01T09:15:46.271Z</time></trkpt><trkpt lat="42.3331217" lon="14.3017233"><ele>70.2</ele><time>2026-05-01T09:15:47.271Z</time></trkpt><trkpt lat="42.3330383" lon="14.3017817"><ele>69.39999999999999</ele><time>2026-05-01T09:15:48.271Z</time></trkpt><trkpt lat="42.33294" lon="14.3018167"><ele>68.6</ele><time>2026-05-01T09:15:49.271Z</time></trkpt><trkpt lat="42.3328383" lon="14.3018367"><ele>67.8</ele><time>2026-05-01T09:15:50.271Z</time></trkpt><trkpt lat="42.3327333" lon="14.3018333"><ele>67.0</ele><time>2026-05-01T09:15:51.271Z</time></trkpt><trkpt lat="42.3326133" lon="14.301795"><ele>67.0</ele><time>2026-05-01T09:15:52.271Z</time></trkpt><trkpt lat="42.3324883" lon="14.30174"><ele>67.0</ele><time>2026-05-01T09:15:53.272Z</time></trkpt><trkpt lat="42.3323767" lon="14.301685"><ele>67.0</ele><time>2026-05-01T09:15:54.271Z</time></trkpt><trkpt lat="42.3322617" lon="14.3016317"><ele>67.0</ele><time>2026-05-01T09:15:55.271Z</time></trkpt><trkpt lat="42.332145" lon="14.301575"><ele>64.75</ele><time>2026-05-01T09:15:56.271Z</time></trkpt><trkpt lat="42.332045" lon="14.3015383"><ele>62.5</ele><time>2026-05-01T09:15:57.271Z</time></trkpt><trkpt lat="42.3319283" lon="14.3014667"><ele>60.25</ele><time>2026-05-01T09:15:58.272Z</time></trkpt><trkpt lat="42.331805" lon="14.301375"><ele>58.0</ele><time>2026-05-01T09:15:59.272Z</time></trkpt><trkpt lat="42.3316733" lon="14.30129"><ele>59.75</ele><time>2026-05-01T09:16:00.271Z</time></trkpt><trkpt lat="42.3315483" lon="14.30123"><ele>61.5</ele><time>2026-05-01T09:16:01.271Z</time></trkpt><trkpt lat="42.331425" lon="14.3011583"><ele>63.25</ele><time>2026-05-01T09:16:02.271Z</time></trkpt><trkpt lat="42.3312983" lon="14.301065"><ele>65.0</ele><time>2026-05-01T09:16:03.271Z</time></trkpt><trkpt lat="42.3311767" lon="14.30098"><ele>65.0</ele><time>2026-05-01T09:16:04.272Z</time></trkpt><trkpt lat="42.3310567" lon="14.3009083"><ele>65.0</ele><time>2026-05-01T09:16:05.271Z</time></trkpt><trkpt lat="42.33093" lon="14.3008383"><ele>65.0</ele><time>2026-05-01T09:16:06.271Z</time></trkpt><trkpt lat="42.33081" lon="14.30074"><ele>65.0</ele><time>2026-05-01T09:16:07.271Z</time></trkpt><trkpt lat="42.3306883" lon="14.3006533"><ele>65.0</ele><time>2026-05-01T09:16:08.271Z</time></trkpt><trkpt lat="42.33056" lon="14.3005867"><ele>65.0</ele><time>2026-05-01T09:16:09.272Z</time></trkpt><trkpt lat="42.3304367" lon="14.3005367"><ele>65.0</ele><time>2026-05-01T09:16:10.271Z</time></trkpt><trkpt lat="42.3303133" lon="14.3004983"><ele>65.0</ele><time>2026-05-01T09:16:11.271Z</time></trkpt><trkpt lat="42.3302017" lon="14.30046"><ele>64.75</ele><time>2026-05-01T09:16:12.271Z</time></trkpt><trkpt lat="42.33007" lon="14.3004167"><ele>64.5</ele><time>2026-05-01T09:16:13.272Z</time></trkpt><trkpt lat="42.329945" lon="14.3003883"><ele>64.25</ele><time>2026-05-01T09:16:14.271Z</time></trkpt><trkpt lat="42.32982" lon="14.3003683"><ele>64.0</ele><time>2026-05-01T09:16:15.271Z</time></trkpt><trkpt lat="42.3297133" lon="14.3003417"><ele>64.0</ele><time>2026-05-01T09:16:16.272Z</time></trkpt><trkpt lat="42.3295717" lon="14.3003033"><ele>64.0</ele><time>2026-05-01T09:16:17.271Z</time></trkpt><trkpt lat="42.3294417" lon="14.30028"><ele>64.0</ele><time>2026-05-01T09:16:18.271Z</time></trkpt><trkpt lat="42.3293117" lon="14.3002467"><ele>64.0</ele><time>2026-05-01T09:16:19.271Z</time></trkpt><trkpt lat="42.3291767" lon="14.3002217"><ele>64.0</ele><time>2026-05-01T09:16:20.271Z</time></trkpt><trkpt lat="42.329005" lon="14.3001633"><ele>64.0</ele><time>2026-05-01T09:16:21.271Z</time></trkpt><trkpt lat="42.32884" lon="14.3000967"><ele>64.0</ele><time>2026-05-01T09:16:22.271Z</time></trkpt><trkpt lat="42.3286983" lon="14.3000567"><ele>63.33333333333333</ele><time>2026-05-01T09:16:23.271Z</time></trkpt><trkpt lat="42.3285633" lon="14.30002"><ele>62.66666666666667</ele><time>2026-05-01T09:16:24.271Z</time></trkpt><trkpt lat="42.3284083" lon="14.2999583"><ele>62.0</ele><time>2026-05-01T09:16:25.271Z</time></trkpt><trkpt lat="42.3282367" lon="14.299875"><ele>62.0</ele><time>2026-05-01T09:16:26.271Z</time></trkpt><trkpt lat="42.32804" lon="14.2997817"><ele>62.0</ele><time>2026-05-01T09:16:27.271Z</time></trkpt><trkpt lat="42.327825" lon="14.2996783"><ele>62.0</ele><time>2026-05-01T09:16:28.271Z</time></trkpt><trkpt lat="42.3276317" lon="14.29956"><ele>63.0</ele><time>2026-05-01T09:16:29.271Z</time></trkpt><trkpt lat="42.3274583" lon="14.299455"><ele>64.0</ele><time>2026-05-01T09:16:30.271Z</time></trkpt><trkpt lat="42.3273017" lon="14.2993667"><ele>65.0</ele><time>2026-05-01T09:16:31.271Z</time></trkpt><trkpt lat="42.327155" lon="14.2992717"><ele>65.0</ele><time>2026-05-01T09:16:32.271Z</time></trkpt><trkpt lat="42.3270067" lon="14.2991617"><ele>65.0</ele><time>2026-05-01T09:16:33.271Z</time></trkpt><trkpt lat="42.3268483" lon="14.29907"><ele>65.0</ele><time>2026-05-01T09:16:34.271Z</time></trkpt><trkpt lat="42.3266917" lon="14.2989567"><ele>66.5</ele><time>2026-05-01T09:16:35.271Z</time></trkpt><trkpt lat="42.3265433" lon="14.2988717"><ele>68.0</ele><time>2026-05-01T09:16:36.271Z</time></trkpt><trkpt lat="42.3264167" lon="14.29879"><ele>69.5</ele><time>2026-05-01T09:16:37.272Z</time></trkpt><trkpt lat="42.326315" lon="14.298715"><ele>71.0</ele><time>2026-05-01T09:16:38.271Z</time></trkpt><trkpt lat="42.3262133" lon="14.2986417"><ele>71.0</ele><time>2026-05-01T09:16:39.271Z</time></trkpt><trkpt lat="42.3261383" lon="14.2985633"><ele>71.0</ele><time>2026-05-01T09:16:40.271Z</time></trkpt><trkpt lat="42.326085" lon="14.2984667"><ele>71.0</ele><time>2026-05-01T09:16:41.271Z</time></trkpt><trkpt lat="42.32605" lon="14.2983633"><ele>71.0</ele><time>2026-05-01T09:16:42.271Z</time></trkpt><trkpt lat="42.3260233" lon="14.2982383"><ele>71.0</ele><time>2026-05-01T09:16:43.271Z</time></trkpt><trkpt lat="42.325995" lon="14.29813"><ele>71.0</ele><time>2026-05-01T09:16:44.271Z</time></trkpt><trkpt lat="42.3259483" lon="14.2980383"><ele>73.4</ele><time>2026-05-01T09:16:45.271Z</time></trkpt><trkpt lat="42.32588" lon="14.2979633"><ele>75.8</ele><time>2026-05-01T09:16:46.271Z</time></trkpt><trkpt lat="42.3258067" lon="14.2979483"><ele>78.2</ele><time>2026-05-01T09:16:47.271Z</time></trkpt><trkpt lat="42.325695" lon="14.2979617"><ele>80.60000000000001</ele><time>2026-05-01T09:16:48.271Z</time></trkpt><trkpt lat="42.3255833" lon="14.2979967"><ele>83.0</ele><time>2026-05-01T09:16:49.271Z</time></trkpt><trkpt lat="42.325445" lon="14.2980567"><ele>80.66666666666667</ele><time>2026-05-01T09:16:50.271Z</time></trkpt><trkpt lat="42.3252967" lon="14.29813"><ele>78.33333333333333</ele><time>2026-05-01T09:16:51.271Z</time></trkpt><trkpt lat="42.3251533" lon="14.2982117"><ele>76.0</ele><time>2026-05-01T09:16:52.271Z</time></trkpt><trkpt lat="42.3250267" lon="14.2982833"><ele>76.0</ele><time>2026-05-01T09:16:53.271Z</time></trkpt><trkpt lat="42.324925" lon="14.29834"><ele>76.0</ele><time>2026-05-01T09:16:54.271Z</time></trkpt><trkpt lat="42.3248383" lon="14.2983833"><ele>76.0</ele><time>2026-05-01T09:16:55.271Z</time></trkpt><trkpt lat="42.324755" lon="14.2983867"><ele>76.0</ele><time>2026-05-01T09:16:56.271Z</time></trkpt><trkpt lat="42.3246383" lon="14.2983467"><ele>76.0</ele><time>2026-05-01T09:16:57.271Z</time></trkpt><trkpt lat="42.3245267" lon="14.2982733"><ele>77.0</ele><time>2026-05-01T09:16:58.271Z</time></trkpt><trkpt lat="42.324425" lon="14.2981917"><ele>78.0</ele><time>2026-05-01T09:16:59.271Z</time></trkpt><trkpt lat="42.3243033" lon="14.2980967"><ele>79.0</ele><time>2026-05-01T09:17:00.272Z</time></trkpt><trkpt lat="42.3241733" lon="14.2980167"><ele>80.0</ele><time>2026-05-01T09:17:01.271Z</time></trkpt><trkpt lat="42.3240467" lon="14.2978917"><ele>82.66666666666667</ele><time>2026-05-01T09:17:02.271Z</time></trkpt><trkpt lat="42.323915" lon="14.29775"><ele>85.33333333333333</ele><time>2026-05-01T09:17:03.271Z</time></trkpt><trkpt lat="42.3237767" lon="14.29762"><ele>88.0</ele><time>2026-05-01T09:17:04.271Z</time></trkpt><trkpt lat="42.3236183" lon="14.2975"><ele>88.0</ele><time>2026-05-01T09:17:05.272Z</time></trkpt><trkpt lat="42.323455" lon="14.2973967"><ele>88.0</ele><time>2026-05-01T09:17:06.271Z</time></trkpt><trkpt lat="42.3233033" lon="14.297305"><ele>88.0</ele><time>2026-05-01T09:17:07.271Z</time></trkpt><trkpt lat="42.3231717" lon="14.2972333"><ele>91.75</ele><time>2026-05-01T09:17:08.271Z</time></trkpt><trkpt lat="42.3230383" lon="14.2971567"><ele>95.5</ele><time>2026-05-01T09:17:09.271Z</time></trkpt><trkpt lat="42.3229067" lon="14.2970867"><ele>99.25</ele><time>2026-05-01T09:17:10.271Z</time></trkpt><trkpt lat="42.322765" lon="14.2970267"><ele>103.0</ele><time>2026-05-01T09:17:11.271Z</time></trkpt><trkpt lat="42.3226383" lon="14.2969767"><ele>103.0</ele><time>2026-05-01T09:17:12.271Z</time></trkpt><trkpt lat="42.322505" lon="14.29693"><ele>103.0</ele><time>2026-05-01T09:17:13.271Z</time></trkpt><trkpt lat="42.3223617" lon="14.296875"><ele>103.0</ele><time>2026-05-01T09:17:14.271Z</time></trkpt><trkpt lat="42.32221" lon="14.2968267"><ele>103.0</ele><time>2026-05-01T09:17:15.271Z</time></trkpt><trkpt lat="42.32207" lon="14.296775"><ele>102.25</ele><time>2026-05-01T09:17:16.272Z</time></trkpt><trkpt lat="42.321945" lon="14.29673"><ele>101.5</ele><time>2026-05-01T09:17:17.271Z</time></trkpt><trkpt lat="42.3218183" lon="14.2966917"><ele>100.75</ele><time>2026-05-01T09:17:18.271Z</time></trkpt><trkpt lat="42.3216917" lon="14.296645"><ele>100.0</ele><time>2026-05-01T09:17:19.271Z</time></trkpt><trkpt lat="42.32155" lon="14.2965717"><ele>100.0</ele><time>2026-05-01T09:17:20.272Z</time></trkpt><trkpt lat="42.3214183" lon="14.2964683"><ele>100.0</ele><time>2026-05-01T09:17:21.271Z</time></trkpt><trkpt lat="42.321315" lon="14.29635"><ele>100.0</ele><time>2026-05-01T09:17:22.271Z</time></trkpt><trkpt lat="42.3212233" lon="14.2962183"><ele>100.0</ele><time>2026-05-01T09:17:23.271Z</time></trkpt><trkpt lat="42.32114" lon="14.2960717"><ele>100.5</ele><time>2026-05-01T09:17:24.272Z</time></trkpt><trkpt lat="42.3210317" lon="14.2959583"><ele>101.0</ele><time>2026-05-01T09:17:25.271Z</time></trkpt><trkpt lat="42.3209017" lon="14.295865"><ele>101.5</ele><time>2026-05-01T09:17:26.271Z</time></trkpt><trkpt lat="42.3207567" lon="14.2957783"><ele>102.0</ele><time>2026-05-01T09:17:27.271Z</time></trkpt><trkpt lat="42.3206083" lon="14.2956883"><ele>100.75</ele><time>2026-05-01T09:17:28.271Z</time></trkpt><trkpt lat="42.3204733" lon="14.29561"><ele>99.5</ele><time>2026-05-01T09:17:29.271Z</time></trkpt><trkpt lat="42.3203417" lon="14.2955383"><ele>98.25</ele><time>2026-05-01T09:17:30.271Z</time></trkpt><trkpt lat="42.3202217" lon="14.295475"><ele>97.0</ele><time>2026-05-01T09:17:31.271Z</time></trkpt><trkpt lat="42.3200967" lon="14.2954167"><ele>99.16666666666667</ele><time>2026-05-01T09:17:32.271Z</time></trkpt><trkpt lat="42.3199983" lon="14.29537"><ele>101.33333333333334</ele><time>2026-05-01T09:17:33.271Z</time></trkpt><trkpt lat="42.319915" lon="14.2953317"><ele>103.5</ele><time>2026-05-01T09:17:34.271Z</time></trkpt><trkpt lat="42.31985" lon="14.2952917"><ele>105.66666666666666</ele><time>2026-05-01T09:17:35.271Z</time></trkpt><trkpt lat="42.3198267" lon="14.29521"><ele>107.83333333333333</ele><time>2026-05-01T09:17:36.271Z</time></trkpt><trkpt lat="42.3198233" lon="14.2951017"><ele>110.0</ele><time>2026-05-01T09:17:37.271Z</time></trkpt><trkpt lat="42.3198417" lon="14.2949967"><ele>110.0</ele><time>2026-05-01T09:17:38.271Z</time></trkpt><trkpt lat="42.3198383" lon="14.294835"><ele>110.0</ele><time>2026-05-01T09:17:40.271Z</time></trkpt><trkpt lat="42.3198317" lon="14.2947433"><ele>110.0</ele><time>2026-05-01T09:17:41.271Z</time></trkpt><trkpt lat="42.3197833" lon="14.2946867"><ele>110.0</ele><time>2026-05-01T09:17:42.272Z</time></trkpt><trkpt lat="42.3196783" lon="14.29474"><ele>110.0</ele><time>2026-05-01T09:17:44.271Z</time></trkpt><trkpt lat="42.3196133" lon="14.2948183"><ele>110.0</ele><time>2026-05-01T09:17:45.271Z</time></trkpt><trkpt lat="42.319565" lon="14.2948767"><ele>110.0</ele><time>2026-05-01T09:17:46.272Z</time></trkpt><trkpt lat="42.3194283" lon="14.29487"><ele>110.0</ele><time>2026-05-01T09:17:48.271Z</time></trkpt><trkpt lat="42.319355" lon="14.2947783"><ele>110.0</ele><time>2026-05-01T09:17:49.271Z</time></trkpt><trkpt lat="42.31929" lon="14.2946517"><ele>110.0</ele><time>2026-05-01T09:17:50.271Z</time></trkpt><trkpt lat="42.31922" lon="14.2945367"><ele>110.0</ele><time>2026-05-01T09:17:51.271Z</time></trkpt><trkpt lat="42.319155" lon="14.294425"><ele>110.0</ele><time>2026-05-01T09:17:52.271Z</time></trkpt><trkpt lat="42.319075" lon="14.29433"><ele>110.0</ele><time>2026-05-01T09:17:53.271Z</time></trkpt><trkpt lat="42.3189917" lon="14.2942417"><ele>110.0</ele><time>2026-05-01T09:17:54.271Z</time></trkpt><trkpt lat="42.31891" lon="14.294145"><ele>110.0</ele><time>2026-05-01T09:17:55.271Z</time></trkpt><trkpt lat="42.3188383" lon="14.2940217"><ele>109.5</ele><time>2026-05-01T09:17:56.271Z</time></trkpt><trkpt lat="42.31877" lon="14.2938967"><ele>109.0</ele><time>2026-05-01T09:17:57.271Z</time></trkpt><trkpt lat="42.3187083" lon="14.2937617"><ele>108.5</ele><time>2026-05-01T09:17:58.271Z</time></trkpt><trkpt lat="42.318645" lon="14.2936233"><ele>108.0</ele><time>2026-05-01T09:17:59.271Z</time></trkpt><trkpt lat="42.3185983" lon="14.29349"><ele>108.0</ele><time>2026-05-01T09:18:00.272Z</time></trkpt><trkpt lat="42.31855" lon="14.293365"><ele>108.00000000000001</ele><time>2026-05-01T09:18:01.272Z</time></trkpt><trkpt lat="42.318485" lon="14.2932683"><ele>108.00000000000001</ele><time>2026-05-01T09:18:02.272Z</time></trkpt><trkpt lat="42.3183867" lon="14.2931967"><ele>108.0</ele><time>2026-05-01T09:18:03.271Z</time></trkpt><trkpt lat="42.3182683" lon="14.2931267"><ele>108.0</ele><time>2026-05-01T09:18:04.271Z</time></trkpt><trkpt lat="42.3181567" lon="14.29305"><ele>108.4</ele><time>2026-05-01T09:18:05.271Z</time></trkpt><trkpt lat="42.3180433" lon="14.2929817"><ele>108.80000000000001</ele><time>2026-05-01T09:18:06.271Z</time></trkpt><trkpt lat="42.3179417" lon="14.2929167"><ele>109.2</ele><time>2026-05-01T09:18:07.271Z</time></trkpt><trkpt lat="42.3178367" lon="14.2928633"><ele>109.6</ele><time>2026-05-01T09:18:08.271Z</time></trkpt><trkpt lat="42.31775" lon="14.2928167"><ele>110.0</ele><time>2026-05-01T09:18:09.271Z</time></trkpt><trkpt lat="42.3176817" lon="14.2927783"><ele>109.99999999999999</ele><time>2026-05-01T09:18:10.271Z</time></trkpt><trkpt lat="42.3176067" lon="14.2927417"><ele>110.0</ele><time>2026-05-01T09:18:11.272Z</time></trkpt><trkpt lat="42.31753" lon="14.2926967"><ele>110.0</ele><time>2026-05-01T09:18:12.271Z</time></trkpt><trkpt lat="42.317455" lon="14.2926433"><ele>110.0</ele><time>2026-05-01T09:18:13.271Z</time></trkpt><trkpt lat="42.3173833" lon="14.2925933"><ele>109.99999999999999</ele><time>2026-05-01T09:18:14.272Z</time></trkpt><trkpt lat="42.3173017" lon="14.2925683"><ele>110.0</ele><time>2026-05-01T09:18:15.271Z</time></trkpt><trkpt lat="42.3172167" lon="14.29257"><ele>108.0</ele><time>2026-05-01T09:18:16.271Z</time></trkpt><trkpt lat="42.317125" lon="14.2926017"><ele>106.0</ele><time>2026-05-01T09:18:17.271Z</time></trkpt><trkpt lat="42.3170417" lon="14.2926333"><ele>104.0</ele><time>2026-05-01T09:18:18.271Z</time></trkpt><trkpt lat="42.3169433" lon="14.2926483"><ele>102.0</ele><time>2026-05-01T09:18:19.271Z</time></trkpt><trkpt lat="42.316825" lon="14.2926467"><ele>100.0</ele><time>2026-05-01T09:18:20.271Z</time></trkpt><trkpt lat="42.31672" lon="14.29263"><ele>100.0</ele><time>2026-05-01T09:18:21.271Z</time></trkpt><trkpt lat="42.3166233" lon="14.292605"><ele>100.0</ele><time>2026-05-01T09:18:22.271Z</time></trkpt><trkpt lat="42.3165267" lon="14.2925883"><ele>100.0</ele><time>2026-05-01T09:18:23.272Z</time></trkpt><trkpt lat="42.3164217" lon="14.2925517"><ele>100.0</ele><time>2026-05-01T09:18:24.271Z</time></trkpt><trkpt lat="42.3163233" lon="14.2924883"><ele>100.0</ele><time>2026-05-01T09:18:25.271Z</time></trkpt><trkpt lat="42.3162267" lon="14.292405"><ele>100.4</ele><time>2026-05-01T09:18:26.271Z</time></trkpt><trkpt lat="42.3161367" lon="14.2923183"><ele>100.8</ele><time>2026-05-01T09:18:27.271Z</time></trkpt><trkpt lat="42.31604" lon="14.2922467"><ele>101.19999999999999</ele><time>2026-05-01T09:18:28.271Z</time></trkpt><trkpt lat="42.315945" lon="14.2921733"><ele>101.6</ele><time>2026-05-01T09:18:29.271Z</time></trkpt><trkpt lat="42.3158383" lon="14.292115"><ele>102.0</ele><time>2026-05-01T09:18:30.271Z</time></trkpt><trkpt lat="42.3157367" lon="14.2920633"><ele>102.0</ele><time>2026-05-01T09:18:31.271Z</time></trkpt><trkpt lat="42.3156417" lon="14.2920183"><ele>102.0</ele><time>2026-05-01T09:18:32.271Z</time></trkpt><trkpt lat="42.3155367" lon="14.2919833"><ele>102.0</ele><time>2026-05-01T09:18:33.272Z</time></trkpt><trkpt lat="42.315425" lon="14.291965"><ele>102.0</ele><time>2026-05-01T09:18:34.271Z</time></trkpt><trkpt lat="42.3153233" lon="14.2919483"><ele>102.0</ele><time>2026-05-01T09:18:35.271Z</time></trkpt><trkpt lat="42.315225" lon="14.2919217"><ele>98.5</ele><time>2026-05-01T09:18:36.271Z</time></trkpt><trkpt lat="42.3151283" lon="14.2918867"><ele>95.0</ele><time>2026-05-01T09:18:37.271Z</time></trkpt><trkpt lat="42.3150167" lon="14.2918633"><ele>91.5</ele><time>2026-05-01T09:18:38.271Z</time></trkpt><trkpt lat="42.3148867" lon="14.2918367"><ele>88.0</ele><time>2026-05-01T09:18:39.271Z</time></trkpt><trkpt lat="42.3147383" lon="14.2917983"><ele>87.25</ele><time>2026-05-01T09:18:40.271Z</time></trkpt><trkpt lat="42.3145833" lon="14.2917633"><ele>86.5</ele><time>2026-05-01T09:18:41.271Z</time></trkpt><trkpt lat="42.314445" lon="14.2917283"><ele>85.75</ele><time>2026-05-01T09:18:42.271Z</time></trkpt><trkpt lat="42.3143233" lon="14.29171"><ele>85.0</ele><time>2026-05-01T09:18:43.271Z</time></trkpt><trkpt lat="42.3142167" lon="14.2916983"><ele>85.0</ele><time>2026-05-01T09:18:44.271Z</time></trkpt><trkpt lat="42.3141167" lon="14.2916883"><ele>85.0</ele><time>2026-05-01T09:18:45.271Z</time></trkpt><trkpt lat="42.3140233" lon="14.2916917"><ele>85.0</ele><time>2026-05-01T09:18:46.271Z</time></trkpt><trkpt lat="42.3139533" lon="14.2916867"><ele>85.0</ele><time>2026-05-01T09:18:47.271Z</time></trkpt><trkpt lat="42.3138583" lon="14.2916917"><ele>85.0</ele><time>2026-05-01T09:18:49.271Z</time></trkpt><trkpt lat="42.3137949" lon="14.2917145"><ele>85.0</ele><time>2026-05-01T09:19:09.271Z</time></trkpt><trkpt lat="42.3136819" lon="14.291745"><ele>85.4</ele><time>2026-05-01T09:19:12.271Z</time></trkpt><trkpt lat="42.3135669" lon="14.2917608"><ele>85.8</ele><time>2026-05-01T09:19:13.271Z</time></trkpt><trkpt lat="42.3134679" lon="14.2917658"><ele>86.19999999999999</ele><time>2026-05-01T09:19:14.271Z</time></trkpt><trkpt lat="42.3133891" lon="14.2917605"><ele>86.6</ele><time>2026-05-01T09:19:15.271Z</time></trkpt><trkpt lat="42.3132583" lon="14.29177"><ele>87.0</ele><time>2026-05-01T09:19:17.271Z</time></trkpt><trkpt lat="42.3131517" lon="14.2918"><ele>87.0</ele><time>2026-05-01T09:19:19.271Z</time></trkpt><trkpt lat="42.31308" lon="14.29181"><ele>87.0</ele><time>2026-05-01T09:19:21.271Z</time></trkpt><trkpt lat="42.3130033" lon="14.29178"><ele>87.0</ele><time>2026-05-01T09:19:23.271Z</time></trkpt><trkpt lat="42.3129233" lon="14.2917267"><ele>87.0</ele><time>2026-05-01T09:19:25.271Z</time></trkpt><trkpt lat="42.3128733" lon="14.2916417"><ele>87.0</ele><time>2026-05-01T09:19:27.271Z</time></trkpt><trkpt lat="42.3128717" lon="14.2915033"><ele>87.0</ele><time>2026-05-01T09:19:29.271Z</time></trkpt><trkpt lat="42.3128383" lon="14.2913517"><ele>88.39999999999999</ele><time>2026-05-01T09:19:31.271Z</time></trkpt><trkpt lat="42.3128" lon="14.2912833"><ele>89.8</ele><time>2026-05-01T09:19:32.271Z</time></trkpt><trkpt lat="42.31273" lon="14.2911417"><ele>91.2</ele><time>2026-05-01T09:19:34.271Z</time></trkpt><trkpt lat="42.3126417" lon="14.29106"><ele>92.6</ele><time>2026-05-01T09:19:36.271Z</time></trkpt><trkpt lat="42.3125367" lon="14.2910167"><ele>94.0</ele><time>2026-05-01T09:19:38.271Z</time></trkpt><trkpt lat="42.3124067" lon="14.2910317"><ele>94.0</ele><time>2026-05-01T09:19:40.271Z</time></trkpt><trkpt lat="42.3123333" lon="14.2910567"><ele>94.0</ele><time>2026-05-01T09:19:41.271Z</time></trkpt><trkpt lat="42.312265" lon="14.2910883"><ele>94.0</ele><time>2026-05-01T09:19:42.271Z</time></trkpt><trkpt lat="42.3121767" lon="14.2911283"><ele>94.0</ele><time>2026-05-01T09:19:44.271Z</time></trkpt><trkpt lat="42.31211" lon="14.291175"><ele>94.0</ele><time>2026-05-01T09:19:47.271Z</time></trkpt><trkpt lat="42.3120467" lon="14.29121"><ele>94.0</ele><time>2026-05-01T09:19:51.271Z</time></trkpt><trkpt lat="42.3119912" lon="14.2912574"><ele>94.16666666666666</ele><time>2026-05-01T09:19:56.371Z</time></trkpt><trkpt lat="42.3119241" lon="14.2912868"><ele>94.33333333333333</ele><time>2026-05-01T09:20:02.325Z</time></trkpt><trkpt lat="42.3118508" lon="14.2912727"><ele>94.5</ele><time>2026-05-01T09:20:07.323Z</time></trkpt><trkpt lat="42.3117711" lon="14.2912545"><ele>94.66666666666667</ele><time>2026-05-01T09:20:11.363Z</time></trkpt><trkpt lat="42.3116921" lon="14.291292"><ele>94.83333333333334</ele><time>2026-05-01T09:20:14.34Z</time></trkpt><trkpt lat="42.3116305" lon="14.2913457"><ele>95.0</ele><time>2026-05-01T09:20:17.368Z</time></trkpt><trkpt lat="42.3115562" lon="14.291391"><ele>95.0</ele><time>2026-05-01T09:20:20.294Z</time></trkpt><trkpt lat="42.3114299" lon="14.2914105"><ele>95.0</ele><time>2026-05-01T09:20:22.271Z</time></trkpt><trkpt lat="42.3113418" lon="14.2913998"><ele>95.0</ele><time>2026-05-01T09:20:23.271Z</time></trkpt><trkpt lat="42.3112508" lon="14.2913614"><ele>95.0</ele><time>2026-05-01T09:20:24.271Z</time></trkpt><trkpt lat="42.311161" lon="14.2912927"><ele>95.0</ele><time>2026-05-01T09:20:25.271Z</time></trkpt><trkpt lat="42.3110827" lon="14.2911946"><ele>95.5</ele><time>2026-05-01T09:20:26.271Z</time></trkpt><trkpt lat="42.3110155" lon="14.2911026"><ele>96.0</ele><time>2026-05-01T09:20:27.271Z</time></trkpt><trkpt lat="42.3109637" lon="14.2910302"><ele>96.5</ele><time>2026-05-01T09:20:28.271Z</time></trkpt><trkpt lat="42.3109167" lon="14.2909583"><ele>97.0</ele><time>2026-05-01T09:20:29.271Z</time></trkpt><trkpt lat="42.3108633" lon="14.290905"><ele>97.49999999999999</ele><time>2026-05-01T09:20:30.271Z</time></trkpt><trkpt lat="42.310805" lon="14.2908633"><ele>98.0</ele><time>2026-05-01T09:20:31.271Z</time></trkpt><trkpt lat="42.3107333" lon="14.2908183"><ele>97.99999999999999</ele><time>2026-05-01T09:20:32.271Z</time></trkpt><trkpt lat="42.310665" lon="14.290785"><ele>98.0</ele><time>2026-05-01T09:20:33.271Z</time></trkpt><trkpt lat="42.3105817" lon="14.29075"><ele>98.0</ele><time>2026-05-01T09:20:34.271Z</time></trkpt><trkpt lat="42.31049" lon="14.2907167"><ele>98.0</ele><time>2026-05-01T09:20:35.272Z</time></trkpt><trkpt lat="42.3104033" lon="14.2906967"><ele>97.99999999999999</ele><time>2026-05-01T09:20:36.271Z</time></trkpt><trkpt lat="42.3103217" lon="14.2906833"><ele>98.0</ele><time>2026-05-01T09:20:37.271Z</time></trkpt><trkpt lat="42.3102467" lon="14.2906767"><ele>99.66666666666666</ele><time>2026-05-01T09:20:38.272Z</time></trkpt><trkpt lat="42.3101733" lon="14.2906733"><ele>101.33333333333333</ele><time>2026-05-01T09:20:39.272Z</time></trkpt><trkpt lat="42.31009" lon="14.290675"><ele>103.0</ele><time>2026-05-01T09:20:40.271Z</time></trkpt><trkpt lat="42.3100133" lon="14.2906733"><ele>104.66666666666666</ele><time>2026-05-01T09:20:41.271Z</time></trkpt><trkpt lat="42.3099317" lon="14.29066"><ele>106.33333333333333</ele><time>2026-05-01T09:20:42.272Z</time></trkpt><trkpt lat="42.309855" lon="14.2906417"><ele>108.0</ele><time>2026-05-01T09:20:43.271Z</time></trkpt><trkpt lat="42.309765" lon="14.2906033"><ele>109.4</ele><time>2026-05-01T09:20:45.271Z</time></trkpt><trkpt lat="42.3096867" lon="14.2905583"><ele>110.80000000000001</ele><time>2026-05-01T09:20:47.271Z</time></trkpt><trkpt lat="42.3096067" lon="14.290595"><ele>112.2</ele><time>2026-05-01T09:20:49.271Z</time></trkpt><trkpt lat="42.3095017" lon="14.2907333"><ele>113.6</ele><time>2026-05-01T09:20:51.271Z</time></trkpt><trkpt lat="42.3094483" lon="14.2908117"><ele>115.0</ele><time>2026-05-01T09:20:52.271Z</time></trkpt><trkpt lat="42.3093783" lon="14.2908917"><ele>115.0</ele><time>2026-05-01T09:20:53.271Z</time></trkpt><trkpt lat="42.30931" lon="14.290975"><ele>115.0</ele><time>2026-05-01T09:20:54.271Z</time></trkpt><trkpt lat="42.3092283" lon="14.2910533"><ele>115.0</ele><time>2026-05-01T09:20:55.271Z</time></trkpt><trkpt lat="42.30913" lon="14.2911233"><ele>115.0</ele><time>2026-05-01T09:20:56.271Z</time></trkpt><trkpt lat="42.3090633" lon="14.2911867"><ele>115.0</ele><time>2026-05-01T09:20:57.271Z</time></trkpt><trkpt lat="42.3089783" lon="14.2912267"><ele>114.66666666666667</ele><time>2026-05-01T09:20:58.271Z</time></trkpt><trkpt lat="42.30889" lon="14.2912567"><ele>114.33333333333334</ele><time>2026-05-01T09:20:59.271Z</time></trkpt><trkpt lat="42.30882" lon="14.2912833"><ele>114.0</ele><time>2026-05-01T09:21:00.271Z</time></trkpt><trkpt lat="42.3087467" lon="14.29132"><ele>113.66666666666666</ele><time>2026-05-01T09:21:01.271Z</time></trkpt><trkpt lat="42.3086833" lon="14.2913667"><ele>113.33333333333333</ele><time>2026-05-01T09:21:02.272Z</time></trkpt><trkpt lat="42.308625" lon="14.2914133"><ele>113.0</ele><time>2026-05-01T09:21:03.271Z</time></trkpt><trkpt lat="42.30854" lon="14.2914883"><ele>113.0</ele><time>2026-05-01T09:21:04.271Z</time></trkpt><trkpt lat="42.3084683" lon="14.2915667"><ele>113.00000000000001</ele><time>2026-05-01T09:21:05.271Z</time></trkpt><trkpt lat="42.3084" lon="14.2916583"><ele>113.00000000000001</ele><time>2026-05-01T09:21:06.271Z</time></trkpt><trkpt lat="42.30833" lon="14.2917417"><ele>113.0</ele><time>2026-05-01T09:21:07.271Z</time></trkpt><trkpt lat="42.308255" lon="14.2918233"><ele>113.0</ele><time>2026-05-01T09:21:08.271Z</time></trkpt><trkpt lat="42.3081783" lon="14.2919017"><ele>113.0</ele><time>2026-05-01T09:21:09.272Z</time></trkpt><trkpt lat="42.3081033" lon="14.29196"><ele>113.00000000000001</ele><time>2026-05-01T09:21:10.271Z</time></trkpt><trkpt lat="42.308035" lon="14.2920033"><ele>113.00000000000001</ele><time>2026-05-01T09:21:11.271Z</time></trkpt><trkpt lat="42.3079533" lon="14.292045"><ele>113.0</ele><time>2026-05-01T09:21:12.271Z</time></trkpt><trkpt lat="42.3078567" lon="14.2920733"><ele>113.0</ele><time>2026-05-01T09:21:13.271Z</time></trkpt><trkpt lat="42.3077433" lon="14.2921183"><ele>112.80000000000001</ele><time>2026-05-01T09:21:14.271Z</time></trkpt><trkpt lat="42.307625" lon="14.2921683"><ele>112.60000000000001</ele><time>2026-05-01T09:21:15.271Z</time></trkpt><trkpt lat="42.3075083" lon="14.292225"><ele>112.39999999999999</ele><time>2026-05-01T09:21:16.271Z</time></trkpt><trkpt lat="42.3074233" lon="14.2922667"><ele>112.19999999999999</ele><time>2026-05-01T09:21:17.271Z</time></trkpt><trkpt lat="42.307325" lon="14.2923033"><ele>112.0</ele><time>2026-05-01T09:21:18.271Z</time></trkpt><trkpt lat="42.30723" lon="14.2923317"><ele>112.50000000000001</ele><time>2026-05-01T09:21:19.271Z</time></trkpt><trkpt lat="42.3071467" lon="14.2923417"><ele>113.0</ele><time>2026-05-01T09:21:20.271Z</time></trkpt><trkpt lat="42.307055" lon="14.2923533"><ele>113.5</ele><time>2026-05-01T09:21:21.271Z</time></trkpt><trkpt lat="42.3069667" lon="14.2923667"><ele>114.0</ele><time>2026-05-01T09:21:22.271Z</time></trkpt><trkpt lat="42.3068733" lon="14.2923933"><ele>114.50000000000001</ele><time>2026-05-01T09:21:23.271Z</time></trkpt><trkpt lat="42.3067933" lon="14.2924317"><ele>115.0</ele><time>2026-05-01T09:21:24.271Z</time></trkpt><trkpt lat="42.3066883" lon="14.2924667"><ele>115.0</ele><time>2026-05-01T09:21:25.271Z</time></trkpt><trkpt lat="42.3065967" lon="14.2925117"><ele>115.0</ele><time>2026-05-01T09:21:26.271Z</time></trkpt><trkpt lat="42.3064833" lon="14.2925583"><ele>115.0</ele><time>2026-05-01T09:21:27.271Z</time></trkpt><trkpt lat="42.3063733" lon="14.2925983"><ele>115.0</ele><time>2026-05-01T09:21:28.271Z</time></trkpt><trkpt lat="42.3062767" lon="14.29261"><ele>115.0</ele><time>2026-05-01T09:21:29.271Z</time></trkpt><trkpt lat="42.3061783" lon="14.292615"><ele>116.0</ele><time>2026-05-01T09:21:30.271Z</time></trkpt><trkpt lat="42.3060683" lon="14.292605"><ele>117.0</ele><time>2026-05-01T09:21:31.271Z</time></trkpt><trkpt lat="42.305945" lon="14.29259"><ele>118.0</ele><time>2026-05-01T09:21:32.271Z</time></trkpt><trkpt lat="42.3058167" lon="14.2925733"><ele>119.0</ele><time>2026-05-01T09:21:33.271Z</time></trkpt><trkpt lat="42.3056867" lon="14.2925583"><ele>119.0</ele><time>2026-05-01T09:21:34.271Z</time></trkpt><trkpt lat="42.3055833" lon="14.29254"><ele>119.0</ele><time>2026-05-01T09:21:35.271Z</time></trkpt><trkpt lat="42.3054867" lon="14.292525"><ele>119.0</ele><time>2026-05-01T09:21:36.271Z</time></trkpt><trkpt lat="42.3053783" lon="14.292505"><ele>119.0</ele><time>2026-05-01T09:21:37.271Z</time></trkpt><trkpt lat="42.3052867" lon="14.29249"><ele>119.0</ele><time>2026-05-01T09:21:38.271Z</time></trkpt><trkpt lat="42.3052033" lon="14.2924867"><ele>119.6</ele><time>2026-05-01T09:21:39.271Z</time></trkpt><trkpt lat="42.3051317" lon="14.2924817"><ele>120.2</ele><time>2026-05-01T09:21:40.271Z</time></trkpt><trkpt lat="42.30501" lon="14.2924983"><ele>120.79999999999998</ele><time>2026-05-01T09:21:42.272Z</time></trkpt><trkpt lat="42.3048983" lon="14.2925567"><ele>121.39999999999999</ele><time>2026-05-01T09:21:44.271Z</time></trkpt><trkpt lat="42.3048333" lon="14.2926233"><ele>122.0</ele><time>2026-05-01T09:21:45.271Z</time></trkpt><trkpt lat="42.3047617" lon="14.2926917"><ele>121.8</ele><time>2026-05-01T09:21:46.271Z</time></trkpt><trkpt lat="42.3046833" lon="14.29277"><ele>121.6</ele><time>2026-05-01T09:21:47.271Z</time></trkpt><trkpt lat="42.3046017" lon="14.2928417"><ele>121.39999999999999</ele><time>2026-05-01T09:21:48.271Z</time></trkpt><trkpt lat="42.304515" lon="14.2929067"><ele>121.19999999999999</ele><time>2026-05-01T09:21:49.271Z</time></trkpt><trkpt lat="42.3044283" lon="14.292945"><ele>121.0</ele><time>2026-05-01T09:21:50.271Z</time></trkpt><trkpt lat="42.3043517" lon="14.2929767"><ele>121.0</ele><time>2026-05-01T09:21:51.271Z</time></trkpt><trkpt lat="42.30425" lon="14.2929883"><ele>121.0</ele><time>2026-05-01T09:21:52.271Z</time></trkpt><trkpt lat="42.3041433" lon="14.2930017"><ele>121.0</ele><time>2026-05-01T09:21:53.271Z</time></trkpt><trkpt lat="42.3040333" lon="14.29302"><ele>121.0</ele><time>2026-05-01T09:21:54.272Z</time></trkpt><trkpt lat="42.3039233" lon="14.2930233"><ele>121.0</ele><time>2026-05-01T09:21:55.271Z</time></trkpt><trkpt lat="42.303805" lon="14.2930233"><ele>120.0</ele><time>2026-05-01T09:21:56.271Z</time></trkpt><trkpt lat="42.303685" lon="14.2930133"><ele>119.0</ele><time>2026-05-01T09:21:57.271Z</time></trkpt><trkpt lat="42.30358" lon="14.2930133"><ele>118.0</ele><time>2026-05-01T09:21:58.271Z</time></trkpt><trkpt lat="42.3034983" lon="14.293"><ele>117.0</ele><time>2026-05-01T09:21:59.271Z</time></trkpt><trkpt lat="42.30341" lon="14.2929933"><ele>116.0</ele><time>2026-05-01T09:22:00.271Z</time></trkpt><trkpt lat="42.3033133" lon="14.292975"><ele>116.0</ele><time>2026-05-01T09:22:01.271Z</time></trkpt><trkpt lat="42.3032017" lon="14.2929683"><ele>116.0</ele><time>2026-05-01T09:22:02.271Z</time></trkpt><trkpt lat="42.3030983" lon="14.29295"><ele>116.0</ele><time>2026-05-01T09:22:03.271Z</time></trkpt><trkpt lat="42.3029933" lon="14.29293"><ele>116.0</ele><time>2026-05-01T09:22:04.271Z</time></trkpt><trkpt lat="42.3028883" lon="14.2929117"><ele>116.0</ele><time>2026-05-01T09:22:05.272Z</time></trkpt><trkpt lat="42.3027933" lon="14.2928933"><ele>116.0</ele><time>2026-05-01T09:22:06.271Z</time></trkpt><trkpt lat="42.3026833" lon="14.2928833"><ele>116.0</ele><time>2026-05-01T09:22:07.271Z</time></trkpt><trkpt lat="42.3025717" lon="14.2928717"><ele>116.0</ele><time>2026-05-01T09:22:08.271Z</time></trkpt><trkpt lat="42.3024667" lon="14.29285"><ele>116.0</ele><time>2026-05-01T09:22:09.271Z</time></trkpt><trkpt lat="42.3023433" lon="14.2928317"><ele>116.19999999999999</ele><time>2026-05-01T09:22:10.271Z</time></trkpt><trkpt lat="42.3022283" lon="14.2928133"><ele>116.39999999999999</ele><time>2026-05-01T09:22:11.271Z</time></trkpt><trkpt lat="42.3021233" lon="14.2927983"><ele>116.6</ele><time>2026-05-01T09:22:12.272Z</time></trkpt><trkpt lat="42.3020033" lon="14.2927867"><ele>116.8</ele><time>2026-05-01T09:22:13.271Z</time></trkpt><trkpt lat="42.3019017" lon="14.2927717"><ele>117.0</ele><time>2026-05-01T09:22:14.271Z</time></trkpt><trkpt lat="42.3018017" lon="14.2927567"><ele>117.0</ele><time>2026-05-01T09:22:15.272Z</time></trkpt><trkpt lat="42.3016883" lon="14.2927367"><ele>117.0</ele><time>2026-05-01T09:22:16.271Z</time></trkpt><trkpt lat="42.30157" lon="14.2927217"><ele>117.0</ele><time>2026-05-01T09:22:17.271Z</time></trkpt><trkpt lat="42.3014333" lon="14.29269"><ele>117.0</ele><time>2026-05-01T09:22:18.271Z</time></trkpt><trkpt lat="42.3013083" lon="14.292655"><ele>117.75</ele><time>2026-05-01T09:22:19.271Z</time></trkpt><trkpt lat="42.3012017" lon="14.2926317"><ele>118.5</ele><time>2026-05-01T09:22:20.271Z</time></trkpt><trkpt lat="42.3010867" lon="14.2925933"><ele>119.25</ele><time>2026-05-01T09:22:21.272Z</time></trkpt><trkpt lat="42.3009633" lon="14.2925667"><ele>120.0</ele><time>2026-05-01T09:22:22.271Z</time></trkpt><trkpt lat="42.3008583" lon="14.2925567"><ele>120.0</ele><time>2026-05-01T09:22:23.271Z</time></trkpt><trkpt lat="42.300755" lon="14.2925517"><ele>120.0</ele><time>2026-05-01T09:22:24.271Z</time></trkpt><trkpt lat="42.3006633" lon="14.2925483"><ele>120.0</ele><time>2026-05-01T09:22:25.271Z</time></trkpt><trkpt lat="42.30058" lon="14.2925517"><ele>120.0</ele><time>2026-05-01T09:22:26.271Z</time></trkpt><trkpt lat="42.3004983" lon="14.2925467"><ele>120.0</ele><time>2026-05-01T09:22:27.271Z</time></trkpt><trkpt lat="42.3004167" lon="14.2925383"><ele>120.0</ele><time>2026-05-01T09:22:28.271Z</time></trkpt><trkpt lat="42.3003333" lon="14.2925083"><ele>120.16666666666667</ele><time>2026-05-01T09:22:29.271Z</time></trkpt><trkpt lat="42.30025" lon="14.2924617"><ele>120.33333333333334</ele><time>2026-05-01T09:22:30.271Z</time></trkpt><trkpt lat="42.3001733" lon="14.2924083"><ele>120.5</ele><time>2026-05-01T09:22:31.271Z</time></trkpt><trkpt lat="42.3001" lon="14.2923433"><ele>120.66666666666667</ele><time>2026-05-01T09:22:32.271Z</time></trkpt><trkpt lat="42.3000283" lon="14.2922767"><ele>120.83333333333334</ele><time>2026-05-01T09:22:33.271Z</time></trkpt><trkpt lat="42.2999633" lon="14.29222"><ele>121.0</ele><time>2026-05-01T09:22:34.271Z</time></trkpt><trkpt lat="42.2999" lon="14.2921617"><ele>122.83333333333334</ele><time>2026-05-01T09:22:35.271Z</time></trkpt><trkpt lat="42.2998233" lon="14.2920917"><ele>124.66666666666667</ele><time>2026-05-01T09:22:37.271Z</time></trkpt><trkpt lat="42.2997217" lon="14.292115"><ele>126.5</ele><time>2026-05-01T09:22:39.271Z</time></trkpt><trkpt lat="42.2996417" lon="14.2921433"><ele>128.33333333333334</ele><time>2026-05-01T09:22:40.272Z</time></trkpt><trkpt lat="42.2995583" lon="14.2921583"><ele>130.16666666666666</ele><time>2026-05-01T09:22:41.271Z</time></trkpt><trkpt lat="42.2994717" lon="14.2921633"><ele>132.0</ele><time>2026-05-01T09:22:42.271Z</time></trkpt><trkpt lat="42.29938" lon="14.29215"><ele>132.2</ele><time>2026-05-01T09:22:43.271Z</time></trkpt><trkpt lat="42.2992817" lon="14.2921367"><ele>132.39999999999998</ele><time>2026-05-01T09:22:44.271Z</time></trkpt><trkpt lat="42.299195" lon="14.292125"><ele>132.60000000000002</ele><time>2026-05-01T09:22:45.272Z</time></trkpt><trkpt lat="42.299105" lon="14.292115"><ele>132.8</ele><time>2026-05-01T09:22:46.271Z</time></trkpt><trkpt lat="42.2990133" lon="14.2921067"><ele>133.0</ele><time>2026-05-01T09:22:47.271Z</time></trkpt><trkpt lat="42.298915" lon="14.2921033"><ele>133.20000000000002</ele><time>2026-05-01T09:22:48.271Z</time></trkpt><trkpt lat="42.2988217" lon="14.2921033"><ele>133.4</ele><time>2026-05-01T09:22:49.271Z</time></trkpt><trkpt lat="42.29872" lon="14.2921083"><ele>133.60000000000002</ele><time>2026-05-01T09:22:50.271Z</time></trkpt><trkpt lat="42.2986217" lon="14.2921167"><ele>133.8</ele><time>2026-05-01T09:22:51.271Z</time></trkpt><trkpt lat="42.29852" lon="14.29213"><ele>134.0</ele><time>2026-05-01T09:22:52.271Z</time></trkpt><trkpt lat="42.2984167" lon="14.292135"><ele>134.0</ele><time>2026-05-01T09:22:53.271Z</time></trkpt><trkpt lat="42.29832" lon="14.2921483"><ele>134.0</ele><time>2026-05-01T09:22:54.271Z</time></trkpt><trkpt lat="42.298225" lon="14.2921567"><ele>134.0</ele><time>2026-05-01T09:22:55.271Z</time></trkpt><trkpt lat="42.298135" lon="14.29217"><ele>134.0</ele><time>2026-05-01T09:22:56.271Z</time></trkpt><trkpt lat="42.2980667" lon="14.2922017"><ele>134.0</ele><time>2026-05-01T09:22:57.271Z</time></trkpt><trkpt lat="42.2980083" lon="14.292245"><ele>134.0</ele><time>2026-05-01T09:23:00.271Z</time></trkpt><trkpt lat="42.2979683" lon="14.2923817"><ele>131.66666666666666</ele><time>2026-05-01T09:23:07.271Z</time></trkpt><trkpt lat="42.29795" lon="14.29248"><ele>129.33333333333331</ele><time>2026-05-01T09:23:08.272Z</time></trkpt><trkpt lat="42.2979383" lon="14.2925767"><ele>127.0</ele><time>2026-05-01T09:23:09.271Z</time></trkpt><trkpt lat="42.297935" lon="14.2926767"><ele>124.66666666666666</ele><time>2026-05-01T09:23:10.271Z</time></trkpt><trkpt lat="42.29793" lon="14.2927733"><ele>122.33333333333333</ele><time>2026-05-01T09:23:11.271Z</time></trkpt><trkpt lat="42.2979383" lon="14.2929217"><ele>120.0</ele><time>2026-05-01T09:23:13.271Z</time></trkpt><trkpt lat="42.29793" lon="14.29301"><ele>120.0</ele><time>2026-05-01T09:23:15.271Z</time></trkpt><trkpt lat="42.29785" lon="14.2930033"><ele>120.0</ele><time>2026-05-01T09:23:21.271Z</time></trkpt><trkpt lat="42.29777" lon="14.2929267"><ele>120.0</ele><time>2026-05-01T09:23:23.271Z</time></trkpt><trkpt lat="42.297685" lon="14.2928267"><ele>120.0</ele><time>2026-05-01T09:23:25.271Z</time></trkpt><trkpt lat="42.2975983" lon="14.2927233"><ele>120.0</ele><time>2026-05-01T09:23:27.271Z</time></trkpt><trkpt lat="42.2974917" lon="14.2926217"><ele>120.0</ele><time>2026-05-01T09:23:29.271Z</time></trkpt><trkpt lat="42.2974317" lon="14.2925633"><ele>120.0</ele><time>2026-05-01T09:23:30.272Z</time></trkpt><trkpt lat="42.297365" lon="14.2925"><ele>120.0</ele><time>2026-05-01T09:23:31.272Z</time></trkpt><trkpt lat="42.2973033" lon="14.2924367"><ele>120.0</ele><time>2026-05-01T09:23:32.271Z</time></trkpt><trkpt lat="42.2972317" lon="14.2923717"><ele>120.0</ele><time>2026-05-01T09:23:33.271Z</time></trkpt><trkpt lat="42.2971683" lon="14.2923117"><ele>120.0</ele><time>2026-05-01T09:23:34.271Z</time></trkpt><trkpt lat="42.297115" lon="14.2922533"><ele>122.5</ele><time>2026-05-01T09:23:35.271Z</time></trkpt><trkpt lat="42.2970617" lon="14.2922"><ele>125.0</ele><time>2026-05-01T09:23:36.272Z</time></trkpt><trkpt lat="42.2970067" lon="14.2921333"><ele>127.5</ele><time>2026-05-01T09:23:37.271Z</time></trkpt><trkpt lat="42.2969417" lon="14.2920717"><ele>130.0</ele><time>2026-05-01T09:23:38.271Z</time></trkpt><trkpt lat="42.29688" lon="14.292005"><ele>132.5</ele><time>2026-05-01T09:23:39.271Z</time></trkpt><trkpt lat="42.296805" lon="14.2919483"><ele>135.0</ele><time>2026-05-01T09:23:40.271Z</time></trkpt><trkpt lat="42.2967283" lon="14.291895"><ele>135.0</ele><time>2026-05-01T09:23:41.271Z</time></trkpt><trkpt lat="42.2966583" lon="14.2918483"><ele>135.0</ele><time>2026-05-01T09:23:42.271Z</time></trkpt><trkpt lat="42.2965833" lon="14.2917967"><ele>135.0</ele><time>2026-05-01T09:23:43.271Z</time></trkpt><trkpt lat="42.2965167" lon="14.2917517"><ele>135.0</ele><time>2026-05-01T09:23:44.271Z</time></trkpt><trkpt lat="42.296455" lon="14.2917117"><ele>135.0</ele><time>2026-05-01T09:23:45.271Z</time></trkpt><trkpt lat="42.296375" lon="14.291645"><ele>135.0</ele><time>2026-05-01T09:23:47.271Z</time></trkpt><trkpt lat="42.2963067" lon="14.2916033"><ele>134.66666666666666</ele><time>2026-05-01T09:23:49.271Z</time></trkpt><trkpt lat="42.2962567" lon="14.2915433"><ele>134.33333333333334</ele><time>2026-05-01T09:23:51.271Z</time></trkpt><trkpt lat="42.2962717" lon="14.29145"><ele>134.0</ele><time>2026-05-01T09:23:53.271Z</time></trkpt><trkpt lat="42.296315" lon="14.2913267"><ele>133.66666666666669</ele><time>2026-05-01T09:23:55.271Z</time></trkpt><trkpt lat="42.29635" lon="14.29119"><ele>133.33333333333334</ele><time>2026-05-01T09:23:57.271Z</time></trkpt><trkpt lat="42.2963767" lon="14.29111"><ele>133.0</ele><time>2026-05-01T09:23:58.271Z</time></trkpt><trkpt lat="42.2964017" lon="14.2910233"><ele>135.71428571428572</ele><time>2026-05-01T09:23:59.271Z</time></trkpt><trkpt lat="42.296425" lon="14.29093"><ele>138.42857142857144</ele><time>2026-05-01T09:24:00.271Z</time></trkpt><trkpt lat="42.2964533" lon="14.2908483"><ele>141.14285714285714</ele><time>2026-05-01T09:24:01.271Z</time></trkpt><trkpt lat="42.2964817" lon="14.29076"><ele>143.85714285714286</ele><time>2026-05-01T09:24:02.271Z</time></trkpt><trkpt lat="42.2965133" lon="14.29067"><ele>146.57142857142858</ele><time>2026-05-01T09:24:03.272Z</time></trkpt><trkpt lat="42.296545" lon="14.2905833"><ele>149.28571428571428</ele><time>2026-05-01T09:24:04.271Z</time></trkpt><trkpt lat="42.2965817" lon="14.2905083"><ele>152.0</ele><time>2026-05-01T09:24:05.271Z</time></trkpt><trkpt lat="42.2966267" lon="14.2904267"><ele>153.83333333333331</ele><time>2026-05-01T09:24:06.271Z</time></trkpt><trkpt lat="42.2966683" lon="14.2903567"><ele>155.66666666666666</ele><time>2026-05-01T09:24:07.271Z</time></trkpt><trkpt lat="42.2967133" lon="14.2902917"><ele>157.5</ele><time>2026-05-01T09:24:08.271Z</time></trkpt><trkpt lat="42.2967717" lon="14.2901883"><ele>159.33333333333334</ele><time>2026-05-01T09:24:10.271Z</time></trkpt><trkpt lat="42.2968167" lon="14.2900617"><ele>161.16666666666669</ele><time>2026-05-01T09:24:12.271Z</time></trkpt><trkpt lat="42.2968683" lon="14.2899217"><ele>163.0</ele><time>2026-05-01T09:24:14.271Z</time></trkpt><trkpt lat="42.2969467" lon="14.28979"><ele>166.25</ele><time>2026-05-01T09:24:16.271Z</time></trkpt><trkpt lat="42.29702" lon="14.2896533"><ele>169.5</ele><time>2026-05-01T09:24:18.271Z</time></trkpt><trkpt lat="42.2970933" lon="14.2895233"><ele>172.75</ele><time>2026-05-01T09:24:20.271Z</time></trkpt><trkpt lat="42.2971583" lon="14.2893867"><ele>176.0</ele><time>2026-05-01T09:24:22.271Z</time></trkpt><trkpt lat="42.2972133" lon="14.289245"><ele>177.33333333333331</ele><time>2026-05-01T09:24:24.271Z</time></trkpt><trkpt lat="42.29728" lon="14.289135"><ele>178.66666666666666</ele><time>2026-05-01T09:24:26.271Z</time></trkpt><trkpt lat="42.2973333" lon="14.28907"><ele>180.0</ele><time>2026-05-01T09:24:28.272Z</time></trkpt><trkpt lat="42.2974017" lon="14.2890667"><ele>181.33333333333334</ele><time>2026-05-01T09:24:30.271Z</time></trkpt><trkpt lat="42.297465" lon="14.2890917"><ele>182.66666666666669</ele><time>2026-05-01T09:24:32.271Z</time></trkpt><trkpt lat="42.2975667" lon="14.289095"><ele>184.0</ele><time>2026-05-01T09:24:35.271Z</time></trkpt><trkpt lat="42.2974833" lon="14.2890217"><ele>184.0</ele><time>2026-05-01T09:24:41.271Z</time></trkpt><trkpt lat="42.2973617" lon="14.2889833"><ele>184.0</ele><time>2026-05-01T09:24:43.271Z</time></trkpt><trkpt lat="42.297305" lon="14.28894"><ele>184.0</ele><time>2026-05-01T09:24:44.271Z</time></trkpt><trkpt lat="42.2972417" lon="14.2888983"><ele>184.0</ele><time>2026-05-01T09:24:46.271Z</time></trkpt><trkpt lat="42.2970617" lon="14.288795"><ele>185.0</ele><time>2026-05-01T09:25:04.271Z</time></trkpt><trkpt lat="42.2969367" lon="14.28878"><ele>186.0</ele><time>2026-05-01T09:25:06.271Z</time></trkpt><trkpt lat="42.2968567" lon="14.2887667"><ele>187.0</ele><time>2026-05-01T09:25:07.272Z</time></trkpt><trkpt lat="42.296775" lon="14.2887383"><ele>188.0</ele><time>2026-05-01T09:25:08.271Z</time></trkpt><trkpt lat="42.2966933" lon="14.2887167"><ele>189.0</ele><time>2026-05-01T09:25:09.271Z</time></trkpt><trkpt lat="42.2966083" lon="14.2886967"><ele>189.0</ele><time>2026-05-01T09:25:10.271Z</time></trkpt><trkpt lat="42.29653" lon="14.2886767"><ele>189.0</ele><time>2026-05-01T09:25:11.271Z</time></trkpt><trkpt lat="42.29645" lon="14.28865"><ele>189.0</ele><time>2026-05-01T09:25:12.271Z</time></trkpt><trkpt lat="42.29637" lon="14.28863"><ele>189.0</ele><time>2026-05-01T09:25:13.271Z</time></trkpt><trkpt lat="42.2962833" lon="14.2886167"><ele>189.0</ele><time>2026-05-01T09:25:14.271Z</time></trkpt><trkpt lat="42.2962033" lon="14.288585"><ele>189.0</ele><time>2026-05-01T09:25:15.271Z</time></trkpt><trkpt lat="42.2961217" lon="14.28854"><ele>185.2</ele><time>2026-05-01T09:25:16.271Z</time></trkpt><trkpt lat="42.29604" lon="14.2884817"><ele>181.39999999999998</ele><time>2026-05-01T09:25:17.271Z</time></trkpt><trkpt lat="42.295945" lon="14.2884217"><ele>177.6</ele><time>2026-05-01T09:25:18.271Z</time></trkpt><trkpt lat="42.2958617" lon="14.2883167"><ele>173.8</ele><time>2026-05-01T09:25:19.271Z</time></trkpt><trkpt lat="42.2957917" lon="14.2882017"><ele>170.0</ele><time>2026-05-01T09:25:20.272Z</time></trkpt><trkpt lat="42.2957283" lon="14.288095"><ele>172.2</ele><time>2026-05-01T09:25:21.271Z</time></trkpt><trkpt lat="42.29568" lon="14.287975"><ele>174.4</ele><time>2026-05-01T09:25:22.271Z</time></trkpt><trkpt lat="42.295635" lon="14.2878833"><ele>176.60000000000002</ele><time>2026-05-01T09:25:23.272Z</time></trkpt><trkpt lat="42.295565" lon="14.2878183"><ele>178.8</ele><time>2026-05-01T09:25:24.271Z</time></trkpt><trkpt lat="42.2954767" lon="14.2877717"><ele>181.0</ele><time>2026-05-01T09:25:25.271Z</time></trkpt><trkpt lat="42.2953817" lon="14.2877217"><ele>177.60000000000002</ele><time>2026-05-01T09:25:26.271Z</time></trkpt><trkpt lat="42.2953133" lon="14.2876333"><ele>174.2</ele><time>2026-05-01T09:25:27.271Z</time></trkpt><trkpt lat="42.2952467" lon="14.2875283"><ele>170.8</ele><time>2026-05-01T09:25:28.271Z</time></trkpt><trkpt lat="42.2951633" lon="14.2874267"><ele>167.39999999999998</ele><time>2026-05-01T09:25:29.271Z</time></trkpt><trkpt lat="42.2950683" lon="14.2873183"><ele>164.0</ele><time>2026-05-01T09:25:30.271Z</time></trkpt><trkpt lat="42.294985" lon="14.28719"><ele>164.0</ele><time>2026-05-01T09:25:31.271Z</time></trkpt><trkpt lat="42.2949067" lon="14.287055"><ele>164.0</ele><time>2026-05-01T09:25:32.271Z</time></trkpt><trkpt lat="42.2948433" lon="14.2868983"><ele>164.0</ele><time>2026-05-01T09:25:33.271Z</time></trkpt><trkpt lat="42.2947933" lon="14.28672"><ele>164.0</ele><time>2026-05-01T09:25:34.271Z</time></trkpt><trkpt lat="42.294735" lon="14.2865467"><ele>160.25</ele><time>2026-05-01T09:25:35.271Z</time></trkpt><trkpt lat="42.2946683" lon="14.2864017"><ele>156.5</ele><time>2026-05-01T09:25:36.271Z</time></trkpt><trkpt lat="42.2945917" lon="14.2862667"><ele>152.75</ele><time>2026-05-01T09:25:37.271Z</time></trkpt><trkpt lat="42.2945067" lon="14.2861517"><ele>149.0</ele><time>2026-05-01T09:25:38.272Z</time></trkpt><trkpt lat="42.2944217" lon="14.286045"><ele>149.0</ele><time>2026-05-01T09:25:39.272Z</time></trkpt><trkpt lat="42.2943183" lon="14.2859633"><ele>149.0</ele><time>2026-05-01T09:25:40.271Z</time></trkpt><trkpt lat="42.29423" lon="14.2858917"><ele>149.0</ele><time>2026-05-01T09:25:41.271Z</time></trkpt><trkpt lat="42.2941583" lon="14.2858333"><ele>149.0</ele><time>2026-05-01T09:25:42.271Z</time></trkpt><trkpt lat="42.2940983" lon="14.2857683"><ele>149.0</ele><time>2026-05-01T09:25:43.271Z</time></trkpt><trkpt lat="42.2940367" lon="14.2857417"><ele>149.0</ele><time>2026-05-01T09:25:44.271Z</time></trkpt><trkpt lat="42.29394" lon="14.2856783"><ele>147.8</ele><time>2026-05-01T09:25:46.271Z</time></trkpt><trkpt lat="42.2938283" lon="14.2855967"><ele>146.60000000000002</ele><time>2026-05-01T09:25:48.271Z</time></trkpt><trkpt lat="42.2937667" lon="14.28554"><ele>145.4</ele><time>2026-05-01T09:25:49.271Z</time></trkpt><trkpt lat="42.2936967" lon="14.2854783"><ele>144.20000000000002</ele><time>2026-05-01T09:25:50.271Z</time></trkpt><trkpt lat="42.2936267" lon="14.2854067"><ele>143.0</ele><time>2026-05-01T09:25:51.272Z</time></trkpt><trkpt lat="42.2935633" lon="14.2853433"><ele>143.0</ele><time>2026-05-01T09:25:52.271Z</time></trkpt><trkpt lat="42.2934683" lon="14.285235"><ele>143.0</ele><time>2026-05-01T09:25:54.271Z</time></trkpt><trkpt lat="42.293415" lon="14.2851833"><ele>143.0</ele><time>2026-05-01T09:25:55.271Z</time></trkpt><trkpt lat="42.293335" lon="14.2850783"><ele>143.0</ele><time>2026-05-01T09:25:57.271Z</time></trkpt><trkpt lat="42.2932617" lon="14.2849967"><ele>143.0</ele><time>2026-05-01T09:25:59.271Z</time></trkpt><trkpt lat="42.29316" lon="14.2849417"><ele>141.4</ele><time>2026-05-01T09:26:01.271Z</time></trkpt><trkpt lat="42.293055" lon="14.2848767"><ele>139.8</ele><time>2026-05-01T09:26:03.271Z</time></trkpt><trkpt lat="42.2929917" lon="14.2848317"><ele>138.2</ele><time>2026-05-01T09:26:04.271Z</time></trkpt><trkpt lat="42.2929367" lon="14.2847883"><ele>136.6</ele><time>2026-05-01T09:26:05.271Z</time></trkpt><trkpt lat="42.2928533" lon="14.2847217"><ele>135.0</ele><time>2026-05-01T09:26:07.271Z</time></trkpt><trkpt lat="42.29274" lon="14.2846617"><ele>135.0</ele><time>2026-05-01T09:26:09.271Z</time></trkpt><trkpt lat="42.2926283" lon="14.28458"><ele>135.0</ele><time>2026-05-01T09:26:11.271Z</time></trkpt><trkpt lat="42.29257" lon="14.2845133"><ele>135.0</ele><time>2026-05-01T09:26:12.272Z</time></trkpt><trkpt lat="42.2925183" lon="14.2844383"><ele>135.0</ele><time>2026-05-01T09:26:13.271Z</time></trkpt><trkpt lat="42.292455" lon="14.2843633"><ele>135.0</ele><time>2026-05-01T09:26:14.271Z</time></trkpt><trkpt lat="42.29239" lon="14.28428"><ele>135.0</ele><time>2026-05-01T09:26:15.272Z</time></trkpt><trkpt lat="42.2923217" lon="14.2842033"><ele>135.0</ele><time>2026-05-01T09:26:16.271Z</time></trkpt><trkpt lat="42.2922667" lon="14.2841317"><ele>135.0</ele><time>2026-05-01T09:26:17.271Z</time></trkpt><trkpt lat="42.2922133" lon="14.2840533"><ele>135.0</ele><time>2026-05-01T09:26:18.271Z</time></trkpt><trkpt lat="42.29217" lon="14.28398"><ele>135.0</ele><time>2026-05-01T09:26:19.271Z</time></trkpt><trkpt lat="42.2921283" lon="14.28391"><ele>135.0</ele><time>2026-05-01T09:26:20.271Z</time></trkpt><trkpt lat="42.29208" lon="14.28384"><ele>136.83333333333334</ele><time>2026-05-01T09:26:21.271Z</time></trkpt><trkpt lat="42.2920267" lon="14.28378"><ele>138.66666666666666</ele><time>2026-05-01T09:26:22.272Z</time></trkpt><trkpt lat="42.2919667" lon="14.28372"><ele>140.5</ele><time>2026-05-01T09:26:23.271Z</time></trkpt><trkpt lat="42.2919117" lon="14.28366"><ele>142.33333333333331</ele><time>2026-05-01T09:26:24.271Z</time></trkpt><trkpt lat="42.29185" lon="14.2835967"><ele>144.16666666666666</ele><time>2026-05-01T09:26:25.271Z</time></trkpt><trkpt lat="42.2917867" lon="14.2835317"><ele>146.0</ele><time>2026-05-01T09:26:26.271Z</time></trkpt><trkpt lat="42.29172" lon="14.28346"><ele>146.0</ele><time>2026-05-01T09:26:27.271Z</time></trkpt><trkpt lat="42.2916567" lon="14.2833933"><ele>146.0</ele><time>2026-05-01T09:26:28.271Z</time></trkpt><trkpt lat="42.2915817" lon="14.283335"><ele>146.0</ele><time>2026-05-01T09:26:29.271Z</time></trkpt><trkpt lat="42.2915183" lon="14.2832783"><ele>146.0</ele><time>2026-05-01T09:26:30.271Z</time></trkpt><trkpt lat="42.29145" lon="14.2832217"><ele>146.0</ele><time>2026-05-01T09:26:31.271Z</time></trkpt><trkpt lat="42.2913883" lon="14.2831633"><ele>146.0</ele><time>2026-05-01T09:26:32.271Z</time></trkpt><trkpt lat="42.2913333" lon="14.283105"><ele>146.57142857142856</ele><time>2026-05-01T09:26:33.271Z</time></trkpt><trkpt lat="42.2912783" lon="14.2830467"><ele>147.14285714285714</ele><time>2026-05-01T09:26:34.271Z</time></trkpt><trkpt lat="42.291235" lon="14.2829667"><ele>147.71428571428572</ele><time>2026-05-01T09:26:35.271Z</time></trkpt><trkpt lat="42.2911967" lon="14.28287"><ele>148.28571428571428</ele><time>2026-05-01T09:26:36.271Z</time></trkpt><trkpt lat="42.2911667" lon="14.2827717"><ele>148.85714285714286</ele><time>2026-05-01T09:26:37.271Z</time></trkpt><trkpt lat="42.2911533" lon="14.2826817"><ele>149.42857142857142</ele><time>2026-05-01T09:26:38.271Z</time></trkpt><trkpt lat="42.2911467" lon="14.2825783"><ele>150.0</ele><time>2026-05-01T09:26:39.271Z</time></trkpt><trkpt lat="42.29114" lon="14.2824833"><ele>150.0</ele><time>2026-05-01T09:26:40.271Z</time></trkpt><trkpt lat="42.2911267" lon="14.2823883"><ele>150.0</ele><time>2026-05-01T09:26:41.271Z</time></trkpt><trkpt lat="42.2910867" lon="14.28225"><ele>150.0</ele><time>2026-05-01T09:26:43.271Z</time></trkpt><trkpt lat="42.2910067" lon="14.2821283"><ele>150.0</ele><time>2026-05-01T09:26:45.271Z</time></trkpt><trkpt lat="42.2909633" lon="14.282045"><ele>150.0</ele><time>2026-05-01T09:26:46.271Z</time></trkpt><trkpt lat="42.29092" lon="14.28194"><ele>152.66666666666666</ele><time>2026-05-01T09:26:47.271Z</time></trkpt><trkpt lat="42.29088" lon="14.2818267"><ele>155.33333333333334</ele><time>2026-05-01T09:26:48.271Z</time></trkpt><trkpt lat="42.2908483" lon="14.2817233"><ele>158.0</ele><time>2026-05-01T09:26:49.272Z</time></trkpt><trkpt lat="42.2908433" lon="14.2816067"><ele>160.66666666666669</ele><time>2026-05-01T09:26:50.271Z</time></trkpt><trkpt lat="42.29085" lon="14.2814867"><ele>163.33333333333334</ele><time>2026-05-01T09:26:51.271Z</time></trkpt><trkpt lat="42.2908533" lon="14.2813717"><ele>166.0</ele><time>2026-05-01T09:26:52.271Z</time></trkpt><trkpt lat="42.2908583" lon="14.281235"><ele>168.60000000000002</ele><time>2026-05-01T09:26:53.271Z</time></trkpt><trkpt lat="42.2908617" lon="14.2810917"><ele>171.2</ele><time>2026-05-01T09:26:54.271Z</time></trkpt><trkpt lat="42.2908533" lon="14.280955"><ele>173.8</ele><time>2026-05-01T09:26:55.271Z</time></trkpt><trkpt lat="42.2908517" lon="14.2808233"><ele>176.39999999999998</ele><time>2026-05-01T09:26:56.271Z</time></trkpt><trkpt lat="42.2908467" lon="14.280685"><ele>179.0</ele><time>2026-05-01T09:26:57.271Z</time></trkpt><trkpt lat="42.2908317" lon="14.2805717"><ele>178.2857142857143</ele><time>2026-05-01T09:26:58.271Z</time></trkpt><trkpt lat="42.2908133" lon="14.280475"><ele>177.57142857142858</ele><time>2026-05-01T09:26:59.271Z</time></trkpt><trkpt lat="42.290795" lon="14.2803917"><ele>176.85714285714286</ele><time>2026-05-01T09:27:00.27Z</time></trkpt><trkpt lat="42.290765" lon="14.2803167"><ele>176.14285714285717</ele><time>2026-05-01T09:27:01.271Z</time></trkpt><trkpt lat="42.2907317" lon="14.28024"><ele>175.42857142857144</ele><time>2026-05-01T09:27:02.27Z</time></trkpt><trkpt lat="42.29069" lon="14.2801583"><ele>174.71428571428572</ele><time>2026-05-01T09:27:03.27Z</time></trkpt><trkpt lat="42.2906383" lon="14.2800733"><ele>174.0</ele><time>2026-05-01T09:27:04.27Z</time></trkpt><trkpt lat="42.29059" lon="14.27998"><ele>174.0</ele><time>2026-05-01T09:27:05.27Z</time></trkpt><trkpt lat="42.29056" lon="14.279885"><ele>174.0</ele><time>2026-05-01T09:27:06.27Z</time></trkpt><trkpt lat="42.2905267" lon="14.27979"><ele>174.0</ele><time>2026-05-01T09:27:07.27Z</time></trkpt><trkpt lat="42.290495" lon="14.2796683"><ele>174.0</ele><time>2026-05-01T09:27:08.27Z</time></trkpt><trkpt lat="42.29047" lon="14.279565"><ele>174.0</ele><time>2026-05-01T09:27:09.27Z</time></trkpt><trkpt lat="42.290455" lon="14.279465"><ele>174.0</ele><time>2026-05-01T09:27:10.271Z</time></trkpt><trkpt lat="42.290415" lon="14.2793233"><ele>177.79999999999998</ele><time>2026-05-01T09:27:12.271Z</time></trkpt><trkpt lat="42.2903683" lon="14.2792133"><ele>181.6</ele><time>2026-05-01T09:27:14.271Z</time></trkpt><trkpt lat="42.2902917" lon="14.2791183"><ele>185.4</ele><time>2026-05-01T09:27:16.271Z</time></trkpt><trkpt lat="42.2901683" lon="14.2790517"><ele>189.2</ele><time>2026-05-01T09:27:18.27Z</time></trkpt><trkpt lat="42.2901083" lon="14.279"><ele>193.0</ele><time>2026-05-01T09:27:19.27Z</time></trkpt><trkpt lat="42.29004" lon="14.2789317"><ele>194.60000000000002</ele><time>2026-05-01T09:27:20.27Z</time></trkpt><trkpt lat="42.2899933" lon="14.278835"><ele>196.20000000000002</ele><time>2026-05-01T09:27:21.271Z</time></trkpt><trkpt lat="42.2899533" lon="14.2787367"><ele>197.8</ele><time>2026-05-01T09:27:22.27Z</time></trkpt><trkpt lat="42.2899217" lon="14.278615"><ele>199.4</ele><time>2026-05-01T09:27:23.27Z</time></trkpt><trkpt lat="42.2898833" lon="14.2784783"><ele>201.0</ele><time>2026-05-01T09:27:24.27Z</time></trkpt><trkpt lat="42.2898533" lon="14.2783583"><ele>201.0</ele><time>2026-05-01T09:27:25.27Z</time></trkpt><trkpt lat="42.2898333" lon="14.278245"><ele>201.0</ele><time>2026-05-01T09:27:26.27Z</time></trkpt><trkpt lat="42.2898217" lon="14.27814"><ele>201.0</ele><time>2026-05-01T09:27:27.271Z</time></trkpt><trkpt lat="42.28981" lon="14.27804"><ele>201.0</ele><time>2026-05-01T09:27:28.27Z</time></trkpt><trkpt lat="42.2897917" lon="14.2779517"><ele>201.0</ele><time>2026-05-01T09:27:29.271Z</time></trkpt><trkpt lat="42.28977" lon="14.2778383"><ele>201.0</ele><time>2026-05-01T09:27:30.27Z</time></trkpt><trkpt lat="42.2897267" lon="14.277695"><ele>200.33333333333331</ele><time>2026-05-01T09:27:31.27Z</time></trkpt><trkpt lat="42.289675" lon="14.2774917"><ele>199.66666666666666</ele><time>2026-05-01T09:27:32.27Z</time></trkpt><trkpt lat="42.2896283" lon="14.2772917"><ele>199.0</ele><time>2026-05-01T09:27:33.271Z</time></trkpt><trkpt lat="42.2895917" lon="14.27711"><ele>201.25</ele><time>2026-05-01T09:27:34.27Z</time></trkpt><trkpt lat="42.2895717" lon="14.2769383"><ele>203.5</ele><time>2026-05-01T09:27:35.27Z</time></trkpt><trkpt lat="42.2895617" lon="14.2767367"><ele>205.75</ele><time>2026-05-01T09:27:36.271Z</time></trkpt><trkpt lat="42.28955" lon="14.2765317"><ele>208.0</ele><time>2026-05-01T09:27:37.27Z</time></trkpt><trkpt lat="42.2895417" lon="14.2763533"><ele>208.99999999999997</ele><time>2026-05-01T09:27:38.27Z</time></trkpt><trkpt lat="42.2895233" lon="14.2762167"><ele>210.0</ele><time>2026-05-01T09:27:39.27Z</time></trkpt><trkpt lat="42.289495" lon="14.27612"><ele>211.0</ele><time>2026-05-01T09:27:40.27Z</time></trkpt><trkpt lat="42.2894967" lon="14.2759683"><ele>212.0</ele><time>2026-05-01T09:27:42.271Z</time></trkpt><trkpt lat="42.2894583" lon="14.2758783"><ele>212.99999999999997</ele><time>2026-05-01T09:27:44.27Z</time></trkpt><trkpt lat="42.28938" lon="14.2758917"><ele>214.0</ele><time>2026-05-01T09:27:46.27Z</time></trkpt><trkpt lat="42.28929" lon="14.2759"><ele>214.00000000000003</ele><time>2026-05-01T09:27:49.27Z</time></trkpt><trkpt lat="42.2892267" lon="14.2759017"><ele>214.0</ele><time>2026-05-01T09:27:51.27Z</time></trkpt><trkpt lat="42.289155" lon="14.27589"><ele>214.0</ele><time>2026-05-01T09:27:54.27Z</time></trkpt><trkpt lat="42.2890921" lon="14.2758508"><ele>214.0</ele><time>2026-05-01T09:27:58.285Z</time></trkpt><trkpt lat="42.289025" lon="14.27588"><ele>214.0</ele><time>2026-05-01T09:28:11.27Z</time></trkpt><trkpt lat="42.2889567" lon="14.2758467"><ele>214.00000000000003</ele><time>2026-05-01T09:28:13.27Z</time></trkpt><trkpt lat="42.2888817" lon="14.2757983"><ele>214.0</ele><time>2026-05-01T09:28:15.271Z</time></trkpt><trkpt lat="42.2887983" lon="14.2757467"><ele>214.39999999999998</ele><time>2026-05-01T09:28:17.27Z</time></trkpt><trkpt lat="42.2887383" lon="14.27572"><ele>214.79999999999998</ele><time>2026-05-01T09:28:18.27Z</time></trkpt><trkpt lat="42.2886667" lon="14.2756833"><ele>215.20000000000002</ele><time>2026-05-01T09:28:19.27Z</time></trkpt><trkpt lat="42.2885567" lon="14.2756033"><ele>215.60000000000002</ele><time>2026-05-01T09:28:21.27Z</time></trkpt><trkpt lat="42.288465" lon="14.27551"><ele>216.0</ele><time>2026-05-01T09:28:23.271Z</time></trkpt><trkpt lat="42.288385" lon="14.2754417"><ele>216.0</ele><time>2026-05-01T09:28:25.27Z</time></trkpt><trkpt lat="42.2882767" lon="14.2754267"><ele>216.00000000000003</ele><time>2026-05-01T09:28:27.27Z</time></trkpt><trkpt lat="42.2881617" lon="14.275445"><ele>216.00000000000003</ele><time>2026-05-01T09:28:29.27Z</time></trkpt><trkpt lat="42.288095" lon="14.2754667"><ele>216.0</ele><time>2026-05-01T09:28:30.27Z</time></trkpt><trkpt lat="42.288025" lon="14.27548"><ele>216.0</ele><time>2026-05-01T09:28:31.27Z</time></trkpt><trkpt lat="42.2879133" lon="14.2755067"><ele>213.60000000000002</ele><time>2026-05-01T09:28:33.27Z</time></trkpt><trkpt lat="42.287805" lon="14.2755283"><ele>211.20000000000002</ele><time>2026-05-01T09:28:35.27Z</time></trkpt><trkpt lat="42.2876917" lon="14.2755017"><ele>208.8</ele><time>2026-05-01T09:28:37.27Z</time></trkpt><trkpt lat="42.2876333" lon="14.2754683"><ele>206.39999999999998</ele><time>2026-05-01T09:28:38.27Z</time></trkpt><trkpt lat="42.2875417" lon="14.2753617"><ele>204.0</ele><time>2026-05-01T09:28:40.27Z</time></trkpt><trkpt lat="42.2874733" lon="14.27522"><ele>204.0</ele><time>2026-05-01T09:28:42.27Z</time></trkpt><trkpt lat="42.2874333" lon="14.2750867"><ele>204.0</ele><time>2026-05-01T09:28:43.27Z</time></trkpt><trkpt lat="42.2873933" lon="14.27497"><ele>204.0</ele><time>2026-05-01T09:28:44.27Z</time></trkpt><trkpt lat="42.2873567" lon="14.274885"><ele>204.0</ele><time>2026-05-01T09:28:45.27Z</time></trkpt><trkpt lat="42.2873233" lon="14.2747933"><ele>204.0</ele><time>2026-05-01T09:28:46.27Z</time></trkpt><trkpt lat="42.2872717" lon="14.27468"><ele>204.0</ele><time>2026-05-01T09:28:48.27Z</time></trkpt><trkpt lat="42.28717" lon="14.274655"><ele>204.2</ele><time>2026-05-01T09:28:50.27Z</time></trkpt><trkpt lat="42.2870833" lon="14.2746883"><ele>204.39999999999998</ele><time>2026-05-01T09:28:52.27Z</time></trkpt><trkpt lat="42.2869867" lon="14.27472"><ele>204.6</ele><time>2026-05-01T09:28:54.27Z</time></trkpt><trkpt lat="42.2868733" lon="14.2747317"><ele>204.8</ele><time>2026-05-01T09:28:56.27Z</time></trkpt><trkpt lat="42.2867633" lon="14.2747717"><ele>205.0</ele><time>2026-05-01T09:28:58.27Z</time></trkpt><trkpt lat="42.2866733" lon="14.2747983"><ele>205.0</ele><time>2026-05-01T09:29:00.27Z</time></trkpt><trkpt lat="42.2865593" lon="14.2748079"><ele>205.0</ele><time>2026-05-01T09:29:04.36Z</time></trkpt><trkpt lat="42.2864793" lon="14.2747612"><ele>205.0</ele><time>2026-05-01T09:29:06.38Z</time></trkpt><trkpt lat="42.2864004" lon="14.2746891"><ele>205.0</ele><time>2026-05-01T09:29:08.271Z</time></trkpt><trkpt lat="42.2863285" lon="14.274607"><ele>205.0</ele><time>2026-05-01T09:29:10.27Z</time></trkpt><trkpt lat="42.2862467" lon="14.2745417"><ele>204.2</ele><time>2026-05-01T09:29:12.27Z</time></trkpt><trkpt lat="42.286175" lon="14.2744283"><ele>203.4</ele><time>2026-05-01T09:29:14.27Z</time></trkpt><trkpt lat="42.2861317" lon="14.274355"><ele>202.60000000000002</ele><time>2026-05-01T09:29:15.27Z</time></trkpt><trkpt lat="42.28608" lon="14.2742167"><ele>201.8</ele><time>2026-05-01T09:29:17.27Z</time></trkpt><trkpt lat="42.2860783" lon="14.2740533"><ele>201.0</ele><time>2026-05-01T09:29:19.27Z</time></trkpt><trkpt lat="42.28612" lon="14.2738967"><ele>203.60000000000002</ele><time>2026-05-01T09:29:21.27Z</time></trkpt><trkpt lat="42.28617" lon="14.2737633"><ele>206.2</ele><time>2026-05-01T09:29:23.27Z</time></trkpt><trkpt lat="42.286185" lon="14.2736517"><ele>208.79999999999998</ele><time>2026-05-01T09:29:25.27Z</time></trkpt><trkpt lat="42.2861817" lon="14.2735367"><ele>211.39999999999998</ele><time>2026-05-01T09:29:27.27Z</time></trkpt><trkpt lat="42.28615" lon="14.273415"><ele>214.0</ele><time>2026-05-01T09:29:29.27Z</time></trkpt><trkpt lat="42.2860733" lon="14.2732733"><ele>213.99999999999997</ele><time>2026-05-01T09:29:31.27Z</time></trkpt><trkpt lat="42.2860217" lon="14.2732083"><ele>214.0</ele><time>2026-05-01T09:29:32.27Z</time></trkpt><trkpt lat="42.2859667" lon="14.2731417"><ele>214.0</ele><time>2026-05-01T09:29:33.27Z</time></trkpt><trkpt lat="42.2859217" lon="14.2730767"><ele>214.0</ele><time>2026-05-01T09:29:34.27Z</time></trkpt><trkpt lat="42.2858333" lon="14.2729483"><ele>213.99999999999997</ele><time>2026-05-01T09:29:36.27Z</time></trkpt><trkpt lat="42.2857783" lon="14.2728817"><ele>214.0</ele><time>2026-05-01T09:29:37.27Z</time></trkpt><trkpt lat="42.2857233" lon="14.27281"><ele>213.49999999999997</ele><time>2026-05-01T09:29:38.271Z</time></trkpt><trkpt lat="42.285655" lon="14.27274"><ele>213.0</ele><time>2026-05-01T09:29:39.27Z</time></trkpt><trkpt lat="42.2855917" lon="14.2726783"><ele>212.5</ele><time>2026-05-01T09:29:40.271Z</time></trkpt><trkpt lat="42.285545" lon="14.27262"><ele>212.0</ele><time>2026-05-01T09:29:41.27Z</time></trkpt><trkpt lat="42.2854917" lon="14.2725133"><ele>211.49999999999997</ele><time>2026-05-01T09:29:43.271Z</time></trkpt><trkpt lat="42.28544" lon="14.27237"><ele>211.0</ele><time>2026-05-01T09:29:45.27Z</time></trkpt><trkpt lat="42.2854067" lon="14.2722633"><ele>213.4</ele><time>2026-05-01T09:29:47.27Z</time></trkpt><trkpt lat="42.2853733" lon="14.272175"><ele>215.8</ele><time>2026-05-01T09:29:49.271Z</time></trkpt><trkpt lat="42.2853583" lon="14.2720667"><ele>218.20000000000002</ele><time>2026-05-01T09:29:51.27Z</time></trkpt><trkpt lat="42.2853483" lon="14.27194"><ele>220.60000000000002</ele><time>2026-05-01T09:29:53.27Z</time></trkpt><trkpt lat="42.2853533" lon="14.2718133"><ele>223.0</ele><time>2026-05-01T09:29:55.27Z</time></trkpt><trkpt lat="42.2853533" lon="14.2716683"><ele>223.0</ele><time>2026-05-01T09:29:57.271Z</time></trkpt><trkpt lat="42.28535" lon="14.2715767"><ele>223.0</ele><time>2026-05-01T09:29:58.27Z</time></trkpt><trkpt lat="42.2853433" lon="14.2714817"><ele>223.0</ele><time>2026-05-01T09:29:59.27Z</time></trkpt><trkpt lat="42.2853417" lon="14.27138"><ele>223.0</ele><time>2026-05-01T09:30:00.27Z</time></trkpt><trkpt lat="42.2853333" lon="14.2712817"><ele>223.0</ele><time>2026-05-01T09:30:01.27Z</time></trkpt><trkpt lat="42.2853317" lon="14.271195"><ele>223.0</ele><time>2026-05-01T09:30:02.27Z</time></trkpt><trkpt lat="42.2853383" lon="14.2711067"><ele>223.0</ele><time>2026-05-01T09:30:03.27Z</time></trkpt><trkpt lat="42.2853417" lon="14.2710133"><ele>224.83333333333331</ele><time>2026-05-01T09:30:04.27Z</time></trkpt><trkpt lat="42.285345" lon="14.2709183"><ele>226.66666666666666</ele><time>2026-05-01T09:30:05.27Z</time></trkpt><trkpt lat="42.28535" lon="14.2708217"><ele>228.5</ele><time>2026-05-01T09:30:06.27Z</time></trkpt><trkpt lat="42.28536" lon="14.2707183"><ele>230.33333333333331</ele><time>2026-05-01T09:30:07.27Z</time></trkpt><trkpt lat="42.285365" lon="14.27061"><ele>232.16666666666666</ele><time>2026-05-01T09:30:08.27Z</time></trkpt><trkpt lat="42.2853783" lon="14.270505"><ele>234.0</ele><time>2026-05-01T09:30:09.27Z</time></trkpt><trkpt lat="42.2853883" lon="14.2703933"><ele>235.5</ele><time>2026-05-01T09:30:10.271Z</time></trkpt><trkpt lat="42.2854" lon="14.270275"><ele>237.0</ele><time>2026-05-01T09:30:11.27Z</time></trkpt><trkpt lat="42.2854017" lon="14.2701467"><ele>238.5</ele><time>2026-05-01T09:30:12.27Z</time></trkpt><trkpt lat="42.285415" lon="14.2700283"><ele>240.0</ele><time>2026-05-01T09:30:13.27Z</time></trkpt><trkpt lat="42.2854217" lon="14.2699133"><ele>241.5</ele><time>2026-05-01T09:30:14.27Z</time></trkpt><trkpt lat="42.2854317" lon="14.26981"><ele>243.0</ele><time>2026-05-01T09:30:15.27Z</time></trkpt><trkpt lat="42.2854583" lon="14.269665"><ele>244.60000000000002</ele><time>2026-05-01T09:30:17.27Z</time></trkpt><trkpt lat="42.285495" lon="14.2695483"><ele>246.20000000000002</ele><time>2026-05-01T09:30:19.27Z</time></trkpt><trkpt lat="42.2855317" lon="14.2694117"><ele>247.8</ele><time>2026-05-01T09:30:21.27Z</time></trkpt><trkpt lat="42.2855717" lon="14.2692767"><ele>249.4</ele><time>2026-05-01T09:30:23.27Z</time></trkpt><trkpt lat="42.2856" lon="14.269115"><ele>251.0</ele><time>2026-05-01T09:30:25.27Z</time></trkpt><trkpt lat="42.2856183" lon="14.2690233"><ele>255.28571428571425</ele><time>2026-05-01T09:30:26.27Z</time></trkpt><trkpt lat="42.2856317" lon="14.2689283"><ele>259.57142857142856</ele><time>2026-05-01T09:30:27.27Z</time></trkpt><trkpt lat="42.2856433" lon="14.2688183"><ele>263.8571428571429</ele><time>2026-05-01T09:30:28.27Z</time></trkpt><trkpt lat="42.2856517" lon="14.2687183"><ele>268.1428571428571</ele><time>2026-05-01T09:30:29.27Z</time></trkpt><trkpt lat="42.2856567" lon="14.268625"><ele>272.42857142857144</ele><time>2026-05-01T09:30:30.27Z</time></trkpt><trkpt lat="42.2856583" lon="14.2685267"><ele>276.7142857142857</ele><time>2026-05-01T09:30:31.27Z</time></trkpt><trkpt lat="42.2856667" lon="14.2684317"><ele>281.0</ele><time>2026-05-01T09:30:32.27Z</time></trkpt><trkpt lat="42.2856733" lon="14.26826"><ele>281.0</ele><time>2026-05-01T09:30:34.27Z</time></trkpt><trkpt lat="42.2856767" lon="14.2681383"><ele>281.0</ele><time>2026-05-01T09:30:36.27Z</time></trkpt><trkpt lat="42.2856533" lon="14.2679583"><ele>281.0</ele><time>2026-05-01T09:30:38.27Z</time></trkpt><trkpt lat="42.2856083" lon="14.26785"><ele>281.0</ele><time>2026-05-01T09:30:39.27Z</time></trkpt><trkpt lat="42.285555" lon="14.26775"><ele>281.0</ele><time>2026-05-01T09:30:40.27Z</time></trkpt><trkpt lat="42.2855033" lon="14.2676567"><ele>280.6</ele><time>2026-05-01T09:30:41.271Z</time></trkpt><trkpt lat="42.2854417" lon="14.2675567"><ele>280.20000000000005</ele><time>2026-05-01T09:30:42.271Z</time></trkpt><trkpt lat="42.2853767" lon="14.2674517"><ele>279.79999999999995</ele><time>2026-05-01T09:30:43.27Z</time></trkpt><trkpt lat="42.2853167" lon="14.2673567"><ele>279.4</ele><time>2026-05-01T09:30:44.27Z</time></trkpt><trkpt lat="42.28526" lon="14.2672633"><ele>279.0</ele><time>2026-05-01T09:30:45.27Z</time></trkpt><trkpt lat="42.2851983" lon="14.267175"><ele>280.0</ele><time>2026-05-01T09:30:46.27Z</time></trkpt><trkpt lat="42.2851433" lon="14.267095"><ele>281.0</ele><time>2026-05-01T09:30:47.27Z</time></trkpt><trkpt lat="42.2850833" lon="14.2670183"><ele>282.0</ele><time>2026-05-01T09:30:48.27Z</time></trkpt><trkpt lat="42.28503" lon="14.2669617"><ele>283.0</ele><time>2026-05-01T09:30:49.27Z</time></trkpt><trkpt lat="42.2849767" lon="14.266915"><ele>284.0</ele><time>2026-05-01T09:30:50.27Z</time></trkpt><trkpt lat="42.2848867" lon="14.2668267"><ele>285.0</ele><time>2026-05-01T09:30:52.27Z</time></trkpt><trkpt lat="42.284835" lon="14.2667417"><ele>285.0</ele><time>2026-05-01T09:30:54.27Z</time></trkpt><trkpt lat="42.2847817" lon="14.2666517"><ele>285.0</ele><time>2026-05-01T09:30:57.271Z</time></trkpt><trkpt lat="42.2847983" lon="14.266515"><ele>285.0</ele><time>2026-05-01T09:31:00.27Z</time></trkpt><trkpt lat="42.2848483" lon="14.2663833"><ele>285.0</ele><time>2026-05-01T09:31:02.27Z</time></trkpt><trkpt lat="42.2849117" lon="14.2662517"><ele>285.0</ele><time>2026-05-01T09:31:04.27Z</time></trkpt><trkpt lat="42.2849783" lon="14.266105"><ele>284.85714285714283</ele><time>2026-05-01T09:31:06.27Z</time></trkpt><trkpt lat="42.2850233" lon="14.2660233"><ele>284.7142857142857</ele><time>2026-05-01T09:31:07.27Z</time></trkpt><trkpt lat="42.28507" lon="14.26594"><ele>284.57142857142856</ele><time>2026-05-01T09:31:08.27Z</time></trkpt><trkpt lat="42.285115" lon="14.2658617"><ele>284.42857142857144</ele><time>2026-05-01T09:31:09.27Z</time></trkpt><trkpt lat="42.2851567" lon="14.265785"><ele>284.2857142857143</ele><time>2026-05-01T09:31:10.27Z</time></trkpt><trkpt lat="42.2851967" lon="14.2657117"><ele>284.1428571428571</ele><time>2026-05-01T09:31:11.27Z</time></trkpt><trkpt lat="42.2852417" lon="14.265645"><ele>284.0</ele><time>2026-05-01T09:31:12.27Z</time></trkpt><trkpt lat="42.285285" lon="14.265575"><ele>282.6666666666667</ele><time>2026-05-01T09:31:13.271Z</time></trkpt><trkpt lat="42.2853267" lon="14.2655017"><ele>281.33333333333337</ele><time>2026-05-01T09:31:14.27Z</time></trkpt><trkpt lat="42.2853717" lon="14.2654383"><ele>280.0</ele><time>2026-05-01T09:31:15.27Z</time></trkpt><trkpt lat="42.2854133" lon="14.2653567"><ele>278.6666666666667</ele><time>2026-05-01T09:31:16.27Z</time></trkpt><trkpt lat="42.285455" lon="14.2652833"><ele>277.3333333333333</ele><time>2026-05-01T09:31:17.27Z</time></trkpt><trkpt lat="42.285545" lon="14.2651667"><ele>276.0</ele><time>2026-05-01T09:31:19.27Z</time></trkpt><trkpt lat="42.2856067" lon="14.2651317"><ele>274.2</ele><time>2026-05-01T09:31:20.271Z</time></trkpt><trkpt lat="42.2857117" lon="14.26508"><ele>272.40000000000003</ele><time>2026-05-01T09:31:22.27Z</time></trkpt><trkpt lat="42.2857817" lon="14.265015"><ele>270.6</ele><time>2026-05-01T09:31:24.27Z</time></trkpt><trkpt lat="42.2857983" lon="14.2649217"><ele>268.8</ele><time>2026-05-01T09:31:26.27Z</time></trkpt><trkpt lat="42.2857667" lon="14.2647817"><ele>267.0</ele><time>2026-05-01T09:31:28.27Z</time></trkpt><trkpt lat="42.2857317" lon="14.2646817"><ele>265.8</ele><time>2026-05-01T09:31:29.271Z</time></trkpt><trkpt lat="42.2856917" lon="14.2645533"><ele>264.6</ele><time>2026-05-01T09:31:30.27Z</time></trkpt><trkpt lat="42.28564" lon="14.2644233"><ele>263.40000000000003</ele><time>2026-05-01T09:31:31.27Z</time></trkpt><trkpt lat="42.2855733" lon="14.26429"><ele>262.2</ele><time>2026-05-01T09:31:32.27Z</time></trkpt><trkpt lat="42.2855083" lon="14.2641617"><ele>261.0</ele><time>2026-05-01T09:31:33.27Z</time></trkpt><trkpt lat="42.2854417" lon="14.2640367"><ele>260.6</ele><time>2026-05-01T09:31:34.27Z</time></trkpt><trkpt lat="42.2853817" lon="14.2639083"><ele>260.20000000000005</ele><time>2026-05-01T09:31:35.27Z</time></trkpt><trkpt lat="42.2853217" lon="14.2637733"><ele>259.79999999999995</ele><time>2026-05-01T09:31:36.27Z</time></trkpt><trkpt lat="42.28527" lon="14.2636417"><ele>259.4</ele><time>2026-05-01T09:31:37.27Z</time></trkpt><trkpt lat="42.2852517" lon="14.2635083"><ele>259.0</ele><time>2026-05-01T09:31:38.271Z</time></trkpt><trkpt lat="42.2852483" lon="14.2633683"><ele>259.0</ele><time>2026-05-01T09:31:39.27Z</time></trkpt><trkpt lat="42.2852717" lon="14.2632283"><ele>259.0</ele><time>2026-05-01T09:31:40.271Z</time></trkpt><trkpt lat="42.2853133" lon="14.2630983"><ele>259.0</ele><time>2026-05-01T09:31:41.27Z</time></trkpt><trkpt lat="42.2853367" lon="14.26297"><ele>259.0</ele><time>2026-05-01T09:31:42.27Z</time></trkpt><trkpt lat="42.2853367" lon="14.2628383"><ele>259.0</ele><time>2026-05-01T09:31:43.27Z</time></trkpt><trkpt lat="42.2853133" lon="14.2627067"><ele>258.0</ele><time>2026-05-01T09:31:44.27Z</time></trkpt><trkpt lat="42.2852633" lon="14.2625683"><ele>257.0</ele><time>2026-05-01T09:31:45.27Z</time></trkpt><trkpt lat="42.2851867" lon="14.26241"><ele>256.0</ele><time>2026-05-01T09:31:46.27Z</time></trkpt><trkpt lat="42.2851083" lon="14.2622633"><ele>255.0</ele><time>2026-05-01T09:31:47.27Z</time></trkpt><trkpt lat="42.2850267" lon="14.2621183"><ele>256.75</ele><time>2026-05-01T09:31:48.27Z</time></trkpt><trkpt lat="42.2849483" lon="14.261985"><ele>258.5</ele><time>2026-05-01T09:31:49.27Z</time></trkpt><trkpt lat="42.2848717" lon="14.26185"><ele>260.25</ele><time>2026-05-01T09:31:50.27Z</time></trkpt><trkpt lat="42.284805" lon="14.2617167"><ele>262.0</ele><time>2026-05-01T09:31:51.27Z</time></trkpt><trkpt lat="42.2847383" lon="14.2615933"><ele>262.0</ele><time>2026-05-01T09:31:52.271Z</time></trkpt><trkpt lat="42.2846733" lon="14.2614717"><ele>262.0</ele><time>2026-05-01T09:31:53.27Z</time></trkpt><trkpt lat="42.2846217" lon="14.2613517"><ele>262.0</ele><time>2026-05-01T09:31:54.27Z</time></trkpt><trkpt lat="42.28458" lon="14.2612217"><ele>262.0</ele><time>2026-05-01T09:31:55.27Z</time></trkpt><trkpt lat="42.2845433" lon="14.2611017"><ele>262.0</ele><time>2026-05-01T09:31:56.27Z</time></trkpt><trkpt lat="42.2845383" lon="14.26097"><ele>259.6</ele><time>2026-05-01T09:31:57.27Z</time></trkpt><trkpt lat="42.2845567" lon="14.260855"><ele>257.2</ele><time>2026-05-01T09:31:58.27Z</time></trkpt><trkpt lat="42.2846017" lon="14.2607667"><ele>254.8</ele><time>2026-05-01T09:31:59.27Z</time></trkpt><trkpt lat="42.284665" lon="14.2606933"><ele>252.4</ele><time>2026-05-01T09:32:00.27Z</time></trkpt><trkpt lat="42.2847583" lon="14.2606517"><ele>250.0</ele><time>2026-05-01T09:32:01.271Z</time></trkpt><trkpt lat="42.284885" lon="14.260625"><ele>248.75</ele><time>2026-05-01T09:32:02.271Z</time></trkpt><trkpt lat="42.2850183" lon="14.2606083"><ele>247.5</ele><time>2026-05-01T09:32:03.27Z</time></trkpt><trkpt lat="42.2851467" lon="14.2605967"><ele>246.25</ele><time>2026-05-01T09:32:04.27Z</time></trkpt><trkpt lat="42.28527" lon="14.2605867"><ele>245.0</ele><time>2026-05-01T09:32:05.27Z</time></trkpt><trkpt lat="42.285395" lon="14.26057"><ele>245.0</ele><time>2026-05-01T09:32:06.27Z</time></trkpt><trkpt lat="42.28551" lon="14.2605533"><ele>245.0</ele><time>2026-05-01T09:32:07.27Z</time></trkpt><trkpt lat="42.2856267" lon="14.2605483"><ele>245.0</ele><time>2026-05-01T09:32:08.271Z</time></trkpt><trkpt lat="42.2857467" lon="14.260545"><ele>245.0</ele><time>2026-05-01T09:32:09.27Z</time></trkpt><trkpt lat="42.2858733" lon="14.2605633"><ele>244.75</ele><time>2026-05-01T09:32:10.27Z</time></trkpt><trkpt lat="42.28601" lon="14.2606033"><ele>244.5</ele><time>2026-05-01T09:32:11.27Z</time></trkpt><trkpt lat="42.28615" lon="14.2606567"><ele>244.25</ele><time>2026-05-01T09:32:12.27Z</time></trkpt><trkpt lat="42.2862917" lon="14.2607133"><ele>244.0</ele><time>2026-05-01T09:32:13.271Z</time></trkpt><trkpt lat="42.28644" lon="14.260735"><ele>245.0</ele><time>2026-05-01T09:32:14.27Z</time></trkpt><trkpt lat="42.2865733" lon="14.2607267"><ele>246.0</ele><time>2026-05-01T09:32:15.27Z</time></trkpt><trkpt lat="42.2866983" lon="14.2606917"><ele>247.0</ele><time>2026-05-01T09:32:16.271Z</time></trkpt><trkpt lat="42.2867983" lon="14.2606383"><ele>248.0</ele><time>2026-05-01T09:32:17.27Z</time></trkpt><trkpt lat="42.2868717" lon="14.2605683"><ele>251.0</ele><time>2026-05-01T09:32:18.27Z</time></trkpt><trkpt lat="42.286925" lon="14.2604683"><ele>254.0</ele><time>2026-05-01T09:32:19.27Z</time></trkpt><trkpt lat="42.2869483" lon="14.2603433"><ele>257.0</ele><time>2026-05-01T09:32:20.27Z</time></trkpt><trkpt lat="42.2869333" lon="14.2602"><ele>260.0</ele><time>2026-05-01T09:32:21.27Z</time></trkpt><trkpt lat="42.2868933" lon="14.2600433"><ele>263.0</ele><time>2026-05-01T09:32:22.27Z</time></trkpt><trkpt lat="42.28683" lon="14.2598867"><ele>267.6666666666667</ele><time>2026-05-01T09:32:23.27Z</time></trkpt><trkpt lat="42.28674" lon="14.2597333"><ele>272.3333333333333</ele><time>2026-05-01T09:32:24.27Z</time></trkpt><trkpt lat="42.2866283" lon="14.259585"><ele>277.0</ele><time>2026-05-01T09:32:25.27Z</time></trkpt><trkpt lat="42.286485" lon="14.25947"><ele>274.0</ele><time>2026-05-01T09:32:26.27Z</time></trkpt><trkpt lat="42.2863183" lon="14.2593733"><ele>271.0</ele><time>2026-05-01T09:32:27.27Z</time></trkpt><trkpt lat="42.2861467" lon="14.2592817"><ele>268.0</ele><time>2026-05-01T09:32:28.27Z</time></trkpt><trkpt lat="42.285985" lon="14.2591833"><ele>268.0</ele><time>2026-05-01T09:32:29.27Z</time></trkpt><trkpt lat="42.285855" lon="14.2590567"><ele>268.0</ele><time>2026-05-01T09:32:30.27Z</time></trkpt><trkpt lat="42.28576" lon="14.2589367"><ele>268.0</ele><time>2026-05-01T09:32:31.27Z</time></trkpt><trkpt lat="42.2856983" lon="14.258825"><ele>268.0</ele><time>2026-05-01T09:32:32.27Z</time></trkpt><trkpt lat="42.2856583" lon="14.25872"><ele>271.2</ele><time>2026-05-01T09:32:33.27Z</time></trkpt><trkpt lat="42.2856383" lon="14.258605"><ele>274.4</ele><time>2026-05-01T09:32:34.27Z</time></trkpt><trkpt lat="42.2856533" lon="14.2584933"><ele>277.59999999999997</ele><time>2026-05-01T09:32:35.27Z</time></trkpt><trkpt lat="42.2857167" lon="14.2583967"><ele>280.8</ele><time>2026-05-01T09:32:36.27Z</time></trkpt><trkpt lat="42.2858067" lon="14.2583367"><ele>284.0</ele><time>2026-05-01T09:32:37.27Z</time></trkpt><trkpt lat="42.2859183" lon="14.2583267"><ele>284.0</ele><time>2026-05-01T09:32:38.27Z</time></trkpt><trkpt lat="42.2860317" lon="14.2583767"><ele>284.0</ele><time>2026-05-01T09:32:39.27Z</time></trkpt><trkpt lat="42.2861517" lon="14.2584567"><ele>284.0</ele><time>2026-05-01T09:32:40.27Z</time></trkpt><trkpt lat="42.2862667" lon="14.2585467"><ele>284.0</ele><time>2026-05-01T09:32:41.27Z</time></trkpt><trkpt lat="42.2863683" lon="14.258635"><ele>285.0</ele><time>2026-05-01T09:32:42.27Z</time></trkpt><trkpt lat="42.286485" lon="14.258735"><ele>286.0</ele><time>2026-05-01T09:32:43.27Z</time></trkpt><trkpt lat="42.286625" lon="14.25883"><ele>287.0</ele><time>2026-05-01T09:32:44.27Z</time></trkpt><trkpt lat="42.2867633" lon="14.258915"><ele>288.0</ele><time>2026-05-01T09:32:45.27Z</time></trkpt><trkpt lat="42.2869" lon="14.258995"><ele>287.75</ele><time>2026-05-01T09:32:46.27Z</time></trkpt><trkpt lat="42.28703" lon="14.259075"><ele>287.5</ele><time>2026-05-01T09:32:47.27Z</time></trkpt><trkpt lat="42.2871517" lon="14.2591483"><ele>287.25</ele><time>2026-05-01T09:32:48.271Z</time></trkpt><trkpt lat="42.2872717" lon="14.259215"><ele>287.0</ele><time>2026-05-01T09:32:49.27Z</time></trkpt><trkpt lat="42.2873817" lon="14.259275"><ele>287.0</ele><time>2026-05-01T09:32:50.27Z</time></trkpt><trkpt lat="42.287495" lon="14.259335"><ele>287.0</ele><time>2026-05-01T09:32:51.27Z</time></trkpt><trkpt lat="42.2876133" lon="14.2593667"><ele>287.0</ele><time>2026-05-01T09:32:52.27Z</time></trkpt><trkpt lat="42.287725" lon="14.2593767"><ele>287.0</ele><time>2026-05-01T09:32:53.271Z</time></trkpt><trkpt lat="42.2878333" lon="14.259355"><ele>287.0</ele><time>2026-05-01T09:32:54.27Z</time></trkpt><trkpt lat="42.2879383" lon="14.2593083"><ele>287.0</ele><time>2026-05-01T09:32:55.27Z</time></trkpt><trkpt lat="42.2880383" lon="14.2592617"><ele>287.0</ele><time>2026-05-01T09:32:56.27Z</time></trkpt><trkpt lat="42.2881383" lon="14.25919"><ele>287.0</ele><time>2026-05-01T09:32:57.27Z</time></trkpt><trkpt lat="42.288235" lon="14.2591117"><ele>287.0</ele><time>2026-05-01T09:32:58.27Z</time></trkpt><trkpt lat="42.2883317" lon="14.2590383"><ele>288.0</ele><time>2026-05-01T09:32:59.27Z</time></trkpt><trkpt lat="42.2884067" lon="14.2589533"><ele>289.0</ele><time>2026-05-01T09:33:00.27Z</time></trkpt><trkpt lat="42.2884783" lon="14.258855"><ele>290.0</ele><time>2026-05-01T09:33:01.27Z</time></trkpt><trkpt lat="42.2885533" lon="14.2587617"><ele>291.0</ele><time>2026-05-01T09:33:02.27Z</time></trkpt><trkpt lat="42.28863" lon="14.2586633"><ele>292.0</ele><time>2026-05-01T09:33:03.27Z</time></trkpt><trkpt lat="42.288715" lon="14.2585683"><ele>292.8</ele><time>2026-05-01T09:33:04.27Z</time></trkpt><trkpt lat="42.2888083" lon="14.258465"><ele>293.6</ele><time>2026-05-01T09:33:05.271Z</time></trkpt><trkpt lat="42.288895" lon="14.2583567"><ele>294.40000000000003</ele><time>2026-05-01T09:33:06.27Z</time></trkpt><trkpt lat="42.288965" lon="14.2582517"><ele>295.2</ele><time>2026-05-01T09:33:07.27Z</time></trkpt><trkpt lat="42.2890117" lon="14.2581533"><ele>296.0</ele><time>2026-05-01T09:33:08.27Z</time></trkpt><trkpt lat="42.289055" lon="14.2580767"><ele>296.0</ele><time>2026-05-01T09:33:09.27Z</time></trkpt><trkpt lat="42.2891333" lon="14.257995"><ele>296.0</ele><time>2026-05-01T09:33:11.27Z</time></trkpt><trkpt lat="42.2891783" lon="14.25791"><ele>296.0</ele><time>2026-05-01T09:33:14.27Z</time></trkpt><trkpt lat="42.2891183" lon="14.2578017"><ele>296.0</ele><time>2026-05-01T09:33:16.27Z</time></trkpt><trkpt lat="42.2890617" lon="14.2577333"><ele>296.0</ele><time>2026-05-01T09:33:17.27Z</time></trkpt><trkpt lat="42.2889917" lon="14.2576633"><ele>296.0</ele><time>2026-05-01T09:33:18.271Z</time></trkpt><trkpt lat="42.2889117" lon="14.257585"><ele>297.2</ele><time>2026-05-01T09:33:19.27Z</time></trkpt><trkpt lat="42.2888217" lon="14.25751"><ele>298.40000000000003</ele><time>2026-05-01T09:33:20.27Z</time></trkpt><trkpt lat="42.28873" lon="14.2574283"><ele>299.6</ele><time>2026-05-01T09:33:21.27Z</time></trkpt><trkpt lat="42.2886433" lon="14.2573367"><ele>300.8</ele><time>2026-05-01T09:33:22.27Z</time></trkpt><trkpt lat="42.2885483" lon="14.2572367"><ele>302.0</ele><time>2026-05-01T09:33:23.27Z</time></trkpt><trkpt lat="42.2884467" lon="14.2571467"><ele>302.0</ele><time>2026-05-01T09:33:24.27Z</time></trkpt><trkpt lat="42.2883467" lon="14.25705"><ele>302.0</ele><time>2026-05-01T09:33:25.27Z</time></trkpt><trkpt lat="42.2882417" lon="14.256975"><ele>302.0</ele><time>2026-05-01T09:33:26.27Z</time></trkpt><trkpt lat="42.2881267" lon="14.256905"><ele>302.0</ele><time>2026-05-01T09:33:27.27Z</time></trkpt><trkpt lat="42.2880083" lon="14.2568467"><ele>302.75</ele><time>2026-05-01T09:33:28.27Z</time></trkpt><trkpt lat="42.28789" lon="14.25679"><ele>303.5</ele><time>2026-05-01T09:33:29.27Z</time></trkpt><trkpt lat="42.287765" lon="14.2567383"><ele>304.25</ele><time>2026-05-01T09:33:30.27Z</time></trkpt><trkpt lat="42.2876467" lon="14.2566733"><ele>305.0</ele><time>2026-05-01T09:33:31.27Z</time></trkpt><trkpt lat="42.2875333" lon="14.2565917"><ele>305.0</ele><time>2026-05-01T09:33:32.27Z</time></trkpt><trkpt lat="42.28743" lon="14.25652"><ele>305.0</ele><time>2026-05-01T09:33:33.27Z</time></trkpt><trkpt lat="42.2873283" lon="14.2564333"><ele>305.0</ele><time>2026-05-01T09:33:34.27Z</time></trkpt><trkpt lat="42.28723" lon="14.2563417"><ele>305.0</ele><time>2026-05-01T09:33:35.27Z</time></trkpt><trkpt lat="42.2871283" lon="14.2562433"><ele>306.25</ele><time>2026-05-01T09:33:36.27Z</time></trkpt><trkpt lat="42.2870217" lon="14.2561383"><ele>307.5</ele><time>2026-05-01T09:33:37.27Z</time></trkpt><trkpt lat="42.2869133" lon="14.2560317"><ele>308.75</ele><time>2026-05-01T09:33:38.27Z</time></trkpt><trkpt lat="42.2868" lon="14.2559233"><ele>310.0</ele><time>2026-05-01T09:33:39.27Z</time></trkpt><trkpt lat="42.2866883" lon="14.2558167"><ele>310.0</ele><time>2026-05-01T09:33:40.27Z</time></trkpt><trkpt lat="42.28657" lon="14.2557083"><ele>310.0</ele><time>2026-05-01T09:33:41.27Z</time></trkpt><trkpt lat="42.28646" lon="14.2556083"><ele>310.0</ele><time>2026-05-01T09:33:42.271Z</time></trkpt><trkpt lat="42.28636" lon="14.2555083"><ele>310.0</ele><time>2026-05-01T09:33:43.27Z</time></trkpt><trkpt lat="42.2862617" lon="14.2554183"><ele>310.75</ele><time>2026-05-01T09:33:44.27Z</time></trkpt><trkpt lat="42.2861567" lon="14.2553233"><ele>311.5</ele><time>2026-05-01T09:33:45.27Z</time></trkpt><trkpt lat="42.28605" lon="14.2552417"><ele>312.25</ele><time>2026-05-01T09:33:46.27Z</time></trkpt><trkpt lat="42.2859367" lon="14.2551617"><ele>313.0</ele><time>2026-05-01T09:33:47.27Z</time></trkpt><trkpt lat="42.28582" lon="14.2550833"><ele>313.0</ele><time>2026-05-01T09:33:48.27Z</time></trkpt><trkpt lat="42.2857017" lon="14.255005"><ele>313.0</ele><time>2026-05-01T09:33:49.27Z</time></trkpt><trkpt lat="42.2855833" lon="14.2549183"><ele>313.0</ele><time>2026-05-01T09:33:50.27Z</time></trkpt><trkpt lat="42.2854683" lon="14.2548283"><ele>313.0</ele><time>2026-05-01T09:33:51.27Z</time></trkpt><trkpt lat="42.2853467" lon="14.2547483"><ele>313.25</ele><time>2026-05-01T09:33:52.27Z</time></trkpt><trkpt lat="42.285235" lon="14.254665"><ele>313.5</ele><time>2026-05-01T09:33:53.27Z</time></trkpt><trkpt lat="42.28511" lon="14.25457"><ele>313.75</ele><time>2026-05-01T09:33:54.27Z</time></trkpt><trkpt lat="42.2849833" lon="14.25449"><ele>314.0</ele><time>2026-05-01T09:33:55.27Z</time></trkpt><trkpt lat="42.2848567" lon="14.2544017"><ele>314.0</ele><time>2026-05-01T09:33:56.27Z</time></trkpt><trkpt lat="42.2847217" lon="14.2543083"><ele>314.0</ele><time>2026-05-01T09:33:57.27Z</time></trkpt><trkpt lat="42.2845667" lon="14.254225"><ele>314.0</ele><time>2026-05-01T09:33:58.271Z</time></trkpt><trkpt lat="42.284425" lon="14.2541433"><ele>314.0</ele><time>2026-05-01T09:33:59.27Z</time></trkpt><trkpt lat="42.2842883" lon="14.2540667"><ele>314.0</ele><time>2026-05-01T09:34:00.27Z</time></trkpt><trkpt lat="42.284145" lon="14.2539917"><ele>314.0</ele><time>2026-05-01T09:34:01.27Z</time></trkpt><trkpt lat="42.2840117" lon="14.2539217"><ele>314.0</ele><time>2026-05-01T09:34:02.27Z</time></trkpt><trkpt lat="42.2838867" lon="14.2538533"><ele>314.0</ele><time>2026-05-01T09:34:03.27Z</time></trkpt><trkpt lat="42.2837583" lon="14.2537783"><ele>314.0</ele><time>2026-05-01T09:34:04.27Z</time></trkpt><trkpt lat="42.2836317" lon="14.2537033"><ele>314.0</ele><time>2026-05-01T09:34:05.271Z</time></trkpt><trkpt lat="42.28351" lon="14.2536333"><ele>314.0</ele><time>2026-05-01T09:34:06.27Z</time></trkpt><trkpt lat="42.28338" lon="14.25357"><ele>314.0</ele><time>2026-05-01T09:34:07.271Z</time></trkpt><trkpt lat="42.2832567" lon="14.2534933"><ele>314.0</ele><time>2026-05-01T09:34:08.27Z</time></trkpt><trkpt lat="42.2831283" lon="14.2534183"><ele>314.0</ele><time>2026-05-01T09:34:09.27Z</time></trkpt><trkpt lat="42.2829867" lon="14.2533367"><ele>314.0</ele><time>2026-05-01T09:34:10.27Z</time></trkpt><trkpt lat="42.2828483" lon="14.2532583"><ele>313.33333333333337</ele><time>2026-05-01T09:34:11.27Z</time></trkpt><trkpt lat="42.2827067" lon="14.2531883"><ele>312.6666666666667</ele><time>2026-05-01T09:34:12.27Z</time></trkpt><trkpt lat="42.2825567" lon="14.253115"><ele>312.0</ele><time>2026-05-01T09:34:13.27Z</time></trkpt><trkpt lat="42.2824133" lon="14.2530333"><ele>312.3333333333333</ele><time>2026-05-01T09:34:14.271Z</time></trkpt><trkpt lat="42.2822583" lon="14.2529617"><ele>312.66666666666663</ele><time>2026-05-01T09:34:15.27Z</time></trkpt><trkpt lat="42.2821" lon="14.25291"><ele>313.0</ele><time>2026-05-01T09:34:16.27Z</time></trkpt><trkpt lat="42.2819483" lon="14.252845"><ele>313.0</ele><time>2026-05-01T09:34:17.268Z</time></trkpt><trkpt lat="42.2817983" lon="14.2527767"><ele>313.0</ele><time>2026-05-01T09:34:18.27Z</time></trkpt><trkpt lat="42.28165" lon="14.2527167"><ele>313.0</ele><time>2026-05-01T09:34:19.27Z</time></trkpt><trkpt lat="42.2814983" lon="14.2526567"><ele>314.0</ele><time>2026-05-01T09:34:20.27Z</time></trkpt><trkpt lat="42.281345" lon="14.2525933"><ele>315.0</ele><time>2026-05-01T09:34:21.271Z</time></trkpt><trkpt lat="42.2811883" lon="14.2525317"><ele>316.0</ele><time>2026-05-01T09:34:22.27Z</time></trkpt><trkpt lat="42.2810367" lon="14.2524833"><ele>316.0</ele><time>2026-05-01T09:34:23.27Z</time></trkpt><trkpt lat="42.2808883" lon="14.25242"><ele>316.0</ele><time>2026-05-01T09:34:24.27Z</time></trkpt><trkpt lat="42.28074" lon="14.2523567"><ele>316.0</ele><time>2026-05-01T09:34:25.27Z</time></trkpt><trkpt lat="42.2805833" lon="14.25229"><ele>316.0</ele><time>2026-05-01T09:34:26.271Z</time></trkpt><trkpt lat="42.2804217" lon="14.2522217"><ele>316.0</ele><time>2026-05-01T09:34:27.27Z</time></trkpt><trkpt lat="42.28026" lon="14.2521517"><ele>316.0</ele><time>2026-05-01T09:34:28.27Z</time></trkpt><trkpt lat="42.2800983" lon="14.2520717"><ele>316.0</ele><time>2026-05-01T09:34:29.27Z</time></trkpt><trkpt lat="42.2799383" lon="14.2519917"><ele>316.0</ele><time>2026-05-01T09:34:30.27Z</time></trkpt><trkpt lat="42.2797833" lon="14.25191"><ele>316.0</ele><time>2026-05-01T09:34:31.27Z</time></trkpt><trkpt lat="42.27964" lon="14.2518367"><ele>316.75</ele><time>2026-05-01T09:34:32.27Z</time></trkpt><trkpt lat="42.2795033" lon="14.2517617"><ele>317.5</ele><time>2026-05-01T09:34:33.27Z</time></trkpt><trkpt lat="42.2793683" lon="14.25169"><ele>318.25</ele><time>2026-05-01T09:34:34.27Z</time></trkpt><trkpt lat="42.279225" lon="14.2516183"><ele>319.0</ele><time>2026-05-01T09:34:35.27Z</time></trkpt><trkpt lat="42.2790833" lon="14.2515433"><ele>320.0</ele><time>2026-05-01T09:34:36.27Z</time></trkpt><trkpt lat="42.2789333" lon="14.25148"><ele>321.0</ele><time>2026-05-01T09:34:37.27Z</time></trkpt><trkpt lat="42.2787833" lon="14.2514217"><ele>322.0</ele><time>2026-05-01T09:34:38.27Z</time></trkpt><trkpt lat="42.2786367" lon="14.2513633"><ele>322.3333333333333</ele><time>2026-05-01T09:34:39.27Z</time></trkpt><trkpt lat="42.2784917" lon="14.2513083"><ele>322.6666666666667</ele><time>2026-05-01T09:34:40.27Z</time></trkpt><trkpt lat="42.2783467" lon="14.2512517"><ele>323.0</ele><time>2026-05-01T09:34:41.27Z</time></trkpt><trkpt lat="42.2782" lon="14.251195"><ele>324.33333333333337</ele><time>2026-05-01T09:34:42.27Z</time></trkpt><trkpt lat="42.2780367" lon="14.2511233"><ele>325.6666666666667</ele><time>2026-05-01T09:34:43.27Z</time></trkpt><trkpt lat="42.277865" lon="14.25106"><ele>327.0</ele><time>2026-05-01T09:34:44.27Z</time></trkpt><trkpt lat="42.2776933" lon="14.250995"><ele>327.0</ele><time>2026-05-01T09:34:45.27Z</time></trkpt><trkpt lat="42.2775283" lon="14.2509367"><ele>327.0</ele><time>2026-05-01T09:34:46.27Z</time></trkpt><trkpt lat="42.277365" lon="14.250895"><ele>327.0</ele><time>2026-05-01T09:34:47.27Z</time></trkpt><trkpt lat="42.27721" lon="14.2508767"><ele>327.8</ele><time>2026-05-01T09:34:48.27Z</time></trkpt><trkpt lat="42.2770783" lon="14.25087"><ele>328.6</ele><time>2026-05-01T09:34:49.27Z</time></trkpt><trkpt lat="42.2769667" lon="14.2508533"><ele>329.40000000000003</ele><time>2026-05-01T09:34:50.27Z</time></trkpt><trkpt lat="42.27687" lon="14.2508183"><ele>330.20000000000005</ele><time>2026-05-01T09:34:51.27Z</time></trkpt><trkpt lat="42.2767867" lon="14.250775"><ele>331.0</ele><time>2026-05-01T09:34:52.27Z</time></trkpt><trkpt lat="42.2767083" lon="14.2507083"><ele>331.0</ele><time>2026-05-01T09:34:53.27Z</time></trkpt><trkpt lat="42.276635" lon="14.250635"><ele>331.0</ele><time>2026-05-01T09:34:54.27Z</time></trkpt><trkpt lat="42.2765617" lon="14.25056"><ele>331.0</ele><time>2026-05-01T09:34:55.27Z</time></trkpt><trkpt lat="42.27648" lon="14.250465"><ele>331.0</ele><time>2026-05-01T09:34:56.27Z</time></trkpt><trkpt lat="42.276405" lon="14.2503717"><ele>331.0</ele><time>2026-05-01T09:34:57.27Z</time></trkpt><trkpt lat="42.2763383" lon="14.2502867"><ele>330.6</ele><time>2026-05-01T09:34:58.27Z</time></trkpt><trkpt lat="42.2762867" lon="14.2501933"><ele>330.20000000000005</ele><time>2026-05-01T09:34:59.271Z</time></trkpt><trkpt lat="42.2762383" lon="14.2500867"><ele>329.79999999999995</ele><time>2026-05-01T09:35:00.27Z</time></trkpt><trkpt lat="42.276195" lon="14.2499817"><ele>329.4</ele><time>2026-05-01T09:35:01.27Z</time></trkpt><trkpt lat="42.2761433" lon="14.2498783"><ele>329.0</ele><time>2026-05-01T09:35:02.27Z</time></trkpt><trkpt lat="42.2760717" lon="14.2497733"><ele>324.4</ele><time>2026-05-01T09:35:03.27Z</time></trkpt><trkpt lat="42.275985" lon="14.2497"><ele>319.79999999999995</ele><time>2026-05-01T09:35:04.27Z</time></trkpt><trkpt lat="42.2758917" lon="14.2496417"><ele>315.20000000000005</ele><time>2026-05-01T09:35:05.27Z</time></trkpt><trkpt lat="42.2758" lon="14.2496"><ele>310.6</ele><time>2026-05-01T09:35:06.27Z</time></trkpt><trkpt lat="42.2757117" lon="14.2495483"><ele>306.0</ele><time>2026-05-01T09:35:07.27Z</time></trkpt><trkpt lat="42.2756183" lon="14.2494917"><ele>309.0</ele><time>2026-05-01T09:35:08.27Z</time></trkpt><trkpt lat="42.2755267" lon="14.249435"><ele>312.0</ele><time>2026-05-01T09:35:09.27Z</time></trkpt><trkpt lat="42.2754433" lon="14.24938"><ele>315.0</ele><time>2026-05-01T09:35:10.27Z</time></trkpt><trkpt lat="42.27536" lon="14.2493067"><ele>318.0</ele><time>2026-05-01T09:35:11.27Z</time></trkpt><trkpt lat="42.2752667" lon="14.24923"><ele>321.0</ele><time>2026-05-01T09:35:12.27Z</time></trkpt><trkpt lat="42.2751683" lon="14.24916"><ele>321.0</ele><time>2026-05-01T09:35:13.27Z</time></trkpt><trkpt lat="42.2750667" lon="14.2490933"><ele>321.0</ele><time>2026-05-01T09:35:14.27Z</time></trkpt><trkpt lat="42.2749567" lon="14.24904"><ele>321.0</ele><time>2026-05-01T09:35:15.27Z</time></trkpt><trkpt lat="42.2748417" lon="14.2489917"><ele>321.0</ele><time>2026-05-01T09:35:16.27Z</time></trkpt><trkpt lat="42.2747317" lon="14.2489517"><ele>314.75</ele><time>2026-05-01T09:35:17.27Z</time></trkpt><trkpt lat="42.2746067" lon="14.2488967"><ele>308.5</ele><time>2026-05-01T09:35:18.27Z</time></trkpt><trkpt lat="42.2744867" lon="14.248835"><ele>302.25</ele><time>2026-05-01T09:35:19.27Z</time></trkpt><trkpt lat="42.2743583" lon="14.248765"><ele>296.0</ele><time>2026-05-01T09:35:20.27Z</time></trkpt><trkpt lat="42.2742333" lon="14.2487033"><ele>296.0</ele><time>2026-05-01T09:35:21.27Z</time></trkpt><trkpt lat="42.2741033" lon="14.2486283"><ele>296.0</ele><time>2026-05-01T09:35:22.27Z</time></trkpt><trkpt lat="42.2739783" lon="14.2485533"><ele>296.0</ele><time>2026-05-01T09:35:23.27Z</time></trkpt><trkpt lat="42.2738617" lon="14.2484783"><ele>296.0</ele><time>2026-05-01T09:35:24.271Z</time></trkpt><trkpt lat="42.27375" lon="14.2484117"><ele>299.0</ele><time>2026-05-01T09:35:25.27Z</time></trkpt><trkpt lat="42.2736467" lon="14.24834"><ele>302.0</ele><time>2026-05-01T09:35:26.27Z</time></trkpt><trkpt lat="42.27355" lon="14.2482583"><ele>305.0</ele><time>2026-05-01T09:35:27.27Z</time></trkpt><trkpt lat="42.27346" lon="14.24818"><ele>308.0</ele><time>2026-05-01T09:35:28.27Z</time></trkpt><trkpt lat="42.2733633" lon="14.24808"><ele>307.25</ele><time>2026-05-01T09:35:29.27Z</time></trkpt><trkpt lat="42.2732683" lon="14.2479617"><ele>306.5</ele><time>2026-05-01T09:35:30.27Z</time></trkpt><trkpt lat="42.2731917" lon="14.2478367"><ele>305.75</ele><time>2026-05-01T09:35:31.27Z</time></trkpt><trkpt lat="42.273135" lon="14.2477017"><ele>305.0</ele><time>2026-05-01T09:35:32.27Z</time></trkpt><trkpt lat="42.273085" lon="14.2475333"><ele>305.0</ele><time>2026-05-01T09:35:33.27Z</time></trkpt><trkpt lat="42.2730483" lon="14.2473467"><ele>305.0</ele><time>2026-05-01T09:35:34.27Z</time></trkpt><trkpt lat="42.2730117" lon="14.2471517"><ele>305.0</ele><time>2026-05-01T09:35:35.27Z</time></trkpt><trkpt lat="42.2729783" lon="14.2469567"><ele>305.0</ele><time>2026-05-01T09:35:36.27Z</time></trkpt><trkpt lat="42.272955" lon="14.24677"><ele>299.5</ele><time>2026-05-01T09:35:37.271Z</time></trkpt><trkpt lat="42.2729333" lon="14.24659"><ele>294.0</ele><time>2026-05-01T09:35:38.27Z</time></trkpt><trkpt lat="42.2729117" lon="14.2464317"><ele>288.5</ele><time>2026-05-01T09:35:39.27Z</time></trkpt><trkpt lat="42.2729" lon="14.246285"><ele>283.0</ele><time>2026-05-01T09:35:40.27Z</time></trkpt><trkpt lat="42.272875" lon="14.246145"><ele>281.0</ele><time>2026-05-01T09:35:41.27Z</time></trkpt><trkpt lat="42.2728467" lon="14.246015"><ele>279.0</ele><time>2026-05-01T09:35:42.27Z</time></trkpt><trkpt lat="42.2727917" lon="14.2458833"><ele>277.0</ele><time>2026-05-01T09:35:43.27Z</time></trkpt><trkpt lat="42.27272" lon="14.2457383"><ele>275.0</ele><time>2026-05-01T09:35:44.271Z</time></trkpt><trkpt lat="42.2726267" lon="14.2455783"><ele>275.0</ele><time>2026-05-01T09:35:45.27Z</time></trkpt><trkpt lat="42.272525" lon="14.2454267"><ele>275.0</ele><time>2026-05-01T09:35:46.27Z</time></trkpt><trkpt lat="42.2724267" lon="14.245285"><ele>275.0</ele><time>2026-05-01T09:35:47.27Z</time></trkpt><trkpt lat="42.2723483" lon="14.2451317"><ele>275.0</ele><time>2026-05-01T09:35:48.27Z</time></trkpt><trkpt lat="42.2722817" lon="14.24497"><ele>275.25</ele><time>2026-05-01T09:35:49.27Z</time></trkpt><trkpt lat="42.2722083" lon="14.244815"><ele>275.5</ele><time>2026-05-01T09:35:50.27Z</time></trkpt><trkpt lat="42.2721367" lon="14.2446767"><ele>275.75</ele><time>2026-05-01T09:35:51.27Z</time></trkpt><trkpt lat="42.2720483" lon="14.2445567"><ele>276.0</ele><time>2026-05-01T09:35:52.27Z</time></trkpt><trkpt lat="42.2719633" lon="14.24446"><ele>277.8</ele><time>2026-05-01T09:35:53.27Z</time></trkpt><trkpt lat="42.2718733" lon="14.2443817"><ele>279.6</ele><time>2026-05-01T09:35:54.27Z</time></trkpt><trkpt lat="42.2717783" lon="14.2443233"><ele>281.4</ele><time>2026-05-01T09:35:55.27Z</time></trkpt><trkpt lat="42.2716933" lon="14.2442867"><ele>283.2</ele><time>2026-05-01T09:35:56.27Z</time></trkpt><trkpt lat="42.2715933" lon="14.2442617"><ele>285.0</ele><time>2026-05-01T09:35:57.27Z</time></trkpt><trkpt lat="42.2714917" lon="14.2442483"><ele>284.0</ele><time>2026-05-01T09:35:58.27Z</time></trkpt><trkpt lat="42.2713783" lon="14.2442333"><ele>283.0</ele><time>2026-05-01T09:35:59.27Z</time></trkpt><trkpt lat="42.2712633" lon="14.2441883"><ele>282.0</ele><time>2026-05-01T09:36:00.27Z</time></trkpt><trkpt lat="42.2711467" lon="14.2441083"><ele>281.0</ele><time>2026-05-01T09:36:01.27Z</time></trkpt><trkpt lat="42.27103" lon="14.2440133"><ele>282.75</ele><time>2026-05-01T09:36:02.27Z</time></trkpt><trkpt lat="42.2709083" lon="14.2439217"><ele>284.5</ele><time>2026-05-01T09:36:03.27Z</time></trkpt><trkpt lat="42.27079" lon="14.2438467"><ele>286.25</ele><time>2026-05-01T09:36:04.27Z</time></trkpt><trkpt lat="42.2706783" lon="14.243765"><ele>288.0</ele><time>2026-05-01T09:36:05.27Z</time></trkpt><trkpt lat="42.27057" lon="14.2436717"><ele>288.0</ele><time>2026-05-01T09:36:06.27Z</time></trkpt><trkpt lat="42.2704717" lon="14.2435583"><ele>288.0</ele><time>2026-05-01T09:36:07.27Z</time></trkpt><trkpt lat="42.2703733" lon="14.24343"><ele>288.0</ele><time>2026-05-01T09:36:08.27Z</time></trkpt><trkpt lat="42.270265" lon="14.2433017"><ele>288.0</ele><time>2026-05-01T09:36:09.27Z</time></trkpt><trkpt lat="42.270155" lon="14.2431733"><ele>289.25</ele><time>2026-05-01T09:36:10.27Z</time></trkpt><trkpt lat="42.2700483" lon="14.24306"><ele>290.5</ele><time>2026-05-01T09:36:11.27Z</time></trkpt><trkpt lat="42.269945" lon="14.2429583"><ele>291.75</ele><time>2026-05-01T09:36:12.27Z</time></trkpt><trkpt lat="42.2698483" lon="14.24286"><ele>293.0</ele><time>2026-05-01T09:36:13.27Z</time></trkpt><trkpt lat="42.2697533" lon="14.2427617"><ele>293.0</ele><time>2026-05-01T09:36:14.27Z</time></trkpt><trkpt lat="42.2696683" lon="14.242675"><ele>293.0</ele><time>2026-05-01T09:36:15.27Z</time></trkpt><trkpt lat="42.2695917" lon="14.2426"><ele>293.0</ele><time>2026-05-01T09:36:16.27Z</time></trkpt><trkpt lat="42.2695167" lon="14.242535"><ele>293.0</ele><time>2026-05-01T09:36:17.27Z</time></trkpt><trkpt lat="42.2694467" lon="14.2424767"><ele>293.0</ele><time>2026-05-01T09:36:18.27Z</time></trkpt><trkpt lat="42.26937" lon="14.242415"><ele>293.0</ele><time>2026-05-01T09:36:19.27Z</time></trkpt><trkpt lat="42.2693033" lon="14.242355"><ele>293.0</ele><time>2026-05-01T09:36:20.27Z</time></trkpt><trkpt lat="42.2692183" lon="14.2422683"><ele>293.0</ele><time>2026-05-01T09:36:22.27Z</time></trkpt><trkpt lat="42.26914" lon="14.2421683"><ele>293.0</ele><time>2026-05-01T09:36:24.27Z</time></trkpt><trkpt lat="42.2691083" lon="14.2420933"><ele>293.0</ele><time>2026-05-01T09:36:25.271Z</time></trkpt><trkpt lat="42.2690783" lon="14.2420017"><ele>293.0</ele><time>2026-05-01T09:36:26.27Z</time></trkpt><trkpt lat="42.2690333" lon="14.2419"><ele>294.33333333333337</ele><time>2026-05-01T09:36:27.27Z</time></trkpt><trkpt lat="42.2689833" lon="14.2417933"><ele>295.6666666666667</ele><time>2026-05-01T09:36:28.27Z</time></trkpt><trkpt lat="42.2689417" lon="14.2417067"><ele>297.0</ele><time>2026-05-01T09:36:29.27Z</time></trkpt><trkpt lat="42.26888" lon="14.241595"><ele>298.3333333333333</ele><time>2026-05-01T09:36:31.271Z</time></trkpt><trkpt lat="42.268845" lon="14.2415167"><ele>299.66666666666663</ele><time>2026-05-01T09:36:33.27Z</time></trkpt><trkpt lat="42.2687717" lon="14.2415117"><ele>301.0</ele><time>2026-05-01T09:36:43.27Z</time></trkpt><trkpt lat="42.2686717" lon="14.2414967"><ele>301.16666666666663</ele><time>2026-05-01T09:36:45.27Z</time></trkpt><trkpt lat="42.2686067" lon="14.24147"><ele>301.3333333333333</ele><time>2026-05-01T09:36:46.271Z</time></trkpt><trkpt lat="42.2685333" lon="14.24144"><ele>301.5</ele><time>2026-05-01T09:36:47.271Z</time></trkpt><trkpt lat="42.2684533" lon="14.2414083"><ele>301.6666666666667</ele><time>2026-05-01T09:36:48.27Z</time></trkpt><trkpt lat="42.2683683" lon="14.2413733"><ele>301.83333333333337</ele><time>2026-05-01T09:36:49.27Z</time></trkpt><trkpt lat="42.26828" lon="14.2413333"><ele>302.0</ele><time>2026-05-01T09:36:50.27Z</time></trkpt><trkpt lat="42.2681967" lon="14.2412917"><ele>303.33333333333337</ele><time>2026-05-01T09:36:51.27Z</time></trkpt><trkpt lat="42.26812" lon="14.24125"><ele>304.6666666666667</ele><time>2026-05-01T09:36:52.27Z</time></trkpt><trkpt lat="42.2680533" lon="14.2412117"><ele>306.0</ele><time>2026-05-01T09:36:53.27Z</time></trkpt><trkpt lat="42.26799" lon="14.24117"><ele>307.3333333333333</ele><time>2026-05-01T09:36:54.27Z</time></trkpt><trkpt lat="42.2679333" lon="14.24113"><ele>308.66666666666663</ele><time>2026-05-01T09:36:55.27Z</time></trkpt><trkpt lat="42.267855" lon="14.2410483"><ele>310.0</ele><time>2026-05-01T09:36:57.27Z</time></trkpt><trkpt lat="42.2677833" lon="14.2409617"><ele>310.0</ele><time>2026-05-01T09:36:59.27Z</time></trkpt><trkpt lat="42.26771" lon="14.2408783"><ele>310.0</ele><time>2026-05-01T09:37:01.27Z</time></trkpt><trkpt lat="42.2676417" lon="14.2407783"><ele>310.0</ele><time>2026-05-01T09:37:03.271Z</time></trkpt><trkpt lat="42.267585" lon="14.2406783"><ele>310.0</ele><time>2026-05-01T09:37:05.27Z</time></trkpt><trkpt lat="42.2675367" lon="14.24054"><ele>310.0</ele><time>2026-05-01T09:37:07.27Z</time></trkpt><trkpt lat="42.267495" lon="14.2404083"><ele>311.0</ele><time>2026-05-01T09:37:09.27Z</time></trkpt><trkpt lat="42.2674483" lon="14.2402967"><ele>312.0</ele><time>2026-05-01T09:37:11.27Z</time></trkpt><trkpt lat="42.2673917" lon="14.2401933"><ele>313.0</ele><time>2026-05-01T09:37:13.27Z</time></trkpt><trkpt lat="42.2673233" lon="14.240085"><ele>314.0</ele><time>2026-05-01T09:37:15.27Z</time></trkpt><trkpt lat="42.2672783" lon="14.23997"><ele>315.0</ele><time>2026-05-01T09:37:17.27Z</time></trkpt><trkpt lat="42.2672597" lon="14.2398797"><ele>317.2857142857143</ele><time>2026-05-01T09:37:19.27Z</time></trkpt><trkpt lat="42.2672426" lon="14.2397693"><ele>319.57142857142856</ele><time>2026-05-01T09:37:22.27Z</time></trkpt><trkpt lat="42.267235" lon="14.2396783"><ele>321.8571428571429</ele><time>2026-05-01T09:37:25.332Z</time></trkpt><trkpt lat="42.267209" lon="14.2395912"><ele>324.1428571428571</ele><time>2026-05-01T09:37:27.07Z</time></trkpt><trkpt lat="42.2671939" lon="14.2394921"><ele>326.42857142857144</ele><time>2026-05-01T09:37:29.389Z</time></trkpt><trkpt lat="42.2671747" lon="14.2393984"><ele>328.7142857142857</ele><time>2026-05-01T09:37:32.366Z</time></trkpt><trkpt lat="42.2671483" lon="14.2393159"><ele>331.0</ele><time>2026-05-01T09:37:34.387Z</time></trkpt><trkpt lat="42.2671277" lon="14.2392251"><ele>331.0</ele><time>2026-05-01T09:37:36.254Z</time></trkpt><trkpt lat="42.2670935" lon="14.2391159"><ele>331.0</ele><time>2026-05-01T09:37:39.415Z</time></trkpt><trkpt lat="42.2670626" lon="14.2390394"><ele>331.0</ele><time>2026-05-01T09:37:48.316Z</time></trkpt><trkpt lat="42.2669533" lon="14.23891"><ele>331.0</ele><time>2026-05-01T09:38:13.27Z</time></trkpt><trkpt lat="42.266865" lon="14.2388467"><ele>331.0</ele><time>2026-05-01T09:38:59.271Z</time></trkpt><trkpt lat="42.2667897" lon="14.2387369"><ele>331.16666666666663</ele><time>2026-05-01T09:40:37.271Z</time></trkpt><trkpt lat="42.2667422" lon="14.2386716"><ele>331.3333333333333</ele><time>2026-05-01T09:40:41.354Z</time></trkpt><trkpt lat="42.2666889" lon="14.2386097"><ele>331.5</ele><time>2026-05-01T09:40:49.284Z</time></trkpt><trkpt lat="42.2666356" lon="14.2385634"><ele>331.6666666666667</ele><time>2026-05-01T09:40:56.174Z</time></trkpt><trkpt lat="42.266545" lon="14.2384517"><ele>331.83333333333337</ele><time>2026-05-01T09:41:42.269Z</time></trkpt><trkpt lat="42.26648" lon="14.2383867"><ele>332.0</ele><time>2026-05-01T09:41:48.269Z</time></trkpt><trkpt lat="42.2664333" lon="14.23832"><ele>332.7142857142857</ele><time>2026-05-01T09:41:53.27Z</time></trkpt><trkpt lat="42.266385" lon="14.2382233"><ele>333.42857142857144</ele><time>2026-05-01T09:41:57.269Z</time></trkpt><trkpt lat="42.266345" lon="14.238155"><ele>334.14285714285717</ele><time>2026-05-01T09:41:59.269Z</time></trkpt><trkpt lat="42.2662967" lon="14.238095"><ele>334.8571428571429</ele><time>2026-05-01T09:42:01.269Z</time></trkpt><trkpt lat="42.26623" lon="14.2380217"><ele>335.57142857142856</ele><time>2026-05-01T09:42:04.269Z</time></trkpt><trkpt lat="42.2661683" lon="14.23797"><ele>336.28571428571433</ele><time>2026-05-01T09:42:07.269Z</time></trkpt><trkpt lat="42.2661083" lon="14.2379317"><ele>337.0</ele><time>2026-05-01T09:42:10.269Z</time></trkpt><trkpt lat="42.2660333" lon="14.237875"><ele>337.00000000000006</ele><time>2026-05-01T09:42:13.269Z</time></trkpt><trkpt lat="42.265965" lon="14.237835"><ele>337.0</ele><time>2026-05-01T09:42:15.269Z</time></trkpt><trkpt lat="42.2659033" lon="14.237805"><ele>337.0</ele><time>2026-05-01T09:42:17.269Z</time></trkpt><trkpt lat="42.2658383" lon="14.2377617"><ele>337.0</ele><time>2026-05-01T09:42:19.269Z</time></trkpt><trkpt lat="42.2657783" lon="14.23771"><ele>337.0</ele><time>2026-05-01T09:42:21.27Z</time></trkpt><trkpt lat="42.2657167" lon="14.2376567"><ele>337.00000000000006</ele><time>2026-05-01T09:42:23.269Z</time></trkpt><trkpt lat="42.2656617" lon="14.23759"><ele>337.0</ele><time>2026-05-01T09:42:25.27Z</time></trkpt><trkpt lat="42.2656033" lon="14.237495"><ele>338.66666666666663</ele><time>2026-05-01T09:42:27.269Z</time></trkpt><trkpt lat="42.2655367" lon="14.23736"><ele>340.3333333333333</ele><time>2026-05-01T09:42:29.269Z</time></trkpt><trkpt lat="42.2655" lon="14.237285"><ele>342.0</ele><time>2026-05-01T09:42:30.27Z</time></trkpt><trkpt lat="42.2654617" lon="14.2372033"><ele>343.6666666666667</ele><time>2026-05-01T09:42:31.269Z</time></trkpt><trkpt lat="42.26543" lon="14.237125"><ele>345.33333333333337</ele><time>2026-05-01T09:42:32.269Z</time></trkpt><trkpt lat="42.26538" lon="14.2369883"><ele>347.0</ele><time>2026-05-01T09:42:34.269Z</time></trkpt><trkpt lat="42.2653467" lon="14.2369117"><ele>347.0</ele><time>2026-05-01T09:42:36.269Z</time></trkpt><trkpt lat="42.2652767" lon="14.23679"><ele>347.0</ele><time>2026-05-01T09:43:46.269Z</time></trkpt><trkpt lat="42.2652617" lon="14.23668"><ele>347.0</ele><time>2026-05-01T09:43:49.269Z</time></trkpt><trkpt lat="42.2652283" lon="14.2366033"><ele>347.0</ele><time>2026-05-01T09:44:30.269Z</time></trkpt><trkpt lat="42.2651883" lon="14.236525"><ele>347.0</ele><time>2026-05-01T09:44:34.27Z</time></trkpt><trkpt lat="42.2651433" lon="14.2364483"><ele>347.0</ele><time>2026-05-01T09:44:36.269Z</time></trkpt><trkpt lat="42.265065" lon="14.236325"><ele>346.33333333333337</ele><time>2026-05-01T09:44:38.269Z</time></trkpt><trkpt lat="42.2650033" lon="14.2362217"><ele>345.6666666666667</ele><time>2026-05-01T09:44:40.269Z</time></trkpt><trkpt lat="42.264945" lon="14.2361183"><ele>345.0</ele><time>2026-05-01T09:44:43.269Z</time></trkpt><trkpt lat="42.2648817" lon="14.236065"><ele>344.3333333333333</ele><time>2026-05-01T09:44:45.269Z</time></trkpt><trkpt lat="42.2648183" lon="14.2360317"><ele>343.66666666666663</ele><time>2026-05-01T09:44:47.269Z</time></trkpt><trkpt lat="42.26471" lon="14.2360467"><ele>343.0</ele><time>2026-05-01T09:44:50.269Z</time></trkpt><trkpt lat="42.2646417" lon="14.236095"><ele>340.4</ele><time>2026-05-01T09:44:52.269Z</time></trkpt><trkpt lat="42.2645467" lon="14.2362167"><ele>337.79999999999995</ele><time>2026-05-01T09:44:54.269Z</time></trkpt><trkpt lat="42.2644933" lon="14.2362767"><ele>335.2</ele><time>2026-05-01T09:44:55.269Z</time></trkpt><trkpt lat="42.2644317" lon="14.236335"><ele>332.6</ele><time>2026-05-01T09:44:57.269Z</time></trkpt><trkpt lat="42.26433" lon="14.2363967"><ele>330.0</ele><time>2026-05-01T09:44:59.269Z</time></trkpt><trkpt lat="42.26421" lon="14.2364633"><ele>332.5</ele><time>2026-05-01T09:45:00.269Z</time></trkpt><trkpt lat="42.264135" lon="14.2365017"><ele>335.0</ele><time>2026-05-01T09:45:01.269Z</time></trkpt><trkpt lat="42.26406" lon="14.236545"><ele>337.5</ele><time>2026-05-01T09:45:02.269Z</time></trkpt><trkpt lat="42.2639933" lon="14.2366017"><ele>340.0</ele><time>2026-05-01T09:45:03.269Z</time></trkpt><trkpt lat="42.2639267" lon="14.2366667"><ele>342.5</ele><time>2026-05-01T09:45:04.269Z</time></trkpt><trkpt lat="42.2638667" lon="14.2367217"><ele>345.0</ele><time>2026-05-01T09:45:05.269Z</time></trkpt><trkpt lat="42.263805" lon="14.23675"><ele>345.0</ele><time>2026-05-01T09:45:06.269Z</time></trkpt><trkpt lat="42.2637333" lon="14.2367667"><ele>345.0</ele><time>2026-05-01T09:45:07.269Z</time></trkpt><trkpt lat="42.26364" lon="14.2367567"><ele>345.0</ele><time>2026-05-01T09:45:08.269Z</time></trkpt><trkpt lat="42.2635383" lon="14.236735"><ele>345.0</ele><time>2026-05-01T09:45:09.269Z</time></trkpt><trkpt lat="42.2634467" lon="14.2367133"><ele>345.0</ele><time>2026-05-01T09:45:10.269Z</time></trkpt><trkpt lat="42.263345" lon="14.2367133"><ele>345.0</ele><time>2026-05-01T09:45:11.27Z</time></trkpt><trkpt lat="42.263245" lon="14.2367417"><ele>345.0</ele><time>2026-05-01T09:45:12.269Z</time></trkpt><trkpt lat="42.2631417" lon="14.2367867"><ele>345.0</ele><time>2026-05-01T09:45:13.269Z</time></trkpt><trkpt lat="42.2630333" lon="14.2368483"><ele>345.0</ele><time>2026-05-01T09:45:14.269Z</time></trkpt><trkpt lat="42.2629183" lon="14.2369183"><ele>344.5</ele><time>2026-05-01T09:45:15.269Z</time></trkpt><trkpt lat="42.2627917" lon="14.23698"><ele>344.0</ele><time>2026-05-01T09:45:16.27Z</time></trkpt><trkpt lat="42.262675" lon="14.237025"><ele>343.5</ele><time>2026-05-01T09:45:17.27Z</time></trkpt><trkpt lat="42.262575" lon="14.2370667"><ele>343.0</ele><time>2026-05-01T09:45:18.269Z</time></trkpt><trkpt lat="42.2624883" lon="14.2371"><ele>343.0</ele><time>2026-05-01T09:45:19.269Z</time></trkpt><trkpt lat="42.2624133" lon="14.2371267"><ele>343.0</ele><time>2026-05-01T09:45:20.27Z</time></trkpt><trkpt lat="42.2623433" lon="14.237145"><ele>343.0</ele><time>2026-05-01T09:45:21.269Z</time></trkpt><trkpt lat="42.262275" lon="14.2371533"><ele>343.0</ele><time>2026-05-01T09:45:22.269Z</time></trkpt><trkpt lat="42.2622117" lon="14.23716"><ele>343.0</ele><time>2026-05-01T09:45:23.269Z</time></trkpt><trkpt lat="42.2620933" lon="14.2371583"><ele>343.0</ele><time>2026-05-01T09:45:25.269Z</time></trkpt><trkpt lat="42.2619783" lon="14.23716"><ele>341.4</ele><time>2026-05-01T09:45:27.269Z</time></trkpt><trkpt lat="42.2618517" lon="14.23719"><ele>339.79999999999995</ele><time>2026-05-01T09:45:29.269Z</time></trkpt><trkpt lat="42.2617883" lon="14.23722"><ele>338.2</ele><time>2026-05-01T09:45:30.269Z</time></trkpt><trkpt lat="42.261685" lon="14.2372583"><ele>336.6</ele><time>2026-05-01T09:45:32.27Z</time></trkpt><trkpt lat="42.2616183" lon="14.2372717"><ele>335.0</ele><time>2026-05-01T09:45:34.269Z</time></trkpt><trkpt lat="42.2615117" lon="14.2373417"><ele>337.33333333333337</ele><time>2026-05-01T09:46:01.269Z</time></trkpt><trkpt lat="42.2614567" lon="14.2373833"><ele>339.6666666666667</ele><time>2026-05-01T09:46:02.269Z</time></trkpt><trkpt lat="42.2613917" lon="14.2374283"><ele>342.0</ele><time>2026-05-01T09:46:03.269Z</time></trkpt><trkpt lat="42.26133" lon="14.23747"><ele>344.3333333333333</ele><time>2026-05-01T09:46:04.269Z</time></trkpt><trkpt lat="42.2612233" lon="14.2375133"><ele>346.66666666666663</ele><time>2026-05-01T09:46:06.269Z</time></trkpt><trkpt lat="42.2611533" lon="14.2375383"><ele>349.0</ele><time>2026-05-01T09:46:08.27Z</time></trkpt><trkpt lat="42.2610783" lon="14.2375917"><ele>349.0</ele><time>2026-05-01T09:46:11.269Z</time></trkpt><trkpt lat="42.2610283" lon="14.237675"><ele>349.0</ele><time>2026-05-01T09:46:13.269Z</time></trkpt><trkpt lat="42.2609917" lon="14.2377517"><ele>349.0</ele><time>2026-05-01T09:46:15.269Z</time></trkpt><trkpt lat="42.260945" lon="14.237835"><ele>349.0</ele><time>2026-05-01T09:46:18.27Z</time></trkpt><trkpt lat="42.2608833" lon="14.2379433"><ele>349.0</ele><time>2026-05-01T09:46:43.269Z</time></trkpt><trkpt lat="42.2608467" lon="14.2380133"><ele>349.0</ele><time>2026-05-01T09:46:44.269Z</time></trkpt><trkpt lat="42.2608117" lon="14.23809"><ele>349.2</ele><time>2026-05-01T09:46:45.269Z</time></trkpt><trkpt lat="42.26075" lon="14.2382117"><ele>349.4</ele><time>2026-05-01T09:46:47.27Z</time></trkpt><trkpt lat="42.2606983" lon="14.2383483"><ele>349.6</ele><time>2026-05-01T09:46:49.269Z</time></trkpt><trkpt lat="42.26064" lon="14.2385017"><ele>349.8</ele><time>2026-05-01T09:46:51.269Z</time></trkpt><trkpt lat="42.260605" lon="14.2385867"><ele>350.0</ele><time>2026-05-01T09:46:52.269Z</time></trkpt><trkpt lat="42.2605733" lon="14.2386667"><ele>350.0</ele><time>2026-05-01T09:46:53.27Z</time></trkpt><trkpt lat="42.2605133" lon="14.2388183"><ele>350.0</ele><time>2026-05-01T09:46:55.269Z</time></trkpt><trkpt lat="42.2604283" lon="14.2389383"><ele>350.0</ele><time>2026-05-01T09:46:57.269Z</time></trkpt><trkpt lat="42.2603283" lon="14.239015"><ele>350.0</ele><time>2026-05-01T09:46:59.269Z</time></trkpt><trkpt lat="42.26023" lon="14.23909"><ele>351.2</ele><time>2026-05-01T09:47:01.269Z</time></trkpt><trkpt lat="42.260145" lon="14.239185"><ele>352.4</ele><time>2026-05-01T09:47:03.269Z</time></trkpt><trkpt lat="42.2600433" lon="14.2392367"><ele>353.6</ele><time>2026-05-01T09:47:05.269Z</time></trkpt><trkpt lat="42.2599333" lon="14.2392183"><ele>354.8</ele><time>2026-05-01T09:47:07.269Z</time></trkpt><trkpt lat="42.2598283" lon="14.2391833"><ele>356.0</ele><time>2026-05-01T09:47:09.269Z</time></trkpt><trkpt lat="42.2597133" lon="14.2391617"><ele>357.0</ele><time>2026-05-01T09:47:11.269Z</time></trkpt><trkpt lat="42.2596" lon="14.23913"><ele>358.0</ele><time>2026-05-01T09:47:13.269Z</time></trkpt><trkpt lat="42.2594717" lon="14.2391017"><ele>359.0</ele><time>2026-05-01T09:47:15.27Z</time></trkpt><trkpt lat="42.2594033" lon="14.2390983"><ele>360.0</ele><time>2026-05-01T09:47:16.269Z</time></trkpt><trkpt lat="42.2592946" lon="14.239125"><ele>361.0</ele><time>2026-05-01T09:47:18.269Z</time></trkpt><trkpt lat="42.2591895" lon="14.2391689"><ele>361.0</ele><time>2026-05-01T09:47:20.27Z</time></trkpt><trkpt lat="42.2591201" lon="14.2391807"><ele>361.0</ele><time>2026-05-01T09:47:21.269Z</time></trkpt><trkpt lat="42.2590411" lon="14.2391836"><ele>361.0</ele><time>2026-05-01T09:47:22.269Z</time></trkpt><trkpt lat="42.25896" lon="14.2391745"><ele>361.0</ele><time>2026-05-01T09:47:23.269Z</time></trkpt><trkpt lat="42.2588752" lon="14.2391625"><ele>361.0</ele><time>2026-05-01T09:47:24.269Z</time></trkpt><trkpt lat="42.2588006" lon="14.2391504"><ele>361.0</ele><time>2026-05-01T09:47:25.269Z</time></trkpt><trkpt lat="42.2587296" lon="14.2391479"><ele>362.3333333333333</ele><time>2026-05-01T09:47:26.269Z</time></trkpt><trkpt lat="42.2586651" lon="14.2391713"><ele>363.66666666666663</ele><time>2026-05-01T09:47:27.269Z</time></trkpt><trkpt lat="42.2585941" lon="14.2392054"><ele>365.0</ele><time>2026-05-01T09:47:28.269Z</time></trkpt><trkpt lat="42.2585214" lon="14.2392472"><ele>366.3333333333333</ele><time>2026-05-01T09:47:29.269Z</time></trkpt><trkpt lat="42.2584448" lon="14.2392944"><ele>367.6666666666667</ele><time>2026-05-01T09:47:30.269Z</time></trkpt><trkpt lat="42.2583661" lon="14.2393437"><ele>369.0</ele><time>2026-05-01T09:47:31.269Z</time></trkpt><trkpt lat="42.2582845" lon="14.2394062"><ele>369.0</ele><time>2026-05-01T09:47:32.269Z</time></trkpt><trkpt lat="42.258192" lon="14.239472"><ele>369.0</ele><time>2026-05-01T09:47:33.269Z</time></trkpt><trkpt lat="42.2580953" lon="14.2395517"><ele>369.0</ele><time>2026-05-01T09:47:34.269Z</time></trkpt><trkpt lat="42.2580019" lon="14.2396429"><ele>369.0</ele><time>2026-05-01T09:47:35.269Z</time></trkpt><trkpt lat="42.2579185" lon="14.239732"><ele>369.0</ele><time>2026-05-01T09:47:36.269Z</time></trkpt><trkpt lat="42.257842" lon="14.2398212"><ele>367.8333333333333</ele><time>2026-05-01T09:47:37.269Z</time></trkpt><trkpt lat="42.2577724" lon="14.2399081"><ele>366.6666666666667</ele><time>2026-05-01T09:47:38.269Z</time></trkpt><trkpt lat="42.2577048" lon="14.2399806"><ele>365.5</ele><time>2026-05-01T09:47:39.269Z</time></trkpt><trkpt lat="42.2576424" lon="14.2400254"><ele>364.33333333333337</ele><time>2026-05-01T09:47:40.269Z</time></trkpt><trkpt lat="42.2575805" lon="14.2400492"><ele>363.1666666666667</ele><time>2026-05-01T09:47:41.269Z</time></trkpt><trkpt lat="42.2575132" lon="14.2400556"><ele>362.0</ele><time>2026-05-01T09:47:42.269Z</time></trkpt><trkpt lat="42.2574344" lon="14.2400421"><ele>362.0</ele><time>2026-05-01T09:47:43.269Z</time></trkpt><trkpt lat="42.2573499" lon="14.2400113"><ele>362.0</ele><time>2026-05-01T09:47:44.27Z</time></trkpt><trkpt lat="42.2572673" lon="14.2399741"><ele>362.0</ele><time>2026-05-01T09:47:45.269Z</time></trkpt><trkpt lat="42.2571912" lon="14.2399207"><ele>362.0</ele><time>2026-05-01T09:47:46.269Z</time></trkpt><trkpt lat="42.2571279" lon="14.2398504"><ele>362.0</ele><time>2026-05-01T09:47:47.269Z</time></trkpt><trkpt lat="42.2570681" lon="14.2397847"><ele>362.0</ele><time>2026-05-01T09:47:48.269Z</time></trkpt><trkpt lat="42.2570117" lon="14.23972"><ele>361.1666666666667</ele><time>2026-05-01T09:47:49.269Z</time></trkpt><trkpt lat="42.2569483" lon="14.2396633"><ele>360.33333333333337</ele><time>2026-05-01T09:47:50.269Z</time></trkpt><trkpt lat="42.2568883" lon="14.23961"><ele>359.5</ele><time>2026-05-01T09:47:51.269Z</time></trkpt><trkpt lat="42.2568317" lon="14.23957"><ele>358.6666666666667</ele><time>2026-05-01T09:47:52.269Z</time></trkpt><trkpt lat="42.2567183" lon="14.239535"><ele>357.8333333333333</ele><time>2026-05-01T09:47:54.269Z</time></trkpt><trkpt lat="42.256615" lon="14.239485"><ele>357.0</ele><time>2026-05-01T09:47:56.269Z</time></trkpt><trkpt lat="42.2565433" lon="14.2394183"><ele>357.0</ele><time>2026-05-01T09:47:57.269Z</time></trkpt><trkpt lat="42.2564567" lon="14.2393567"><ele>357.0</ele><time>2026-05-01T09:47:58.269Z</time></trkpt><trkpt lat="42.2563717" lon="14.2392767"><ele>357.0</ele><time>2026-05-01T09:47:59.269Z</time></trkpt><trkpt lat="42.2562767" lon="14.2391867"><ele>357.0</ele><time>2026-05-01T09:48:00.27Z</time></trkpt><trkpt lat="42.25618" lon="14.239095"><ele>357.0</ele><time>2026-05-01T09:48:01.27Z</time></trkpt><trkpt lat="42.2560867" lon="14.2389967"><ele>354.40000000000003</ele><time>2026-05-01T09:48:02.269Z</time></trkpt><trkpt lat="42.2560067" lon="14.2389133"><ele>351.8</ele><time>2026-05-01T09:48:03.269Z</time></trkpt><trkpt lat="42.255925" lon="14.23884"><ele>349.2</ele><time>2026-05-01T09:48:04.269Z</time></trkpt><trkpt lat="42.255845" lon="14.2387817"><ele>346.6</ele><time>2026-05-01T09:48:05.269Z</time></trkpt><trkpt lat="42.255785" lon="14.2387333"><ele>344.0</ele><time>2026-05-01T09:48:06.269Z</time></trkpt><trkpt lat="42.2556967" lon="14.23867"><ele>344.1666666666667</ele><time>2026-05-01T09:48:08.27Z</time></trkpt><trkpt lat="42.255595" lon="14.2386433"><ele>344.33333333333337</ele><time>2026-05-01T09:48:10.269Z</time></trkpt><trkpt lat="42.2555333" lon="14.2385633"><ele>344.5</ele><time>2026-05-01T09:48:12.269Z</time></trkpt><trkpt lat="42.2555067" lon="14.238485"><ele>344.6666666666667</ele><time>2026-05-01T09:48:13.269Z</time></trkpt><trkpt lat="42.2554767" lon="14.2383867"><ele>344.8333333333333</ele><time>2026-05-01T09:48:14.269Z</time></trkpt><trkpt lat="42.2554233" lon="14.238285"><ele>345.0</ele><time>2026-05-01T09:48:15.269Z</time></trkpt><trkpt lat="42.2553483" lon="14.2382033"><ele>339.75</ele><time>2026-05-01T09:48:16.269Z</time></trkpt><trkpt lat="42.2552383" lon="14.2381333"><ele>334.5</ele><time>2026-05-01T09:48:17.269Z</time></trkpt><trkpt lat="42.2551133" lon="14.238085"><ele>329.25</ele><time>2026-05-01T09:48:18.27Z</time></trkpt><trkpt lat="42.2549817" lon="14.2380633"><ele>324.0</ele><time>2026-05-01T09:48:19.269Z</time></trkpt><trkpt lat="42.2548533" lon="14.2380417"><ele>324.75</ele><time>2026-05-01T09:48:20.269Z</time></trkpt><trkpt lat="42.254725" lon="14.2380267"><ele>325.5</ele><time>2026-05-01T09:48:21.269Z</time></trkpt><trkpt lat="42.2546083" lon="14.23801"><ele>326.25</ele><time>2026-05-01T09:48:22.27Z</time></trkpt><trkpt lat="42.254495" lon="14.2379933"><ele>327.0</ele><time>2026-05-01T09:48:23.27Z</time></trkpt><trkpt lat="42.2543883" lon="14.2379733"><ele>327.0</ele><time>2026-05-01T09:48:24.269Z</time></trkpt><trkpt lat="42.254285" lon="14.2379367"><ele>327.0</ele><time>2026-05-01T09:48:25.269Z</time></trkpt><trkpt lat="42.25417" lon="14.237865"><ele>327.0</ele><time>2026-05-01T09:48:26.269Z</time></trkpt><trkpt lat="42.25405" lon="14.237765"><ele>327.0</ele><time>2026-05-01T09:48:27.269Z</time></trkpt><trkpt lat="42.253935" lon="14.2376583"><ele>327.75</ele><time>2026-05-01T09:48:28.269Z</time></trkpt><trkpt lat="42.2538183" lon="14.23755"><ele>328.5</ele><time>2026-05-01T09:48:29.269Z</time></trkpt><trkpt lat="42.2537133" lon="14.2374183"><ele>329.25</ele><time>2026-05-01T09:48:30.269Z</time></trkpt><trkpt lat="42.2536233" lon="14.2372667"><ele>330.0</ele><time>2026-05-01T09:48:31.269Z</time></trkpt><trkpt lat="42.2535483" lon="14.23712"><ele>330.0</ele><time>2026-05-01T09:48:32.269Z</time></trkpt><trkpt lat="42.25348" lon="14.2369833"><ele>330.0</ele><time>2026-05-01T09:48:33.269Z</time></trkpt><trkpt lat="42.2534283" lon="14.2368117"><ele>330.0</ele><time>2026-05-01T09:48:34.269Z</time></trkpt><trkpt lat="42.25337" lon="14.2366383"><ele>330.0</ele><time>2026-05-01T09:48:35.269Z</time></trkpt><trkpt lat="42.253315" lon="14.2364617"><ele>330.5</ele><time>2026-05-01T09:48:36.269Z</time></trkpt><trkpt lat="42.2532617" lon="14.2363017"><ele>331.0</ele><time>2026-05-01T09:48:37.269Z</time></trkpt><trkpt lat="42.2531983" lon="14.2361317"><ele>331.5</ele><time>2026-05-01T09:48:38.269Z</time></trkpt><trkpt lat="42.25315" lon="14.2359583"><ele>332.0</ele><time>2026-05-01T09:48:39.269Z</time></trkpt><trkpt lat="42.253105" lon="14.235795"><ele>332.0</ele><time>2026-05-01T09:48:40.269Z</time></trkpt><trkpt lat="42.2530533" lon="14.23564"><ele>332.0</ele><time>2026-05-01T09:48:41.269Z</time></trkpt><trkpt lat="42.2529933" lon="14.2354867"><ele>332.0</ele><time>2026-05-01T09:48:42.269Z</time></trkpt><trkpt lat="42.2529183" lon="14.235355"><ele>332.0</ele><time>2026-05-01T09:48:43.269Z</time></trkpt><trkpt lat="42.2528083" lon="14.235235"><ele>327.5</ele><time>2026-05-01T09:48:44.269Z</time></trkpt><trkpt lat="42.2526783" lon="14.2351333"><ele>323.0</ele><time>2026-05-01T09:48:45.269Z</time></trkpt><trkpt lat="42.2525483" lon="14.2350683"><ele>318.5</ele><time>2026-05-01T09:48:46.269Z</time></trkpt><trkpt lat="42.2524283" lon="14.235"><ele>314.0</ele><time>2026-05-01T09:48:47.269Z</time></trkpt><trkpt lat="42.2523133" lon="14.2348983"><ele>315.0</ele><time>2026-05-01T09:48:48.269Z</time></trkpt><trkpt lat="42.252205" lon="14.2347617"><ele>316.0</ele><time>2026-05-01T09:48:49.269Z</time></trkpt><trkpt lat="42.252105" lon="14.23461"><ele>317.0</ele><time>2026-05-01T09:48:50.269Z</time></trkpt><trkpt lat="42.2520183" lon="14.23446"><ele>318.0</ele><time>2026-05-01T09:48:51.269Z</time></trkpt><trkpt lat="42.2519367" lon="14.234315"><ele>318.0</ele><time>2026-05-01T09:48:52.269Z</time></trkpt><trkpt lat="42.251865" lon="14.23418"><ele>318.0</ele><time>2026-05-01T09:48:53.269Z</time></trkpt><trkpt lat="42.25181" lon="14.23406"><ele>318.0</ele><time>2026-05-01T09:48:54.269Z</time></trkpt><trkpt lat="42.2517783" lon="14.2339317"><ele>318.0</ele><time>2026-05-01T09:48:55.269Z</time></trkpt><trkpt lat="42.251775" lon="14.23379"><ele>318.0</ele><time>2026-05-01T09:48:56.269Z</time></trkpt><trkpt lat="42.2518017" lon="14.233665"><ele>314.6</ele><time>2026-05-01T09:48:57.269Z</time></trkpt><trkpt lat="42.2518567" lon="14.2335883"><ele>311.20000000000005</ele><time>2026-05-01T09:48:58.269Z</time></trkpt><trkpt lat="42.251925" lon="14.2335517"><ele>307.8</ele><time>2026-05-01T09:48:59.269Z</time></trkpt><trkpt lat="42.252" lon="14.2335683"><ele>304.40000000000003</ele><time>2026-05-01T09:49:00.269Z</time></trkpt><trkpt lat="42.2520883" lon="14.2336817"><ele>301.0</ele><time>2026-05-01T09:49:01.269Z</time></trkpt><trkpt lat="42.2521633" lon="14.233805"><ele>301.0</ele><time>2026-05-01T09:49:02.269Z</time></trkpt><trkpt lat="42.2522233" lon="14.2339533"><ele>301.0</ele><time>2026-05-01T09:49:03.269Z</time></trkpt><trkpt lat="42.2523033" lon="14.2341033"><ele>301.0</ele><time>2026-05-01T09:49:04.269Z</time></trkpt><trkpt lat="42.2523883" lon="14.2342233"><ele>301.0</ele><time>2026-05-01T09:49:05.269Z</time></trkpt><trkpt lat="42.2524867" lon="14.2343233"><ele>299.3333333333333</ele><time>2026-05-01T09:49:06.269Z</time></trkpt><trkpt lat="42.252605" lon="14.23439"><ele>297.6666666666667</ele><time>2026-05-01T09:49:07.27Z</time></trkpt><trkpt lat="42.2527583" lon="14.23442"><ele>296.0</ele><time>2026-05-01T09:49:08.269Z</time></trkpt><trkpt lat="42.2529333" lon="14.2344383"><ele>296.0</ele><time>2026-05-01T09:49:09.269Z</time></trkpt><trkpt lat="42.2531" lon="14.234435"><ele>296.0</ele><time>2026-05-01T09:49:10.269Z</time></trkpt><trkpt lat="42.2532567" lon="14.23444"><ele>296.0</ele><time>2026-05-01T09:49:11.269Z</time></trkpt><trkpt lat="42.2534083" lon="14.2344417"><ele>294.25</ele><time>2026-05-01T09:49:12.269Z</time></trkpt><trkpt lat="42.253555" lon="14.2344583"><ele>292.5</ele><time>2026-05-01T09:49:13.269Z</time></trkpt><trkpt lat="42.253695" lon="14.2345"><ele>290.75</ele><time>2026-05-01T09:49:14.269Z</time></trkpt><trkpt lat="42.25383" lon="14.234565"><ele>289.0</ele><time>2026-05-01T09:49:15.269Z</time></trkpt><trkpt lat="42.2539733" lon="14.23465"><ele>290.3333333333333</ele><time>2026-05-01T09:49:16.269Z</time></trkpt><trkpt lat="42.2541167" lon="14.23473"><ele>291.6666666666667</ele><time>2026-05-01T09:49:17.269Z</time></trkpt><trkpt lat="42.254255" lon="14.2348233"><ele>293.0</ele><time>2026-05-01T09:49:18.269Z</time></trkpt><trkpt lat="42.254395" lon="14.2349217"><ele>293.0</ele><time>2026-05-01T09:49:19.269Z</time></trkpt><trkpt lat="42.2545283" lon="14.2350133"><ele>293.0</ele><time>2026-05-01T09:49:20.269Z</time></trkpt><trkpt lat="42.254655" lon="14.235095"><ele>293.0</ele><time>2026-05-01T09:49:21.269Z</time></trkpt><trkpt lat="42.2548" lon="14.23517"><ele>293.0</ele><time>2026-05-01T09:49:22.269Z</time></trkpt><trkpt lat="42.2549533" lon="14.235225"><ele>290.0</ele><time>2026-05-01T09:49:23.269Z</time></trkpt><trkpt lat="42.255125" lon="14.2352667"><ele>287.0</ele><time>2026-05-01T09:49:24.269Z</time></trkpt><trkpt lat="42.2552967" lon="14.2352917"><ele>284.0</ele><time>2026-05-01T09:49:25.269Z</time></trkpt><trkpt lat="42.255455" lon="14.2353083"><ele>284.0</ele><time>2026-05-01T09:49:26.269Z</time></trkpt><trkpt lat="42.2556133" lon="14.2353167"><ele>284.0</ele><time>2026-05-01T09:49:27.269Z</time></trkpt><trkpt lat="42.2557533" lon="14.2353217"><ele>284.0</ele><time>2026-05-01T09:49:28.269Z</time></trkpt><trkpt lat="42.255895" lon="14.2352967"><ele>284.0</ele><time>2026-05-01T09:49:29.269Z</time></trkpt><trkpt lat="42.256035" lon="14.2352317"><ele>281.33333333333337</ele><time>2026-05-01T09:49:30.269Z</time></trkpt><trkpt lat="42.2561683" lon="14.2351417"><ele>278.6666666666667</ele><time>2026-05-01T09:49:31.269Z</time></trkpt><trkpt lat="42.2562967" lon="14.2350267"><ele>276.0</ele><time>2026-05-01T09:49:32.269Z</time></trkpt><trkpt lat="42.2564217" lon="14.234915"><ele>276.25</ele><time>2026-05-01T09:49:33.269Z</time></trkpt><trkpt lat="42.2565383" lon="14.2348083"><ele>276.5</ele><time>2026-05-01T09:49:34.269Z</time></trkpt><trkpt lat="42.256645" lon="14.2347183"><ele>276.75</ele><time>2026-05-01T09:49:35.269Z</time></trkpt><trkpt lat="42.25674" lon="14.23463"><ele>277.0</ele><time>2026-05-01T09:49:36.269Z</time></trkpt><trkpt lat="42.25682" lon="14.2345533"><ele>274.8</ele><time>2026-05-01T09:49:37.269Z</time></trkpt><trkpt lat="42.2568817" lon="14.2344883"><ele>272.6</ele><time>2026-05-01T09:49:38.27Z</time></trkpt><trkpt lat="42.2569467" lon="14.2343817"><ele>270.40000000000003</ele><time>2026-05-01T09:49:40.27Z</time></trkpt><trkpt lat="42.2569333" lon="14.2342967"><ele>268.2</ele><time>2026-05-01T09:49:42.269Z</time></trkpt><trkpt lat="42.256855" lon="14.234255"><ele>266.0</ele><time>2026-05-01T09:49:44.269Z</time></trkpt><trkpt lat="42.2567217" lon="14.2342433"><ele>266.0</ele><time>2026-05-01T09:49:46.269Z</time></trkpt><trkpt lat="42.2566233" lon="14.2342483"><ele>266.0</ele><time>2026-05-01T09:49:47.269Z</time></trkpt><trkpt lat="42.2565083" lon="14.2342517"><ele>266.0</ele><time>2026-05-01T09:49:48.269Z</time></trkpt><trkpt lat="42.25639" lon="14.2342667"><ele>266.0</ele><time>2026-05-01T09:49:49.269Z</time></trkpt><trkpt lat="42.2562733" lon="14.2342883"><ele>266.0</ele><time>2026-05-01T09:49:50.27Z</time></trkpt><trkpt lat="42.25616" lon="14.2343117"><ele>266.0</ele><time>2026-05-01T09:49:51.269Z</time></trkpt><trkpt lat="42.2560517" lon="14.234305"><ele>266.0</ele><time>2026-05-01T09:49:52.27Z</time></trkpt><trkpt lat="42.25595" lon="14.2342783"><ele>266.0</ele><time>2026-05-01T09:49:53.269Z</time></trkpt><trkpt lat="42.25586" lon="14.23422"><ele>266.0</ele><time>2026-05-01T09:49:54.269Z</time></trkpt><trkpt lat="42.255785" lon="14.2341283"><ele>266.0</ele><time>2026-05-01T09:49:55.269Z</time></trkpt><trkpt lat="42.2557217" lon="14.234015"><ele>266.0</ele><time>2026-05-01T09:49:56.269Z</time></trkpt><trkpt lat="42.255665" lon="14.2338783"><ele>266.0</ele><time>2026-05-01T09:49:57.269Z</time></trkpt><trkpt lat="42.255625" lon="14.2337183"><ele>266.0</ele><time>2026-05-01T09:49:58.269Z</time></trkpt><trkpt lat="42.2556017" lon="14.2335567"><ele>264.0</ele><time>2026-05-01T09:49:59.269Z</time></trkpt><trkpt lat="42.255585" lon="14.2334"><ele>262.0</ele><time>2026-05-01T09:50:00.269Z</time></trkpt><trkpt lat="42.2555783" lon="14.2332583"><ele>260.0</ele><time>2026-05-01T09:50:01.269Z</time></trkpt><trkpt lat="42.2555833" lon="14.2331183"><ele>258.0</ele><time>2026-05-01T09:50:02.269Z</time></trkpt><trkpt lat="42.255605" lon="14.2329833"><ele>256.0</ele><time>2026-05-01T09:50:03.269Z</time></trkpt><trkpt lat="42.2556583" lon="14.2328467"><ele>254.75</ele><time>2026-05-01T09:50:04.269Z</time></trkpt><trkpt lat="42.25574" lon="14.23273"><ele>253.5</ele><time>2026-05-01T09:50:05.269Z</time></trkpt><trkpt lat="42.2558483" lon="14.2326317"><ele>252.25</ele><time>2026-05-01T09:50:06.27Z</time></trkpt><trkpt lat="42.2559733" lon="14.2325417"><ele>251.0</ele><time>2026-05-01T09:50:07.269Z</time></trkpt><trkpt lat="42.256105" lon="14.2324683"><ele>251.0</ele><time>2026-05-01T09:50:08.269Z</time></trkpt><trkpt lat="42.2562317" lon="14.2323983"><ele>251.0</ele><time>2026-05-01T09:50:09.269Z</time></trkpt><trkpt lat="42.256355" lon="14.2323433"><ele>251.0</ele><time>2026-05-01T09:50:10.269Z</time></trkpt><trkpt lat="42.2564867" lon="14.2322867"><ele>251.0</ele><time>2026-05-01T09:50:11.269Z</time></trkpt><trkpt lat="42.2566083" lon="14.232255"><ele>249.25</ele><time>2026-05-01T09:50:12.269Z</time></trkpt><trkpt lat="42.2567333" lon="14.2322417"><ele>247.5</ele><time>2026-05-01T09:50:13.269Z</time></trkpt><trkpt lat="42.2568617" lon="14.23223"><ele>245.75</ele><time>2026-05-01T09:50:14.269Z</time></trkpt><trkpt lat="42.2569817" lon="14.2322033"><ele>244.0</ele><time>2026-05-01T09:50:15.269Z</time></trkpt><trkpt lat="42.2570933" lon="14.2321433"><ele>244.0</ele><time>2026-05-01T09:50:16.269Z</time></trkpt><trkpt lat="42.2571983" lon="14.2320467"><ele>244.0</ele><time>2026-05-01T09:50:17.269Z</time></trkpt><trkpt lat="42.2573083" lon="14.231915"><ele>244.0</ele><time>2026-05-01T09:50:18.269Z</time></trkpt><trkpt lat="42.2574067" lon="14.2317633"><ele>244.0</ele><time>2026-05-01T09:50:19.269Z</time></trkpt><trkpt lat="42.2575133" lon="14.2316133"><ele>240.66666666666666</ele><time>2026-05-01T09:50:20.27Z</time></trkpt><trkpt lat="42.2576283" lon="14.2314567"><ele>237.33333333333331</ele><time>2026-05-01T09:50:21.269Z</time></trkpt><trkpt lat="42.2577383" lon="14.2313117"><ele>234.0</ele><time>2026-05-01T09:50:22.269Z</time></trkpt><trkpt lat="42.2578433" lon="14.2311817"><ele>234.0</ele><time>2026-05-01T09:50:23.27Z</time></trkpt><trkpt lat="42.2579367" lon="14.2310567"><ele>234.0</ele><time>2026-05-01T09:50:24.27Z</time></trkpt><trkpt lat="42.258025" lon="14.230935"><ele>234.0</ele><time>2026-05-01T09:50:25.269Z</time></trkpt><trkpt lat="42.2581083" lon="14.2308117"><ele>234.0</ele><time>2026-05-01T09:50:26.269Z</time></trkpt><trkpt lat="42.2581833" lon="14.230665"><ele>230.75</ele><time>2026-05-01T09:50:27.269Z</time></trkpt><trkpt lat="42.25825" lon="14.2305"><ele>227.5</ele><time>2026-05-01T09:50:28.269Z</time></trkpt><trkpt lat="42.258295" lon="14.2303067"><ele>224.25</ele><time>2026-05-01T09:50:29.269Z</time></trkpt><trkpt lat="42.2583233" lon="14.2301067"><ele>221.0</ele><time>2026-05-01T09:50:30.269Z</time></trkpt><trkpt lat="42.2583483" lon="14.2299167"><ele>220.25</ele><time>2026-05-01T09:50:31.269Z</time></trkpt><trkpt lat="42.2583767" lon="14.229735"><ele>219.5</ele><time>2026-05-01T09:50:32.269Z</time></trkpt><trkpt lat="42.25841" lon="14.2295767"><ele>218.75</ele><time>2026-05-01T09:50:33.269Z</time></trkpt><trkpt lat="42.25844" lon="14.22942"><ele>218.0</ele><time>2026-05-01T09:50:34.269Z</time></trkpt><trkpt lat="42.2584433" lon="14.22926"><ele>218.0</ele><time>2026-05-01T09:50:35.269Z</time></trkpt><trkpt lat="42.2584267" lon="14.2291083"><ele>218.0</ele><time>2026-05-01T09:50:36.269Z</time></trkpt><trkpt lat="42.25838" lon="14.228975"><ele>218.0</ele><time>2026-05-01T09:50:37.269Z</time></trkpt><trkpt lat="42.2582983" lon="14.22888"><ele>218.0</ele><time>2026-05-01T09:50:38.269Z</time></trkpt><trkpt lat="42.2581983" lon="14.228825"><ele>218.0</ele><time>2026-05-01T09:50:39.269Z</time></trkpt><trkpt lat="42.25807" lon="14.22882"><ele>216.25</ele><time>2026-05-01T09:50:40.269Z</time></trkpt><trkpt lat="42.25793" lon="14.228865"><ele>214.5</ele><time>2026-05-01T09:50:41.27Z</time></trkpt><trkpt lat="42.2577967" lon="14.2289433"><ele>212.75</ele><time>2026-05-01T09:50:42.269Z</time></trkpt><trkpt lat="42.25767" lon="14.2290417"><ele>211.0</ele><time>2026-05-01T09:50:43.269Z</time></trkpt><trkpt lat="42.2575417" lon="14.2291583"><ele>211.0</ele><time>2026-05-01T09:50:44.269Z</time></trkpt><trkpt lat="42.2574233" lon="14.2292517"><ele>211.0</ele><time>2026-05-01T09:50:45.27Z</time></trkpt><trkpt lat="42.2573133" lon="14.2293067"><ele>211.0</ele><time>2026-05-01T09:50:46.269Z</time></trkpt><trkpt lat="42.2572083" lon="14.22935"><ele>211.0</ele><time>2026-05-01T09:50:47.269Z</time></trkpt><trkpt lat="42.2570933" lon="14.2293583"><ele>210.8</ele><time>2026-05-01T09:50:48.269Z</time></trkpt><trkpt lat="42.256975" lon="14.22932"><ele>210.60000000000002</ele><time>2026-05-01T09:50:49.27Z</time></trkpt><trkpt lat="42.2568733" lon="14.229255"><ele>210.4</ele><time>2026-05-01T09:50:50.27Z</time></trkpt><trkpt lat="42.2568083" lon="14.2291533"><ele>210.2</ele><time>2026-05-01T09:50:51.269Z</time></trkpt><trkpt lat="42.2567733" lon="14.2290283"><ele>210.0</ele><time>2026-05-01T09:50:52.269Z</time></trkpt><trkpt lat="42.2567583" lon="14.22888"><ele>209.75</ele><time>2026-05-01T09:50:53.269Z</time></trkpt><trkpt lat="42.256775" lon="14.22875"><ele>209.5</ele><time>2026-05-01T09:50:54.269Z</time></trkpt><trkpt lat="42.2568017" lon="14.2286067"><ele>209.25</ele><time>2026-05-01T09:50:55.269Z</time></trkpt><trkpt lat="42.2568633" lon="14.2284567"><ele>209.0</ele><time>2026-05-01T09:50:56.269Z</time></trkpt><trkpt lat="42.2569483" lon="14.2283133"><ele>209.0</ele><time>2026-05-01T09:50:57.27Z</time></trkpt><trkpt lat="42.257045" lon="14.2281633"><ele>209.0</ele><time>2026-05-01T09:50:58.269Z</time></trkpt><trkpt lat="42.2571517" lon="14.2280117"><ele>209.0</ele><time>2026-05-01T09:50:59.269Z</time></trkpt><trkpt lat="42.2572417" lon="14.22785"><ele>207.0</ele><time>2026-05-01T09:51:00.269Z</time></trkpt><trkpt lat="42.2573183" lon="14.2276933"><ele>205.0</ele><time>2026-05-01T09:51:01.269Z</time></trkpt><trkpt lat="42.2573783" lon="14.2275283"><ele>203.0</ele><time>2026-05-01T09:51:02.269Z</time></trkpt><trkpt lat="42.25742" lon="14.2273333"><ele>201.0</ele><time>2026-05-01T09:51:03.269Z</time></trkpt><trkpt lat="42.25745" lon="14.22717"><ele>199.20000000000002</ele><time>2026-05-01T09:51:04.269Z</time></trkpt><trkpt lat="42.2574667" lon="14.2270283"><ele>197.4</ele><time>2026-05-01T09:51:05.269Z</time></trkpt><trkpt lat="42.2574583" lon="14.226885"><ele>195.6</ele><time>2026-05-01T09:51:06.27Z</time></trkpt><trkpt lat="42.2574483" lon="14.2267683"><ele>193.8</ele><time>2026-05-01T09:51:07.269Z</time></trkpt><trkpt lat="42.257405" lon="14.2266417"><ele>192.0</ele><time>2026-05-01T09:51:08.269Z</time></trkpt><trkpt lat="42.2573383" lon="14.22653"><ele>189.75</ele><time>2026-05-01T09:51:09.269Z</time></trkpt><trkpt lat="42.257255" lon="14.226435"><ele>187.5</ele><time>2026-05-01T09:51:10.269Z</time></trkpt><trkpt lat="42.25715" lon="14.2263567"><ele>185.25</ele><time>2026-05-01T09:51:11.269Z</time></trkpt><trkpt lat="42.2570367" lon="14.2262933"><ele>183.0</ele><time>2026-05-01T09:51:12.27Z</time></trkpt><trkpt lat="42.2569283" lon="14.2262367"><ele>183.0</ele><time>2026-05-01T09:51:13.269Z</time></trkpt><trkpt lat="42.25683" lon="14.2261767"><ele>183.0</ele><time>2026-05-01T09:51:14.269Z</time></trkpt><trkpt lat="42.2567383" lon="14.226105"><ele>183.0</ele><time>2026-05-01T09:51:15.269Z</time></trkpt><trkpt lat="42.256665" lon="14.22603"><ele>183.0</ele><time>2026-05-01T09:51:16.269Z</time></trkpt><trkpt lat="42.2566217" lon="14.2259333"><ele>183.0</ele><time>2026-05-01T09:51:17.269Z</time></trkpt><trkpt lat="42.2566083" lon="14.225825"><ele>183.0</ele><time>2026-05-01T09:51:18.269Z</time></trkpt><trkpt lat="42.25662" lon="14.225715"><ele>183.0</ele><time>2026-05-01T09:51:19.269Z</time></trkpt><trkpt lat="42.2567017" lon="14.2256067"><ele>183.0</ele><time>2026-05-01T09:51:20.27Z</time></trkpt><trkpt lat="42.25679" lon="14.2255183"><ele>183.0</ele><time>2026-05-01T09:51:21.27Z</time></trkpt><trkpt lat="42.2569067" lon="14.225495"><ele>183.0</ele><time>2026-05-01T09:51:22.269Z</time></trkpt><trkpt lat="42.2570467" lon="14.2255"><ele>180.5</ele><time>2026-05-01T09:51:23.269Z</time></trkpt><trkpt lat="42.2571967" lon="14.2255233"><ele>178.0</ele><time>2026-05-01T09:51:24.269Z</time></trkpt><trkpt lat="42.2573383" lon="14.225545"><ele>175.5</ele><time>2026-05-01T09:51:25.269Z</time></trkpt><trkpt lat="42.2574733" lon="14.2255483"><ele>173.0</ele><time>2026-05-01T09:51:26.269Z</time></trkpt><trkpt lat="42.25761" lon="14.2255583"><ele>173.0</ele><time>2026-05-01T09:51:27.269Z</time></trkpt><trkpt lat="42.2577317" lon="14.2255617"><ele>173.0</ele><time>2026-05-01T09:51:28.269Z</time></trkpt><trkpt lat="42.25784" lon="14.2255617"><ele>173.0</ele><time>2026-05-01T09:51:29.269Z</time></trkpt><trkpt lat="42.2579367" lon="14.2255283"><ele>173.0</ele><time>2026-05-01T09:51:30.269Z</time></trkpt><trkpt lat="42.258025" lon="14.2254717"><ele>173.0</ele><time>2026-05-01T09:51:31.269Z</time></trkpt><trkpt lat="42.2580817" lon="14.2253783"><ele>173.0</ele><time>2026-05-01T09:51:32.27Z</time></trkpt><trkpt lat="42.2581117" lon="14.2252533"><ele>173.0</ele><time>2026-05-01T09:51:33.269Z</time></trkpt><trkpt lat="42.2580967" lon="14.2251183"><ele>173.0</ele><time>2026-05-01T09:51:34.269Z</time></trkpt><trkpt lat="42.2580367" lon="14.22499"><ele>173.0</ele><time>2026-05-01T09:51:35.269Z</time></trkpt><trkpt lat="42.257865" lon="14.22489"><ele>170.66666666666666</ele><time>2026-05-01T09:51:36.269Z</time></trkpt><trkpt lat="42.257695" lon="14.2248017"><ele>168.33333333333334</ele><time>2026-05-01T09:51:37.269Z</time></trkpt><trkpt lat="42.2575267" lon="14.22473"><ele>166.0</ele><time>2026-05-01T09:51:38.27Z</time></trkpt><trkpt lat="42.257385" lon="14.2246667"><ele>165.4</ele><time>2026-05-01T09:51:39.269Z</time></trkpt><trkpt lat="42.2572633" lon="14.2246117"><ele>164.8</ele><time>2026-05-01T09:51:40.269Z</time></trkpt><trkpt lat="42.2571683" lon="14.2245583"><ele>164.20000000000002</ele><time>2026-05-01T09:51:41.27Z</time></trkpt><trkpt lat="42.2570833" lon="14.224505"><ele>163.60000000000002</ele><time>2026-05-01T09:51:42.269Z</time></trkpt><trkpt lat="42.2570117" lon="14.2244383"><ele>163.0</ele><time>2026-05-01T09:51:43.269Z</time></trkpt><trkpt lat="42.25696" lon="14.2243517"><ele>163.0</ele><time>2026-05-01T09:51:44.269Z</time></trkpt><trkpt lat="42.2569433" lon="14.2242433"><ele>163.0</ele><time>2026-05-01T09:51:45.269Z</time></trkpt><trkpt lat="42.2569517" lon="14.22413"><ele>163.0</ele><time>2026-05-01T09:51:46.269Z</time></trkpt><trkpt lat="42.2570233" lon="14.2240283"><ele>163.0</ele><time>2026-05-01T09:51:47.269Z</time></trkpt><trkpt lat="42.25712" lon="14.22395"><ele>163.0</ele><time>2026-05-01T09:51:48.269Z</time></trkpt><trkpt lat="42.25724" lon="14.223875"><ele>162.0</ele><time>2026-05-01T09:51:49.269Z</time></trkpt><trkpt lat="42.2573633" lon="14.2238067"><ele>161.0</ele><time>2026-05-01T09:51:50.269Z</time></trkpt><trkpt lat="42.257475" lon="14.223745"><ele>160.0</ele><time>2026-05-01T09:51:51.27Z</time></trkpt><trkpt lat="42.2575717" lon="14.223685"><ele>159.0</ele><time>2026-05-01T09:51:52.269Z</time></trkpt><trkpt lat="42.2576583" lon="14.2236217"><ele>159.0</ele><time>2026-05-01T09:51:53.269Z</time></trkpt><trkpt lat="42.2577217" lon="14.223535"><ele>159.0</ele><time>2026-05-01T09:51:54.269Z</time></trkpt><trkpt lat="42.2577667" lon="14.22343"><ele>159.0</ele><time>2026-05-01T09:51:55.269Z</time></trkpt><trkpt lat="42.2577883" lon="14.2232967"><ele>159.0</ele><time>2026-05-01T09:51:56.269Z</time></trkpt><trkpt lat="42.2577583" lon="14.2231367"><ele>159.0</ele><time>2026-05-01T09:51:57.269Z</time></trkpt><trkpt lat="42.2577" lon="14.22299"><ele>158.5</ele><time>2026-05-01T09:51:58.269Z</time></trkpt><trkpt lat="42.25763" lon="14.2228333"><ele>158.0</ele><time>2026-05-01T09:51:59.269Z</time></trkpt><trkpt lat="42.2575783" lon="14.2226583"><ele>157.5</ele><time>2026-05-01T09:52:00.269Z</time></trkpt><trkpt lat="42.2575183" lon="14.2224883"><ele>157.0</ele><time>2026-05-01T09:52:01.269Z</time></trkpt><trkpt lat="42.2574617" lon="14.2223183"><ele>158.0</ele><time>2026-05-01T09:52:02.269Z</time></trkpt><trkpt lat="42.257405" lon="14.2221567"><ele>159.0</ele><time>2026-05-01T09:52:03.27Z</time></trkpt><trkpt lat="42.2573317" lon="14.222"><ele>160.0</ele><time>2026-05-01T09:52:04.269Z</time></trkpt><trkpt lat="42.2572683" lon="14.2218383"><ele>161.0</ele><time>2026-05-01T09:52:05.269Z</time></trkpt><trkpt lat="42.25722" lon="14.2216983"><ele>161.0</ele><time>2026-05-01T09:52:06.269Z</time></trkpt><trkpt lat="42.2571817" lon="14.2215633"><ele>161.0</ele><time>2026-05-01T09:52:07.269Z</time></trkpt><trkpt lat="42.257165" lon="14.221425"><ele>161.0</ele><time>2026-05-01T09:52:08.269Z</time></trkpt><trkpt lat="42.2571767" lon="14.22129"><ele>161.0</ele><time>2026-05-01T09:52:09.27Z</time></trkpt><trkpt lat="42.25723" lon="14.221155"><ele>161.0</ele><time>2026-05-01T09:52:10.269Z</time></trkpt><trkpt lat="42.2573083" lon="14.2210233"><ele>162.25</ele><time>2026-05-01T09:52:11.269Z</time></trkpt><trkpt lat="42.2574167" lon="14.220925"><ele>163.5</ele><time>2026-05-01T09:52:12.269Z</time></trkpt><trkpt lat="42.25754" lon="14.2208467"><ele>164.75</ele><time>2026-05-01T09:52:13.27Z</time></trkpt><trkpt lat="42.2576767" lon="14.220785"><ele>166.0</ele><time>2026-05-01T09:52:14.269Z</time></trkpt><trkpt lat="42.257795" lon="14.2207467"><ele>166.0</ele><time>2026-05-01T09:52:15.27Z</time></trkpt><trkpt lat="42.2578933" lon="14.2207"><ele>166.0</ele><time>2026-05-01T09:52:16.27Z</time></trkpt><trkpt lat="42.2579783" lon="14.2206383"><ele>166.0</ele><time>2026-05-01T09:52:17.269Z</time></trkpt><trkpt lat="42.2580433" lon="14.2205683"><ele>166.0</ele><time>2026-05-01T09:52:18.269Z</time></trkpt><trkpt lat="42.2580867" lon="14.220475"><ele>166.0</ele><time>2026-05-01T09:52:19.269Z</time></trkpt><trkpt lat="42.2581" lon="14.2203683"><ele>166.0</ele><time>2026-05-01T09:52:20.269Z</time></trkpt><trkpt lat="42.2580867" lon="14.2202617"><ele>169.5</ele><time>2026-05-01T09:52:21.269Z</time></trkpt><trkpt lat="42.258025" lon="14.22017"><ele>173.0</ele><time>2026-05-01T09:52:22.269Z</time></trkpt><trkpt lat="42.2579333" lon="14.2201033"><ele>176.5</ele><time>2026-05-01T09:52:23.269Z</time></trkpt><trkpt lat="42.2578217" lon="14.2200717"><ele>180.0</ele><time>2026-05-01T09:52:24.269Z</time></trkpt><trkpt lat="42.2576717" lon="14.22006"><ele>180.0</ele><time>2026-05-01T09:52:25.269Z</time></trkpt><trkpt lat="42.2575" lon="14.2200283"><ele>180.0</ele><time>2026-05-01T09:52:26.269Z</time></trkpt><trkpt lat="42.2573417" lon="14.219995"><ele>180.0</ele><time>2026-05-01T09:52:27.269Z</time></trkpt><trkpt lat="42.257195" lon="14.2199667"><ele>179.6</ele><time>2026-05-01T09:52:28.269Z</time></trkpt><trkpt lat="42.2570617" lon="14.2199433"><ele>179.2</ele><time>2026-05-01T09:52:29.269Z</time></trkpt><trkpt lat="42.2569467" lon="14.2199133"><ele>178.8</ele><time>2026-05-01T09:52:30.269Z</time></trkpt><trkpt lat="42.2568583" lon="14.21986"><ele>178.4</ele><time>2026-05-01T09:52:31.269Z</time></trkpt><trkpt lat="42.2568017" lon="14.2197917"><ele>178.0</ele><time>2026-05-01T09:52:32.269Z</time></trkpt><trkpt lat="42.256755" lon="14.2196783"><ele>180.0</ele><time>2026-05-01T09:52:34.269Z</time></trkpt><trkpt lat="42.2566867" lon="14.2196117"><ele>182.0</ele><time>2026-05-01T09:52:36.269Z</time></trkpt><trkpt lat="42.2566183" lon="14.219595"><ele>184.0</ele><time>2026-05-01T09:52:37.27Z</time></trkpt><trkpt lat="42.256545" lon="14.2196033"><ele>186.0</ele><time>2026-05-01T09:52:38.269Z</time></trkpt><trkpt lat="42.256465" lon="14.2196083"><ele>188.0</ele><time>2026-05-01T09:52:39.269Z</time></trkpt><trkpt lat="42.256385" lon="14.2196033"><ele>190.0</ele><time>2026-05-01T09:52:40.269Z</time></trkpt><trkpt lat="42.2563033" lon="14.2195767"><ele>190.0</ele><time>2026-05-01T09:52:41.269Z</time></trkpt><trkpt lat="42.2562383" lon="14.219525"><ele>190.0</ele><time>2026-05-01T09:52:42.269Z</time></trkpt><trkpt lat="42.25619" lon="14.21946"><ele>190.0</ele><time>2026-05-01T09:52:43.269Z</time></trkpt><trkpt lat="42.2561417" lon="14.2194033"><ele>190.0</ele><time>2026-05-01T09:52:44.269Z</time></trkpt><trkpt lat="42.2560733" lon="14.2193783"><ele>190.0</ele><time>2026-05-01T09:52:45.269Z</time></trkpt><trkpt lat="42.2560017" lon="14.219395"><ele>190.0</ele><time>2026-05-01T09:52:46.269Z</time></trkpt><trkpt lat="42.2559467" lon="14.21944"><ele>190.0</ele><time>2026-05-01T09:52:47.269Z</time></trkpt><trkpt lat="42.2558983" lon="14.2196083"><ele>190.0</ele><time>2026-05-01T09:52:49.269Z</time></trkpt><trkpt lat="42.25592" lon="14.219735"><ele>190.0</ele><time>2026-05-01T09:52:50.269Z</time></trkpt><trkpt lat="42.2559383" lon="14.2198783"><ele>190.0</ele><time>2026-05-01T09:52:51.269Z</time></trkpt><trkpt lat="42.2559383" lon="14.22003"><ele>190.0</ele><time>2026-05-01T09:52:52.269Z</time></trkpt><trkpt lat="42.2559233" lon="14.22018"><ele>190.0</ele><time>2026-05-01T09:52:53.269Z</time></trkpt><trkpt lat="42.2559067" lon="14.220335"><ele>187.8</ele><time>2026-05-01T09:52:54.269Z</time></trkpt><trkpt lat="42.2558867" lon="14.2204817"><ele>185.6</ele><time>2026-05-01T09:52:55.269Z</time></trkpt><trkpt lat="42.25586" lon="14.220615"><ele>183.39999999999998</ele><time>2026-05-01T09:52:56.269Z</time></trkpt><trkpt lat="42.2558283" lon="14.220735"><ele>181.2</ele><time>2026-05-01T09:52:57.269Z</time></trkpt><trkpt lat="42.255785" lon="14.2208383"><ele>179.0</ele><time>2026-05-01T09:52:58.269Z</time></trkpt><trkpt lat="42.255725" lon="14.2209183"><ele>178.5</ele><time>2026-05-01T09:52:59.269Z</time></trkpt><trkpt lat="42.2556433" lon="14.220995"><ele>178.0</ele><time>2026-05-01T09:53:00.269Z</time></trkpt><trkpt lat="42.255535" lon="14.2210667"><ele>177.5</ele><time>2026-05-01T09:53:01.269Z</time></trkpt><trkpt lat="42.25542" lon="14.2211333"><ele>177.0</ele><time>2026-05-01T09:53:02.269Z</time></trkpt><trkpt lat="42.2553083" lon="14.2212033"><ele>177.0</ele><time>2026-05-01T09:53:03.269Z</time></trkpt><trkpt lat="42.2552" lon="14.2212733"><ele>177.0</ele><time>2026-05-01T09:53:04.269Z</time></trkpt><trkpt lat="42.2550967" lon="14.2213433"><ele>177.0</ele><time>2026-05-01T09:53:05.269Z</time></trkpt><trkpt lat="42.2549883" lon="14.221415"><ele>177.0</ele><time>2026-05-01T09:53:06.269Z</time></trkpt><trkpt lat="42.25489" lon="14.2214767"><ele>175.6</ele><time>2026-05-01T09:53:07.269Z</time></trkpt><trkpt lat="42.2548" lon="14.2215267"><ele>174.2</ele><time>2026-05-01T09:53:08.269Z</time></trkpt><trkpt lat="42.254715" lon="14.2215467"><ele>172.8</ele><time>2026-05-01T09:53:09.27Z</time></trkpt><trkpt lat="42.2546233" lon="14.2215433"><ele>171.4</ele><time>2026-05-01T09:53:10.269Z</time></trkpt><trkpt lat="42.2545283" lon="14.2214917"><ele>170.0</ele><time>2026-05-01T09:53:11.269Z</time></trkpt><trkpt lat="42.2544417" lon="14.2214017"><ele>169.8</ele><time>2026-05-01T09:53:12.269Z</time></trkpt><trkpt lat="42.2543767" lon="14.2212917"><ele>169.6</ele><time>2026-05-01T09:53:13.269Z</time></trkpt><trkpt lat="42.2543283" lon="14.2211883"><ele>169.39999999999998</ele><time>2026-05-01T09:53:14.269Z</time></trkpt><trkpt lat="42.254285" lon="14.2211167"><ele>169.2</ele><time>2026-05-01T09:53:15.269Z</time></trkpt><trkpt lat="42.2541583" lon="14.2210717"><ele>169.0</ele><time>2026-05-01T09:53:17.269Z</time></trkpt><trkpt lat="42.2540883" lon="14.2210967"><ele>169.0</ele><time>2026-05-01T09:53:18.269Z</time></trkpt><trkpt lat="42.25402" lon="14.2211117"><ele>169.0</ele><time>2026-05-01T09:53:19.269Z</time></trkpt><trkpt lat="42.2539033" lon="14.2210683"><ele>169.0</ele><time>2026-05-01T09:53:21.269Z</time></trkpt><trkpt lat="42.2538533" lon="14.2210033"><ele>169.0</ele><time>2026-05-01T09:53:22.269Z</time></trkpt><trkpt lat="42.25381" lon="14.220905"><ele>169.0</ele><time>2026-05-01T09:53:23.269Z</time></trkpt><trkpt lat="42.2537517" lon="14.22078"><ele>169.2</ele><time>2026-05-01T09:53:24.269Z</time></trkpt><trkpt lat="42.25369" lon="14.220675"><ele>169.39999999999998</ele><time>2026-05-01T09:53:25.27Z</time></trkpt><trkpt lat="42.2536117" lon="14.2206083"><ele>169.6</ele><time>2026-05-01T09:53:26.27Z</time></trkpt><trkpt lat="42.2535117" lon="14.2205767"><ele>169.8</ele><time>2026-05-01T09:53:27.269Z</time></trkpt><trkpt lat="42.2533883" lon="14.220565"><ele>170.0</ele><time>2026-05-01T09:53:28.269Z</time></trkpt><trkpt lat="42.2532367" lon="14.2205683"><ele>172.33333333333331</ele><time>2026-05-01T09:53:29.269Z</time></trkpt><trkpt lat="42.2530833" lon="14.2205767"><ele>174.66666666666666</ele><time>2026-05-01T09:53:30.27Z</time></trkpt><trkpt lat="42.2529267" lon="14.2205767"><ele>177.0</ele><time>2026-05-01T09:53:31.27Z</time></trkpt><trkpt lat="42.2527767" lon="14.2205733"><ele>177.0</ele><time>2026-05-01T09:53:32.269Z</time></trkpt><trkpt lat="42.2526333" lon="14.2205583"><ele>177.0</ele><time>2026-05-01T09:53:33.269Z</time></trkpt><trkpt lat="42.252485" lon="14.2205283"><ele>177.0</ele><time>2026-05-01T09:53:34.269Z</time></trkpt><trkpt lat="42.2523267" lon="14.2204817"><ele>179.66666666666666</ele><time>2026-05-01T09:53:35.269Z</time></trkpt><trkpt lat="42.2521633" lon="14.220415"><ele>182.33333333333331</ele><time>2026-05-01T09:53:36.269Z</time></trkpt><trkpt lat="42.2520067" lon="14.2203417"><ele>185.0</ele><time>2026-05-01T09:53:37.27Z</time></trkpt><trkpt lat="42.2518483" lon="14.2202667"><ele>185.0</ele><time>2026-05-01T09:53:38.269Z</time></trkpt><trkpt lat="42.2516917" lon="14.2202033"><ele>185.0</ele><time>2026-05-01T09:53:39.27Z</time></trkpt><trkpt lat="42.2515283" lon="14.2201517"><ele>185.0</ele><time>2026-05-01T09:53:40.269Z</time></trkpt><trkpt lat="42.2513583" lon="14.22011"><ele>187.0</ele><time>2026-05-01T09:53:41.269Z</time></trkpt><trkpt lat="42.2511967" lon="14.2200883"><ele>189.0</ele><time>2026-05-01T09:53:42.269Z</time></trkpt><trkpt lat="42.2510533" lon="14.2200733"><ele>191.0</ele><time>2026-05-01T09:53:43.269Z</time></trkpt><trkpt lat="42.2509267" lon="14.2200717"><ele>193.0</ele><time>2026-05-01T09:53:44.27Z</time></trkpt><trkpt lat="42.250805" lon="14.2200917"><ele>193.0</ele><time>2026-05-01T09:53:45.269Z</time></trkpt><trkpt lat="42.25069" lon="14.2201217"><ele>193.0</ele><time>2026-05-01T09:53:46.27Z</time></trkpt><trkpt lat="42.2505733" lon="14.2201183"><ele>193.0</ele><time>2026-05-01T09:53:47.269Z</time></trkpt><trkpt lat="42.2504483" lon="14.220095"><ele>193.0</ele><time>2026-05-01T09:53:48.269Z</time></trkpt><trkpt lat="42.25032" lon="14.2200333"><ele>194.0</ele><time>2026-05-01T09:53:49.269Z</time></trkpt><trkpt lat="42.2502" lon="14.2199517"><ele>195.0</ele><time>2026-05-01T09:53:50.269Z</time></trkpt><trkpt lat="42.2500933" lon="14.21988"><ele>196.0</ele><time>2026-05-01T09:53:51.269Z</time></trkpt><trkpt lat="42.2499983" lon="14.2198367"><ele>197.0</ele><time>2026-05-01T09:53:52.269Z</time></trkpt><trkpt lat="42.2499183" lon="14.219825"><ele>198.0</ele><time>2026-05-01T09:53:53.269Z</time></trkpt><trkpt lat="42.2498483" lon="14.2198183"><ele>200.85714285714286</ele><time>2026-05-01T09:53:54.269Z</time></trkpt><trkpt lat="42.2497833" lon="14.2197817"><ele>203.7142857142857</ele><time>2026-05-01T09:53:55.269Z</time></trkpt><trkpt lat="42.249735" lon="14.2197183"><ele>206.57142857142856</ele><time>2026-05-01T09:53:56.269Z</time></trkpt><trkpt lat="42.2497117" lon="14.21962"><ele>209.42857142857144</ele><time>2026-05-01T09:53:57.269Z</time></trkpt><trkpt lat="42.2496933" lon="14.2195183"><ele>212.28571428571428</ele><time>2026-05-01T09:53:58.269Z</time></trkpt><trkpt lat="42.2496733" lon="14.2194267"><ele>215.14285714285714</ele><time>2026-05-01T09:53:59.268Z</time></trkpt><trkpt lat="42.2496367" lon="14.21932"><ele>218.0</ele><time>2026-05-01T09:54:01.268Z</time></trkpt><trkpt lat="42.2495983" lon="14.2192233"><ele>218.0</ele><time>2026-05-01T09:54:16.269Z</time></trkpt><trkpt lat="42.24956" lon="14.21915"><ele>218.0</ele><time>2026-05-01T09:54:43.268Z</time></trkpt><trkpt lat="42.2495183" lon="14.2192167"><ele>218.0</ele><time>2026-05-01T09:54:46.268Z</time></trkpt><trkpt lat="42.2494883" lon="14.2192983"><ele>218.0</ele><time>2026-05-01T09:54:48.269Z</time></trkpt><trkpt lat="42.2494467" lon="14.21941"><ele>218.0</ele><time>2026-05-01T09:54:51.268Z</time></trkpt><trkpt lat="42.24943" lon="14.219505"><ele>218.0</ele><time>2026-05-01T09:54:54.268Z</time></trkpt><trkpt lat="42.2493617" lon="14.2195183"><ele>218.0</ele><time>2026-05-01T09:54:57.268Z</time></trkpt><trkpt lat="42.24928" lon="14.2194817"><ele>218.00000000000003</ele><time>2026-05-01T09:55:00.268Z</time></trkpt><trkpt lat="42.2492167" lon="14.2194483"><ele>218.0</ele><time>2026-05-01T09:55:02.268Z</time></trkpt><trkpt lat="42.2491217" lon="14.2194217"><ele>218.0</ele><time>2026-05-01T09:55:04.268Z</time></trkpt><trkpt lat="42.2490233" lon="14.2193717"><ele>218.0</ele><time>2026-05-01T09:55:06.268Z</time></trkpt><trkpt lat="42.2489667" lon="14.2193183"><ele>218.00000000000003</ele><time>2026-05-01T09:55:08.268Z</time></trkpt><trkpt lat="42.2489183" lon="14.2192283"><ele>218.0</ele><time>2026-05-01T09:55:17.268Z</time></trkpt><trkpt lat="42.2488733" lon="14.219135"><ele>218.16666666666669</ele><time>2026-05-01T09:55:19.268Z</time></trkpt><trkpt lat="42.2488367" lon="14.21901"><ele>218.33333333333334</ele><time>2026-05-01T09:55:21.268Z</time></trkpt><trkpt lat="42.24884" lon="14.2189133"><ele>218.5</ele><time>2026-05-01T09:55:23.268Z</time></trkpt><trkpt lat="42.2488483" lon="14.2188267"><ele>218.66666666666669</ele><time>2026-05-01T09:55:25.268Z</time></trkpt><trkpt lat="42.24885" lon="14.2187167"><ele>218.83333333333334</ele><time>2026-05-01T09:56:37.268Z</time></trkpt><trkpt lat="42.2488617" lon="14.2186"><ele>219.0</ele><time>2026-05-01T09:56:39.268Z</time></trkpt><trkpt lat="42.24885" lon="14.2184633"><ele>219.0</ele><time>2026-05-01T09:56:41.268Z</time></trkpt><trkpt lat="42.2488233" lon="14.2183267"><ele>218.99999999999997</ele><time>2026-05-01T09:56:43.268Z</time></trkpt><trkpt lat="42.248805" lon="14.218215"><ele>218.99999999999997</ele><time>2026-05-01T09:56:45.268Z</time></trkpt><trkpt lat="42.2487867" lon="14.2181133"><ele>219.0</ele><time>2026-05-01T09:56:47.268Z</time></trkpt><trkpt lat="42.24878" lon="14.217995"><ele>219.0</ele><time>2026-05-01T09:56:49.268Z</time></trkpt><trkpt lat="42.248765" lon="14.217855"><ele>221.66666666666666</ele><time>2026-05-01T09:56:51.268Z</time></trkpt><trkpt lat="42.2487367" lon="14.2176983"><ele>224.33333333333331</ele><time>2026-05-01T09:56:53.268Z</time></trkpt><trkpt lat="42.248715" lon="14.2176167"><ele>227.0</ele><time>2026-05-01T09:56:54.268Z</time></trkpt><trkpt lat="42.2487" lon="14.2175333"><ele>229.66666666666666</ele><time>2026-05-01T09:56:55.268Z</time></trkpt><trkpt lat="42.248685" lon="14.21744"><ele>232.33333333333331</ele><time>2026-05-01T09:56:56.268Z</time></trkpt><trkpt lat="42.248675" lon="14.2173517"><ele>235.0</ele><time>2026-05-01T09:56:57.268Z</time></trkpt><trkpt lat="42.2486617" lon="14.2172617"><ele>237.49999999999997</ele><time>2026-05-01T09:56:58.268Z</time></trkpt><trkpt lat="42.248645" lon="14.2171783"><ele>240.0</ele><time>2026-05-01T09:56:59.268Z</time></trkpt><trkpt lat="42.2485967" lon="14.217025"><ele>242.5</ele><time>2026-05-01T09:57:01.268Z</time></trkpt><trkpt lat="42.2485683" lon="14.216945"><ele>245.0</ele><time>2026-05-01T09:57:02.268Z</time></trkpt><trkpt lat="42.2485367" lon="14.21686"><ele>247.49999999999997</ele><time>2026-05-01T09:57:03.268Z</time></trkpt><trkpt lat="42.2485117" lon="14.2167733"><ele>250.0</ele><time>2026-05-01T09:57:04.268Z</time></trkpt><trkpt lat="42.24847" lon="14.2166283"><ele>251.83333333333331</ele><time>2026-05-01T09:57:06.268Z</time></trkpt><trkpt lat="42.2484233" lon="14.216475"><ele>253.66666666666666</ele><time>2026-05-01T09:57:08.268Z</time></trkpt><trkpt lat="42.248405" lon="14.21639"><ele>255.5</ele><time>2026-05-01T09:57:09.269Z</time></trkpt><trkpt lat="42.24838" lon="14.2163067"><ele>257.3333333333333</ele><time>2026-05-01T09:57:10.268Z</time></trkpt><trkpt lat="42.2483517" lon="14.2162183"><ele>259.1666666666667</ele><time>2026-05-01T09:57:11.269Z</time></trkpt><trkpt lat="42.2483317" lon="14.216135"><ele>261.0</ele><time>2026-05-01T09:57:12.268Z</time></trkpt><trkpt lat="42.2483067" lon="14.2160533"><ele>261.0</ele><time>2026-05-01T09:57:13.269Z</time></trkpt><trkpt lat="42.2482717" lon="14.2159033"><ele>261.0</ele><time>2026-05-01T09:57:15.268Z</time></trkpt><trkpt lat="42.248245" lon="14.2158183"><ele>261.0</ele><time>2026-05-01T09:57:16.268Z</time></trkpt><trkpt lat="42.2482067" lon="14.2157317"><ele>261.0</ele><time>2026-05-01T09:57:17.269Z</time></trkpt><trkpt lat="42.2481633" lon="14.21565"><ele>261.0</ele><time>2026-05-01T09:57:18.268Z</time></trkpt><trkpt lat="42.2481233" lon="14.2155717"><ele>261.0</ele><time>2026-05-01T09:57:19.268Z</time></trkpt><trkpt lat="42.2480767" lon="14.21549"><ele>261.5</ele><time>2026-05-01T09:57:20.268Z</time></trkpt><trkpt lat="42.2480433" lon="14.2154083"><ele>262.0</ele><time>2026-05-01T09:57:21.268Z</time></trkpt><trkpt lat="42.2480133" lon="14.2153267"><ele>262.5</ele><time>2026-05-01T09:57:22.268Z</time></trkpt><trkpt lat="42.24796" lon="14.2151717"><ele>263.0</ele><time>2026-05-01T09:57:24.268Z</time></trkpt><trkpt lat="42.2479317" lon="14.21509"><ele>263.5</ele><time>2026-05-01T09:57:25.268Z</time></trkpt><trkpt lat="42.2478917" lon="14.2149433"><ele>264.0</ele><time>2026-05-01T09:57:27.268Z</time></trkpt><trkpt lat="42.24791" lon="14.21478"><ele>264.0</ele><time>2026-05-01T09:57:29.268Z</time></trkpt><trkpt lat="42.2479333" lon="14.2146183"><ele>264.0</ele><time>2026-05-01T09:57:31.268Z</time></trkpt><trkpt lat="42.24793" lon="14.2145317"><ele>264.0</ele><time>2026-05-01T09:57:32.268Z</time></trkpt><trkpt lat="42.2479183" lon="14.2144333"><ele>264.0</ele><time>2026-05-01T09:57:33.268Z</time></trkpt><trkpt lat="42.2479" lon="14.2143317"><ele>264.0</ele><time>2026-05-01T09:57:34.268Z</time></trkpt><trkpt lat="42.2478733" lon="14.2142267"><ele>264.0</ele><time>2026-05-01T09:57:35.268Z</time></trkpt><trkpt lat="42.2478483" lon="14.2141267"><ele>264.0</ele><time>2026-05-01T09:57:36.268Z</time></trkpt><trkpt lat="42.2478283" lon="14.2140383"><ele>264.0</ele><time>2026-05-01T09:57:37.268Z</time></trkpt><trkpt lat="42.2478017" lon="14.2139533"><ele>264.0</ele><time>2026-05-01T09:57:38.268Z</time></trkpt><trkpt lat="42.2477533" lon="14.2138067"><ele>264.0</ele><time>2026-05-01T09:57:40.268Z</time></trkpt><trkpt lat="42.2476833" lon="14.2136967"><ele>264.0</ele><time>2026-05-01T09:57:42.268Z</time></trkpt><trkpt lat="42.2476233" lon="14.2135967"><ele>265.6666666666667</ele><time>2026-05-01T09:57:44.268Z</time></trkpt><trkpt lat="42.247605" lon="14.213455"><ele>267.3333333333333</ele><time>2026-05-01T09:57:46.268Z</time></trkpt><trkpt lat="42.2475733" lon="14.2132867"><ele>269.0</ele><time>2026-05-01T09:57:48.268Z</time></trkpt><trkpt lat="42.2475567" lon="14.2131983"><ele>270.66666666666663</ele><time>2026-05-01T09:57:49.268Z</time></trkpt><trkpt lat="42.2475433" lon="14.2131017"><ele>272.3333333333333</ele><time>2026-05-01T09:57:50.268Z</time></trkpt><trkpt lat="42.2475283" lon="14.2130067"><ele>274.0</ele><time>2026-05-01T09:57:51.268Z</time></trkpt><trkpt lat="42.24752" lon="14.2129117"><ele>274.3333333333333</ele><time>2026-05-01T09:57:52.268Z</time></trkpt><trkpt lat="42.24751" lon="14.21282"><ele>274.66666666666663</ele><time>2026-05-01T09:57:53.268Z</time></trkpt><trkpt lat="42.2475067" lon="14.21273"><ele>275.0</ele><time>2026-05-01T09:57:54.268Z</time></trkpt><trkpt lat="42.2475083" lon="14.2126367"><ele>275.3333333333333</ele><time>2026-05-01T09:57:55.268Z</time></trkpt><trkpt lat="42.2474883" lon="14.2124583"><ele>275.6666666666667</ele><time>2026-05-01T09:57:57.268Z</time></trkpt><trkpt lat="42.2474767" lon="14.21236"><ele>276.0</ele><time>2026-05-01T09:57:58.269Z</time></trkpt><trkpt lat="42.247465" lon="14.21227"><ele>277.6</ele><time>2026-05-01T09:57:59.268Z</time></trkpt><trkpt lat="42.24745" lon="14.2121783"><ele>279.20000000000005</ele><time>2026-05-01T09:58:00.268Z</time></trkpt><trkpt lat="42.2474383" lon="14.2120883"><ele>280.79999999999995</ele><time>2026-05-01T09:58:01.268Z</time></trkpt><trkpt lat="42.2474017" lon="14.2119267"><ele>282.4</ele><time>2026-05-01T09:58:03.269Z</time></trkpt><trkpt lat="42.2473833" lon="14.2118433"><ele>284.0</ele><time>2026-05-01T09:58:04.268Z</time></trkpt><trkpt lat="42.2473167" lon="14.2117033"><ele>283.2</ele><time>2026-05-01T09:58:06.268Z</time></trkpt><trkpt lat="42.2472533" lon="14.2115933"><ele>282.4</ele><time>2026-05-01T09:58:08.268Z</time></trkpt><trkpt lat="42.2472517" lon="14.2114833"><ele>281.6</ele><time>2026-05-01T09:58:10.268Z</time></trkpt><trkpt lat="42.24729" lon="14.2113583"><ele>280.8</ele><time>2026-05-01T09:58:12.269Z</time></trkpt><trkpt lat="42.2473333" lon="14.2112267"><ele>280.0</ele><time>2026-05-01T09:58:14.269Z</time></trkpt><trkpt lat="42.2473617" lon="14.211115"><ele>283.0</ele><time>2026-05-01T09:58:16.268Z</time></trkpt><trkpt lat="42.2473767" lon="14.2109683"><ele>286.0</ele><time>2026-05-01T09:58:18.269Z</time></trkpt><trkpt lat="42.247365" lon="14.210815"><ele>289.0</ele><time>2026-05-01T09:58:20.268Z</time></trkpt><trkpt lat="42.247355" lon="14.21065"><ele>292.0</ele><time>2026-05-01T09:58:22.268Z</time></trkpt><trkpt lat="42.24734" lon="14.21049"><ele>294.16666666666663</ele><time>2026-05-01T09:58:24.268Z</time></trkpt><trkpt lat="42.2473367" lon="14.2103517"><ele>296.3333333333333</ele><time>2026-05-01T09:58:26.268Z</time></trkpt><trkpt lat="42.2473633" lon="14.210235"><ele>298.5</ele><time>2026-05-01T09:58:28.268Z</time></trkpt><trkpt lat="42.2473717" lon="14.21014"><ele>300.6666666666667</ele><time>2026-05-01T09:58:29.268Z</time></trkpt><trkpt lat="42.24738" lon="14.2100383"><ele>302.83333333333337</ele><time>2026-05-01T09:58:30.268Z</time></trkpt><trkpt lat="42.2473933" lon="14.2099383"><ele>305.0</ele><time>2026-05-01T09:58:31.268Z</time></trkpt><trkpt lat="42.2473967" lon="14.2098467"><ele>307.5</ele><time>2026-05-01T09:58:32.268Z</time></trkpt><trkpt lat="42.2474" lon="14.2096717"><ele>310.0</ele><time>2026-05-01T09:58:34.268Z</time></trkpt><trkpt lat="42.2473883" lon="14.2095183"><ele>312.5</ele><time>2026-05-01T09:58:36.268Z</time></trkpt><trkpt lat="42.2473617" lon="14.2093817"><ele>315.0</ele><time>2026-05-01T09:58:38.268Z</time></trkpt><trkpt lat="42.24734" lon="14.20924"><ele>315.0</ele><time>2026-05-01T09:58:40.268Z</time></trkpt><trkpt lat="42.2473117" lon="14.2090967"><ele>315.0</ele><time>2026-05-01T09:58:42.268Z</time></trkpt><trkpt lat="42.2472617" lon="14.208995"><ele>315.0</ele><time>2026-05-01T09:58:44.268Z</time></trkpt><trkpt lat="42.2471683" lon="14.2089483"><ele>315.0</ele><time>2026-05-01T09:58:46.268Z</time></trkpt><trkpt lat="42.2471017" lon="14.2089383"><ele>315.0</ele><time>2026-05-01T09:58:47.268Z</time></trkpt><trkpt lat="42.2470317" lon="14.2089383"><ele>315.0</ele><time>2026-05-01T09:58:48.269Z</time></trkpt><trkpt lat="42.2469567" lon="14.2089367"><ele>318.2</ele><time>2026-05-01T09:58:49.268Z</time></trkpt><trkpt lat="42.2468483" lon="14.2089183"><ele>321.4</ele><time>2026-05-01T09:58:51.269Z</time></trkpt><trkpt lat="42.2468067" lon="14.2088333"><ele>324.6</ele><time>2026-05-01T09:58:53.269Z</time></trkpt><trkpt lat="42.24678" lon="14.2087317"><ele>327.8</ele><time>2026-05-01T09:58:55.268Z</time></trkpt><trkpt lat="42.2467433" lon="14.2085983"><ele>331.0</ele><time>2026-05-01T09:58:57.268Z</time></trkpt><trkpt lat="42.2466733" lon="14.208475"><ele>331.0</ele><time>2026-05-01T09:58:59.268Z</time></trkpt><trkpt lat="42.24663" lon="14.2084117"><ele>331.0</ele><time>2026-05-01T09:59:00.268Z</time></trkpt><trkpt lat="42.246585" lon="14.2083433"><ele>331.0</ele><time>2026-05-01T09:59:01.268Z</time></trkpt><trkpt lat="42.2465383" lon="14.2082767"><ele>331.0</ele><time>2026-05-01T09:59:02.268Z</time></trkpt><trkpt lat="42.2465017" lon="14.2082033"><ele>331.0</ele><time>2026-05-01T09:59:03.268Z</time></trkpt><trkpt lat="42.246435" lon="14.2080883"><ele>331.0</ele><time>2026-05-01T09:59:05.268Z</time></trkpt><trkpt lat="42.2463883" lon="14.2079633"><ele>330.8</ele><time>2026-05-01T09:59:07.268Z</time></trkpt><trkpt lat="42.2463367" lon="14.2078233"><ele>330.6</ele><time>2026-05-01T09:59:09.268Z</time></trkpt><trkpt lat="42.2463067" lon="14.2076717"><ele>330.4</ele><time>2026-05-01T09:59:11.268Z</time></trkpt><trkpt lat="42.2462917" lon="14.2075817"><ele>330.2</ele><time>2026-05-01T09:59:12.268Z</time></trkpt><trkpt lat="42.246285" lon="14.20745"><ele>330.0</ele><time>2026-05-01T09:59:14.268Z</time></trkpt><trkpt lat="42.2462917" lon="14.20732"><ele>332.3333333333333</ele><time>2026-05-01T09:59:16.268Z</time></trkpt><trkpt lat="42.2462817" lon="14.2071633"><ele>334.6666666666667</ele><time>2026-05-01T09:59:18.268Z</time></trkpt><trkpt lat="42.246275" lon="14.2070733"><ele>337.0</ele><time>2026-05-01T09:59:19.268Z</time></trkpt><trkpt lat="42.246265" lon="14.2069817"><ele>339.33333333333337</ele><time>2026-05-01T09:59:20.268Z</time></trkpt><trkpt lat="42.2462583" lon="14.2068867"><ele>341.6666666666667</ele><time>2026-05-01T09:59:21.268Z</time></trkpt><trkpt lat="42.2462583" lon="14.206795"><ele>344.0</ele><time>2026-05-01T09:59:22.268Z</time></trkpt><trkpt lat="42.2462583" lon="14.2067017"><ele>344.0</ele><time>2026-05-01T09:59:23.268Z</time></trkpt><trkpt lat="42.2462633" lon="14.20661"><ele>344.0</ele><time>2026-05-01T09:59:24.269Z</time></trkpt><trkpt lat="42.2462783" lon="14.20651"><ele>344.0</ele><time>2026-05-01T09:59:25.268Z</time></trkpt><trkpt lat="42.24632" lon="14.2063417"><ele>344.0</ele><time>2026-05-01T09:59:27.268Z</time></trkpt><trkpt lat="42.2463367" lon="14.2062533"><ele>344.0</ele><time>2026-05-01T09:59:28.268Z</time></trkpt><trkpt lat="42.24637" lon="14.2061633"><ele>344.0</ele><time>2026-05-01T09:59:29.268Z</time></trkpt><trkpt lat="42.2464033" lon="14.2060833"><ele>346.5</ele><time>2026-05-01T09:59:30.269Z</time></trkpt><trkpt lat="42.24647" lon="14.2059383"><ele>349.0</ele><time>2026-05-01T09:59:32.268Z</time></trkpt><trkpt lat="42.2465217" lon="14.2057967"><ele>351.5</ele><time>2026-05-01T09:59:34.268Z</time></trkpt><trkpt lat="42.2464783" lon="14.2056683"><ele>354.0</ele><time>2026-05-01T09:59:36.268Z</time></trkpt><trkpt lat="42.24638" lon="14.20555"><ele>358.6</ele><time>2026-05-01T09:59:38.268Z</time></trkpt><trkpt lat="42.2463183" lon="14.2054717"><ele>363.2</ele><time>2026-05-01T09:59:39.269Z</time></trkpt><trkpt lat="42.2462417" lon="14.2054017"><ele>367.8</ele><time>2026-05-01T09:59:40.268Z</time></trkpt><trkpt lat="42.2461667" lon="14.20531"><ele>372.40000000000003</ele><time>2026-05-01T09:59:41.268Z</time></trkpt><trkpt lat="42.2460967" lon="14.2052067"><ele>377.0</ele><time>2026-05-01T09:59:42.268Z</time></trkpt><trkpt lat="42.2460417" lon="14.2051367"><ele>377.0</ele><time>2026-05-01T09:59:43.268Z</time></trkpt><trkpt lat="42.24597" lon="14.2050283"><ele>377.0</ele><time>2026-05-01T09:59:45.268Z</time></trkpt><trkpt lat="42.2459133" lon="14.204885"><ele>377.0</ele><time>2026-05-01T09:59:47.268Z</time></trkpt><trkpt lat="42.2458767" lon="14.2047917"><ele>377.0</ele><time>2026-05-01T09:59:48.268Z</time></trkpt><trkpt lat="42.2458717" lon="14.2046933"><ele>377.0</ele><time>2026-05-01T09:59:49.268Z</time></trkpt><trkpt lat="42.2458717" lon="14.2046017"><ele>377.0</ele><time>2026-05-01T09:59:50.268Z</time></trkpt><trkpt lat="42.245895" lon="14.2045"><ele>377.6666666666667</ele><time>2026-05-01T09:59:51.268Z</time></trkpt><trkpt lat="42.2459283" lon="14.2044017"><ele>378.33333333333337</ele><time>2026-05-01T09:59:52.268Z</time></trkpt><trkpt lat="42.2459733" lon="14.204305"><ele>379.0</ele><time>2026-05-01T09:59:53.268Z</time></trkpt><trkpt lat="42.2460117" lon="14.2042033"><ele>379.6666666666667</ele><time>2026-05-01T09:59:54.268Z</time></trkpt><trkpt lat="42.2460367" lon="14.2041017"><ele>380.3333333333333</ele><time>2026-05-01T09:59:55.268Z</time></trkpt><trkpt lat="42.2460683" lon="14.2040017"><ele>381.0</ele><time>2026-05-01T09:59:56.268Z</time></trkpt><trkpt lat="42.2460917" lon="14.2038917"><ele>382.1666666666667</ele><time>2026-05-01T09:59:57.269Z</time></trkpt><trkpt lat="42.2460933" lon="14.20378"><ele>383.33333333333337</ele><time>2026-05-01T09:59:58.268Z</time></trkpt><trkpt lat="42.2460883" lon="14.20367"><ele>384.5</ele><time>2026-05-01T09:59:59.268Z</time></trkpt><trkpt lat="42.2460717" lon="14.2035567"><ele>385.6666666666667</ele><time>2026-05-01T10:00:00.268Z</time></trkpt><trkpt lat="42.2460533" lon="14.2034433"><ele>386.83333333333337</ele><time>2026-05-01T10:00:01.268Z</time></trkpt><trkpt lat="42.2460333" lon="14.2033267"><ele>388.0</ele><time>2026-05-01T10:00:02.268Z</time></trkpt><trkpt lat="42.2460117" lon="14.2031933"><ele>389.00000000000006</ele><time>2026-05-01T10:00:03.269Z</time></trkpt><trkpt lat="42.24597" lon="14.2030733"><ele>390.0</ele><time>2026-05-01T10:00:04.268Z</time></trkpt><trkpt lat="42.24593" lon="14.2029733"><ele>391.0</ele><time>2026-05-01T10:00:05.268Z</time></trkpt><trkpt lat="42.2459033" lon="14.2028867"><ele>392.0</ele><time>2026-05-01T10:00:06.268Z</time></trkpt><trkpt lat="42.24586" lon="14.2028217"><ele>393.00000000000006</ele><time>2026-05-01T10:00:07.268Z</time></trkpt><trkpt lat="42.2458033" lon="14.2027767"><ele>394.0</ele><time>2026-05-01T10:00:08.268Z</time></trkpt><trkpt lat="42.24569" lon="14.2027033"><ele>394.00000000000006</ele><time>2026-05-01T10:00:10.268Z</time></trkpt><trkpt lat="42.2456333" lon="14.202635"><ele>394.0</ele><time>2026-05-01T10:00:11.269Z</time></trkpt><trkpt lat="42.2455833" lon="14.2025483"><ele>394.0</ele><time>2026-05-01T10:00:12.269Z</time></trkpt><trkpt lat="42.24554" lon="14.2024567"><ele>394.0</ele><time>2026-05-01T10:00:13.269Z</time></trkpt><trkpt lat="42.245515" lon="14.20237"><ele>394.00000000000006</ele><time>2026-05-01T10:00:14.268Z</time></trkpt><trkpt lat="42.245495" lon="14.2022667"><ele>394.0</ele><time>2026-05-01T10:00:16.268Z</time></trkpt><trkpt lat="42.2454083" lon="14.202305"><ele>395.6</ele><time>2026-05-01T10:00:20.268Z</time></trkpt><trkpt lat="42.245355" lon="14.2024733"><ele>397.2</ele><time>2026-05-01T10:00:22.268Z</time></trkpt><trkpt lat="42.24531" lon="14.202595"><ele>398.8</ele><time>2026-05-01T10:00:23.268Z</time></trkpt><trkpt lat="42.2452567" lon="14.2027167"><ele>400.40000000000003</ele><time>2026-05-01T10:00:24.268Z</time></trkpt><trkpt lat="42.2451817" lon="14.2028033"><ele>402.0</ele><time>2026-05-01T10:00:25.268Z</time></trkpt><trkpt lat="42.2450883" lon="14.2028933"><ele>402.0</ele><time>2026-05-01T10:00:26.269Z</time></trkpt><trkpt lat="42.2449733" lon="14.202935"><ele>402.0</ele><time>2026-05-01T10:00:27.268Z</time></trkpt><trkpt lat="42.244855" lon="14.2029767"><ele>402.0</ele><time>2026-05-01T10:00:28.268Z</time></trkpt><trkpt lat="42.244735" lon="14.2030283"><ele>402.0</ele><time>2026-05-01T10:00:29.268Z</time></trkpt><trkpt lat="42.2446283" lon="14.20311"><ele>401.5</ele><time>2026-05-01T10:00:30.269Z</time></trkpt><trkpt lat="42.2445417" lon="14.2032117"><ele>401.0</ele><time>2026-05-01T10:00:31.268Z</time></trkpt><trkpt lat="42.24448" lon="14.2033283"><ele>400.5</ele><time>2026-05-01T10:00:32.268Z</time></trkpt><trkpt lat="42.2444367" lon="14.2034833"><ele>400.0</ele><time>2026-05-01T10:00:33.268Z</time></trkpt><trkpt lat="42.244405" lon="14.2036467"><ele>400.0</ele><time>2026-05-01T10:00:34.268Z</time></trkpt><trkpt lat="42.24439" lon="14.2038117"><ele>400.0</ele><time>2026-05-01T10:00:35.268Z</time></trkpt><trkpt lat="42.24437" lon="14.2039633"><ele>400.0</ele><time>2026-05-01T10:00:36.268Z</time></trkpt><trkpt lat="42.2443467" lon="14.204105"><ele>400.0</ele><time>2026-05-01T10:00:37.268Z</time></trkpt><trkpt lat="42.24431" lon="14.204245"><ele>398.0</ele><time>2026-05-01T10:00:38.269Z</time></trkpt><trkpt lat="42.2442383" lon="14.2043767"><ele>396.0</ele><time>2026-05-01T10:00:39.268Z</time></trkpt><trkpt lat="42.244145" lon="14.2045033"><ele>394.0</ele><time>2026-05-01T10:00:40.268Z</time></trkpt><trkpt lat="42.2440533" lon="14.20463"><ele>392.0</ele><time>2026-05-01T10:00:41.268Z</time></trkpt><trkpt lat="42.2439517" lon="14.2047433"><ele>392.75</ele><time>2026-05-01T10:00:42.268Z</time></trkpt><trkpt lat="42.2438533" lon="14.20487"><ele>393.5</ele><time>2026-05-01T10:00:43.268Z</time></trkpt><trkpt lat="42.2437617" lon="14.2050117"><ele>394.25</ele><time>2026-05-01T10:00:44.268Z</time></trkpt><trkpt lat="42.2436933" lon="14.2051733"><ele>395.0</ele><time>2026-05-01T10:00:45.268Z</time></trkpt><trkpt lat="42.24363" lon="14.205345"><ele>395.0</ele><time>2026-05-01T10:00:46.268Z</time></trkpt><trkpt lat="42.24358" lon="14.20551"><ele>395.0</ele><time>2026-05-01T10:00:47.268Z</time></trkpt><trkpt lat="42.24352" lon="14.20567"><ele>395.0</ele><time>2026-05-01T10:00:48.268Z</time></trkpt><trkpt lat="42.2434483" lon="14.2058233"><ele>395.0</ele><time>2026-05-01T10:00:49.268Z</time></trkpt><trkpt lat="42.2433483" lon="14.2059433"><ele>396.3333333333333</ele><time>2026-05-01T10:00:50.268Z</time></trkpt><trkpt lat="42.2432317" lon="14.2060533"><ele>397.66666666666663</ele><time>2026-05-01T10:00:51.268Z</time></trkpt><trkpt lat="42.2430983" lon="14.2061617"><ele>399.0</ele><time>2026-05-01T10:00:52.268Z</time></trkpt><trkpt lat="42.2429683" lon="14.20627"><ele>399.0</ele><time>2026-05-01T10:00:53.268Z</time></trkpt><trkpt lat="42.242845" lon="14.2063817"><ele>399.0</ele><time>2026-05-01T10:00:54.268Z</time></trkpt><trkpt lat="42.2427267" lon="14.2064783"><ele>399.0</ele><time>2026-05-01T10:00:55.268Z</time></trkpt><trkpt lat="42.242605" lon="14.206585"><ele>399.0</ele><time>2026-05-01T10:00:56.268Z</time></trkpt><trkpt lat="42.2424933" lon="14.206685"><ele>393.75</ele><time>2026-05-01T10:00:57.268Z</time></trkpt><trkpt lat="42.24238" lon="14.2067567"><ele>388.5</ele><time>2026-05-01T10:00:58.268Z</time></trkpt><trkpt lat="42.242255" lon="14.2068167"><ele>383.25</ele><time>2026-05-01T10:00:59.268Z</time></trkpt><trkpt lat="42.2421217" lon="14.2068533"><ele>378.0</ele><time>2026-05-01T10:01:00.269Z</time></trkpt><trkpt lat="42.2419867" lon="14.2068783"><ele>378.0</ele><time>2026-05-01T10:01:01.268Z</time></trkpt><trkpt lat="42.2418517" lon="14.2068933"><ele>378.0</ele><time>2026-05-01T10:01:02.268Z</time></trkpt><trkpt lat="42.2417117" lon="14.2069117"><ele>378.0</ele><time>2026-05-01T10:01:03.268Z</time></trkpt><trkpt lat="42.24156" lon="14.2069167"><ele>378.0</ele><time>2026-05-01T10:01:04.268Z</time></trkpt><trkpt lat="42.2414117" lon="14.2069183"><ele>375.75</ele><time>2026-05-01T10:01:05.268Z</time></trkpt><trkpt lat="42.2412767" lon="14.2069067"><ele>373.5</ele><time>2026-05-01T10:01:06.268Z</time></trkpt><trkpt lat="42.2411383" lon="14.2068833"><ele>371.25</ele><time>2026-05-01T10:01:07.268Z</time></trkpt><trkpt lat="42.2410233" lon="14.2068433"><ele>369.0</ele><time>2026-05-01T10:01:08.268Z</time></trkpt><trkpt lat="42.240915" lon="14.206795"><ele>369.0</ele><time>2026-05-01T10:01:09.268Z</time></trkpt><trkpt lat="42.2408033" lon="14.2067567"><ele>369.0</ele><time>2026-05-01T10:01:10.268Z</time></trkpt><trkpt lat="42.2407017" lon="14.20675"><ele>369.0</ele><time>2026-05-01T10:01:11.268Z</time></trkpt><trkpt lat="42.2405983" lon="14.2067767"><ele>369.0</ele><time>2026-05-01T10:01:12.268Z</time></trkpt><trkpt lat="42.240505" lon="14.2068317"><ele>369.0</ele><time>2026-05-01T10:01:13.268Z</time></trkpt><trkpt lat="42.2404133" lon="14.2068917"><ele>367.5</ele><time>2026-05-01T10:01:14.268Z</time></trkpt><trkpt lat="42.2403233" lon="14.2069167"><ele>366.0</ele><time>2026-05-01T10:01:15.268Z</time></trkpt><trkpt lat="42.2402367" lon="14.2068967"><ele>364.5</ele><time>2026-05-01T10:01:16.268Z</time></trkpt><trkpt lat="42.2401617" lon="14.2068533"><ele>363.0</ele><time>2026-05-01T10:01:17.268Z</time></trkpt><trkpt lat="42.2400967" lon="14.2068167"><ele>361.5</ele><time>2026-05-01T10:01:18.268Z</time></trkpt><trkpt lat="42.2400333" lon="14.20679"><ele>360.0</ele><time>2026-05-01T10:01:19.268Z</time></trkpt><trkpt lat="42.2399467" lon="14.2068017"><ele>360.0</ele><time>2026-05-01T10:01:21.268Z</time></trkpt><trkpt lat="42.23987" lon="14.20678"><ele>360.0</ele><time>2026-05-01T10:01:23.268Z</time></trkpt><trkpt lat="42.2397683" lon="14.2066767"><ele>360.0</ele><time>2026-05-01T10:01:25.269Z</time></trkpt><trkpt lat="42.239715" lon="14.2066267"><ele>360.0</ele><time>2026-05-01T10:01:26.268Z</time></trkpt><trkpt lat="42.23961" lon="14.2065117"><ele>360.0</ele><time>2026-05-01T10:01:28.268Z</time></trkpt><trkpt lat="42.2395383" lon="14.20645"><ele>359.3333333333333</ele><time>2026-05-01T10:01:29.268Z</time></trkpt><trkpt lat="42.2394733" lon="14.206385"><ele>358.6666666666667</ele><time>2026-05-01T10:01:30.268Z</time></trkpt><trkpt lat="42.2394067" lon="14.2063117"><ele>358.0</ele><time>2026-05-01T10:01:31.268Z</time></trkpt><trkpt lat="42.2393417" lon="14.2062333"><ele>357.33333333333337</ele><time>2026-05-01T10:01:32.268Z</time></trkpt><trkpt lat="42.23929" lon="14.2061633"><ele>356.6666666666667</ele><time>2026-05-01T10:01:33.268Z</time></trkpt><trkpt lat="42.2392433" lon="14.2060867"><ele>356.0</ele><time>2026-05-01T10:01:34.268Z</time></trkpt><trkpt lat="42.239195" lon="14.2059917"><ele>356.0</ele><time>2026-05-01T10:01:35.268Z</time></trkpt><trkpt lat="42.23915" lon="14.20589"><ele>356.0</ele><time>2026-05-01T10:01:36.268Z</time></trkpt><trkpt lat="42.2391067" lon="14.2057717"><ele>356.0</ele><time>2026-05-01T10:01:37.269Z</time></trkpt><trkpt lat="42.2390633" lon="14.2056733"><ele>356.0</ele><time>2026-05-01T10:01:38.268Z</time></trkpt><trkpt lat="42.2390283" lon="14.205565"><ele>356.0</ele><time>2026-05-01T10:01:39.268Z</time></trkpt><trkpt lat="42.238985" lon="14.2054717"><ele>356.0</ele><time>2026-05-01T10:01:40.268Z</time></trkpt><trkpt lat="42.2389383" lon="14.2054"><ele>354.1666666666667</ele><time>2026-05-01T10:01:41.269Z</time></trkpt><trkpt lat="42.2388933" lon="14.20533"><ele>352.33333333333337</ele><time>2026-05-01T10:01:42.268Z</time></trkpt><trkpt lat="42.2388133" lon="14.2051967"><ele>350.5</ele><time>2026-05-01T10:01:44.268Z</time></trkpt><trkpt lat="42.238785" lon="14.20512"><ele>348.6666666666667</ele><time>2026-05-01T10:01:45.268Z</time></trkpt><trkpt lat="42.238745" lon="14.2050467"><ele>346.8333333333333</ele><time>2026-05-01T10:01:46.268Z</time></trkpt><trkpt lat="42.2386917" lon="14.2049967"><ele>345.0</ele><time>2026-05-01T10:01:47.268Z</time></trkpt><trkpt lat="42.2385917" lon="14.20492"><ele>345.0</ele><time>2026-05-01T10:01:49.268Z</time></trkpt><trkpt lat="42.2385417" lon="14.2048683"><ele>345.0</ele><time>2026-05-01T10:01:50.268Z</time></trkpt><trkpt lat="42.2385033" lon="14.2048"><ele>345.0</ele><time>2026-05-01T10:01:51.268Z</time></trkpt><trkpt lat="42.238435" lon="14.2046617"><ele>345.0</ele><time>2026-05-01T10:01:53.268Z</time></trkpt><trkpt lat="42.2383617" lon="14.204535"><ele>345.0</ele><time>2026-05-01T10:01:55.268Z</time></trkpt><trkpt lat="42.2383267" lon="14.2044583"><ele>345.0</ele><time>2026-05-01T10:01:56.269Z</time></trkpt><trkpt lat="42.2382967" lon="14.2043767"><ele>346.6</ele><time>2026-05-01T10:01:57.268Z</time></trkpt><trkpt lat="42.238245" lon="14.2042233"><ele>348.2</ele><time>2026-05-01T10:01:59.268Z</time></trkpt><trkpt lat="42.2382017" lon="14.2041"><ele>349.79999999999995</ele><time>2026-05-01T10:02:01.269Z</time></trkpt><trkpt lat="42.2381667" lon="14.2039917"><ele>351.4</ele><time>2026-05-01T10:02:03.268Z</time></trkpt><trkpt lat="42.2381333" lon="14.203875"><ele>353.0</ele><time>2026-05-01T10:02:05.268Z</time></trkpt><trkpt lat="42.2381017" lon="14.2037733"><ele>349.6666666666667</ele><time>2026-05-01T10:02:07.268Z</time></trkpt><trkpt lat="42.23809" lon="14.2036533"><ele>346.33333333333337</ele><time>2026-05-01T10:02:09.268Z</time></trkpt><trkpt lat="42.2381033" lon="14.2035383"><ele>343.0</ele><time>2026-05-01T10:02:11.268Z</time></trkpt><trkpt lat="42.2381067" lon="14.2034317"><ele>339.6666666666667</ele><time>2026-05-01T10:02:13.268Z</time></trkpt><trkpt lat="42.23808" lon="14.203325"><ele>336.3333333333333</ele><time>2026-05-01T10:02:16.268Z</time></trkpt><trkpt lat="42.23803" lon="14.2032567"><ele>333.0</ele><time>2026-05-01T10:02:18.268Z</time></trkpt><trkpt lat="42.2379767" lon="14.2031983"><ele>333.3333333333333</ele><time>2026-05-01T10:02:20.268Z</time></trkpt><trkpt lat="42.2379133" lon="14.2031433"><ele>333.6666666666667</ele><time>2026-05-01T10:02:22.268Z</time></trkpt><trkpt lat="42.2378567" lon="14.20307"><ele>334.0</ele><time>2026-05-01T10:02:24.268Z</time></trkpt><trkpt lat="42.237825" lon="14.2029833"><ele>334.33333333333337</ele><time>2026-05-01T10:02:26.268Z</time></trkpt><trkpt lat="42.23779" lon="14.2029017"><ele>334.6666666666667</ele><time>2026-05-01T10:02:28.269Z</time></trkpt><trkpt lat="42.2377417" lon="14.20282"><ele>335.0</ele><time>2026-05-01T10:02:30.268Z</time></trkpt><trkpt lat="42.2376883" lon="14.2027233"><ele>335.0</ele><time>2026-05-01T10:02:32.268Z</time></trkpt><trkpt lat="42.2376367" lon="14.2026117"><ele>335.0</ele><time>2026-05-01T10:02:34.269Z</time></trkpt><trkpt lat="42.2375917" lon="14.2024917"><ele>335.0</ele><time>2026-05-01T10:02:36.268Z</time></trkpt><trkpt lat="42.2375433" lon="14.2023733"><ele>335.0</ele><time>2026-05-01T10:02:38.268Z</time></trkpt><trkpt lat="42.2375017" lon="14.2022367"><ele>335.0</ele><time>2026-05-01T10:02:40.268Z</time></trkpt><trkpt lat="42.2374867" lon="14.20214"><ele>336.2</ele><time>2026-05-01T10:02:41.268Z</time></trkpt><trkpt lat="42.2374583" lon="14.2019717"><ele>337.4</ele><time>2026-05-01T10:02:43.268Z</time></trkpt><trkpt lat="42.2374383" lon="14.2018817"><ele>338.6</ele><time>2026-05-01T10:02:44.268Z</time></trkpt><trkpt lat="42.237415" lon="14.20178"><ele>339.8</ele><time>2026-05-01T10:02:45.268Z</time></trkpt><trkpt lat="42.2373933" lon="14.2016967"><ele>341.0</ele><time>2026-05-01T10:02:46.268Z</time></trkpt><trkpt lat="42.2373667" lon="14.20154"><ele>341.6</ele><time>2026-05-01T10:02:48.268Z</time></trkpt><trkpt lat="42.2373433" lon="14.2013817"><ele>342.20000000000005</ele><time>2026-05-01T10:02:50.268Z</time></trkpt><trkpt lat="42.2373233" lon="14.2012283"><ele>342.79999999999995</ele><time>2026-05-01T10:02:52.268Z</time></trkpt><trkpt lat="42.2373367" lon="14.2010633"><ele>343.4</ele><time>2026-05-01T10:02:54.268Z</time></trkpt><trkpt lat="42.23734" lon="14.200975"><ele>344.0</ele><time>2026-05-01T10:02:55.268Z</time></trkpt><trkpt lat="42.2373483" lon="14.2008267"><ele>344.6666666666667</ele><time>2026-05-01T10:02:57.268Z</time></trkpt><trkpt lat="42.2373583" lon="14.200665"><ele>345.33333333333337</ele><time>2026-05-01T10:02:59.268Z</time></trkpt><trkpt lat="42.237365" lon="14.2005783"><ele>346.0</ele><time>2026-05-01T10:03:00.268Z</time></trkpt><trkpt lat="42.237375" lon="14.2004833"><ele>346.6666666666667</ele><time>2026-05-01T10:03:01.268Z</time></trkpt><trkpt lat="42.2373867" lon="14.2003883"><ele>347.3333333333333</ele><time>2026-05-01T10:03:02.268Z</time></trkpt><trkpt lat="42.2374033" lon="14.2002833"><ele>348.0</ele><time>2026-05-01T10:03:03.268Z</time></trkpt><trkpt lat="42.2374183" lon="14.2001883"><ele>348.0</ele><time>2026-05-01T10:03:04.268Z</time></trkpt><trkpt lat="42.237435" lon="14.2000867"><ele>348.0</ele><time>2026-05-01T10:03:05.268Z</time></trkpt><trkpt lat="42.2374467" lon="14.1999833"><ele>348.0</ele><time>2026-05-01T10:03:06.268Z</time></trkpt><trkpt lat="42.2374683" lon="14.1998417"><ele>348.0</ele><time>2026-05-01T10:03:08.268Z</time></trkpt><trkpt lat="42.237425" lon="14.1997167"><ele>348.0</ele><time>2026-05-01T10:03:36.268Z</time></trkpt><trkpt lat="42.2373533" lon="14.199675"><ele>348.0</ele><time>2026-05-01T10:03:39.268Z</time></trkpt><trkpt lat="42.2372917" lon="14.1996417"><ele>345.0</ele><time>2026-05-01T10:03:41.269Z</time></trkpt><trkpt lat="42.23722" lon="14.1996183"><ele>342.0</ele><time>2026-05-01T10:03:43.269Z</time></trkpt><trkpt lat="42.2371583" lon="14.1995933"><ele>339.0</ele><time>2026-05-01T10:03:45.268Z</time></trkpt><trkpt lat="42.2370833" lon="14.1995667"><ele>336.0</ele><time>2026-05-01T10:03:47.268Z</time></trkpt><trkpt lat="42.237015" lon="14.1995383"><ele>333.0</ele><time>2026-05-01T10:03:49.268Z</time></trkpt><trkpt lat="42.2369517" lon="14.199515"><ele>330.0</ele><time>2026-05-01T10:03:51.268Z</time></trkpt><trkpt lat="42.2368883" lon="14.1994917"><ele>327.0</ele><time>2026-05-01T10:03:53.268Z</time></trkpt><trkpt lat="42.2368033" lon="14.1994583"><ele>327.0</ele><time>2026-05-01T10:03:56.268Z</time></trkpt><trkpt lat="42.2367217" lon="14.19942"><ele>327.0</ele><time>2026-05-01T10:03:59.268Z</time></trkpt><trkpt lat="42.23664" lon="14.1993867"><ele>327.0</ele><time>2026-05-01T10:04:02.268Z</time></trkpt><trkpt lat="42.2365717" lon="14.1993567"><ele>327.0</ele><time>2026-05-01T10:04:05.268Z</time></trkpt><trkpt lat="42.236495" lon="14.19933"><ele>327.0</ele><time>2026-05-01T10:04:08.268Z</time></trkpt><trkpt lat="42.2364217" lon="14.199305"><ele>327.0</ele><time>2026-05-01T10:04:11.268Z</time></trkpt><trkpt lat="42.2363583" lon="14.1992817"><ele>323.0</ele><time>2026-05-01T10:04:14.268Z</time></trkpt><trkpt lat="42.236295" lon="14.1992583"><ele>319.0</ele><time>2026-05-01T10:04:17.268Z</time></trkpt><trkpt lat="42.2362183" lon="14.199225"><ele>315.0</ele><time>2026-05-01T10:04:20.268Z</time></trkpt><trkpt lat="42.2361333" lon="14.199265"><ele>311.0</ele><time>2026-05-01T10:04:23.269Z</time></trkpt><trkpt lat="42.236095" lon="14.1993683"><ele>307.0</ele><time>2026-05-01T10:04:25.268Z</time></trkpt><trkpt lat="42.2360583" lon="14.1995083"><ele>303.0</ele><time>2026-05-01T10:04:27.268Z</time></trkpt><trkpt lat="42.2360267" lon="14.199645"><ele>303.0</ele><time>2026-05-01T10:04:29.268Z</time></trkpt><trkpt lat="42.235995" lon="14.1997533"><ele>303.0</ele><time>2026-05-01T10:04:31.268Z</time></trkpt><trkpt lat="42.23598" lon="14.1998383"><ele>303.0</ele><time>2026-05-01T10:04:33.268Z</time></trkpt><trkpt lat="42.2359517" lon="14.1999533"><ele>303.0</ele><time>2026-05-01T10:04:36.268Z</time></trkpt><trkpt lat="42.235915" lon="14.2000483"><ele>303.0</ele><time>2026-05-01T10:04:39.269Z</time></trkpt><trkpt lat="42.23582" lon="14.200095"><ele>303.0</ele><time>2026-05-01T10:04:42.268Z</time></trkpt><trkpt lat="42.2357433" lon="14.200075"><ele>303.1666666666667</ele><time>2026-05-01T10:04:44.268Z</time></trkpt><trkpt lat="42.2356633" lon="14.200055"><ele>303.3333333333333</ele><time>2026-05-01T10:04:46.268Z</time></trkpt><trkpt lat="42.2355883" lon="14.2000133"><ele>303.5</ele><time>2026-05-01T10:04:48.268Z</time></trkpt><trkpt lat="42.2355067" lon="14.1999767"><ele>303.66666666666663</ele><time>2026-05-01T10:04:50.268Z</time></trkpt><trkpt lat="42.2354233" lon="14.199935"><ele>303.8333333333333</ele><time>2026-05-01T10:04:52.268Z</time></trkpt><trkpt lat="42.2353217" lon="14.1998833"><ele>304.0</ele><time>2026-05-01T10:04:54.268Z</time></trkpt><trkpt lat="42.2352333" lon="14.1998317"><ele>300.59999999999997</ele><time>2026-05-01T10:04:56.268Z</time></trkpt><trkpt lat="42.2351567" lon="14.199765"><ele>297.2</ele><time>2026-05-01T10:04:58.268Z</time></trkpt><trkpt lat="42.23508" lon="14.199675"><ele>293.79999999999995</ele><time>2026-05-01T10:05:00.268Z</time></trkpt><trkpt lat="42.2349817" lon="14.1995717"><ele>290.4</ele><time>2026-05-01T10:05:02.268Z</time></trkpt><trkpt lat="42.2348833" lon="14.1994733"><ele>287.0</ele><time>2026-05-01T10:05:04.268Z</time></trkpt><trkpt lat="42.234795" lon="14.19938"><ele>285.4</ele><time>2026-05-01T10:05:06.268Z</time></trkpt><trkpt lat="42.2347067" lon="14.1992867"><ele>283.79999999999995</ele><time>2026-05-01T10:05:08.269Z</time></trkpt><trkpt lat="42.2346217" lon="14.1991833"><ele>282.2</ele><time>2026-05-01T10:05:10.269Z</time></trkpt><trkpt lat="42.234555" lon="14.1990633"><ele>280.59999999999997</ele><time>2026-05-01T10:05:12.268Z</time></trkpt><trkpt lat="42.234505" lon="14.19897"><ele>279.0</ele><time>2026-05-01T10:05:14.268Z</time></trkpt><trkpt lat="42.23444" lon="14.198885"><ele>278.2</ele><time>2026-05-01T10:05:16.268Z</time></trkpt><trkpt lat="42.2343533" lon="14.198815"><ele>277.4</ele><time>2026-05-01T10:05:18.268Z</time></trkpt><trkpt lat="42.2342567" lon="14.1987367"><ele>276.6</ele><time>2026-05-01T10:05:20.268Z</time></trkpt><trkpt lat="42.23417" lon="14.1986517"><ele>275.8</ele><time>2026-05-01T10:05:22.268Z</time></trkpt><trkpt lat="42.2341083" lon="14.1985883"><ele>275.0</ele><time>2026-05-01T10:05:24.269Z</time></trkpt><trkpt lat="42.23403" lon="14.19853"><ele>274.1666666666667</ele><time>2026-05-01T10:05:26.268Z</time></trkpt><trkpt lat="42.233955" lon="14.1985183"><ele>273.33333333333337</ele><time>2026-05-01T10:05:28.268Z</time></trkpt><trkpt lat="42.233885" lon="14.1985483"><ele>272.5</ele><time>2026-05-01T10:05:30.268Z</time></trkpt><trkpt lat="42.2338033" lon="14.19859"><ele>271.6666666666667</ele><time>2026-05-01T10:05:32.268Z</time></trkpt><trkpt lat="42.2337183" lon="14.198585"><ele>270.8333333333333</ele><time>2026-05-01T10:05:34.268Z</time></trkpt><trkpt lat="42.2336283" lon="14.1985367"><ele>270.0</ele><time>2026-05-01T10:05:36.269Z</time></trkpt><trkpt lat="42.2335483" lon="14.198465"><ele>270.0</ele><time>2026-05-01T10:05:38.268Z</time></trkpt><trkpt lat="42.2334617" lon="14.1983667"><ele>270.0</ele><time>2026-05-01T10:05:40.268Z</time></trkpt><trkpt lat="42.2333917" lon="14.1982617"><ele>270.0</ele><time>2026-05-01T10:05:42.269Z</time></trkpt><trkpt lat="42.23332" lon="14.19816"><ele>270.0</ele><time>2026-05-01T10:05:44.268Z</time></trkpt><trkpt lat="42.2332483" lon="14.19805"><ele>270.0</ele><time>2026-05-01T10:05:46.268Z</time></trkpt><trkpt lat="42.233195" lon="14.197935"><ele>269.4</ele><time>2026-05-01T10:05:48.268Z</time></trkpt><trkpt lat="42.2331633" lon="14.19783"><ele>268.8</ele><time>2026-05-01T10:05:51.268Z</time></trkpt><trkpt lat="42.2332083" lon="14.197725"><ele>268.2</ele><time>2026-05-01T10:05:58.268Z</time></trkpt><trkpt lat="42.2332833" lon="14.1976583"><ele>267.6</ele><time>2026-05-01T10:06:00.268Z</time></trkpt><trkpt lat="42.2333667" lon="14.1975917"><ele>267.0</ele><time>2026-05-01T10:06:02.268Z</time></trkpt><trkpt lat="42.2334483" lon="14.197535"><ele>267.0</ele><time>2026-05-01T10:06:04.268Z</time></trkpt><trkpt lat="42.2335133" lon="14.1974783"><ele>267.0</ele><time>2026-05-01T10:06:06.268Z</time></trkpt><trkpt lat="42.23358" lon="14.197415"><ele>267.0</ele><time>2026-05-01T10:06:08.268Z</time></trkpt><trkpt lat="42.23364" lon="14.1973433"><ele>267.0</ele><time>2026-05-01T10:06:10.268Z</time></trkpt><trkpt lat="42.2335783" lon="14.1974133"><ele>267.0</ele><time>2026-05-01T10:06:20.268Z</time></trkpt><trkpt lat="42.233515" lon="14.197455"><ele>267.0</ele><time>2026-05-01T10:06:21.268Z</time></trkpt><trkpt lat="42.2334517" lon="14.197495"><ele>267.0</ele><time>2026-05-01T10:06:22.268Z</time></trkpt><trkpt lat="42.2333883" lon="14.19754"><ele>267.0</ele><time>2026-05-01T10:06:23.268Z</time></trkpt><trkpt lat="42.2333317" lon="14.1975833"><ele>267.0</ele><time>2026-05-01T10:06:24.267Z</time></trkpt><trkpt lat="42.23324" lon="14.197645"><ele>267.0</ele><time>2026-05-01T10:06:26.267Z</time></trkpt><trkpt lat="42.2331733" lon="14.1976967"><ele>267.0</ele><time>2026-05-01T10:06:28.267Z</time></trkpt><trkpt lat="42.2331183" lon="14.1977567"><ele>267.0</ele><time>2026-05-01T10:06:31.267Z</time></trkpt><trkpt lat="42.2330433" lon="14.1977717"><ele>267.0</ele><time>2026-05-01T10:06:35.267Z</time></trkpt><trkpt lat="42.2329583" lon="14.1977683"><ele>267.0</ele><time>2026-05-01T10:06:37.267Z</time></trkpt><trkpt lat="42.23292" lon="14.1976983"><ele>267.0</ele><time>2026-05-01T10:07:00.267Z</time></trkpt><trkpt lat="42.2329383" lon="14.1976167"><ele>267.0</ele><time>2026-05-01T10:07:01.267Z</time></trkpt><trkpt lat="42.2329617" lon="14.197475"><ele>267.0</ele><time>2026-05-01T10:07:03.267Z</time></trkpt><trkpt lat="42.23297" lon="14.1973567"><ele>267.0</ele><time>2026-05-01T10:07:05.267Z</time></trkpt><trkpt lat="42.2329383" lon="14.1972117"><ele>267.5</ele><time>2026-05-01T10:07:07.267Z</time></trkpt><trkpt lat="42.23291" lon="14.1970383"><ele>268.0</ele><time>2026-05-01T10:07:09.267Z</time></trkpt><trkpt lat="42.2328967" lon="14.1969367"><ele>268.5</ele><time>2026-05-01T10:07:10.267Z</time></trkpt><trkpt lat="42.2328867" lon="14.1968383"><ele>269.0</ele><time>2026-05-01T10:07:11.267Z</time></trkpt><trkpt lat="42.23288" lon="14.196745"><ele>269.5</ele><time>2026-05-01T10:07:12.267Z</time></trkpt><trkpt lat="42.2328667" lon="14.19665"><ele>270.0</ele><time>2026-05-01T10:07:13.267Z</time></trkpt><trkpt lat="42.2328533" lon="14.1965567"><ele>270.1666666666667</ele><time>2026-05-01T10:07:14.267Z</time></trkpt><trkpt lat="42.2328417" lon="14.1963983"><ele>270.3333333333333</ele><time>2026-05-01T10:07:16.267Z</time></trkpt><trkpt lat="42.2328317" lon="14.196305"><ele>270.5</ele><time>2026-05-01T10:07:17.267Z</time></trkpt><trkpt lat="42.2328017" lon="14.1962167"><ele>270.66666666666663</ele><time>2026-05-01T10:07:18.267Z</time></trkpt><trkpt lat="42.23277" lon="14.1961383"><ele>270.8333333333333</ele><time>2026-05-01T10:07:19.267Z</time></trkpt><trkpt lat="42.2326867" lon="14.1960367"><ele>271.0</ele><time>2026-05-01T10:07:21.267Z</time></trkpt><trkpt lat="42.23262" lon="14.196005"><ele>271.0</ele><time>2026-05-01T10:07:22.267Z</time></trkpt><trkpt lat="42.2325433" lon="14.1959933"><ele>271.0</ele><time>2026-05-01T10:07:23.267Z</time></trkpt><trkpt lat="42.2324467" lon="14.1959933"><ele>271.0</ele><time>2026-05-01T10:07:24.267Z</time></trkpt><trkpt lat="42.2323383" lon="14.19601"><ele>271.0</ele><time>2026-05-01T10:07:25.268Z</time></trkpt><trkpt lat="42.2322217" lon="14.19603"><ele>271.0</ele><time>2026-05-01T10:07:26.267Z</time></trkpt><trkpt lat="42.2321133" lon="14.1960633"><ele>271.6</ele><time>2026-05-01T10:07:27.267Z</time></trkpt><trkpt lat="42.23201" lon="14.1960783"><ele>272.20000000000005</ele><time>2026-05-01T10:07:28.267Z</time></trkpt><trkpt lat="42.2319083" lon="14.1960867"><ele>272.79999999999995</ele><time>2026-05-01T10:07:29.268Z</time></trkpt><trkpt lat="42.2318" lon="14.1961017"><ele>273.4</ele><time>2026-05-01T10:07:30.267Z</time></trkpt><trkpt lat="42.2316783" lon="14.196115"><ele>274.0</ele><time>2026-05-01T10:07:31.267Z</time></trkpt><trkpt lat="42.231575" lon="14.196125"><ele>274.4</ele><time>2026-05-01T10:07:32.267Z</time></trkpt><trkpt lat="42.2314683" lon="14.1961283"><ele>274.79999999999995</ele><time>2026-05-01T10:07:33.267Z</time></trkpt><trkpt lat="42.2313717" lon="14.19613"><ele>275.20000000000005</ele><time>2026-05-01T10:07:34.267Z</time></trkpt><trkpt lat="42.2312683" lon="14.1961267"><ele>275.6</ele><time>2026-05-01T10:07:35.267Z</time></trkpt><trkpt lat="42.2311683" lon="14.1961217"><ele>276.0</ele><time>2026-05-01T10:07:36.267Z</time></trkpt><trkpt lat="42.2310733" lon="14.1961067"><ele>276.0</ele><time>2026-05-01T10:07:37.267Z</time></trkpt><trkpt lat="42.23099" lon="14.1960833"><ele>276.0</ele><time>2026-05-01T10:07:38.267Z</time></trkpt><trkpt lat="42.2309017" lon="14.1960583"><ele>276.0</ele><time>2026-05-01T10:07:39.267Z</time></trkpt><trkpt lat="42.2308167" lon="14.196025"><ele>276.0</ele><time>2026-05-01T10:07:40.267Z</time></trkpt><trkpt lat="42.2307333" lon="14.1959883"><ele>276.0</ele><time>2026-05-01T10:07:41.267Z</time></trkpt><trkpt lat="42.23065" lon="14.19595"><ele>276.0</ele><time>2026-05-01T10:07:42.267Z</time></trkpt><trkpt lat="42.23057" lon="14.1959"><ele>276.0</ele><time>2026-05-01T10:07:43.267Z</time></trkpt><trkpt lat="42.230485" lon="14.1958233"><ele>276.0</ele><time>2026-05-01T10:07:44.267Z</time></trkpt><trkpt lat="42.2304133" lon="14.19574"><ele>276.0</ele><time>2026-05-01T10:07:45.267Z</time></trkpt><trkpt lat="42.2303383" lon="14.19566"><ele>276.0</ele><time>2026-05-01T10:07:46.268Z</time></trkpt><trkpt lat="42.2302583" lon="14.1955833"><ele>276.0</ele><time>2026-05-01T10:07:47.267Z</time></trkpt><trkpt lat="42.2301633" lon="14.1955283"><ele>276.8333333333333</ele><time>2026-05-01T10:07:48.267Z</time></trkpt><trkpt lat="42.23006" lon="14.19549"><ele>277.6666666666667</ele><time>2026-05-01T10:07:49.267Z</time></trkpt><trkpt lat="42.22998" lon="14.195465"><ele>278.5</ele><time>2026-05-01T10:07:50.267Z</time></trkpt><trkpt lat="42.229905" lon="14.1954317"><ele>279.33333333333337</ele><time>2026-05-01T10:07:51.267Z</time></trkpt><trkpt lat="42.22984" lon="14.195385"><ele>280.1666666666667</ele><time>2026-05-01T10:07:52.267Z</time></trkpt><trkpt lat="42.229785" lon="14.1953133"><ele>281.0</ele><time>2026-05-01T10:07:53.267Z</time></trkpt><trkpt lat="42.2297217" lon="14.1952283"><ele>281.0</ele><time>2026-05-01T10:07:54.268Z</time></trkpt><trkpt lat="42.2296517" lon="14.1951017"><ele>281.0</ele><time>2026-05-01T10:07:55.267Z</time></trkpt><trkpt lat="42.2295933" lon="14.1949667"><ele>281.0</ele><time>2026-05-01T10:07:56.268Z</time></trkpt><trkpt lat="42.22953" lon="14.1948583"><ele>281.0</ele><time>2026-05-01T10:07:57.267Z</time></trkpt><trkpt lat="42.2294783" lon="14.1947533"><ele>281.0</ele><time>2026-05-01T10:07:58.267Z</time></trkpt><trkpt lat="42.2294133" lon="14.194645"><ele>282.2</ele><time>2026-05-01T10:07:59.267Z</time></trkpt><trkpt lat="42.2293417" lon="14.1945267"><ele>283.40000000000003</ele><time>2026-05-01T10:08:00.267Z</time></trkpt><trkpt lat="42.2292717" lon="14.1944183"><ele>284.6</ele><time>2026-05-01T10:08:01.267Z</time></trkpt><trkpt lat="42.2292017" lon="14.1943117"><ele>285.8</ele><time>2026-05-01T10:08:02.268Z</time></trkpt><trkpt lat="42.2291267" lon="14.1942133"><ele>287.0</ele><time>2026-05-01T10:08:03.267Z</time></trkpt><trkpt lat="42.22905" lon="14.1941133"><ele>287.0</ele><time>2026-05-01T10:08:04.267Z</time></trkpt><trkpt lat="42.2289767" lon="14.1940233"><ele>287.0</ele><time>2026-05-01T10:08:05.268Z</time></trkpt><trkpt lat="42.2289017" lon="14.1939367"><ele>287.0</ele><time>2026-05-01T10:08:06.267Z</time></trkpt><trkpt lat="42.2288333" lon="14.1938617"><ele>287.0</ele><time>2026-05-01T10:08:07.267Z</time></trkpt><trkpt lat="42.22877" lon="14.193805"><ele>287.0</ele><time>2026-05-01T10:08:08.267Z</time></trkpt><trkpt lat="42.2287" lon="14.1937683"><ele>287.0</ele><time>2026-05-01T10:08:09.267Z</time></trkpt><trkpt lat="42.2286267" lon="14.19375"><ele>287.6666666666667</ele><time>2026-05-01T10:08:10.267Z</time></trkpt><trkpt lat="42.2285383" lon="14.1937283"><ele>288.33333333333337</ele><time>2026-05-01T10:08:11.267Z</time></trkpt><trkpt lat="42.2284533" lon="14.1936983"><ele>289.0</ele><time>2026-05-01T10:08:12.267Z</time></trkpt><trkpt lat="42.2283648" lon="14.1936564"><ele>289.6666666666667</ele><time>2026-05-01T10:08:13.267Z</time></trkpt><trkpt lat="42.2282865" lon="14.1936064"><ele>290.3333333333333</ele><time>2026-05-01T10:08:14.267Z</time></trkpt><trkpt lat="42.228209" lon="14.19355"><ele>291.0</ele><time>2026-05-01T10:08:15.267Z</time></trkpt><trkpt lat="42.2281414" lon="14.1934882"><ele>291.0</ele><time>2026-05-01T10:08:16.267Z</time></trkpt><trkpt lat="42.2280887" lon="14.1934231"><ele>291.0</ele><time>2026-05-01T10:08:17.267Z</time></trkpt><trkpt lat="42.2280271" lon="14.1933479"><ele>291.0</ele><time>2026-05-01T10:08:18.268Z</time></trkpt><trkpt lat="42.2279577" lon="14.1932709"><ele>291.0</ele><time>2026-05-01T10:08:19.267Z</time></trkpt><trkpt lat="42.2278884" lon="14.1931985"><ele>291.0</ele><time>2026-05-01T10:08:20.267Z</time></trkpt><trkpt lat="42.2278132" lon="14.193131"><ele>291.0</ele><time>2026-05-01T10:08:21.267Z</time></trkpt><trkpt lat="42.2277274" lon="14.1930584"><ele>292.8</ele><time>2026-05-01T10:08:22.267Z</time></trkpt><trkpt lat="42.2276387" lon="14.192984"><ele>294.6</ele><time>2026-05-01T10:08:23.267Z</time></trkpt><trkpt lat="42.2275579" lon="14.1929128"><ele>296.4</ele><time>2026-05-01T10:08:24.267Z</time></trkpt><trkpt lat="42.2274698" lon="14.1928412"><ele>298.2</ele><time>2026-05-01T10:08:25.267Z</time></trkpt><trkpt lat="42.2273806" lon="14.1927693"><ele>300.0</ele><time>2026-05-01T10:08:26.267Z</time></trkpt><trkpt lat="42.2273038" lon="14.1927005"><ele>300.0</ele><time>2026-05-01T10:08:27.268Z</time></trkpt><trkpt lat="42.2272347" lon="14.1926449"><ele>300.0</ele><time>2026-05-01T10:08:28.267Z</time></trkpt><trkpt lat="42.2271645" lon="14.1925993"><ele>300.0</ele><time>2026-05-01T10:08:29.267Z</time></trkpt><trkpt lat="42.2270996" lon="14.192566"><ele>300.0</ele><time>2026-05-01T10:08:30.267Z</time></trkpt><trkpt lat="42.2270186" lon="14.1925405"><ele>300.0</ele><time>2026-05-01T10:08:31.267Z</time></trkpt><trkpt lat="42.2269403" lon="14.1925228"><ele>300.0</ele><time>2026-05-01T10:08:32.267Z</time></trkpt><trkpt lat="42.2268747" lon="14.1925111"><ele>300.0</ele><time>2026-05-01T10:08:33.267Z</time></trkpt><trkpt lat="42.2267779" lon="14.192497"><ele>300.0</ele><time>2026-05-01T10:08:35.267Z</time></trkpt><trkpt lat="42.2266814" lon="14.1924891"><ele>300.0</ele><time>2026-05-01T10:08:37.267Z</time></trkpt><trkpt lat="42.2265622" lon="14.192489"><ele>300.0</ele><time>2026-05-01T10:08:39.267Z</time></trkpt><trkpt lat="42.2264973" lon="14.1924777"><ele>300.0</ele><time>2026-05-01T10:08:40.267Z</time></trkpt><trkpt lat="42.2264288" lon="14.1924726"><ele>300.0</ele><time>2026-05-01T10:08:41.267Z</time></trkpt><trkpt lat="42.2263455" lon="14.1924787"><ele>300.4</ele><time>2026-05-01T10:08:42.267Z</time></trkpt><trkpt lat="42.2262554" lon="14.1925027"><ele>300.8</ele><time>2026-05-01T10:08:43.267Z</time></trkpt><trkpt lat="42.2261651" lon="14.192539"><ele>301.2</ele><time>2026-05-01T10:08:44.267Z</time></trkpt><trkpt lat="42.2260715" lon="14.1925765"><ele>301.6</ele><time>2026-05-01T10:08:45.268Z</time></trkpt><trkpt lat="42.2259773" lon="14.1926131"><ele>302.0</ele><time>2026-05-01T10:08:46.267Z</time></trkpt><trkpt lat="42.2258818" lon="14.1926551"><ele>302.0</ele><time>2026-05-01T10:08:47.267Z</time></trkpt><trkpt lat="42.2257856" lon="14.1926921"><ele>302.0</ele><time>2026-05-01T10:08:48.267Z</time></trkpt><trkpt lat="42.2256857" lon="14.1927285"><ele>302.0</ele><time>2026-05-01T10:08:49.267Z</time></trkpt><trkpt lat="42.2255863" lon="14.1927558"><ele>302.0</ele><time>2026-05-01T10:08:50.267Z</time></trkpt><trkpt lat="42.2254864" lon="14.1927769"><ele>302.0</ele><time>2026-05-01T10:08:51.267Z</time></trkpt><trkpt lat="42.2253978" lon="14.1927891"><ele>302.5</ele><time>2026-05-01T10:08:52.267Z</time></trkpt><trkpt lat="42.2253165" lon="14.1927967"><ele>303.0</ele><time>2026-05-01T10:08:53.267Z</time></trkpt><trkpt lat="42.2252336" lon="14.1928029"><ele>303.5</ele><time>2026-05-01T10:08:54.267Z</time></trkpt><trkpt lat="42.2251489" lon="14.192807"><ele>304.0</ele><time>2026-05-01T10:08:55.267Z</time></trkpt><trkpt lat="42.2250586" lon="14.1928141"><ele>304.5</ele><time>2026-05-01T10:08:56.267Z</time></trkpt><trkpt lat="42.224964" lon="14.1928271"><ele>305.0</ele><time>2026-05-01T10:08:57.267Z</time></trkpt><trkpt lat="42.2248735" lon="14.1928416"><ele>305.33333333333337</ele><time>2026-05-01T10:08:58.267Z</time></trkpt><trkpt lat="42.2247916" lon="14.1928533"><ele>305.6666666666667</ele><time>2026-05-01T10:08:59.267Z</time></trkpt><trkpt lat="42.2247137" lon="14.1928538"><ele>306.0</ele><time>2026-05-01T10:09:00.267Z</time></trkpt><trkpt lat="42.224633" lon="14.192859"><ele>306.3333333333333</ele><time>2026-05-01T10:09:01.267Z</time></trkpt><trkpt lat="42.2245422" lon="14.1928737"><ele>306.66666666666663</ele><time>2026-05-01T10:09:02.267Z</time></trkpt><trkpt lat="42.2244436" lon="14.1928814"><ele>307.0</ele><time>2026-05-01T10:09:03.267Z</time></trkpt><trkpt lat="42.2243521" lon="14.1928788"><ele>307.0</ele><time>2026-05-01T10:09:04.267Z</time></trkpt><trkpt lat="42.2242657" lon="14.1928607"><ele>307.0</ele><time>2026-05-01T10:09:05.267Z</time></trkpt><trkpt lat="42.2241875" lon="14.1928329"><ele>307.0</ele><time>2026-05-01T10:09:06.268Z</time></trkpt><trkpt lat="42.2241113" lon="14.1927944"><ele>307.0</ele><time>2026-05-01T10:09:07.267Z</time></trkpt><trkpt lat="42.2240446" lon="14.1927377"><ele>307.0</ele><time>2026-05-01T10:09:08.267Z</time></trkpt><trkpt lat="42.2239813" lon="14.1926716"><ele>307.0</ele><time>2026-05-01T10:09:09.267Z</time></trkpt><trkpt lat="42.2239167" lon="14.1925933"><ele>307.8333333333333</ele><time>2026-05-01T10:09:10.267Z</time></trkpt><trkpt lat="42.22386" lon="14.192535"><ele>308.66666666666663</ele><time>2026-05-01T10:09:11.267Z</time></trkpt><trkpt lat="42.2238" lon="14.1924967"><ele>309.5</ele><time>2026-05-01T10:09:12.267Z</time></trkpt><trkpt lat="42.2237333" lon="14.192455"><ele>310.3333333333333</ele><time>2026-05-01T10:09:13.267Z</time></trkpt><trkpt lat="42.2236183" lon="14.192445"><ele>311.1666666666667</ele><time>2026-05-01T10:09:15.267Z</time></trkpt><trkpt lat="42.2235533" lon="14.1924667"><ele>312.0</ele><time>2026-05-01T10:09:16.267Z</time></trkpt><trkpt lat="42.223485" lon="14.1925067"><ele>312.0</ele><time>2026-05-01T10:09:17.267Z</time></trkpt><trkpt lat="42.2233867" lon="14.192545"><ele>312.0</ele><time>2026-05-01T10:09:18.267Z</time></trkpt><trkpt lat="42.2232717" lon="14.19258"><ele>312.0</ele><time>2026-05-01T10:09:19.267Z</time></trkpt><trkpt lat="42.223165" lon="14.19261"><ele>312.0</ele><time>2026-05-01T10:09:20.268Z</time></trkpt><trkpt lat="42.2230517" lon="14.1926317"><ele>312.0</ele><time>2026-05-01T10:09:21.267Z</time></trkpt><trkpt lat="42.2229383" lon="14.192655"><ele>312.4</ele><time>2026-05-01T10:09:22.267Z</time></trkpt><trkpt lat="42.2228333" lon="14.1926683"><ele>312.79999999999995</ele><time>2026-05-01T10:09:23.267Z</time></trkpt><trkpt lat="42.2227317" lon="14.19269"><ele>313.2</ele><time>2026-05-01T10:09:24.267Z</time></trkpt><trkpt lat="42.22262" lon="14.1927017"><ele>313.59999999999997</ele><time>2026-05-01T10:09:25.267Z</time></trkpt><trkpt lat="42.2225083" lon="14.1927017"><ele>314.0</ele><time>2026-05-01T10:09:26.267Z</time></trkpt><trkpt lat="42.2224133" lon="14.1926833"><ele>314.0</ele><time>2026-05-01T10:09:27.267Z</time></trkpt><trkpt lat="42.2223233" lon="14.1926583"><ele>314.0</ele><time>2026-05-01T10:09:28.267Z</time></trkpt><trkpt lat="42.2222283" lon="14.1926267"><ele>314.0</ele><time>2026-05-01T10:09:29.267Z</time></trkpt><trkpt lat="42.222135" lon="14.19259"><ele>314.0</ele><time>2026-05-01T10:09:30.267Z</time></trkpt><trkpt lat="42.2220267" lon="14.192545"><ele>314.0</ele><time>2026-05-01T10:09:31.267Z</time></trkpt><trkpt lat="42.2219183" lon="14.1925117"><ele>315.0</ele><time>2026-05-01T10:09:32.267Z</time></trkpt><trkpt lat="42.2218133" lon="14.19249"><ele>316.0</ele><time>2026-05-01T10:09:33.267Z</time></trkpt><trkpt lat="42.2216933" lon="14.19245"><ele>317.0</ele><time>2026-05-01T10:09:34.267Z</time></trkpt><trkpt lat="42.2215833" lon="14.1923733"><ele>318.0</ele><time>2026-05-01T10:09:35.267Z</time></trkpt><trkpt lat="42.2214733" lon="14.1922917"><ele>319.1666666666667</ele><time>2026-05-01T10:09:36.267Z</time></trkpt><trkpt lat="42.221375" lon="14.19222"><ele>320.3333333333333</ele><time>2026-05-01T10:09:37.267Z</time></trkpt><trkpt lat="42.22129" lon="14.1921533"><ele>321.5</ele><time>2026-05-01T10:09:38.267Z</time></trkpt><trkpt lat="42.2212333" lon="14.1921033"><ele>322.66666666666663</ele><time>2026-05-01T10:09:39.267Z</time></trkpt><trkpt lat="42.221155" lon="14.1920783"><ele>323.8333333333333</ele><time>2026-05-01T10:09:41.267Z</time></trkpt><trkpt lat="42.2211567" lon="14.1921917"><ele>325.0</ele><time>2026-05-01T10:09:44.267Z</time></trkpt><trkpt lat="42.2212667" lon="14.1922883"><ele>324.8</ele><time>2026-05-01T10:09:46.267Z</time></trkpt><trkpt lat="42.22134" lon="14.1923533"><ele>324.6</ele><time>2026-05-01T10:09:47.267Z</time></trkpt><trkpt lat="42.2214183" lon="14.1924417"><ele>324.4</ele><time>2026-05-01T10:09:48.267Z</time></trkpt><trkpt lat="42.2215" lon="14.1925467"><ele>324.2</ele><time>2026-05-01T10:09:49.267Z</time></trkpt><trkpt lat="42.2215883" lon="14.19265"><ele>324.0</ele><time>2026-05-01T10:09:50.268Z</time></trkpt><trkpt lat="42.221675" lon="14.1927617"><ele>322.5</ele><time>2026-05-01T10:09:51.267Z</time></trkpt><trkpt lat="42.2217717" lon="14.19286"><ele>321.0</ele><time>2026-05-01T10:09:52.267Z</time></trkpt><trkpt lat="42.2218567" lon="14.192945"><ele>319.5</ele><time>2026-05-01T10:09:53.267Z</time></trkpt><trkpt lat="42.2219483" lon="14.193025"><ele>318.0</ele><time>2026-05-01T10:09:54.267Z</time></trkpt><trkpt lat="42.2220417" lon="14.1931167"><ele>318.0</ele><time>2026-05-01T10:09:55.267Z</time></trkpt><trkpt lat="42.2221367" lon="14.1931967"><ele>318.0</ele><time>2026-05-01T10:09:56.267Z</time></trkpt><trkpt lat="42.2222267" lon="14.193275"><ele>318.0</ele><time>2026-05-01T10:09:57.267Z</time></trkpt><trkpt lat="42.2223083" lon="14.1933417"><ele>318.0</ele><time>2026-05-01T10:09:58.267Z</time></trkpt><trkpt lat="42.2223917" lon="14.1934033"><ele>318.0</ele><time>2026-05-01T10:09:59.267Z</time></trkpt><trkpt lat="42.222475" lon="14.1934667"><ele>316.4</ele><time>2026-05-01T10:10:00.267Z</time></trkpt><trkpt lat="42.222565" lon="14.1935233"><ele>314.8</ele><time>2026-05-01T10:10:01.267Z</time></trkpt><trkpt lat="42.22266" lon="14.1935833"><ele>313.2</ele><time>2026-05-01T10:10:02.267Z</time></trkpt><trkpt lat="42.222745" lon="14.1936433"><ele>311.6</ele><time>2026-05-01T10:10:03.267Z</time></trkpt><trkpt lat="42.2228467" lon="14.1937017"><ele>310.0</ele><time>2026-05-01T10:10:04.267Z</time></trkpt><trkpt lat="42.222945" lon="14.1937617"><ele>310.0</ele><time>2026-05-01T10:10:05.267Z</time></trkpt><trkpt lat="42.223035" lon="14.193825"><ele>310.0</ele><time>2026-05-01T10:10:06.267Z</time></trkpt><trkpt lat="42.223115" lon="14.1938817"><ele>310.0</ele><time>2026-05-01T10:10:07.267Z</time></trkpt><trkpt lat="42.2231967" lon="14.193935"><ele>310.0</ele><time>2026-05-01T10:10:08.267Z</time></trkpt><trkpt lat="42.22328" lon="14.1939933"><ele>310.0</ele><time>2026-05-01T10:10:09.267Z</time></trkpt><trkpt lat="42.2233567" lon="14.1940467"><ele>309.0</ele><time>2026-05-01T10:10:10.267Z</time></trkpt><trkpt lat="42.2234333" lon="14.1940833"><ele>308.0</ele><time>2026-05-01T10:10:11.267Z</time></trkpt><trkpt lat="42.223505" lon="14.19412"><ele>307.0</ele><time>2026-05-01T10:10:12.268Z</time></trkpt><trkpt lat="42.2235683" lon="14.1941617"><ele>306.0</ele><time>2026-05-01T10:10:13.267Z</time></trkpt><trkpt lat="42.2236483" lon="14.1942117"><ele>305.0</ele><time>2026-05-01T10:10:14.267Z</time></trkpt><trkpt lat="42.2237267" lon="14.19427"><ele>304.0</ele><time>2026-05-01T10:10:15.267Z</time></trkpt><trkpt lat="42.223785" lon="14.1943267"><ele>304.0</ele><time>2026-05-01T10:10:16.267Z</time></trkpt><trkpt lat="42.2238367" lon="14.1943783"><ele>304.0</ele><time>2026-05-01T10:10:17.267Z</time></trkpt><trkpt lat="42.2238933" lon="14.1944333"><ele>304.0</ele><time>2026-05-01T10:10:18.267Z</time></trkpt><trkpt lat="42.2239567" lon="14.1944967"><ele>304.0</ele><time>2026-05-01T10:10:19.267Z</time></trkpt><trkpt lat="42.2240183" lon="14.1945567"><ele>304.0</ele><time>2026-05-01T10:10:20.267Z</time></trkpt><trkpt lat="42.2240783" lon="14.1946083"><ele>304.0</ele><time>2026-05-01T10:10:21.268Z</time></trkpt><trkpt lat="42.2241467" lon="14.1946483"><ele>304.0</ele><time>2026-05-01T10:10:22.267Z</time></trkpt><trkpt lat="42.2242333" lon="14.1946967"><ele>303.59999999999997</ele><time>2026-05-01T10:10:23.267Z</time></trkpt><trkpt lat="42.224325" lon="14.1947517"><ele>303.2</ele><time>2026-05-01T10:10:24.267Z</time></trkpt><trkpt lat="42.2244167" lon="14.1948083"><ele>302.79999999999995</ele><time>2026-05-01T10:10:25.267Z</time></trkpt><trkpt lat="42.2244967" lon="14.1948417"><ele>302.4</ele><time>2026-05-01T10:10:26.267Z</time></trkpt><trkpt lat="42.2245867" lon="14.19486"><ele>302.0</ele><time>2026-05-01T10:10:27.267Z</time></trkpt><trkpt lat="42.2246667" lon="14.19488"><ele>301.6666666666667</ele><time>2026-05-01T10:10:28.267Z</time></trkpt><trkpt lat="42.2247367" lon="14.1948983"><ele>301.33333333333337</ele><time>2026-05-01T10:10:29.267Z</time></trkpt><trkpt lat="42.224805" lon="14.1949117"><ele>301.0</ele><time>2026-05-01T10:10:30.267Z</time></trkpt><trkpt lat="42.2248933" lon="14.1949233"><ele>300.6666666666667</ele><time>2026-05-01T10:10:31.267Z</time></trkpt><trkpt lat="42.22497" lon="14.1949333"><ele>300.3333333333333</ele><time>2026-05-01T10:10:32.267Z</time></trkpt><trkpt lat="42.22504" lon="14.19495"><ele>300.0</ele><time>2026-05-01T10:10:33.267Z</time></trkpt><trkpt lat="42.2251117" lon="14.194965"><ele>298.6</ele><time>2026-05-01T10:10:34.267Z</time></trkpt><trkpt lat="42.2252167" lon="14.195005"><ele>297.2</ele><time>2026-05-01T10:10:36.267Z</time></trkpt><trkpt lat="42.2252783" lon="14.1950483"><ele>295.8</ele><time>2026-05-01T10:10:38.267Z</time></trkpt><trkpt lat="42.2253367" lon="14.1951417"><ele>294.4</ele><time>2026-05-01T10:10:40.267Z</time></trkpt><trkpt lat="42.2253867" lon="14.19525"><ele>293.0</ele><time>2026-05-01T10:10:42.267Z</time></trkpt><trkpt lat="42.2254133" lon="14.1953883"><ele>293.0</ele><time>2026-05-01T10:10:44.267Z</time></trkpt><trkpt lat="42.2254467" lon="14.195495"><ele>293.0</ele><time>2026-05-01T10:10:46.267Z</time></trkpt><trkpt lat="42.225505" lon="14.19558"><ele>293.0</ele><time>2026-05-01T10:10:48.267Z</time></trkpt><trkpt lat="42.2255633" lon="14.1956217"><ele>293.0</ele><time>2026-05-01T10:10:50.267Z</time></trkpt><trkpt lat="42.225665" lon="14.1956567"><ele>293.0</ele><time>2026-05-01T10:10:52.267Z</time></trkpt><trkpt lat="42.2257433" lon="14.1957017"><ele>293.0</ele><time>2026-05-01T10:10:54.267Z</time></trkpt><trkpt lat="42.22581" lon="14.1957583"><ele>294.1666666666667</ele><time>2026-05-01T10:10:56.267Z</time></trkpt><trkpt lat="42.2258583" lon="14.1958317"><ele>295.33333333333337</ele><time>2026-05-01T10:10:58.267Z</time></trkpt><trkpt lat="42.2258933" lon="14.1959317"><ele>296.5</ele><time>2026-05-01T10:11:00.267Z</time></trkpt><trkpt lat="42.2259314" lon="14.1960465"><ele>297.6666666666667</ele><time>2026-05-01T10:11:03.268Z</time></trkpt><trkpt lat="42.225949" lon="14.1961337"><ele>298.8333333333333</ele><time>2026-05-01T10:11:04.267Z</time></trkpt><trkpt lat="42.2259771" lon="14.1962788"><ele>300.0</ele><time>2026-05-01T10:11:06.267Z</time></trkpt><trkpt lat="42.2260006" lon="14.1963907"><ele>300.0</ele><time>2026-05-01T10:11:08.267Z</time></trkpt><trkpt lat="42.2260251" lon="14.1964992"><ele>300.0</ele><time>2026-05-01T10:11:10.267Z</time></trkpt><trkpt lat="42.2260633" lon="14.196619"><ele>300.0</ele><time>2026-05-01T10:11:12.267Z</time></trkpt><trkpt lat="42.2260958" lon="14.1966936"><ele>300.0</ele><time>2026-05-01T10:11:13.267Z</time></trkpt><trkpt lat="42.226178" lon="14.1968204"><ele>300.0</ele><time>2026-05-01T10:11:15.267Z</time></trkpt><trkpt lat="42.2262781" lon="14.1969172"><ele>300.8333333333333</ele><time>2026-05-01T10:11:17.267Z</time></trkpt><trkpt lat="42.2263346" lon="14.1969631"><ele>301.6666666666667</ele><time>2026-05-01T10:11:18.267Z</time></trkpt><trkpt lat="42.226389" lon="14.1970063"><ele>302.5</ele><time>2026-05-01T10:11:19.268Z</time></trkpt><trkpt lat="42.226489" lon="14.1970934"><ele>303.33333333333337</ele><time>2026-05-01T10:11:21.267Z</time></trkpt><trkpt lat="42.226542" lon="14.197156"><ele>304.1666666666667</ele><time>2026-05-01T10:11:22.268Z</time></trkpt><trkpt lat="42.2266034" lon="14.1972347"><ele>305.0</ele><time>2026-05-01T10:11:23.267Z</time></trkpt><trkpt lat="42.2266624" lon="14.1973134"><ele>306.83333333333337</ele><time>2026-05-01T10:11:24.267Z</time></trkpt><trkpt lat="42.2267227" lon="14.1973888"><ele>308.6666666666667</ele><time>2026-05-01T10:11:25.267Z</time></trkpt><trkpt lat="42.2267816" lon="14.1974575"><ele>310.5</ele><time>2026-05-01T10:11:26.267Z</time></trkpt><trkpt lat="42.22684" lon="14.1975162"><ele>312.3333333333333</ele><time>2026-05-01T10:11:27.267Z</time></trkpt><trkpt lat="42.226903" lon="14.1975662"><ele>314.16666666666663</ele><time>2026-05-01T10:11:28.267Z</time></trkpt><trkpt lat="42.2269673" lon="14.1976242"><ele>316.0</ele><time>2026-05-01T10:11:29.267Z</time></trkpt><trkpt lat="42.2270297" lon="14.197693"><ele>316.0</ele><time>2026-05-01T10:11:30.267Z</time></trkpt><trkpt lat="42.2270937" lon="14.197768"><ele>316.0</ele><time>2026-05-01T10:11:31.267Z</time></trkpt><trkpt lat="42.2271549" lon="14.1978356"><ele>316.0</ele><time>2026-05-01T10:11:32.267Z</time></trkpt><trkpt lat="42.2272064" lon="14.1978969"><ele>316.0</ele><time>2026-05-01T10:11:33.268Z</time></trkpt><trkpt lat="42.2272514" lon="14.197965"><ele>316.0</ele><time>2026-05-01T10:11:34.267Z</time></trkpt><trkpt lat="42.2272971" lon="14.1980491"><ele>316.0</ele><time>2026-05-01T10:11:35.267Z</time></trkpt><trkpt lat="42.2273367" lon="14.1981428"><ele>315.8571428571429</ele><time>2026-05-01T10:11:36.267Z</time></trkpt><trkpt lat="42.2273699" lon="14.1982407"><ele>315.7142857142857</ele><time>2026-05-01T10:11:37.267Z</time></trkpt><trkpt lat="42.2273955" lon="14.198338"><ele>315.57142857142856</ele><time>2026-05-01T10:11:38.267Z</time></trkpt><trkpt lat="42.2274182" lon="14.1984381"><ele>315.42857142857144</ele><time>2026-05-01T10:11:39.267Z</time></trkpt><trkpt lat="42.2274356" lon="14.1985378"><ele>315.2857142857143</ele><time>2026-05-01T10:11:40.267Z</time></trkpt><trkpt lat="42.2274432" lon="14.1986315"><ele>315.14285714285717</ele><time>2026-05-01T10:11:41.268Z</time></trkpt><trkpt lat="42.2274424" lon="14.1987184"><ele>315.0</ele><time>2026-05-01T10:11:42.267Z</time></trkpt><trkpt lat="42.2274345" lon="14.1988795"><ele>314.2</ele><time>2026-05-01T10:11:44.268Z</time></trkpt><trkpt lat="42.2274229" lon="14.1990105"><ele>313.4</ele><time>2026-05-01T10:11:46.267Z</time></trkpt><trkpt lat="42.2274242" lon="14.1991407"><ele>312.6</ele><time>2026-05-01T10:11:48.267Z</time></trkpt><trkpt lat="42.2274658" lon="14.1992703"><ele>311.8</ele><time>2026-05-01T10:11:50.267Z</time></trkpt><trkpt lat="42.2275331" lon="14.1993869"><ele>311.0</ele><time>2026-05-01T10:11:52.267Z</time></trkpt><trkpt lat="42.2275833" lon="14.1994933"><ele>311.0</ele><time>2026-05-01T10:11:54.267Z</time></trkpt><trkpt lat="42.227625" lon="14.19958"><ele>311.0</ele><time>2026-05-01T10:11:56.267Z</time></trkpt><trkpt lat="42.22767" lon="14.19967"><ele>311.0</ele><time>2026-05-01T10:11:58.267Z</time></trkpt><trkpt lat="42.2276883" lon="14.199795"><ele>311.0</ele><time>2026-05-01T10:12:00.267Z</time></trkpt><trkpt lat="42.2276533" lon="14.1999417"><ele>311.0</ele><time>2026-05-01T10:12:02.267Z</time></trkpt><trkpt lat="42.2276167" lon="14.2000267"><ele>311.0</ele><time>2026-05-01T10:12:03.267Z</time></trkpt><trkpt lat="42.2275783" lon="14.2001283"><ele>310.6666666666667</ele><time>2026-05-01T10:12:04.267Z</time></trkpt><trkpt lat="42.2275766" lon="14.2002134"><ele>310.33333333333337</ele><time>2026-05-01T10:12:05.267Z</time></trkpt><trkpt lat="42.2275203" lon="14.200327"><ele>310.0</ele><time>2026-05-01T10:12:06.267Z</time></trkpt><trkpt lat="42.227469" lon="14.200425"><ele>309.6666666666667</ele><time>2026-05-01T10:12:07.267Z</time></trkpt><trkpt lat="42.2274204" lon="14.2005034"><ele>309.3333333333333</ele><time>2026-05-01T10:12:08.267Z</time></trkpt><trkpt lat="42.2273756" lon="14.2005676"><ele>309.0</ele><time>2026-05-01T10:12:09.267Z</time></trkpt><trkpt lat="42.227329" lon="14.200627"><ele>308.3333333333333</ele><time>2026-05-01T10:12:10.267Z</time></trkpt><trkpt lat="42.2272562" lon="14.2007355"><ele>307.6666666666667</ele><time>2026-05-01T10:12:12.267Z</time></trkpt><trkpt lat="42.2272483" lon="14.2008267"><ele>307.0</ele><time>2026-05-01T10:12:14.267Z</time></trkpt><trkpt lat="42.227295" lon="14.200895"><ele>306.33333333333337</ele><time>2026-05-01T10:12:16.267Z</time></trkpt><trkpt lat="42.2273667" lon="14.2009733"><ele>305.6666666666667</ele><time>2026-05-01T10:12:18.267Z</time></trkpt><trkpt lat="42.2274417" lon="14.2010267"><ele>305.0</ele><time>2026-05-01T10:12:20.267Z</time></trkpt><trkpt lat="42.2274933" lon="14.2011383"><ele>305.0</ele><time>2026-05-01T10:12:22.267Z</time></trkpt><trkpt lat="42.2274917" lon="14.20128"><ele>305.0</ele><time>2026-05-01T10:12:24.267Z</time></trkpt><trkpt lat="42.2274517" lon="14.2013683"><ele>305.0</ele><time>2026-05-01T10:12:25.267Z</time></trkpt><trkpt lat="42.2273967" lon="14.20145"><ele>305.0</ele><time>2026-05-01T10:12:26.267Z</time></trkpt><trkpt lat="42.2273483" lon="14.201535"><ele>305.0</ele><time>2026-05-01T10:12:27.268Z</time></trkpt><trkpt lat="42.2273" lon="14.20161"><ele>305.0</ele><time>2026-05-01T10:12:28.267Z</time></trkpt><trkpt lat="42.2272483" lon="14.201695"><ele>306.6666666666667</ele><time>2026-05-01T10:12:29.267Z</time></trkpt><trkpt lat="42.22721" lon="14.2017733"><ele>308.33333333333337</ele><time>2026-05-01T10:12:30.267Z</time></trkpt><trkpt lat="42.2271467" lon="14.201905"><ele>310.0</ele><time>2026-05-01T10:12:32.267Z</time></trkpt><trkpt lat="42.2270717" lon="14.2020167"><ele>311.6666666666667</ele><time>2026-05-01T10:12:34.267Z</time></trkpt><trkpt lat="42.2270233" lon="14.2020817"><ele>313.3333333333333</ele><time>2026-05-01T10:12:35.267Z</time></trkpt><trkpt lat="42.226975" lon="14.20215"><ele>315.0</ele><time>2026-05-01T10:12:36.267Z</time></trkpt><trkpt lat="42.2269167" lon="14.2022333"><ele>315.0</ele><time>2026-05-01T10:12:37.267Z</time></trkpt><trkpt lat="42.2268583" lon="14.20232"><ele>315.0</ele><time>2026-05-01T10:12:38.267Z</time></trkpt><trkpt lat="42.2268083" lon="14.2024083"><ele>315.0</ele><time>2026-05-01T10:12:39.267Z</time></trkpt><trkpt lat="42.2267533" lon="14.2024783"><ele>315.0</ele><time>2026-05-01T10:12:40.267Z</time></trkpt><trkpt lat="42.2267083" lon="14.2025433"><ele>315.0</ele><time>2026-05-01T10:12:41.267Z</time></trkpt><trkpt lat="42.2266483" lon="14.2026717"><ele>315.0</ele><time>2026-05-01T10:12:43.267Z</time></trkpt><trkpt lat="42.2266" lon="14.2027917"><ele>315.0</ele><time>2026-05-01T10:12:45.267Z</time></trkpt><trkpt lat="42.2265217" lon="14.2029"><ele>315.0</ele><time>2026-05-01T10:12:47.267Z</time></trkpt><trkpt lat="42.2264617" lon="14.202955"><ele>315.0</ele><time>2026-05-01T10:12:48.268Z</time></trkpt><trkpt lat="42.2263767" lon="14.203035"><ele>315.0</ele><time>2026-05-01T10:12:50.267Z</time></trkpt><trkpt lat="42.22631" lon="14.203095"><ele>315.0</ele><time>2026-05-01T10:12:52.268Z</time></trkpt><trkpt lat="42.2262599" lon="14.2031696"><ele>315.0</ele><time>2026-05-01T10:12:54.267Z</time></trkpt><trkpt lat="42.2262105" lon="14.2032619"><ele>314.0</ele><time>2026-05-01T10:12:56.267Z</time></trkpt><trkpt lat="42.2261617" lon="14.2033633"><ele>313.0</ele><time>2026-05-01T10:12:58.267Z</time></trkpt><trkpt lat="42.22612" lon="14.2034483"><ele>312.0</ele><time>2026-05-01T10:13:00.267Z</time></trkpt><trkpt lat="42.2260717" lon="14.203535"><ele>311.0</ele><time>2026-05-01T10:13:02.267Z</time></trkpt><trkpt lat="42.22599" lon="14.2036333"><ele>310.0</ele><time>2026-05-01T10:13:04.268Z</time></trkpt><trkpt lat="42.2258967" lon="14.2037433"><ele>310.0</ele><time>2026-05-01T10:13:06.267Z</time></trkpt><trkpt lat="42.2258033" lon="14.2038283"><ele>310.0</ele><time>2026-05-01T10:13:08.267Z</time></trkpt><trkpt lat="42.2257117" lon="14.2038833"><ele>310.0</ele><time>2026-05-01T10:13:10.267Z</time></trkpt><trkpt lat="42.22563" lon="14.2039283"><ele>310.0</ele><time>2026-05-01T10:13:12.267Z</time></trkpt><trkpt lat="42.22554" lon="14.2040167"><ele>310.0</ele><time>2026-05-01T10:13:14.267Z</time></trkpt><trkpt lat="42.2254467" lon="14.2041"><ele>309.6</ele><time>2026-05-01T10:13:16.267Z</time></trkpt><trkpt lat="42.2253533" lon="14.2041583"><ele>309.2</ele><time>2026-05-01T10:13:18.268Z</time></trkpt><trkpt lat="42.2252767" lon="14.2041967"><ele>308.8</ele><time>2026-05-01T10:13:20.267Z</time></trkpt><trkpt lat="42.2252133" lon="14.204245"><ele>308.4</ele><time>2026-05-01T10:13:22.267Z</time></trkpt><trkpt lat="42.22514" lon="14.2043017"><ele>308.0</ele><time>2026-05-01T10:13:24.267Z</time></trkpt><trkpt lat="42.2250333" lon="14.20436"><ele>308.0</ele><time>2026-05-01T10:13:26.267Z</time></trkpt><trkpt lat="42.2249317" lon="14.2044233"><ele>308.0</ele><time>2026-05-01T10:13:28.267Z</time></trkpt><trkpt lat="42.2248383" lon="14.204495"><ele>308.0</ele><time>2026-05-01T10:13:30.267Z</time></trkpt><trkpt lat="42.22476" lon="14.2045883"><ele>308.0</ele><time>2026-05-01T10:13:32.267Z</time></trkpt><trkpt lat="42.22467" lon="14.20467"><ele>308.0</ele><time>2026-05-01T10:13:34.267Z</time></trkpt><trkpt lat="42.2246017" lon="14.2046967"><ele>308.6666666666667</ele><time>2026-05-01T10:13:35.267Z</time></trkpt><trkpt lat="42.22453" lon="14.2047233"><ele>309.33333333333337</ele><time>2026-05-01T10:13:36.267Z</time></trkpt><trkpt lat="42.2244567" lon="14.2047633"><ele>310.0</ele><time>2026-05-01T10:13:37.267Z</time></trkpt><trkpt lat="42.224385" lon="14.2047917"><ele>310.6666666666667</ele><time>2026-05-01T10:13:38.267Z</time></trkpt><trkpt lat="42.2243217" lon="14.20483"><ele>311.3333333333333</ele><time>2026-05-01T10:13:39.267Z</time></trkpt><trkpt lat="42.22423" lon="14.2049167"><ele>312.0</ele><time>2026-05-01T10:13:41.267Z</time></trkpt><trkpt lat="42.224135" lon="14.205015"><ele>312.0</ele><time>2026-05-01T10:13:43.267Z</time></trkpt><trkpt lat="42.2240733" lon="14.2050533"><ele>312.0</ele><time>2026-05-01T10:13:44.267Z</time></trkpt><trkpt lat="42.2239933" lon="14.205095"><ele>312.0</ele><time>2026-05-01T10:13:45.267Z</time></trkpt><trkpt lat="42.2239167" lon="14.2051383"><ele>312.0</ele><time>2026-05-01T10:13:46.267Z</time></trkpt><trkpt lat="42.2238567" lon="14.2051817"><ele>312.0</ele><time>2026-05-01T10:13:47.267Z</time></trkpt><trkpt lat="42.2237567" lon="14.2052783"><ele>312.0</ele><time>2026-05-01T10:13:49.267Z</time></trkpt><trkpt lat="42.22369" lon="14.2053367"><ele>312.1666666666667</ele><time>2026-05-01T10:13:50.267Z</time></trkpt><trkpt lat="42.2236233" lon="14.2053917"><ele>312.3333333333333</ele><time>2026-05-01T10:13:51.267Z</time></trkpt><trkpt lat="42.2235517" lon="14.2054483"><ele>312.5</ele><time>2026-05-01T10:13:52.267Z</time></trkpt><trkpt lat="42.2234767" lon="14.205515"><ele>312.66666666666663</ele><time>2026-05-01T10:13:53.267Z</time></trkpt><trkpt lat="42.2234" lon="14.2055683"><ele>312.8333333333333</ele><time>2026-05-01T10:13:54.267Z</time></trkpt><trkpt lat="42.2233317" lon="14.2056217"><ele>313.0</ele><time>2026-05-01T10:13:55.268Z</time></trkpt><trkpt lat="42.2232617" lon="14.2056633"><ele>313.0</ele><time>2026-05-01T10:13:56.267Z</time></trkpt><trkpt lat="42.2232" lon="14.2057"><ele>313.0</ele><time>2026-05-01T10:13:57.267Z</time></trkpt><trkpt lat="42.22314" lon="14.20575"><ele>313.0</ele><time>2026-05-01T10:13:58.267Z</time></trkpt><trkpt lat="42.2230817" lon="14.2057933"><ele>313.0</ele><time>2026-05-01T10:13:59.267Z</time></trkpt><trkpt lat="42.2230233" lon="14.205865"><ele>313.0</ele><time>2026-05-01T10:14:00.267Z</time></trkpt><trkpt lat="42.22296" lon="14.2059567"><ele>313.0</ele><time>2026-05-01T10:14:01.267Z</time></trkpt><trkpt lat="42.2228867" lon="14.2060483"><ele>314.8333333333333</ele><time>2026-05-01T10:14:02.267Z</time></trkpt><trkpt lat="42.222815" lon="14.2061267"><ele>316.66666666666663</ele><time>2026-05-01T10:14:03.267Z</time></trkpt><trkpt lat="42.2227517" lon="14.2061933"><ele>318.5</ele><time>2026-05-01T10:14:04.268Z</time></trkpt><trkpt lat="42.2226917" lon="14.206245"><ele>320.3333333333333</ele><time>2026-05-01T10:14:05.268Z</time></trkpt><trkpt lat="42.22259" lon="14.206335"><ele>322.1666666666667</ele><time>2026-05-01T10:14:07.268Z</time></trkpt><trkpt lat="42.2225333" lon="14.2063833"><ele>324.0</ele><time>2026-05-01T10:14:08.268Z</time></trkpt><trkpt lat="42.2224717" lon="14.2064267"><ele>324.0</ele><time>2026-05-01T10:14:09.267Z</time></trkpt><trkpt lat="42.2224117" lon="14.2064583"><ele>324.0</ele><time>2026-05-01T10:14:10.267Z</time></trkpt><trkpt lat="42.222355" lon="14.2064967"><ele>324.0</ele><time>2026-05-01T10:14:11.267Z</time></trkpt><trkpt lat="42.222295" lon="14.2065383"><ele>324.0</ele><time>2026-05-01T10:14:12.267Z</time></trkpt><trkpt lat="42.2222283" lon="14.2065817"><ele>324.0</ele><time>2026-05-01T10:14:13.267Z</time></trkpt><trkpt lat="42.2221283" lon="14.2066567"><ele>324.0</ele><time>2026-05-01T10:14:15.267Z</time></trkpt><trkpt lat="42.2220633" lon="14.2067133"><ele>323.79999999999995</ele><time>2026-05-01T10:14:17.267Z</time></trkpt><trkpt lat="42.2220017" lon="14.2067683"><ele>323.59999999999997</ele><time>2026-05-01T10:14:19.267Z</time></trkpt><trkpt lat="42.221905" lon="14.20684"><ele>323.4</ele><time>2026-05-01T10:14:21.267Z</time></trkpt><trkpt lat="42.2218117" lon="14.206915"><ele>323.2</ele><time>2026-05-01T10:14:23.267Z</time></trkpt><trkpt lat="42.2217317" lon="14.2069867"><ele>323.0</ele><time>2026-05-01T10:14:25.267Z</time></trkpt><trkpt lat="42.22164" lon="14.2070733"><ele>323.0</ele><time>2026-05-01T10:14:27.267Z</time></trkpt><trkpt lat="42.22155" lon="14.2071683"><ele>323.0</ele><time>2026-05-01T10:14:29.267Z</time></trkpt><trkpt lat="42.22147" lon="14.2072583"><ele>323.0</ele><time>2026-05-01T10:14:31.267Z</time></trkpt><trkpt lat="42.221375" lon="14.2073317"><ele>323.0</ele><time>2026-05-01T10:14:33.267Z</time></trkpt><trkpt lat="42.2212667" lon="14.20742"><ele>324.1666666666667</ele><time>2026-05-01T10:14:35.267Z</time></trkpt><trkpt lat="42.22121" lon="14.207465"><ele>325.33333333333337</ele><time>2026-05-01T10:14:36.267Z</time></trkpt><trkpt lat="42.2211517" lon="14.2075133"><ele>326.5</ele><time>2026-05-01T10:14:37.267Z</time></trkpt><trkpt lat="42.2210817" lon="14.2075783"><ele>327.6666666666667</ele><time>2026-05-01T10:14:38.268Z</time></trkpt><trkpt lat="42.2210017" lon="14.207645"><ele>328.8333333333333</ele><time>2026-05-01T10:14:39.267Z</time></trkpt><trkpt lat="42.2209133" lon="14.2077183"><ele>330.0</ele><time>2026-05-01T10:14:40.267Z</time></trkpt><trkpt lat="42.2208133" lon="14.2077983"><ele>330.0</ele><time>2026-05-01T10:14:41.267Z</time></trkpt><trkpt lat="42.2207233" lon="14.207865"><ele>330.0</ele><time>2026-05-01T10:14:42.267Z</time></trkpt><trkpt lat="42.2206317" lon="14.2079267"><ele>330.0</ele><time>2026-05-01T10:14:43.267Z</time></trkpt><trkpt lat="42.22055" lon="14.2079917"><ele>330.0</ele><time>2026-05-01T10:14:44.268Z</time></trkpt><trkpt lat="42.22046" lon="14.208055"><ele>330.0</ele><time>2026-05-01T10:14:45.267Z</time></trkpt><trkpt lat="42.2203733" lon="14.2081417"><ele>330.5</ele><time>2026-05-01T10:14:46.267Z</time></trkpt><trkpt lat="42.2202967" lon="14.2082067"><ele>331.0</ele><time>2026-05-01T10:14:47.267Z</time></trkpt><trkpt lat="42.2202233" lon="14.2082717"><ele>331.5</ele><time>2026-05-01T10:14:48.267Z</time></trkpt><trkpt lat="42.2201483" lon="14.2083383"><ele>332.0</ele><time>2026-05-01T10:14:49.267Z</time></trkpt><trkpt lat="42.22008" lon="14.208405"><ele>332.5</ele><time>2026-05-01T10:14:50.267Z</time></trkpt><trkpt lat="42.2200067" lon="14.2084617"><ele>333.0</ele><time>2026-05-01T10:14:51.267Z</time></trkpt><trkpt lat="42.2199317" lon="14.20852"><ele>333.0</ele><time>2026-05-01T10:14:52.267Z</time></trkpt><trkpt lat="42.2198433" lon="14.2085817"><ele>333.0</ele><time>2026-05-01T10:14:53.267Z</time></trkpt><trkpt lat="42.2197633" lon="14.208635"><ele>333.0</ele><time>2026-05-01T10:14:54.267Z</time></trkpt><trkpt lat="42.219675" lon="14.20869"><ele>333.0</ele><time>2026-05-01T10:14:55.267Z</time></trkpt><trkpt lat="42.219585" lon="14.2087417"><ele>333.0</ele><time>2026-05-01T10:14:56.267Z</time></trkpt><trkpt lat="42.2194983" lon="14.2087933"><ele>334.59999999999997</ele><time>2026-05-01T10:14:57.267Z</time></trkpt><trkpt lat="42.21941" lon="14.2088383"><ele>336.2</ele><time>2026-05-01T10:14:58.268Z</time></trkpt><trkpt lat="42.2193233" lon="14.2088717"><ele>337.8</ele><time>2026-05-01T10:14:59.267Z</time></trkpt><trkpt lat="42.2192217" lon="14.2088867"><ele>339.4</ele><time>2026-05-01T10:15:00.267Z</time></trkpt><trkpt lat="42.2191267" lon="14.20889"><ele>341.0</ele><time>2026-05-01T10:15:01.267Z</time></trkpt><trkpt lat="42.2190383" lon="14.2088867"><ele>340.0</ele><time>2026-05-01T10:15:02.267Z</time></trkpt><trkpt lat="42.2189617" lon="14.20888"><ele>339.0</ele><time>2026-05-01T10:15:03.267Z</time></trkpt><trkpt lat="42.21888" lon="14.2088383"><ele>338.0</ele><time>2026-05-01T10:15:04.267Z</time></trkpt><trkpt lat="42.218795" lon="14.2087817"><ele>337.0</ele><time>2026-05-01T10:15:05.267Z</time></trkpt><trkpt lat="42.218715" lon="14.2087233"><ele>336.0</ele><time>2026-05-01T10:15:06.267Z</time></trkpt><trkpt lat="42.21864" lon="14.2086683"><ele>335.0</ele><time>2026-05-01T10:15:07.267Z</time></trkpt><trkpt lat="42.2185583" lon="14.2086117"><ele>335.0</ele><time>2026-05-01T10:15:08.267Z</time></trkpt><trkpt lat="42.2184683" lon="14.2085633"><ele>335.0</ele><time>2026-05-01T10:15:09.267Z</time></trkpt><trkpt lat="42.2183767" lon="14.208515"><ele>335.0</ele><time>2026-05-01T10:15:10.267Z</time></trkpt><trkpt lat="42.2182817" lon="14.2084633"><ele>335.0</ele><time>2026-05-01T10:15:11.267Z</time></trkpt><trkpt lat="42.2182017" lon="14.208415"><ele>335.0</ele><time>2026-05-01T10:15:12.267Z</time></trkpt><trkpt lat="42.2181133" lon="14.2083683"><ele>335.33333333333337</ele><time>2026-05-01T10:15:13.267Z</time></trkpt><trkpt lat="42.2180217" lon="14.2083233"><ele>335.6666666666667</ele><time>2026-05-01T10:15:14.267Z</time></trkpt><trkpt lat="42.217935" lon="14.20829"><ele>336.0</ele><time>2026-05-01T10:15:15.267Z</time></trkpt><trkpt lat="42.2178583" lon="14.2082583"><ele>336.3333333333333</ele><time>2026-05-01T10:15:16.267Z</time></trkpt><trkpt lat="42.217775" lon="14.20823"><ele>336.66666666666663</ele><time>2026-05-01T10:15:17.267Z</time></trkpt><trkpt lat="42.2176833" lon="14.2081983"><ele>337.0</ele><time>2026-05-01T10:15:18.268Z</time></trkpt><trkpt lat="42.217605" lon="14.2081583"><ele>338.28571428571433</ele><time>2026-05-01T10:15:19.268Z</time></trkpt><trkpt lat="42.2175267" lon="14.2081267"><ele>339.57142857142856</ele><time>2026-05-01T10:15:20.267Z</time></trkpt><trkpt lat="42.2174567" lon="14.2080833"><ele>340.8571428571429</ele><time>2026-05-01T10:15:21.267Z</time></trkpt><trkpt lat="42.2173917" lon="14.2080383"><ele>342.14285714285717</ele><time>2026-05-01T10:15:22.267Z</time></trkpt><trkpt lat="42.2173233" lon="14.2079817"><ele>343.42857142857144</ele><time>2026-05-01T10:15:24.267Z</time></trkpt><trkpt lat="42.217275" lon="14.2079267"><ele>344.7142857142857</ele><time>2026-05-01T10:15:28.268Z</time></trkpt><trkpt lat="42.2172217" lon="14.20787"><ele>346.0</ele><time>2026-05-01T10:15:53.267Z</time></trkpt><trkpt lat="42.217145" lon="14.207735"><ele>346.0</ele><time>2026-05-01T10:19:44.267Z</time></trkpt><trkpt lat="42.2170667" lon="14.2076783"><ele>346.0</ele><time>2026-05-01T10:19:46.267Z</time></trkpt><trkpt lat="42.2170067" lon="14.20762"><ele>346.0</ele><time>2026-05-01T10:19:48.267Z</time></trkpt><trkpt lat="42.21695" lon="14.2075717"><ele>346.0</ele><time>2026-05-01T10:19:50.267Z</time></trkpt><trkpt lat="42.216895" lon="14.2075183"><ele>346.0</ele><time>2026-05-01T10:19:53.267Z</time></trkpt><trkpt lat="42.2168367" lon="14.207465"><ele>346.0</ele><time>2026-05-01T10:19:56.267Z</time></trkpt><trkpt lat="42.2167867" lon="14.2074117"><ele>346.0</ele><time>2026-05-01T10:19:59.268Z</time></trkpt><trkpt lat="42.2167167" lon="14.2073567"><ele>347.0</ele><time>2026-05-01T10:20:03.267Z</time></trkpt><trkpt lat="42.2166333" lon="14.2073217"><ele>348.0</ele><time>2026-05-01T10:20:06.267Z</time></trkpt><trkpt lat="42.2165483" lon="14.2072117"><ele>349.0</ele><time>2026-05-01T10:21:58.267Z</time></trkpt><trkpt lat="42.2164667" lon="14.2071933"><ele>350.0</ele><time>2026-05-01T10:22:01.267Z</time></trkpt><trkpt lat="42.2163717" lon="14.207145"><ele>351.0</ele><time>2026-05-01T10:22:03.267Z</time></trkpt><trkpt lat="42.2163117" lon="14.20711"><ele>351.00000000000006</ele><time>2026-05-01T10:22:04.267Z</time></trkpt><trkpt lat="42.21624" lon="14.20708"><ele>351.0</ele><time>2026-05-01T10:22:05.267Z</time></trkpt><trkpt lat="42.216165" lon="14.2070467"><ele>351.0</ele><time>2026-05-01T10:22:06.267Z</time></trkpt><trkpt lat="42.2160917" lon="14.2070167"><ele>351.0</ele><time>2026-05-01T10:22:07.267Z</time></trkpt><trkpt lat="42.2160233" lon="14.206995"><ele>351.0</ele><time>2026-05-01T10:22:08.267Z</time></trkpt><trkpt lat="42.215955" lon="14.2069717"><ele>351.00000000000006</ele><time>2026-05-01T10:22:09.267Z</time></trkpt><trkpt lat="42.215885" lon="14.20695"><ele>351.0</ele><time>2026-05-01T10:22:10.267Z</time></trkpt><trkpt lat="42.215815" lon="14.20693"><ele>351.0</ele><time>2026-05-01T10:22:11.267Z</time></trkpt><trkpt lat="42.2156867" lon="14.206905"><ele>351.0</ele><time>2026-05-01T10:22:13.267Z</time></trkpt><trkpt lat="42.215615" lon="14.2068833"><ele>351.0</ele><time>2026-05-01T10:22:14.267Z</time></trkpt><trkpt lat="42.2155483" lon="14.2068633"><ele>351.0</ele><time>2026-05-01T10:22:15.267Z</time></trkpt><trkpt lat="42.2154817" lon="14.2068417"><ele>351.0</ele><time>2026-05-01T10:22:16.267Z</time></trkpt><trkpt lat="42.2154117" lon="14.206825"><ele>351.0</ele><time>2026-05-01T10:22:17.267Z</time></trkpt><trkpt lat="42.215345" lon="14.2068"><ele>351.6666666666667</ele><time>2026-05-01T10:22:18.267Z</time></trkpt><trkpt lat="42.2152767" lon="14.2067833"><ele>352.3333333333333</ele><time>2026-05-01T10:22:19.267Z</time></trkpt><trkpt lat="42.2152067" lon="14.20676"><ele>353.0</ele><time>2026-05-01T10:22:20.267Z</time></trkpt><trkpt lat="42.21514" lon="14.2067367"><ele>353.66666666666663</ele><time>2026-05-01T10:22:21.267Z</time></trkpt><trkpt lat="42.21503" lon="14.206685"><ele>354.3333333333333</ele><time>2026-05-01T10:22:23.268Z</time></trkpt><trkpt lat="42.2149617" lon="14.206665"><ele>355.0</ele><time>2026-05-01T10:22:24.267Z</time></trkpt><trkpt lat="42.214885" lon="14.206645"><ele>355.8333333333333</ele><time>2026-05-01T10:22:25.267Z</time></trkpt><trkpt lat="42.21481" lon="14.2066383"><ele>356.66666666666663</ele><time>2026-05-01T10:22:26.268Z</time></trkpt><trkpt lat="42.214735" lon="14.2066267"><ele>357.5</ele><time>2026-05-01T10:22:27.267Z</time></trkpt><trkpt lat="42.214665" lon="14.2066117"><ele>358.3333333333333</ele><time>2026-05-01T10:22:28.267Z</time></trkpt><trkpt lat="42.2145983" lon="14.2066"><ele>359.1666666666667</ele><time>2026-05-01T10:22:29.267Z</time></trkpt><trkpt lat="42.2145367" lon="14.2065817"><ele>360.0</ele><time>2026-05-01T10:22:30.267Z</time></trkpt><trkpt lat="42.2144217" lon="14.2065333"><ele>360.0</ele><time>2026-05-01T10:22:32.267Z</time></trkpt><trkpt lat="42.2143583" lon="14.2065117"><ele>360.0</ele><time>2026-05-01T10:22:33.267Z</time></trkpt><trkpt lat="42.2142867" lon="14.2064967"><ele>360.0</ele><time>2026-05-01T10:22:34.267Z</time></trkpt><trkpt lat="42.2142167" lon="14.2064867"><ele>360.0</ele><time>2026-05-01T10:22:35.267Z</time></trkpt><trkpt lat="42.2141517" lon="14.2064667"><ele>360.0</ele><time>2026-05-01T10:22:36.267Z</time></trkpt><trkpt lat="42.2140883" lon="14.206445"><ele>360.0</ele><time>2026-05-01T10:22:37.267Z</time></trkpt><trkpt lat="42.2140133" lon="14.206425"><ele>360.0</ele><time>2026-05-01T10:22:38.267Z</time></trkpt><trkpt lat="42.2139283" lon="14.2064033"><ele>361.6</ele><time>2026-05-01T10:22:39.267Z</time></trkpt><trkpt lat="42.2138417" lon="14.2063767"><ele>363.2</ele><time>2026-05-01T10:22:40.267Z</time></trkpt><trkpt lat="42.2137583" lon="14.2063433"><ele>364.79999999999995</ele><time>2026-05-01T10:22:41.267Z</time></trkpt><trkpt lat="42.2136683" lon="14.2063133"><ele>366.4</ele><time>2026-05-01T10:22:42.267Z</time></trkpt><trkpt lat="42.2135783" lon="14.20628"><ele>368.0</ele><time>2026-05-01T10:22:43.267Z</time></trkpt><trkpt lat="42.213485" lon="14.206255"><ele>368.0</ele><time>2026-05-01T10:22:44.267Z</time></trkpt><trkpt lat="42.2133917" lon="14.206225"><ele>368.0</ele><time>2026-05-01T10:22:45.267Z</time></trkpt><trkpt lat="42.21329" lon="14.2061983"><ele>368.0</ele><time>2026-05-01T10:22:46.267Z</time></trkpt><trkpt lat="42.2131983" lon="14.20617"><ele>368.0</ele><time>2026-05-01T10:22:47.268Z</time></trkpt><trkpt lat="42.213105" lon="14.2061417"><ele>368.0</ele><time>2026-05-01T10:22:48.267Z</time></trkpt><trkpt lat="42.21302" lon="14.2061117"><ele>368.6666666666667</ele><time>2026-05-01T10:22:49.267Z</time></trkpt><trkpt lat="42.212935" lon="14.2060883"><ele>369.33333333333337</ele><time>2026-05-01T10:22:50.267Z</time></trkpt><trkpt lat="42.2128583" lon="14.2060667"><ele>370.0</ele><time>2026-05-01T10:22:51.268Z</time></trkpt><trkpt lat="42.2127867" lon="14.2060433"><ele>370.6666666666667</ele><time>2026-05-01T10:22:52.267Z</time></trkpt><trkpt lat="42.2127217" lon="14.20603"><ele>371.3333333333333</ele><time>2026-05-01T10:22:53.267Z</time></trkpt><trkpt lat="42.2126317" lon="14.205985"><ele>372.0</ele><time>2026-05-01T10:22:55.267Z</time></trkpt><trkpt lat="42.2125717" lon="14.2059567"><ele>372.0</ele><time>2026-05-01T10:22:58.268Z</time></trkpt><trkpt lat="42.212485" lon="14.205935"><ele>372.0</ele><time>2026-05-01T10:23:01.267Z</time></trkpt><trkpt lat="42.2123667" lon="14.205925"><ele>372.0</ele><time>2026-05-01T10:23:03.267Z</time></trkpt><trkpt lat="42.2122883" lon="14.20591"><ele>372.0</ele><time>2026-05-01T10:23:04.267Z</time></trkpt><trkpt lat="42.2122167" lon="14.2058967"><ele>372.0</ele><time>2026-05-01T10:23:05.267Z</time></trkpt><trkpt lat="42.2121467" lon="14.2058883"><ele>372.0</ele><time>2026-05-01T10:23:06.267Z</time></trkpt><trkpt lat="42.2120733" lon="14.2058883"><ele>372.6666666666667</ele><time>2026-05-01T10:23:07.268Z</time></trkpt><trkpt lat="42.212" lon="14.2058683"><ele>373.3333333333333</ele><time>2026-05-01T10:23:08.267Z</time></trkpt><trkpt lat="42.2119233" lon="14.2058483"><ele>374.0</ele><time>2026-05-01T10:23:09.267Z</time></trkpt><trkpt lat="42.2118317" lon="14.2058267"><ele>374.66666666666663</ele><time>2026-05-01T10:23:10.267Z</time></trkpt><trkpt lat="42.2117367" lon="14.2058067"><ele>375.3333333333333</ele><time>2026-05-01T10:23:11.268Z</time></trkpt><trkpt lat="42.2116333" lon="14.2057783"><ele>376.0</ele><time>2026-05-01T10:23:12.267Z</time></trkpt><trkpt lat="42.2115433" lon="14.2057533"><ele>376.66666666666663</ele><time>2026-05-01T10:23:13.267Z</time></trkpt><trkpt lat="42.2114617" lon="14.2057283"><ele>377.3333333333333</ele><time>2026-05-01T10:23:14.267Z</time></trkpt><trkpt lat="42.2113917" lon="14.205695"><ele>378.0</ele><time>2026-05-01T10:23:15.267Z</time></trkpt><trkpt lat="42.21131" lon="14.2056767"><ele>378.6666666666667</ele><time>2026-05-01T10:23:16.267Z</time></trkpt><trkpt lat="42.2112433" lon="14.2056567"><ele>379.33333333333337</ele><time>2026-05-01T10:23:17.267Z</time></trkpt><trkpt lat="42.2111617" lon="14.20562"><ele>380.0</ele><time>2026-05-01T10:23:18.267Z</time></trkpt><trkpt lat="42.211075" lon="14.2055883"><ele>381.1666666666667</ele><time>2026-05-01T10:23:19.267Z</time></trkpt><trkpt lat="42.2109883" lon="14.2055617"><ele>382.33333333333337</ele><time>2026-05-01T10:23:20.267Z</time></trkpt><trkpt lat="42.21091" lon="14.2055483"><ele>383.5</ele><time>2026-05-01T10:23:21.267Z</time></trkpt><trkpt lat="42.2107867" lon="14.2055183"><ele>384.6666666666667</ele><time>2026-05-01T10:23:23.267Z</time></trkpt><trkpt lat="42.2107167" lon="14.2055083"><ele>385.8333333333333</ele><time>2026-05-01T10:23:24.267Z</time></trkpt><trkpt lat="42.2106533" lon="14.20549"><ele>387.0</ele><time>2026-05-01T10:23:25.267Z</time></trkpt><trkpt lat="42.2105817" lon="14.205475"><ele>387.14285714285717</ele><time>2026-05-01T10:23:26.267Z</time></trkpt><trkpt lat="42.2105067" lon="14.2054583"><ele>387.28571428571433</ele><time>2026-05-01T10:23:27.267Z</time></trkpt><trkpt lat="42.2104383" lon="14.2054433"><ele>387.42857142857144</ele><time>2026-05-01T10:23:28.267Z</time></trkpt><trkpt lat="42.2103717" lon="14.2054167"><ele>387.57142857142856</ele><time>2026-05-01T10:23:29.267Z</time></trkpt><trkpt lat="42.2103067" lon="14.2054017"><ele>387.7142857142857</ele><time>2026-05-01T10:23:30.267Z</time></trkpt><trkpt lat="42.21024" lon="14.2053767"><ele>387.85714285714283</ele><time>2026-05-01T10:23:31.267Z</time></trkpt><trkpt lat="42.210175" lon="14.2053633"><ele>388.0</ele><time>2026-05-01T10:23:32.267Z</time></trkpt><trkpt lat="42.2100517" lon="14.205335"><ele>388.0</ele><time>2026-05-01T10:23:34.267Z</time></trkpt><trkpt lat="42.2099467" lon="14.20529"><ele>388.0</ele><time>2026-05-01T10:23:36.267Z</time></trkpt><trkpt lat="42.2098267" lon="14.2052533"><ele>388.0</ele><time>2026-05-01T10:23:38.267Z</time></trkpt><trkpt lat="42.209715" lon="14.20522"><ele>388.0</ele><time>2026-05-01T10:23:40.266Z</time></trkpt><trkpt lat="42.2096533" lon="14.2052017"><ele>388.0</ele><time>2026-05-01T10:23:41.266Z</time></trkpt><trkpt lat="42.2095867" lon="14.20518"><ele>388.50000000000006</ele><time>2026-05-01T10:23:42.266Z</time></trkpt><trkpt lat="42.20947" lon="14.2051417"><ele>389.0</ele><time>2026-05-01T10:23:44.266Z</time></trkpt><trkpt lat="42.2094083" lon="14.20512"><ele>389.5</ele><time>2026-05-01T10:23:45.266Z</time></trkpt><trkpt lat="42.209345" lon="14.2050967"><ele>390.0</ele><time>2026-05-01T10:23:46.267Z</time></trkpt><trkpt lat="42.2092783" lon="14.2050733"><ele>390.50000000000006</ele><time>2026-05-01T10:23:47.266Z</time></trkpt><trkpt lat="42.209215" lon="14.2050467"><ele>391.0</ele><time>2026-05-01T10:23:48.266Z</time></trkpt><trkpt lat="42.2091067" lon="14.205"><ele>391.0</ele><time>2026-05-01T10:23:50.266Z</time></trkpt><trkpt lat="42.2090183" lon="14.204955"><ele>391.0</ele><time>2026-05-01T10:23:52.266Z</time></trkpt><trkpt lat="42.2089367" lon="14.204915"><ele>391.0</ele><time>2026-05-01T10:23:54.266Z</time></trkpt><trkpt lat="42.2088417" lon="14.2048617"><ele>391.0</ele><time>2026-05-01T10:23:56.266Z</time></trkpt><trkpt lat="42.208735" lon="14.2048"><ele>391.0</ele><time>2026-05-01T10:23:58.266Z</time></trkpt><trkpt lat="42.2086217" lon="14.2047433"><ele>393.4</ele><time>2026-05-01T10:24:00.267Z</time></trkpt><trkpt lat="42.208515" lon="14.2046933"><ele>395.8</ele><time>2026-05-01T10:24:02.267Z</time></trkpt><trkpt lat="42.2084083" lon="14.2046533"><ele>398.2</ele><time>2026-05-01T10:24:04.266Z</time></trkpt><trkpt lat="42.2082967" lon="14.2046117"><ele>400.59999999999997</ele><time>2026-05-01T10:24:06.266Z</time></trkpt><trkpt lat="42.2082033" lon="14.204565"><ele>403.0</ele><time>2026-05-01T10:24:08.266Z</time></trkpt><trkpt lat="42.2081183" lon="14.2045083"><ele>403.0</ele><time>2026-05-01T10:24:10.266Z</time></trkpt><trkpt lat="42.208035" lon="14.2044417"><ele>403.0</ele><time>2026-05-01T10:24:12.266Z</time></trkpt><trkpt lat="42.2079383" lon="14.2043733"><ele>403.0</ele><time>2026-05-01T10:24:14.266Z</time></trkpt><trkpt lat="42.2078417" lon="14.20429"><ele>403.0</ele><time>2026-05-01T10:24:16.266Z</time></trkpt><trkpt lat="42.2077333" lon="14.2041967"><ele>403.0</ele><time>2026-05-01T10:24:18.266Z</time></trkpt><trkpt lat="42.2076567" lon="14.204135"><ele>403.00000000000006</ele><time>2026-05-01T10:24:19.266Z</time></trkpt><trkpt lat="42.2075767" lon="14.204075"><ele>403.0</ele><time>2026-05-01T10:24:20.266Z</time></trkpt><trkpt lat="42.2075" lon="14.20402"><ele>403.0</ele><time>2026-05-01T10:24:21.266Z</time></trkpt><trkpt lat="42.207435" lon="14.2039717"><ele>403.0</ele><time>2026-05-01T10:24:22.266Z</time></trkpt><trkpt lat="42.2073667" lon="14.2039233"><ele>403.00000000000006</ele><time>2026-05-01T10:24:23.267Z</time></trkpt><trkpt lat="42.2073017" lon="14.203875"><ele>403.0</ele><time>2026-05-01T10:24:24.266Z</time></trkpt><trkpt lat="42.2072467" lon="14.2038217"><ele>404.1666666666667</ele><time>2026-05-01T10:24:25.266Z</time></trkpt><trkpt lat="42.2071817" lon="14.2037717"><ele>405.33333333333337</ele><time>2026-05-01T10:24:26.266Z</time></trkpt><trkpt lat="42.207115" lon="14.2037267"><ele>406.5</ele><time>2026-05-01T10:24:27.266Z</time></trkpt><trkpt lat="42.2070517" lon="14.2036767"><ele>407.66666666666663</ele><time>2026-05-01T10:24:28.266Z</time></trkpt><trkpt lat="42.206985" lon="14.2036283"><ele>408.8333333333333</ele><time>2026-05-01T10:24:29.266Z</time></trkpt><trkpt lat="42.2069183" lon="14.20358"><ele>410.0</ele><time>2026-05-01T10:24:30.266Z</time></trkpt><trkpt lat="42.20685" lon="14.2035283"><ele>409.99999999999994</ele><time>2026-05-01T10:24:31.266Z</time></trkpt><trkpt lat="42.2067767" lon="14.2034783"><ele>410.0</ele><time>2026-05-01T10:24:32.266Z</time></trkpt><trkpt lat="42.2067083" lon="14.2034317"><ele>410.0</ele><time>2026-05-01T10:24:33.266Z</time></trkpt><trkpt lat="42.2066433" lon="14.2033833"><ele>410.0</ele><time>2026-05-01T10:24:34.266Z</time></trkpt><trkpt lat="42.2065817" lon="14.2033333"><ele>409.99999999999994</ele><time>2026-05-01T10:24:35.266Z</time></trkpt><trkpt lat="42.2065133" lon="14.2032867"><ele>410.0</ele><time>2026-05-01T10:24:36.266Z</time></trkpt><trkpt lat="42.2064417" lon="14.20324"><ele>409.66666666666663</ele><time>2026-05-01T10:24:37.266Z</time></trkpt><trkpt lat="42.2063633" lon="14.203185"><ele>409.3333333333333</ele><time>2026-05-01T10:24:38.266Z</time></trkpt><trkpt lat="42.206295" lon="14.203135"><ele>409.0</ele><time>2026-05-01T10:24:39.267Z</time></trkpt><trkpt lat="42.2062183" lon="14.203085"><ele>408.66666666666663</ele><time>2026-05-01T10:24:40.266Z</time></trkpt><trkpt lat="42.20615" lon="14.2030317"><ele>408.3333333333333</ele><time>2026-05-01T10:24:41.266Z</time></trkpt><trkpt lat="42.2060833" lon="14.202975"><ele>408.0</ele><time>2026-05-01T10:24:42.266Z</time></trkpt><trkpt lat="42.2059867" lon="14.2029217"><ele>409.79999999999995</ele><time>2026-05-01T10:24:44.266Z</time></trkpt><trkpt lat="42.20588" lon="14.2028833"><ele>411.6</ele><time>2026-05-01T10:24:46.266Z</time></trkpt><trkpt lat="42.205805" lon="14.20284"><ele>413.4</ele><time>2026-05-01T10:24:47.266Z</time></trkpt><trkpt lat="42.205715" lon="14.2027867"><ele>415.20000000000005</ele><time>2026-05-01T10:24:48.266Z</time></trkpt><trkpt lat="42.20562" lon="14.2027283"><ele>417.0</ele><time>2026-05-01T10:24:49.266Z</time></trkpt><trkpt lat="42.2055367" lon="14.2026667"><ele>417.0</ele><time>2026-05-01T10:24:50.266Z</time></trkpt><trkpt lat="42.2054517" lon="14.2026117"><ele>417.0</ele><time>2026-05-01T10:24:51.266Z</time></trkpt><trkpt lat="42.2053683" lon="14.2025567"><ele>417.0</ele><time>2026-05-01T10:24:52.266Z</time></trkpt><trkpt lat="42.20529" lon="14.2025033"><ele>417.0</ele><time>2026-05-01T10:24:53.266Z</time></trkpt><trkpt lat="42.205215" lon="14.20246"><ele>417.0</ele><time>2026-05-01T10:24:54.267Z</time></trkpt><trkpt lat="42.2051383" lon="14.2024167"><ele>417.0</ele><time>2026-05-01T10:24:55.266Z</time></trkpt><trkpt lat="42.2050683" lon="14.202375"><ele>417.0</ele><time>2026-05-01T10:24:56.266Z</time></trkpt><trkpt lat="42.205" lon="14.2023333"><ele>417.0</ele><time>2026-05-01T10:24:57.266Z</time></trkpt><trkpt lat="42.2049283" lon="14.2022917"><ele>417.0</ele><time>2026-05-01T10:24:58.266Z</time></trkpt><trkpt lat="42.2048583" lon="14.2022517"><ele>417.0</ele><time>2026-05-01T10:24:59.266Z</time></trkpt><trkpt lat="42.20479" lon="14.20221"><ele>417.0</ele><time>2026-05-01T10:25:00.266Z</time></trkpt><trkpt lat="42.2047267" lon="14.202175"><ele>417.0</ele><time>2026-05-01T10:25:01.267Z</time></trkpt><trkpt lat="42.204665" lon="14.2021467"><ele>417.0</ele><time>2026-05-01T10:25:02.266Z</time></trkpt><trkpt lat="42.204605" lon="14.202115"><ele>418.7142857142857</ele><time>2026-05-01T10:25:03.266Z</time></trkpt><trkpt lat="42.204545" lon="14.202085"><ele>420.4285714285714</ele><time>2026-05-01T10:25:04.266Z</time></trkpt><trkpt lat="42.2044883" lon="14.20204"><ele>422.1428571428571</ele><time>2026-05-01T10:25:05.266Z</time></trkpt><trkpt lat="42.2044283" lon="14.202"><ele>423.8571428571429</ele><time>2026-05-01T10:25:06.266Z</time></trkpt><trkpt lat="42.2043633" lon="14.2019633"><ele>425.57142857142856</ele><time>2026-05-01T10:25:07.266Z</time></trkpt><trkpt lat="42.2042917" lon="14.2019233"><ele>427.2857142857143</ele><time>2026-05-01T10:25:08.266Z</time></trkpt><trkpt lat="42.20422" lon="14.20188"><ele>429.0</ele><time>2026-05-01T10:25:09.266Z</time></trkpt><trkpt lat="42.2041483" lon="14.20184"><ele>429.0</ele><time>2026-05-01T10:25:10.266Z</time></trkpt><trkpt lat="42.2040733" lon="14.2017967"><ele>429.0</ele><time>2026-05-01T10:25:11.266Z</time></trkpt><trkpt lat="42.2039983" lon="14.20176"><ele>429.0</ele><time>2026-05-01T10:25:12.266Z</time></trkpt><trkpt lat="42.203925" lon="14.2017217"><ele>429.0</ele><time>2026-05-01T10:25:13.266Z</time></trkpt><trkpt lat="42.2038517" lon="14.2016883"><ele>429.0</ele><time>2026-05-01T10:25:14.267Z</time></trkpt><trkpt lat="42.2037783" lon="14.2016517"><ele>429.0</ele><time>2026-05-01T10:25:15.266Z</time></trkpt><trkpt lat="42.2036967" lon="14.2016183"><ele>428.0</ele><time>2026-05-01T10:25:16.266Z</time></trkpt><trkpt lat="42.2036133" lon="14.2015833"><ele>427.0</ele><time>2026-05-01T10:25:17.266Z</time></trkpt><trkpt lat="42.2035283" lon="14.2015533"><ele>426.0</ele><time>2026-05-01T10:25:18.266Z</time></trkpt><trkpt lat="42.2034483" lon="14.201535"><ele>425.0</ele><time>2026-05-01T10:25:19.266Z</time></trkpt><trkpt lat="42.2033733" lon="14.2015283"><ele>424.0</ele><time>2026-05-01T10:25:20.266Z</time></trkpt><trkpt lat="42.2032967" lon="14.2015183"><ele>423.0</ele><time>2026-05-01T10:25:21.266Z</time></trkpt><trkpt lat="42.2032183" lon="14.2015017"><ele>423.59999999999997</ele><time>2026-05-01T10:25:22.266Z</time></trkpt><trkpt lat="42.2031467" lon="14.2014783"><ele>424.2</ele><time>2026-05-01T10:25:23.266Z</time></trkpt><trkpt lat="42.2030833" lon="14.2014517"><ele>424.8</ele><time>2026-05-01T10:25:24.266Z</time></trkpt><trkpt lat="42.202975" lon="14.2013983"><ele>425.4</ele><time>2026-05-01T10:25:26.266Z</time></trkpt><trkpt lat="42.20289" lon="14.2013333"><ele>426.0</ele><time>2026-05-01T10:25:28.266Z</time></trkpt><trkpt lat="42.2027767" lon="14.2012617"><ele>426.0</ele><time>2026-05-01T10:25:30.266Z</time></trkpt><trkpt lat="42.2026917" lon="14.20124"><ele>426.0</ele><time>2026-05-01T10:25:31.266Z</time></trkpt><trkpt lat="42.2026117" lon="14.2012233"><ele>426.0</ele><time>2026-05-01T10:25:32.266Z</time></trkpt><trkpt lat="42.2025417" lon="14.20121"><ele>426.0</ele><time>2026-05-01T10:25:33.266Z</time></trkpt><trkpt lat="42.20244" lon="14.2011933"><ele>426.0</ele><time>2026-05-01T10:25:35.266Z</time></trkpt><trkpt lat="42.20236" lon="14.20116"><ele>426.0</ele><time>2026-05-01T10:26:00.266Z</time></trkpt><trkpt lat="42.2022917" lon="14.2011583"><ele>426.8333333333333</ele><time>2026-05-01T10:26:02.266Z</time></trkpt><trkpt lat="42.202225" lon="14.2011867"><ele>427.66666666666663</ele><time>2026-05-01T10:26:20.266Z</time></trkpt><trkpt lat="42.20216" lon="14.2011217"><ele>428.5</ele><time>2026-05-01T10:29:35.266Z</time></trkpt><trkpt lat="42.20211" lon="14.2010683"><ele>429.3333333333333</ele><time>2026-05-01T10:29:38.266Z</time></trkpt><trkpt lat="42.2020509" lon="14.2011688"><ele>430.16666666666663</ele><time>2026-05-01T10:29:44.355Z</time></trkpt><trkpt lat="42.2019714" lon="14.201145"><ele>431.0</ele><time>2026-05-01T10:29:47.438Z</time></trkpt><trkpt lat="42.2019046" lon="14.2011228"><ele>430.99999999999994</ele><time>2026-05-01T10:29:51.372Z</time></trkpt><trkpt lat="42.2019545" lon="14.2010433"><ele>431.0</ele><time>2026-05-01T10:30:22.316Z</time></trkpt><trkpt lat="42.2018901" lon="14.2010125"><ele>431.0</ele><time>2026-05-01T10:37:17.353Z</time></trkpt><trkpt lat="42.2018266" lon="14.2010476"><ele>431.0</ele><time>2026-05-01T10:37:20.331Z</time></trkpt><trkpt lat="42.2017577" lon="14.2010619"><ele>430.99999999999994</ele><time>2026-05-01T10:37:23.414Z</time></trkpt><trkpt lat="42.2016693" lon="14.201025"><ele>431.0</ele><time>2026-05-01T10:37:26.285Z</time></trkpt><trkpt lat="42.2016667" lon="14.2009043"><ele>430.99999999999994</ele><time>2026-05-01T10:37:27.317Z</time></trkpt><trkpt lat="42.2015878" lon="14.2008507"><ele>431.0</ele><time>2026-05-01T10:37:29.369Z</time></trkpt><trkpt lat="42.2015016" lon="14.2008571"><ele>431.0</ele><time>2026-05-01T10:37:31.391Z</time></trkpt><trkpt lat="42.2014369" lon="14.2008525"><ele>431.0</ele><time>2026-05-01T10:37:33.336Z</time></trkpt><trkpt lat="42.2013699" lon="14.2008499"><ele>430.99999999999994</ele><time>2026-05-01T10:37:36.387Z</time></trkpt><trkpt lat="42.201444" lon="14.2008569"><ele>431.0</ele><time>2026-05-01T10:37:52.265Z</time></trkpt><trkpt lat="42.2013583" lon="14.2008317"><ele>432.6</ele><time>2026-05-01T10:40:15.265Z</time></trkpt><trkpt lat="42.2012667" lon="14.2008083"><ele>434.20000000000005</ele><time>2026-05-01T10:40:17.265Z</time></trkpt><trkpt lat="42.201185" lon="14.2007567"><ele>435.79999999999995</ele><time>2026-05-01T10:40:19.265Z</time></trkpt><trkpt lat="42.2010967" lon="14.200695"><ele>437.4</ele><time>2026-05-01T10:40:22.265Z</time></trkpt><trkpt lat="42.20098" lon="14.2006617"><ele>439.0</ele><time>2026-05-01T10:40:24.265Z</time></trkpt><trkpt lat="42.2008967" lon="14.2006267"><ele>440.0</ele><time>2026-05-01T10:40:26.265Z</time></trkpt><trkpt lat="42.2008133" lon="14.2005783"><ele>441.0</ele><time>2026-05-01T10:40:28.265Z</time></trkpt><trkpt lat="42.200715" lon="14.2005117"><ele>442.0</ele><time>2026-05-01T10:40:30.265Z</time></trkpt><trkpt lat="42.20062" lon="14.2004667"><ele>443.0</ele><time>2026-05-01T10:40:32.265Z</time></trkpt><trkpt lat="42.2005267" lon="14.2004433"><ele>444.0</ele><time>2026-05-01T10:40:34.265Z</time></trkpt><trkpt lat="42.2004133" lon="14.20044"><ele>445.6</ele><time>2026-05-01T10:40:36.266Z</time></trkpt><trkpt lat="42.2003067" lon="14.20044"><ele>447.2</ele><time>2026-05-01T10:40:38.265Z</time></trkpt><trkpt lat="42.200205" lon="14.20041"><ele>448.80000000000007</ele><time>2026-05-01T10:40:40.265Z</time></trkpt><trkpt lat="42.2000983" lon="14.20037"><ele>450.40000000000003</ele><time>2026-05-01T10:40:42.265Z</time></trkpt><trkpt lat="42.2000067" lon="14.200295"><ele>452.0</ele><time>2026-05-01T10:40:44.265Z</time></trkpt><trkpt lat="42.1999167" lon="14.2002083"><ele>453.6</ele><time>2026-05-01T10:40:46.265Z</time></trkpt><trkpt lat="42.19981" lon="14.2001467"><ele>455.20000000000005</ele><time>2026-05-01T10:40:48.265Z</time></trkpt><trkpt lat="42.1997467" lon="14.2001317"><ele>456.8</ele><time>2026-05-01T10:40:49.265Z</time></trkpt><trkpt lat="42.1996383" lon="14.200075"><ele>458.4</ele><time>2026-05-01T10:40:51.265Z</time></trkpt><trkpt lat="42.199535" lon="14.2000033"><ele>460.0</ele><time>2026-05-01T10:40:53.265Z</time></trkpt><trkpt lat="42.1993917" lon="14.1999667"><ele>460.0</ele><time>2026-05-01T10:40:55.265Z</time></trkpt><trkpt lat="42.1993" lon="14.1999533"><ele>460.0</ele><time>2026-05-01T10:40:56.265Z</time></trkpt><trkpt lat="42.1991983" lon="14.19995"><ele>460.0</ele><time>2026-05-01T10:40:57.265Z</time></trkpt><trkpt lat="42.19909" lon="14.199935"><ele>460.0</ele><time>2026-05-01T10:40:58.266Z</time></trkpt><trkpt lat="42.1989783" lon="14.19993"><ele>460.0</ele><time>2026-05-01T10:40:59.265Z</time></trkpt><trkpt lat="42.19887" lon="14.19994"><ele>461.6</ele><time>2026-05-01T10:41:00.265Z</time></trkpt><trkpt lat="42.1987617" lon="14.1999417"><ele>463.2</ele><time>2026-05-01T10:41:01.265Z</time></trkpt><trkpt lat="42.1986617" lon="14.1999517"><ele>464.79999999999995</ele><time>2026-05-01T10:41:02.265Z</time></trkpt><trkpt lat="42.198555" lon="14.1999617"><ele>466.4</ele><time>2026-05-01T10:41:03.265Z</time></trkpt><trkpt lat="42.1984617" lon="14.1999617"><ele>468.0</ele><time>2026-05-01T10:41:04.265Z</time></trkpt><trkpt lat="42.1983833" lon="14.1999883"><ele>468.0</ele><time>2026-05-01T10:41:05.265Z</time></trkpt><trkpt lat="42.1982983" lon="14.200015"><ele>468.0</ele><time>2026-05-01T10:41:06.265Z</time></trkpt><trkpt lat="42.1982217" lon="14.200045"><ele>468.0</ele><time>2026-05-01T10:41:07.265Z</time></trkpt><trkpt lat="42.1981367" lon="14.2000567"><ele>468.0</ele><time>2026-05-01T10:41:08.265Z</time></trkpt><trkpt lat="42.19806" lon="14.2000567"><ele>468.0</ele><time>2026-05-01T10:41:09.265Z</time></trkpt><trkpt lat="42.1979633" lon="14.2000583"><ele>468.0</ele><time>2026-05-01T10:41:10.265Z</time></trkpt><trkpt lat="42.197855" lon="14.20003"><ele>469.0</ele><time>2026-05-01T10:41:11.265Z</time></trkpt><trkpt lat="42.1977483" lon="14.2000033"><ele>469.99999999999994</ele><time>2026-05-01T10:41:12.265Z</time></trkpt><trkpt lat="42.1976683" lon="14.1999983"><ele>470.99999999999994</ele><time>2026-05-01T10:41:13.265Z</time></trkpt><trkpt lat="42.1975667" lon="14.2000117"><ele>472.0</ele><time>2026-05-01T10:41:15.265Z</time></trkpt><trkpt lat="42.1974867" lon="14.2000383"><ele>473.0</ele><time>2026-05-01T10:41:25.265Z</time></trkpt><trkpt lat="42.1973867" lon="14.2000633"><ele>472.99999999999994</ele><time>2026-05-01T10:41:27.265Z</time></trkpt><trkpt lat="42.19732" lon="14.2000717"><ele>473.0</ele><time>2026-05-01T10:41:28.266Z</time></trkpt><trkpt lat="42.1972317" lon="14.2000933"><ele>473.0</ele><time>2026-05-01T10:41:30.265Z</time></trkpt><trkpt lat="42.197165" lon="14.2001117"><ele>473.0</ele><time>2026-05-01T10:41:33.265Z</time></trkpt><trkpt lat="42.19723" lon="14.2000983"><ele>472.99999999999994</ele><time>2026-05-01T10:41:41.265Z</time></trkpt><trkpt lat="42.197345" lon="14.20009"><ele>473.0</ele><time>2026-05-01T10:41:44.265Z</time></trkpt><trkpt lat="42.19744" lon="14.2000533"><ele>473.0</ele><time>2026-05-01T10:41:46.265Z</time></trkpt><trkpt lat="42.19746" lon="14.1999583"><ele>472.99999999999994</ele><time>2026-05-01T10:41:49.266Z</time></trkpt><trkpt lat="42.19743" lon="14.1998417"><ele>472.99999999999994</ele><time>2026-05-01T10:41:51.265Z</time></trkpt><trkpt lat="42.1974117" lon="14.1997083"><ele>473.0</ele><time>2026-05-01T10:41:53.265Z</time></trkpt><trkpt lat="42.197435" lon="14.1995583"><ele>473.0</ele><time>2026-05-01T10:41:55.265Z</time></trkpt><trkpt lat="42.1974567" lon="14.199405"><ele>473.99999999999994</ele><time>2026-05-01T10:41:57.266Z</time></trkpt><trkpt lat="42.1974867" lon="14.1992917"><ele>475.0</ele><time>2026-05-01T10:41:59.266Z</time></trkpt><trkpt lat="42.1974983" lon="14.199185"><ele>476.0</ele><time>2026-05-01T10:42:01.265Z</time></trkpt><trkpt lat="42.1974783" lon="14.1990633"><ele>477.0</ele><time>2026-05-01T10:42:04.265Z</time></trkpt><trkpt lat="42.1974217" lon="14.1989417"><ele>477.99999999999994</ele><time>2026-05-01T10:42:06.265Z</time></trkpt><trkpt lat="42.1973767" lon="14.19888"><ele>479.0</ele><time>2026-05-01T10:42:07.265Z</time></trkpt><trkpt lat="42.1973267" lon="14.1988033"><ele>479.3333333333333</ele><time>2026-05-01T10:42:08.265Z</time></trkpt><trkpt lat="42.197245" lon="14.1987017"><ele>479.66666666666663</ele><time>2026-05-01T10:42:10.265Z</time></trkpt><trkpt lat="42.197185" lon="14.1986"><ele>480.0</ele><time>2026-05-01T10:42:12.265Z</time></trkpt><trkpt lat="42.1971933" lon="14.198515"><ele>480.33333333333337</ele><time>2026-05-01T10:42:14.265Z</time></trkpt><trkpt lat="42.1972433" lon="14.1984617"><ele>480.6666666666667</ele><time>2026-05-01T10:42:17.265Z</time></trkpt><trkpt lat="42.197335" lon="14.1984417"><ele>481.0</ele><time>2026-05-01T10:42:20.265Z</time></trkpt><trkpt lat="42.1973917" lon="14.19837"><ele>481.0</ele><time>2026-05-01T10:42:22.265Z</time></trkpt><trkpt lat="42.1974567" lon="14.19828"><ele>481.0</ele><time>2026-05-01T10:42:24.265Z</time></trkpt><trkpt lat="42.1975433" lon="14.1981583"><ele>481.0</ele><time>2026-05-01T10:42:26.265Z</time></trkpt><trkpt lat="42.1975933" lon="14.1980733"><ele>481.0</ele><time>2026-05-01T10:42:28.265Z</time></trkpt><trkpt lat="42.19764" lon="14.1979617"><ele>481.0</ele><time>2026-05-01T10:42:31.265Z</time></trkpt><trkpt lat="42.197695" lon="14.197875"><ele>481.33333333333337</ele><time>2026-05-01T10:42:33.265Z</time></trkpt><trkpt lat="42.1977317" lon="14.1977883"><ele>481.6666666666667</ele><time>2026-05-01T10:42:36.265Z</time></trkpt><trkpt lat="42.1977" lon="14.1977017"><ele>482.0</ele><time>2026-05-01T10:42:40.265Z</time></trkpt><trkpt lat="42.197645" lon="14.1976433"><ele>482.33333333333337</ele><time>2026-05-01T10:42:42.265Z</time></trkpt><trkpt lat="42.1975883" lon="14.1975483"><ele>482.6666666666667</ele><time>2026-05-01T10:42:44.265Z</time></trkpt><trkpt lat="42.1974883" lon="14.1974333"><ele>483.0</ele><time>2026-05-01T10:42:46.265Z</time></trkpt><trkpt lat="42.19742" lon="14.1973767"><ele>483.1666666666667</ele><time>2026-05-01T10:42:47.265Z</time></trkpt><trkpt lat="42.19736" lon="14.1973317"><ele>483.33333333333337</ele><time>2026-05-01T10:42:48.265Z</time></trkpt><trkpt lat="42.1972667" lon="14.1972167"><ele>483.5</ele><time>2026-05-01T10:42:50.265Z</time></trkpt><trkpt lat="42.1972133" lon="14.1971617"><ele>483.6666666666667</ele><time>2026-05-01T10:42:51.265Z</time></trkpt><trkpt lat="42.197155" lon="14.197115"><ele>483.83333333333337</ele><time>2026-05-01T10:42:52.265Z</time></trkpt><trkpt lat="42.1970933" lon="14.1970683"><ele>484.0</ele><time>2026-05-01T10:42:53.265Z</time></trkpt><trkpt lat="42.19702" lon="14.1969617"><ele>485.50000000000006</ele><time>2026-05-01T10:42:55.265Z</time></trkpt><trkpt lat="42.197" lon="14.1968133"><ele>487.0</ele><time>2026-05-01T10:42:57.265Z</time></trkpt><trkpt lat="42.1969867" lon="14.1967283"><ele>488.5</ele><time>2026-05-01T10:42:58.265Z</time></trkpt><trkpt lat="42.1969283" lon="14.196595"><ele>490.0</ele><time>2026-05-01T10:43:00.266Z</time></trkpt><trkpt lat="42.1968817" lon="14.1965283"><ele>491.50000000000006</ele><time>2026-05-01T10:43:01.265Z</time></trkpt><trkpt lat="42.196835" lon="14.1964583"><ele>493.0</ele><time>2026-05-01T10:43:02.265Z</time></trkpt><trkpt lat="42.19679" lon="14.1963833"><ele>493.4</ele><time>2026-05-01T10:43:03.265Z</time></trkpt><trkpt lat="42.1967567" lon="14.1963033"><ele>493.79999999999995</ele><time>2026-05-01T10:43:04.265Z</time></trkpt><trkpt lat="42.1967283" lon="14.1961517"><ele>494.2</ele><time>2026-05-01T10:43:06.265Z</time></trkpt><trkpt lat="42.19668" lon="14.1960467"><ele>494.6</ele><time>2026-05-01T10:43:08.265Z</time></trkpt><trkpt lat="42.1965783" lon="14.1959417"><ele>495.0</ele><time>2026-05-01T10:43:10.265Z</time></trkpt><trkpt lat="42.1965167" lon="14.1958783"><ele>496.0</ele><time>2026-05-01T10:43:11.265Z</time></trkpt><trkpt lat="42.19646" lon="14.1958067"><ele>497.0</ele><time>2026-05-01T10:43:12.265Z</time></trkpt><trkpt lat="42.19641" lon="14.195735"><ele>498.0</ele><time>2026-05-01T10:43:13.265Z</time></trkpt><trkpt lat="42.19636" lon="14.1956667"><ele>499.0</ele><time>2026-05-01T10:43:14.265Z</time></trkpt><trkpt lat="42.1963133" lon="14.1956017"><ele>500.0</ele><time>2026-05-01T10:43:15.265Z</time></trkpt><trkpt lat="42.1962683" lon="14.1955383"><ele>501.0</ele><time>2026-05-01T10:43:16.266Z</time></trkpt><trkpt lat="42.1961933" lon="14.1954417"><ele>501.0</ele><time>2026-05-01T10:43:18.265Z</time></trkpt><trkpt lat="42.1960933" lon="14.19535"><ele>501.0</ele><time>2026-05-01T10:43:20.265Z</time></trkpt><trkpt lat="42.19599" lon="14.195265"><ele>501.0</ele><time>2026-05-01T10:43:22.265Z</time></trkpt><trkpt lat="42.1958883" lon="14.1951683"><ele>501.0</ele><time>2026-05-01T10:43:24.265Z</time></trkpt><trkpt lat="42.1958067" lon="14.195085"><ele>501.0</ele><time>2026-05-01T10:43:26.265Z</time></trkpt><trkpt lat="42.19572" lon="14.195045"><ele>501.0</ele><time>2026-05-01T10:43:28.265Z</time></trkpt><trkpt lat="42.1956233" lon="14.194935"><ele>501.0</ele><time>2026-05-01T10:43:30.265Z</time></trkpt><trkpt lat="42.1955833" lon="14.1948633"><ele>501.0</ele><time>2026-05-01T10:43:31.265Z</time></trkpt><trkpt lat="42.19553" lon="14.1947933"><ele>501.0</ele><time>2026-05-01T10:43:32.265Z</time></trkpt><trkpt lat="42.1954433" lon="14.1946967"><ele>502.8333333333333</ele><time>2026-05-01T10:43:34.265Z</time></trkpt><trkpt lat="42.195365" lon="14.194595"><ele>504.66666666666663</ele><time>2026-05-01T10:43:36.265Z</time></trkpt><trkpt lat="42.19536" lon="14.1944633"><ele>506.5</ele><time>2026-05-01T10:43:38.265Z</time></trkpt><trkpt lat="42.195305" lon="14.19436"><ele>508.3333333333333</ele><time>2026-05-01T10:43:40.265Z</time></trkpt><trkpt lat="42.1952533" lon="14.1942933"><ele>510.16666666666663</ele><time>2026-05-01T10:43:41.265Z</time></trkpt><trkpt lat="42.1952" lon="14.1942433"><ele>512.0</ele><time>2026-05-01T10:43:42.265Z</time></trkpt><trkpt lat="42.1950933" lon="14.1942117"><ele>512.0</ele><time>2026-05-01T10:43:44.265Z</time></trkpt><trkpt lat="42.1949767" lon="14.1942133"><ele>512.0</ele><time>2026-05-01T10:43:46.265Z</time></trkpt><trkpt lat="42.1948767" lon="14.1941667"><ele>512.0</ele><time>2026-05-01T10:43:48.265Z</time></trkpt><trkpt lat="42.1947917" lon="14.1940567"><ele>512.0</ele><time>2026-05-01T10:43:50.265Z</time></trkpt><trkpt lat="42.194745" lon="14.1939333"><ele>512.0</ele><time>2026-05-01T10:43:52.265Z</time></trkpt><trkpt lat="42.1947817" lon="14.1937583"><ele>511.8333333333333</ele><time>2026-05-01T10:43:54.265Z</time></trkpt><trkpt lat="42.1948167" lon="14.1936733"><ele>511.66666666666663</ele><time>2026-05-01T10:43:55.266Z</time></trkpt><trkpt lat="42.194845" lon="14.1935933"><ele>511.5</ele><time>2026-05-01T10:43:56.266Z</time></trkpt><trkpt lat="42.1948867" lon="14.1934633"><ele>511.33333333333337</ele><time>2026-05-01T10:43:58.265Z</time></trkpt><trkpt lat="42.1948867" lon="14.19335"><ele>511.1666666666667</ele><time>2026-05-01T10:44:00.266Z</time></trkpt><trkpt lat="42.19485" lon="14.1931983"><ele>511.0</ele><time>2026-05-01T10:44:02.266Z</time></trkpt><trkpt lat="42.1948283" lon="14.1931117"><ele>513.5</ele><time>2026-05-01T10:44:03.265Z</time></trkpt><trkpt lat="42.194795" lon="14.193035"><ele>516.0</ele><time>2026-05-01T10:44:04.265Z</time></trkpt><trkpt lat="42.19477" lon="14.1929417"><ele>518.5</ele><time>2026-05-01T10:44:05.265Z</time></trkpt><trkpt lat="42.1947517" lon="14.19286"><ele>521.0</ele><time>2026-05-01T10:44:06.265Z</time></trkpt><trkpt lat="42.1947433" lon="14.192775"><ele>523.5</ele><time>2026-05-01T10:44:07.265Z</time></trkpt><trkpt lat="42.1947183" lon="14.192615"><ele>526.0</ele><time>2026-05-01T10:44:09.265Z</time></trkpt><trkpt lat="42.19464" lon="14.1924817"><ele>526.0</ele><time>2026-05-01T10:44:11.265Z</time></trkpt><trkpt lat="42.1945933" lon="14.1924233"><ele>526.0</ele><time>2026-05-01T10:44:12.265Z</time></trkpt><trkpt lat="42.19454" lon="14.1923567"><ele>526.0</ele><time>2026-05-01T10:44:13.265Z</time></trkpt><trkpt lat="42.1944667" lon="14.1922933"><ele>526.0</ele><time>2026-05-01T10:44:14.265Z</time></trkpt><trkpt lat="42.1944033" lon="14.19225"><ele>526.0</ele><time>2026-05-01T10:44:15.265Z</time></trkpt><trkpt lat="42.1943" lon="14.1922033"><ele>526.0</ele><time>2026-05-01T10:44:17.265Z</time></trkpt><trkpt lat="42.1942017" lon="14.1921833"><ele>526.6666666666667</ele><time>2026-05-01T10:44:19.265Z</time></trkpt><trkpt lat="42.1941217" lon="14.192145"><ele>527.3333333333334</ele><time>2026-05-01T10:44:21.265Z</time></trkpt><trkpt lat="42.1940783" lon="14.192065"><ele>528.0</ele><time>2026-05-01T10:44:23.265Z</time></trkpt><trkpt lat="42.194015" lon="14.192015"><ele>528.6666666666666</ele><time>2026-05-01T10:44:25.265Z</time></trkpt><trkpt lat="42.1939233" lon="14.1919983"><ele>529.3333333333333</ele><time>2026-05-01T10:44:27.265Z</time></trkpt><trkpt lat="42.1938517" lon="14.1919967"><ele>530.0</ele><time>2026-05-01T10:44:28.265Z</time></trkpt><trkpt lat="42.193755" lon="14.19203"><ele>530.0</ele><time>2026-05-01T10:44:30.265Z</time></trkpt><trkpt lat="42.1936867" lon="14.1919983"><ele>530.0</ele><time>2026-05-01T10:44:32.265Z</time></trkpt><trkpt lat="42.1936417" lon="14.1918933"><ele>530.0</ele><time>2026-05-01T10:44:34.266Z</time></trkpt><trkpt lat="42.1935567" lon="14.1917383"><ele>530.0</ele><time>2026-05-01T10:44:36.265Z</time></trkpt><trkpt lat="42.1934983" lon="14.1916367"><ele>530.0</ele><time>2026-05-01T10:44:37.265Z</time></trkpt><trkpt lat="42.19345" lon="14.1915367"><ele>529.3333333333333</ele><time>2026-05-01T10:44:38.265Z</time></trkpt><trkpt lat="42.1934" lon="14.1914567"><ele>528.6666666666666</ele><time>2026-05-01T10:44:39.265Z</time></trkpt><trkpt lat="42.1933217" lon="14.1913467"><ele>528.0</ele><time>2026-05-01T10:44:41.265Z</time></trkpt><trkpt lat="42.1932617" lon="14.191295"><ele>527.3333333333334</ele><time>2026-05-01T10:44:42.265Z</time></trkpt><trkpt lat="42.1931967" lon="14.1912567"><ele>526.6666666666667</ele><time>2026-05-01T10:44:43.265Z</time></trkpt><trkpt lat="42.1931217" lon="14.19122"><ele>526.0</ele><time>2026-05-01T10:44:44.266Z</time></trkpt><trkpt lat="42.19304" lon="14.19118"><ele>527.6666666666667</ele><time>2026-05-01T10:44:45.265Z</time></trkpt><trkpt lat="42.1929567" lon="14.1911583"><ele>529.3333333333334</ele><time>2026-05-01T10:44:46.265Z</time></trkpt><trkpt lat="42.19288" lon="14.191125"><ele>531.0</ele><time>2026-05-01T10:44:47.265Z</time></trkpt><trkpt lat="42.1927933" lon="14.1910917"><ele>532.6666666666666</ele><time>2026-05-01T10:44:48.266Z</time></trkpt><trkpt lat="42.1927083" lon="14.1910617"><ele>534.3333333333333</ele><time>2026-05-01T10:44:49.265Z</time></trkpt><trkpt lat="42.1926317" lon="14.191025"><ele>536.0</ele><time>2026-05-01T10:44:50.265Z</time></trkpt><trkpt lat="42.1925533" lon="14.1909917"><ele>536.0</ele><time>2026-05-01T10:44:51.265Z</time></trkpt><trkpt lat="42.1924733" lon="14.1909617"><ele>536.0</ele><time>2026-05-01T10:44:52.265Z</time></trkpt><trkpt lat="42.1924067" lon="14.1909283"><ele>536.0</ele><time>2026-05-01T10:44:53.265Z</time></trkpt><trkpt lat="42.1923417" lon="14.1908967"><ele>536.0</ele><time>2026-05-01T10:44:54.265Z</time></trkpt><trkpt lat="42.1922767" lon="14.1908817"><ele>536.0</ele><time>2026-05-01T10:44:55.265Z</time></trkpt><trkpt lat="42.19221" lon="14.190865"><ele>536.0</ele><time>2026-05-01T10:44:56.265Z</time></trkpt><trkpt lat="42.1921333" lon="14.19085"><ele>536.0</ele><time>2026-05-01T10:44:57.265Z</time></trkpt><trkpt lat="42.19206" lon="14.1908283"><ele>537.1666666666666</ele><time>2026-05-01T10:44:58.265Z</time></trkpt><trkpt lat="42.1919833" lon="14.1908217"><ele>538.3333333333333</ele><time>2026-05-01T10:44:59.266Z</time></trkpt><trkpt lat="42.1919117" lon="14.19083"><ele>539.5</ele><time>2026-05-01T10:45:00.265Z</time></trkpt><trkpt lat="42.1917967" lon="14.1907917"><ele>540.6666666666666</ele><time>2026-05-01T10:45:02.265Z</time></trkpt><trkpt lat="42.1917283" lon="14.1907533"><ele>541.8333333333334</ele><time>2026-05-01T10:45:03.265Z</time></trkpt><trkpt lat="42.1916517" lon="14.1907"><ele>543.0</ele><time>2026-05-01T10:45:04.265Z</time></trkpt><trkpt lat="42.1915833" lon="14.190635"><ele>543.0</ele><time>2026-05-01T10:45:05.265Z</time></trkpt><trkpt lat="42.1915117" lon="14.19056"><ele>543.0</ele><time>2026-05-01T10:45:06.265Z</time></trkpt><trkpt lat="42.1914533" lon="14.1904767"><ele>543.0</ele><time>2026-05-01T10:45:07.265Z</time></trkpt><trkpt lat="42.191395" lon="14.1904033"><ele>543.0</ele><time>2026-05-01T10:45:08.265Z</time></trkpt><trkpt lat="42.1913417" lon="14.19034"><ele>543.0</ele><time>2026-05-01T10:45:09.266Z</time></trkpt><trkpt lat="42.1912933" lon="14.19027"><ele>543.0</ele><time>2026-05-01T10:45:10.265Z</time></trkpt><trkpt lat="42.191215" lon="14.1901483"><ele>544.6</ele><time>2026-05-01T10:45:12.265Z</time></trkpt><trkpt lat="42.1911383" lon="14.19005"><ele>546.1999999999999</ele><time>2026-05-01T10:45:14.265Z</time></trkpt><trkpt lat="42.1910467" lon="14.18994"><ele>547.8</ele><time>2026-05-01T10:45:16.265Z</time></trkpt><trkpt lat="42.1909983" lon="14.18986"><ele>549.4</ele><time>2026-05-01T10:45:17.266Z</time></trkpt><trkpt lat="42.1909317" lon="14.1897933"><ele>551.0</ele><time>2026-05-01T10:45:18.265Z</time></trkpt><trkpt lat="42.1908533" lon="14.1897117"><ele>551.0</ele><time>2026-05-01T10:45:19.265Z</time></trkpt><trkpt lat="42.190785" lon="14.1896167"><ele>551.0</ele><time>2026-05-01T10:45:20.266Z</time></trkpt><trkpt lat="42.1907333" lon="14.1895283"><ele>551.0</ele><time>2026-05-01T10:45:21.265Z</time></trkpt><trkpt lat="42.19068" lon="14.1894667"><ele>551.0</ele><time>2026-05-01T10:45:22.266Z</time></trkpt><trkpt lat="42.1906167" lon="14.1894317"><ele>551.0</ele><time>2026-05-01T10:45:23.265Z</time></trkpt><trkpt lat="42.1905483" lon="14.18941"><ele>551.0</ele><time>2026-05-01T10:45:24.265Z</time></trkpt><trkpt lat="42.19048" lon="14.1893733"><ele>552.6666666666666</ele><time>2026-05-01T10:45:25.265Z</time></trkpt><trkpt lat="42.1904083" lon="14.1893317"><ele>554.3333333333333</ele><time>2026-05-01T10:45:26.265Z</time></trkpt><trkpt lat="42.1903683" lon="14.1892617"><ele>556.0</ele><time>2026-05-01T10:45:27.266Z</time></trkpt><trkpt lat="42.1903367" lon="14.18918"><ele>557.6666666666666</ele><time>2026-05-01T10:45:28.265Z</time></trkpt><trkpt lat="42.19031" lon="14.1890917"><ele>559.3333333333334</ele><time>2026-05-01T10:45:29.265Z</time></trkpt><trkpt lat="42.190285" lon="14.1889917"><ele>561.0</ele><time>2026-05-01T10:45:30.265Z</time></trkpt><trkpt lat="42.19024" lon="14.1888817"><ele>561.3333333333334</ele><time>2026-05-01T10:45:31.265Z</time></trkpt><trkpt lat="42.1901867" lon="14.1887883"><ele>561.6666666666666</ele><time>2026-05-01T10:45:32.265Z</time></trkpt><trkpt lat="42.19014" lon="14.1886917"><ele>562.0</ele><time>2026-05-01T10:45:33.265Z</time></trkpt><trkpt lat="42.1901" lon="14.1886133"><ele>562.3333333333333</ele><time>2026-05-01T10:45:34.265Z</time></trkpt><trkpt lat="42.19006" lon="14.1885417"><ele>562.6666666666666</ele><time>2026-05-01T10:45:35.265Z</time></trkpt><trkpt lat="42.1900133" lon="14.188415"><ele>563.0</ele><time>2026-05-01T10:45:37.265Z</time></trkpt><trkpt lat="42.19" lon="14.1882083"><ele>563.6666666666666</ele><time>2026-05-01T10:45:39.265Z</time></trkpt><trkpt lat="42.189975" lon="14.1880783"><ele>564.3333333333333</ele><time>2026-05-01T10:45:40.265Z</time></trkpt><trkpt lat="42.189945" lon="14.1879733"><ele>565.0</ele><time>2026-05-01T10:45:41.265Z</time></trkpt><trkpt lat="42.189915" lon="14.18788"><ele>565.6666666666666</ele><time>2026-05-01T10:45:42.266Z</time></trkpt><trkpt lat="42.1898567" lon="14.187745"><ele>566.3333333333334</ele><time>2026-05-01T10:45:44.265Z</time></trkpt><trkpt lat="42.1898117" lon="14.1876767"><ele>567.0</ele><time>2026-05-01T10:45:45.265Z</time></trkpt><trkpt lat="42.1897583" lon="14.18761"><ele>568.8333333333334</ele><time>2026-05-01T10:45:46.265Z</time></trkpt><trkpt lat="42.1897267" lon="14.187525"><ele>570.6666666666666</ele><time>2026-05-01T10:45:47.265Z</time></trkpt><trkpt lat="42.1896917" lon="14.18743"><ele>572.5</ele><time>2026-05-01T10:45:48.265Z</time></trkpt><trkpt lat="42.1896617" lon="14.1873217"><ele>574.3333333333333</ele><time>2026-05-01T10:45:49.265Z</time></trkpt><trkpt lat="42.1896233" lon="14.1872217"><ele>576.1666666666666</ele><time>2026-05-01T10:45:50.265Z</time></trkpt><trkpt lat="42.189595" lon="14.1871233"><ele>578.0</ele><time>2026-05-01T10:45:51.265Z</time></trkpt><trkpt lat="42.189565" lon="14.1870333"><ele>578.0</ele><time>2026-05-01T10:45:52.266Z</time></trkpt><trkpt lat="42.18951" lon="14.1869167"><ele>578.0</ele><time>2026-05-01T10:45:54.265Z</time></trkpt><trkpt lat="42.1894233" lon="14.1868567"><ele>578.0</ele><time>2026-05-01T10:45:56.264Z</time></trkpt><trkpt lat="42.1893283" lon="14.1868617"><ele>578.0</ele><time>2026-05-01T10:45:58.264Z</time></trkpt><trkpt lat="42.1892017" lon="14.1868767"><ele>578.0</ele><time>2026-05-01T10:46:00.265Z</time></trkpt><trkpt lat="42.1891367" lon="14.1869033"><ele>578.0</ele><time>2026-05-01T10:46:01.264Z</time></trkpt><trkpt lat="42.1890733" lon="14.1869483"><ele>578.0</ele><time>2026-05-01T10:46:02.264Z</time></trkpt><trkpt lat="42.189005" lon="14.18695"><ele>578.0</ele><time>2026-05-01T10:46:03.264Z</time></trkpt><trkpt lat="42.1889417" lon="14.1869333"><ele>578.0</ele><time>2026-05-01T10:46:04.264Z</time></trkpt><trkpt lat="42.18884" lon="14.1869233"><ele>578.0</ele><time>2026-05-01T10:46:06.264Z</time></trkpt><trkpt lat="42.18874" lon="14.1868933"><ele>578.0</ele><time>2026-05-01T10:46:08.264Z</time></trkpt><trkpt lat="42.1886717" lon="14.18688"><ele>579.6</ele><time>2026-05-01T10:46:09.264Z</time></trkpt><trkpt lat="42.1885983" lon="14.1869"><ele>581.1999999999999</ele><time>2026-05-01T10:46:10.264Z</time></trkpt><trkpt lat="42.1884767" lon="14.186935"><ele>582.8</ele><time>2026-05-01T10:46:11.264Z</time></trkpt><trkpt lat="42.188355" lon="14.186985"><ele>584.4</ele><time>2026-05-01T10:46:12.264Z</time></trkpt><trkpt lat="42.1882567" lon="14.187045"><ele>586.0</ele><time>2026-05-01T10:46:13.264Z</time></trkpt><trkpt lat="42.188175" lon="14.1871133"><ele>587.3333333333334</ele><time>2026-05-01T10:46:14.264Z</time></trkpt><trkpt lat="42.1881183" lon="14.1871567"><ele>588.6666666666667</ele><time>2026-05-01T10:46:15.264Z</time></trkpt><trkpt lat="42.1880467" lon="14.1871717"><ele>590.0</ele><time>2026-05-01T10:46:18.264Z</time></trkpt><trkpt lat="42.18801" lon="14.187065"><ele>591.3333333333334</ele><time>2026-05-01T10:46:20.265Z</time></trkpt><trkpt lat="42.187955" lon="14.1869583"><ele>592.6666666666666</ele><time>2026-05-01T10:46:22.264Z</time></trkpt><trkpt lat="42.18791" lon="14.1868967"><ele>594.0</ele><time>2026-05-01T10:46:23.264Z</time></trkpt><trkpt lat="42.1878633" lon="14.18683"><ele>594.0</ele><time>2026-05-01T10:46:24.265Z</time></trkpt><trkpt lat="42.187775" lon="14.1866883"><ele>594.0</ele><time>2026-05-01T10:46:26.264Z</time></trkpt><trkpt lat="42.1877317" lon="14.18661"><ele>594.0</ele><time>2026-05-01T10:46:27.264Z</time></trkpt><trkpt lat="42.1876883" lon="14.1865217"><ele>594.0</ele><time>2026-05-01T10:46:28.264Z</time></trkpt><trkpt lat="42.1876417" lon="14.1864267"><ele>594.0</ele><time>2026-05-01T10:46:29.265Z</time></trkpt><trkpt lat="42.1876" lon="14.1863367"><ele>594.3333333333334</ele><time>2026-05-01T10:46:30.264Z</time></trkpt><trkpt lat="42.1875367" lon="14.1862583"><ele>594.6666666666666</ele><time>2026-05-01T10:46:31.264Z</time></trkpt><trkpt lat="42.18748" lon="14.1861767"><ele>595.0</ele><time>2026-05-01T10:46:32.265Z</time></trkpt><trkpt lat="42.18741" lon="14.1860967"><ele>595.3333333333333</ele><time>2026-05-01T10:46:33.265Z</time></trkpt><trkpt lat="42.18735" lon="14.1860267"><ele>595.6666666666666</ele><time>2026-05-01T10:46:34.264Z</time></trkpt><trkpt lat="42.18729" lon="14.18594"><ele>596.0</ele><time>2026-05-01T10:46:35.264Z</time></trkpt><trkpt lat="42.1872267" lon="14.1858717"><ele>597.8</ele><time>2026-05-01T10:46:36.264Z</time></trkpt><trkpt lat="42.187165" lon="14.1857967"><ele>599.6</ele><time>2026-05-01T10:46:37.265Z</time></trkpt><trkpt lat="42.1870933" lon="14.1857183"><ele>601.4</ele><time>2026-05-01T10:46:38.264Z</time></trkpt><trkpt lat="42.1870233" lon="14.1856233"><ele>603.2</ele><time>2026-05-01T10:46:39.264Z</time></trkpt><trkpt lat="42.1869367" lon="14.1855117"><ele>605.0</ele><time>2026-05-01T10:46:40.265Z</time></trkpt><trkpt lat="42.1868683" lon="14.1854183"><ele>605.0</ele><time>2026-05-01T10:46:41.264Z</time></trkpt><trkpt lat="42.1867983" lon="14.1853217"><ele>605.0</ele><time>2026-05-01T10:46:42.264Z</time></trkpt><trkpt lat="42.1867417" lon="14.185235"><ele>605.0</ele><time>2026-05-01T10:46:43.264Z</time></trkpt><trkpt lat="42.1866933" lon="14.185145"><ele>605.0</ele><time>2026-05-01T10:46:44.264Z</time></trkpt><trkpt lat="42.18665" lon="14.1850633"><ele>605.0</ele><time>2026-05-01T10:46:45.264Z</time></trkpt><trkpt lat="42.1865867" lon="14.18498"><ele>605.0</ele><time>2026-05-01T10:46:46.264Z</time></trkpt><trkpt lat="42.1865217" lon="14.1848867"><ele>607.8</ele><time>2026-05-01T10:46:47.264Z</time></trkpt><trkpt lat="42.186465" lon="14.1847983"><ele>610.6</ele><time>2026-05-01T10:46:48.264Z</time></trkpt><trkpt lat="42.1864183" lon="14.184725"><ele>613.4</ele><time>2026-05-01T10:46:49.264Z</time></trkpt><trkpt lat="42.1863483" lon="14.1846117"><ele>616.2</ele><time>2026-05-01T10:46:51.264Z</time></trkpt><trkpt lat="42.1862933" lon="14.1845183"><ele>619.0</ele><time>2026-05-01T10:46:53.264Z</time></trkpt><trkpt lat="42.1862233" lon="14.184405"><ele>619.0</ele><time>2026-05-01T10:46:55.264Z</time></trkpt><trkpt lat="42.1861883" lon="14.1843333"><ele>619.0</ele><time>2026-05-01T10:46:56.264Z</time></trkpt><trkpt lat="42.1861567" lon="14.1842517"><ele>619.0</ele><time>2026-05-01T10:46:57.264Z</time></trkpt><trkpt lat="42.1861017" lon="14.184175"><ele>619.0</ele><time>2026-05-01T10:46:58.265Z</time></trkpt><trkpt lat="42.1860517" lon="14.184105"><ele>619.0</ele><time>2026-05-01T10:46:59.264Z</time></trkpt><trkpt lat="42.1859967" lon="14.1840383"><ele>619.0</ele><time>2026-05-01T10:47:00.264Z</time></trkpt><trkpt lat="42.185915" lon="14.1839617"><ele>619.0</ele><time>2026-05-01T10:47:02.264Z</time></trkpt><trkpt lat="42.18582" lon="14.1839667"><ele>619.0</ele><time>2026-05-01T10:47:04.264Z</time></trkpt><trkpt lat="42.1857067" lon="14.1840283"><ele>619.0</ele><time>2026-05-01T10:47:06.265Z</time></trkpt><trkpt lat="42.18565" lon="14.1840783"><ele>619.0</ele><time>2026-05-01T10:47:07.264Z</time></trkpt><trkpt lat="42.1855517" lon="14.1840433"><ele>619.0</ele><time>2026-05-01T10:47:09.264Z</time></trkpt><trkpt lat="42.1854833" lon="14.18396"><ele>620.8</ele><time>2026-05-01T10:47:11.264Z</time></trkpt><trkpt lat="42.1853967" lon="14.1838767"><ele>622.5999999999999</ele><time>2026-05-01T10:47:13.264Z</time></trkpt><trkpt lat="42.185305" lon="14.18381"><ele>624.4</ele><time>2026-05-01T10:47:15.264Z</time></trkpt><trkpt lat="42.1852417" lon="14.183675"><ele>626.1999999999999</ele><time>2026-05-01T10:47:17.264Z</time></trkpt><trkpt lat="42.1852033" lon="14.1835267"><ele>628.0</ele><time>2026-05-01T10:47:19.264Z</time></trkpt><trkpt lat="42.1852317" lon="14.1833367"><ele>628.0</ele><time>2026-05-01T10:47:21.264Z</time></trkpt><trkpt lat="42.185255" lon="14.183225"><ele>628.0</ele><time>2026-05-01T10:47:22.264Z</time></trkpt><trkpt lat="42.1852817" lon="14.18311"><ele>628.0</ele><time>2026-05-01T10:47:23.264Z</time></trkpt><trkpt lat="42.1853117" lon="14.18299"><ele>628.0</ele><time>2026-05-01T10:47:24.264Z</time></trkpt><trkpt lat="42.18533" lon="14.1828667"><ele>628.0</ele><time>2026-05-01T10:47:25.264Z</time></trkpt><trkpt lat="42.185345" lon="14.1827517"><ele>628.0</ele><time>2026-05-01T10:47:26.264Z</time></trkpt><trkpt lat="42.1853617" lon="14.1826417"><ele>628.1666666666667</ele><time>2026-05-01T10:47:27.264Z</time></trkpt><trkpt lat="42.1853767" lon="14.182525"><ele>628.3333333333334</ele><time>2026-05-01T10:47:28.264Z</time></trkpt><trkpt lat="42.1853867" lon="14.1824067"><ele>628.5</ele><time>2026-05-01T10:47:29.264Z</time></trkpt><trkpt lat="42.1854117" lon="14.1822833"><ele>628.6666666666666</ele><time>2026-05-01T10:47:30.264Z</time></trkpt><trkpt lat="42.1854167" lon="14.1821717"><ele>628.8333333333333</ele><time>2026-05-01T10:47:31.264Z</time></trkpt><trkpt lat="42.185425" lon="14.1820733"><ele>629.0</ele><time>2026-05-01T10:47:32.264Z</time></trkpt><trkpt lat="42.1853967" lon="14.18194"><ele>629.4</ele><time>2026-05-01T10:47:34.264Z</time></trkpt><trkpt lat="42.18531" lon="14.1818983"><ele>629.8</ele><time>2026-05-01T10:47:41.264Z</time></trkpt><trkpt lat="42.1852267" lon="14.1818833"><ele>630.2</ele><time>2026-05-01T10:47:43.264Z</time></trkpt><trkpt lat="42.1851083" lon="14.1818617"><ele>630.6</ele><time>2026-05-01T10:47:45.265Z</time></trkpt><trkpt lat="42.1850283" lon="14.181825"><ele>631.0</ele><time>2026-05-01T10:47:47.264Z</time></trkpt><trkpt lat="42.18499" lon="14.1817117"><ele>631.0</ele><time>2026-05-01T10:47:50.264Z</time></trkpt><trkpt lat="42.1850017" lon="14.1815283"><ele>631.0</ele><time>2026-05-01T10:48:21.264Z</time></trkpt><trkpt lat="42.1850067" lon="14.1813783"><ele>631.0</ele><time>2026-05-01T10:48:23.264Z</time></trkpt><trkpt lat="42.1850033" lon="14.1812917"><ele>631.0</ele><time>2026-05-01T10:48:24.265Z</time></trkpt><trkpt lat="42.1849683" lon="14.1811317"><ele>631.0</ele><time>2026-05-01T10:48:26.264Z</time></trkpt><trkpt lat="42.1848983" lon="14.1810033"><ele>633.0</ele><time>2026-05-01T10:48:28.264Z</time></trkpt><trkpt lat="42.1848217" lon="14.1808967"><ele>635.0</ele><time>2026-05-01T10:48:30.264Z</time></trkpt><trkpt lat="42.1847333" lon="14.1808133"><ele>637.0</ele><time>2026-05-01T10:48:32.264Z</time></trkpt><trkpt lat="42.1846617" lon="14.1807483"><ele>639.0</ele><time>2026-05-01T10:48:34.264Z</time></trkpt><trkpt lat="42.18458" lon="14.180685"><ele>641.0</ele><time>2026-05-01T10:48:36.264Z</time></trkpt><trkpt lat="42.1845167" lon="14.1806783"><ele>641.0</ele><time>2026-05-01T10:48:37.264Z</time></trkpt><trkpt lat="42.1844317" lon="14.1807017"><ele>641.0</ele><time>2026-05-01T10:48:38.264Z</time></trkpt><trkpt lat="42.1843383" lon="14.1807483"><ele>641.0</ele><time>2026-05-01T10:48:39.264Z</time></trkpt><trkpt lat="42.1842433" lon="14.1807967"><ele>641.0</ele><time>2026-05-01T10:48:40.264Z</time></trkpt><trkpt lat="42.1841733" lon="14.1808617"><ele>641.0</ele><time>2026-05-01T10:48:41.264Z</time></trkpt><trkpt lat="42.1841083" lon="14.18092"><ele>641.0</ele><time>2026-05-01T10:48:42.264Z</time></trkpt><trkpt lat="42.1840167" lon="14.18096"><ele>641.0</ele><time>2026-05-01T10:48:44.264Z</time></trkpt><trkpt lat="42.1839567" lon="14.1808467"><ele>641.0</ele><time>2026-05-01T10:48:46.264Z</time></trkpt><trkpt lat="42.1839267" lon="14.180735"><ele>641.0</ele><time>2026-05-01T10:48:48.264Z</time></trkpt><trkpt lat="42.18386" lon="14.18072"><ele>641.0</ele><time>2026-05-01T10:48:51.264Z</time></trkpt><trkpt lat="42.1837933" lon="14.18069"><ele>641.0</ele><time>2026-05-01T10:50:14.265Z</time></trkpt><trkpt lat="42.1837533" lon="14.180615"><ele>641.5714285714286</ele><time>2026-05-01T10:50:28.264Z</time></trkpt><trkpt lat="42.1837783" lon="14.180695"><ele>642.1428571428571</ele><time>2026-05-01T10:50:40.264Z</time></trkpt><trkpt lat="42.183715" lon="14.1807356"><ele>642.7142857142858</ele><time>2026-05-01T10:51:33.271Z</time></trkpt><trkpt lat="42.183666" lon="14.1807947"><ele>643.2857142857142</ele><time>2026-05-01T10:51:37.289Z</time></trkpt><trkpt lat="42.1836243" lon="14.1808703"><ele>643.8571428571428</ele><time>2026-05-01T10:51:45.369Z</time></trkpt><trkpt lat="42.1835805" lon="14.1809397"><ele>644.4285714285714</ele><time>2026-05-01T10:51:50.693Z</time></trkpt><trkpt lat="42.1835359" lon="14.1810089"><ele>645.0</ele><time>2026-05-01T10:51:57.194Z</time></trkpt><trkpt lat="42.183511" lon="14.1810907"><ele>645.0</ele><time>2026-05-01T10:52:04.35Z</time></trkpt><trkpt lat="42.1835334" lon="14.1811728"><ele>645.0</ele><time>2026-05-01T10:52:13.33Z</time></trkpt><trkpt lat="42.183596" lon="14.1811911"><ele>645.0</ele><time>2026-05-01T10:52:25.345Z</time></trkpt><trkpt lat="42.1835211" lon="14.181199"><ele>645.0</ele><time>2026-05-01T10:53:12.339Z</time></trkpt><trkpt lat="42.1834617" lon="14.1812325"><ele>645.0</ele><time>2026-05-01T10:53:16.352Z</time></trkpt><trkpt lat="42.1835211" lon="14.181199"><ele>645.0</ele><time>2026-05-01T10:53:12.339Z</time></trkpt><trkpt lat="42.1834617" lon="14.1812325"><ele>645.0</ele><time>2026-05-01T10:53:16.352Z</time></trkpt><trkpt lat="42.1834239" lon="14.18131"><ele>645.0</ele><time>2026-05-01T10:53:21.376Z</time></trkpt><trkpt lat="42.1834089" lon="14.1813928"><ele>645.0</ele><time>2026-05-01T10:54:33.355Z</time></trkpt><trkpt lat="42.1834459" lon="14.1813226"><ele>645.0</ele><time>2026-05-01T10:56:23.312Z</time></trkpt><trkpt lat="42.1835234" lon="14.1813862"><ele>645.0</ele><time>2026-05-01T11:13:24.334Z</time></trkpt><trkpt lat="42.1835041" lon="14.181299"><ele>645.0</ele><time>2026-05-01T11:17:00.352Z</time></trkpt><trkpt lat="42.1835106" lon="14.1812115"><ele>645.0</ele><time>2026-05-01T11:17:09.41Z</time></trkpt><trkpt lat="42.1835395" lon="14.1811301"><ele>645.0</ele><time>2026-05-01T11:17:20.361Z</time></trkpt><trkpt lat="42.1835712" lon="14.1810528"><ele>645.0</ele><time>2026-05-01T11:17:39.429Z</time></trkpt><trkpt lat="42.1835975" lon="14.1809678"><ele>645.0</ele><time>2026-05-01T11:17:59.349Z</time></trkpt><trkpt lat="42.1836322" lon="14.1808959"><ele>645.0</ele><time>2026-05-01T11:18:06.269Z</time></trkpt><trkpt lat="42.1836817" lon="14.1808273"><ele>645.0</ele><time>2026-05-01T11:18:16.854Z</time></trkpt><trkpt lat="42.1837423" lon="14.1807743"><ele>645.0</ele><time>2026-05-01T11:18:24.364Z</time></trkpt><trkpt lat="42.1837999" lon="14.1807242"><ele>645.0</ele><time>2026-05-01T11:18:31.381Z</time></trkpt><trkpt lat="42.1837825" lon="14.1806334"><ele>645.0</ele><time>2026-05-01T11:21:00.434Z</time></trkpt><trkpt lat="42.18373" lon="14.1805772"><ele>645.0</ele><time>2026-05-01T11:21:07.344Z</time></trkpt><trkpt lat="42.18375" lon="14.1806766"><ele>645.0</ele><time>2026-05-01T11:22:19.317Z</time></trkpt><trkpt lat="42.1837977" lon="14.1807375"><ele>645.0</ele><time>2026-05-01T11:22:26.334Z</time></trkpt><trkpt lat="42.1838333" lon="14.1806583"><ele>645.0</ele><time>2026-05-01T11:25:32.267Z</time></trkpt><trkpt lat="42.18392" lon="14.1807733"><ele>645.0</ele><time>2026-05-01T11:25:53.267Z</time></trkpt><trkpt lat="42.1839233" lon="14.1808617"><ele>645.0</ele><time>2026-05-01T11:25:54.267Z</time></trkpt><trkpt lat="42.1839233" lon="14.1809683"><ele>645.0</ele><time>2026-05-01T11:25:55.267Z</time></trkpt><trkpt lat="42.183925" lon="14.18107"><ele>645.0</ele><time>2026-05-01T11:25:56.267Z</time></trkpt><trkpt lat="42.183925" lon="14.1811667"><ele>645.0</ele><time>2026-05-01T11:25:57.267Z</time></trkpt><trkpt lat="42.1839167" lon="14.1812667"><ele>645.0</ele><time>2026-05-01T11:25:58.267Z</time></trkpt><trkpt lat="42.1839033" lon="14.1813717"><ele>645.0</ele><time>2026-05-01T11:25:59.267Z</time></trkpt><trkpt lat="42.183865" lon="14.1814733"><ele>645.0</ele><time>2026-05-01T11:26:00.267Z</time></trkpt><trkpt lat="42.1838117" lon="14.1815717"><ele>644.6666666666666</ele><time>2026-05-01T11:26:01.267Z</time></trkpt><trkpt lat="42.1837567" lon="14.1816717"><ele>644.3333333333334</ele><time>2026-05-01T11:26:02.267Z</time></trkpt><trkpt lat="42.183705" lon="14.1817617"><ele>644.0</ele><time>2026-05-01T11:26:03.267Z</time></trkpt><trkpt lat="42.1836583" lon="14.1818433"><ele>643.6666666666667</ele><time>2026-05-01T11:26:04.267Z</time></trkpt><trkpt lat="42.1836133" lon="14.1819117"><ele>643.3333333333334</ele><time>2026-05-01T11:26:05.267Z</time></trkpt><trkpt lat="42.1835717" lon="14.1819767"><ele>643.0</ele><time>2026-05-01T11:26:06.267Z</time></trkpt><trkpt lat="42.1834783" lon="14.182065"><ele>643.0</ele><time>2026-05-01T11:26:08.267Z</time></trkpt><trkpt lat="42.1833967" lon="14.1820917"><ele>643.0</ele><time>2026-05-01T11:26:10.267Z</time></trkpt><trkpt lat="42.18333" lon="14.182105"><ele>643.0</ele><time>2026-05-01T11:26:12.267Z</time></trkpt><trkpt lat="42.18332" lon="14.1822"><ele>643.0</ele><time>2026-05-01T11:26:15.267Z</time></trkpt><trkpt lat="42.183405" lon="14.18232"><ele>643.0</ele><time>2026-05-01T11:26:17.267Z</time></trkpt><trkpt lat="42.1834633" lon="14.1823883"><ele>643.0</ele><time>2026-05-01T11:26:18.267Z</time></trkpt><trkpt lat="42.1835233" lon="14.1824583"><ele>641.4285714285714</ele><time>2026-05-01T11:26:19.267Z</time></trkpt><trkpt lat="42.1835733" lon="14.18253"><ele>639.8571428571429</ele><time>2026-05-01T11:26:20.267Z</time></trkpt><trkpt lat="42.18362" lon="14.182605"><ele>638.2857142857143</ele><time>2026-05-01T11:26:21.267Z</time></trkpt><trkpt lat="42.18366" lon="14.1826867"><ele>636.7142857142858</ele><time>2026-05-01T11:26:22.267Z</time></trkpt><trkpt lat="42.1837017" lon="14.1827633"><ele>635.1428571428571</ele><time>2026-05-01T11:26:23.267Z</time></trkpt><trkpt lat="42.18373" lon="14.1828517"><ele>633.5714285714287</ele><time>2026-05-01T11:26:24.267Z</time></trkpt><trkpt lat="42.1837567" lon="14.1829583"><ele>632.0</ele><time>2026-05-01T11:26:25.267Z</time></trkpt><trkpt lat="42.1837917" lon="14.183075"><ele>631.8000000000001</ele><time>2026-05-01T11:26:26.267Z</time></trkpt><trkpt lat="42.1838183" lon="14.18319"><ele>631.6</ele><time>2026-05-01T11:26:27.267Z</time></trkpt><trkpt lat="42.183855" lon="14.1832967"><ele>631.4000000000001</ele><time>2026-05-01T11:26:28.267Z</time></trkpt><trkpt lat="42.1839083" lon="14.183435"><ele>631.2</ele><time>2026-05-01T11:26:29.267Z</time></trkpt><trkpt lat="42.1839717" lon="14.18357"><ele>631.0</ele><time>2026-05-01T11:26:30.267Z</time></trkpt><trkpt lat="42.1840267" lon="14.1837017"><ele>631.0</ele><time>2026-05-01T11:26:31.267Z</time></trkpt><trkpt lat="42.1840867" lon="14.1838317"><ele>631.0</ele><time>2026-05-01T11:26:32.267Z</time></trkpt><trkpt lat="42.1841417" lon="14.1839533"><ele>631.0</ele><time>2026-05-01T11:26:33.268Z</time></trkpt><trkpt lat="42.184205" lon="14.184095"><ele>631.0</ele><time>2026-05-01T11:26:34.267Z</time></trkpt><trkpt lat="42.1842567" lon="14.1842333"><ele>628.75</ele><time>2026-05-01T11:26:35.267Z</time></trkpt><trkpt lat="42.18431" lon="14.1843883"><ele>626.5</ele><time>2026-05-01T11:26:36.267Z</time></trkpt><trkpt lat="42.18436" lon="14.184545"><ele>624.25</ele><time>2026-05-01T11:26:37.267Z</time></trkpt><trkpt lat="42.1844033" lon="14.1846967"><ele>622.0</ele><time>2026-05-01T11:26:38.267Z</time></trkpt><trkpt lat="42.1844567" lon="14.184845"><ele>618.5</ele><time>2026-05-01T11:26:39.267Z</time></trkpt><trkpt lat="42.1845017" lon="14.1849933"><ele>615.0</ele><time>2026-05-01T11:26:40.267Z</time></trkpt><trkpt lat="42.184555" lon="14.1851367"><ele>611.5</ele><time>2026-05-01T11:26:41.268Z</time></trkpt><trkpt lat="42.184615" lon="14.1852717"><ele>608.0</ele><time>2026-05-01T11:26:42.267Z</time></trkpt><trkpt lat="42.184675" lon="14.1854017"><ele>608.0</ele><time>2026-05-01T11:26:43.267Z</time></trkpt><trkpt lat="42.1847417" lon="14.1855267"><ele>608.0</ele><time>2026-05-01T11:26:44.267Z</time></trkpt><trkpt lat="42.18482" lon="14.185655"><ele>608.0</ele><time>2026-05-01T11:26:45.268Z</time></trkpt><trkpt lat="42.184915" lon="14.18579"><ele>608.0</ele><time>2026-05-01T11:26:46.268Z</time></trkpt><trkpt lat="42.18501" lon="14.18592"><ele>608.5</ele><time>2026-05-01T11:26:47.267Z</time></trkpt><trkpt lat="42.1851067" lon="14.1860417"><ele>609.0</ele><time>2026-05-01T11:26:48.267Z</time></trkpt><trkpt lat="42.18519" lon="14.1861617"><ele>609.5</ele><time>2026-05-01T11:26:49.267Z</time></trkpt><trkpt lat="42.185275" lon="14.1862783"><ele>610.0</ele><time>2026-05-01T11:26:50.267Z</time></trkpt><trkpt lat="42.1853467" lon="14.1863917"><ele>605.5</ele><time>2026-05-01T11:26:51.268Z</time></trkpt><trkpt lat="42.1854117" lon="14.186515"><ele>601.0</ele><time>2026-05-01T11:26:52.267Z</time></trkpt><trkpt lat="42.185475" lon="14.18664"><ele>596.5</ele><time>2026-05-01T11:26:53.267Z</time></trkpt><trkpt lat="42.1855317" lon="14.1867867"><ele>592.0</ele><time>2026-05-01T11:26:54.267Z</time></trkpt><trkpt lat="42.18559" lon="14.1869367"><ele>592.0</ele><time>2026-05-01T11:26:55.267Z</time></trkpt><trkpt lat="42.18564" lon="14.1870767"><ele>592.0</ele><time>2026-05-01T11:26:56.267Z</time></trkpt><trkpt lat="42.1856867" lon="14.187215"><ele>592.0</ele><time>2026-05-01T11:26:57.267Z</time></trkpt><trkpt lat="42.1857217" lon="14.1873467"><ele>592.0</ele><time>2026-05-01T11:26:58.267Z</time></trkpt><trkpt lat="42.1857617" lon="14.1874583"><ele>592.0</ele><time>2026-05-01T11:26:59.267Z</time></trkpt><trkpt lat="42.1857933" lon="14.18756"><ele>591.8333333333334</ele><time>2026-05-01T11:27:00.267Z</time></trkpt><trkpt lat="42.1858167" lon="14.18765"><ele>591.6666666666667</ele><time>2026-05-01T11:27:01.267Z</time></trkpt><trkpt lat="42.18583" lon="14.187735"><ele>591.5</ele><time>2026-05-01T11:27:02.267Z</time></trkpt><trkpt lat="42.1858783" lon="14.1878833"><ele>591.3333333333334</ele><time>2026-05-01T11:27:04.267Z</time></trkpt><trkpt lat="42.1859" lon="14.1879933"><ele>591.1666666666666</ele><time>2026-05-01T11:27:06.267Z</time></trkpt><trkpt lat="42.1858217" lon="14.1879483"><ele>591.0</ele><time>2026-05-01T11:27:11.267Z</time></trkpt><trkpt lat="42.1857583" lon="14.187815"><ele>591.0</ele><time>2026-05-01T11:27:13.267Z</time></trkpt><trkpt lat="42.185725" lon="14.187735"><ele>591.0</ele><time>2026-05-01T11:27:14.268Z</time></trkpt><trkpt lat="42.18569" lon="14.1876467"><ele>591.0</ele><time>2026-05-01T11:27:15.267Z</time></trkpt><trkpt lat="42.18566" lon="14.1875567"><ele>591.0</ele><time>2026-05-01T11:27:16.267Z</time></trkpt><trkpt lat="42.185625" lon="14.18746"><ele>591.0</ele><time>2026-05-01T11:27:17.267Z</time></trkpt><trkpt lat="42.185585" lon="14.1873583"><ele>591.0</ele><time>2026-05-01T11:27:18.267Z</time></trkpt><trkpt lat="42.1855417" lon="14.1872617"><ele>591.1666666666666</ele><time>2026-05-01T11:27:19.267Z</time></trkpt><trkpt lat="42.1855" lon="14.1871733"><ele>591.3333333333334</ele><time>2026-05-01T11:27:20.268Z</time></trkpt><trkpt lat="42.18546" lon="14.1870933"><ele>591.5</ele><time>2026-05-01T11:27:21.267Z</time></trkpt><trkpt lat="42.185425" lon="14.1870183"><ele>591.6666666666667</ele><time>2026-05-01T11:27:22.267Z</time></trkpt><trkpt lat="42.1853517" lon="14.1868917"><ele>591.8333333333334</ele><time>2026-05-01T11:27:24.268Z</time></trkpt><trkpt lat="42.1853017" lon="14.1868317"><ele>592.0</ele><time>2026-05-01T11:27:25.268Z</time></trkpt><trkpt lat="42.1852517" lon="14.18677"><ele>592.0</ele><time>2026-05-01T11:27:26.267Z</time></trkpt><trkpt lat="42.1851967" lon="14.186715"><ele>592.0</ele><time>2026-05-01T11:27:27.267Z</time></trkpt><trkpt lat="42.1851383" lon="14.18667"><ele>592.0</ele><time>2026-05-01T11:27:28.267Z</time></trkpt><trkpt lat="42.1850783" lon="14.1866283"><ele>592.0</ele><time>2026-05-01T11:27:29.268Z</time></trkpt><trkpt lat="42.18501" lon="14.1865817"><ele>592.0</ele><time>2026-05-01T11:27:30.267Z</time></trkpt><trkpt lat="42.1849467" lon="14.18654"><ele>592.0</ele><time>2026-05-01T11:27:31.267Z</time></trkpt><trkpt lat="42.18484" lon="14.186475"><ele>592.0</ele><time>2026-05-01T11:27:33.268Z</time></trkpt><trkpt lat="42.184735" lon="14.1864317"><ele>592.0</ele><time>2026-05-01T11:27:35.267Z</time></trkpt><trkpt lat="42.184625" lon="14.1864517"><ele>592.0</ele><time>2026-05-01T11:27:37.267Z</time></trkpt><trkpt lat="42.1845583" lon="14.1864717"><ele>592.0</ele><time>2026-05-01T11:27:38.267Z</time></trkpt><trkpt lat="42.1844817" lon="14.1864867"><ele>592.0</ele><time>2026-05-01T11:27:39.267Z</time></trkpt><trkpt lat="42.1843967" lon="14.186505"><ele>592.0</ele><time>2026-05-01T11:27:40.268Z</time></trkpt><trkpt lat="42.1843217" lon="14.1865133"><ele>592.0</ele><time>2026-05-01T11:27:41.267Z</time></trkpt><trkpt lat="42.184255" lon="14.1865167"><ele>592.0</ele><time>2026-05-01T11:27:42.267Z</time></trkpt><trkpt lat="42.18419" lon="14.1865033"><ele>592.0</ele><time>2026-05-01T11:27:43.267Z</time></trkpt><trkpt lat="42.18412" lon="14.1864883"><ele>592.0</ele><time>2026-05-01T11:27:44.267Z</time></trkpt><trkpt lat="42.1840433" lon="14.18648"><ele>592.0</ele><time>2026-05-01T11:27:45.267Z</time></trkpt><trkpt lat="42.1839617" lon="14.1864783"><ele>592.0</ele><time>2026-05-01T11:27:46.267Z</time></trkpt><trkpt lat="42.18387" lon="14.1864883"><ele>591.2</ele><time>2026-05-01T11:27:47.267Z</time></trkpt><trkpt lat="42.183775" lon="14.186495"><ele>590.4000000000001</ele><time>2026-05-01T11:27:48.267Z</time></trkpt><trkpt lat="42.1836817" lon="14.186515"><ele>589.5999999999999</ele><time>2026-05-01T11:27:49.267Z</time></trkpt><trkpt lat="42.1835917" lon="14.1865433"><ele>588.8</ele><time>2026-05-01T11:27:50.267Z</time></trkpt><trkpt lat="42.1834967" lon="14.1865917"><ele>588.0</ele><time>2026-05-01T11:27:51.267Z</time></trkpt><trkpt lat="42.18339" lon="14.186655"><ele>586.5</ele><time>2026-05-01T11:27:52.267Z</time></trkpt><trkpt lat="42.1832767" lon="14.18673"><ele>585.0</ele><time>2026-05-01T11:27:53.268Z</time></trkpt><trkpt lat="42.1831667" lon="14.1868067"><ele>583.5</ele><time>2026-05-01T11:27:54.267Z</time></trkpt><trkpt lat="42.1830467" lon="14.1868867"><ele>582.0</ele><time>2026-05-01T11:27:55.267Z</time></trkpt><trkpt lat="42.1829333" lon="14.18694"><ele>582.0</ele><time>2026-05-01T11:27:56.267Z</time></trkpt><trkpt lat="42.18282" lon="14.18698"><ele>582.0</ele><time>2026-05-01T11:27:57.267Z</time></trkpt><trkpt lat="42.1827283" lon="14.1870033"><ele>582.0</ele><time>2026-05-01T11:27:58.268Z</time></trkpt><trkpt lat="42.18265" lon="14.1870283"><ele>582.0</ele><time>2026-05-01T11:27:59.267Z</time></trkpt><trkpt lat="42.1825617" lon="14.18707"><ele>582.0</ele><time>2026-05-01T11:28:01.267Z</time></trkpt><trkpt lat="42.1825367" lon="14.1871483"><ele>582.0</ele><time>2026-05-01T11:28:04.267Z</time></trkpt><trkpt lat="42.1825967" lon="14.18726"><ele>580.2</ele><time>2026-05-01T11:28:06.267Z</time></trkpt><trkpt lat="42.1826583" lon="14.187345"><ele>578.4000000000001</ele><time>2026-05-01T11:28:07.267Z</time></trkpt><trkpt lat="42.1827317" lon="14.1874533"><ele>576.5999999999999</ele><time>2026-05-01T11:28:08.267Z</time></trkpt><trkpt lat="42.18282" lon="14.1875583"><ele>574.8</ele><time>2026-05-01T11:28:09.267Z</time></trkpt><trkpt lat="42.1829117" lon="14.1876667"><ele>573.0</ele><time>2026-05-01T11:28:10.267Z</time></trkpt><trkpt lat="42.183015" lon="14.1877617"><ele>573.0</ele><time>2026-05-01T11:28:11.267Z</time></trkpt><trkpt lat="42.1831083" lon="14.1878583"><ele>573.0</ele><time>2026-05-01T11:28:12.267Z</time></trkpt><trkpt lat="42.1831917" lon="14.18795"><ele>573.0</ele><time>2026-05-01T11:28:13.267Z</time></trkpt><trkpt lat="42.1832733" lon="14.1880483"><ele>573.0</ele><time>2026-05-01T11:28:14.267Z</time></trkpt><trkpt lat="42.1833467" lon="14.188155"><ele>573.0</ele><time>2026-05-01T11:28:15.267Z</time></trkpt><trkpt lat="42.1834117" lon="14.188275"><ele>573.5</ele><time>2026-05-01T11:28:16.267Z</time></trkpt><trkpt lat="42.183475" lon="14.1884117"><ele>574.0</ele><time>2026-05-01T11:28:17.267Z</time></trkpt><trkpt lat="42.1835417" lon="14.1885667"><ele>574.5</ele><time>2026-05-01T11:28:18.267Z</time></trkpt><trkpt lat="42.1836117" lon="14.188715"><ele>575.0</ele><time>2026-05-01T11:28:19.267Z</time></trkpt><trkpt lat="42.1836783" lon="14.188865"><ele>573.5</ele><time>2026-05-01T11:28:20.267Z</time></trkpt><trkpt lat="42.18375" lon="14.18902"><ele>572.0</ele><time>2026-05-01T11:28:21.267Z</time></trkpt><trkpt lat="42.1838217" lon="14.18917"><ele>570.5</ele><time>2026-05-01T11:28:22.267Z</time></trkpt><trkpt lat="42.18388" lon="14.18932"><ele>569.0</ele><time>2026-05-01T11:28:23.267Z</time></trkpt><trkpt lat="42.18392" lon="14.189475"><ele>569.0</ele><time>2026-05-01T11:28:24.267Z</time></trkpt><trkpt lat="42.1839467" lon="14.1896383"><ele>569.0</ele><time>2026-05-01T11:28:25.267Z</time></trkpt><trkpt lat="42.1839633" lon="14.1898033"><ele>569.0</ele><time>2026-05-01T11:28:26.267Z</time></trkpt><trkpt lat="42.18397" lon="14.189965"><ele>569.0</ele><time>2026-05-01T11:28:27.267Z</time></trkpt><trkpt lat="42.1839767" lon="14.1901183"><ele>568.2</ele><time>2026-05-01T11:28:28.267Z</time></trkpt><trkpt lat="42.1839817" lon="14.1902683"><ele>567.4</ele><time>2026-05-01T11:28:29.268Z</time></trkpt><trkpt lat="42.183985" lon="14.190415"><ele>566.6</ele><time>2026-05-01T11:28:30.268Z</time></trkpt><trkpt lat="42.1839867" lon="14.1905583"><ele>565.8</ele><time>2026-05-01T11:28:31.267Z</time></trkpt><trkpt lat="42.1839883" lon="14.1906917"><ele>565.0</ele><time>2026-05-01T11:28:32.267Z</time></trkpt><trkpt lat="42.1839983" lon="14.1908233"><ele>563.8</ele><time>2026-05-01T11:28:33.267Z</time></trkpt><trkpt lat="42.1840167" lon="14.1909633"><ele>562.6</ele><time>2026-05-01T11:28:34.267Z</time></trkpt><trkpt lat="42.1840217" lon="14.19109"><ele>561.4</ele><time>2026-05-01T11:28:35.267Z</time></trkpt><trkpt lat="42.1840217" lon="14.1912167"><ele>560.2</ele><time>2026-05-01T11:28:36.267Z</time></trkpt><trkpt lat="42.18402" lon="14.1913367"><ele>559.0</ele><time>2026-05-01T11:28:37.267Z</time></trkpt><trkpt lat="42.184" lon="14.1914567"><ele>558.3333333333334</ele><time>2026-05-01T11:28:38.267Z</time></trkpt><trkpt lat="42.1839867" lon="14.19157"><ele>557.6666666666667</ele><time>2026-05-01T11:28:39.267Z</time></trkpt><trkpt lat="42.1839767" lon="14.191685"><ele>557.0</ele><time>2026-05-01T11:28:40.267Z</time></trkpt><trkpt lat="42.183975" lon="14.1918"><ele>556.3333333333334</ele><time>2026-05-01T11:28:41.267Z</time></trkpt><trkpt lat="42.18399" lon="14.1919167"><ele>555.6666666666666</ele><time>2026-05-01T11:28:42.267Z</time></trkpt><trkpt lat="42.1840133" lon="14.1920167"><ele>555.0</ele><time>2026-05-01T11:28:43.267Z</time></trkpt><trkpt lat="42.1840567" lon="14.1921167"><ele>555.0</ele><time>2026-05-01T11:28:44.268Z</time></trkpt><trkpt lat="42.1841167" lon="14.1922267"><ele>555.0</ele><time>2026-05-01T11:28:45.267Z</time></trkpt><trkpt lat="42.1841783" lon="14.192345"><ele>555.0</ele><time>2026-05-01T11:28:46.267Z</time></trkpt><trkpt lat="42.1842483" lon="14.19246"><ele>555.0</ele><time>2026-05-01T11:28:47.268Z</time></trkpt><trkpt lat="42.18429" lon="14.1925883"><ele>555.0</ele><time>2026-05-01T11:28:48.267Z</time></trkpt><trkpt lat="42.1843233" lon="14.1927133"><ele>553.2</ele><time>2026-05-01T11:28:49.267Z</time></trkpt><trkpt lat="42.184345" lon="14.19284"><ele>551.4</ele><time>2026-05-01T11:28:50.268Z</time></trkpt><trkpt lat="42.1843667" lon="14.1929467"><ele>549.6</ele><time>2026-05-01T11:28:51.268Z</time></trkpt><trkpt lat="42.1843783" lon="14.1930383"><ele>547.8</ele><time>2026-05-01T11:28:52.268Z</time></trkpt><trkpt lat="42.1843533" lon="14.1931983"><ele>546.0</ele><time>2026-05-01T11:28:54.267Z</time></trkpt><trkpt lat="42.1843083" lon="14.1933033"><ele>545.1666666666666</ele><time>2026-05-01T11:28:55.267Z</time></trkpt><trkpt lat="42.1842667" lon="14.1934033"><ele>544.3333333333334</ele><time>2026-05-01T11:28:56.267Z</time></trkpt><trkpt lat="42.1842317" lon="14.1934867"><ele>543.5</ele><time>2026-05-01T11:28:57.267Z</time></trkpt><trkpt lat="42.1841883" lon="14.1935883"><ele>542.6666666666667</ele><time>2026-05-01T11:28:59.267Z</time></trkpt><trkpt lat="42.18414" lon="14.1936483"><ele>541.8333333333334</ele><time>2026-05-01T11:29:04.267Z</time></trkpt><trkpt lat="42.1840967" lon="14.1937467"><ele>541.0</ele><time>2026-05-01T11:29:07.267Z</time></trkpt><trkpt lat="42.1840783" lon="14.1938533"><ele>541.0</ele><time>2026-05-01T11:29:09.267Z</time></trkpt><trkpt lat="42.1840767" lon="14.1939567"><ele>541.0</ele><time>2026-05-01T11:29:11.267Z</time></trkpt><trkpt lat="42.18406" lon="14.19408"><ele>541.0</ele><time>2026-05-01T11:29:14.268Z</time></trkpt><trkpt lat="42.1840567" lon="14.1941767"><ele>541.0</ele><time>2026-05-01T11:29:17.267Z</time></trkpt><trkpt lat="42.18406" lon="14.1942617"><ele>541.0</ele><time>2026-05-01T11:29:20.268Z</time></trkpt><trkpt lat="42.184075" lon="14.1943533"><ele>541.0</ele><time>2026-05-01T11:29:24.267Z</time></trkpt><trkpt lat="42.1841333" lon="14.1945267"><ele>540.2</ele><time>2026-05-01T11:29:38.267Z</time></trkpt><trkpt lat="42.1841817" lon="14.19459"><ele>539.4000000000001</ele><time>2026-05-01T11:29:42.267Z</time></trkpt><trkpt lat="42.1842433" lon="14.1946467"><ele>538.6</ele><time>2026-05-01T11:29:48.267Z</time></trkpt><trkpt lat="42.18426" lon="14.1947983"><ele>537.8000000000001</ele><time>2026-05-01T11:30:25.267Z</time></trkpt><trkpt lat="42.1841619" lon="14.1947747"><ele>537.0</ele><time>2026-05-01T11:30:35.212Z</time></trkpt><trkpt lat="42.1842207" lon="14.1949128"><ele>535.5714285714286</ele><time>2026-05-01T11:30:45.36Z</time></trkpt><trkpt lat="42.1842869" lon="14.1949654"><ele>534.1428571428571</ele><time>2026-05-01T11:30:47.274Z</time></trkpt><trkpt lat="42.1842668" lon="14.1950674"><ele>532.7142857142858</ele><time>2026-05-01T11:30:49.394Z</time></trkpt><trkpt lat="42.1842862" lon="14.1951582"><ele>531.2857142857142</ele><time>2026-05-01T11:30:52.377Z</time></trkpt><trkpt lat="42.1843474" lon="14.1952039"><ele>529.8571428571429</ele><time>2026-05-01T11:30:55.355Z</time></trkpt><trkpt lat="42.1844179" lon="14.1952401"><ele>528.4285714285714</ele><time>2026-05-01T11:30:57.375Z</time></trkpt><trkpt lat="42.1844769" lon="14.195284"><ele>527.0</ele><time>2026-05-01T11:30:59.354Z</time></trkpt><trkpt lat="42.1845887" lon="14.1953968"><ele>527.0</ele><time>2026-05-01T11:31:00.267Z</time></trkpt><trkpt lat="42.184667" lon="14.1954862"><ele>527.0</ele><time>2026-05-01T11:31:01.267Z</time></trkpt><trkpt lat="42.1847289" lon="14.195564"><ele>527.0</ele><time>2026-05-01T11:31:02.267Z</time></trkpt><trkpt lat="42.184787" lon="14.1956328"><ele>527.0</ele><time>2026-05-01T11:31:03.267Z</time></trkpt><trkpt lat="42.1848411" lon="14.1956956"><ele>527.0</ele><time>2026-05-01T11:31:04.267Z</time></trkpt><trkpt lat="42.1848935" lon="14.1957575"><ele>527.0</ele><time>2026-05-01T11:31:05.267Z</time></trkpt><trkpt lat="42.1849431" lon="14.1958151"><ele>526.0</ele><time>2026-05-01T11:31:06.267Z</time></trkpt><trkpt lat="42.1849968" lon="14.1958708"><ele>525.0</ele><time>2026-05-01T11:31:07.267Z</time></trkpt><trkpt lat="42.1850782" lon="14.1959905"><ele>524.0</ele><time>2026-05-01T11:31:09.267Z</time></trkpt><trkpt lat="42.185122" lon="14.1961299"><ele>523.0</ele><time>2026-05-01T11:31:11.267Z</time></trkpt><trkpt lat="42.185145" lon="14.1962283"><ele>522.0</ele><time>2026-05-01T11:31:13.267Z</time></trkpt><trkpt lat="42.18521" lon="14.19629"><ele>522.0</ele><time>2026-05-01T11:31:18.267Z</time></trkpt><trkpt lat="42.1852817" lon="14.1963117"><ele>522.0</ele><time>2026-05-01T11:31:20.268Z</time></trkpt><trkpt lat="42.1853467" lon="14.19634"><ele>522.0</ele><time>2026-05-01T11:31:22.267Z</time></trkpt><trkpt lat="42.1854167" lon="14.1963967"><ele>522.0</ele><time>2026-05-01T11:31:25.267Z</time></trkpt><trkpt lat="42.1854833" lon="14.196385"><ele>522.0</ele><time>2026-05-01T11:31:28.267Z</time></trkpt><trkpt lat="42.1855333" lon="14.1964467"><ele>522.0</ele><time>2026-05-01T11:31:31.267Z</time></trkpt><trkpt lat="42.185615" lon="14.196515"><ele>521.6666666666666</ele><time>2026-05-01T11:31:47.267Z</time></trkpt><trkpt lat="42.185685" lon="14.1965817"><ele>521.3333333333334</ele><time>2026-05-01T11:31:50.267Z</time></trkpt><trkpt lat="42.1857467" lon="14.196645"><ele>521.0</ele><time>2026-05-01T11:31:52.268Z</time></trkpt><trkpt lat="42.18582" lon="14.1967283"><ele>520.6666666666667</ele><time>2026-05-01T11:31:55.267Z</time></trkpt><trkpt lat="42.1858783" lon="14.1967683"><ele>520.3333333333334</ele><time>2026-05-01T11:31:57.267Z</time></trkpt><trkpt lat="42.1859533" lon="14.1967933"><ele>520.0</ele><time>2026-05-01T11:31:59.267Z</time></trkpt><trkpt lat="42.1860333" lon="14.1968167"><ele>520.0</ele><time>2026-05-01T11:32:01.268Z</time></trkpt><trkpt lat="42.1861233" lon="14.1968383"><ele>520.0</ele><time>2026-05-01T11:32:03.267Z</time></trkpt><trkpt lat="42.1861983" lon="14.19686"><ele>520.0</ele><time>2026-05-01T11:32:05.267Z</time></trkpt><trkpt lat="42.1862817" lon="14.1968333"><ele>520.0</ele><time>2026-05-01T11:32:08.267Z</time></trkpt><trkpt lat="42.1863567" lon="14.1968017"><ele>520.0</ele><time>2026-05-01T11:32:10.267Z</time></trkpt><trkpt lat="42.1864267" lon="14.1967983"><ele>520.0</ele><time>2026-05-01T11:32:12.267Z</time></trkpt><trkpt lat="42.18667" lon="14.19675"><ele>518.0</ele><time>2026-05-01T11:32:19.267Z</time></trkpt><trkpt lat="42.186805" lon="14.1967867"><ele>516.0</ele><time>2026-05-01T11:32:22.267Z</time></trkpt><trkpt lat="42.1868517" lon="14.1968517"><ele>514.0</ele><time>2026-05-01T11:32:23.267Z</time></trkpt><trkpt lat="42.1868983" lon="14.1969233"><ele>512.0</ele><time>2026-05-01T11:32:24.267Z</time></trkpt><trkpt lat="42.18694" lon="14.1969883"><ele>510.0</ele><time>2026-05-01T11:32:25.267Z</time></trkpt><trkpt lat="42.1870033" lon="14.1971183"><ele>510.0</ele><time>2026-05-01T11:32:27.267Z</time></trkpt><trkpt lat="42.1870417" lon="14.1971883"><ele>510.0</ele><time>2026-05-01T11:32:28.267Z</time></trkpt><trkpt lat="42.187115" lon="14.19731"><ele>510.0</ele><time>2026-05-01T11:32:30.267Z</time></trkpt><trkpt lat="42.1872033" lon="14.19743"><ele>510.0</ele><time>2026-05-01T11:32:32.267Z</time></trkpt><trkpt lat="42.1872733" lon="14.1975567"><ele>510.0</ele><time>2026-05-01T11:32:34.267Z</time></trkpt><trkpt lat="42.1873083" lon="14.1976517"><ele>512.0</ele><time>2026-05-01T11:32:36.267Z</time></trkpt><trkpt lat="42.1873117" lon="14.1977783"><ele>514.0</ele><time>2026-05-01T11:32:38.267Z</time></trkpt><trkpt lat="42.187315" lon="14.1978733"><ele>516.0</ele><time>2026-05-01T11:32:39.267Z</time></trkpt><trkpt lat="42.1873267" lon="14.1979983"><ele>518.0</ele><time>2026-05-01T11:32:40.267Z</time></trkpt><trkpt lat="42.1873417" lon="14.1981317"><ele>520.0</ele><time>2026-05-01T11:32:41.267Z</time></trkpt><trkpt lat="42.1873417" lon="14.1982983"><ele>518.75</ele><time>2026-05-01T11:32:42.267Z</time></trkpt><trkpt lat="42.1873567" lon="14.1984833"><ele>517.5</ele><time>2026-05-01T11:32:43.267Z</time></trkpt><trkpt lat="42.1873883" lon="14.1986583"><ele>516.25</ele><time>2026-05-01T11:32:44.267Z</time></trkpt><trkpt lat="42.1874333" lon="14.1988283"><ele>515.0</ele><time>2026-05-01T11:32:45.267Z</time></trkpt><trkpt lat="42.187485" lon="14.19901"><ele>515.0</ele><time>2026-05-01T11:32:46.268Z</time></trkpt><trkpt lat="42.1875317" lon="14.19918"><ele>515.0</ele><time>2026-05-01T11:32:47.267Z</time></trkpt><trkpt lat="42.1875767" lon="14.1993033"><ele>515.0</ele><time>2026-05-01T11:32:48.267Z</time></trkpt><trkpt lat="42.187615" lon="14.199455"><ele>515.0</ele><time>2026-05-01T11:32:49.267Z</time></trkpt><trkpt lat="42.1876317" lon="14.1996183"><ele>515.0</ele><time>2026-05-01T11:32:50.267Z</time></trkpt><trkpt lat="42.18764" lon="14.1997883"><ele>515.0</ele><time>2026-05-01T11:32:51.267Z</time></trkpt><trkpt lat="42.1876383" lon="14.1999683"><ele>515.0</ele><time>2026-05-01T11:32:52.267Z</time></trkpt><trkpt lat="42.18764" lon="14.2001317"><ele>515.0</ele><time>2026-05-01T11:32:53.267Z</time></trkpt><trkpt lat="42.1876733" lon="14.2003167"><ele>516.0</ele><time>2026-05-01T11:32:54.267Z</time></trkpt><trkpt lat="42.1877267" lon="14.20051"><ele>517.0</ele><time>2026-05-01T11:32:55.267Z</time></trkpt><trkpt lat="42.1878" lon="14.200685"><ele>518.0</ele><time>2026-05-01T11:32:56.267Z</time></trkpt><trkpt lat="42.1878783" lon="14.2008883"><ele>520.0</ele><time>2026-05-01T11:32:57.267Z</time></trkpt><trkpt lat="42.1879533" lon="14.2010967"><ele>522.0</ele><time>2026-05-01T11:32:58.267Z</time></trkpt><trkpt lat="42.1880417" lon="14.2013233"><ele>524.0</ele><time>2026-05-01T11:32:59.267Z</time></trkpt><trkpt lat="42.188145" lon="14.20156"><ele>523.0</ele><time>2026-05-01T11:33:00.267Z</time></trkpt><trkpt lat="42.18824" lon="14.201775"><ele>522.0</ele><time>2026-05-01T11:33:01.267Z</time></trkpt><trkpt lat="42.1883383" lon="14.20196"><ele>521.0</ele><time>2026-05-01T11:33:02.267Z</time></trkpt><trkpt lat="42.1884283" lon="14.20212"><ele>521.0</ele><time>2026-05-01T11:33:03.267Z</time></trkpt><trkpt lat="42.1885233" lon="14.20227"><ele>521.0</ele><time>2026-05-01T11:33:04.267Z</time></trkpt><trkpt lat="42.1886183" lon="14.2024133"><ele>521.0</ele><time>2026-05-01T11:33:05.267Z</time></trkpt><trkpt lat="42.18871" lon="14.2025667"><ele>521.0</ele><time>2026-05-01T11:33:06.267Z</time></trkpt><trkpt lat="42.1887933" lon="14.20272"><ele>523.75</ele><time>2026-05-01T11:33:07.267Z</time></trkpt><trkpt lat="42.1888533" lon="14.2028717"><ele>526.5</ele><time>2026-05-01T11:33:08.267Z</time></trkpt><trkpt lat="42.18891" lon="14.2030567"><ele>529.25</ele><time>2026-05-01T11:33:09.268Z</time></trkpt><trkpt lat="42.1889599" lon="14.2032711"><ele>532.0</ele><time>2026-05-01T11:33:10.267Z</time></trkpt><trkpt lat="42.1890119" lon="14.203491"><ele>532.0</ele><time>2026-05-01T11:33:11.267Z</time></trkpt><trkpt lat="42.1890621" lon="14.2037264"><ele>532.0</ele><time>2026-05-01T11:33:12.267Z</time></trkpt><trkpt lat="42.1891159" lon="14.2039666"><ele>532.0</ele><time>2026-05-01T11:33:13.268Z</time></trkpt><trkpt lat="42.1891682" lon="14.2042027"><ele>535.6666666666667</ele><time>2026-05-01T11:33:14.267Z</time></trkpt><trkpt lat="42.1892123" lon="14.204422"><ele>539.3333333333334</ele><time>2026-05-01T11:33:15.267Z</time></trkpt><trkpt lat="42.1892522" lon="14.2046255"><ele>543.0</ele><time>2026-05-01T11:33:16.267Z</time></trkpt><trkpt lat="42.1892738" lon="14.2048169"><ele>544.5</ele><time>2026-05-01T11:33:17.267Z</time></trkpt><trkpt lat="42.1892843" lon="14.2049928"><ele>546.0</ele><time>2026-05-01T11:33:18.267Z</time></trkpt><trkpt lat="42.1892908" lon="14.2051425"><ele>547.5</ele><time>2026-05-01T11:33:19.267Z</time></trkpt><trkpt lat="42.1893195" lon="14.205283"><ele>549.0</ele><time>2026-05-01T11:33:20.267Z</time></trkpt><trkpt lat="42.1893608" lon="14.2054062"><ele>549.0</ele><time>2026-05-01T11:33:21.267Z</time></trkpt><trkpt lat="42.189411" lon="14.2055035"><ele>549.0</ele><time>2026-05-01T11:33:22.267Z</time></trkpt><trkpt lat="42.1894635" lon="14.2055808"><ele>549.0</ele><time>2026-05-01T11:33:23.267Z</time></trkpt><trkpt lat="42.1895234" lon="14.2056254"><ele>549.0</ele><time>2026-05-01T11:33:24.267Z</time></trkpt><trkpt lat="42.1895856" lon="14.2056545"><ele>549.0</ele><time>2026-05-01T11:33:25.267Z</time></trkpt><trkpt lat="42.1896549" lon="14.2056754"><ele>549.0</ele><time>2026-05-01T11:33:26.267Z</time></trkpt><trkpt lat="42.1897412" lon="14.2056823"><ele>547.8</ele><time>2026-05-01T11:33:27.267Z</time></trkpt><trkpt lat="42.189844" lon="14.2056968"><ele>546.5999999999999</ele><time>2026-05-01T11:33:28.267Z</time></trkpt><trkpt lat="42.1899484" lon="14.2057254"><ele>545.4</ele><time>2026-05-01T11:33:29.267Z</time></trkpt><trkpt lat="42.1900499" lon="14.2057706"><ele>544.1999999999999</ele><time>2026-05-01T11:33:30.267Z</time></trkpt><trkpt lat="42.1901452" lon="14.205856"><ele>543.0</ele><time>2026-05-01T11:33:31.267Z</time></trkpt><trkpt lat="42.1902253" lon="14.2059686"><ele>543.0</ele><time>2026-05-01T11:33:32.268Z</time></trkpt><trkpt lat="42.1902985" lon="14.2060874"><ele>543.0</ele><time>2026-05-01T11:33:33.267Z</time></trkpt><trkpt lat="42.1903648" lon="14.2062339"><ele>543.0</ele><time>2026-05-01T11:33:34.267Z</time></trkpt><trkpt lat="42.1904254" lon="14.2064083"><ele>543.0</ele><time>2026-05-01T11:33:35.267Z</time></trkpt><trkpt lat="42.1904747" lon="14.2066029"><ele>547.0</ele><time>2026-05-01T11:33:36.267Z</time></trkpt><trkpt lat="42.1905103" lon="14.2068098"><ele>551.0</ele><time>2026-05-01T11:33:37.267Z</time></trkpt><trkpt lat="42.1905403" lon="14.2070284"><ele>555.0</ele><time>2026-05-01T11:33:38.267Z</time></trkpt><trkpt lat="42.1905598" lon="14.2072353"><ele>556.25</ele><time>2026-05-01T11:33:39.267Z</time></trkpt><trkpt lat="42.1905682" lon="14.2074269"><ele>557.5</ele><time>2026-05-01T11:33:40.267Z</time></trkpt><trkpt lat="42.1905733" lon="14.207602"><ele>558.75</ele><time>2026-05-01T11:33:41.267Z</time></trkpt><trkpt lat="42.1905766" lon="14.20775"><ele>560.0</ele><time>2026-05-01T11:33:42.267Z</time></trkpt><trkpt lat="42.1905617" lon="14.2078483"><ele>560.0</ele><time>2026-05-01T11:33:43.268Z</time></trkpt><trkpt lat="42.1905533" lon="14.207965"><ele>560.0</ele><time>2026-05-01T11:33:44.267Z</time></trkpt><trkpt lat="42.1906067" lon="14.208075"><ele>560.0</ele><time>2026-05-01T11:33:46.267Z</time></trkpt><trkpt lat="42.1906717" lon="14.2081033"><ele>560.0</ele><time>2026-05-01T11:33:47.267Z</time></trkpt><trkpt lat="42.1907467" lon="14.208105"><ele>560.0</ele><time>2026-05-01T11:33:48.267Z</time></trkpt><trkpt lat="42.1908383" lon="14.2081117"><ele>560.0</ele><time>2026-05-01T11:33:49.267Z</time></trkpt><trkpt lat="42.1909533" lon="14.208125"><ele>553.5</ele><time>2026-05-01T11:33:50.268Z</time></trkpt><trkpt lat="42.19107" lon="14.2081467"><ele>547.0</ele><time>2026-05-01T11:33:51.267Z</time></trkpt><trkpt lat="42.19119" lon="14.2081633"><ele>540.5</ele><time>2026-05-01T11:33:52.267Z</time></trkpt><trkpt lat="42.1912933" lon="14.2081767"><ele>534.0</ele><time>2026-05-01T11:33:53.267Z</time></trkpt><trkpt lat="42.191415" lon="14.2081733"><ele>531.75</ele><time>2026-05-01T11:33:54.268Z</time></trkpt><trkpt lat="42.191535" lon="14.20817"><ele>529.5</ele><time>2026-05-01T11:33:55.267Z</time></trkpt><trkpt lat="42.1916467" lon="14.20817"><ele>527.25</ele><time>2026-05-01T11:33:56.267Z</time></trkpt><trkpt lat="42.19176" lon="14.2081767"><ele>525.0</ele><time>2026-05-01T11:33:57.267Z</time></trkpt><trkpt lat="42.1918683" lon="14.2081817"><ele>525.0</ele><time>2026-05-01T11:33:58.267Z</time></trkpt><trkpt lat="42.1919717" lon="14.2081817"><ele>525.0</ele><time>2026-05-01T11:33:59.267Z</time></trkpt><trkpt lat="42.19207" lon="14.208185"><ele>525.0</ele><time>2026-05-01T11:34:00.268Z</time></trkpt><trkpt lat="42.1921633" lon="14.20817"><ele>525.0</ele><time>2026-05-01T11:34:01.267Z</time></trkpt><trkpt lat="42.1922417" lon="14.2081767"><ele>525.0</ele><time>2026-05-01T11:34:02.267Z</time></trkpt><trkpt lat="42.1923217" lon="14.2081667"><ele>523.1428571428571</ele><time>2026-05-01T11:34:03.267Z</time></trkpt><trkpt lat="42.1923933" lon="14.208145"><ele>521.2857142857142</ele><time>2026-05-01T11:34:04.267Z</time></trkpt><trkpt lat="42.1924617" lon="14.2081283"><ele>519.4285714285714</ele><time>2026-05-01T11:34:05.268Z</time></trkpt><trkpt lat="42.192535" lon="14.20811"><ele>517.5714285714286</ele><time>2026-05-01T11:34:06.267Z</time></trkpt><trkpt lat="42.1926017" lon="14.2080967"><ele>515.7142857142857</ele><time>2026-05-01T11:34:07.267Z</time></trkpt><trkpt lat="42.1926667" lon="14.20808"><ele>513.8571428571429</ele><time>2026-05-01T11:34:08.267Z</time></trkpt><trkpt lat="42.1927317" lon="14.20807"><ele>512.0</ele><time>2026-05-01T11:34:09.267Z</time></trkpt><trkpt lat="42.1928433" lon="14.208045"><ele>511.99999999999994</ele><time>2026-05-01T11:34:11.267Z</time></trkpt><trkpt lat="42.1929067" lon="14.2080317"><ele>512.0</ele><time>2026-05-01T11:34:12.267Z</time></trkpt><trkpt lat="42.1930367" lon="14.2080167"><ele>512.0</ele><time>2026-05-01T11:34:14.267Z</time></trkpt><trkpt lat="42.1931" lon="14.20801"><ele>512.0</ele><time>2026-05-01T11:34:15.267Z</time></trkpt><trkpt lat="42.1931667" lon="14.2080067"><ele>511.99999999999994</ele><time>2026-05-01T11:34:16.267Z</time></trkpt><trkpt lat="42.1932483" lon="14.2080033"><ele>512.0</ele><time>2026-05-01T11:34:17.267Z</time></trkpt><trkpt lat="42.19335" lon="14.2080017"><ele>510.40000000000003</ele><time>2026-05-01T11:34:18.267Z</time></trkpt><trkpt lat="42.1934617" lon="14.2080167"><ele>508.80000000000007</ele><time>2026-05-01T11:34:19.267Z</time></trkpt><trkpt lat="42.193565" lon="14.20802"><ele>507.2</ele><time>2026-05-01T11:34:20.267Z</time></trkpt><trkpt lat="42.1936733" lon="14.2080433"><ele>505.6</ele><time>2026-05-01T11:34:21.267Z</time></trkpt><trkpt lat="42.1937817" lon="14.2080633"><ele>504.0</ele><time>2026-05-01T11:34:22.267Z</time></trkpt><trkpt lat="42.1938967" lon="14.208085"><ele>501.75</ele><time>2026-05-01T11:34:23.267Z</time></trkpt><trkpt lat="42.194015" lon="14.20811"><ele>499.5</ele><time>2026-05-01T11:34:24.267Z</time></trkpt><trkpt lat="42.1941233" lon="14.2081483"><ele>497.25</ele><time>2026-05-01T11:34:25.267Z</time></trkpt><trkpt lat="42.1942267" lon="14.2082017"><ele>495.0</ele><time>2026-05-01T11:34:26.267Z</time></trkpt><trkpt lat="42.1943267" lon="14.2082617"><ele>495.0</ele><time>2026-05-01T11:34:27.268Z</time></trkpt><trkpt lat="42.19443" lon="14.2083383"><ele>495.0</ele><time>2026-05-01T11:34:28.267Z</time></trkpt><trkpt lat="42.1945367" lon="14.20844"><ele>495.0</ele><time>2026-05-01T11:34:29.267Z</time></trkpt><trkpt lat="42.194645" lon="14.20856"><ele>495.0</ele><time>2026-05-01T11:34:30.267Z</time></trkpt><trkpt lat="42.1947383" lon="14.2086567"><ele>495.0</ele><time>2026-05-01T11:34:31.267Z</time></trkpt><trkpt lat="42.194815" lon="14.2087517"><ele>495.0</ele><time>2026-05-01T11:34:32.267Z</time></trkpt><trkpt lat="42.1948833" lon="14.2088333"><ele>495.0</ele><time>2026-05-01T11:34:33.267Z</time></trkpt><trkpt lat="42.1949383" lon="14.2089033"><ele>495.0</ele><time>2026-05-01T11:34:34.267Z</time></trkpt><trkpt lat="42.1950383" lon="14.2089833"><ele>495.0</ele><time>2026-05-01T11:34:36.267Z</time></trkpt><trkpt lat="42.195175" lon="14.20895"><ele>492.0</ele><time>2026-05-01T11:34:38.267Z</time></trkpt><trkpt lat="42.195265" lon="14.2088867"><ele>489.0</ele><time>2026-05-01T11:34:39.267Z</time></trkpt><trkpt lat="42.1953633" lon="14.2088167"><ele>486.0</ele><time>2026-05-01T11:34:40.268Z</time></trkpt><trkpt lat="42.1954567" lon="14.208745"><ele>483.0</ele><time>2026-05-01T11:34:41.267Z</time></trkpt><trkpt lat="42.1955417" lon="14.2086683"><ele>480.0</ele><time>2026-05-01T11:34:42.267Z</time></trkpt><trkpt lat="42.1956333" lon="14.2085917"><ele>478.8</ele><time>2026-05-01T11:34:43.267Z</time></trkpt><trkpt lat="42.195715" lon="14.2085067"><ele>477.6</ele><time>2026-05-01T11:34:44.267Z</time></trkpt><trkpt lat="42.1957917" lon="14.2084233"><ele>476.4</ele><time>2026-05-01T11:34:45.267Z</time></trkpt><trkpt lat="42.19587" lon="14.2083517"><ele>475.2</ele><time>2026-05-01T11:34:46.267Z</time></trkpt><trkpt lat="42.1959517" lon="14.208315"><ele>474.0</ele><time>2026-05-01T11:34:47.267Z</time></trkpt><trkpt lat="42.19602" lon="14.2083017"><ele>474.0</ele><time>2026-05-01T11:34:48.268Z</time></trkpt><trkpt lat="42.1960967" lon="14.2083233"><ele>474.0</ele><time>2026-05-01T11:34:49.267Z</time></trkpt><trkpt lat="42.196185" lon="14.2083283"><ele>474.0</ele><time>2026-05-01T11:34:50.267Z</time></trkpt><trkpt lat="42.1962683" lon="14.2083217"><ele>474.0</ele><time>2026-05-01T11:34:51.267Z</time></trkpt><trkpt lat="42.1963567" lon="14.2083017"><ele>474.0</ele><time>2026-05-01T11:34:52.267Z</time></trkpt><trkpt lat="42.1964467" lon="14.2082717"><ele>474.0</ele><time>2026-05-01T11:34:53.267Z</time></trkpt><trkpt lat="42.19654" lon="14.208245"><ele>471.4</ele><time>2026-05-01T11:34:54.267Z</time></trkpt><trkpt lat="42.1966283" lon="14.20822"><ele>468.79999999999995</ele><time>2026-05-01T11:34:55.267Z</time></trkpt><trkpt lat="42.1967183" lon="14.2081983"><ele>466.20000000000005</ele><time>2026-05-01T11:34:56.267Z</time></trkpt><trkpt lat="42.196805" lon="14.20817"><ele>463.6</ele><time>2026-05-01T11:34:57.267Z</time></trkpt><trkpt lat="42.1969017" lon="14.208125"><ele>461.0</ele><time>2026-05-01T11:34:58.267Z</time></trkpt><trkpt lat="42.1969883" lon="14.2080883"><ele>459.66666666666663</ele><time>2026-05-01T11:34:59.268Z</time></trkpt><trkpt lat="42.1970667" lon="14.208055"><ele>458.3333333333333</ele><time>2026-05-01T11:35:00.268Z</time></trkpt><trkpt lat="42.1971483" lon="14.208035"><ele>457.0</ele><time>2026-05-01T11:35:01.267Z</time></trkpt><trkpt lat="42.1972367" lon="14.20803"><ele>455.66666666666663</ele><time>2026-05-01T11:35:02.267Z</time></trkpt><trkpt lat="42.1973183" lon="14.2080317"><ele>454.3333333333333</ele><time>2026-05-01T11:35:03.267Z</time></trkpt><trkpt lat="42.1974017" lon="14.20806"><ele>453.0</ele><time>2026-05-01T11:35:04.267Z</time></trkpt><trkpt lat="42.197485" lon="14.2080983"><ele>452.2</ele><time>2026-05-01T11:35:05.267Z</time></trkpt><trkpt lat="42.1975683" lon="14.2081467"><ele>451.4</ele><time>2026-05-01T11:35:06.268Z</time></trkpt><trkpt lat="42.1976483" lon="14.2081983"><ele>450.59999999999997</ele><time>2026-05-01T11:35:07.267Z</time></trkpt><trkpt lat="42.1977333" lon="14.2082283"><ele>449.79999999999995</ele><time>2026-05-01T11:35:08.267Z</time></trkpt><trkpt lat="42.1978267" lon="14.2082617"><ele>449.0</ele><time>2026-05-01T11:35:09.267Z</time></trkpt><trkpt lat="42.1979233" lon="14.2082917"><ele>449.0</ele><time>2026-05-01T11:35:10.268Z</time></trkpt><trkpt lat="42.19802" lon="14.2083183"><ele>449.0</ele><time>2026-05-01T11:35:11.267Z</time></trkpt><trkpt lat="42.19811" lon="14.2083433"><ele>449.0</ele><time>2026-05-01T11:35:12.267Z</time></trkpt><trkpt lat="42.1982017" lon="14.2083717"><ele>449.0</ele><time>2026-05-01T11:35:13.267Z</time></trkpt><trkpt lat="42.1982933" lon="14.2084017"><ele>449.0</ele><time>2026-05-01T11:35:14.267Z</time></trkpt><trkpt lat="42.19839" lon="14.2084233"><ele>446.0</ele><time>2026-05-01T11:35:15.267Z</time></trkpt><trkpt lat="42.1984983" lon="14.208435"><ele>443.0</ele><time>2026-05-01T11:35:16.267Z</time></trkpt><trkpt lat="42.1985983" lon="14.2084367"><ele>440.0</ele><time>2026-05-01T11:35:17.267Z</time></trkpt><trkpt lat="42.1986933" lon="14.20844"><ele>437.0</ele><time>2026-05-01T11:35:18.267Z</time></trkpt><trkpt lat="42.19877" lon="14.20844"><ele>434.0</ele><time>2026-05-01T11:35:19.267Z</time></trkpt><trkpt lat="42.1988417" lon="14.2084467"><ele>434.0</ele><time>2026-05-01T11:35:20.267Z</time></trkpt><trkpt lat="42.1989567" lon="14.2084667"><ele>434.0</ele><time>2026-05-01T11:35:22.267Z</time></trkpt><trkpt lat="42.1990467" lon="14.2084267"><ele>434.0</ele><time>2026-05-01T11:35:24.267Z</time></trkpt><trkpt lat="42.1990829" lon="14.208308"><ele>434.0</ele><time>2026-05-01T11:35:26.267Z</time></trkpt><trkpt lat="42.1990698" lon="14.2082182"><ele>434.0</ele><time>2026-05-01T11:35:27.267Z</time></trkpt><trkpt lat="42.1990397" lon="14.2081085"><ele>431.6</ele><time>2026-05-01T11:35:28.267Z</time></trkpt><trkpt lat="42.1990029" lon="14.2079918"><ele>429.2</ele><time>2026-05-01T11:35:29.267Z</time></trkpt><trkpt lat="42.1989781" lon="14.2078673"><ele>426.8</ele><time>2026-05-01T11:35:30.267Z</time></trkpt><trkpt lat="42.1989625" lon="14.2077388"><ele>424.40000000000003</ele><time>2026-05-01T11:35:31.267Z</time></trkpt><trkpt lat="42.1989653" lon="14.2075993"><ele>422.0</ele><time>2026-05-01T11:35:32.267Z</time></trkpt><trkpt lat="42.198982" lon="14.2074832"><ele>421.6</ele><time>2026-05-01T11:35:33.267Z</time></trkpt><trkpt lat="42.1990286" lon="14.2073585"><ele>421.20000000000005</ele><time>2026-05-01T11:35:34.267Z</time></trkpt><trkpt lat="42.1990929" lon="14.2072355"><ele>420.8</ele><time>2026-05-01T11:35:35.267Z</time></trkpt><trkpt lat="42.199155" lon="14.2071306"><ele>420.4</ele><time>2026-05-01T11:35:36.268Z</time></trkpt><trkpt lat="42.1992118" lon="14.2070483"><ele>420.0</ele><time>2026-05-01T11:35:37.267Z</time></trkpt><trkpt lat="42.199261" lon="14.2069852"><ele>420.0</ele><time>2026-05-01T11:35:38.267Z</time></trkpt><trkpt lat="42.1993589" lon="14.2069181"><ele>420.0</ele><time>2026-05-01T11:35:40.267Z</time></trkpt><trkpt lat="42.1994718" lon="14.2069125"><ele>420.0</ele><time>2026-05-01T11:35:42.267Z</time></trkpt><trkpt lat="42.199603" lon="14.2069432"><ele>420.0</ele><time>2026-05-01T11:35:44.267Z</time></trkpt><trkpt lat="42.1996784" lon="14.2069675"><ele>420.0</ele><time>2026-05-01T11:35:45.268Z</time></trkpt><trkpt lat="42.1997511" lon="14.2070019"><ele>420.0</ele><time>2026-05-01T11:35:46.267Z</time></trkpt><trkpt lat="42.199815" lon="14.2070418"><ele>420.0</ele><time>2026-05-01T11:35:47.267Z</time></trkpt><trkpt lat="42.1998726" lon="14.2070894"><ele>420.0</ele><time>2026-05-01T11:35:48.268Z</time></trkpt><trkpt lat="42.1999259" lon="14.2071449"><ele>420.0</ele><time>2026-05-01T11:35:49.267Z</time></trkpt><trkpt lat="42.1999799" lon="14.2071939"><ele>420.0</ele><time>2026-05-01T11:35:50.267Z</time></trkpt><trkpt lat="42.200085" lon="14.2072534"><ele>420.0</ele><time>2026-05-01T11:35:52.267Z</time></trkpt><trkpt lat="42.2001483" lon="14.20726"><ele>420.0</ele><time>2026-05-01T11:35:54.267Z</time></trkpt><trkpt lat="42.20021" lon="14.2072917"><ele>419.8</ele><time>2026-05-01T11:35:56.267Z</time></trkpt><trkpt lat="42.2003183" lon="14.2073467"><ele>419.6</ele><time>2026-05-01T11:35:58.267Z</time></trkpt><trkpt lat="42.2004433" lon="14.2073567"><ele>419.4</ele><time>2026-05-01T11:36:00.267Z</time></trkpt><trkpt lat="42.2005483" lon="14.2073417"><ele>419.2</ele><time>2026-05-01T11:36:02.267Z</time></trkpt><trkpt lat="42.20061" lon="14.2073683"><ele>419.0</ele><time>2026-05-01T11:36:04.267Z</time></trkpt><trkpt lat="42.2006417" lon="14.207445"><ele>418.99999999999994</ele><time>2026-05-01T11:36:06.267Z</time></trkpt><trkpt lat="42.2006617" lon="14.2075683"><ele>419.0</ele><time>2026-05-01T11:36:08.267Z</time></trkpt><trkpt lat="42.2006967" lon="14.2077017"><ele>419.0</ele><time>2026-05-01T11:36:10.267Z</time></trkpt><trkpt lat="42.20069" lon="14.2077883"><ele>419.0</ele><time>2026-05-01T11:36:12.267Z</time></trkpt><trkpt lat="42.20062" lon="14.20784"><ele>418.99999999999994</ele><time>2026-05-01T11:36:14.267Z</time></trkpt><trkpt lat="42.200545" lon="14.2078733"><ele>419.0</ele><time>2026-05-01T11:36:17.267Z</time></trkpt><trkpt lat="42.2005133" lon="14.2079717"><ele>418.99999999999994</ele><time>2026-05-01T11:36:19.267Z</time></trkpt><trkpt lat="42.2005583" lon="14.2080617"><ele>419.0</ele><time>2026-05-01T11:36:20.267Z</time></trkpt><trkpt lat="42.2005767" lon="14.2081433"><ele>419.0</ele><time>2026-05-01T11:36:21.267Z</time></trkpt><trkpt lat="42.2006133" lon="14.2082567"><ele>419.0</ele><time>2026-05-01T11:36:23.267Z</time></trkpt><trkpt lat="42.20063" lon="14.20836"><ele>418.99999999999994</ele><time>2026-05-01T11:36:25.267Z</time></trkpt><trkpt lat="42.20061" lon="14.2085317"><ele>419.0</ele><time>2026-05-01T11:36:27.267Z</time></trkpt><trkpt lat="42.2006" lon="14.2086267"><ele>418.49999999999994</ele><time>2026-05-01T11:36:28.267Z</time></trkpt><trkpt lat="42.2005967" lon="14.2087167"><ele>418.0</ele><time>2026-05-01T11:36:29.267Z</time></trkpt><trkpt lat="42.2005967" lon="14.2088117"><ele>417.5</ele><time>2026-05-01T11:36:30.267Z</time></trkpt><trkpt lat="42.2006017" lon="14.2089533"><ele>417.0</ele><time>2026-05-01T11:36:32.268Z</time></trkpt><trkpt lat="42.200635" lon="14.2090917"><ele>416.49999999999994</ele><time>2026-05-01T11:36:34.267Z</time></trkpt><trkpt lat="42.200675" lon="14.2091883"><ele>416.0</ele><time>2026-05-01T11:36:36.267Z</time></trkpt><trkpt lat="42.2006983" lon="14.2093033"><ele>416.0</ele><time>2026-05-01T11:36:38.267Z</time></trkpt><trkpt lat="42.2007167" lon="14.2094267"><ele>416.0</ele><time>2026-05-01T11:36:40.267Z</time></trkpt><trkpt lat="42.20077" lon="14.209495"><ele>416.0</ele><time>2026-05-01T11:36:42.267Z</time></trkpt><trkpt lat="42.2008517" lon="14.209505"><ele>416.0</ele><time>2026-05-01T11:36:44.267Z</time></trkpt><trkpt lat="42.200915" lon="14.209495"><ele>416.0</ele><time>2026-05-01T11:36:45.267Z</time></trkpt><trkpt lat="42.20098" lon="14.2094767"><ele>416.0</ele><time>2026-05-01T11:36:46.267Z</time></trkpt><trkpt lat="42.2010433" lon="14.209445"><ele>416.0</ele><time>2026-05-01T11:36:47.267Z</time></trkpt><trkpt lat="42.2011067" lon="14.2094267"><ele>416.0</ele><time>2026-05-01T11:36:48.267Z</time></trkpt><trkpt lat="42.201225" lon="14.209445"><ele>416.0</ele><time>2026-05-01T11:36:50.267Z</time></trkpt><trkpt lat="42.20136" lon="14.2094667"><ele>416.0</ele><time>2026-05-01T11:36:52.268Z</time></trkpt><trkpt lat="42.2014283" lon="14.20948"><ele>416.0</ele><time>2026-05-01T11:36:53.267Z</time></trkpt><trkpt lat="42.2015083" lon="14.2094883"><ele>416.0</ele><time>2026-05-01T11:36:54.267Z</time></trkpt><trkpt lat="42.2015967" lon="14.2094817"><ele>415.66666666666663</ele><time>2026-05-01T11:36:55.267Z</time></trkpt><trkpt lat="42.201665" lon="14.2094617"><ele>415.3333333333333</ele><time>2026-05-01T11:36:56.267Z</time></trkpt><trkpt lat="42.2017383" lon="14.2094433"><ele>415.0</ele><time>2026-05-01T11:36:57.267Z</time></trkpt><trkpt lat="42.2018083" lon="14.2094333"><ele>414.66666666666663</ele><time>2026-05-01T11:36:58.267Z</time></trkpt><trkpt lat="42.201875" lon="14.2094183"><ele>414.3333333333333</ele><time>2026-05-01T11:36:59.267Z</time></trkpt><trkpt lat="42.20199" lon="14.2093883"><ele>414.0</ele><time>2026-05-01T11:37:01.267Z</time></trkpt><trkpt lat="42.2021017" lon="14.2093883"><ele>414.0</ele><time>2026-05-01T11:37:03.267Z</time></trkpt><trkpt lat="42.2022117" lon="14.2094183"><ele>414.0</ele><time>2026-05-01T11:37:05.268Z</time></trkpt><trkpt lat="42.20232" lon="14.20948"><ele>414.0</ele><time>2026-05-01T11:37:07.267Z</time></trkpt><trkpt lat="42.2024317" lon="14.2095383"><ele>414.0</ele><time>2026-05-01T11:37:09.267Z</time></trkpt><trkpt lat="42.2025" lon="14.209565"><ele>414.0</ele><time>2026-05-01T11:37:10.267Z</time></trkpt><trkpt lat="42.2026" lon="14.2095933"><ele>413.25</ele><time>2026-05-01T11:37:12.267Z</time></trkpt><trkpt lat="42.202715" lon="14.2096167"><ele>412.5</ele><time>2026-05-01T11:37:14.267Z</time></trkpt><trkpt lat="42.2028167" lon="14.2096483"><ele>411.75</ele><time>2026-05-01T11:37:16.267Z</time></trkpt><trkpt lat="42.2029233" lon="14.2096983"><ele>411.0</ele><time>2026-05-01T11:37:18.267Z</time></trkpt><trkpt lat="42.203035" lon="14.20975"><ele>411.0</ele><time>2026-05-01T11:37:20.267Z</time></trkpt><trkpt lat="42.2031367" lon="14.2097883"><ele>411.0</ele><time>2026-05-01T11:37:22.267Z</time></trkpt><trkpt lat="42.2032383" lon="14.20981"><ele>411.0</ele><time>2026-05-01T11:37:24.267Z</time></trkpt><trkpt lat="42.203375" lon="14.2098317"><ele>411.0</ele><time>2026-05-01T11:37:26.267Z</time></trkpt><trkpt lat="42.2034417" lon="14.2098433"><ele>411.0</ele><time>2026-05-01T11:37:27.267Z</time></trkpt><trkpt lat="42.2035167" lon="14.209855"><ele>410.6</ele><time>2026-05-01T11:37:28.267Z</time></trkpt><trkpt lat="42.203585" lon="14.2098533"><ele>410.20000000000005</ele><time>2026-05-01T11:37:29.267Z</time></trkpt><trkpt lat="42.203685" lon="14.20986"><ele>409.79999999999995</ele><time>2026-05-01T11:37:31.267Z</time></trkpt><trkpt lat="42.203765" lon="14.2098133"><ele>409.4</ele><time>2026-05-01T11:37:33.267Z</time></trkpt><trkpt lat="42.2038367" lon="14.2097467"><ele>409.0</ele><time>2026-05-01T11:37:35.267Z</time></trkpt><trkpt lat="42.2039283" lon="14.2096717"><ele>409.00000000000006</ele><time>2026-05-01T11:37:37.267Z</time></trkpt><trkpt lat="42.203985" lon="14.2096217"><ele>409.0</ele><time>2026-05-01T11:37:38.267Z</time></trkpt><trkpt lat="42.2040383" lon="14.2095717"><ele>409.0</ele><time>2026-05-01T11:37:39.267Z</time></trkpt><trkpt lat="42.2041317" lon="14.2095317"><ele>409.0</ele><time>2026-05-01T11:37:41.267Z</time></trkpt><trkpt lat="42.2042117" lon="14.2095333"><ele>409.00000000000006</ele><time>2026-05-01T11:37:43.267Z</time></trkpt><trkpt lat="42.2042833" lon="14.2095667"><ele>409.0</ele><time>2026-05-01T11:37:45.267Z</time></trkpt><trkpt lat="42.2043633" lon="14.2096167"><ele>408.2</ele><time>2026-05-01T11:37:47.268Z</time></trkpt><trkpt lat="42.2044517" lon="14.20968"><ele>407.4</ele><time>2026-05-01T11:37:49.267Z</time></trkpt><trkpt lat="42.2045033" lon="14.2097367"><ele>406.6</ele><time>2026-05-01T11:37:50.267Z</time></trkpt><trkpt lat="42.2045467" lon="14.2098"><ele>405.8</ele><time>2026-05-01T11:37:51.267Z</time></trkpt><trkpt lat="42.2046367" lon="14.2099067"><ele>405.0</ele><time>2026-05-01T11:37:53.267Z</time></trkpt><trkpt lat="42.2047033" lon="14.2100117"><ele>403.6</ele><time>2026-05-01T11:37:55.267Z</time></trkpt><trkpt lat="42.2047683" lon="14.210105"><ele>402.2</ele><time>2026-05-01T11:37:57.268Z</time></trkpt><trkpt lat="42.2048517" lon="14.2102067"><ele>400.79999999999995</ele><time>2026-05-01T11:37:59.266Z</time></trkpt><trkpt lat="42.20493" lon="14.2102983"><ele>399.4</ele><time>2026-05-01T11:38:01.267Z</time></trkpt><trkpt lat="42.2050333" lon="14.2103833"><ele>398.0</ele><time>2026-05-01T11:38:03.267Z</time></trkpt><trkpt lat="42.2051317" lon="14.21042"><ele>397.99999999999994</ele><time>2026-05-01T11:38:05.267Z</time></trkpt><trkpt lat="42.205195" lon="14.2104267"><ele>398.0</ele><time>2026-05-01T11:38:06.267Z</time></trkpt><trkpt lat="42.2052667" lon="14.2104233"><ele>398.0</ele><time>2026-05-01T11:38:07.267Z</time></trkpt><trkpt lat="42.205405" lon="14.2104333"><ele>398.0</ele><time>2026-05-01T11:38:09.267Z</time></trkpt><trkpt lat="42.2054683" lon="14.2104567"><ele>397.99999999999994</ele><time>2026-05-01T11:38:10.267Z</time></trkpt><trkpt lat="42.2055617" lon="14.2105283"><ele>398.0</ele><time>2026-05-01T11:38:12.268Z</time></trkpt><trkpt lat="42.2056467" lon="14.2105833"><ele>394.79999999999995</ele><time>2026-05-01T11:38:14.267Z</time></trkpt><trkpt lat="42.2057667" lon="14.2106633"><ele>391.6</ele><time>2026-05-01T11:38:16.267Z</time></trkpt><trkpt lat="42.2058267" lon="14.2107233"><ele>388.4</ele><time>2026-05-01T11:38:17.268Z</time></trkpt><trkpt lat="42.2058767" lon="14.210775"><ele>385.20000000000005</ele><time>2026-05-01T11:38:18.267Z</time></trkpt><trkpt lat="42.2059583" lon="14.210855"><ele>382.0</ele><time>2026-05-01T11:38:20.268Z</time></trkpt><trkpt lat="42.2060567" lon="14.210885"><ele>382.0</ele><time>2026-05-01T11:38:22.267Z</time></trkpt><trkpt lat="42.2061433" lon="14.2108767"><ele>382.0</ele><time>2026-05-01T11:38:24.267Z</time></trkpt><trkpt lat="42.2062217" lon="14.2108267"><ele>382.0</ele><time>2026-05-01T11:38:26.267Z</time></trkpt><trkpt lat="42.206265" lon="14.21074"><ele>382.0</ele><time>2026-05-01T11:38:28.268Z</time></trkpt><trkpt lat="42.206345" lon="14.21064"><ele>382.0</ele><time>2026-05-01T11:38:30.268Z</time></trkpt><trkpt lat="42.2064017" lon="14.2105917"><ele>382.0</ele><time>2026-05-01T11:38:31.268Z</time></trkpt><trkpt lat="42.2065167" lon="14.2105533"><ele>381.8333333333333</ele><time>2026-05-01T11:38:33.267Z</time></trkpt><trkpt lat="42.20658" lon="14.210555"><ele>381.66666666666663</ele><time>2026-05-01T11:38:34.267Z</time></trkpt><trkpt lat="42.2066467" lon="14.2105483"><ele>381.5</ele><time>2026-05-01T11:38:35.267Z</time></trkpt><trkpt lat="42.2067467" lon="14.2106117"><ele>381.3333333333333</ele><time>2026-05-01T11:38:37.267Z</time></trkpt><trkpt lat="42.2068" lon="14.2106667"><ele>381.1666666666667</ele><time>2026-05-01T11:38:38.267Z</time></trkpt><trkpt lat="42.2068533" lon="14.2107267"><ele>381.0</ele><time>2026-05-01T11:38:39.267Z</time></trkpt><trkpt lat="42.2069567" lon="14.21082"><ele>381.0</ele><time>2026-05-01T11:38:41.267Z</time></trkpt><trkpt lat="42.207015" lon="14.2108867"><ele>381.0</ele><time>2026-05-01T11:38:42.267Z</time></trkpt><trkpt lat="42.2070917" lon="14.2110017"><ele>381.0</ele><time>2026-05-01T11:38:44.267Z</time></trkpt><trkpt lat="42.2071717" lon="14.2110883"><ele>381.0</ele><time>2026-05-01T11:38:46.267Z</time></trkpt><trkpt lat="42.207285" lon="14.2111183"><ele>381.0</ele><time>2026-05-01T11:38:48.267Z</time></trkpt><trkpt lat="42.20735" lon="14.2111267"><ele>381.0</ele><time>2026-05-01T11:38:49.267Z</time></trkpt><trkpt lat="42.2074433" lon="14.21117"><ele>381.0</ele><time>2026-05-01T11:38:51.267Z</time></trkpt><trkpt lat="42.2075367" lon="14.2112083"><ele>381.0</ele><time>2026-05-01T11:38:53.267Z</time></trkpt><trkpt lat="42.207635" lon="14.2112133"><ele>381.0</ele><time>2026-05-01T11:38:55.268Z</time></trkpt><trkpt lat="42.2077283" lon="14.2112183"><ele>381.0</ele><time>2026-05-01T11:38:57.267Z</time></trkpt><trkpt lat="42.2078017" lon="14.2112683"><ele>381.0</ele><time>2026-05-01T11:38:59.267Z</time></trkpt><trkpt lat="42.207875" lon="14.2113117"><ele>381.0</ele><time>2026-05-01T11:39:01.267Z</time></trkpt><trkpt lat="42.207965" lon="14.2113483"><ele>381.0</ele><time>2026-05-01T11:39:03.267Z</time></trkpt><trkpt lat="42.2080683" lon="14.2113867"><ele>381.0</ele><time>2026-05-01T11:39:05.267Z</time></trkpt><trkpt lat="42.208175" lon="14.2114333"><ele>381.0</ele><time>2026-05-01T11:39:07.266Z</time></trkpt><trkpt lat="42.2082383" lon="14.2114633"><ele>379.3333333333333</ele><time>2026-05-01T11:39:08.266Z</time></trkpt><trkpt lat="42.2082933" lon="14.211505"><ele>377.6666666666667</ele><time>2026-05-01T11:39:09.267Z</time></trkpt><trkpt lat="42.2083967" lon="14.21156"><ele>376.0</ele><time>2026-05-01T11:39:11.266Z</time></trkpt><trkpt lat="42.2084983" lon="14.21155"><ele>374.33333333333337</ele><time>2026-05-01T11:39:13.266Z</time></trkpt><trkpt lat="42.2085617" lon="14.2115433"><ele>372.6666666666667</ele><time>2026-05-01T11:39:14.266Z</time></trkpt><trkpt lat="42.2086283" lon="14.21155"><ele>371.0</ele><time>2026-05-01T11:39:15.266Z</time></trkpt><trkpt lat="42.2086917" lon="14.2115617"><ele>371.0</ele><time>2026-05-01T11:39:16.266Z</time></trkpt><trkpt lat="42.2087883" lon="14.21163"><ele>371.0</ele><time>2026-05-01T11:39:18.266Z</time></trkpt><trkpt lat="42.2088383" lon="14.2116867"><ele>371.0</ele><time>2026-05-01T11:39:19.266Z</time></trkpt><trkpt lat="42.20889" lon="14.211805"><ele>371.0</ele><time>2026-05-01T11:39:21.266Z</time></trkpt><trkpt lat="42.2089667" lon="14.2119083"><ele>371.0</ele><time>2026-05-01T11:39:23.266Z</time></trkpt><trkpt lat="42.2090217" lon="14.21196"><ele>370.83333333333337</ele><time>2026-05-01T11:39:24.266Z</time></trkpt><trkpt lat="42.209085" lon="14.212005"><ele>370.6666666666667</ele><time>2026-05-01T11:39:25.266Z</time></trkpt><trkpt lat="42.2091433" lon="14.2120383"><ele>370.5</ele><time>2026-05-01T11:39:26.267Z</time></trkpt><trkpt lat="42.2092033" lon="14.2120717"><ele>370.3333333333333</ele><time>2026-05-01T11:39:27.266Z</time></trkpt><trkpt lat="42.2092667" lon="14.2121033"><ele>370.16666666666663</ele><time>2026-05-01T11:39:28.266Z</time></trkpt><trkpt lat="42.2093317" lon="14.2121383"><ele>370.0</ele><time>2026-05-01T11:39:29.266Z</time></trkpt><trkpt lat="42.2094467" lon="14.2121967"><ele>370.0</ele><time>2026-05-01T11:39:31.266Z</time></trkpt><trkpt lat="42.2095567" lon="14.2122467"><ele>370.0</ele><time>2026-05-01T11:39:33.266Z</time></trkpt><trkpt lat="42.2096467" lon="14.212285"><ele>370.0</ele><time>2026-05-01T11:39:35.266Z</time></trkpt><trkpt lat="42.2097317" lon="14.212295"><ele>370.0</ele><time>2026-05-01T11:39:37.266Z</time></trkpt><trkpt lat="42.2098017" lon="14.2122717"><ele>370.0</ele><time>2026-05-01T11:39:39.266Z</time></trkpt><trkpt lat="42.2098683" lon="14.2122467"><ele>370.0</ele><time>2026-05-01T11:39:41.266Z</time></trkpt><trkpt lat="42.20994" lon="14.2122467"><ele>369.3333333333333</ele><time>2026-05-01T11:39:45.266Z</time></trkpt><trkpt lat="42.2099417" lon="14.2124"><ele>368.66666666666663</ele><time>2026-05-01T11:39:47.266Z</time></trkpt><trkpt lat="42.20992" lon="14.2125"><ele>368.0</ele><time>2026-05-01T11:39:48.266Z</time></trkpt><trkpt lat="42.2098826" lon="14.2125938"><ele>367.3333333333333</ele><time>2026-05-01T11:39:49.266Z</time></trkpt><trkpt lat="42.2098454" lon="14.2126775"><ele>366.6666666666667</ele><time>2026-05-01T11:39:50.266Z</time></trkpt><trkpt lat="42.2097884" lon="14.2127494"><ele>366.0</ele><time>2026-05-01T11:39:51.266Z</time></trkpt><trkpt lat="42.2097211" lon="14.2128062"><ele>366.0</ele><time>2026-05-01T11:39:52.266Z</time></trkpt><trkpt lat="42.2096466" lon="14.2128604"><ele>366.0</ele><time>2026-05-01T11:39:53.266Z</time></trkpt><trkpt lat="42.2095851" lon="14.2129252"><ele>366.0</ele><time>2026-05-01T11:39:54.266Z</time></trkpt><trkpt lat="42.2095504" lon="14.2130016"><ele>366.0</ele><time>2026-05-01T11:39:55.266Z</time></trkpt><trkpt lat="42.2095465" lon="14.2131021"><ele>366.0</ele><time>2026-05-01T11:39:56.266Z</time></trkpt><trkpt lat="42.2095627" lon="14.2132148"><ele>366.0</ele><time>2026-05-01T11:39:57.266Z</time></trkpt><trkpt lat="42.2096013" lon="14.213333"><ele>365.0</ele><time>2026-05-01T11:39:58.266Z</time></trkpt><trkpt lat="42.209646" lon="14.2134579"><ele>364.0</ele><time>2026-05-01T11:39:59.267Z</time></trkpt><trkpt lat="42.209712" lon="14.2136102"><ele>363.0</ele><time>2026-05-01T11:40:00.266Z</time></trkpt><trkpt lat="42.2097668" lon="14.2137819"><ele>362.0</ele><time>2026-05-01T11:40:01.266Z</time></trkpt><trkpt lat="42.2098044" lon="14.2139535"><ele>361.0</ele><time>2026-05-01T11:40:02.266Z</time></trkpt><trkpt lat="42.2098465" lon="14.2141191"><ele>360.0</ele><time>2026-05-01T11:40:03.266Z</time></trkpt><trkpt lat="42.2099132" lon="14.214243"><ele>359.0</ele><time>2026-05-01T11:40:04.266Z</time></trkpt><trkpt lat="42.2100062" lon="14.2143307"><ele>358.0</ele><time>2026-05-01T11:40:05.266Z</time></trkpt><trkpt lat="42.2100941" lon="14.2143983"><ele>358.0</ele><time>2026-05-01T11:40:06.266Z</time></trkpt><trkpt lat="42.2101862" lon="14.2144625"><ele>358.0</ele><time>2026-05-01T11:40:07.266Z</time></trkpt><trkpt lat="42.2102398" lon="14.214563"><ele>358.0</ele><time>2026-05-01T11:40:08.266Z</time></trkpt><trkpt lat="42.2102547" lon="14.21468"><ele>358.0</ele><time>2026-05-01T11:40:09.266Z</time></trkpt><trkpt lat="42.2102558" lon="14.2147899"><ele>358.0</ele><time>2026-05-01T11:40:10.266Z</time></trkpt><trkpt lat="42.2102295" lon="14.2148862"><ele>358.0</ele><time>2026-05-01T11:40:11.266Z</time></trkpt><trkpt lat="42.2101706" lon="14.2149906"><ele>359.5</ele><time>2026-05-01T11:40:13.266Z</time></trkpt><trkpt lat="42.2100967" lon="14.214995"><ele>361.0</ele><time>2026-05-01T11:40:15.266Z</time></trkpt><trkpt lat="42.2100067" lon="14.2149933"><ele>362.5</ele><time>2026-05-01T11:40:17.266Z</time></trkpt><trkpt lat="42.209895" lon="14.21499"><ele>364.0</ele><time>2026-05-01T11:40:19.266Z</time></trkpt><trkpt lat="42.2098283" lon="14.214985"><ele>365.5</ele><time>2026-05-01T11:40:20.266Z</time></trkpt><trkpt lat="42.2097617" lon="14.2149717"><ele>367.0</ele><time>2026-05-01T11:40:21.266Z</time></trkpt><trkpt lat="42.2096933" lon="14.2149617"><ele>368.57142857142856</ele><time>2026-05-01T11:40:22.266Z</time></trkpt><trkpt lat="42.2096183" lon="14.2149433"><ele>370.14285714285717</ele><time>2026-05-01T11:40:23.266Z</time></trkpt><trkpt lat="42.2095533" lon="14.214935"><ele>371.7142857142857</ele><time>2026-05-01T11:40:24.266Z</time></trkpt><trkpt lat="42.20949" lon="14.2149317"><ele>373.2857142857143</ele><time>2026-05-01T11:40:25.266Z</time></trkpt><trkpt lat="42.2094233" lon="14.214925"><ele>374.8571428571429</ele><time>2026-05-01T11:40:26.267Z</time></trkpt><trkpt lat="42.2093533" lon="14.21492"><ele>376.42857142857144</ele><time>2026-05-01T11:40:27.266Z</time></trkpt><trkpt lat="42.2092883" lon="14.214915"><ele>378.0</ele><time>2026-05-01T11:40:28.266Z</time></trkpt><trkpt lat="42.2092217" lon="14.21491"><ele>378.0</ele><time>2026-05-01T11:40:29.266Z</time></trkpt><trkpt lat="42.2091517" lon="14.2148917"><ele>378.0</ele><time>2026-05-01T11:40:30.266Z</time></trkpt><trkpt lat="42.2090817" lon="14.2148683"><ele>378.0</ele><time>2026-05-01T11:40:31.266Z</time></trkpt><trkpt lat="42.2090183" lon="14.2148417"><ele>378.0</ele><time>2026-05-01T11:40:32.266Z</time></trkpt><trkpt lat="42.208935" lon="14.2147617"><ele>378.0</ele><time>2026-05-01T11:40:34.266Z</time></trkpt><trkpt lat="42.20889" lon="14.21466"><ele>378.0</ele><time>2026-05-01T11:40:36.266Z</time></trkpt><trkpt lat="42.20886" lon="14.2145417"><ele>378.0</ele><time>2026-05-01T11:40:38.267Z</time></trkpt><trkpt lat="42.2088517" lon="14.2144083"><ele>378.0</ele><time>2026-05-01T11:40:40.266Z</time></trkpt><trkpt lat="42.2088333" lon="14.2142933"><ele>378.0</ele><time>2026-05-01T11:40:42.266Z</time></trkpt><trkpt lat="42.2088217" lon="14.21418"><ele>378.0</ele><time>2026-05-01T11:40:44.266Z</time></trkpt><trkpt lat="42.2088167" lon="14.214065"><ele>378.0</ele><time>2026-05-01T11:40:46.266Z</time></trkpt><trkpt lat="42.2087883" lon="14.2139533"><ele>378.0</ele><time>2026-05-01T11:40:48.266Z</time></trkpt><trkpt lat="42.208735" lon="14.2138733"><ele>378.0</ele><time>2026-05-01T11:40:50.266Z</time></trkpt><trkpt lat="42.2086683" lon="14.2138"><ele>378.0</ele><time>2026-05-01T11:40:52.266Z</time></trkpt><trkpt lat="42.2085867" lon="14.213735"><ele>378.0</ele><time>2026-05-01T11:40:54.266Z</time></trkpt><trkpt lat="42.2085317" lon="14.2136883"><ele>378.0</ele><time>2026-05-01T11:40:55.266Z</time></trkpt><trkpt lat="42.2084767" lon="14.2136267"><ele>378.0</ele><time>2026-05-01T11:40:56.266Z</time></trkpt><trkpt lat="42.2084267" lon="14.21356"><ele>378.0</ele><time>2026-05-01T11:40:57.266Z</time></trkpt><trkpt lat="42.2083417" lon="14.2134517"><ele>378.0</ele><time>2026-05-01T11:40:59.266Z</time></trkpt><trkpt lat="42.20825" lon="14.21338"><ele>378.0</ele><time>2026-05-01T11:41:01.266Z</time></trkpt><trkpt lat="42.2081667" lon="14.2133367"><ele>378.0</ele><time>2026-05-01T11:41:03.266Z</time></trkpt><trkpt lat="42.20807" lon="14.2133067"><ele>378.0</ele><time>2026-05-01T11:41:05.266Z</time></trkpt><trkpt lat="42.2079733" lon="14.2132933"><ele>378.0</ele><time>2026-05-01T11:41:07.266Z</time></trkpt><trkpt lat="42.2078667" lon="14.213295"><ele>380.59999999999997</ele><time>2026-05-01T11:41:09.267Z</time></trkpt><trkpt lat="42.2078033" lon="14.21329"><ele>383.2</ele><time>2026-05-01T11:41:10.266Z</time></trkpt><trkpt lat="42.2076933" lon="14.2132717"><ele>385.8</ele><time>2026-05-01T11:41:12.267Z</time></trkpt><trkpt lat="42.2076133" lon="14.21322"><ele>388.4</ele><time>2026-05-01T11:41:14.266Z</time></trkpt><trkpt lat="42.2075167" lon="14.213185"><ele>391.0</ele><time>2026-05-01T11:41:16.266Z</time></trkpt><trkpt lat="42.2073967" lon="14.213195"><ele>391.00000000000006</ele><time>2026-05-01T11:41:18.266Z</time></trkpt><trkpt lat="42.20733" lon="14.2132067"><ele>391.0</ele><time>2026-05-01T11:41:19.266Z</time></trkpt><trkpt lat="42.20723" lon="14.2132367"><ele>391.0</ele><time>2026-05-01T11:41:21.266Z</time></trkpt><trkpt lat="42.2071667" lon="14.213295"><ele>391.0</ele><time>2026-05-01T11:41:23.266Z</time></trkpt><trkpt lat="42.2071" lon="14.2133367"><ele>391.00000000000006</ele><time>2026-05-01T11:41:25.266Z</time></trkpt><trkpt lat="42.2069933" lon="14.213335"><ele>391.0</ele><time>2026-05-01T11:41:27.267Z</time></trkpt><trkpt lat="42.2069233" lon="14.2133367"><ele>392.83333333333337</ele><time>2026-05-01T11:41:28.266Z</time></trkpt><trkpt lat="42.2068567" lon="14.2133433"><ele>394.6666666666667</ele><time>2026-05-01T11:41:29.266Z</time></trkpt><trkpt lat="42.2067867" lon="14.213365"><ele>396.5</ele><time>2026-05-01T11:41:30.266Z</time></trkpt><trkpt lat="42.2067117" lon="14.2134017"><ele>398.33333333333337</ele><time>2026-05-01T11:41:31.266Z</time></trkpt><trkpt lat="42.2066267" lon="14.213435"><ele>400.1666666666667</ele><time>2026-05-01T11:41:32.267Z</time></trkpt><trkpt lat="42.2065483" lon="14.2134633"><ele>402.0</ele><time>2026-05-01T11:41:33.266Z</time></trkpt><trkpt lat="42.206475" lon="14.2134867"><ele>403.6</ele><time>2026-05-01T11:41:34.266Z</time></trkpt><trkpt lat="42.20641" lon="14.2134833"><ele>405.20000000000005</ele><time>2026-05-01T11:41:35.266Z</time></trkpt><trkpt lat="42.2063433" lon="14.2134683"><ele>406.8</ele><time>2026-05-01T11:41:36.266Z</time></trkpt><trkpt lat="42.20624" lon="14.213435"><ele>408.4</ele><time>2026-05-01T11:41:38.266Z</time></trkpt><trkpt lat="42.206135" lon="14.2134167"><ele>410.0</ele><time>2026-05-01T11:41:40.267Z</time></trkpt><trkpt lat="42.2060133" lon="14.2134433"><ele>410.0</ele><time>2026-05-01T11:41:42.266Z</time></trkpt><trkpt lat="42.2059467" lon="14.2134633"><ele>410.0</ele><time>2026-05-01T11:41:43.266Z</time></trkpt><trkpt lat="42.2058767" lon="14.2134767"><ele>410.0</ele><time>2026-05-01T11:41:44.266Z</time></trkpt><trkpt lat="42.2058067" lon="14.2134817"><ele>410.0</ele><time>2026-05-01T11:41:45.266Z</time></trkpt><trkpt lat="42.2057417" lon="14.2134783"><ele>410.0</ele><time>2026-05-01T11:41:46.266Z</time></trkpt><trkpt lat="42.2056767" lon="14.2134683"><ele>410.0</ele><time>2026-05-01T11:41:47.266Z</time></trkpt><trkpt lat="42.2055817" lon="14.21345"><ele>410.0</ele><time>2026-05-01T11:41:49.266Z</time></trkpt><trkpt lat="42.20548" lon="14.213435"><ele>410.8333333333333</ele><time>2026-05-01T11:41:51.267Z</time></trkpt><trkpt lat="42.2053533" lon="14.2134283"><ele>411.66666666666663</ele><time>2026-05-01T11:41:53.266Z</time></trkpt><trkpt lat="42.20528" lon="14.2134233"><ele>412.5</ele><time>2026-05-01T11:41:54.266Z</time></trkpt><trkpt lat="42.2052067" lon="14.213425"><ele>413.33333333333337</ele><time>2026-05-01T11:41:55.266Z</time></trkpt><trkpt lat="42.2051367" lon="14.2134233"><ele>414.1666666666667</ele><time>2026-05-01T11:41:56.266Z</time></trkpt><trkpt lat="42.2050717" lon="14.2134217"><ele>415.0</ele><time>2026-05-01T11:41:57.266Z</time></trkpt><trkpt lat="42.204975" lon="14.213415"><ele>415.0</ele><time>2026-05-01T11:41:59.266Z</time></trkpt><trkpt lat="42.2048867" lon="14.2134067"><ele>415.0</ele><time>2026-05-01T11:42:01.266Z</time></trkpt><trkpt lat="42.20479" lon="14.2134183"><ele>415.0</ele><time>2026-05-01T11:42:03.267Z</time></trkpt><trkpt lat="42.204685" lon="14.2134517"><ele>415.0</ele><time>2026-05-01T11:42:05.266Z</time></trkpt><trkpt lat="42.2045867" lon="14.2135"><ele>415.0</ele><time>2026-05-01T11:42:07.266Z</time></trkpt><trkpt lat="42.20448" lon="14.2135383"><ele>416.4</ele><time>2026-05-01T11:42:09.266Z</time></trkpt><trkpt lat="42.2043783" lon="14.2135633"><ele>417.8</ele><time>2026-05-01T11:42:11.266Z</time></trkpt><trkpt lat="42.204275" lon="14.2135667"><ele>419.20000000000005</ele><time>2026-05-01T11:42:13.266Z</time></trkpt><trkpt lat="42.2041917" lon="14.21356"><ele>420.6</ele><time>2026-05-01T11:42:15.266Z</time></trkpt><trkpt lat="42.2040917" lon="14.2135617"><ele>422.0</ele><time>2026-05-01T11:42:17.266Z</time></trkpt><trkpt lat="42.2039817" lon="14.21355"><ele>423.8</ele><time>2026-05-01T11:42:19.266Z</time></trkpt><trkpt lat="42.2038617" lon="14.2135567"><ele>425.6</ele><time>2026-05-01T11:42:21.266Z</time></trkpt><trkpt lat="42.2037983" lon="14.21357"><ele>427.40000000000003</ele><time>2026-05-01T11:42:22.266Z</time></trkpt><trkpt lat="42.2036767" lon="14.213585"><ele>429.20000000000005</ele><time>2026-05-01T11:42:24.266Z</time></trkpt><trkpt lat="42.203555" lon="14.213595"><ele>431.0</ele><time>2026-05-01T11:42:26.266Z</time></trkpt><trkpt lat="42.2034417" lon="14.2135717"><ele>431.0</ele><time>2026-05-01T11:42:28.266Z</time></trkpt><trkpt lat="42.203325" lon="14.2135617"><ele>431.0</ele><time>2026-05-01T11:42:30.266Z</time></trkpt><trkpt lat="42.2031967" lon="14.2135767"><ele>431.0</ele><time>2026-05-01T11:42:32.266Z</time></trkpt><trkpt lat="42.2030733" lon="14.2135833"><ele>431.0</ele><time>2026-05-01T11:42:34.266Z</time></trkpt><trkpt lat="42.2030033" lon="14.2135817"><ele>431.0</ele><time>2026-05-01T11:42:35.266Z</time></trkpt><trkpt lat="42.20293" lon="14.2135717"><ele>432.49999999999994</ele><time>2026-05-01T11:42:36.266Z</time></trkpt><trkpt lat="42.20286" lon="14.21356"><ele>434.0</ele><time>2026-05-01T11:42:37.266Z</time></trkpt><trkpt lat="42.2027967" lon="14.2135433"><ele>435.5</ele><time>2026-05-01T11:42:38.266Z</time></trkpt><trkpt lat="42.2026783" lon="14.21354"><ele>437.0</ele><time>2026-05-01T11:42:40.266Z</time></trkpt><trkpt lat="42.2026083" lon="14.213545"><ele>438.49999999999994</ele><time>2026-05-01T11:42:41.266Z</time></trkpt><trkpt lat="42.2025283" lon="14.2135283"><ele>440.0</ele><time>2026-05-01T11:42:42.266Z</time></trkpt><trkpt lat="42.2024567" lon="14.2135183"><ele>439.99999999999994</ele><time>2026-05-01T11:42:43.266Z</time></trkpt><trkpt lat="42.2023917" lon="14.2135033"><ele>440.0</ele><time>2026-05-01T11:42:44.266Z</time></trkpt><trkpt lat="42.2023233" lon="14.213495"><ele>440.0</ele><time>2026-05-01T11:42:45.266Z</time></trkpt><trkpt lat="42.2022167" lon="14.2134917"><ele>440.0</ele><time>2026-05-01T11:42:47.266Z</time></trkpt><trkpt lat="42.2021283" lon="14.21351"><ele>439.99999999999994</ele><time>2026-05-01T11:42:49.266Z</time></trkpt><trkpt lat="42.20202" lon="14.2135333"><ele>440.0</ele><time>2026-05-01T11:42:51.266Z</time></trkpt><trkpt lat="42.201955" lon="14.2135483"><ele>442.8</ele><time>2026-05-01T11:42:52.266Z</time></trkpt><trkpt lat="42.20184" lon="14.2135833"><ele>445.6</ele><time>2026-05-01T11:42:54.266Z</time></trkpt><trkpt lat="42.2017167" lon="14.2136167"><ele>448.4</ele><time>2026-05-01T11:42:56.266Z</time></trkpt><trkpt lat="42.201635" lon="14.2136317"><ele>451.2</ele><time>2026-05-01T11:42:57.266Z</time></trkpt><trkpt lat="42.2015533" lon="14.2136383"><ele>454.0</ele><time>2026-05-01T11:42:58.267Z</time></trkpt><trkpt lat="42.2014617" lon="14.2136467"><ele>456.0</ele><time>2026-05-01T11:42:59.266Z</time></trkpt><trkpt lat="42.2013733" lon="14.2136383"><ele>458.0</ele><time>2026-05-01T11:43:00.266Z</time></trkpt><trkpt lat="42.2012817" lon="14.2136333"><ele>460.0</ele><time>2026-05-01T11:43:01.266Z</time></trkpt><trkpt lat="42.2011917" lon="14.2136283"><ele>462.0</ele><time>2026-05-01T11:43:02.266Z</time></trkpt><trkpt lat="42.2010967" lon="14.2136133"><ele>464.0</ele><time>2026-05-01T11:43:03.266Z</time></trkpt><trkpt lat="42.2009967" lon="14.2135933"><ele>463.99999999999994</ele><time>2026-05-01T11:43:04.266Z</time></trkpt><trkpt lat="42.2009067" lon="14.2135667"><ele>464.0</ele><time>2026-05-01T11:43:05.266Z</time></trkpt><trkpt lat="42.200825" lon="14.21354"><ele>464.0</ele><time>2026-05-01T11:43:06.266Z</time></trkpt><trkpt lat="42.2007483" lon="14.2135133"><ele>464.0</ele><time>2026-05-01T11:43:07.266Z</time></trkpt><trkpt lat="42.2006767" lon="14.2134917"><ele>463.99999999999994</ele><time>2026-05-01T11:43:08.266Z</time></trkpt><trkpt lat="42.2006083" lon="14.213475"><ele>464.0</ele><time>2026-05-01T11:43:09.266Z</time></trkpt><trkpt lat="42.2005367" lon="14.2134717"><ele>463.8333333333333</ele><time>2026-05-01T11:43:10.266Z</time></trkpt><trkpt lat="42.2004367" lon="14.213455"><ele>463.66666666666663</ele><time>2026-05-01T11:43:11.266Z</time></trkpt><trkpt lat="42.2003533" lon="14.2134483"><ele>463.5</ele><time>2026-05-01T11:43:12.266Z</time></trkpt><trkpt lat="42.2002817" lon="14.213435"><ele>463.33333333333337</ele><time>2026-05-01T11:43:13.266Z</time></trkpt><trkpt lat="42.2002133" lon="14.2134233"><ele>463.1666666666667</ele><time>2026-05-01T11:43:14.266Z</time></trkpt><trkpt lat="42.2001417" lon="14.2134233"><ele>463.0</ele><time>2026-05-01T11:43:15.266Z</time></trkpt><trkpt lat="42.2000717" lon="14.21344"><ele>463.00000000000006</ele><time>2026-05-01T11:43:16.266Z</time></trkpt><trkpt lat="42.2000067" lon="14.2134533"><ele>463.0</ele><time>2026-05-01T11:43:17.266Z</time></trkpt><trkpt lat="42.1999367" lon="14.2134767"><ele>463.0</ele><time>2026-05-01T11:43:18.266Z</time></trkpt><trkpt lat="42.1998683" lon="14.21352"><ele>463.0</ele><time>2026-05-01T11:43:19.266Z</time></trkpt><trkpt lat="42.1997817" lon="14.21358"><ele>463.00000000000006</ele><time>2026-05-01T11:43:20.266Z</time></trkpt><trkpt lat="42.1997083" lon="14.213645"><ele>463.0</ele><time>2026-05-01T11:43:21.266Z</time></trkpt><trkpt lat="42.19964" lon="14.2137183"><ele>464.33333333333337</ele><time>2026-05-01T11:43:22.266Z</time></trkpt><trkpt lat="42.1995733" lon="14.2137933"><ele>465.6666666666667</ele><time>2026-05-01T11:43:23.266Z</time></trkpt><trkpt lat="42.1995117" lon="14.2138567"><ele>467.0</ele><time>2026-05-01T11:43:24.266Z</time></trkpt><trkpt lat="42.1994433" lon="14.213905"><ele>468.33333333333337</ele><time>2026-05-01T11:43:25.266Z</time></trkpt><trkpt lat="42.1993617" lon="14.2139617"><ele>469.6666666666667</ele><time>2026-05-01T11:43:26.266Z</time></trkpt><trkpt lat="42.1992933" lon="14.214"><ele>471.0</ele><time>2026-05-01T11:43:27.266Z</time></trkpt><trkpt lat="42.19923" lon="14.2140433"><ele>471.0</ele><time>2026-05-01T11:43:28.266Z</time></trkpt><trkpt lat="42.1991483" lon="14.2141017"><ele>471.0</ele><time>2026-05-01T11:43:29.266Z</time></trkpt><trkpt lat="42.19907" lon="14.214175"><ele>471.0</ele><time>2026-05-01T11:43:30.266Z</time></trkpt><trkpt lat="42.19899" lon="14.2142617"><ele>471.0</ele><time>2026-05-01T11:43:31.267Z</time></trkpt><trkpt lat="42.1989083" lon="14.2143517"><ele>471.0</ele><time>2026-05-01T11:43:32.266Z</time></trkpt><trkpt lat="42.1988433" lon="14.21444"><ele>470.8333333333333</ele><time>2026-05-01T11:43:33.267Z</time></trkpt><trkpt lat="42.198795" lon="14.214515"><ele>470.66666666666663</ele><time>2026-05-01T11:43:34.266Z</time></trkpt><trkpt lat="42.1987617" lon="14.214595"><ele>470.5</ele><time>2026-05-01T11:43:35.266Z</time></trkpt><trkpt lat="42.1987133" lon="14.2146717"><ele>470.3333333333333</ele><time>2026-05-01T11:43:36.266Z</time></trkpt><trkpt lat="42.19866" lon="14.2147933"><ele>470.16666666666663</ele><time>2026-05-01T11:43:38.266Z</time></trkpt><trkpt lat="42.198605" lon="14.2148433"><ele>470.0</ele><time>2026-05-01T11:43:40.266Z</time></trkpt><trkpt lat="42.198545" lon="14.2148917"><ele>469.99999999999994</ele><time>2026-05-01T11:43:43.266Z</time></trkpt><trkpt lat="42.1985033" lon="14.21501"><ele>470.0</ele><time>2026-05-01T11:48:19.266Z</time></trkpt><trkpt lat="42.19845" lon="14.215075"><ele>470.0</ele><time>2026-05-01T11:48:26.266Z</time></trkpt><trkpt lat="42.198385" lon="14.215125"><ele>470.0</ele><time>2026-05-01T11:48:33.266Z</time></trkpt><trkpt lat="42.198275" lon="14.2151883"><ele>469.99999999999994</ele><time>2026-05-01T11:48:56.266Z</time></trkpt><trkpt lat="42.1982183" lon="14.2152417"><ele>470.0</ele><time>2026-05-01T11:50:07.266Z</time></trkpt><trkpt lat="42.1981517" lon="14.2152633"><ele>467.66666666666663</ele><time>2026-05-01T11:50:10.266Z</time></trkpt><trkpt lat="42.19805" lon="14.2153267"><ele>465.3333333333333</ele><time>2026-05-01T11:52:13.265Z</time></trkpt><trkpt lat="42.198015" lon="14.2152133"><ele>463.0</ele><time>2026-05-01T11:56:59.265Z</time></trkpt><trkpt lat="42.1980167" lon="14.2153317"><ele>460.66666666666663</ele><time>2026-05-01T11:57:41.265Z</time></trkpt><trkpt lat="42.1980033" lon="14.215435"><ele>458.3333333333333</ele><time>2026-05-01T11:57:43.265Z</time></trkpt><trkpt lat="42.19802" lon="14.2155217"><ele>456.0</ele><time>2026-05-01T11:57:47.265Z</time></trkpt><trkpt lat="42.198" lon="14.2156367"><ele>460.0</ele><time>2026-05-01T11:58:19.265Z</time></trkpt><trkpt lat="42.1979967" lon="14.215745"><ele>464.0</ele><time>2026-05-01T11:58:27.265Z</time></trkpt><trkpt lat="42.19795" lon="14.215935"><ele>468.0</ele><time>2026-05-01T11:58:45.265Z</time></trkpt><trkpt lat="42.1978833" lon="14.2160367"><ele>472.0</ele><time>2026-05-01T11:58:48.265Z</time></trkpt><trkpt lat="42.1978183" lon="14.2161133"><ele>476.0</ele><time>2026-05-01T11:58:50.265Z</time></trkpt><trkpt lat="42.1977233" lon="14.2163367"><ele>475.99999999999994</ele><time>2026-05-01T11:59:57.265Z</time></trkpt><trkpt lat="42.19763" lon="14.216445"><ele>476.0</ele><time>2026-05-01T11:59:59.265Z</time></trkpt><trkpt lat="42.1975767" lon="14.216505"><ele>476.0</ele><time>2026-05-01T12:00:01.265Z</time></trkpt><trkpt lat="42.1975317" lon="14.216565"><ele>476.0</ele><time>2026-05-01T12:00:05.265Z</time></trkpt><trkpt lat="42.1975083" lon="14.2166983"><ele>475.99999999999994</ele><time>2026-05-01T12:00:08.265Z</time></trkpt><trkpt lat="42.19748" lon="14.2168117"><ele>476.0</ele><time>2026-05-01T12:00:10.265Z</time></trkpt><trkpt lat="42.197455" lon="14.216905"><ele>479.6</ele><time>2026-05-01T12:00:12.266Z</time></trkpt><trkpt lat="42.197415" lon="14.2169833"><ele>483.20000000000005</ele><time>2026-05-01T12:00:15.265Z</time></trkpt><trkpt lat="42.197345" lon="14.2170567"><ele>486.79999999999995</ele><time>2026-05-01T12:00:18.265Z</time></trkpt><trkpt lat="42.19725" lon="14.2170533"><ele>490.4</ele><time>2026-05-01T12:00:20.265Z</time></trkpt><trkpt lat="42.197145" lon="14.21707"><ele>494.0</ele><time>2026-05-01T12:00:22.265Z</time></trkpt><trkpt lat="42.19703" lon="14.2171033"><ele>494.0</ele><time>2026-05-01T12:00:24.265Z</time></trkpt><trkpt lat="42.1969233" lon="14.21715"><ele>494.0</ele><time>2026-05-01T12:00:26.265Z</time></trkpt><trkpt lat="42.19681" lon="14.2171783"><ele>494.0</ele><time>2026-05-01T12:00:28.265Z</time></trkpt><trkpt lat="42.1967317" lon="14.21722"><ele>494.0</ele><time>2026-05-01T12:00:29.265Z</time></trkpt><trkpt lat="42.1966667" lon="14.2172417"><ele>494.0</ele><time>2026-05-01T12:00:30.265Z</time></trkpt><trkpt lat="42.196595" lon="14.217255"><ele>493.99999999999994</ele><time>2026-05-01T12:00:31.265Z</time></trkpt><trkpt lat="42.19652" lon="14.2172833"><ele>494.0</ele><time>2026-05-01T12:00:32.265Z</time></trkpt><trkpt lat="42.1964467" lon="14.2173067"><ele>494.0</ele><time>2026-05-01T12:00:33.265Z</time></trkpt><trkpt lat="42.1963783" lon="14.2173333"><ele>494.0</ele><time>2026-05-01T12:00:34.265Z</time></trkpt><trkpt lat="42.1962933" lon="14.21736"><ele>493.99999999999994</ele><time>2026-05-01T12:00:35.265Z</time></trkpt><trkpt lat="42.196215" lon="14.2173817"><ele>494.0</ele><time>2026-05-01T12:00:36.265Z</time></trkpt><trkpt lat="42.196135" lon="14.217405"><ele>497.2</ele><time>2026-05-01T12:00:37.265Z</time></trkpt><trkpt lat="42.1960567" lon="14.2174417"><ele>500.4</ele><time>2026-05-01T12:00:38.265Z</time></trkpt><trkpt lat="42.1959617" lon="14.2174683"><ele>503.6</ele><time>2026-05-01T12:00:39.265Z</time></trkpt><trkpt lat="42.1958717" lon="14.2174933"><ele>506.8</ele><time>2026-05-01T12:00:40.265Z</time></trkpt><trkpt lat="42.1957783" lon="14.2175217"><ele>510.0</ele><time>2026-05-01T12:00:41.265Z</time></trkpt><trkpt lat="42.1956933" lon="14.2175533"><ele>510.8</ele><time>2026-05-01T12:00:42.265Z</time></trkpt><trkpt lat="42.1956083" lon="14.2175867"><ele>511.6</ele><time>2026-05-01T12:00:43.265Z</time></trkpt><trkpt lat="42.1955217" lon="14.2176233"><ele>512.4</ele><time>2026-05-01T12:00:44.265Z</time></trkpt><trkpt lat="42.195435" lon="14.2176667"><ele>513.2</ele><time>2026-05-01T12:00:45.265Z</time></trkpt><trkpt lat="42.19535" lon="14.2177267"><ele>514.0</ele><time>2026-05-01T12:00:46.266Z</time></trkpt><trkpt lat="42.1952733" lon="14.2177967"><ele>514.0</ele><time>2026-05-01T12:00:47.265Z</time></trkpt><trkpt lat="42.1951983" lon="14.2178717"><ele>514.0</ele><time>2026-05-01T12:00:48.265Z</time></trkpt><trkpt lat="42.1951233" lon="14.2179567"><ele>514.0</ele><time>2026-05-01T12:00:49.265Z</time></trkpt><trkpt lat="42.195045" lon="14.2180383"><ele>514.0</ele><time>2026-05-01T12:00:50.265Z</time></trkpt><trkpt lat="42.1949767" lon="14.2181083"><ele>514.0</ele><time>2026-05-01T12:00:51.265Z</time></trkpt><trkpt lat="42.1949217" lon="14.2181633"><ele>514.0</ele><time>2026-05-01T12:00:52.265Z</time></trkpt><trkpt lat="42.1948483" lon="14.2182633"><ele>515.0</ele><time>2026-05-01T12:00:54.265Z</time></trkpt><trkpt lat="42.1948567" lon="14.2183683"><ele>516.0</ele><time>2026-05-01T12:00:57.265Z</time></trkpt><trkpt lat="42.194835" lon="14.21857"><ele>517.0</ele><time>2026-05-01T12:01:09.264Z</time></trkpt><trkpt lat="42.1947833" lon="14.218705"><ele>518.0</ele><time>2026-05-01T12:01:11.264Z</time></trkpt><trkpt lat="42.1947733" lon="14.2187917"><ele>519.0</ele><time>2026-05-01T12:01:12.264Z</time></trkpt><trkpt lat="42.1947817" lon="14.2188783"><ele>519.3333333333334</ele><time>2026-05-01T12:01:13.264Z</time></trkpt><trkpt lat="42.194795" lon="14.2189783"><ele>519.6666666666666</ele><time>2026-05-01T12:01:14.264Z</time></trkpt><trkpt lat="42.1948083" lon="14.2190633"><ele>520.0</ele><time>2026-05-01T12:01:15.264Z</time></trkpt><trkpt lat="42.1948133" lon="14.2191517"><ele>520.3333333333333</ele><time>2026-05-01T12:01:16.265Z</time></trkpt><trkpt lat="42.1948267" lon="14.219255"><ele>520.6666666666666</ele><time>2026-05-01T12:01:17.264Z</time></trkpt><trkpt lat="42.1948517" lon="14.2193767"><ele>521.0</ele><time>2026-05-01T12:01:18.265Z</time></trkpt><trkpt lat="42.1948733" lon="14.2195283"><ele>521.0</ele><time>2026-05-01T12:01:19.264Z</time></trkpt><trkpt lat="42.19488" lon="14.2196883"><ele>521.0</ele><time>2026-05-01T12:01:20.264Z</time></trkpt><trkpt lat="42.1948917" lon="14.2198583"><ele>521.0</ele><time>2026-05-01T12:01:21.264Z</time></trkpt><trkpt lat="42.1948867" lon="14.22001"><ele>521.0</ele><time>2026-05-01T12:01:22.264Z</time></trkpt><trkpt lat="42.1948783" lon="14.2201683"><ele>521.5</ele><time>2026-05-01T12:01:23.264Z</time></trkpt><trkpt lat="42.1948633" lon="14.220325"><ele>522.0</ele><time>2026-05-01T12:01:24.264Z</time></trkpt><trkpt lat="42.194815" lon="14.2204283"><ele>522.5</ele><time>2026-05-01T12:01:25.264Z</time></trkpt><trkpt lat="42.1947717" lon="14.22049"><ele>523.0</ele><time>2026-05-01T12:01:26.264Z</time></trkpt><trkpt lat="42.194705" lon="14.2205317"><ele>523.5</ele><time>2026-05-01T12:01:27.264Z</time></trkpt><trkpt lat="42.19462" lon="14.2205367"><ele>524.0</ele><time>2026-05-01T12:01:28.264Z</time></trkpt><trkpt lat="42.19455" lon="14.2204867"><ele>526.4</ele><time>2026-05-01T12:01:29.264Z</time></trkpt><trkpt lat="42.19449" lon="14.2204233"><ele>528.8</ele><time>2026-05-01T12:01:30.264Z</time></trkpt><trkpt lat="42.19445" lon="14.2203067"><ele>531.2</ele><time>2026-05-01T12:01:31.264Z</time></trkpt><trkpt lat="42.1944133" lon="14.2201767"><ele>533.6</ele><time>2026-05-01T12:01:32.264Z</time></trkpt><trkpt lat="42.194375" lon="14.22001"><ele>536.0</ele><time>2026-05-01T12:01:33.264Z</time></trkpt><trkpt lat="42.194305" lon="14.2198633"><ele>535.0</ele><time>2026-05-01T12:01:34.264Z</time></trkpt><trkpt lat="42.1941967" lon="14.2197433"><ele>534.0</ele><time>2026-05-01T12:01:35.264Z</time></trkpt><trkpt lat="42.1940817" lon="14.21964"><ele>533.0</ele><time>2026-05-01T12:01:36.264Z</time></trkpt><trkpt lat="42.1939667" lon="14.219545"><ele>532.0</ele><time>2026-05-01T12:01:37.264Z</time></trkpt><trkpt lat="42.1938633" lon="14.219465"><ele>533.8000000000001</ele><time>2026-05-01T12:01:38.264Z</time></trkpt><trkpt lat="42.193765" lon="14.219395"><ele>535.6</ele><time>2026-05-01T12:01:39.264Z</time></trkpt><trkpt lat="42.1936667" lon="14.2193317"><ele>537.4000000000001</ele><time>2026-05-01T12:01:40.264Z</time></trkpt><trkpt lat="42.193565" lon="14.2192617"><ele>539.2</ele><time>2026-05-01T12:01:41.265Z</time></trkpt><trkpt lat="42.1934567" lon="14.2192083"><ele>541.0</ele><time>2026-05-01T12:01:42.264Z</time></trkpt><trkpt lat="42.1933517" lon="14.2191817"><ele>541.0</ele><time>2026-05-01T12:01:43.264Z</time></trkpt><trkpt lat="42.1932417" lon="14.2191917"><ele>541.0</ele><time>2026-05-01T12:01:44.264Z</time></trkpt><trkpt lat="42.1931433" lon="14.219245"><ele>541.0</ele><time>2026-05-01T12:01:45.264Z</time></trkpt><trkpt lat="42.1930517" lon="14.2193333"><ele>541.0</ele><time>2026-05-01T12:01:46.264Z</time></trkpt><trkpt lat="42.192985" lon="14.2194383"><ele>541.0</ele><time>2026-05-01T12:01:47.264Z</time></trkpt><trkpt lat="42.1929417" lon="14.2195617"><ele>540.5</ele><time>2026-05-01T12:01:48.264Z</time></trkpt><trkpt lat="42.19291" lon="14.21968"><ele>540.0</ele><time>2026-05-01T12:01:49.264Z</time></trkpt><trkpt lat="42.1929067" lon="14.2197917"><ele>539.5</ele><time>2026-05-01T12:01:50.264Z</time></trkpt><trkpt lat="42.192925" lon="14.2198933"><ele>539.0</ele><time>2026-05-01T12:01:51.264Z</time></trkpt><trkpt lat="42.1929783" lon="14.2199867"><ele>538.5</ele><time>2026-05-01T12:01:52.264Z</time></trkpt><trkpt lat="42.1930467" lon="14.2200667"><ele>538.0</ele><time>2026-05-01T12:01:53.264Z</time></trkpt><trkpt lat="42.1931333" lon="14.2201133"><ele>541.0</ele><time>2026-05-01T12:01:54.264Z</time></trkpt><trkpt lat="42.1932617" lon="14.2201617"><ele>544.0</ele><time>2026-05-01T12:01:55.264Z</time></trkpt><trkpt lat="42.1933967" lon="14.2202083"><ele>547.0</ele><time>2026-05-01T12:01:56.264Z</time></trkpt><trkpt lat="42.1935183" lon="14.2202583"><ele>550.0</ele><time>2026-05-01T12:01:57.264Z</time></trkpt><trkpt lat="42.1936133" lon="14.220285"><ele>550.0</ele><time>2026-05-01T12:01:58.264Z</time></trkpt><trkpt lat="42.1936867" lon="14.2203333"><ele>550.0</ele><time>2026-05-01T12:01:59.264Z</time></trkpt><trkpt lat="42.193755" lon="14.2203783"><ele>550.0</ele><time>2026-05-01T12:02:00.264Z</time></trkpt><trkpt lat="42.1937917" lon="14.2204517"><ele>550.0</ele><time>2026-05-01T12:02:01.264Z</time></trkpt><trkpt lat="42.193775" lon="14.220575"><ele>550.0</ele><time>2026-05-01T12:02:03.264Z</time></trkpt><trkpt lat="42.1936917" lon="14.2206"><ele>550.0</ele><time>2026-05-01T12:02:05.264Z</time></trkpt><trkpt lat="42.1936283" lon="14.2205717"><ele>550.0</ele><time>2026-05-01T12:02:06.265Z</time></trkpt><trkpt lat="42.1935683" lon="14.22054"><ele>550.0</ele><time>2026-05-01T12:02:07.264Z</time></trkpt><trkpt lat="42.19346" lon="14.2205083"><ele>550.0</ele><time>2026-05-01T12:02:09.265Z</time></trkpt><trkpt lat="42.1933567" lon="14.22051"><ele>550.0</ele><time>2026-05-01T12:02:18.265Z</time></trkpt><trkpt lat="42.1933217" lon="14.2206067"><ele>550.0</ele><time>2026-05-01T12:02:23.264Z</time></trkpt><trkpt lat="42.193295" lon="14.22069"><ele>550.0</ele><time>2026-05-01T12:02:29.264Z</time></trkpt><trkpt lat="42.1932567" lon="14.220785"><ele>551.2</ele><time>2026-05-01T12:02:33.264Z</time></trkpt><trkpt lat="42.1932233" lon="14.22091"><ele>552.4</ele><time>2026-05-01T12:02:35.265Z</time></trkpt><trkpt lat="42.1932017" lon="14.221015"><ele>553.6</ele><time>2026-05-01T12:02:37.264Z</time></trkpt><trkpt lat="42.1931233" lon="14.2210383"><ele>554.8</ele><time>2026-05-01T12:02:40.264Z</time></trkpt><trkpt lat="42.1930167" lon="14.2209983"><ele>556.0</ele><time>2026-05-01T12:02:42.264Z</time></trkpt><trkpt lat="42.192895" lon="14.22096"><ele>558.3333333333334</ele><time>2026-05-01T12:02:44.264Z</time></trkpt><trkpt lat="42.1928283" lon="14.2209383"><ele>560.6666666666667</ele><time>2026-05-01T12:02:45.264Z</time></trkpt><trkpt lat="42.19276" lon="14.2209117"><ele>563.0</ele><time>2026-05-01T12:02:46.264Z</time></trkpt><trkpt lat="42.192685" lon="14.22089"><ele>565.3333333333334</ele><time>2026-05-01T12:02:47.264Z</time></trkpt><trkpt lat="42.1926133" lon="14.2208783"><ele>567.6666666666666</ele><time>2026-05-01T12:02:48.264Z</time></trkpt><trkpt lat="42.1925483" lon="14.22087"><ele>570.0</ele><time>2026-05-01T12:02:49.264Z</time></trkpt><trkpt lat="42.19245" lon="14.2208567"><ele>570.0</ele><time>2026-05-01T12:02:51.264Z</time></trkpt><trkpt lat="42.1923867" lon="14.2208733"><ele>570.0</ele><time>2026-05-01T12:02:55.264Z</time></trkpt><trkpt lat="42.1922633" lon="14.220815"><ele>570.0</ele><time>2026-05-01T12:03:01.265Z</time></trkpt><trkpt lat="42.192195" lon="14.220785"><ele>570.0</ele><time>2026-05-01T12:03:02.264Z</time></trkpt><trkpt lat="42.1921283" lon="14.2207583"><ele>570.0</ele><time>2026-05-01T12:03:03.264Z</time></trkpt><trkpt lat="42.1920617" lon="14.2207333"><ele>570.0</ele><time>2026-05-01T12:03:04.264Z</time></trkpt><trkpt lat="42.1919333" lon="14.2206967"><ele>570.6666666666666</ele><time>2026-05-01T12:03:06.264Z</time></trkpt><trkpt lat="42.1918017" lon="14.2207067"><ele>571.3333333333334</ele><time>2026-05-01T12:03:08.264Z</time></trkpt><trkpt lat="42.1917317" lon="14.2207183"><ele>572.0</ele><time>2026-05-01T12:03:09.264Z</time></trkpt><trkpt lat="42.19165" lon="14.2207083"><ele>572.6666666666667</ele><time>2026-05-01T12:03:10.264Z</time></trkpt><trkpt lat="42.1915683" lon="14.2207"><ele>573.3333333333334</ele><time>2026-05-01T12:03:11.264Z</time></trkpt><trkpt lat="42.1914883" lon="14.2207067"><ele>574.0</ele><time>2026-05-01T12:03:12.264Z</time></trkpt><trkpt lat="42.19139" lon="14.2207033"><ele>574.8333333333334</ele><time>2026-05-01T12:03:14.264Z</time></trkpt><trkpt lat="42.1913333" lon="14.2206617"><ele>575.6666666666667</ele><time>2026-05-01T12:03:16.265Z</time></trkpt><trkpt lat="42.1912783" lon="14.220615"><ele>576.5</ele><time>2026-05-01T12:03:18.264Z</time></trkpt><trkpt lat="42.1911533" lon="14.2205017"><ele>577.3333333333334</ele><time>2026-05-01T12:05:09.265Z</time></trkpt><trkpt lat="42.191215" lon="14.2205533"><ele>578.1666666666666</ele><time>2026-05-01T12:05:20.264Z</time></trkpt><trkpt lat="42.1912758" lon="14.2205798"><ele>579.0</ele><time>2026-05-01T12:05:29.416Z</time></trkpt><trkpt lat="42.191328" lon="14.22052"><ele>575.3333333333334</ele><time>2026-05-01T12:05:36.319Z</time></trkpt><trkpt lat="42.1915887" lon="14.2203007"><ele>571.6666666666667</ele><time>2026-05-01T12:06:52.291Z</time></trkpt><trkpt lat="42.1914658" lon="14.2202163"><ele>568.0</ele><time>2026-05-01T12:06:55.292Z</time></trkpt><trkpt lat="42.1914051" lon="14.220249"><ele>568.0</ele><time>2026-05-01T12:07:24.362Z</time></trkpt><trkpt lat="42.1913463" lon="14.2202826"><ele>568.0</ele><time>2026-05-01T12:07:34.356Z</time></trkpt><trkpt lat="42.1912878" lon="14.2203214"><ele>568.0</ele><time>2026-05-01T12:07:48.391Z</time></trkpt><trkpt lat="42.1912903" lon="14.2204148"><ele>568.0</ele><time>2026-05-01T12:07:59.342Z</time></trkpt><trkpt lat="42.191277" lon="14.2205033"><ele>568.0</ele><time>2026-05-01T12:08:23.37Z</time></trkpt><trkpt lat="42.1912154" lon="14.2205241"><ele>568.0</ele><time>2026-05-01T12:09:37.368Z</time></trkpt><trkpt lat="42.1911279" lon="14.2205194"><ele>568.0</ele><time>2026-05-01T12:11:18.369Z</time></trkpt><trkpt lat="42.1910577" lon="14.2205545"><ele>568.0</ele><time>2026-05-01T12:11:24.322Z</time></trkpt><trkpt lat="42.1910623" lon="14.2206449"><ele>568.0</ele><time>2026-05-01T12:11:29.319Z</time></trkpt></trkseg></trk></gpx>